<?xml version="1.0" encoding="UTF-8" standalone="no" ?>
<gpx xmlns="http://www.topografix.com/GPX/1/1" xmlns:xsi="http://www.w3.org/2001/XMLSchema-instance" xsi:schemaLocation="http://www.topografix.com/GPX/1/1 http://www.topografix.com/GPX/1/1/gpx.xsd" version="1.1" creator="VisuGPX - https://www.visugpx.com">
  <metadata>
    <name>Day 3: Hourtin -&gt; Royan</name>
  </metadata>
  <trk>
    <name><![CDATA[Day 3: Hourtin -> Royan_1]]></name>
    <trkseg>
      <trkpt lat="45.19353" lon="-1.07491">
        <ele>64</ele>
        <time>2025-04-26T07:15:05Z</time>
      </trkpt>
      <trkpt lat="45.19352" lon="-1.0749">
        <ele>64</ele>
        <time>2025-04-26T07:15:06Z</time>
      </trkpt>
      <trkpt lat="45.19352" lon="-1.0749">
        <ele>64</ele>
        <time>2025-04-26T07:15:07Z</time>
      </trkpt>
      <trkpt lat="45.19352" lon="-1.07489">
        <ele>64</ele>
        <time>2025-04-26T07:15:08Z</time>
      </trkpt>
      <trkpt lat="45.19352" lon="-1.07489">
        <ele>64</ele>
        <time>2025-04-26T07:15:09Z</time>
      </trkpt>
      <trkpt lat="45.19352" lon="-1.07489">
        <ele>64</ele>
        <time>2025-04-26T07:15:10Z</time>
      </trkpt>
      <trkpt lat="45.19352" lon="-1.07489">
        <ele>64</ele>
        <time>2025-04-26T07:15:11Z</time>
      </trkpt>
      <trkpt lat="45.19352" lon="-1.07489">
        <ele>64</ele>
        <time>2025-04-26T07:15:12Z</time>
      </trkpt>
      <trkpt lat="45.19352" lon="-1.0749">
        <ele>64</ele>
        <time>2025-04-26T07:15:13Z</time>
      </trkpt>
      <trkpt lat="45.19352" lon="-1.07493">
        <ele>64</ele>
        <time>2025-04-26T07:15:14Z</time>
      </trkpt>
      <trkpt lat="45.19367" lon="-1.07477">
        <ele>64</ele>
        <time>2025-04-26T07:25:11Z</time>
      </trkpt>
      <trkpt lat="45.19354" lon="-1.07457">
        <ele>64</ele>
        <time>2025-04-26T07:25:16Z</time>
      </trkpt>
      <trkpt lat="45.19353" lon="-1.07458">
        <ele>64</ele>
        <time>2025-04-26T07:25:17Z</time>
      </trkpt>
      <trkpt lat="45.19353" lon="-1.07459">
        <ele>64</ele>
        <time>2025-04-26T07:25:18Z</time>
      </trkpt>
      <trkpt lat="45.19353" lon="-1.07461">
        <ele>64</ele>
        <time>2025-04-26T07:25:19Z</time>
      </trkpt>
      <trkpt lat="45.19352" lon="-1.07462">
        <ele>64</ele>
        <time>2025-04-26T07:25:20Z</time>
      </trkpt>
      <trkpt lat="45.19352" lon="-1.07463">
        <ele>64</ele>
        <time>2025-04-26T07:25:21Z</time>
      </trkpt>
      <trkpt lat="45.19352" lon="-1.07463">
        <ele>64</ele>
        <time>2025-04-26T07:25:22Z</time>
      </trkpt>
      <trkpt lat="45.19353" lon="-1.07465">
        <ele>64</ele>
        <time>2025-04-26T07:25:23Z</time>
      </trkpt>
      <trkpt lat="45.19353" lon="-1.07466">
        <ele>64</ele>
        <time>2025-04-26T07:25:24Z</time>
      </trkpt>
      <trkpt lat="45.19353" lon="-1.07466">
        <ele>64</ele>
        <time>2025-04-26T07:25:25Z</time>
      </trkpt>
      <trkpt lat="45.19353" lon="-1.07467">
        <ele>64</ele>
        <time>2025-04-26T07:25:26Z</time>
      </trkpt>
      <trkpt lat="45.19353" lon="-1.07468">
        <ele>64</ele>
        <time>2025-04-26T07:25:27Z</time>
      </trkpt>
      <trkpt lat="45.19352" lon="-1.07468">
        <ele>64</ele>
        <time>2025-04-26T07:25:28Z</time>
      </trkpt>
      <trkpt lat="45.19352" lon="-1.07468">
        <ele>64</ele>
        <time>2025-04-26T07:25:29Z</time>
      </trkpt>
      <trkpt lat="45.19352" lon="-1.07468">
        <ele>64</ele>
        <time>2025-04-26T07:25:30Z</time>
      </trkpt>
      <trkpt lat="45.19352" lon="-1.07469">
        <ele>64</ele>
        <time>2025-04-26T07:25:31Z</time>
      </trkpt>
      <trkpt lat="45.19353" lon="-1.07469">
        <ele>64</ele>
        <time>2025-04-26T07:25:32Z</time>
      </trkpt>
      <trkpt lat="45.19353" lon="-1.0747">
        <ele>64</ele>
        <time>2025-04-26T07:25:33Z</time>
      </trkpt>
      <trkpt lat="45.19353" lon="-1.0747">
        <ele>64</ele>
        <time>2025-04-26T07:25:34Z</time>
      </trkpt>
      <trkpt lat="45.19353" lon="-1.0747">
        <ele>64</ele>
        <time>2025-04-26T07:25:35Z</time>
      </trkpt>
      <trkpt lat="45.19353" lon="-1.0747">
        <ele>64</ele>
        <time>2025-04-26T07:25:36Z</time>
      </trkpt>
      <trkpt lat="45.19353" lon="-1.0747">
        <ele>64</ele>
        <time>2025-04-26T07:25:37Z</time>
      </trkpt>
      <trkpt lat="45.19353" lon="-1.07471">
        <ele>64</ele>
        <time>2025-04-26T07:25:38Z</time>
      </trkpt>
      <trkpt lat="45.19353" lon="-1.07471">
        <ele>64</ele>
        <time>2025-04-26T07:25:39Z</time>
      </trkpt>
      <trkpt lat="45.19353" lon="-1.07471">
        <ele>64</ele>
        <time>2025-04-26T07:25:40Z</time>
      </trkpt>
      <trkpt lat="45.19353" lon="-1.0747">
        <ele>64</ele>
        <time>2025-04-26T07:25:41Z</time>
      </trkpt>
      <trkpt lat="45.19352" lon="-1.07468">
        <ele>64</ele>
        <time>2025-04-26T07:25:42Z</time>
      </trkpt>
      <trkpt lat="45.19352" lon="-1.07466">
        <ele>64</ele>
        <time>2025-04-26T07:25:43Z</time>
      </trkpt>
      <trkpt lat="45.19353" lon="-1.07464">
        <ele>64</ele>
        <time>2025-04-26T07:25:44Z</time>
      </trkpt>
      <trkpt lat="45.19354" lon="-1.07462">
        <ele>64</ele>
        <time>2025-04-26T07:25:45Z</time>
      </trkpt>
      <trkpt lat="45.19356" lon="-1.0746">
        <ele>64</ele>
        <time>2025-04-26T07:25:46Z</time>
      </trkpt>
      <trkpt lat="45.19357" lon="-1.07458">
        <ele>64</ele>
        <time>2025-04-26T07:25:47Z</time>
      </trkpt>
      <trkpt lat="45.19359" lon="-1.07456">
        <ele>64</ele>
        <time>2025-04-26T07:25:48Z</time>
      </trkpt>
      <trkpt lat="45.19361" lon="-1.07454">
        <ele>64</ele>
        <time>2025-04-26T07:25:49Z</time>
      </trkpt>
      <trkpt lat="45.19363" lon="-1.07452">
        <ele>64</ele>
        <time>2025-04-26T07:25:50Z</time>
      </trkpt>
      <trkpt lat="45.19365" lon="-1.0745">
        <ele>64</ele>
        <time>2025-04-26T07:25:51Z</time>
      </trkpt>
      <trkpt lat="45.19367" lon="-1.07448">
        <ele>64</ele>
        <time>2025-04-26T07:25:52Z</time>
      </trkpt>
      <trkpt lat="45.19369" lon="-1.07448">
        <ele>64</ele>
        <time>2025-04-26T07:25:53Z</time>
      </trkpt>
      <trkpt lat="45.19371" lon="-1.0745">
        <ele>64</ele>
        <time>2025-04-26T07:25:54Z</time>
      </trkpt>
      <trkpt lat="45.19372" lon="-1.07453">
        <ele>64</ele>
        <time>2025-04-26T07:25:55Z</time>
      </trkpt>
      <trkpt lat="45.19373" lon="-1.07456">
        <ele>64</ele>
        <time>2025-04-26T07:25:56Z</time>
      </trkpt>
      <trkpt lat="45.19373" lon="-1.0746">
        <ele>64</ele>
        <time>2025-04-26T07:25:57Z</time>
      </trkpt>
      <trkpt lat="45.19373" lon="-1.07463">
        <ele>64</ele>
        <time>2025-04-26T07:25:58Z</time>
      </trkpt>
      <trkpt lat="45.19374" lon="-1.07467">
        <ele>64</ele>
        <time>2025-04-26T07:25:59Z</time>
      </trkpt>
      <trkpt lat="45.19374" lon="-1.07471">
        <ele>64</ele>
        <time>2025-04-26T07:26:00Z</time>
      </trkpt>
      <trkpt lat="45.19374" lon="-1.07474">
        <ele>64</ele>
        <time>2025-04-26T07:26:01Z</time>
      </trkpt>
      <trkpt lat="45.19375" lon="-1.07478">
        <ele>64</ele>
        <time>2025-04-26T07:26:02Z</time>
      </trkpt>
      <trkpt lat="45.19375" lon="-1.07482">
        <ele>64</ele>
        <time>2025-04-26T07:26:03Z</time>
      </trkpt>
      <trkpt lat="45.19375" lon="-1.07486">
        <ele>64</ele>
        <time>2025-04-26T07:26:04Z</time>
      </trkpt>
      <trkpt lat="45.19374" lon="-1.0749">
        <ele>64</ele>
        <time>2025-04-26T07:26:05Z</time>
      </trkpt>
      <trkpt lat="45.19375" lon="-1.07493">
        <ele>64</ele>
        <time>2025-04-26T07:26:06Z</time>
      </trkpt>
      <trkpt lat="45.19376" lon="-1.07497">
        <ele>64</ele>
        <time>2025-04-26T07:26:07Z</time>
      </trkpt>
      <trkpt lat="45.19377" lon="-1.075">
        <ele>64</ele>
        <time>2025-04-26T07:26:08Z</time>
      </trkpt>
      <trkpt lat="45.19377" lon="-1.07505">
        <ele>64</ele>
        <time>2025-04-26T07:26:09Z</time>
      </trkpt>
      <trkpt lat="45.19377" lon="-1.07509">
        <ele>64</ele>
        <time>2025-04-26T07:26:10Z</time>
      </trkpt>
      <trkpt lat="45.19378" lon="-1.07513">
        <ele>64</ele>
        <time>2025-04-26T07:26:11Z</time>
      </trkpt>
      <trkpt lat="45.19378" lon="-1.07518">
        <ele>64</ele>
        <time>2025-04-26T07:26:12Z</time>
      </trkpt>
      <trkpt lat="45.19379" lon="-1.07522">
        <ele>64</ele>
        <time>2025-04-26T07:26:13Z</time>
      </trkpt>
      <trkpt lat="45.19379" lon="-1.07527">
        <ele>64</ele>
        <time>2025-04-26T07:26:14Z</time>
      </trkpt>
      <trkpt lat="45.1938" lon="-1.07531">
        <ele>64</ele>
        <time>2025-04-26T07:26:15Z</time>
      </trkpt>
      <trkpt lat="45.1938" lon="-1.07537">
        <ele>64</ele>
        <time>2025-04-26T07:26:16Z</time>
      </trkpt>
      <trkpt lat="45.1938" lon="-1.07542">
        <ele>64</ele>
        <time>2025-04-26T07:26:17Z</time>
      </trkpt>
      <trkpt lat="45.19381" lon="-1.07546">
        <ele>64</ele>
        <time>2025-04-26T07:26:18Z</time>
      </trkpt>
      <trkpt lat="45.19381" lon="-1.07551">
        <ele>64</ele>
        <time>2025-04-26T07:26:19Z</time>
      </trkpt>
      <trkpt lat="45.19382" lon="-1.07556">
        <ele>64</ele>
        <time>2025-04-26T07:26:20Z</time>
      </trkpt>
      <trkpt lat="45.19383" lon="-1.07561">
        <ele>64</ele>
        <time>2025-04-26T07:26:21Z</time>
      </trkpt>
      <trkpt lat="45.19383" lon="-1.07566">
        <ele>64</ele>
        <time>2025-04-26T07:26:22Z</time>
      </trkpt>
      <trkpt lat="45.19383" lon="-1.07571">
        <ele>64</ele>
        <time>2025-04-26T07:26:23Z</time>
      </trkpt>
      <trkpt lat="45.19383" lon="-1.07575">
        <ele>64</ele>
        <time>2025-04-26T07:26:24Z</time>
      </trkpt>
      <trkpt lat="45.19384" lon="-1.07579">
        <ele>64</ele>
        <time>2025-04-26T07:26:25Z</time>
      </trkpt>
      <trkpt lat="45.19384" lon="-1.07584">
        <ele>64</ele>
        <time>2025-04-26T07:26:26Z</time>
      </trkpt>
      <trkpt lat="45.19385" lon="-1.07588">
        <ele>64</ele>
        <time>2025-04-26T07:26:27Z</time>
      </trkpt>
      <trkpt lat="45.19385" lon="-1.07593">
        <ele>64</ele>
        <time>2025-04-26T07:26:28Z</time>
      </trkpt>
      <trkpt lat="45.19385" lon="-1.07597">
        <ele>64</ele>
        <time>2025-04-26T07:26:29Z</time>
      </trkpt>
      <trkpt lat="45.19386" lon="-1.07602">
        <ele>64</ele>
        <time>2025-04-26T07:26:30Z</time>
      </trkpt>
      <trkpt lat="45.19387" lon="-1.07606">
        <ele>64</ele>
        <time>2025-04-26T07:26:31Z</time>
      </trkpt>
      <trkpt lat="45.19387" lon="-1.07611">
        <ele>64</ele>
        <time>2025-04-26T07:26:32Z</time>
      </trkpt>
      <trkpt lat="45.19388" lon="-1.07616">
        <ele>64</ele>
        <time>2025-04-26T07:26:33Z</time>
      </trkpt>
      <trkpt lat="45.19388" lon="-1.07621">
        <ele>64</ele>
        <time>2025-04-26T07:26:34Z</time>
      </trkpt>
      <trkpt lat="45.19389" lon="-1.07625">
        <ele>64</ele>
        <time>2025-04-26T07:26:35Z</time>
      </trkpt>
      <trkpt lat="45.19389" lon="-1.07628">
        <ele>64</ele>
        <time>2025-04-26T07:26:36Z</time>
      </trkpt>
      <trkpt lat="45.19389" lon="-1.07632">
        <ele>64</ele>
        <time>2025-04-26T07:26:37Z</time>
      </trkpt>
      <trkpt lat="45.19389" lon="-1.07635">
        <ele>64</ele>
        <time>2025-04-26T07:26:38Z</time>
      </trkpt>
      <trkpt lat="45.1939" lon="-1.07639">
        <ele>62</ele>
        <time>2025-04-26T07:26:39Z</time>
      </trkpt>
      <trkpt lat="45.19391" lon="-1.07642">
        <ele>62</ele>
        <time>2025-04-26T07:26:40Z</time>
      </trkpt>
      <trkpt lat="45.19392" lon="-1.07646">
        <ele>62</ele>
        <time>2025-04-26T07:26:41Z</time>
      </trkpt>
      <trkpt lat="45.19392" lon="-1.07649">
        <ele>62</ele>
        <time>2025-04-26T07:26:42Z</time>
      </trkpt>
      <trkpt lat="45.19393" lon="-1.07653">
        <ele>61</ele>
        <time>2025-04-26T07:26:43Z</time>
      </trkpt>
      <trkpt lat="45.19394" lon="-1.07656">
        <ele>61</ele>
        <time>2025-04-26T07:26:44Z</time>
      </trkpt>
      <trkpt lat="45.19395" lon="-1.0766">
        <ele>61</ele>
        <time>2025-04-26T07:26:45Z</time>
      </trkpt>
      <trkpt lat="45.19396" lon="-1.07664">
        <ele>62</ele>
        <time>2025-04-26T07:26:46Z</time>
      </trkpt>
      <trkpt lat="45.19398" lon="-1.07668">
        <ele>62</ele>
        <time>2025-04-26T07:26:47Z</time>
      </trkpt>
      <trkpt lat="45.19399" lon="-1.07672">
        <ele>62</ele>
        <time>2025-04-26T07:26:48Z</time>
      </trkpt>
      <trkpt lat="45.19399" lon="-1.07676">
        <ele>62</ele>
        <time>2025-04-26T07:26:49Z</time>
      </trkpt>
      <trkpt lat="45.194" lon="-1.0768">
        <ele>63</ele>
        <time>2025-04-26T07:26:50Z</time>
      </trkpt>
      <trkpt lat="45.19401" lon="-1.07684">
        <ele>63</ele>
        <time>2025-04-26T07:26:51Z</time>
      </trkpt>
      <trkpt lat="45.19402" lon="-1.07689">
        <ele>63</ele>
        <time>2025-04-26T07:26:52Z</time>
      </trkpt>
      <trkpt lat="45.19403" lon="-1.07693">
        <ele>64</ele>
        <time>2025-04-26T07:26:53Z</time>
      </trkpt>
      <trkpt lat="45.19404" lon="-1.07697">
        <ele>64</ele>
        <time>2025-04-26T07:26:54Z</time>
      </trkpt>
      <trkpt lat="45.19404" lon="-1.07702">
        <ele>64</ele>
        <time>2025-04-26T07:26:55Z</time>
      </trkpt>
      <trkpt lat="45.19405" lon="-1.07707">
        <ele>64</ele>
        <time>2025-04-26T07:26:56Z</time>
      </trkpt>
      <trkpt lat="45.19405" lon="-1.07712">
        <ele>64</ele>
        <time>2025-04-26T07:26:57Z</time>
      </trkpt>
      <trkpt lat="45.19406" lon="-1.07716">
        <ele>64</ele>
        <time>2025-04-26T07:26:58Z</time>
      </trkpt>
      <trkpt lat="45.19406" lon="-1.07721">
        <ele>64</ele>
        <time>2025-04-26T07:26:59Z</time>
      </trkpt>
      <trkpt lat="45.19407" lon="-1.07726">
        <ele>64</ele>
        <time>2025-04-26T07:27:00Z</time>
      </trkpt>
      <trkpt lat="45.19408" lon="-1.07731">
        <ele>64</ele>
        <time>2025-04-26T07:27:01Z</time>
      </trkpt>
      <trkpt lat="45.19409" lon="-1.07735">
        <ele>64</ele>
        <time>2025-04-26T07:27:02Z</time>
      </trkpt>
      <trkpt lat="45.19411" lon="-1.07739">
        <ele>64</ele>
        <time>2025-04-26T07:27:03Z</time>
      </trkpt>
      <trkpt lat="45.19412" lon="-1.07743">
        <ele>64</ele>
        <time>2025-04-26T07:27:04Z</time>
      </trkpt>
      <trkpt lat="45.19414" lon="-1.07747">
        <ele>64</ele>
        <time>2025-04-26T07:27:05Z</time>
      </trkpt>
      <trkpt lat="45.19416" lon="-1.07751">
        <ele>64</ele>
        <time>2025-04-26T07:27:06Z</time>
      </trkpt>
      <trkpt lat="45.19418" lon="-1.07755">
        <ele>63</ele>
        <time>2025-04-26T07:27:07Z</time>
      </trkpt>
      <trkpt lat="45.1942" lon="-1.07759">
        <ele>63</ele>
        <time>2025-04-26T07:27:08Z</time>
      </trkpt>
      <trkpt lat="45.19422" lon="-1.07763">
        <ele>63</ele>
        <time>2025-04-26T07:27:09Z</time>
      </trkpt>
      <trkpt lat="45.19424" lon="-1.07767">
        <ele>63</ele>
        <time>2025-04-26T07:27:10Z</time>
      </trkpt>
      <trkpt lat="45.19426" lon="-1.07771">
        <ele>63</ele>
        <time>2025-04-26T07:27:11Z</time>
      </trkpt>
      <trkpt lat="45.19428" lon="-1.07776">
        <ele>63</ele>
        <time>2025-04-26T07:27:12Z</time>
      </trkpt>
      <trkpt lat="45.1943" lon="-1.0778">
        <ele>62</ele>
        <time>2025-04-26T07:27:13Z</time>
      </trkpt>
      <trkpt lat="45.19432" lon="-1.07785">
        <ele>62</ele>
        <time>2025-04-26T07:27:14Z</time>
      </trkpt>
      <trkpt lat="45.19434" lon="-1.07789">
        <ele>62</ele>
        <time>2025-04-26T07:27:15Z</time>
      </trkpt>
      <trkpt lat="45.19436" lon="-1.07793">
        <ele>62</ele>
        <time>2025-04-26T07:27:16Z</time>
      </trkpt>
      <trkpt lat="45.19438" lon="-1.07797">
        <ele>62</ele>
        <time>2025-04-26T07:27:17Z</time>
      </trkpt>
      <trkpt lat="45.1944" lon="-1.07801">
        <ele>62</ele>
        <time>2025-04-26T07:27:18Z</time>
      </trkpt>
      <trkpt lat="45.19441" lon="-1.07805">
        <ele>62</ele>
        <time>2025-04-26T07:27:19Z</time>
      </trkpt>
      <trkpt lat="45.19443" lon="-1.07809">
        <ele>62</ele>
        <time>2025-04-26T07:27:20Z</time>
      </trkpt>
      <trkpt lat="45.19445" lon="-1.07813">
        <ele>62</ele>
        <time>2025-04-26T07:27:21Z</time>
      </trkpt>
      <trkpt lat="45.19447" lon="-1.07817">
        <ele>62</ele>
        <time>2025-04-26T07:27:22Z</time>
      </trkpt>
      <trkpt lat="45.19449" lon="-1.07822">
        <ele>62</ele>
        <time>2025-04-26T07:27:23Z</time>
      </trkpt>
      <trkpt lat="45.19451" lon="-1.07826">
        <ele>62</ele>
        <time>2025-04-26T07:27:24Z</time>
      </trkpt>
      <trkpt lat="45.19453" lon="-1.0783">
        <ele>62</ele>
        <time>2025-04-26T07:27:25Z</time>
      </trkpt>
      <trkpt lat="45.19455" lon="-1.07835">
        <ele>62</ele>
        <time>2025-04-26T07:27:26Z</time>
      </trkpt>
      <trkpt lat="45.19457" lon="-1.0784">
        <ele>63</ele>
        <time>2025-04-26T07:27:27Z</time>
      </trkpt>
      <trkpt lat="45.19459" lon="-1.07845">
        <ele>63</ele>
        <time>2025-04-26T07:27:28Z</time>
      </trkpt>
      <trkpt lat="45.1946" lon="-1.0785">
        <ele>64</ele>
        <time>2025-04-26T07:27:29Z</time>
      </trkpt>
      <trkpt lat="45.19462" lon="-1.07855">
        <ele>64</ele>
        <time>2025-04-26T07:27:30Z</time>
      </trkpt>
      <trkpt lat="45.19464" lon="-1.0786">
        <ele>64</ele>
        <time>2025-04-26T07:27:31Z</time>
      </trkpt>
      <trkpt lat="45.19466" lon="-1.07865">
        <ele>64</ele>
        <time>2025-04-26T07:27:32Z</time>
      </trkpt>
      <trkpt lat="45.19469" lon="-1.0787">
        <ele>64</ele>
        <time>2025-04-26T07:27:33Z</time>
      </trkpt>
      <trkpt lat="45.19471" lon="-1.07875">
        <ele>64</ele>
        <time>2025-04-26T07:27:34Z</time>
      </trkpt>
      <trkpt lat="45.19473" lon="-1.07879">
        <ele>64</ele>
        <time>2025-04-26T07:27:35Z</time>
      </trkpt>
      <trkpt lat="45.19475" lon="-1.07883">
        <ele>64</ele>
        <time>2025-04-26T07:27:36Z</time>
      </trkpt>
      <trkpt lat="45.19477" lon="-1.07888">
        <ele>64</ele>
        <time>2025-04-26T07:27:37Z</time>
      </trkpt>
      <trkpt lat="45.19479" lon="-1.07893">
        <ele>63</ele>
        <time>2025-04-26T07:27:38Z</time>
      </trkpt>
      <trkpt lat="45.1948" lon="-1.07898">
        <ele>63</ele>
        <time>2025-04-26T07:27:39Z</time>
      </trkpt>
      <trkpt lat="45.19482" lon="-1.07903">
        <ele>63</ele>
        <time>2025-04-26T07:27:40Z</time>
      </trkpt>
      <trkpt lat="45.19484" lon="-1.07908">
        <ele>63</ele>
        <time>2025-04-26T07:27:41Z</time>
      </trkpt>
      <trkpt lat="45.19486" lon="-1.07913">
        <ele>63</ele>
        <time>2025-04-26T07:27:42Z</time>
      </trkpt>
      <trkpt lat="45.19488" lon="-1.07918">
        <ele>63</ele>
        <time>2025-04-26T07:27:43Z</time>
      </trkpt>
      <trkpt lat="45.1949" lon="-1.07924">
        <ele>63</ele>
        <time>2025-04-26T07:27:44Z</time>
      </trkpt>
      <trkpt lat="45.19492" lon="-1.07928">
        <ele>63</ele>
        <time>2025-04-26T07:27:45Z</time>
      </trkpt>
      <trkpt lat="45.19495" lon="-1.07933">
        <ele>63</ele>
        <time>2025-04-26T07:27:46Z</time>
      </trkpt>
      <trkpt lat="45.19497" lon="-1.07937">
        <ele>63</ele>
        <time>2025-04-26T07:27:47Z</time>
      </trkpt>
      <trkpt lat="45.195" lon="-1.07942">
        <ele>63</ele>
        <time>2025-04-26T07:27:48Z</time>
      </trkpt>
      <trkpt lat="45.19502" lon="-1.07946">
        <ele>63</ele>
        <time>2025-04-26T07:27:49Z</time>
      </trkpt>
      <trkpt lat="45.19504" lon="-1.07951">
        <ele>63</ele>
        <time>2025-04-26T07:27:50Z</time>
      </trkpt>
      <trkpt lat="45.19507" lon="-1.07956">
        <ele>62</ele>
        <time>2025-04-26T07:27:51Z</time>
      </trkpt>
      <trkpt lat="45.19509" lon="-1.0796">
        <ele>62</ele>
        <time>2025-04-26T07:27:52Z</time>
      </trkpt>
      <trkpt lat="45.19512" lon="-1.07965">
        <ele>63</ele>
        <time>2025-04-26T07:27:53Z</time>
      </trkpt>
      <trkpt lat="45.19514" lon="-1.0797">
        <ele>63</ele>
        <time>2025-04-26T07:27:54Z</time>
      </trkpt>
      <trkpt lat="45.19516" lon="-1.07974">
        <ele>63</ele>
        <time>2025-04-26T07:27:55Z</time>
      </trkpt>
      <trkpt lat="45.19519" lon="-1.07979">
        <ele>63</ele>
        <time>2025-04-26T07:27:56Z</time>
      </trkpt>
      <trkpt lat="45.19521" lon="-1.07984">
        <ele>63</ele>
        <time>2025-04-26T07:27:57Z</time>
      </trkpt>
      <trkpt lat="45.19523" lon="-1.07988">
        <ele>63</ele>
        <time>2025-04-26T07:27:58Z</time>
      </trkpt>
      <trkpt lat="45.19525" lon="-1.07992">
        <ele>63</ele>
        <time>2025-04-26T07:27:59Z</time>
      </trkpt>
      <trkpt lat="45.19527" lon="-1.07996">
        <ele>63</ele>
        <time>2025-04-26T07:28:00Z</time>
      </trkpt>
      <trkpt lat="45.19529" lon="-1.08001">
        <ele>63</ele>
        <time>2025-04-26T07:28:01Z</time>
      </trkpt>
      <trkpt lat="45.19531" lon="-1.08005">
        <ele>63</ele>
        <time>2025-04-26T07:28:02Z</time>
      </trkpt>
      <trkpt lat="45.19533" lon="-1.0801">
        <ele>63</ele>
        <time>2025-04-26T07:28:03Z</time>
      </trkpt>
      <trkpt lat="45.19535" lon="-1.08015">
        <ele>62</ele>
        <time>2025-04-26T07:28:04Z</time>
      </trkpt>
      <trkpt lat="45.19537" lon="-1.08019">
        <ele>62</ele>
        <time>2025-04-26T07:28:05Z</time>
      </trkpt>
      <trkpt lat="45.19539" lon="-1.08024">
        <ele>63</ele>
        <time>2025-04-26T07:28:06Z</time>
      </trkpt>
      <trkpt lat="45.19541" lon="-1.08029">
        <ele>63</ele>
        <time>2025-04-26T07:28:07Z</time>
      </trkpt>
      <trkpt lat="45.19543" lon="-1.08034">
        <ele>64</ele>
        <time>2025-04-26T07:28:08Z</time>
      </trkpt>
      <trkpt lat="45.19545" lon="-1.08039">
        <ele>64</ele>
        <time>2025-04-26T07:28:09Z</time>
      </trkpt>
      <trkpt lat="45.19548" lon="-1.08044">
        <ele>64</ele>
        <time>2025-04-26T07:28:10Z</time>
      </trkpt>
      <trkpt lat="45.19551" lon="-1.08049">
        <ele>64</ele>
        <time>2025-04-26T07:28:11Z</time>
      </trkpt>
      <trkpt lat="45.19553" lon="-1.08053">
        <ele>64</ele>
        <time>2025-04-26T07:28:12Z</time>
      </trkpt>
      <trkpt lat="45.19555" lon="-1.08057">
        <ele>64</ele>
        <time>2025-04-26T07:28:13Z</time>
      </trkpt>
      <trkpt lat="45.19557" lon="-1.08062">
        <ele>64</ele>
        <time>2025-04-26T07:28:14Z</time>
      </trkpt>
      <trkpt lat="45.19559" lon="-1.08068">
        <ele>64</ele>
        <time>2025-04-26T07:28:15Z</time>
      </trkpt>
      <trkpt lat="45.1956" lon="-1.08073">
        <ele>64</ele>
        <time>2025-04-26T07:28:16Z</time>
      </trkpt>
      <trkpt lat="45.19563" lon="-1.08077">
        <ele>64</ele>
        <time>2025-04-26T07:28:17Z</time>
      </trkpt>
      <trkpt lat="45.19565" lon="-1.08081">
        <ele>64</ele>
        <time>2025-04-26T07:28:18Z</time>
      </trkpt>
      <trkpt lat="45.19567" lon="-1.08086">
        <ele>63</ele>
        <time>2025-04-26T07:28:19Z</time>
      </trkpt>
      <trkpt lat="45.1957" lon="-1.0809">
        <ele>63</ele>
        <time>2025-04-26T07:28:20Z</time>
      </trkpt>
      <trkpt lat="45.19572" lon="-1.08095">
        <ele>63</ele>
        <time>2025-04-26T07:28:21Z</time>
      </trkpt>
      <trkpt lat="45.19574" lon="-1.081">
        <ele>63</ele>
        <time>2025-04-26T07:28:22Z</time>
      </trkpt>
      <trkpt lat="45.19577" lon="-1.08104">
        <ele>62</ele>
        <time>2025-04-26T07:28:23Z</time>
      </trkpt>
      <trkpt lat="45.19579" lon="-1.08109">
        <ele>62</ele>
        <time>2025-04-26T07:28:24Z</time>
      </trkpt>
      <trkpt lat="45.19581" lon="-1.08114">
        <ele>62</ele>
        <time>2025-04-26T07:28:25Z</time>
      </trkpt>
      <trkpt lat="45.19583" lon="-1.08118">
        <ele>62</ele>
        <time>2025-04-26T07:28:26Z</time>
      </trkpt>
      <trkpt lat="45.19586" lon="-1.08124">
        <ele>62</ele>
        <time>2025-04-26T07:28:27Z</time>
      </trkpt>
      <trkpt lat="45.19587" lon="-1.08129">
        <ele>61</ele>
        <time>2025-04-26T07:28:28Z</time>
      </trkpt>
      <trkpt lat="45.19589" lon="-1.08134">
        <ele>61</ele>
        <time>2025-04-26T07:28:29Z</time>
      </trkpt>
      <trkpt lat="45.19591" lon="-1.08139">
        <ele>61</ele>
        <time>2025-04-26T07:28:30Z</time>
      </trkpt>
      <trkpt lat="45.19593" lon="-1.08144">
        <ele>62</ele>
        <time>2025-04-26T07:28:31Z</time>
      </trkpt>
      <trkpt lat="45.19595" lon="-1.0815">
        <ele>62</ele>
        <time>2025-04-26T07:28:32Z</time>
      </trkpt>
      <trkpt lat="45.19597" lon="-1.08155">
        <ele>62</ele>
        <time>2025-04-26T07:28:33Z</time>
      </trkpt>
      <trkpt lat="45.19599" lon="-1.0816">
        <ele>62</ele>
        <time>2025-04-26T07:28:34Z</time>
      </trkpt>
      <trkpt lat="45.19601" lon="-1.08165">
        <ele>62</ele>
        <time>2025-04-26T07:28:35Z</time>
      </trkpt>
      <trkpt lat="45.19603" lon="-1.0817">
        <ele>62</ele>
        <time>2025-04-26T07:28:36Z</time>
      </trkpt>
      <trkpt lat="45.19605" lon="-1.08175">
        <ele>62</ele>
        <time>2025-04-26T07:28:37Z</time>
      </trkpt>
      <trkpt lat="45.19607" lon="-1.08181">
        <ele>62</ele>
        <time>2025-04-26T07:28:38Z</time>
      </trkpt>
      <trkpt lat="45.19608" lon="-1.08186">
        <ele>63</ele>
        <time>2025-04-26T07:28:39Z</time>
      </trkpt>
      <trkpt lat="45.1961" lon="-1.08191">
        <ele>63</ele>
        <time>2025-04-26T07:28:40Z</time>
      </trkpt>
      <trkpt lat="45.19613" lon="-1.08196">
        <ele>63</ele>
        <time>2025-04-26T07:28:41Z</time>
      </trkpt>
      <trkpt lat="45.19615" lon="-1.082">
        <ele>62</ele>
        <time>2025-04-26T07:28:42Z</time>
      </trkpt>
      <trkpt lat="45.19617" lon="-1.08205">
        <ele>62</ele>
        <time>2025-04-26T07:28:43Z</time>
      </trkpt>
      <trkpt lat="45.19619" lon="-1.0821">
        <ele>62</ele>
        <time>2025-04-26T07:28:44Z</time>
      </trkpt>
      <trkpt lat="45.19621" lon="-1.08214">
        <ele>62</ele>
        <time>2025-04-26T07:28:45Z</time>
      </trkpt>
      <trkpt lat="45.19623" lon="-1.08219">
        <ele>62</ele>
        <time>2025-04-26T07:28:46Z</time>
      </trkpt>
      <trkpt lat="45.19625" lon="-1.08224">
        <ele>62</ele>
        <time>2025-04-26T07:28:47Z</time>
      </trkpt>
      <trkpt lat="45.19627" lon="-1.08228">
        <ele>62</ele>
        <time>2025-04-26T07:28:48Z</time>
      </trkpt>
      <trkpt lat="45.19629" lon="-1.08233">
        <ele>62</ele>
        <time>2025-04-26T07:28:49Z</time>
      </trkpt>
      <trkpt lat="45.19632" lon="-1.08237">
        <ele>62</ele>
        <time>2025-04-26T07:28:50Z</time>
      </trkpt>
      <trkpt lat="45.19634" lon="-1.08242">
        <ele>63</ele>
        <time>2025-04-26T07:28:51Z</time>
      </trkpt>
      <trkpt lat="45.19636" lon="-1.08246">
        <ele>63</ele>
        <time>2025-04-26T07:28:52Z</time>
      </trkpt>
      <trkpt lat="45.19638" lon="-1.08251">
        <ele>63</ele>
        <time>2025-04-26T07:28:53Z</time>
      </trkpt>
      <trkpt lat="45.1964" lon="-1.08255">
        <ele>63</ele>
        <time>2025-04-26T07:28:54Z</time>
      </trkpt>
      <trkpt lat="45.19643" lon="-1.08259">
        <ele>63</ele>
        <time>2025-04-26T07:28:55Z</time>
      </trkpt>
      <trkpt lat="45.19645" lon="-1.08264">
        <ele>63</ele>
        <time>2025-04-26T07:28:56Z</time>
      </trkpt>
      <trkpt lat="45.19647" lon="-1.08269">
        <ele>64</ele>
        <time>2025-04-26T07:28:57Z</time>
      </trkpt>
      <trkpt lat="45.19649" lon="-1.08274">
        <ele>63</ele>
        <time>2025-04-26T07:28:58Z</time>
      </trkpt>
      <trkpt lat="45.19651" lon="-1.08279">
        <ele>63</ele>
        <time>2025-04-26T07:28:59Z</time>
      </trkpt>
      <trkpt lat="45.19653" lon="-1.08283">
        <ele>63</ele>
        <time>2025-04-26T07:29:00Z</time>
      </trkpt>
      <trkpt lat="45.19655" lon="-1.08288">
        <ele>63</ele>
        <time>2025-04-26T07:29:01Z</time>
      </trkpt>
      <trkpt lat="45.19657" lon="-1.08293">
        <ele>62</ele>
        <time>2025-04-26T07:29:02Z</time>
      </trkpt>
      <trkpt lat="45.19658" lon="-1.08299">
        <ele>62</ele>
        <time>2025-04-26T07:29:03Z</time>
      </trkpt>
      <trkpt lat="45.19661" lon="-1.08303">
        <ele>62</ele>
        <time>2025-04-26T07:29:04Z</time>
      </trkpt>
      <trkpt lat="45.19663" lon="-1.08308">
        <ele>62</ele>
        <time>2025-04-26T07:29:05Z</time>
      </trkpt>
      <trkpt lat="45.19665" lon="-1.08313">
        <ele>62</ele>
        <time>2025-04-26T07:29:06Z</time>
      </trkpt>
      <trkpt lat="45.19666" lon="-1.08319">
        <ele>62</ele>
        <time>2025-04-26T07:29:07Z</time>
      </trkpt>
      <trkpt lat="45.19668" lon="-1.08324">
        <ele>63</ele>
        <time>2025-04-26T07:29:08Z</time>
      </trkpt>
      <trkpt lat="45.19669" lon="-1.0833">
        <ele>63</ele>
        <time>2025-04-26T07:29:09Z</time>
      </trkpt>
      <trkpt lat="45.19671" lon="-1.08336">
        <ele>63</ele>
        <time>2025-04-26T07:29:10Z</time>
      </trkpt>
      <trkpt lat="45.19674" lon="-1.08341">
        <ele>63</ele>
        <time>2025-04-26T07:29:11Z</time>
      </trkpt>
      <trkpt lat="45.19675" lon="-1.08346">
        <ele>63</ele>
        <time>2025-04-26T07:29:12Z</time>
      </trkpt>
      <trkpt lat="45.19677" lon="-1.08351">
        <ele>63</ele>
        <time>2025-04-26T07:29:13Z</time>
      </trkpt>
      <trkpt lat="45.19679" lon="-1.08356">
        <ele>63</ele>
        <time>2025-04-26T07:29:14Z</time>
      </trkpt>
      <trkpt lat="45.19681" lon="-1.08361">
        <ele>63</ele>
        <time>2025-04-26T07:29:15Z</time>
      </trkpt>
      <trkpt lat="45.19683" lon="-1.08366">
        <ele>63</ele>
        <time>2025-04-26T07:29:16Z</time>
      </trkpt>
      <trkpt lat="45.19685" lon="-1.08371">
        <ele>63</ele>
        <time>2025-04-26T07:29:17Z</time>
      </trkpt>
      <trkpt lat="45.19686" lon="-1.08376">
        <ele>62</ele>
        <time>2025-04-26T07:29:18Z</time>
      </trkpt>
      <trkpt lat="45.19688" lon="-1.08381">
        <ele>62</ele>
        <time>2025-04-26T07:29:19Z</time>
      </trkpt>
      <trkpt lat="45.1969" lon="-1.08386">
        <ele>62</ele>
        <time>2025-04-26T07:29:20Z</time>
      </trkpt>
      <trkpt lat="45.19692" lon="-1.08391">
        <ele>62</ele>
        <time>2025-04-26T07:29:21Z</time>
      </trkpt>
      <trkpt lat="45.19695" lon="-1.08395">
        <ele>63</ele>
        <time>2025-04-26T07:29:22Z</time>
      </trkpt>
      <trkpt lat="45.19696" lon="-1.08401">
        <ele>63</ele>
        <time>2025-04-26T07:29:23Z</time>
      </trkpt>
      <trkpt lat="45.19698" lon="-1.08406">
        <ele>63</ele>
        <time>2025-04-26T07:29:24Z</time>
      </trkpt>
      <trkpt lat="45.19701" lon="-1.08411">
        <ele>63</ele>
        <time>2025-04-26T07:29:25Z</time>
      </trkpt>
      <trkpt lat="45.19703" lon="-1.08416">
        <ele>63</ele>
        <time>2025-04-26T07:29:26Z</time>
      </trkpt>
      <trkpt lat="45.19705" lon="-1.08421">
        <ele>63</ele>
        <time>2025-04-26T07:29:27Z</time>
      </trkpt>
      <trkpt lat="45.19707" lon="-1.08426">
        <ele>63</ele>
        <time>2025-04-26T07:29:28Z</time>
      </trkpt>
      <trkpt lat="45.19708" lon="-1.08431">
        <ele>63</ele>
        <time>2025-04-26T07:29:29Z</time>
      </trkpt>
      <trkpt lat="45.19709" lon="-1.08437">
        <ele>62</ele>
        <time>2025-04-26T07:29:30Z</time>
      </trkpt>
      <trkpt lat="45.19711" lon="-1.08443">
        <ele>62</ele>
        <time>2025-04-26T07:29:31Z</time>
      </trkpt>
      <trkpt lat="45.19712" lon="-1.08449">
        <ele>62</ele>
        <time>2025-04-26T07:29:32Z</time>
      </trkpt>
      <trkpt lat="45.19714" lon="-1.08454">
        <ele>62</ele>
        <time>2025-04-26T07:29:33Z</time>
      </trkpt>
      <trkpt lat="45.19715" lon="-1.08459">
        <ele>62</ele>
        <time>2025-04-26T07:29:34Z</time>
      </trkpt>
      <trkpt lat="45.19717" lon="-1.08465">
        <ele>62</ele>
        <time>2025-04-26T07:29:35Z</time>
      </trkpt>
      <trkpt lat="45.19718" lon="-1.0847">
        <ele>61</ele>
        <time>2025-04-26T07:29:36Z</time>
      </trkpt>
      <trkpt lat="45.19719" lon="-1.08475">
        <ele>61</ele>
        <time>2025-04-26T07:29:37Z</time>
      </trkpt>
      <trkpt lat="45.19722" lon="-1.0848">
        <ele>61</ele>
        <time>2025-04-26T07:29:38Z</time>
      </trkpt>
      <trkpt lat="45.19724" lon="-1.08485">
        <ele>61</ele>
        <time>2025-04-26T07:29:39Z</time>
      </trkpt>
      <trkpt lat="45.19725" lon="-1.08491">
        <ele>60</ele>
        <time>2025-04-26T07:29:40Z</time>
      </trkpt>
      <trkpt lat="45.19727" lon="-1.08496">
        <ele>60</ele>
        <time>2025-04-26T07:29:41Z</time>
      </trkpt>
      <trkpt lat="45.19729" lon="-1.08502">
        <ele>60</ele>
        <time>2025-04-26T07:29:42Z</time>
      </trkpt>
      <trkpt lat="45.1973" lon="-1.08508">
        <ele>61</ele>
        <time>2025-04-26T07:29:43Z</time>
      </trkpt>
      <trkpt lat="45.19732" lon="-1.08514">
        <ele>61</ele>
        <time>2025-04-26T07:29:44Z</time>
      </trkpt>
      <trkpt lat="45.19733" lon="-1.0852">
        <ele>61</ele>
        <time>2025-04-26T07:29:45Z</time>
      </trkpt>
      <trkpt lat="45.19735" lon="-1.08525">
        <ele>61</ele>
        <time>2025-04-26T07:29:46Z</time>
      </trkpt>
      <trkpt lat="45.19736" lon="-1.08531">
        <ele>60</ele>
        <time>2025-04-26T07:29:47Z</time>
      </trkpt>
      <trkpt lat="45.19737" lon="-1.08537">
        <ele>60</ele>
        <time>2025-04-26T07:29:48Z</time>
      </trkpt>
      <trkpt lat="45.19738" lon="-1.08543">
        <ele>61</ele>
        <time>2025-04-26T07:29:49Z</time>
      </trkpt>
      <trkpt lat="45.19739" lon="-1.08549">
        <ele>61</ele>
        <time>2025-04-26T07:29:50Z</time>
      </trkpt>
      <trkpt lat="45.19739" lon="-1.08556">
        <ele>62</ele>
        <time>2025-04-26T07:29:51Z</time>
      </trkpt>
      <trkpt lat="45.19739" lon="-1.08562">
        <ele>63</ele>
        <time>2025-04-26T07:29:52Z</time>
      </trkpt>
      <trkpt lat="45.1974" lon="-1.08568">
        <ele>63</ele>
        <time>2025-04-26T07:29:53Z</time>
      </trkpt>
      <trkpt lat="45.19739" lon="-1.08574">
        <ele>63</ele>
        <time>2025-04-26T07:29:54Z</time>
      </trkpt>
      <trkpt lat="45.1974" lon="-1.0858">
        <ele>63</ele>
        <time>2025-04-26T07:29:55Z</time>
      </trkpt>
      <trkpt lat="45.1974" lon="-1.08586">
        <ele>63</ele>
        <time>2025-04-26T07:29:56Z</time>
      </trkpt>
      <trkpt lat="45.19741" lon="-1.08592">
        <ele>64</ele>
        <time>2025-04-26T07:29:57Z</time>
      </trkpt>
      <trkpt lat="45.19741" lon="-1.08598">
        <ele>64</ele>
        <time>2025-04-26T07:29:58Z</time>
      </trkpt>
      <trkpt lat="45.19741" lon="-1.08604">
        <ele>63</ele>
        <time>2025-04-26T07:29:59Z</time>
      </trkpt>
      <trkpt lat="45.19742" lon="-1.0861">
        <ele>63</ele>
        <time>2025-04-26T07:30:00Z</time>
      </trkpt>
      <trkpt lat="45.19743" lon="-1.08615">
        <ele>64</ele>
        <time>2025-04-26T07:30:01Z</time>
      </trkpt>
      <trkpt lat="45.19743" lon="-1.08621">
        <ele>64</ele>
        <time>2025-04-26T07:30:02Z</time>
      </trkpt>
      <trkpt lat="45.19744" lon="-1.08626">
        <ele>64</ele>
        <time>2025-04-26T07:30:03Z</time>
      </trkpt>
      <trkpt lat="45.19745" lon="-1.08631">
        <ele>64</ele>
        <time>2025-04-26T07:30:04Z</time>
      </trkpt>
      <trkpt lat="45.19745" lon="-1.08637">
        <ele>64</ele>
        <time>2025-04-26T07:30:05Z</time>
      </trkpt>
      <trkpt lat="45.19746" lon="-1.08643">
        <ele>64</ele>
        <time>2025-04-26T07:30:06Z</time>
      </trkpt>
      <trkpt lat="45.19747" lon="-1.08648">
        <ele>64</ele>
        <time>2025-04-26T07:30:07Z</time>
      </trkpt>
      <trkpt lat="45.19749" lon="-1.08653">
        <ele>65</ele>
        <time>2025-04-26T07:30:08Z</time>
      </trkpt>
      <trkpt lat="45.1975" lon="-1.08658">
        <ele>65</ele>
        <time>2025-04-26T07:30:09Z</time>
      </trkpt>
      <trkpt lat="45.19752" lon="-1.08663">
        <ele>65</ele>
        <time>2025-04-26T07:30:10Z</time>
      </trkpt>
      <trkpt lat="45.19754" lon="-1.08668">
        <ele>65</ele>
        <time>2025-04-26T07:30:11Z</time>
      </trkpt>
      <trkpt lat="45.19757" lon="-1.08672">
        <ele>65</ele>
        <time>2025-04-26T07:30:12Z</time>
      </trkpt>
      <trkpt lat="45.19759" lon="-1.08676">
        <ele>65</ele>
        <time>2025-04-26T07:30:13Z</time>
      </trkpt>
      <trkpt lat="45.19761" lon="-1.0868">
        <ele>64</ele>
        <time>2025-04-26T07:30:14Z</time>
      </trkpt>
      <trkpt lat="45.19764" lon="-1.08684">
        <ele>64</ele>
        <time>2025-04-26T07:30:15Z</time>
      </trkpt>
      <trkpt lat="45.19766" lon="-1.08689">
        <ele>64</ele>
        <time>2025-04-26T07:30:16Z</time>
      </trkpt>
      <trkpt lat="45.19768" lon="-1.08693">
        <ele>64</ele>
        <time>2025-04-26T07:30:17Z</time>
      </trkpt>
      <trkpt lat="45.1977" lon="-1.08697">
        <ele>64</ele>
        <time>2025-04-26T07:30:18Z</time>
      </trkpt>
      <trkpt lat="45.19772" lon="-1.08701">
        <ele>64</ele>
        <time>2025-04-26T07:30:19Z</time>
      </trkpt>
      <trkpt lat="45.19775" lon="-1.08706">
        <ele>64</ele>
        <time>2025-04-26T07:30:20Z</time>
      </trkpt>
      <trkpt lat="45.19777" lon="-1.08711">
        <ele>64</ele>
        <time>2025-04-26T07:30:21Z</time>
      </trkpt>
      <trkpt lat="45.1978" lon="-1.08715">
        <ele>64</ele>
        <time>2025-04-26T07:30:22Z</time>
      </trkpt>
      <trkpt lat="45.19783" lon="-1.08719">
        <ele>64</ele>
        <time>2025-04-26T07:30:23Z</time>
      </trkpt>
      <trkpt lat="45.19786" lon="-1.08724">
        <ele>64</ele>
        <time>2025-04-26T07:30:24Z</time>
      </trkpt>
      <trkpt lat="45.19788" lon="-1.08728">
        <ele>64</ele>
        <time>2025-04-26T07:30:25Z</time>
      </trkpt>
      <trkpt lat="45.19791" lon="-1.08733">
        <ele>64</ele>
        <time>2025-04-26T07:30:26Z</time>
      </trkpt>
      <trkpt lat="45.19793" lon="-1.08737">
        <ele>64</ele>
        <time>2025-04-26T07:30:27Z</time>
      </trkpt>
      <trkpt lat="45.19795" lon="-1.08742">
        <ele>64</ele>
        <time>2025-04-26T07:30:28Z</time>
      </trkpt>
      <trkpt lat="45.19798" lon="-1.08746">
        <ele>64</ele>
        <time>2025-04-26T07:30:29Z</time>
      </trkpt>
      <trkpt lat="45.19801" lon="-1.08751">
        <ele>63</ele>
        <time>2025-04-26T07:30:30Z</time>
      </trkpt>
      <trkpt lat="45.19803" lon="-1.08755">
        <ele>63</ele>
        <time>2025-04-26T07:30:31Z</time>
      </trkpt>
      <trkpt lat="45.19806" lon="-1.08759">
        <ele>63</ele>
        <time>2025-04-26T07:30:32Z</time>
      </trkpt>
      <trkpt lat="45.19809" lon="-1.08763">
        <ele>63</ele>
        <time>2025-04-26T07:30:33Z</time>
      </trkpt>
      <trkpt lat="45.19811" lon="-1.08768">
        <ele>63</ele>
        <time>2025-04-26T07:30:34Z</time>
      </trkpt>
      <trkpt lat="45.19814" lon="-1.08772">
        <ele>64</ele>
        <time>2025-04-26T07:30:35Z</time>
      </trkpt>
      <trkpt lat="45.19817" lon="-1.08777">
        <ele>64</ele>
        <time>2025-04-26T07:30:36Z</time>
      </trkpt>
      <trkpt lat="45.19819" lon="-1.08781">
        <ele>64</ele>
        <time>2025-04-26T07:30:37Z</time>
      </trkpt>
      <trkpt lat="45.19822" lon="-1.08785">
        <ele>64</ele>
        <time>2025-04-26T07:30:38Z</time>
      </trkpt>
      <trkpt lat="45.19825" lon="-1.0879">
        <ele>64</ele>
        <time>2025-04-26T07:30:39Z</time>
      </trkpt>
      <trkpt lat="45.19827" lon="-1.08794">
        <ele>64</ele>
        <time>2025-04-26T07:30:40Z</time>
      </trkpt>
      <trkpt lat="45.1983" lon="-1.08799">
        <ele>65</ele>
        <time>2025-04-26T07:30:41Z</time>
      </trkpt>
      <trkpt lat="45.19832" lon="-1.08803">
        <ele>65</ele>
        <time>2025-04-26T07:30:42Z</time>
      </trkpt>
      <trkpt lat="45.19834" lon="-1.08808">
        <ele>65</ele>
        <time>2025-04-26T07:30:43Z</time>
      </trkpt>
      <trkpt lat="45.19837" lon="-1.08811">
        <ele>65</ele>
        <time>2025-04-26T07:30:44Z</time>
      </trkpt>
      <trkpt lat="45.19839" lon="-1.08815">
        <ele>65</ele>
        <time>2025-04-26T07:30:45Z</time>
      </trkpt>
      <trkpt lat="45.19841" lon="-1.08819">
        <ele>66</ele>
        <time>2025-04-26T07:30:46Z</time>
      </trkpt>
      <trkpt lat="45.19843" lon="-1.08824">
        <ele>66</ele>
        <time>2025-04-26T07:30:47Z</time>
      </trkpt>
      <trkpt lat="45.19846" lon="-1.08828">
        <ele>65</ele>
        <time>2025-04-26T07:30:48Z</time>
      </trkpt>
      <trkpt lat="45.19849" lon="-1.08832">
        <ele>64</ele>
        <time>2025-04-26T07:30:49Z</time>
      </trkpt>
      <trkpt lat="45.19853" lon="-1.08837">
        <ele>64</ele>
        <time>2025-04-26T07:30:50Z</time>
      </trkpt>
      <trkpt lat="45.19856" lon="-1.0884">
        <ele>64</ele>
        <time>2025-04-26T07:30:51Z</time>
      </trkpt>
      <trkpt lat="45.19859" lon="-1.08844">
        <ele>63</ele>
        <time>2025-04-26T07:30:52Z</time>
      </trkpt>
      <trkpt lat="45.19862" lon="-1.08847">
        <ele>63</ele>
        <time>2025-04-26T07:30:53Z</time>
      </trkpt>
      <trkpt lat="45.19865" lon="-1.08851">
        <ele>63</ele>
        <time>2025-04-26T07:30:54Z</time>
      </trkpt>
      <trkpt lat="45.19868" lon="-1.08855">
        <ele>63</ele>
        <time>2025-04-26T07:30:55Z</time>
      </trkpt>
      <trkpt lat="45.19871" lon="-1.08858">
        <ele>63</ele>
        <time>2025-04-26T07:30:56Z</time>
      </trkpt>
      <trkpt lat="45.19873" lon="-1.08862">
        <ele>64</ele>
        <time>2025-04-26T07:30:57Z</time>
      </trkpt>
      <trkpt lat="45.19876" lon="-1.08866">
        <ele>64</ele>
        <time>2025-04-26T07:30:58Z</time>
      </trkpt>
      <trkpt lat="45.19878" lon="-1.0887">
        <ele>65</ele>
        <time>2025-04-26T07:30:59Z</time>
      </trkpt>
      <trkpt lat="45.19881" lon="-1.08874">
        <ele>65</ele>
        <time>2025-04-26T07:31:00Z</time>
      </trkpt>
      <trkpt lat="45.19884" lon="-1.08878">
        <ele>66</ele>
        <time>2025-04-26T07:31:01Z</time>
      </trkpt>
      <trkpt lat="45.19888" lon="-1.08882">
        <ele>66</ele>
        <time>2025-04-26T07:31:02Z</time>
      </trkpt>
      <trkpt lat="45.19891" lon="-1.08885">
        <ele>67</ele>
        <time>2025-04-26T07:31:03Z</time>
      </trkpt>
      <trkpt lat="45.19894" lon="-1.08889">
        <ele>66</ele>
        <time>2025-04-26T07:31:04Z</time>
      </trkpt>
      <trkpt lat="45.19897" lon="-1.08893">
        <ele>66</ele>
        <time>2025-04-26T07:31:05Z</time>
      </trkpt>
      <trkpt lat="45.199" lon="-1.08897">
        <ele>66</ele>
        <time>2025-04-26T07:31:06Z</time>
      </trkpt>
      <trkpt lat="45.19903" lon="-1.08901">
        <ele>66</ele>
        <time>2025-04-26T07:31:07Z</time>
      </trkpt>
      <trkpt lat="45.19905" lon="-1.08906">
        <ele>65</ele>
        <time>2025-04-26T07:31:08Z</time>
      </trkpt>
      <trkpt lat="45.19907" lon="-1.0891">
        <ele>65</ele>
        <time>2025-04-26T07:31:09Z</time>
      </trkpt>
      <trkpt lat="45.1991" lon="-1.08914">
        <ele>65</ele>
        <time>2025-04-26T07:31:10Z</time>
      </trkpt>
      <trkpt lat="45.19913" lon="-1.08917">
        <ele>65</ele>
        <time>2025-04-26T07:31:11Z</time>
      </trkpt>
      <trkpt lat="45.19917" lon="-1.08921">
        <ele>65</ele>
        <time>2025-04-26T07:31:12Z</time>
      </trkpt>
      <trkpt lat="45.1992" lon="-1.08925">
        <ele>65</ele>
        <time>2025-04-26T07:31:13Z</time>
      </trkpt>
      <trkpt lat="45.19923" lon="-1.08929">
        <ele>65</ele>
        <time>2025-04-26T07:31:14Z</time>
      </trkpt>
      <trkpt lat="45.19926" lon="-1.08933">
        <ele>64</ele>
        <time>2025-04-26T07:31:15Z</time>
      </trkpt>
      <trkpt lat="45.19928" lon="-1.08937">
        <ele>63</ele>
        <time>2025-04-26T07:31:16Z</time>
      </trkpt>
      <trkpt lat="45.19931" lon="-1.08941">
        <ele>62</ele>
        <time>2025-04-26T07:31:17Z</time>
      </trkpt>
      <trkpt lat="45.19933" lon="-1.08946">
        <ele>62</ele>
        <time>2025-04-26T07:31:18Z</time>
      </trkpt>
      <trkpt lat="45.19936" lon="-1.0895">
        <ele>62</ele>
        <time>2025-04-26T07:31:19Z</time>
      </trkpt>
      <trkpt lat="45.19938" lon="-1.08955">
        <ele>61</ele>
        <time>2025-04-26T07:31:20Z</time>
      </trkpt>
      <trkpt lat="45.19941" lon="-1.0896">
        <ele>61</ele>
        <time>2025-04-26T07:31:21Z</time>
      </trkpt>
      <trkpt lat="45.19944" lon="-1.08964">
        <ele>61</ele>
        <time>2025-04-26T07:31:22Z</time>
      </trkpt>
      <trkpt lat="45.19948" lon="-1.08968">
        <ele>62</ele>
        <time>2025-04-26T07:31:23Z</time>
      </trkpt>
      <trkpt lat="45.19951" lon="-1.08973">
        <ele>62</ele>
        <time>2025-04-26T07:31:24Z</time>
      </trkpt>
      <trkpt lat="45.19954" lon="-1.08977">
        <ele>62</ele>
        <time>2025-04-26T07:31:25Z</time>
      </trkpt>
      <trkpt lat="45.19957" lon="-1.08982">
        <ele>62</ele>
        <time>2025-04-26T07:31:26Z</time>
      </trkpt>
      <trkpt lat="45.19959" lon="-1.08987">
        <ele>62</ele>
        <time>2025-04-26T07:31:27Z</time>
      </trkpt>
      <trkpt lat="45.19962" lon="-1.08991">
        <ele>62</ele>
        <time>2025-04-26T07:31:28Z</time>
      </trkpt>
      <trkpt lat="45.19965" lon="-1.08996">
        <ele>62</ele>
        <time>2025-04-26T07:31:29Z</time>
      </trkpt>
      <trkpt lat="45.19968" lon="-1.09001">
        <ele>62</ele>
        <time>2025-04-26T07:31:30Z</time>
      </trkpt>
      <trkpt lat="45.19971" lon="-1.09006">
        <ele>62</ele>
        <time>2025-04-26T07:31:31Z</time>
      </trkpt>
      <trkpt lat="45.19973" lon="-1.09011">
        <ele>62</ele>
        <time>2025-04-26T07:31:32Z</time>
      </trkpt>
      <trkpt lat="45.19976" lon="-1.09016">
        <ele>62</ele>
        <time>2025-04-26T07:31:33Z</time>
      </trkpt>
      <trkpt lat="45.19979" lon="-1.09021">
        <ele>61</ele>
        <time>2025-04-26T07:31:34Z</time>
      </trkpt>
      <trkpt lat="45.19981" lon="-1.09026">
        <ele>61</ele>
        <time>2025-04-26T07:31:35Z</time>
      </trkpt>
      <trkpt lat="45.19984" lon="-1.09031">
        <ele>61</ele>
        <time>2025-04-26T07:31:36Z</time>
      </trkpt>
      <trkpt lat="45.19986" lon="-1.09036">
        <ele>62</ele>
        <time>2025-04-26T07:31:37Z</time>
      </trkpt>
      <trkpt lat="45.19989" lon="-1.09041">
        <ele>63</ele>
        <time>2025-04-26T07:31:38Z</time>
      </trkpt>
      <trkpt lat="45.19992" lon="-1.09045">
        <ele>63</ele>
        <time>2025-04-26T07:31:39Z</time>
      </trkpt>
      <trkpt lat="45.19995" lon="-1.0905">
        <ele>64</ele>
        <time>2025-04-26T07:31:40Z</time>
      </trkpt>
      <trkpt lat="45.19998" lon="-1.09053">
        <ele>64</ele>
        <time>2025-04-26T07:31:41Z</time>
      </trkpt>
      <trkpt lat="45.20002" lon="-1.09056">
        <ele>65</ele>
        <time>2025-04-26T07:31:42Z</time>
      </trkpt>
      <trkpt lat="45.20005" lon="-1.09058">
        <ele>65</ele>
        <time>2025-04-26T07:31:43Z</time>
      </trkpt>
      <trkpt lat="45.20009" lon="-1.09061">
        <ele>65</ele>
        <time>2025-04-26T07:31:44Z</time>
      </trkpt>
      <trkpt lat="45.20013" lon="-1.09064">
        <ele>65</ele>
        <time>2025-04-26T07:31:45Z</time>
      </trkpt>
      <trkpt lat="45.20018" lon="-1.09067">
        <ele>66</ele>
        <time>2025-04-26T07:31:46Z</time>
      </trkpt>
      <trkpt lat="45.20022" lon="-1.0907">
        <ele>66</ele>
        <time>2025-04-26T07:31:47Z</time>
      </trkpt>
      <trkpt lat="45.20026" lon="-1.09073">
        <ele>66</ele>
        <time>2025-04-26T07:31:48Z</time>
      </trkpt>
      <trkpt lat="45.20031" lon="-1.09076">
        <ele>67</ele>
        <time>2025-04-26T07:31:49Z</time>
      </trkpt>
      <trkpt lat="45.20035" lon="-1.09078">
        <ele>67</ele>
        <time>2025-04-26T07:31:50Z</time>
      </trkpt>
      <trkpt lat="45.20039" lon="-1.09081">
        <ele>66</ele>
        <time>2025-04-26T07:31:51Z</time>
      </trkpt>
      <trkpt lat="45.20043" lon="-1.09084">
        <ele>65</ele>
        <time>2025-04-26T07:31:52Z</time>
      </trkpt>
      <trkpt lat="45.20047" lon="-1.09088">
        <ele>65</ele>
        <time>2025-04-26T07:31:53Z</time>
      </trkpt>
      <trkpt lat="45.2005" lon="-1.09091">
        <ele>64</ele>
        <time>2025-04-26T07:31:54Z</time>
      </trkpt>
      <trkpt lat="45.20053" lon="-1.09095">
        <ele>63</ele>
        <time>2025-04-26T07:31:55Z</time>
      </trkpt>
      <trkpt lat="45.20057" lon="-1.09098">
        <ele>62</ele>
        <time>2025-04-26T07:31:56Z</time>
      </trkpt>
      <trkpt lat="45.2006" lon="-1.091">
        <ele>62</ele>
        <time>2025-04-26T07:31:57Z</time>
      </trkpt>
      <trkpt lat="45.20064" lon="-1.09103">
        <ele>62</ele>
        <time>2025-04-26T07:31:58Z</time>
      </trkpt>
      <trkpt lat="45.20068" lon="-1.09106">
        <ele>62</ele>
        <time>2025-04-26T07:31:59Z</time>
      </trkpt>
      <trkpt lat="45.20072" lon="-1.09109">
        <ele>62</ele>
        <time>2025-04-26T07:32:00Z</time>
      </trkpt>
      <trkpt lat="45.20076" lon="-1.09112">
        <ele>62</ele>
        <time>2025-04-26T07:32:01Z</time>
      </trkpt>
      <trkpt lat="45.2008" lon="-1.09115">
        <ele>62</ele>
        <time>2025-04-26T07:32:02Z</time>
      </trkpt>
      <trkpt lat="45.20085" lon="-1.09118">
        <ele>62</ele>
        <time>2025-04-26T07:32:03Z</time>
      </trkpt>
      <trkpt lat="45.20089" lon="-1.09121">
        <ele>63</ele>
        <time>2025-04-26T07:32:04Z</time>
      </trkpt>
      <trkpt lat="45.20093" lon="-1.09124">
        <ele>62</ele>
        <time>2025-04-26T07:32:05Z</time>
      </trkpt>
      <trkpt lat="45.20096" lon="-1.09127">
        <ele>62</ele>
        <time>2025-04-26T07:32:06Z</time>
      </trkpt>
      <trkpt lat="45.201" lon="-1.0913">
        <ele>62</ele>
        <time>2025-04-26T07:32:07Z</time>
      </trkpt>
      <trkpt lat="45.20103" lon="-1.09133">
        <ele>62</ele>
        <time>2025-04-26T07:32:08Z</time>
      </trkpt>
      <trkpt lat="45.20107" lon="-1.09136">
        <ele>62</ele>
        <time>2025-04-26T07:32:09Z</time>
      </trkpt>
      <trkpt lat="45.20111" lon="-1.09139">
        <ele>62</ele>
        <time>2025-04-26T07:32:10Z</time>
      </trkpt>
      <trkpt lat="45.20115" lon="-1.09142">
        <ele>63</ele>
        <time>2025-04-26T07:32:11Z</time>
      </trkpt>
      <trkpt lat="45.20119" lon="-1.09145">
        <ele>63</ele>
        <time>2025-04-26T07:32:12Z</time>
      </trkpt>
      <trkpt lat="45.20122" lon="-1.09149">
        <ele>64</ele>
        <time>2025-04-26T07:32:13Z</time>
      </trkpt>
      <trkpt lat="45.20125" lon="-1.09153">
        <ele>65</ele>
        <time>2025-04-26T07:32:14Z</time>
      </trkpt>
      <trkpt lat="45.20128" lon="-1.09157">
        <ele>65</ele>
        <time>2025-04-26T07:32:15Z</time>
      </trkpt>
      <trkpt lat="45.20131" lon="-1.09161">
        <ele>65</ele>
        <time>2025-04-26T07:32:16Z</time>
      </trkpt>
      <trkpt lat="45.20134" lon="-1.09165">
        <ele>65</ele>
        <time>2025-04-26T07:32:17Z</time>
      </trkpt>
      <trkpt lat="45.20137" lon="-1.0917">
        <ele>65</ele>
        <time>2025-04-26T07:32:18Z</time>
      </trkpt>
      <trkpt lat="45.2014" lon="-1.09175">
        <ele>65</ele>
        <time>2025-04-26T07:32:19Z</time>
      </trkpt>
      <trkpt lat="45.20144" lon="-1.09179">
        <ele>65</ele>
        <time>2025-04-26T07:32:20Z</time>
      </trkpt>
      <trkpt lat="45.20146" lon="-1.09184">
        <ele>65</ele>
        <time>2025-04-26T07:32:21Z</time>
      </trkpt>
      <trkpt lat="45.20149" lon="-1.09188">
        <ele>64</ele>
        <time>2025-04-26T07:32:22Z</time>
      </trkpt>
      <trkpt lat="45.20151" lon="-1.09193">
        <ele>64</ele>
        <time>2025-04-26T07:32:23Z</time>
      </trkpt>
      <trkpt lat="45.20154" lon="-1.09198">
        <ele>63</ele>
        <time>2025-04-26T07:32:24Z</time>
      </trkpt>
      <trkpt lat="45.20157" lon="-1.09202">
        <ele>62</ele>
        <time>2025-04-26T07:32:25Z</time>
      </trkpt>
      <trkpt lat="45.2016" lon="-1.09208">
        <ele>62</ele>
        <time>2025-04-26T07:32:26Z</time>
      </trkpt>
      <trkpt lat="45.20163" lon="-1.09213">
        <ele>62</ele>
        <time>2025-04-26T07:32:27Z</time>
      </trkpt>
      <trkpt lat="45.20166" lon="-1.09218">
        <ele>61</ele>
        <time>2025-04-26T07:32:28Z</time>
      </trkpt>
      <trkpt lat="45.20168" lon="-1.09223">
        <ele>61</ele>
        <time>2025-04-26T07:32:29Z</time>
      </trkpt>
      <trkpt lat="45.2017" lon="-1.09228">
        <ele>61</ele>
        <time>2025-04-26T07:32:30Z</time>
      </trkpt>
      <trkpt lat="45.20173" lon="-1.09233">
        <ele>61</ele>
        <time>2025-04-26T07:32:31Z</time>
      </trkpt>
      <trkpt lat="45.20176" lon="-1.09238">
        <ele>61</ele>
        <time>2025-04-26T07:32:32Z</time>
      </trkpt>
      <trkpt lat="45.20178" lon="-1.09243">
        <ele>61</ele>
        <time>2025-04-26T07:32:33Z</time>
      </trkpt>
      <trkpt lat="45.20181" lon="-1.09247">
        <ele>61</ele>
        <time>2025-04-26T07:32:34Z</time>
      </trkpt>
      <trkpt lat="45.20183" lon="-1.09252">
        <ele>61</ele>
        <time>2025-04-26T07:32:35Z</time>
      </trkpt>
      <trkpt lat="45.20186" lon="-1.09257">
        <ele>62</ele>
        <time>2025-04-26T07:32:36Z</time>
      </trkpt>
      <trkpt lat="45.20189" lon="-1.09261">
        <ele>62</ele>
        <time>2025-04-26T07:32:37Z</time>
      </trkpt>
      <trkpt lat="45.20191" lon="-1.09266">
        <ele>61</ele>
        <time>2025-04-26T07:32:38Z</time>
      </trkpt>
      <trkpt lat="45.20194" lon="-1.09271">
        <ele>61</ele>
        <time>2025-04-26T07:32:39Z</time>
      </trkpt>
      <trkpt lat="45.20197" lon="-1.09276">
        <ele>62</ele>
        <time>2025-04-26T07:32:40Z</time>
      </trkpt>
      <trkpt lat="45.202" lon="-1.09281">
        <ele>62</ele>
        <time>2025-04-26T07:32:41Z</time>
      </trkpt>
      <trkpt lat="45.20203" lon="-1.09286">
        <ele>62</ele>
        <time>2025-04-26T07:32:42Z</time>
      </trkpt>
      <trkpt lat="45.20205" lon="-1.09292">
        <ele>62</ele>
        <time>2025-04-26T07:32:43Z</time>
      </trkpt>
      <trkpt lat="45.20208" lon="-1.09297">
        <ele>62</ele>
        <time>2025-04-26T07:32:44Z</time>
      </trkpt>
      <trkpt lat="45.2021" lon="-1.09302">
        <ele>62</ele>
        <time>2025-04-26T07:32:45Z</time>
      </trkpt>
      <trkpt lat="45.20212" lon="-1.09306">
        <ele>62</ele>
        <time>2025-04-26T07:32:46Z</time>
      </trkpt>
      <trkpt lat="45.20215" lon="-1.09311">
        <ele>62</ele>
        <time>2025-04-26T07:32:47Z</time>
      </trkpt>
      <trkpt lat="45.20218" lon="-1.09316">
        <ele>62</ele>
        <time>2025-04-26T07:32:48Z</time>
      </trkpt>
      <trkpt lat="45.20221" lon="-1.0932">
        <ele>63</ele>
        <time>2025-04-26T07:32:49Z</time>
      </trkpt>
      <trkpt lat="45.20224" lon="-1.09325">
        <ele>63</ele>
        <time>2025-04-26T07:32:50Z</time>
      </trkpt>
      <trkpt lat="45.20227" lon="-1.09329">
        <ele>63</ele>
        <time>2025-04-26T07:32:51Z</time>
      </trkpt>
      <trkpt lat="45.2023" lon="-1.09332">
        <ele>63</ele>
        <time>2025-04-26T07:32:52Z</time>
      </trkpt>
      <trkpt lat="45.20233" lon="-1.09336">
        <ele>64</ele>
        <time>2025-04-26T07:32:53Z</time>
      </trkpt>
      <trkpt lat="45.20236" lon="-1.0934">
        <ele>64</ele>
        <time>2025-04-26T07:32:54Z</time>
      </trkpt>
      <trkpt lat="45.2024" lon="-1.09343">
        <ele>65</ele>
        <time>2025-04-26T07:32:55Z</time>
      </trkpt>
      <trkpt lat="45.20243" lon="-1.09346">
        <ele>65</ele>
        <time>2025-04-26T07:32:56Z</time>
      </trkpt>
      <trkpt lat="45.20246" lon="-1.09349">
        <ele>65</ele>
        <time>2025-04-26T07:32:57Z</time>
      </trkpt>
      <trkpt lat="45.20249" lon="-1.09352">
        <ele>64</ele>
        <time>2025-04-26T07:32:58Z</time>
      </trkpt>
      <trkpt lat="45.20253" lon="-1.09354">
        <ele>64</ele>
        <time>2025-04-26T07:32:59Z</time>
      </trkpt>
      <trkpt lat="45.20257" lon="-1.09357">
        <ele>64</ele>
        <time>2025-04-26T07:33:00Z</time>
      </trkpt>
      <trkpt lat="45.2026" lon="-1.0936">
        <ele>64</ele>
        <time>2025-04-26T07:33:01Z</time>
      </trkpt>
      <trkpt lat="45.20263" lon="-1.09362">
        <ele>65</ele>
        <time>2025-04-26T07:33:02Z</time>
      </trkpt>
      <trkpt lat="45.20266" lon="-1.09365">
        <ele>65</ele>
        <time>2025-04-26T07:33:03Z</time>
      </trkpt>
      <trkpt lat="45.20269" lon="-1.09369">
        <ele>67</ele>
        <time>2025-04-26T07:33:04Z</time>
      </trkpt>
      <trkpt lat="45.20272" lon="-1.09372">
        <ele>67</ele>
        <time>2025-04-26T07:33:05Z</time>
      </trkpt>
      <trkpt lat="45.20276" lon="-1.09375">
        <ele>69</ele>
        <time>2025-04-26T07:33:06Z</time>
      </trkpt>
      <trkpt lat="45.2028" lon="-1.09378">
        <ele>69</ele>
        <time>2025-04-26T07:33:07Z</time>
      </trkpt>
      <trkpt lat="45.20283" lon="-1.09381">
        <ele>70</ele>
        <time>2025-04-26T07:33:08Z</time>
      </trkpt>
      <trkpt lat="45.20287" lon="-1.09383">
        <ele>71</ele>
        <time>2025-04-26T07:33:09Z</time>
      </trkpt>
      <trkpt lat="45.20291" lon="-1.09385">
        <ele>72</ele>
        <time>2025-04-26T07:33:10Z</time>
      </trkpt>
      <trkpt lat="45.20294" lon="-1.09388">
        <ele>73</ele>
        <time>2025-04-26T07:33:11Z</time>
      </trkpt>
      <trkpt lat="45.20297" lon="-1.0939">
        <ele>74</ele>
        <time>2025-04-26T07:33:12Z</time>
      </trkpt>
      <trkpt lat="45.203" lon="-1.09394">
        <ele>74</ele>
        <time>2025-04-26T07:33:13Z</time>
      </trkpt>
      <trkpt lat="45.20304" lon="-1.09397">
        <ele>74</ele>
        <time>2025-04-26T07:33:14Z</time>
      </trkpt>
      <trkpt lat="45.20308" lon="-1.09401">
        <ele>74</ele>
        <time>2025-04-26T07:33:15Z</time>
      </trkpt>
      <trkpt lat="45.20312" lon="-1.09405">
        <ele>74</ele>
        <time>2025-04-26T07:33:16Z</time>
      </trkpt>
      <trkpt lat="45.20316" lon="-1.09407">
        <ele>74</ele>
        <time>2025-04-26T07:33:17Z</time>
      </trkpt>
      <trkpt lat="45.20321" lon="-1.0941">
        <ele>74</ele>
        <time>2025-04-26T07:33:18Z</time>
      </trkpt>
      <trkpt lat="45.20325" lon="-1.09413">
        <ele>74</ele>
        <time>2025-04-26T07:33:19Z</time>
      </trkpt>
      <trkpt lat="45.20329" lon="-1.09415">
        <ele>74</ele>
        <time>2025-04-26T07:33:20Z</time>
      </trkpt>
      <trkpt lat="45.20334" lon="-1.09417">
        <ele>73</ele>
        <time>2025-04-26T07:33:21Z</time>
      </trkpt>
      <trkpt lat="45.20338" lon="-1.09418">
        <ele>73</ele>
        <time>2025-04-26T07:33:22Z</time>
      </trkpt>
      <trkpt lat="45.20342" lon="-1.09419">
        <ele>72</ele>
        <time>2025-04-26T07:33:23Z</time>
      </trkpt>
      <trkpt lat="45.20346" lon="-1.0942">
        <ele>72</ele>
        <time>2025-04-26T07:33:24Z</time>
      </trkpt>
      <trkpt lat="45.2035" lon="-1.09421">
        <ele>71</ele>
        <time>2025-04-26T07:33:25Z</time>
      </trkpt>
      <trkpt lat="45.20355" lon="-1.09422">
        <ele>71</ele>
        <time>2025-04-26T07:33:26Z</time>
      </trkpt>
      <trkpt lat="45.20359" lon="-1.09423">
        <ele>70</ele>
        <time>2025-04-26T07:33:27Z</time>
      </trkpt>
      <trkpt lat="45.20363" lon="-1.09424">
        <ele>69</ele>
        <time>2025-04-26T07:33:28Z</time>
      </trkpt>
      <trkpt lat="45.20368" lon="-1.09425">
        <ele>68</ele>
        <time>2025-04-26T07:33:29Z</time>
      </trkpt>
      <trkpt lat="45.20372" lon="-1.09427">
        <ele>68</ele>
        <time>2025-04-26T07:33:30Z</time>
      </trkpt>
      <trkpt lat="45.20377" lon="-1.0943">
        <ele>67</ele>
        <time>2025-04-26T07:33:31Z</time>
      </trkpt>
      <trkpt lat="45.20381" lon="-1.09433">
        <ele>66</ele>
        <time>2025-04-26T07:33:32Z</time>
      </trkpt>
      <trkpt lat="45.20385" lon="-1.09436">
        <ele>66</ele>
        <time>2025-04-26T07:33:33Z</time>
      </trkpt>
      <trkpt lat="45.20389" lon="-1.0944">
        <ele>65</ele>
        <time>2025-04-26T07:33:34Z</time>
      </trkpt>
      <trkpt lat="45.20393" lon="-1.09443">
        <ele>65</ele>
        <time>2025-04-26T07:33:35Z</time>
      </trkpt>
      <trkpt lat="45.20397" lon="-1.09446">
        <ele>65</ele>
        <time>2025-04-26T07:33:36Z</time>
      </trkpt>
      <trkpt lat="45.20401" lon="-1.0945">
        <ele>64</ele>
        <time>2025-04-26T07:33:37Z</time>
      </trkpt>
      <trkpt lat="45.20404" lon="-1.09453">
        <ele>64</ele>
        <time>2025-04-26T07:33:38Z</time>
      </trkpt>
      <trkpt lat="45.20408" lon="-1.09457">
        <ele>64</ele>
        <time>2025-04-26T07:33:39Z</time>
      </trkpt>
      <trkpt lat="45.20412" lon="-1.09461">
        <ele>63</ele>
        <time>2025-04-26T07:33:40Z</time>
      </trkpt>
      <trkpt lat="45.20416" lon="-1.09464">
        <ele>64</ele>
        <time>2025-04-26T07:33:41Z</time>
      </trkpt>
      <trkpt lat="45.20419" lon="-1.09468">
        <ele>64</ele>
        <time>2025-04-26T07:33:42Z</time>
      </trkpt>
      <trkpt lat="45.20422" lon="-1.09471">
        <ele>64</ele>
        <time>2025-04-26T07:33:43Z</time>
      </trkpt>
      <trkpt lat="45.20426" lon="-1.09475">
        <ele>64</ele>
        <time>2025-04-26T07:33:44Z</time>
      </trkpt>
      <trkpt lat="45.20429" lon="-1.09478">
        <ele>64</ele>
        <time>2025-04-26T07:33:45Z</time>
      </trkpt>
      <trkpt lat="45.20433" lon="-1.09482">
        <ele>64</ele>
        <time>2025-04-26T07:33:46Z</time>
      </trkpt>
      <trkpt lat="45.20437" lon="-1.09485">
        <ele>64</ele>
        <time>2025-04-26T07:33:47Z</time>
      </trkpt>
      <trkpt lat="45.2044" lon="-1.09488">
        <ele>65</ele>
        <time>2025-04-26T07:33:48Z</time>
      </trkpt>
      <trkpt lat="45.20444" lon="-1.09491">
        <ele>65</ele>
        <time>2025-04-26T07:33:49Z</time>
      </trkpt>
      <trkpt lat="45.20447" lon="-1.09495">
        <ele>66</ele>
        <time>2025-04-26T07:33:50Z</time>
      </trkpt>
      <trkpt lat="45.2045" lon="-1.09498">
        <ele>67</ele>
        <time>2025-04-26T07:33:51Z</time>
      </trkpt>
      <trkpt lat="45.20454" lon="-1.09501">
        <ele>68</ele>
        <time>2025-04-26T07:33:52Z</time>
      </trkpt>
      <trkpt lat="45.20457" lon="-1.09503">
        <ele>69</ele>
        <time>2025-04-26T07:33:53Z</time>
      </trkpt>
      <trkpt lat="45.20461" lon="-1.09506">
        <ele>69</ele>
        <time>2025-04-26T07:33:54Z</time>
      </trkpt>
      <trkpt lat="45.20465" lon="-1.09509">
        <ele>70</ele>
        <time>2025-04-26T07:33:55Z</time>
      </trkpt>
      <trkpt lat="45.20469" lon="-1.09512">
        <ele>70</ele>
        <time>2025-04-26T07:33:56Z</time>
      </trkpt>
      <trkpt lat="45.20472" lon="-1.09515">
        <ele>70</ele>
        <time>2025-04-26T07:33:57Z</time>
      </trkpt>
      <trkpt lat="45.20476" lon="-1.09518">
        <ele>70</ele>
        <time>2025-04-26T07:33:58Z</time>
      </trkpt>
      <trkpt lat="45.2048" lon="-1.09522">
        <ele>70</ele>
        <time>2025-04-26T07:33:59Z</time>
      </trkpt>
      <trkpt lat="45.20484" lon="-1.09525">
        <ele>70</ele>
        <time>2025-04-26T07:34:00Z</time>
      </trkpt>
      <trkpt lat="45.20488" lon="-1.0953">
        <ele>69</ele>
        <time>2025-04-26T07:34:01Z</time>
      </trkpt>
      <trkpt lat="45.20492" lon="-1.09533">
        <ele>69</ele>
        <time>2025-04-26T07:34:02Z</time>
      </trkpt>
      <trkpt lat="45.20496" lon="-1.09536">
        <ele>69</ele>
        <time>2025-04-26T07:34:03Z</time>
      </trkpt>
      <trkpt lat="45.205" lon="-1.09539">
        <ele>70</ele>
        <time>2025-04-26T07:34:04Z</time>
      </trkpt>
      <trkpt lat="45.20503" lon="-1.09542">
        <ele>69</ele>
        <time>2025-04-26T07:34:05Z</time>
      </trkpt>
      <trkpt lat="45.20506" lon="-1.09545">
        <ele>69</ele>
        <time>2025-04-26T07:34:06Z</time>
      </trkpt>
      <trkpt lat="45.2051" lon="-1.09549">
        <ele>69</ele>
        <time>2025-04-26T07:34:07Z</time>
      </trkpt>
      <trkpt lat="45.20513" lon="-1.09551">
        <ele>69</ele>
        <time>2025-04-26T07:34:08Z</time>
      </trkpt>
      <trkpt lat="45.20517" lon="-1.09554">
        <ele>69</ele>
        <time>2025-04-26T07:34:09Z</time>
      </trkpt>
      <trkpt lat="45.2052" lon="-1.09557">
        <ele>70</ele>
        <time>2025-04-26T07:34:10Z</time>
      </trkpt>
      <trkpt lat="45.20523" lon="-1.0956">
        <ele>70</ele>
        <time>2025-04-26T07:34:11Z</time>
      </trkpt>
      <trkpt lat="45.20527" lon="-1.09562">
        <ele>71</ele>
        <time>2025-04-26T07:34:12Z</time>
      </trkpt>
      <trkpt lat="45.2053" lon="-1.09565">
        <ele>71</ele>
        <time>2025-04-26T07:34:13Z</time>
      </trkpt>
      <trkpt lat="45.20533" lon="-1.09569">
        <ele>71</ele>
        <time>2025-04-26T07:34:14Z</time>
      </trkpt>
      <trkpt lat="45.20537" lon="-1.09572">
        <ele>71</ele>
        <time>2025-04-26T07:34:15Z</time>
      </trkpt>
      <trkpt lat="45.20541" lon="-1.09576">
        <ele>71</ele>
        <time>2025-04-26T07:34:16Z</time>
      </trkpt>
      <trkpt lat="45.20545" lon="-1.0958">
        <ele>70</ele>
        <time>2025-04-26T07:34:17Z</time>
      </trkpt>
      <trkpt lat="45.20549" lon="-1.09584">
        <ele>69</ele>
        <time>2025-04-26T07:34:18Z</time>
      </trkpt>
      <trkpt lat="45.20553" lon="-1.09587">
        <ele>69</ele>
        <time>2025-04-26T07:34:19Z</time>
      </trkpt>
      <trkpt lat="45.20556" lon="-1.09591">
        <ele>68</ele>
        <time>2025-04-26T07:34:20Z</time>
      </trkpt>
      <trkpt lat="45.20561" lon="-1.09595">
        <ele>68</ele>
        <time>2025-04-26T07:34:21Z</time>
      </trkpt>
      <trkpt lat="45.20565" lon="-1.09598">
        <ele>67</ele>
        <time>2025-04-26T07:34:22Z</time>
      </trkpt>
      <trkpt lat="45.20569" lon="-1.096">
        <ele>67</ele>
        <time>2025-04-26T07:34:23Z</time>
      </trkpt>
      <trkpt lat="45.20573" lon="-1.09603">
        <ele>66</ele>
        <time>2025-04-26T07:34:24Z</time>
      </trkpt>
      <trkpt lat="45.20577" lon="-1.09606">
        <ele>65</ele>
        <time>2025-04-26T07:34:25Z</time>
      </trkpt>
      <trkpt lat="45.2058" lon="-1.09608">
        <ele>65</ele>
        <time>2025-04-26T07:34:26Z</time>
      </trkpt>
      <trkpt lat="45.20584" lon="-1.0961">
        <ele>64</ele>
        <time>2025-04-26T07:34:27Z</time>
      </trkpt>
      <trkpt lat="45.20588" lon="-1.09612">
        <ele>64</ele>
        <time>2025-04-26T07:34:28Z</time>
      </trkpt>
      <trkpt lat="45.20592" lon="-1.09614">
        <ele>63</ele>
        <time>2025-04-26T07:34:29Z</time>
      </trkpt>
      <trkpt lat="45.20596" lon="-1.09615">
        <ele>63</ele>
        <time>2025-04-26T07:34:30Z</time>
      </trkpt>
      <trkpt lat="45.20601" lon="-1.09616">
        <ele>63</ele>
        <time>2025-04-26T07:34:31Z</time>
      </trkpt>
      <trkpt lat="45.20605" lon="-1.09617">
        <ele>63</ele>
        <time>2025-04-26T07:34:32Z</time>
      </trkpt>
      <trkpt lat="45.20609" lon="-1.09618">
        <ele>63</ele>
        <time>2025-04-26T07:34:33Z</time>
      </trkpt>
      <trkpt lat="45.20614" lon="-1.09618">
        <ele>62</ele>
        <time>2025-04-26T07:34:34Z</time>
      </trkpt>
      <trkpt lat="45.20618" lon="-1.09619">
        <ele>62</ele>
        <time>2025-04-26T07:34:35Z</time>
      </trkpt>
      <trkpt lat="45.20623" lon="-1.0962">
        <ele>63</ele>
        <time>2025-04-26T07:34:36Z</time>
      </trkpt>
      <trkpt lat="45.20627" lon="-1.0962">
        <ele>63</ele>
        <time>2025-04-26T07:34:37Z</time>
      </trkpt>
      <trkpt lat="45.20632" lon="-1.0962">
        <ele>63</ele>
        <time>2025-04-26T07:34:38Z</time>
      </trkpt>
      <trkpt lat="45.20636" lon="-1.09621">
        <ele>63</ele>
        <time>2025-04-26T07:34:39Z</time>
      </trkpt>
      <trkpt lat="45.2064" lon="-1.09621">
        <ele>63</ele>
        <time>2025-04-26T07:34:40Z</time>
      </trkpt>
      <trkpt lat="45.20644" lon="-1.09622">
        <ele>63</ele>
        <time>2025-04-26T07:34:41Z</time>
      </trkpt>
      <trkpt lat="45.20649" lon="-1.09623">
        <ele>62</ele>
        <time>2025-04-26T07:34:42Z</time>
      </trkpt>
      <trkpt lat="45.20653" lon="-1.09623">
        <ele>62</ele>
        <time>2025-04-26T07:34:43Z</time>
      </trkpt>
      <trkpt lat="45.20657" lon="-1.09624">
        <ele>62</ele>
        <time>2025-04-26T07:34:44Z</time>
      </trkpt>
      <trkpt lat="45.20661" lon="-1.09624">
        <ele>62</ele>
        <time>2025-04-26T07:34:45Z</time>
      </trkpt>
      <trkpt lat="45.20665" lon="-1.09624">
        <ele>62</ele>
        <time>2025-04-26T07:34:46Z</time>
      </trkpt>
      <trkpt lat="45.20668" lon="-1.09625">
        <ele>62</ele>
        <time>2025-04-26T07:34:47Z</time>
      </trkpt>
      <trkpt lat="45.20672" lon="-1.09627">
        <ele>62</ele>
        <time>2025-04-26T07:34:48Z</time>
      </trkpt>
      <trkpt lat="45.20676" lon="-1.09628">
        <ele>63</ele>
        <time>2025-04-26T07:34:49Z</time>
      </trkpt>
      <trkpt lat="45.2068" lon="-1.09629">
        <ele>62</ele>
        <time>2025-04-26T07:34:50Z</time>
      </trkpt>
      <trkpt lat="45.20684" lon="-1.09632">
        <ele>64</ele>
        <time>2025-04-26T07:34:51Z</time>
      </trkpt>
      <trkpt lat="45.20689" lon="-1.09634">
        <ele>64</ele>
        <time>2025-04-26T07:34:52Z</time>
      </trkpt>
      <trkpt lat="45.20693" lon="-1.09636">
        <ele>65</ele>
        <time>2025-04-26T07:34:53Z</time>
      </trkpt>
      <trkpt lat="45.20697" lon="-1.09639">
        <ele>67</ele>
        <time>2025-04-26T07:34:54Z</time>
      </trkpt>
      <trkpt lat="45.207" lon="-1.09641">
        <ele>68</ele>
        <time>2025-04-26T07:34:55Z</time>
      </trkpt>
      <trkpt lat="45.20704" lon="-1.09643">
        <ele>69</ele>
        <time>2025-04-26T07:34:56Z</time>
      </trkpt>
      <trkpt lat="45.20708" lon="-1.09646">
        <ele>70</ele>
        <time>2025-04-26T07:34:57Z</time>
      </trkpt>
      <trkpt lat="45.20712" lon="-1.09648">
        <ele>71</ele>
        <time>2025-04-26T07:34:58Z</time>
      </trkpt>
      <trkpt lat="45.20717" lon="-1.0965">
        <ele>71</ele>
        <time>2025-04-26T07:34:59Z</time>
      </trkpt>
      <trkpt lat="45.2072" lon="-1.09652">
        <ele>71</ele>
        <time>2025-04-26T07:35:00Z</time>
      </trkpt>
      <trkpt lat="45.20724" lon="-1.09654">
        <ele>72</ele>
        <time>2025-04-26T07:35:01Z</time>
      </trkpt>
      <trkpt lat="45.20727" lon="-1.09656">
        <ele>72</ele>
        <time>2025-04-26T07:35:02Z</time>
      </trkpt>
      <trkpt lat="45.20731" lon="-1.09658">
        <ele>72</ele>
        <time>2025-04-26T07:35:03Z</time>
      </trkpt>
      <trkpt lat="45.20735" lon="-1.0966">
        <ele>72</ele>
        <time>2025-04-26T07:35:04Z</time>
      </trkpt>
      <trkpt lat="45.20739" lon="-1.09662">
        <ele>72</ele>
        <time>2025-04-26T07:35:05Z</time>
      </trkpt>
      <trkpt lat="45.20743" lon="-1.09664">
        <ele>71</ele>
        <time>2025-04-26T07:35:06Z</time>
      </trkpt>
      <trkpt lat="45.20747" lon="-1.09666">
        <ele>71</ele>
        <time>2025-04-26T07:35:07Z</time>
      </trkpt>
      <trkpt lat="45.20751" lon="-1.09667">
        <ele>71</ele>
        <time>2025-04-26T07:35:08Z</time>
      </trkpt>
      <trkpt lat="45.20755" lon="-1.09669">
        <ele>71</ele>
        <time>2025-04-26T07:35:09Z</time>
      </trkpt>
      <trkpt lat="45.20758" lon="-1.09671">
        <ele>70</ele>
        <time>2025-04-26T07:35:10Z</time>
      </trkpt>
      <trkpt lat="45.20762" lon="-1.09673">
        <ele>70</ele>
        <time>2025-04-26T07:35:11Z</time>
      </trkpt>
      <trkpt lat="45.20766" lon="-1.09675">
        <ele>70</ele>
        <time>2025-04-26T07:35:12Z</time>
      </trkpt>
      <trkpt lat="45.2077" lon="-1.09677">
        <ele>70</ele>
        <time>2025-04-26T07:35:13Z</time>
      </trkpt>
      <trkpt lat="45.20775" lon="-1.09679">
        <ele>70</ele>
        <time>2025-04-26T07:35:14Z</time>
      </trkpt>
      <trkpt lat="45.20779" lon="-1.09681">
        <ele>71</ele>
        <time>2025-04-26T07:35:15Z</time>
      </trkpt>
      <trkpt lat="45.20784" lon="-1.09683">
        <ele>71</ele>
        <time>2025-04-26T07:35:16Z</time>
      </trkpt>
      <trkpt lat="45.20788" lon="-1.09686">
        <ele>71</ele>
        <time>2025-04-26T07:35:17Z</time>
      </trkpt>
      <trkpt lat="45.20792" lon="-1.09688">
        <ele>72</ele>
        <time>2025-04-26T07:35:18Z</time>
      </trkpt>
      <trkpt lat="45.20796" lon="-1.09691">
        <ele>72</ele>
        <time>2025-04-26T07:35:19Z</time>
      </trkpt>
      <trkpt lat="45.20799" lon="-1.09695">
        <ele>73</ele>
        <time>2025-04-26T07:35:20Z</time>
      </trkpt>
      <trkpt lat="45.20803" lon="-1.09698">
        <ele>74</ele>
        <time>2025-04-26T07:35:21Z</time>
      </trkpt>
      <trkpt lat="45.20807" lon="-1.09702">
        <ele>74</ele>
        <time>2025-04-26T07:35:22Z</time>
      </trkpt>
      <trkpt lat="45.2081" lon="-1.09706">
        <ele>74</ele>
        <time>2025-04-26T07:35:23Z</time>
      </trkpt>
      <trkpt lat="45.20814" lon="-1.09709">
        <ele>74</ele>
        <time>2025-04-26T07:35:24Z</time>
      </trkpt>
      <trkpt lat="45.20818" lon="-1.09713">
        <ele>75</ele>
        <time>2025-04-26T07:35:25Z</time>
      </trkpt>
      <trkpt lat="45.20822" lon="-1.09717">
        <ele>75</ele>
        <time>2025-04-26T07:35:26Z</time>
      </trkpt>
      <trkpt lat="45.20825" lon="-1.09721">
        <ele>75</ele>
        <time>2025-04-26T07:35:27Z</time>
      </trkpt>
      <trkpt lat="45.20828" lon="-1.09726">
        <ele>74</ele>
        <time>2025-04-26T07:35:28Z</time>
      </trkpt>
      <trkpt lat="45.20832" lon="-1.0973">
        <ele>74</ele>
        <time>2025-04-26T07:35:29Z</time>
      </trkpt>
      <trkpt lat="45.20835" lon="-1.09734">
        <ele>74</ele>
        <time>2025-04-26T07:35:30Z</time>
      </trkpt>
      <trkpt lat="45.20839" lon="-1.09738">
        <ele>74</ele>
        <time>2025-04-26T07:35:31Z</time>
      </trkpt>
      <trkpt lat="45.20842" lon="-1.09742">
        <ele>73</ele>
        <time>2025-04-26T07:35:32Z</time>
      </trkpt>
      <trkpt lat="45.20846" lon="-1.09746">
        <ele>72</ele>
        <time>2025-04-26T07:35:33Z</time>
      </trkpt>
      <trkpt lat="45.20849" lon="-1.09749">
        <ele>71</ele>
        <time>2025-04-26T07:35:34Z</time>
      </trkpt>
      <trkpt lat="45.20853" lon="-1.09753">
        <ele>71</ele>
        <time>2025-04-26T07:35:35Z</time>
      </trkpt>
      <trkpt lat="45.20857" lon="-1.09756">
        <ele>69</ele>
        <time>2025-04-26T07:35:36Z</time>
      </trkpt>
      <trkpt lat="45.20861" lon="-1.0976">
        <ele>69</ele>
        <time>2025-04-26T07:35:37Z</time>
      </trkpt>
      <trkpt lat="45.20864" lon="-1.09764">
        <ele>68</ele>
        <time>2025-04-26T07:35:38Z</time>
      </trkpt>
      <trkpt lat="45.20868" lon="-1.09767">
        <ele>68</ele>
        <time>2025-04-26T07:35:39Z</time>
      </trkpt>
      <trkpt lat="45.20872" lon="-1.09769">
        <ele>66</ele>
        <time>2025-04-26T07:35:40Z</time>
      </trkpt>
      <trkpt lat="45.20876" lon="-1.09771">
        <ele>65</ele>
        <time>2025-04-26T07:35:41Z</time>
      </trkpt>
      <trkpt lat="45.2088" lon="-1.09772">
        <ele>65</ele>
        <time>2025-04-26T07:35:42Z</time>
      </trkpt>
      <trkpt lat="45.20884" lon="-1.09773">
        <ele>64</ele>
        <time>2025-04-26T07:35:43Z</time>
      </trkpt>
      <trkpt lat="45.20888" lon="-1.09773">
        <ele>63</ele>
        <time>2025-04-26T07:35:44Z</time>
      </trkpt>
      <trkpt lat="45.20892" lon="-1.09772">
        <ele>62</ele>
        <time>2025-04-26T07:35:45Z</time>
      </trkpt>
      <trkpt lat="45.20897" lon="-1.09771">
        <ele>62</ele>
        <time>2025-04-26T07:35:46Z</time>
      </trkpt>
      <trkpt lat="45.20902" lon="-1.09771">
        <ele>61</ele>
        <time>2025-04-26T07:35:47Z</time>
      </trkpt>
      <trkpt lat="45.20906" lon="-1.09771">
        <ele>61</ele>
        <time>2025-04-26T07:35:48Z</time>
      </trkpt>
      <trkpt lat="45.2091" lon="-1.09771">
        <ele>60</ele>
        <time>2025-04-26T07:35:49Z</time>
      </trkpt>
      <trkpt lat="45.20914" lon="-1.0977">
        <ele>60</ele>
        <time>2025-04-26T07:35:50Z</time>
      </trkpt>
      <trkpt lat="45.20919" lon="-1.0977">
        <ele>60</ele>
        <time>2025-04-26T07:35:51Z</time>
      </trkpt>
      <trkpt lat="45.20923" lon="-1.09769">
        <ele>59</ele>
        <time>2025-04-26T07:35:52Z</time>
      </trkpt>
      <trkpt lat="45.20927" lon="-1.09768">
        <ele>60</ele>
        <time>2025-04-26T07:35:53Z</time>
      </trkpt>
      <trkpt lat="45.20931" lon="-1.09767">
        <ele>60</ele>
        <time>2025-04-26T07:35:54Z</time>
      </trkpt>
      <trkpt lat="45.20936" lon="-1.09766">
        <ele>60</ele>
        <time>2025-04-26T07:35:55Z</time>
      </trkpt>
      <trkpt lat="45.2094" lon="-1.09765">
        <ele>60</ele>
        <time>2025-04-26T07:35:56Z</time>
      </trkpt>
      <trkpt lat="45.20944" lon="-1.09764">
        <ele>60</ele>
        <time>2025-04-26T07:35:57Z</time>
      </trkpt>
      <trkpt lat="45.20948" lon="-1.09763">
        <ele>60</ele>
        <time>2025-04-26T07:35:58Z</time>
      </trkpt>
      <trkpt lat="45.20953" lon="-1.09762">
        <ele>60</ele>
        <time>2025-04-26T07:35:59Z</time>
      </trkpt>
      <trkpt lat="45.20957" lon="-1.09762">
        <ele>60</ele>
        <time>2025-04-26T07:36:00Z</time>
      </trkpt>
      <trkpt lat="45.20962" lon="-1.09761">
        <ele>61</ele>
        <time>2025-04-26T07:36:01Z</time>
      </trkpt>
      <trkpt lat="45.20966" lon="-1.0976">
        <ele>62</ele>
        <time>2025-04-26T07:36:02Z</time>
      </trkpt>
      <trkpt lat="45.2097" lon="-1.09759">
        <ele>62</ele>
        <time>2025-04-26T07:36:03Z</time>
      </trkpt>
      <trkpt lat="45.20975" lon="-1.09758">
        <ele>63</ele>
        <time>2025-04-26T07:36:04Z</time>
      </trkpt>
      <trkpt lat="45.20979" lon="-1.09757">
        <ele>63</ele>
        <time>2025-04-26T07:36:05Z</time>
      </trkpt>
      <trkpt lat="45.20983" lon="-1.09756">
        <ele>64</ele>
        <time>2025-04-26T07:36:06Z</time>
      </trkpt>
      <trkpt lat="45.20987" lon="-1.09755">
        <ele>64</ele>
        <time>2025-04-26T07:36:07Z</time>
      </trkpt>
      <trkpt lat="45.20991" lon="-1.09753">
        <ele>65</ele>
        <time>2025-04-26T07:36:08Z</time>
      </trkpt>
      <trkpt lat="45.20994" lon="-1.09753">
        <ele>66</ele>
        <time>2025-04-26T07:36:09Z</time>
      </trkpt>
      <trkpt lat="45.20998" lon="-1.09751">
        <ele>65</ele>
        <time>2025-04-26T07:36:10Z</time>
      </trkpt>
      <trkpt lat="45.21003" lon="-1.0975">
        <ele>65</ele>
        <time>2025-04-26T07:36:11Z</time>
      </trkpt>
      <trkpt lat="45.21007" lon="-1.09749">
        <ele>65</ele>
        <time>2025-04-26T07:36:12Z</time>
      </trkpt>
      <trkpt lat="45.2101" lon="-1.09747">
        <ele>65</ele>
        <time>2025-04-26T07:36:13Z</time>
      </trkpt>
      <trkpt lat="45.21013" lon="-1.09745">
        <ele>66</ele>
        <time>2025-04-26T07:36:14Z</time>
      </trkpt>
      <trkpt lat="45.21017" lon="-1.09744">
        <ele>66</ele>
        <time>2025-04-26T07:36:15Z</time>
      </trkpt>
      <trkpt lat="45.21019" lon="-1.09743">
        <ele>66</ele>
        <time>2025-04-26T07:36:16Z</time>
      </trkpt>
      <trkpt lat="45.21021" lon="-1.09742">
        <ele>66</ele>
        <time>2025-04-26T07:36:17Z</time>
      </trkpt>
      <trkpt lat="45.21024" lon="-1.09741">
        <ele>66</ele>
        <time>2025-04-26T07:36:18Z</time>
      </trkpt>
      <trkpt lat="45.21026" lon="-1.0974">
        <ele>66</ele>
        <time>2025-04-26T07:36:19Z</time>
      </trkpt>
      <trkpt lat="45.21028" lon="-1.09739">
        <ele>66</ele>
        <time>2025-04-26T07:36:20Z</time>
      </trkpt>
      <trkpt lat="45.2103" lon="-1.09739">
        <ele>65</ele>
        <time>2025-04-26T07:36:21Z</time>
      </trkpt>
      <trkpt lat="45.21031" lon="-1.09738">
        <ele>66</ele>
        <time>2025-04-26T07:36:22Z</time>
      </trkpt>
      <trkpt lat="45.21033" lon="-1.09737">
        <ele>66</ele>
        <time>2025-04-26T07:36:23Z</time>
      </trkpt>
      <trkpt lat="45.21033" lon="-1.09737">
        <ele>66</ele>
        <time>2025-04-26T07:36:24Z</time>
      </trkpt>
      <trkpt lat="45.21034" lon="-1.09737">
        <ele>66</ele>
        <time>2025-04-26T07:36:25Z</time>
      </trkpt>
      <trkpt lat="45.21034" lon="-1.09737">
        <ele>66</ele>
        <time>2025-04-26T07:36:26Z</time>
      </trkpt>
      <trkpt lat="45.21034" lon="-1.09737">
        <ele>66</ele>
        <time>2025-04-26T07:36:27Z</time>
      </trkpt>
      <trkpt lat="45.21034" lon="-1.09736">
        <ele>66</ele>
        <time>2025-04-26T07:36:28Z</time>
      </trkpt>
      <trkpt lat="45.21034" lon="-1.09737">
        <ele>66</ele>
        <time>2025-04-26T07:36:29Z</time>
      </trkpt>
      <trkpt lat="45.21034" lon="-1.09737">
        <ele>66</ele>
        <time>2025-04-26T07:36:30Z</time>
      </trkpt>
      <trkpt lat="45.21034" lon="-1.09737">
        <ele>65</ele>
        <time>2025-04-26T07:36:31Z</time>
      </trkpt>
      <trkpt lat="45.21034" lon="-1.09736">
        <ele>65</ele>
        <time>2025-04-26T07:36:32Z</time>
      </trkpt>
      <trkpt lat="45.21034" lon="-1.09736">
        <ele>65</ele>
        <time>2025-04-26T07:36:33Z</time>
      </trkpt>
      <trkpt lat="45.21034" lon="-1.09736">
        <ele>65</ele>
        <time>2025-04-26T07:36:34Z</time>
      </trkpt>
      <trkpt lat="45.21034" lon="-1.09736">
        <ele>65</ele>
        <time>2025-04-26T07:36:35Z</time>
      </trkpt>
      <trkpt lat="45.21034" lon="-1.09736">
        <ele>65</ele>
        <time>2025-04-26T07:36:36Z</time>
      </trkpt>
      <trkpt lat="45.21034" lon="-1.09736">
        <ele>65</ele>
        <time>2025-04-26T07:36:37Z</time>
      </trkpt>
      <trkpt lat="45.21034" lon="-1.09736">
        <ele>65</ele>
        <time>2025-04-26T07:36:38Z</time>
      </trkpt>
      <trkpt lat="45.21034" lon="-1.09736">
        <ele>65</ele>
        <time>2025-04-26T07:36:39Z</time>
      </trkpt>
      <trkpt lat="45.21034" lon="-1.09736">
        <ele>65</ele>
        <time>2025-04-26T07:36:40Z</time>
      </trkpt>
      <trkpt lat="45.21034" lon="-1.09736">
        <ele>65</ele>
        <time>2025-04-26T07:36:41Z</time>
      </trkpt>
      <trkpt lat="45.21034" lon="-1.09736">
        <ele>65</ele>
        <time>2025-04-26T07:36:42Z</time>
      </trkpt>
      <trkpt lat="45.21034" lon="-1.09736">
        <ele>65</ele>
        <time>2025-04-26T07:36:43Z</time>
      </trkpt>
      <trkpt lat="45.21034" lon="-1.09736">
        <ele>65</ele>
        <time>2025-04-26T07:36:44Z</time>
      </trkpt>
      <trkpt lat="45.21034" lon="-1.09736">
        <ele>65</ele>
        <time>2025-04-26T07:36:45Z</time>
      </trkpt>
      <trkpt lat="45.21034" lon="-1.09736">
        <ele>65</ele>
        <time>2025-04-26T07:36:46Z</time>
      </trkpt>
      <trkpt lat="45.21034" lon="-1.09736">
        <ele>65</ele>
        <time>2025-04-26T07:36:47Z</time>
      </trkpt>
      <trkpt lat="45.21034" lon="-1.09736">
        <ele>65</ele>
        <time>2025-04-26T07:36:48Z</time>
      </trkpt>
      <trkpt lat="45.21034" lon="-1.09736">
        <ele>65</ele>
        <time>2025-04-26T07:36:49Z</time>
      </trkpt>
      <trkpt lat="45.21034" lon="-1.09736">
        <ele>65</ele>
        <time>2025-04-26T07:36:50Z</time>
      </trkpt>
      <trkpt lat="45.21034" lon="-1.09736">
        <ele>65</ele>
        <time>2025-04-26T07:36:51Z</time>
      </trkpt>
      <trkpt lat="45.21034" lon="-1.09736">
        <ele>65</ele>
        <time>2025-04-26T07:36:52Z</time>
      </trkpt>
      <trkpt lat="45.21034" lon="-1.09736">
        <ele>65</ele>
        <time>2025-04-26T07:36:53Z</time>
      </trkpt>
      <trkpt lat="45.21034" lon="-1.09736">
        <ele>65</ele>
        <time>2025-04-26T07:36:54Z</time>
      </trkpt>
      <trkpt lat="45.21034" lon="-1.09736">
        <ele>65</ele>
        <time>2025-04-26T07:36:55Z</time>
      </trkpt>
      <trkpt lat="45.21034" lon="-1.09736">
        <ele>65</ele>
        <time>2025-04-26T07:36:56Z</time>
      </trkpt>
      <trkpt lat="45.21034" lon="-1.09736">
        <ele>65</ele>
        <time>2025-04-26T07:36:57Z</time>
      </trkpt>
      <trkpt lat="45.21034" lon="-1.09736">
        <ele>65</ele>
        <time>2025-04-26T07:36:58Z</time>
      </trkpt>
      <trkpt lat="45.21034" lon="-1.09736">
        <ele>65</ele>
        <time>2025-04-26T07:36:59Z</time>
      </trkpt>
      <trkpt lat="45.21034" lon="-1.09736">
        <ele>65</ele>
        <time>2025-04-26T07:37:00Z</time>
      </trkpt>
      <trkpt lat="45.21034" lon="-1.09736">
        <ele>65</ele>
        <time>2025-04-26T07:37:01Z</time>
      </trkpt>
      <trkpt lat="45.21032" lon="-1.0974">
        <ele>68</ele>
        <time>2025-04-26T07:37:02Z</time>
      </trkpt>
      <trkpt lat="45.21032" lon="-1.09741">
        <ele>68</ele>
        <time>2025-04-26T07:37:03Z</time>
      </trkpt>
      <trkpt lat="45.21032" lon="-1.09742">
        <ele>68</ele>
        <time>2025-04-26T07:37:04Z</time>
      </trkpt>
      <trkpt lat="45.21033" lon="-1.09742">
        <ele>67</ele>
        <time>2025-04-26T07:37:05Z</time>
      </trkpt>
      <trkpt lat="45.21033" lon="-1.09742">
        <ele>67</ele>
        <time>2025-04-26T07:37:06Z</time>
      </trkpt>
      <trkpt lat="45.21033" lon="-1.09742">
        <ele>67</ele>
        <time>2025-04-26T07:37:07Z</time>
      </trkpt>
      <trkpt lat="45.21033" lon="-1.09742">
        <ele>67</ele>
        <time>2025-04-26T07:37:08Z</time>
      </trkpt>
      <trkpt lat="45.21033" lon="-1.09742">
        <ele>67</ele>
        <time>2025-04-26T07:37:09Z</time>
      </trkpt>
      <trkpt lat="45.21033" lon="-1.09742">
        <ele>67</ele>
        <time>2025-04-26T07:37:10Z</time>
      </trkpt>
      <trkpt lat="45.21033" lon="-1.09742">
        <ele>67</ele>
        <time>2025-04-26T07:37:11Z</time>
      </trkpt>
      <trkpt lat="45.21033" lon="-1.09742">
        <ele>67</ele>
        <time>2025-04-26T07:37:12Z</time>
      </trkpt>
      <trkpt lat="45.21033" lon="-1.09742">
        <ele>67</ele>
        <time>2025-04-26T07:37:13Z</time>
      </trkpt>
      <trkpt lat="45.21033" lon="-1.09742">
        <ele>67</ele>
        <time>2025-04-26T07:37:14Z</time>
      </trkpt>
      <trkpt lat="45.21033" lon="-1.09742">
        <ele>67</ele>
        <time>2025-04-26T07:37:15Z</time>
      </trkpt>
      <trkpt lat="45.21033" lon="-1.09742">
        <ele>67</ele>
        <time>2025-04-26T07:37:16Z</time>
      </trkpt>
      <trkpt lat="45.21033" lon="-1.09742">
        <ele>67</ele>
        <time>2025-04-26T07:37:17Z</time>
      </trkpt>
      <trkpt lat="45.21033" lon="-1.09742">
        <ele>67</ele>
        <time>2025-04-26T07:37:18Z</time>
      </trkpt>
      <trkpt lat="45.21033" lon="-1.09742">
        <ele>67</ele>
        <time>2025-04-26T07:37:19Z</time>
      </trkpt>
      <trkpt lat="45.21033" lon="-1.09742">
        <ele>67</ele>
        <time>2025-04-26T07:37:20Z</time>
      </trkpt>
      <trkpt lat="45.21033" lon="-1.09742">
        <ele>67</ele>
        <time>2025-04-26T07:37:21Z</time>
      </trkpt>
      <trkpt lat="45.21033" lon="-1.09742">
        <ele>67</ele>
        <time>2025-04-26T07:37:22Z</time>
      </trkpt>
      <trkpt lat="45.21033" lon="-1.09742">
        <ele>67</ele>
        <time>2025-04-26T07:37:23Z</time>
      </trkpt>
      <trkpt lat="45.21033" lon="-1.09742">
        <ele>67</ele>
        <time>2025-04-26T07:37:24Z</time>
      </trkpt>
      <trkpt lat="45.21033" lon="-1.09742">
        <ele>67</ele>
        <time>2025-04-26T07:37:25Z</time>
      </trkpt>
      <trkpt lat="45.21033" lon="-1.09742">
        <ele>67</ele>
        <time>2025-04-26T07:37:26Z</time>
      </trkpt>
      <trkpt lat="45.21033" lon="-1.09742">
        <ele>67</ele>
        <time>2025-04-26T07:37:27Z</time>
      </trkpt>
      <trkpt lat="45.21033" lon="-1.09742">
        <ele>67</ele>
        <time>2025-04-26T07:37:28Z</time>
      </trkpt>
      <trkpt lat="45.21033" lon="-1.09742">
        <ele>67</ele>
        <time>2025-04-26T07:37:29Z</time>
      </trkpt>
      <trkpt lat="45.21033" lon="-1.09742">
        <ele>67</ele>
        <time>2025-04-26T07:37:30Z</time>
      </trkpt>
      <trkpt lat="45.21033" lon="-1.09742">
        <ele>67</ele>
        <time>2025-04-26T07:37:31Z</time>
      </trkpt>
      <trkpt lat="45.21033" lon="-1.09742">
        <ele>67</ele>
        <time>2025-04-26T07:37:32Z</time>
      </trkpt>
      <trkpt lat="45.21033" lon="-1.09742">
        <ele>67</ele>
        <time>2025-04-26T07:37:33Z</time>
      </trkpt>
      <trkpt lat="45.21033" lon="-1.09742">
        <ele>67</ele>
        <time>2025-04-26T07:37:34Z</time>
      </trkpt>
      <trkpt lat="45.21033" lon="-1.09742">
        <ele>67</ele>
        <time>2025-04-26T07:37:35Z</time>
      </trkpt>
      <trkpt lat="45.21033" lon="-1.09742">
        <ele>67</ele>
        <time>2025-04-26T07:37:36Z</time>
      </trkpt>
      <trkpt lat="45.21033" lon="-1.09742">
        <ele>67</ele>
        <time>2025-04-26T07:37:37Z</time>
      </trkpt>
      <trkpt lat="45.21033" lon="-1.09742">
        <ele>67</ele>
        <time>2025-04-26T07:37:38Z</time>
      </trkpt>
      <trkpt lat="45.21033" lon="-1.09742">
        <ele>67</ele>
        <time>2025-04-26T07:37:47Z</time>
      </trkpt>
      <trkpt lat="45.21033" lon="-1.09742">
        <ele>67</ele>
        <time>2025-04-26T07:37:48Z</time>
      </trkpt>
      <trkpt lat="45.21033" lon="-1.09742">
        <ele>67</ele>
        <time>2025-04-26T07:37:49Z</time>
      </trkpt>
      <trkpt lat="45.21033" lon="-1.09742">
        <ele>67</ele>
        <time>2025-04-26T07:37:50Z</time>
      </trkpt>
      <trkpt lat="45.21033" lon="-1.09742">
        <ele>67</ele>
        <time>2025-04-26T07:37:51Z</time>
      </trkpt>
      <trkpt lat="45.21033" lon="-1.09742">
        <ele>67</ele>
        <time>2025-04-26T07:37:52Z</time>
      </trkpt>
      <trkpt lat="45.21033" lon="-1.09742">
        <ele>67</ele>
        <time>2025-04-26T07:37:53Z</time>
      </trkpt>
      <trkpt lat="45.21033" lon="-1.09742">
        <ele>67</ele>
        <time>2025-04-26T07:37:54Z</time>
      </trkpt>
      <trkpt lat="45.21033" lon="-1.09742">
        <ele>67</ele>
        <time>2025-04-26T07:37:55Z</time>
      </trkpt>
      <trkpt lat="45.21033" lon="-1.09742">
        <ele>67</ele>
        <time>2025-04-26T07:37:56Z</time>
      </trkpt>
      <trkpt lat="45.21033" lon="-1.09742">
        <ele>67</ele>
        <time>2025-04-26T07:37:57Z</time>
      </trkpt>
      <trkpt lat="45.21033" lon="-1.09742">
        <ele>67</ele>
        <time>2025-04-26T07:37:58Z</time>
      </trkpt>
      <trkpt lat="45.21033" lon="-1.09742">
        <ele>67</ele>
        <time>2025-04-26T07:37:59Z</time>
      </trkpt>
      <trkpt lat="45.21033" lon="-1.09742">
        <ele>67</ele>
        <time>2025-04-26T07:38:00Z</time>
      </trkpt>
      <trkpt lat="45.21033" lon="-1.09742">
        <ele>67</ele>
        <time>2025-04-26T07:38:01Z</time>
      </trkpt>
      <trkpt lat="45.21038" lon="-1.09742">
        <ele>70</ele>
        <time>2025-04-26T07:38:02Z</time>
      </trkpt>
      <trkpt lat="45.21039" lon="-1.09743">
        <ele>70</ele>
        <time>2025-04-26T07:38:03Z</time>
      </trkpt>
      <trkpt lat="45.21041" lon="-1.09744">
        <ele>70</ele>
        <time>2025-04-26T07:38:04Z</time>
      </trkpt>
      <trkpt lat="45.21042" lon="-1.09745">
        <ele>69</ele>
        <time>2025-04-26T07:38:05Z</time>
      </trkpt>
      <trkpt lat="45.21044" lon="-1.09747">
        <ele>70</ele>
        <time>2025-04-26T07:38:06Z</time>
      </trkpt>
      <trkpt lat="45.21045" lon="-1.0975">
        <ele>70</ele>
        <time>2025-04-26T07:38:07Z</time>
      </trkpt>
      <trkpt lat="45.21047" lon="-1.09753">
        <ele>70</ele>
        <time>2025-04-26T07:38:08Z</time>
      </trkpt>
      <trkpt lat="45.21048" lon="-1.09757">
        <ele>70</ele>
        <time>2025-04-26T07:38:09Z</time>
      </trkpt>
      <trkpt lat="45.21049" lon="-1.09762">
        <ele>69</ele>
        <time>2025-04-26T07:38:10Z</time>
      </trkpt>
      <trkpt lat="45.21049" lon="-1.09766">
        <ele>69</ele>
        <time>2025-04-26T07:38:11Z</time>
      </trkpt>
      <trkpt lat="45.2105" lon="-1.09771">
        <ele>70</ele>
        <time>2025-04-26T07:38:12Z</time>
      </trkpt>
      <trkpt lat="45.21051" lon="-1.09776">
        <ele>69</ele>
        <time>2025-04-26T07:38:13Z</time>
      </trkpt>
      <trkpt lat="45.21051" lon="-1.0978">
        <ele>70</ele>
        <time>2025-04-26T07:38:14Z</time>
      </trkpt>
      <trkpt lat="45.21052" lon="-1.09785">
        <ele>70</ele>
        <time>2025-04-26T07:38:15Z</time>
      </trkpt>
      <trkpt lat="45.21053" lon="-1.0979">
        <ele>70</ele>
        <time>2025-04-26T07:38:16Z</time>
      </trkpt>
      <trkpt lat="45.21053" lon="-1.09796">
        <ele>69</ele>
        <time>2025-04-26T07:38:17Z</time>
      </trkpt>
      <trkpt lat="45.21054" lon="-1.09801">
        <ele>69</ele>
        <time>2025-04-26T07:38:18Z</time>
      </trkpt>
      <trkpt lat="45.21054" lon="-1.09806">
        <ele>69</ele>
        <time>2025-04-26T07:38:19Z</time>
      </trkpt>
      <trkpt lat="45.21055" lon="-1.09811">
        <ele>69</ele>
        <time>2025-04-26T07:38:20Z</time>
      </trkpt>
      <trkpt lat="45.21055" lon="-1.09817">
        <ele>69</ele>
        <time>2025-04-26T07:38:21Z</time>
      </trkpt>
      <trkpt lat="45.21056" lon="-1.09822">
        <ele>69</ele>
        <time>2025-04-26T07:38:22Z</time>
      </trkpt>
      <trkpt lat="45.21057" lon="-1.09828">
        <ele>69</ele>
        <time>2025-04-26T07:38:23Z</time>
      </trkpt>
      <trkpt lat="45.21058" lon="-1.09834">
        <ele>69</ele>
        <time>2025-04-26T07:38:24Z</time>
      </trkpt>
      <trkpt lat="45.21059" lon="-1.0984">
        <ele>69</ele>
        <time>2025-04-26T07:38:25Z</time>
      </trkpt>
      <trkpt lat="45.2106" lon="-1.09846">
        <ele>69</ele>
        <time>2025-04-26T07:38:26Z</time>
      </trkpt>
      <trkpt lat="45.2106" lon="-1.09851">
        <ele>69</ele>
        <time>2025-04-26T07:38:27Z</time>
      </trkpt>
      <trkpt lat="45.21061" lon="-1.09857">
        <ele>69</ele>
        <time>2025-04-26T07:38:28Z</time>
      </trkpt>
      <trkpt lat="45.21062" lon="-1.09863">
        <ele>70</ele>
        <time>2025-04-26T07:38:29Z</time>
      </trkpt>
      <trkpt lat="45.21062" lon="-1.09868">
        <ele>70</ele>
        <time>2025-04-26T07:38:30Z</time>
      </trkpt>
      <trkpt lat="45.21063" lon="-1.09874">
        <ele>69</ele>
        <time>2025-04-26T07:38:31Z</time>
      </trkpt>
      <trkpt lat="45.21064" lon="-1.0988">
        <ele>69</ele>
        <time>2025-04-26T07:38:32Z</time>
      </trkpt>
      <trkpt lat="45.21065" lon="-1.09886">
        <ele>69</ele>
        <time>2025-04-26T07:38:33Z</time>
      </trkpt>
      <trkpt lat="45.21066" lon="-1.09892">
        <ele>68</ele>
        <time>2025-04-26T07:38:34Z</time>
      </trkpt>
      <trkpt lat="45.21066" lon="-1.09898">
        <ele>68</ele>
        <time>2025-04-26T07:38:35Z</time>
      </trkpt>
      <trkpt lat="45.21067" lon="-1.09904">
        <ele>68</ele>
        <time>2025-04-26T07:38:36Z</time>
      </trkpt>
      <trkpt lat="45.21069" lon="-1.09909">
        <ele>67</ele>
        <time>2025-04-26T07:38:37Z</time>
      </trkpt>
      <trkpt lat="45.2107" lon="-1.09915">
        <ele>67</ele>
        <time>2025-04-26T07:38:38Z</time>
      </trkpt>
      <trkpt lat="45.21071" lon="-1.09921">
        <ele>67</ele>
        <time>2025-04-26T07:38:39Z</time>
      </trkpt>
      <trkpt lat="45.21072" lon="-1.09927">
        <ele>66</ele>
        <time>2025-04-26T07:38:40Z</time>
      </trkpt>
      <trkpt lat="45.21073" lon="-1.09934">
        <ele>66</ele>
        <time>2025-04-26T07:38:41Z</time>
      </trkpt>
      <trkpt lat="45.21074" lon="-1.0994">
        <ele>66</ele>
        <time>2025-04-26T07:38:42Z</time>
      </trkpt>
      <trkpt lat="45.21075" lon="-1.09946">
        <ele>66</ele>
        <time>2025-04-26T07:38:43Z</time>
      </trkpt>
      <trkpt lat="45.21076" lon="-1.09951">
        <ele>65</ele>
        <time>2025-04-26T07:38:44Z</time>
      </trkpt>
      <trkpt lat="45.21077" lon="-1.09957">
        <ele>65</ele>
        <time>2025-04-26T07:38:45Z</time>
      </trkpt>
      <trkpt lat="45.21078" lon="-1.09962">
        <ele>65</ele>
        <time>2025-04-26T07:38:46Z</time>
      </trkpt>
      <trkpt lat="45.21079" lon="-1.09968">
        <ele>65</ele>
        <time>2025-04-26T07:38:47Z</time>
      </trkpt>
      <trkpt lat="45.2108" lon="-1.09974">
        <ele>65</ele>
        <time>2025-04-26T07:38:48Z</time>
      </trkpt>
      <trkpt lat="45.21081" lon="-1.09979">
        <ele>65</ele>
        <time>2025-04-26T07:38:49Z</time>
      </trkpt>
      <trkpt lat="45.21082" lon="-1.09985">
        <ele>65</ele>
        <time>2025-04-26T07:38:50Z</time>
      </trkpt>
      <trkpt lat="45.21082" lon="-1.09991">
        <ele>65</ele>
        <time>2025-04-26T07:38:51Z</time>
      </trkpt>
      <trkpt lat="45.21084" lon="-1.09997">
        <ele>64</ele>
        <time>2025-04-26T07:38:52Z</time>
      </trkpt>
      <trkpt lat="45.21084" lon="-1.10004">
        <ele>64</ele>
        <time>2025-04-26T07:38:53Z</time>
      </trkpt>
      <trkpt lat="45.21086" lon="-1.10009">
        <ele>63</ele>
        <time>2025-04-26T07:38:54Z</time>
      </trkpt>
      <trkpt lat="45.21086" lon="-1.10016">
        <ele>64</ele>
        <time>2025-04-26T07:38:55Z</time>
      </trkpt>
      <trkpt lat="45.21086" lon="-1.10022">
        <ele>65</ele>
        <time>2025-04-26T07:38:56Z</time>
      </trkpt>
      <trkpt lat="45.21087" lon="-1.10029">
        <ele>65</ele>
        <time>2025-04-26T07:38:57Z</time>
      </trkpt>
      <trkpt lat="45.21088" lon="-1.10035">
        <ele>65</ele>
        <time>2025-04-26T07:38:58Z</time>
      </trkpt>
      <trkpt lat="45.21089" lon="-1.10041">
        <ele>65</ele>
        <time>2025-04-26T07:38:59Z</time>
      </trkpt>
      <trkpt lat="45.2109" lon="-1.10047">
        <ele>65</ele>
        <time>2025-04-26T07:39:00Z</time>
      </trkpt>
      <trkpt lat="45.2109" lon="-1.10053">
        <ele>65</ele>
        <time>2025-04-26T07:39:01Z</time>
      </trkpt>
      <trkpt lat="45.21091" lon="-1.10059">
        <ele>64</ele>
        <time>2025-04-26T07:39:02Z</time>
      </trkpt>
      <trkpt lat="45.21092" lon="-1.10065">
        <ele>64</ele>
        <time>2025-04-26T07:39:03Z</time>
      </trkpt>
      <trkpt lat="45.21093" lon="-1.10072">
        <ele>64</ele>
        <time>2025-04-26T07:39:04Z</time>
      </trkpt>
      <trkpt lat="45.21093" lon="-1.10078">
        <ele>64</ele>
        <time>2025-04-26T07:39:05Z</time>
      </trkpt>
      <trkpt lat="45.21094" lon="-1.10084">
        <ele>65</ele>
        <time>2025-04-26T07:39:06Z</time>
      </trkpt>
      <trkpt lat="45.21095" lon="-1.1009">
        <ele>64</ele>
        <time>2025-04-26T07:39:07Z</time>
      </trkpt>
      <trkpt lat="45.21096" lon="-1.10096">
        <ele>64</ele>
        <time>2025-04-26T07:39:08Z</time>
      </trkpt>
      <trkpt lat="45.21097" lon="-1.10101">
        <ele>64</ele>
        <time>2025-04-26T07:39:09Z</time>
      </trkpt>
      <trkpt lat="45.21098" lon="-1.10107">
        <ele>64</ele>
        <time>2025-04-26T07:39:10Z</time>
      </trkpt>
      <trkpt lat="45.21099" lon="-1.10112">
        <ele>64</ele>
        <time>2025-04-26T07:39:11Z</time>
      </trkpt>
      <trkpt lat="45.211" lon="-1.10118">
        <ele>63</ele>
        <time>2025-04-26T07:39:12Z</time>
      </trkpt>
      <trkpt lat="45.21101" lon="-1.10124">
        <ele>63</ele>
        <time>2025-04-26T07:39:13Z</time>
      </trkpt>
      <trkpt lat="45.21103" lon="-1.10131">
        <ele>63</ele>
        <time>2025-04-26T07:39:14Z</time>
      </trkpt>
      <trkpt lat="45.21103" lon="-1.10137">
        <ele>63</ele>
        <time>2025-04-26T07:39:15Z</time>
      </trkpt>
      <trkpt lat="45.21104" lon="-1.10143">
        <ele>63</ele>
        <time>2025-04-26T07:39:16Z</time>
      </trkpt>
      <trkpt lat="45.21105" lon="-1.1015">
        <ele>64</ele>
        <time>2025-04-26T07:39:17Z</time>
      </trkpt>
      <trkpt lat="45.21106" lon="-1.10156">
        <ele>64</ele>
        <time>2025-04-26T07:39:18Z</time>
      </trkpt>
      <trkpt lat="45.21107" lon="-1.10163">
        <ele>64</ele>
        <time>2025-04-26T07:39:19Z</time>
      </trkpt>
      <trkpt lat="45.21108" lon="-1.10169">
        <ele>64</ele>
        <time>2025-04-26T07:39:20Z</time>
      </trkpt>
      <trkpt lat="45.21109" lon="-1.10175">
        <ele>64</ele>
        <time>2025-04-26T07:39:21Z</time>
      </trkpt>
      <trkpt lat="45.2111" lon="-1.10181">
        <ele>64</ele>
        <time>2025-04-26T07:39:22Z</time>
      </trkpt>
      <trkpt lat="45.21111" lon="-1.10188">
        <ele>64</ele>
        <time>2025-04-26T07:39:23Z</time>
      </trkpt>
      <trkpt lat="45.21111" lon="-1.10195">
        <ele>64</ele>
        <time>2025-04-26T07:39:24Z</time>
      </trkpt>
      <trkpt lat="45.21112" lon="-1.10201">
        <ele>64</ele>
        <time>2025-04-26T07:39:25Z</time>
      </trkpt>
      <trkpt lat="45.21113" lon="-1.10207">
        <ele>64</ele>
        <time>2025-04-26T07:39:26Z</time>
      </trkpt>
      <trkpt lat="45.21114" lon="-1.10213">
        <ele>64</ele>
        <time>2025-04-26T07:39:27Z</time>
      </trkpt>
      <trkpt lat="45.21115" lon="-1.1022">
        <ele>64</ele>
        <time>2025-04-26T07:39:28Z</time>
      </trkpt>
      <trkpt lat="45.21116" lon="-1.10226">
        <ele>64</ele>
        <time>2025-04-26T07:39:29Z</time>
      </trkpt>
      <trkpt lat="45.21117" lon="-1.10232">
        <ele>65</ele>
        <time>2025-04-26T07:39:30Z</time>
      </trkpt>
      <trkpt lat="45.21118" lon="-1.10239">
        <ele>65</ele>
        <time>2025-04-26T07:39:31Z</time>
      </trkpt>
      <trkpt lat="45.21118" lon="-1.10245">
        <ele>65</ele>
        <time>2025-04-26T07:39:32Z</time>
      </trkpt>
      <trkpt lat="45.21119" lon="-1.10252">
        <ele>65</ele>
        <time>2025-04-26T07:39:33Z</time>
      </trkpt>
      <trkpt lat="45.2112" lon="-1.10258">
        <ele>65</ele>
        <time>2025-04-26T07:39:34Z</time>
      </trkpt>
      <trkpt lat="45.21121" lon="-1.10264">
        <ele>66</ele>
        <time>2025-04-26T07:39:35Z</time>
      </trkpt>
      <trkpt lat="45.21122" lon="-1.10271">
        <ele>66</ele>
        <time>2025-04-26T07:39:36Z</time>
      </trkpt>
      <trkpt lat="45.21122" lon="-1.10277">
        <ele>65</ele>
        <time>2025-04-26T07:39:37Z</time>
      </trkpt>
      <trkpt lat="45.21121" lon="-1.10284">
        <ele>65</ele>
        <time>2025-04-26T07:39:38Z</time>
      </trkpt>
      <trkpt lat="45.21122" lon="-1.1029">
        <ele>65</ele>
        <time>2025-04-26T07:39:39Z</time>
      </trkpt>
      <trkpt lat="45.21124" lon="-1.10296">
        <ele>65</ele>
        <time>2025-04-26T07:39:40Z</time>
      </trkpt>
      <trkpt lat="45.21125" lon="-1.10302">
        <ele>64</ele>
        <time>2025-04-26T07:39:41Z</time>
      </trkpt>
      <trkpt lat="45.21126" lon="-1.10308">
        <ele>64</ele>
        <time>2025-04-26T07:39:42Z</time>
      </trkpt>
      <trkpt lat="45.21127" lon="-1.10314">
        <ele>63</ele>
        <time>2025-04-26T07:39:43Z</time>
      </trkpt>
      <trkpt lat="45.21128" lon="-1.1032">
        <ele>62</ele>
        <time>2025-04-26T07:39:44Z</time>
      </trkpt>
      <trkpt lat="45.21128" lon="-1.10326">
        <ele>62</ele>
        <time>2025-04-26T07:39:45Z</time>
      </trkpt>
      <trkpt lat="45.21128" lon="-1.10333">
        <ele>62</ele>
        <time>2025-04-26T07:39:46Z</time>
      </trkpt>
      <trkpt lat="45.21129" lon="-1.10339">
        <ele>62</ele>
        <time>2025-04-26T07:39:47Z</time>
      </trkpt>
      <trkpt lat="45.21131" lon="-1.10345">
        <ele>63</ele>
        <time>2025-04-26T07:39:48Z</time>
      </trkpt>
      <trkpt lat="45.21132" lon="-1.10352">
        <ele>63</ele>
        <time>2025-04-26T07:39:49Z</time>
      </trkpt>
      <trkpt lat="45.21133" lon="-1.10359">
        <ele>63</ele>
        <time>2025-04-26T07:39:50Z</time>
      </trkpt>
      <trkpt lat="45.21134" lon="-1.10365">
        <ele>64</ele>
        <time>2025-04-26T07:39:51Z</time>
      </trkpt>
      <trkpt lat="45.21135" lon="-1.10371">
        <ele>64</ele>
        <time>2025-04-26T07:39:52Z</time>
      </trkpt>
      <trkpt lat="45.21136" lon="-1.10378">
        <ele>65</ele>
        <time>2025-04-26T07:39:53Z</time>
      </trkpt>
      <trkpt lat="45.21137" lon="-1.10385">
        <ele>66</ele>
        <time>2025-04-26T07:39:54Z</time>
      </trkpt>
      <trkpt lat="45.21138" lon="-1.10393">
        <ele>66</ele>
        <time>2025-04-26T07:39:55Z</time>
      </trkpt>
      <trkpt lat="45.21139" lon="-1.104">
        <ele>66</ele>
        <time>2025-04-26T07:39:56Z</time>
      </trkpt>
      <trkpt lat="45.2114" lon="-1.10407">
        <ele>66</ele>
        <time>2025-04-26T07:39:57Z</time>
      </trkpt>
      <trkpt lat="45.21141" lon="-1.10414">
        <ele>66</ele>
        <time>2025-04-26T07:39:58Z</time>
      </trkpt>
      <trkpt lat="45.21142" lon="-1.1042">
        <ele>66</ele>
        <time>2025-04-26T07:39:59Z</time>
      </trkpt>
      <trkpt lat="45.21143" lon="-1.10427">
        <ele>66</ele>
        <time>2025-04-26T07:40:00Z</time>
      </trkpt>
      <trkpt lat="45.21144" lon="-1.10433">
        <ele>66</ele>
        <time>2025-04-26T07:40:01Z</time>
      </trkpt>
      <trkpt lat="45.21145" lon="-1.10439">
        <ele>66</ele>
        <time>2025-04-26T07:40:02Z</time>
      </trkpt>
      <trkpt lat="45.21146" lon="-1.10446">
        <ele>66</ele>
        <time>2025-04-26T07:40:03Z</time>
      </trkpt>
      <trkpt lat="45.21147" lon="-1.10452">
        <ele>66</ele>
        <time>2025-04-26T07:40:04Z</time>
      </trkpt>
      <trkpt lat="45.21148" lon="-1.10458">
        <ele>66</ele>
        <time>2025-04-26T07:40:05Z</time>
      </trkpt>
      <trkpt lat="45.21149" lon="-1.10465">
        <ele>66</ele>
        <time>2025-04-26T07:40:06Z</time>
      </trkpt>
      <trkpt lat="45.2115" lon="-1.10471">
        <ele>66</ele>
        <time>2025-04-26T07:40:07Z</time>
      </trkpt>
      <trkpt lat="45.21151" lon="-1.10477">
        <ele>66</ele>
        <time>2025-04-26T07:40:08Z</time>
      </trkpt>
      <trkpt lat="45.21151" lon="-1.10484">
        <ele>66</ele>
        <time>2025-04-26T07:40:09Z</time>
      </trkpt>
      <trkpt lat="45.21152" lon="-1.1049">
        <ele>66</ele>
        <time>2025-04-26T07:40:10Z</time>
      </trkpt>
      <trkpt lat="45.21153" lon="-1.10497">
        <ele>66</ele>
        <time>2025-04-26T07:40:11Z</time>
      </trkpt>
      <trkpt lat="45.21154" lon="-1.10503">
        <ele>66</ele>
        <time>2025-04-26T07:40:12Z</time>
      </trkpt>
      <trkpt lat="45.21154" lon="-1.10509">
        <ele>65</ele>
        <time>2025-04-26T07:40:13Z</time>
      </trkpt>
      <trkpt lat="45.21155" lon="-1.10516">
        <ele>65</ele>
        <time>2025-04-26T07:40:14Z</time>
      </trkpt>
      <trkpt lat="45.21156" lon="-1.10522">
        <ele>65</ele>
        <time>2025-04-26T07:40:15Z</time>
      </trkpt>
      <trkpt lat="45.21157" lon="-1.10528">
        <ele>66</ele>
        <time>2025-04-26T07:40:16Z</time>
      </trkpt>
      <trkpt lat="45.21158" lon="-1.10535">
        <ele>66</ele>
        <time>2025-04-26T07:40:17Z</time>
      </trkpt>
      <trkpt lat="45.21159" lon="-1.10541">
        <ele>66</ele>
        <time>2025-04-26T07:40:18Z</time>
      </trkpt>
      <trkpt lat="45.21159" lon="-1.10547">
        <ele>66</ele>
        <time>2025-04-26T07:40:19Z</time>
      </trkpt>
      <trkpt lat="45.2116" lon="-1.10553">
        <ele>66</ele>
        <time>2025-04-26T07:40:20Z</time>
      </trkpt>
      <trkpt lat="45.21161" lon="-1.10559">
        <ele>66</ele>
        <time>2025-04-26T07:40:21Z</time>
      </trkpt>
      <trkpt lat="45.21162" lon="-1.10565">
        <ele>66</ele>
        <time>2025-04-26T07:40:22Z</time>
      </trkpt>
      <trkpt lat="45.21163" lon="-1.10572">
        <ele>66</ele>
        <time>2025-04-26T07:40:23Z</time>
      </trkpt>
      <trkpt lat="45.21164" lon="-1.10578">
        <ele>66</ele>
        <time>2025-04-26T07:40:24Z</time>
      </trkpt>
      <trkpt lat="45.21165" lon="-1.10584">
        <ele>66</ele>
        <time>2025-04-26T07:40:25Z</time>
      </trkpt>
      <trkpt lat="45.21166" lon="-1.1059">
        <ele>66</ele>
        <time>2025-04-26T07:40:26Z</time>
      </trkpt>
      <trkpt lat="45.21167" lon="-1.10597">
        <ele>66</ele>
        <time>2025-04-26T07:40:27Z</time>
      </trkpt>
      <trkpt lat="45.21168" lon="-1.10603">
        <ele>66</ele>
        <time>2025-04-26T07:40:28Z</time>
      </trkpt>
      <trkpt lat="45.21168" lon="-1.10609">
        <ele>66</ele>
        <time>2025-04-26T07:40:29Z</time>
      </trkpt>
      <trkpt lat="45.21169" lon="-1.10616">
        <ele>66</ele>
        <time>2025-04-26T07:40:30Z</time>
      </trkpt>
      <trkpt lat="45.2117" lon="-1.10621">
        <ele>65</ele>
        <time>2025-04-26T07:40:31Z</time>
      </trkpt>
      <trkpt lat="45.21171" lon="-1.10628">
        <ele>65</ele>
        <time>2025-04-26T07:40:32Z</time>
      </trkpt>
      <trkpt lat="45.21172" lon="-1.10634">
        <ele>65</ele>
        <time>2025-04-26T07:40:33Z</time>
      </trkpt>
      <trkpt lat="45.21173" lon="-1.1064">
        <ele>65</ele>
        <time>2025-04-26T07:40:34Z</time>
      </trkpt>
      <trkpt lat="45.21173" lon="-1.10646">
        <ele>65</ele>
        <time>2025-04-26T07:40:35Z</time>
      </trkpt>
      <trkpt lat="45.21174" lon="-1.10652">
        <ele>65</ele>
        <time>2025-04-26T07:40:36Z</time>
      </trkpt>
      <trkpt lat="45.21175" lon="-1.10659">
        <ele>65</ele>
        <time>2025-04-26T07:40:37Z</time>
      </trkpt>
      <trkpt lat="45.21176" lon="-1.10666">
        <ele>65</ele>
        <time>2025-04-26T07:40:38Z</time>
      </trkpt>
      <trkpt lat="45.21177" lon="-1.10672">
        <ele>65</ele>
        <time>2025-04-26T07:40:39Z</time>
      </trkpt>
      <trkpt lat="45.21178" lon="-1.10679">
        <ele>65</ele>
        <time>2025-04-26T07:40:40Z</time>
      </trkpt>
      <trkpt lat="45.21179" lon="-1.10685">
        <ele>65</ele>
        <time>2025-04-26T07:40:41Z</time>
      </trkpt>
      <trkpt lat="45.2118" lon="-1.10691">
        <ele>65</ele>
        <time>2025-04-26T07:40:42Z</time>
      </trkpt>
      <trkpt lat="45.21181" lon="-1.10697">
        <ele>65</ele>
        <time>2025-04-26T07:40:43Z</time>
      </trkpt>
      <trkpt lat="45.21183" lon="-1.10704">
        <ele>65</ele>
        <time>2025-04-26T07:40:44Z</time>
      </trkpt>
      <trkpt lat="45.21183" lon="-1.1071">
        <ele>65</ele>
        <time>2025-04-26T07:40:45Z</time>
      </trkpt>
      <trkpt lat="45.21184" lon="-1.10717">
        <ele>65</ele>
        <time>2025-04-26T07:40:46Z</time>
      </trkpt>
      <trkpt lat="45.21185" lon="-1.10723">
        <ele>66</ele>
        <time>2025-04-26T07:40:47Z</time>
      </trkpt>
      <trkpt lat="45.21186" lon="-1.10729">
        <ele>66</ele>
        <time>2025-04-26T07:40:48Z</time>
      </trkpt>
      <trkpt lat="45.21187" lon="-1.10736">
        <ele>66</ele>
        <time>2025-04-26T07:40:49Z</time>
      </trkpt>
      <trkpt lat="45.21188" lon="-1.10742">
        <ele>65</ele>
        <time>2025-04-26T07:40:50Z</time>
      </trkpt>
      <trkpt lat="45.21188" lon="-1.10748">
        <ele>66</ele>
        <time>2025-04-26T07:40:51Z</time>
      </trkpt>
      <trkpt lat="45.21189" lon="-1.10754">
        <ele>66</ele>
        <time>2025-04-26T07:40:52Z</time>
      </trkpt>
      <trkpt lat="45.2119" lon="-1.1076">
        <ele>65</ele>
        <time>2025-04-26T07:40:53Z</time>
      </trkpt>
      <trkpt lat="45.21191" lon="-1.10766">
        <ele>65</ele>
        <time>2025-04-26T07:40:54Z</time>
      </trkpt>
      <trkpt lat="45.21192" lon="-1.10772">
        <ele>65</ele>
        <time>2025-04-26T07:40:55Z</time>
      </trkpt>
      <trkpt lat="45.21193" lon="-1.10778">
        <ele>66</ele>
        <time>2025-04-26T07:40:56Z</time>
      </trkpt>
      <trkpt lat="45.21194" lon="-1.10784">
        <ele>66</ele>
        <time>2025-04-26T07:40:57Z</time>
      </trkpt>
      <trkpt lat="45.21195" lon="-1.1079">
        <ele>66</ele>
        <time>2025-04-26T07:40:58Z</time>
      </trkpt>
      <trkpt lat="45.21196" lon="-1.10796">
        <ele>66</ele>
        <time>2025-04-26T07:40:59Z</time>
      </trkpt>
      <trkpt lat="45.21196" lon="-1.10802">
        <ele>66</ele>
        <time>2025-04-26T07:41:00Z</time>
      </trkpt>
      <trkpt lat="45.21197" lon="-1.10809">
        <ele>65</ele>
        <time>2025-04-26T07:41:01Z</time>
      </trkpt>
      <trkpt lat="45.21198" lon="-1.10815">
        <ele>65</ele>
        <time>2025-04-26T07:41:02Z</time>
      </trkpt>
      <trkpt lat="45.21199" lon="-1.10821">
        <ele>65</ele>
        <time>2025-04-26T07:41:03Z</time>
      </trkpt>
      <trkpt lat="45.212" lon="-1.10827">
        <ele>65</ele>
        <time>2025-04-26T07:41:04Z</time>
      </trkpt>
      <trkpt lat="45.21201" lon="-1.10833">
        <ele>65</ele>
        <time>2025-04-26T07:41:05Z</time>
      </trkpt>
      <trkpt lat="45.21202" lon="-1.10839">
        <ele>65</ele>
        <time>2025-04-26T07:41:06Z</time>
      </trkpt>
      <trkpt lat="45.21203" lon="-1.10845">
        <ele>65</ele>
        <time>2025-04-26T07:41:07Z</time>
      </trkpt>
      <trkpt lat="45.21204" lon="-1.10851">
        <ele>65</ele>
        <time>2025-04-26T07:41:08Z</time>
      </trkpt>
      <trkpt lat="45.21205" lon="-1.10857">
        <ele>65</ele>
        <time>2025-04-26T07:41:09Z</time>
      </trkpt>
      <trkpt lat="45.21206" lon="-1.10863">
        <ele>65</ele>
        <time>2025-04-26T07:41:10Z</time>
      </trkpt>
      <trkpt lat="45.21206" lon="-1.10869">
        <ele>65</ele>
        <time>2025-04-26T07:41:11Z</time>
      </trkpt>
      <trkpt lat="45.21207" lon="-1.10875">
        <ele>65</ele>
        <time>2025-04-26T07:41:12Z</time>
      </trkpt>
      <trkpt lat="45.21208" lon="-1.10882">
        <ele>65</ele>
        <time>2025-04-26T07:41:13Z</time>
      </trkpt>
      <trkpt lat="45.21209" lon="-1.10888">
        <ele>65</ele>
        <time>2025-04-26T07:41:14Z</time>
      </trkpt>
      <trkpt lat="45.2121" lon="-1.10895">
        <ele>65</ele>
        <time>2025-04-26T07:41:15Z</time>
      </trkpt>
      <trkpt lat="45.21211" lon="-1.10901">
        <ele>65</ele>
        <time>2025-04-26T07:41:16Z</time>
      </trkpt>
      <trkpt lat="45.21211" lon="-1.10907">
        <ele>65</ele>
        <time>2025-04-26T07:41:17Z</time>
      </trkpt>
      <trkpt lat="45.21212" lon="-1.10913">
        <ele>65</ele>
        <time>2025-04-26T07:41:18Z</time>
      </trkpt>
      <trkpt lat="45.21213" lon="-1.10919">
        <ele>65</ele>
        <time>2025-04-26T07:41:19Z</time>
      </trkpt>
      <trkpt lat="45.21214" lon="-1.10925">
        <ele>65</ele>
        <time>2025-04-26T07:41:20Z</time>
      </trkpt>
      <trkpt lat="45.21215" lon="-1.10932">
        <ele>65</ele>
        <time>2025-04-26T07:41:21Z</time>
      </trkpt>
      <trkpt lat="45.21216" lon="-1.10938">
        <ele>65</ele>
        <time>2025-04-26T07:41:22Z</time>
      </trkpt>
      <trkpt lat="45.21217" lon="-1.10945">
        <ele>65</ele>
        <time>2025-04-26T07:41:23Z</time>
      </trkpt>
      <trkpt lat="45.21218" lon="-1.10951">
        <ele>65</ele>
        <time>2025-04-26T07:41:24Z</time>
      </trkpt>
      <trkpt lat="45.21219" lon="-1.10957">
        <ele>65</ele>
        <time>2025-04-26T07:41:25Z</time>
      </trkpt>
      <trkpt lat="45.2122" lon="-1.10963">
        <ele>65</ele>
        <time>2025-04-26T07:41:26Z</time>
      </trkpt>
      <trkpt lat="45.21221" lon="-1.1097">
        <ele>65</ele>
        <time>2025-04-26T07:41:27Z</time>
      </trkpt>
      <trkpt lat="45.21222" lon="-1.10976">
        <ele>65</ele>
        <time>2025-04-26T07:41:28Z</time>
      </trkpt>
      <trkpt lat="45.21222" lon="-1.10982">
        <ele>65</ele>
        <time>2025-04-26T07:41:29Z</time>
      </trkpt>
      <trkpt lat="45.21223" lon="-1.10989">
        <ele>64</ele>
        <time>2025-04-26T07:41:30Z</time>
      </trkpt>
      <trkpt lat="45.21224" lon="-1.10995">
        <ele>64</ele>
        <time>2025-04-26T07:41:31Z</time>
      </trkpt>
      <trkpt lat="45.21225" lon="-1.11001">
        <ele>64</ele>
        <time>2025-04-26T07:41:32Z</time>
      </trkpt>
      <trkpt lat="45.21226" lon="-1.11007">
        <ele>64</ele>
        <time>2025-04-26T07:41:33Z</time>
      </trkpt>
      <trkpt lat="45.21227" lon="-1.11013">
        <ele>64</ele>
        <time>2025-04-26T07:41:34Z</time>
      </trkpt>
      <trkpt lat="45.21228" lon="-1.11019">
        <ele>64</ele>
        <time>2025-04-26T07:41:35Z</time>
      </trkpt>
      <trkpt lat="45.21229" lon="-1.11026">
        <ele>64</ele>
        <time>2025-04-26T07:41:36Z</time>
      </trkpt>
      <trkpt lat="45.2123" lon="-1.11032">
        <ele>64</ele>
        <time>2025-04-26T07:41:37Z</time>
      </trkpt>
      <trkpt lat="45.2123" lon="-1.11039">
        <ele>64</ele>
        <time>2025-04-26T07:41:38Z</time>
      </trkpt>
      <trkpt lat="45.21231" lon="-1.11045">
        <ele>65</ele>
        <time>2025-04-26T07:41:39Z</time>
      </trkpt>
      <trkpt lat="45.21232" lon="-1.11051">
        <ele>65</ele>
        <time>2025-04-26T07:41:40Z</time>
      </trkpt>
      <trkpt lat="45.21233" lon="-1.11057">
        <ele>65</ele>
        <time>2025-04-26T07:41:41Z</time>
      </trkpt>
      <trkpt lat="45.21234" lon="-1.11064">
        <ele>65</ele>
        <time>2025-04-26T07:41:42Z</time>
      </trkpt>
      <trkpt lat="45.21235" lon="-1.1107">
        <ele>65</ele>
        <time>2025-04-26T07:41:43Z</time>
      </trkpt>
      <trkpt lat="45.21236" lon="-1.11076">
        <ele>66</ele>
        <time>2025-04-26T07:41:44Z</time>
      </trkpt>
      <trkpt lat="45.21236" lon="-1.11082">
        <ele>66</ele>
        <time>2025-04-26T07:41:45Z</time>
      </trkpt>
      <trkpt lat="45.21238" lon="-1.11088">
        <ele>66</ele>
        <time>2025-04-26T07:41:46Z</time>
      </trkpt>
      <trkpt lat="45.21238" lon="-1.11095">
        <ele>66</ele>
        <time>2025-04-26T07:41:47Z</time>
      </trkpt>
      <trkpt lat="45.21239" lon="-1.11101">
        <ele>66</ele>
        <time>2025-04-26T07:41:48Z</time>
      </trkpt>
      <trkpt lat="45.2124" lon="-1.11107">
        <ele>66</ele>
        <time>2025-04-26T07:41:49Z</time>
      </trkpt>
      <trkpt lat="45.21241" lon="-1.11113">
        <ele>66</ele>
        <time>2025-04-26T07:41:50Z</time>
      </trkpt>
      <trkpt lat="45.21242" lon="-1.11119">
        <ele>66</ele>
        <time>2025-04-26T07:41:51Z</time>
      </trkpt>
      <trkpt lat="45.21243" lon="-1.11126">
        <ele>66</ele>
        <time>2025-04-26T07:41:52Z</time>
      </trkpt>
      <trkpt lat="45.21244" lon="-1.11132">
        <ele>66</ele>
        <time>2025-04-26T07:41:53Z</time>
      </trkpt>
      <trkpt lat="45.21245" lon="-1.11138">
        <ele>66</ele>
        <time>2025-04-26T07:41:54Z</time>
      </trkpt>
      <trkpt lat="45.21246" lon="-1.11145">
        <ele>66</ele>
        <time>2025-04-26T07:41:55Z</time>
      </trkpt>
      <trkpt lat="45.21247" lon="-1.11151">
        <ele>66</ele>
        <time>2025-04-26T07:41:56Z</time>
      </trkpt>
      <trkpt lat="45.21248" lon="-1.11157">
        <ele>66</ele>
        <time>2025-04-26T07:41:57Z</time>
      </trkpt>
      <trkpt lat="45.21248" lon="-1.11164">
        <ele>66</ele>
        <time>2025-04-26T07:41:58Z</time>
      </trkpt>
      <trkpt lat="45.21249" lon="-1.1117">
        <ele>66</ele>
        <time>2025-04-26T07:41:59Z</time>
      </trkpt>
      <trkpt lat="45.2125" lon="-1.11176">
        <ele>66</ele>
        <time>2025-04-26T07:42:00Z</time>
      </trkpt>
      <trkpt lat="45.21251" lon="-1.11183">
        <ele>66</ele>
        <time>2025-04-26T07:42:01Z</time>
      </trkpt>
      <trkpt lat="45.21252" lon="-1.11189">
        <ele>65</ele>
        <time>2025-04-26T07:42:02Z</time>
      </trkpt>
      <trkpt lat="45.21253" lon="-1.11196">
        <ele>65</ele>
        <time>2025-04-26T07:42:03Z</time>
      </trkpt>
      <trkpt lat="45.21254" lon="-1.11202">
        <ele>65</ele>
        <time>2025-04-26T07:42:04Z</time>
      </trkpt>
      <trkpt lat="45.21255" lon="-1.11208">
        <ele>65</ele>
        <time>2025-04-26T07:42:05Z</time>
      </trkpt>
      <trkpt lat="45.21255" lon="-1.11215">
        <ele>65</ele>
        <time>2025-04-26T07:42:06Z</time>
      </trkpt>
      <trkpt lat="45.21256" lon="-1.11221">
        <ele>65</ele>
        <time>2025-04-26T07:42:07Z</time>
      </trkpt>
      <trkpt lat="45.21257" lon="-1.11227">
        <ele>66</ele>
        <time>2025-04-26T07:42:08Z</time>
      </trkpt>
      <trkpt lat="45.21258" lon="-1.11233">
        <ele>66</ele>
        <time>2025-04-26T07:42:09Z</time>
      </trkpt>
      <trkpt lat="45.21259" lon="-1.11239">
        <ele>66</ele>
        <time>2025-04-26T07:42:10Z</time>
      </trkpt>
      <trkpt lat="45.2126" lon="-1.11245">
        <ele>66</ele>
        <time>2025-04-26T07:42:11Z</time>
      </trkpt>
      <trkpt lat="45.21261" lon="-1.11251">
        <ele>66</ele>
        <time>2025-04-26T07:42:12Z</time>
      </trkpt>
      <trkpt lat="45.21262" lon="-1.11258">
        <ele>65</ele>
        <time>2025-04-26T07:42:13Z</time>
      </trkpt>
      <trkpt lat="45.21262" lon="-1.11264">
        <ele>65</ele>
        <time>2025-04-26T07:42:14Z</time>
      </trkpt>
      <trkpt lat="45.21263" lon="-1.1127">
        <ele>66</ele>
        <time>2025-04-26T07:42:15Z</time>
      </trkpt>
      <trkpt lat="45.21264" lon="-1.11277">
        <ele>66</ele>
        <time>2025-04-26T07:42:16Z</time>
      </trkpt>
      <trkpt lat="45.21266" lon="-1.11283">
        <ele>66</ele>
        <time>2025-04-26T07:42:17Z</time>
      </trkpt>
      <trkpt lat="45.21267" lon="-1.11289">
        <ele>67</ele>
        <time>2025-04-26T07:42:18Z</time>
      </trkpt>
      <trkpt lat="45.21267" lon="-1.11295">
        <ele>67</ele>
        <time>2025-04-26T07:42:19Z</time>
      </trkpt>
      <trkpt lat="45.21268" lon="-1.11302">
        <ele>67</ele>
        <time>2025-04-26T07:42:20Z</time>
      </trkpt>
      <trkpt lat="45.21269" lon="-1.11308">
        <ele>67</ele>
        <time>2025-04-26T07:42:21Z</time>
      </trkpt>
      <trkpt lat="45.2127" lon="-1.11314">
        <ele>67</ele>
        <time>2025-04-26T07:42:22Z</time>
      </trkpt>
      <trkpt lat="45.21271" lon="-1.1132">
        <ele>66</ele>
        <time>2025-04-26T07:42:23Z</time>
      </trkpt>
      <trkpt lat="45.21272" lon="-1.11326">
        <ele>66</ele>
        <time>2025-04-26T07:42:24Z</time>
      </trkpt>
      <trkpt lat="45.21273" lon="-1.11332">
        <ele>66</ele>
        <time>2025-04-26T07:42:25Z</time>
      </trkpt>
      <trkpt lat="45.21273" lon="-1.11338">
        <ele>66</ele>
        <time>2025-04-26T07:42:26Z</time>
      </trkpt>
      <trkpt lat="45.21274" lon="-1.11344">
        <ele>65</ele>
        <time>2025-04-26T07:42:27Z</time>
      </trkpt>
      <trkpt lat="45.21275" lon="-1.1135">
        <ele>65</ele>
        <time>2025-04-26T07:42:28Z</time>
      </trkpt>
      <trkpt lat="45.21276" lon="-1.11357">
        <ele>65</ele>
        <time>2025-04-26T07:42:29Z</time>
      </trkpt>
      <trkpt lat="45.21277" lon="-1.11363">
        <ele>65</ele>
        <time>2025-04-26T07:42:30Z</time>
      </trkpt>
      <trkpt lat="45.21278" lon="-1.11369">
        <ele>65</ele>
        <time>2025-04-26T07:42:31Z</time>
      </trkpt>
      <trkpt lat="45.21279" lon="-1.11376">
        <ele>65</ele>
        <time>2025-04-26T07:42:32Z</time>
      </trkpt>
      <trkpt lat="45.2128" lon="-1.11382">
        <ele>65</ele>
        <time>2025-04-26T07:42:33Z</time>
      </trkpt>
      <trkpt lat="45.2128" lon="-1.11388">
        <ele>65</ele>
        <time>2025-04-26T07:42:34Z</time>
      </trkpt>
      <trkpt lat="45.21281" lon="-1.11394">
        <ele>65</ele>
        <time>2025-04-26T07:42:35Z</time>
      </trkpt>
      <trkpt lat="45.21283" lon="-1.11401">
        <ele>65</ele>
        <time>2025-04-26T07:42:36Z</time>
      </trkpt>
      <trkpt lat="45.21284" lon="-1.11407">
        <ele>65</ele>
        <time>2025-04-26T07:42:37Z</time>
      </trkpt>
      <trkpt lat="45.21284" lon="-1.11414">
        <ele>65</ele>
        <time>2025-04-26T07:42:38Z</time>
      </trkpt>
      <trkpt lat="45.21285" lon="-1.1142">
        <ele>65</ele>
        <time>2025-04-26T07:42:39Z</time>
      </trkpt>
      <trkpt lat="45.21286" lon="-1.11427">
        <ele>65</ele>
        <time>2025-04-26T07:42:40Z</time>
      </trkpt>
      <trkpt lat="45.21287" lon="-1.11433">
        <ele>65</ele>
        <time>2025-04-26T07:42:41Z</time>
      </trkpt>
      <trkpt lat="45.21288" lon="-1.11439">
        <ele>65</ele>
        <time>2025-04-26T07:42:42Z</time>
      </trkpt>
      <trkpt lat="45.21289" lon="-1.11445">
        <ele>65</ele>
        <time>2025-04-26T07:42:43Z</time>
      </trkpt>
      <trkpt lat="45.2129" lon="-1.11451">
        <ele>65</ele>
        <time>2025-04-26T07:42:44Z</time>
      </trkpt>
      <trkpt lat="45.2129" lon="-1.11458">
        <ele>65</ele>
        <time>2025-04-26T07:42:45Z</time>
      </trkpt>
      <trkpt lat="45.21291" lon="-1.11464">
        <ele>65</ele>
        <time>2025-04-26T07:42:46Z</time>
      </trkpt>
      <trkpt lat="45.21292" lon="-1.1147">
        <ele>66</ele>
        <time>2025-04-26T07:42:47Z</time>
      </trkpt>
      <trkpt lat="45.21293" lon="-1.11476">
        <ele>66</ele>
        <time>2025-04-26T07:42:48Z</time>
      </trkpt>
      <trkpt lat="45.21294" lon="-1.11482">
        <ele>66</ele>
        <time>2025-04-26T07:42:49Z</time>
      </trkpt>
      <trkpt lat="45.21295" lon="-1.11488">
        <ele>66</ele>
        <time>2025-04-26T07:42:50Z</time>
      </trkpt>
      <trkpt lat="45.21296" lon="-1.11494">
        <ele>66</ele>
        <time>2025-04-26T07:42:51Z</time>
      </trkpt>
      <trkpt lat="45.21296" lon="-1.11501">
        <ele>66</ele>
        <time>2025-04-26T07:42:52Z</time>
      </trkpt>
      <trkpt lat="45.21297" lon="-1.11506">
        <ele>66</ele>
        <time>2025-04-26T07:42:53Z</time>
      </trkpt>
      <trkpt lat="45.21298" lon="-1.11512">
        <ele>66</ele>
        <time>2025-04-26T07:42:54Z</time>
      </trkpt>
      <trkpt lat="45.21299" lon="-1.11519">
        <ele>66</ele>
        <time>2025-04-26T07:42:55Z</time>
      </trkpt>
      <trkpt lat="45.213" lon="-1.11525">
        <ele>66</ele>
        <time>2025-04-26T07:42:56Z</time>
      </trkpt>
      <trkpt lat="45.213" lon="-1.11531">
        <ele>66</ele>
        <time>2025-04-26T07:42:57Z</time>
      </trkpt>
      <trkpt lat="45.21301" lon="-1.11537">
        <ele>66</ele>
        <time>2025-04-26T07:42:58Z</time>
      </trkpt>
      <trkpt lat="45.21302" lon="-1.11543">
        <ele>67</ele>
        <time>2025-04-26T07:42:59Z</time>
      </trkpt>
      <trkpt lat="45.21303" lon="-1.11549">
        <ele>67</ele>
        <time>2025-04-26T07:43:00Z</time>
      </trkpt>
      <trkpt lat="45.21304" lon="-1.11556">
        <ele>67</ele>
        <time>2025-04-26T07:43:01Z</time>
      </trkpt>
      <trkpt lat="45.21305" lon="-1.11562">
        <ele>67</ele>
        <time>2025-04-26T07:43:02Z</time>
      </trkpt>
      <trkpt lat="45.21306" lon="-1.11568">
        <ele>67</ele>
        <time>2025-04-26T07:43:03Z</time>
      </trkpt>
      <trkpt lat="45.21307" lon="-1.11574">
        <ele>67</ele>
        <time>2025-04-26T07:43:04Z</time>
      </trkpt>
      <trkpt lat="45.21308" lon="-1.1158">
        <ele>67</ele>
        <time>2025-04-26T07:43:05Z</time>
      </trkpt>
      <trkpt lat="45.21309" lon="-1.11587">
        <ele>67</ele>
        <time>2025-04-26T07:43:06Z</time>
      </trkpt>
      <trkpt lat="45.2131" lon="-1.11593">
        <ele>67</ele>
        <time>2025-04-26T07:43:07Z</time>
      </trkpt>
      <trkpt lat="45.2131" lon="-1.116">
        <ele>67</ele>
        <time>2025-04-26T07:43:08Z</time>
      </trkpt>
      <trkpt lat="45.21312" lon="-1.11607">
        <ele>67</ele>
        <time>2025-04-26T07:43:09Z</time>
      </trkpt>
      <trkpt lat="45.21313" lon="-1.11613">
        <ele>67</ele>
        <time>2025-04-26T07:43:10Z</time>
      </trkpt>
      <trkpt lat="45.21313" lon="-1.1162">
        <ele>67</ele>
        <time>2025-04-26T07:43:11Z</time>
      </trkpt>
      <trkpt lat="45.21314" lon="-1.11627">
        <ele>67</ele>
        <time>2025-04-26T07:43:12Z</time>
      </trkpt>
      <trkpt lat="45.21315" lon="-1.11633">
        <ele>67</ele>
        <time>2025-04-26T07:43:13Z</time>
      </trkpt>
      <trkpt lat="45.21316" lon="-1.1164">
        <ele>67</ele>
        <time>2025-04-26T07:43:14Z</time>
      </trkpt>
      <trkpt lat="45.21317" lon="-1.11646">
        <ele>67</ele>
        <time>2025-04-26T07:43:15Z</time>
      </trkpt>
      <trkpt lat="45.21318" lon="-1.11652">
        <ele>67</ele>
        <time>2025-04-26T07:43:16Z</time>
      </trkpt>
      <trkpt lat="45.21319" lon="-1.11659">
        <ele>67</ele>
        <time>2025-04-26T07:43:17Z</time>
      </trkpt>
      <trkpt lat="45.2132" lon="-1.11665">
        <ele>67</ele>
        <time>2025-04-26T07:43:18Z</time>
      </trkpt>
      <trkpt lat="45.2132" lon="-1.11672">
        <ele>67</ele>
        <time>2025-04-26T07:43:19Z</time>
      </trkpt>
      <trkpt lat="45.21321" lon="-1.11678">
        <ele>67</ele>
        <time>2025-04-26T07:43:20Z</time>
      </trkpt>
      <trkpt lat="45.21322" lon="-1.11685">
        <ele>67</ele>
        <time>2025-04-26T07:43:21Z</time>
      </trkpt>
      <trkpt lat="45.21323" lon="-1.11691">
        <ele>67</ele>
        <time>2025-04-26T07:43:22Z</time>
      </trkpt>
      <trkpt lat="45.21324" lon="-1.11697">
        <ele>67</ele>
        <time>2025-04-26T07:43:23Z</time>
      </trkpt>
      <trkpt lat="45.21325" lon="-1.11703">
        <ele>67</ele>
        <time>2025-04-26T07:43:24Z</time>
      </trkpt>
      <trkpt lat="45.21326" lon="-1.1171">
        <ele>67</ele>
        <time>2025-04-26T07:43:25Z</time>
      </trkpt>
      <trkpt lat="45.21327" lon="-1.11716">
        <ele>66</ele>
        <time>2025-04-26T07:43:26Z</time>
      </trkpt>
      <trkpt lat="45.21327" lon="-1.11722">
        <ele>67</ele>
        <time>2025-04-26T07:43:27Z</time>
      </trkpt>
      <trkpt lat="45.21328" lon="-1.11728">
        <ele>66</ele>
        <time>2025-04-26T07:43:28Z</time>
      </trkpt>
      <trkpt lat="45.21329" lon="-1.11734">
        <ele>66</ele>
        <time>2025-04-26T07:43:29Z</time>
      </trkpt>
      <trkpt lat="45.2133" lon="-1.1174">
        <ele>66</ele>
        <time>2025-04-26T07:43:30Z</time>
      </trkpt>
      <trkpt lat="45.21332" lon="-1.11746">
        <ele>66</ele>
        <time>2025-04-26T07:43:31Z</time>
      </trkpt>
      <trkpt lat="45.21333" lon="-1.11753">
        <ele>66</ele>
        <time>2025-04-26T07:43:32Z</time>
      </trkpt>
      <trkpt lat="45.21333" lon="-1.11759">
        <ele>66</ele>
        <time>2025-04-26T07:43:33Z</time>
      </trkpt>
      <trkpt lat="45.21334" lon="-1.11765">
        <ele>66</ele>
        <time>2025-04-26T07:43:34Z</time>
      </trkpt>
      <trkpt lat="45.21335" lon="-1.11771">
        <ele>66</ele>
        <time>2025-04-26T07:43:35Z</time>
      </trkpt>
      <trkpt lat="45.21336" lon="-1.11777">
        <ele>66</ele>
        <time>2025-04-26T07:43:36Z</time>
      </trkpt>
      <trkpt lat="45.21336" lon="-1.11784">
        <ele>66</ele>
        <time>2025-04-26T07:43:37Z</time>
      </trkpt>
      <trkpt lat="45.21337" lon="-1.1179">
        <ele>66</ele>
        <time>2025-04-26T07:43:38Z</time>
      </trkpt>
      <trkpt lat="45.21339" lon="-1.11797">
        <ele>66</ele>
        <time>2025-04-26T07:43:39Z</time>
      </trkpt>
      <trkpt lat="45.21339" lon="-1.11803">
        <ele>66</ele>
        <time>2025-04-26T07:43:40Z</time>
      </trkpt>
      <trkpt lat="45.2134" lon="-1.11809">
        <ele>66</ele>
        <time>2025-04-26T07:43:41Z</time>
      </trkpt>
      <trkpt lat="45.21341" lon="-1.11816">
        <ele>66</ele>
        <time>2025-04-26T07:43:42Z</time>
      </trkpt>
      <trkpt lat="45.21342" lon="-1.11822">
        <ele>67</ele>
        <time>2025-04-26T07:43:43Z</time>
      </trkpt>
      <trkpt lat="45.21343" lon="-1.11829">
        <ele>67</ele>
        <time>2025-04-26T07:43:44Z</time>
      </trkpt>
      <trkpt lat="45.21343" lon="-1.11835">
        <ele>67</ele>
        <time>2025-04-26T07:43:45Z</time>
      </trkpt>
      <trkpt lat="45.21344" lon="-1.11842">
        <ele>67</ele>
        <time>2025-04-26T07:43:46Z</time>
      </trkpt>
      <trkpt lat="45.21345" lon="-1.11848">
        <ele>67</ele>
        <time>2025-04-26T07:43:47Z</time>
      </trkpt>
      <trkpt lat="45.21346" lon="-1.11854">
        <ele>67</ele>
        <time>2025-04-26T07:43:48Z</time>
      </trkpt>
      <trkpt lat="45.21347" lon="-1.1186">
        <ele>67</ele>
        <time>2025-04-26T07:43:49Z</time>
      </trkpt>
      <trkpt lat="45.21348" lon="-1.11866">
        <ele>66</ele>
        <time>2025-04-26T07:43:50Z</time>
      </trkpt>
      <trkpt lat="45.21349" lon="-1.11872">
        <ele>66</ele>
        <time>2025-04-26T07:43:51Z</time>
      </trkpt>
      <trkpt lat="45.2135" lon="-1.11878">
        <ele>66</ele>
        <time>2025-04-26T07:43:52Z</time>
      </trkpt>
      <trkpt lat="45.21351" lon="-1.11885">
        <ele>66</ele>
        <time>2025-04-26T07:43:53Z</time>
      </trkpt>
      <trkpt lat="45.21353" lon="-1.11891">
        <ele>66</ele>
        <time>2025-04-26T07:43:54Z</time>
      </trkpt>
      <trkpt lat="45.21354" lon="-1.11897">
        <ele>66</ele>
        <time>2025-04-26T07:43:55Z</time>
      </trkpt>
      <trkpt lat="45.21355" lon="-1.11903">
        <ele>66</ele>
        <time>2025-04-26T07:43:56Z</time>
      </trkpt>
      <trkpt lat="45.21356" lon="-1.1191">
        <ele>67</ele>
        <time>2025-04-26T07:43:57Z</time>
      </trkpt>
      <trkpt lat="45.21358" lon="-1.11916">
        <ele>67</ele>
        <time>2025-04-26T07:43:58Z</time>
      </trkpt>
      <trkpt lat="45.21359" lon="-1.11922">
        <ele>66</ele>
        <time>2025-04-26T07:43:59Z</time>
      </trkpt>
      <trkpt lat="45.2136" lon="-1.11928">
        <ele>66</ele>
        <time>2025-04-26T07:44:00Z</time>
      </trkpt>
      <trkpt lat="45.21361" lon="-1.11935">
        <ele>66</ele>
        <time>2025-04-26T07:44:01Z</time>
      </trkpt>
      <trkpt lat="45.21362" lon="-1.11941">
        <ele>66</ele>
        <time>2025-04-26T07:44:02Z</time>
      </trkpt>
      <trkpt lat="45.21362" lon="-1.11947">
        <ele>66</ele>
        <time>2025-04-26T07:44:03Z</time>
      </trkpt>
      <trkpt lat="45.21363" lon="-1.11954">
        <ele>67</ele>
        <time>2025-04-26T07:44:04Z</time>
      </trkpt>
      <trkpt lat="45.21364" lon="-1.1196">
        <ele>67</ele>
        <time>2025-04-26T07:44:05Z</time>
      </trkpt>
      <trkpt lat="45.21365" lon="-1.11967">
        <ele>67</ele>
        <time>2025-04-26T07:44:06Z</time>
      </trkpt>
      <trkpt lat="45.21366" lon="-1.11973">
        <ele>67</ele>
        <time>2025-04-26T07:44:07Z</time>
      </trkpt>
      <trkpt lat="45.21367" lon="-1.11979">
        <ele>67</ele>
        <time>2025-04-26T07:44:08Z</time>
      </trkpt>
      <trkpt lat="45.21368" lon="-1.11985">
        <ele>67</ele>
        <time>2025-04-26T07:44:09Z</time>
      </trkpt>
      <trkpt lat="45.21369" lon="-1.11991">
        <ele>67</ele>
        <time>2025-04-26T07:44:10Z</time>
      </trkpt>
      <trkpt lat="45.2137" lon="-1.11998">
        <ele>67</ele>
        <time>2025-04-26T07:44:11Z</time>
      </trkpt>
      <trkpt lat="45.21371" lon="-1.12004">
        <ele>67</ele>
        <time>2025-04-26T07:44:12Z</time>
      </trkpt>
      <trkpt lat="45.21372" lon="-1.12011">
        <ele>67</ele>
        <time>2025-04-26T07:44:13Z</time>
      </trkpt>
      <trkpt lat="45.21373" lon="-1.12017">
        <ele>68</ele>
        <time>2025-04-26T07:44:14Z</time>
      </trkpt>
      <trkpt lat="45.21374" lon="-1.12024">
        <ele>68</ele>
        <time>2025-04-26T07:44:15Z</time>
      </trkpt>
      <trkpt lat="45.21375" lon="-1.1203">
        <ele>68</ele>
        <time>2025-04-26T07:44:16Z</time>
      </trkpt>
      <trkpt lat="45.21376" lon="-1.12036">
        <ele>68</ele>
        <time>2025-04-26T07:44:17Z</time>
      </trkpt>
      <trkpt lat="45.21377" lon="-1.12042">
        <ele>68</ele>
        <time>2025-04-26T07:44:18Z</time>
      </trkpt>
      <trkpt lat="45.21378" lon="-1.12048">
        <ele>68</ele>
        <time>2025-04-26T07:44:19Z</time>
      </trkpt>
      <trkpt lat="45.21379" lon="-1.12054">
        <ele>68</ele>
        <time>2025-04-26T07:44:20Z</time>
      </trkpt>
      <trkpt lat="45.21379" lon="-1.12061">
        <ele>68</ele>
        <time>2025-04-26T07:44:21Z</time>
      </trkpt>
      <trkpt lat="45.2138" lon="-1.12067">
        <ele>68</ele>
        <time>2025-04-26T07:44:22Z</time>
      </trkpt>
      <trkpt lat="45.21381" lon="-1.12073">
        <ele>68</ele>
        <time>2025-04-26T07:44:23Z</time>
      </trkpt>
      <trkpt lat="45.21382" lon="-1.1208">
        <ele>68</ele>
        <time>2025-04-26T07:44:24Z</time>
      </trkpt>
      <trkpt lat="45.21382" lon="-1.12086">
        <ele>68</ele>
        <time>2025-04-26T07:44:25Z</time>
      </trkpt>
      <trkpt lat="45.21383" lon="-1.12092">
        <ele>68</ele>
        <time>2025-04-26T07:44:26Z</time>
      </trkpt>
      <trkpt lat="45.21384" lon="-1.12098">
        <ele>68</ele>
        <time>2025-04-26T07:44:27Z</time>
      </trkpt>
      <trkpt lat="45.21384" lon="-1.12105">
        <ele>68</ele>
        <time>2025-04-26T07:44:28Z</time>
      </trkpt>
      <trkpt lat="45.21385" lon="-1.12111">
        <ele>67</ele>
        <time>2025-04-26T07:44:29Z</time>
      </trkpt>
      <trkpt lat="45.21385" lon="-1.12117">
        <ele>67</ele>
        <time>2025-04-26T07:44:30Z</time>
      </trkpt>
      <trkpt lat="45.21386" lon="-1.12124">
        <ele>67</ele>
        <time>2025-04-26T07:44:31Z</time>
      </trkpt>
      <trkpt lat="45.21386" lon="-1.1213">
        <ele>67</ele>
        <time>2025-04-26T07:44:32Z</time>
      </trkpt>
      <trkpt lat="45.21387" lon="-1.12137">
        <ele>66</ele>
        <time>2025-04-26T07:44:33Z</time>
      </trkpt>
      <trkpt lat="45.21387" lon="-1.12143">
        <ele>66</ele>
        <time>2025-04-26T07:44:34Z</time>
      </trkpt>
      <trkpt lat="45.21388" lon="-1.12149">
        <ele>66</ele>
        <time>2025-04-26T07:44:35Z</time>
      </trkpt>
      <trkpt lat="45.21389" lon="-1.12155">
        <ele>66</ele>
        <time>2025-04-26T07:44:36Z</time>
      </trkpt>
      <trkpt lat="45.2139" lon="-1.12161">
        <ele>66</ele>
        <time>2025-04-26T07:44:37Z</time>
      </trkpt>
      <trkpt lat="45.21392" lon="-1.12167">
        <ele>66</ele>
        <time>2025-04-26T07:44:38Z</time>
      </trkpt>
      <trkpt lat="45.21393" lon="-1.12172">
        <ele>66</ele>
        <time>2025-04-26T07:44:39Z</time>
      </trkpt>
      <trkpt lat="45.21395" lon="-1.12178">
        <ele>66</ele>
        <time>2025-04-26T07:44:40Z</time>
      </trkpt>
      <trkpt lat="45.21396" lon="-1.12184">
        <ele>66</ele>
        <time>2025-04-26T07:44:41Z</time>
      </trkpt>
      <trkpt lat="45.21397" lon="-1.1219">
        <ele>67</ele>
        <time>2025-04-26T07:44:42Z</time>
      </trkpt>
      <trkpt lat="45.21397" lon="-1.12196">
        <ele>67</ele>
        <time>2025-04-26T07:44:43Z</time>
      </trkpt>
      <trkpt lat="45.21398" lon="-1.12203">
        <ele>67</ele>
        <time>2025-04-26T07:44:44Z</time>
      </trkpt>
      <trkpt lat="45.21399" lon="-1.12209">
        <ele>67</ele>
        <time>2025-04-26T07:44:45Z</time>
      </trkpt>
      <trkpt lat="45.21399" lon="-1.12215">
        <ele>67</ele>
        <time>2025-04-26T07:44:46Z</time>
      </trkpt>
      <trkpt lat="45.214" lon="-1.1222">
        <ele>67</ele>
        <time>2025-04-26T07:44:47Z</time>
      </trkpt>
      <trkpt lat="45.21401" lon="-1.12226">
        <ele>67</ele>
        <time>2025-04-26T07:44:48Z</time>
      </trkpt>
      <trkpt lat="45.21401" lon="-1.12232">
        <ele>66</ele>
        <time>2025-04-26T07:44:49Z</time>
      </trkpt>
      <trkpt lat="45.21402" lon="-1.12238">
        <ele>66</ele>
        <time>2025-04-26T07:44:50Z</time>
      </trkpt>
      <trkpt lat="45.21402" lon="-1.12244">
        <ele>65</ele>
        <time>2025-04-26T07:44:51Z</time>
      </trkpt>
      <trkpt lat="45.21403" lon="-1.1225">
        <ele>65</ele>
        <time>2025-04-26T07:44:52Z</time>
      </trkpt>
      <trkpt lat="45.21404" lon="-1.12256">
        <ele>65</ele>
        <time>2025-04-26T07:44:53Z</time>
      </trkpt>
      <trkpt lat="45.21405" lon="-1.12262">
        <ele>65</ele>
        <time>2025-04-26T07:44:54Z</time>
      </trkpt>
      <trkpt lat="45.21406" lon="-1.12268">
        <ele>65</ele>
        <time>2025-04-26T07:44:55Z</time>
      </trkpt>
      <trkpt lat="45.21408" lon="-1.12274">
        <ele>65</ele>
        <time>2025-04-26T07:44:56Z</time>
      </trkpt>
      <trkpt lat="45.21408" lon="-1.1228">
        <ele>65</ele>
        <time>2025-04-26T07:44:57Z</time>
      </trkpt>
      <trkpt lat="45.21409" lon="-1.12286">
        <ele>66</ele>
        <time>2025-04-26T07:44:58Z</time>
      </trkpt>
      <trkpt lat="45.2141" lon="-1.12292">
        <ele>66</ele>
        <time>2025-04-26T07:44:59Z</time>
      </trkpt>
      <trkpt lat="45.21412" lon="-1.12298">
        <ele>67</ele>
        <time>2025-04-26T07:45:00Z</time>
      </trkpt>
      <trkpt lat="45.21412" lon="-1.12304">
        <ele>67</ele>
        <time>2025-04-26T07:45:01Z</time>
      </trkpt>
      <trkpt lat="45.21413" lon="-1.1231">
        <ele>67</ele>
        <time>2025-04-26T07:45:02Z</time>
      </trkpt>
      <trkpt lat="45.21414" lon="-1.12316">
        <ele>67</ele>
        <time>2025-04-26T07:45:03Z</time>
      </trkpt>
      <trkpt lat="45.21415" lon="-1.12323">
        <ele>67</ele>
        <time>2025-04-26T07:45:04Z</time>
      </trkpt>
      <trkpt lat="45.21416" lon="-1.12329">
        <ele>67</ele>
        <time>2025-04-26T07:45:05Z</time>
      </trkpt>
      <trkpt lat="45.21416" lon="-1.12335">
        <ele>67</ele>
        <time>2025-04-26T07:45:06Z</time>
      </trkpt>
      <trkpt lat="45.21417" lon="-1.12341">
        <ele>67</ele>
        <time>2025-04-26T07:45:07Z</time>
      </trkpt>
      <trkpt lat="45.21418" lon="-1.12347">
        <ele>67</ele>
        <time>2025-04-26T07:45:08Z</time>
      </trkpt>
      <trkpt lat="45.21419" lon="-1.12352">
        <ele>67</ele>
        <time>2025-04-26T07:45:09Z</time>
      </trkpt>
      <trkpt lat="45.2142" lon="-1.12358">
        <ele>67</ele>
        <time>2025-04-26T07:45:10Z</time>
      </trkpt>
      <trkpt lat="45.21421" lon="-1.12364">
        <ele>67</ele>
        <time>2025-04-26T07:45:11Z</time>
      </trkpt>
      <trkpt lat="45.21422" lon="-1.1237">
        <ele>67</ele>
        <time>2025-04-26T07:45:12Z</time>
      </trkpt>
      <trkpt lat="45.21423" lon="-1.12376">
        <ele>67</ele>
        <time>2025-04-26T07:45:13Z</time>
      </trkpt>
      <trkpt lat="45.21424" lon="-1.12382">
        <ele>67</ele>
        <time>2025-04-26T07:45:14Z</time>
      </trkpt>
      <trkpt lat="45.21424" lon="-1.12388">
        <ele>67</ele>
        <time>2025-04-26T07:45:15Z</time>
      </trkpt>
      <trkpt lat="45.21425" lon="-1.12394">
        <ele>67</ele>
        <time>2025-04-26T07:45:16Z</time>
      </trkpt>
      <trkpt lat="45.21426" lon="-1.124">
        <ele>67</ele>
        <time>2025-04-26T07:45:17Z</time>
      </trkpt>
      <trkpt lat="45.21427" lon="-1.12406">
        <ele>67</ele>
        <time>2025-04-26T07:45:18Z</time>
      </trkpt>
      <trkpt lat="45.21427" lon="-1.12412">
        <ele>67</ele>
        <time>2025-04-26T07:45:19Z</time>
      </trkpt>
      <trkpt lat="45.21428" lon="-1.12419">
        <ele>67</ele>
        <time>2025-04-26T07:45:20Z</time>
      </trkpt>
      <trkpt lat="45.21429" lon="-1.12425">
        <ele>67</ele>
        <time>2025-04-26T07:45:21Z</time>
      </trkpt>
      <trkpt lat="45.2143" lon="-1.1243">
        <ele>67</ele>
        <time>2025-04-26T07:45:22Z</time>
      </trkpt>
      <trkpt lat="45.21431" lon="-1.12437">
        <ele>67</ele>
        <time>2025-04-26T07:45:23Z</time>
      </trkpt>
      <trkpt lat="45.21432" lon="-1.12443">
        <ele>67</ele>
        <time>2025-04-26T07:45:24Z</time>
      </trkpt>
      <trkpt lat="45.21432" lon="-1.12449">
        <ele>67</ele>
        <time>2025-04-26T07:45:25Z</time>
      </trkpt>
      <trkpt lat="45.21433" lon="-1.12455">
        <ele>67</ele>
        <time>2025-04-26T07:45:26Z</time>
      </trkpt>
      <trkpt lat="45.21434" lon="-1.12461">
        <ele>67</ele>
        <time>2025-04-26T07:45:27Z</time>
      </trkpt>
      <trkpt lat="45.21435" lon="-1.12467">
        <ele>67</ele>
        <time>2025-04-26T07:45:28Z</time>
      </trkpt>
      <trkpt lat="45.21436" lon="-1.12473">
        <ele>67</ele>
        <time>2025-04-26T07:45:29Z</time>
      </trkpt>
      <trkpt lat="45.21437" lon="-1.12479">
        <ele>67</ele>
        <time>2025-04-26T07:45:30Z</time>
      </trkpt>
      <trkpt lat="45.21438" lon="-1.12485">
        <ele>67</ele>
        <time>2025-04-26T07:45:31Z</time>
      </trkpt>
      <trkpt lat="45.21439" lon="-1.12491">
        <ele>66</ele>
        <time>2025-04-26T07:45:32Z</time>
      </trkpt>
      <trkpt lat="45.2144" lon="-1.12497">
        <ele>66</ele>
        <time>2025-04-26T07:45:33Z</time>
      </trkpt>
      <trkpt lat="45.21441" lon="-1.12502">
        <ele>66</ele>
        <time>2025-04-26T07:45:34Z</time>
      </trkpt>
      <trkpt lat="45.21442" lon="-1.12508">
        <ele>66</ele>
        <time>2025-04-26T07:45:35Z</time>
      </trkpt>
      <trkpt lat="45.21443" lon="-1.12514">
        <ele>66</ele>
        <time>2025-04-26T07:45:36Z</time>
      </trkpt>
      <trkpt lat="45.21444" lon="-1.1252">
        <ele>66</ele>
        <time>2025-04-26T07:45:37Z</time>
      </trkpt>
      <trkpt lat="45.21445" lon="-1.12526">
        <ele>66</ele>
        <time>2025-04-26T07:45:38Z</time>
      </trkpt>
      <trkpt lat="45.21446" lon="-1.12532">
        <ele>66</ele>
        <time>2025-04-26T07:45:39Z</time>
      </trkpt>
      <trkpt lat="45.21447" lon="-1.12538">
        <ele>67</ele>
        <time>2025-04-26T07:45:40Z</time>
      </trkpt>
      <trkpt lat="45.21448" lon="-1.12545">
        <ele>66</ele>
        <time>2025-04-26T07:45:41Z</time>
      </trkpt>
      <trkpt lat="45.21449" lon="-1.12551">
        <ele>67</ele>
        <time>2025-04-26T07:45:42Z</time>
      </trkpt>
      <trkpt lat="45.2145" lon="-1.12557">
        <ele>67</ele>
        <time>2025-04-26T07:45:43Z</time>
      </trkpt>
      <trkpt lat="45.21451" lon="-1.12563">
        <ele>67</ele>
        <time>2025-04-26T07:45:44Z</time>
      </trkpt>
      <trkpt lat="45.21452" lon="-1.12569">
        <ele>67</ele>
        <time>2025-04-26T07:45:45Z</time>
      </trkpt>
      <trkpt lat="45.21453" lon="-1.12576">
        <ele>67</ele>
        <time>2025-04-26T07:45:46Z</time>
      </trkpt>
      <trkpt lat="45.21454" lon="-1.12582">
        <ele>67</ele>
        <time>2025-04-26T07:45:47Z</time>
      </trkpt>
      <trkpt lat="45.21455" lon="-1.12588">
        <ele>67</ele>
        <time>2025-04-26T07:45:48Z</time>
      </trkpt>
      <trkpt lat="45.21456" lon="-1.12594">
        <ele>67</ele>
        <time>2025-04-26T07:45:49Z</time>
      </trkpt>
      <trkpt lat="45.21456" lon="-1.126">
        <ele>67</ele>
        <time>2025-04-26T07:45:50Z</time>
      </trkpt>
      <trkpt lat="45.21457" lon="-1.12606">
        <ele>66</ele>
        <time>2025-04-26T07:45:51Z</time>
      </trkpt>
      <trkpt lat="45.21458" lon="-1.12613">
        <ele>66</ele>
        <time>2025-04-26T07:45:52Z</time>
      </trkpt>
      <trkpt lat="45.21459" lon="-1.12619">
        <ele>66</ele>
        <time>2025-04-26T07:45:53Z</time>
      </trkpt>
      <trkpt lat="45.2146" lon="-1.12626">
        <ele>66</ele>
        <time>2025-04-26T07:45:54Z</time>
      </trkpt>
      <trkpt lat="45.21461" lon="-1.12632">
        <ele>66</ele>
        <time>2025-04-26T07:45:55Z</time>
      </trkpt>
      <trkpt lat="45.21463" lon="-1.12638">
        <ele>67</ele>
        <time>2025-04-26T07:45:56Z</time>
      </trkpt>
      <trkpt lat="45.21464" lon="-1.12644">
        <ele>67</ele>
        <time>2025-04-26T07:45:57Z</time>
      </trkpt>
      <trkpt lat="45.21465" lon="-1.12651">
        <ele>67</ele>
        <time>2025-04-26T07:45:58Z</time>
      </trkpt>
      <trkpt lat="45.21465" lon="-1.12657">
        <ele>67</ele>
        <time>2025-04-26T07:45:59Z</time>
      </trkpt>
      <trkpt lat="45.21465" lon="-1.12663">
        <ele>67</ele>
        <time>2025-04-26T07:46:00Z</time>
      </trkpt>
      <trkpt lat="45.21466" lon="-1.12669">
        <ele>67</ele>
        <time>2025-04-26T07:46:01Z</time>
      </trkpt>
      <trkpt lat="45.21467" lon="-1.12674">
        <ele>67</ele>
        <time>2025-04-26T07:46:02Z</time>
      </trkpt>
      <trkpt lat="45.21468" lon="-1.1268">
        <ele>66</ele>
        <time>2025-04-26T07:46:03Z</time>
      </trkpt>
      <trkpt lat="45.21469" lon="-1.12686">
        <ele>66</ele>
        <time>2025-04-26T07:46:04Z</time>
      </trkpt>
      <trkpt lat="45.2147" lon="-1.12692">
        <ele>66</ele>
        <time>2025-04-26T07:46:05Z</time>
      </trkpt>
      <trkpt lat="45.21471" lon="-1.12697">
        <ele>66</ele>
        <time>2025-04-26T07:46:06Z</time>
      </trkpt>
      <trkpt lat="45.21472" lon="-1.12703">
        <ele>65</ele>
        <time>2025-04-26T07:46:07Z</time>
      </trkpt>
      <trkpt lat="45.21473" lon="-1.1271">
        <ele>65</ele>
        <time>2025-04-26T07:46:08Z</time>
      </trkpt>
      <trkpt lat="45.21474" lon="-1.12716">
        <ele>65</ele>
        <time>2025-04-26T07:46:09Z</time>
      </trkpt>
      <trkpt lat="45.21475" lon="-1.12722">
        <ele>65</ele>
        <time>2025-04-26T07:46:10Z</time>
      </trkpt>
      <trkpt lat="45.21476" lon="-1.12728">
        <ele>65</ele>
        <time>2025-04-26T07:46:11Z</time>
      </trkpt>
      <trkpt lat="45.21477" lon="-1.12734">
        <ele>65</ele>
        <time>2025-04-26T07:46:12Z</time>
      </trkpt>
      <trkpt lat="45.21478" lon="-1.12741">
        <ele>66</ele>
        <time>2025-04-26T07:46:13Z</time>
      </trkpt>
      <trkpt lat="45.21478" lon="-1.12747">
        <ele>66</ele>
        <time>2025-04-26T07:46:14Z</time>
      </trkpt>
      <trkpt lat="45.21479" lon="-1.12753">
        <ele>66</ele>
        <time>2025-04-26T07:46:15Z</time>
      </trkpt>
      <trkpt lat="45.2148" lon="-1.12759">
        <ele>66</ele>
        <time>2025-04-26T07:46:16Z</time>
      </trkpt>
      <trkpt lat="45.2148" lon="-1.12765">
        <ele>66</ele>
        <time>2025-04-26T07:46:17Z</time>
      </trkpt>
      <trkpt lat="45.21481" lon="-1.12771">
        <ele>67</ele>
        <time>2025-04-26T07:46:18Z</time>
      </trkpt>
      <trkpt lat="45.21482" lon="-1.12778">
        <ele>67</ele>
        <time>2025-04-26T07:46:19Z</time>
      </trkpt>
      <trkpt lat="45.21483" lon="-1.12784">
        <ele>67</ele>
        <time>2025-04-26T07:46:20Z</time>
      </trkpt>
      <trkpt lat="45.21484" lon="-1.1279">
        <ele>68</ele>
        <time>2025-04-26T07:46:21Z</time>
      </trkpt>
      <trkpt lat="45.21485" lon="-1.12797">
        <ele>68</ele>
        <time>2025-04-26T07:46:22Z</time>
      </trkpt>
      <trkpt lat="45.21486" lon="-1.12803">
        <ele>68</ele>
        <time>2025-04-26T07:46:23Z</time>
      </trkpt>
      <trkpt lat="45.21486" lon="-1.1281">
        <ele>69</ele>
        <time>2025-04-26T07:46:24Z</time>
      </trkpt>
      <trkpt lat="45.21487" lon="-1.12815">
        <ele>69</ele>
        <time>2025-04-26T07:46:25Z</time>
      </trkpt>
      <trkpt lat="45.21488" lon="-1.12822">
        <ele>69</ele>
        <time>2025-04-26T07:46:26Z</time>
      </trkpt>
      <trkpt lat="45.21489" lon="-1.12828">
        <ele>69</ele>
        <time>2025-04-26T07:46:27Z</time>
      </trkpt>
      <trkpt lat="45.2149" lon="-1.12834">
        <ele>69</ele>
        <time>2025-04-26T07:46:28Z</time>
      </trkpt>
      <trkpt lat="45.21491" lon="-1.1284">
        <ele>69</ele>
        <time>2025-04-26T07:46:29Z</time>
      </trkpt>
      <trkpt lat="45.21492" lon="-1.12846">
        <ele>68</ele>
        <time>2025-04-26T07:46:30Z</time>
      </trkpt>
      <trkpt lat="45.21493" lon="-1.12852">
        <ele>69</ele>
        <time>2025-04-26T07:46:31Z</time>
      </trkpt>
      <trkpt lat="45.21495" lon="-1.12859">
        <ele>69</ele>
        <time>2025-04-26T07:46:32Z</time>
      </trkpt>
      <trkpt lat="45.21496" lon="-1.12865">
        <ele>69</ele>
        <time>2025-04-26T07:46:33Z</time>
      </trkpt>
      <trkpt lat="45.21497" lon="-1.12871">
        <ele>69</ele>
        <time>2025-04-26T07:46:34Z</time>
      </trkpt>
      <trkpt lat="45.21499" lon="-1.12877">
        <ele>69</ele>
        <time>2025-04-26T07:46:35Z</time>
      </trkpt>
      <trkpt lat="45.21501" lon="-1.12883">
        <ele>69</ele>
        <time>2025-04-26T07:46:36Z</time>
      </trkpt>
      <trkpt lat="45.21504" lon="-1.12888">
        <ele>70</ele>
        <time>2025-04-26T07:46:37Z</time>
      </trkpt>
      <trkpt lat="45.21507" lon="-1.12894">
        <ele>70</ele>
        <time>2025-04-26T07:46:38Z</time>
      </trkpt>
      <trkpt lat="45.2151" lon="-1.12899">
        <ele>70</ele>
        <time>2025-04-26T07:46:39Z</time>
      </trkpt>
      <trkpt lat="45.21513" lon="-1.12904">
        <ele>70</ele>
        <time>2025-04-26T07:46:40Z</time>
      </trkpt>
      <trkpt lat="45.21517" lon="-1.12909">
        <ele>69</ele>
        <time>2025-04-26T07:46:41Z</time>
      </trkpt>
      <trkpt lat="45.21521" lon="-1.12913">
        <ele>69</ele>
        <time>2025-04-26T07:46:42Z</time>
      </trkpt>
      <trkpt lat="45.21525" lon="-1.12917">
        <ele>69</ele>
        <time>2025-04-26T07:46:43Z</time>
      </trkpt>
      <trkpt lat="45.21529" lon="-1.1292">
        <ele>69</ele>
        <time>2025-04-26T07:46:44Z</time>
      </trkpt>
      <trkpt lat="45.21533" lon="-1.12923">
        <ele>69</ele>
        <time>2025-04-26T07:46:45Z</time>
      </trkpt>
      <trkpt lat="45.21537" lon="-1.12925">
        <ele>69</ele>
        <time>2025-04-26T07:46:46Z</time>
      </trkpt>
      <trkpt lat="45.21542" lon="-1.12927">
        <ele>69</ele>
        <time>2025-04-26T07:46:47Z</time>
      </trkpt>
      <trkpt lat="45.21546" lon="-1.1293">
        <ele>68</ele>
        <time>2025-04-26T07:46:48Z</time>
      </trkpt>
      <trkpt lat="45.21551" lon="-1.12931">
        <ele>68</ele>
        <time>2025-04-26T07:46:49Z</time>
      </trkpt>
      <trkpt lat="45.21555" lon="-1.12933">
        <ele>68</ele>
        <time>2025-04-26T07:46:50Z</time>
      </trkpt>
      <trkpt lat="45.2156" lon="-1.12934">
        <ele>69</ele>
        <time>2025-04-26T07:46:51Z</time>
      </trkpt>
      <trkpt lat="45.21565" lon="-1.12935">
        <ele>69</ele>
        <time>2025-04-26T07:46:52Z</time>
      </trkpt>
      <trkpt lat="45.21569" lon="-1.12937">
        <ele>69</ele>
        <time>2025-04-26T07:46:53Z</time>
      </trkpt>
      <trkpt lat="45.21573" lon="-1.12939">
        <ele>69</ele>
        <time>2025-04-26T07:46:54Z</time>
      </trkpt>
      <trkpt lat="45.21578" lon="-1.1294">
        <ele>69</ele>
        <time>2025-04-26T07:46:55Z</time>
      </trkpt>
      <trkpt lat="45.21582" lon="-1.12942">
        <ele>69</ele>
        <time>2025-04-26T07:46:56Z</time>
      </trkpt>
      <trkpt lat="45.21586" lon="-1.12943">
        <ele>70</ele>
        <time>2025-04-26T07:46:57Z</time>
      </trkpt>
      <trkpt lat="45.21591" lon="-1.12945">
        <ele>70</ele>
        <time>2025-04-26T07:46:58Z</time>
      </trkpt>
      <trkpt lat="45.21596" lon="-1.12946">
        <ele>70</ele>
        <time>2025-04-26T07:46:59Z</time>
      </trkpt>
      <trkpt lat="45.216" lon="-1.12947">
        <ele>71</ele>
        <time>2025-04-26T07:47:00Z</time>
      </trkpt>
      <trkpt lat="45.21605" lon="-1.12949">
        <ele>71</ele>
        <time>2025-04-26T07:47:01Z</time>
      </trkpt>
      <trkpt lat="45.21609" lon="-1.1295">
        <ele>72</ele>
        <time>2025-04-26T07:47:02Z</time>
      </trkpt>
      <trkpt lat="45.21614" lon="-1.12951">
        <ele>72</ele>
        <time>2025-04-26T07:47:03Z</time>
      </trkpt>
      <trkpt lat="45.21619" lon="-1.12953">
        <ele>72</ele>
        <time>2025-04-26T07:47:04Z</time>
      </trkpt>
      <trkpt lat="45.21623" lon="-1.12954">
        <ele>72</ele>
        <time>2025-04-26T07:47:05Z</time>
      </trkpt>
      <trkpt lat="45.21628" lon="-1.12956">
        <ele>72</ele>
        <time>2025-04-26T07:47:06Z</time>
      </trkpt>
      <trkpt lat="45.21632" lon="-1.12958">
        <ele>71</ele>
        <time>2025-04-26T07:47:07Z</time>
      </trkpt>
      <trkpt lat="45.21637" lon="-1.1296">
        <ele>71</ele>
        <time>2025-04-26T07:47:08Z</time>
      </trkpt>
      <trkpt lat="45.21642" lon="-1.12962">
        <ele>71</ele>
        <time>2025-04-26T07:47:09Z</time>
      </trkpt>
      <trkpt lat="45.21645" lon="-1.12964">
        <ele>72</ele>
        <time>2025-04-26T07:47:10Z</time>
      </trkpt>
      <trkpt lat="45.2165" lon="-1.12966">
        <ele>72</ele>
        <time>2025-04-26T07:47:11Z</time>
      </trkpt>
      <trkpt lat="45.21654" lon="-1.12968">
        <ele>72</ele>
        <time>2025-04-26T07:47:12Z</time>
      </trkpt>
      <trkpt lat="45.21658" lon="-1.12969">
        <ele>72</ele>
        <time>2025-04-26T07:47:13Z</time>
      </trkpt>
      <trkpt lat="45.21662" lon="-1.1297">
        <ele>72</ele>
        <time>2025-04-26T07:47:14Z</time>
      </trkpt>
      <trkpt lat="45.21667" lon="-1.12972">
        <ele>72</ele>
        <time>2025-04-26T07:47:15Z</time>
      </trkpt>
      <trkpt lat="45.21671" lon="-1.12974">
        <ele>72</ele>
        <time>2025-04-26T07:47:16Z</time>
      </trkpt>
      <trkpt lat="45.21676" lon="-1.12975">
        <ele>71</ele>
        <time>2025-04-26T07:47:17Z</time>
      </trkpt>
      <trkpt lat="45.2168" lon="-1.12977">
        <ele>71</ele>
        <time>2025-04-26T07:47:18Z</time>
      </trkpt>
      <trkpt lat="45.21685" lon="-1.12979">
        <ele>70</ele>
        <time>2025-04-26T07:47:19Z</time>
      </trkpt>
      <trkpt lat="45.21689" lon="-1.1298">
        <ele>70</ele>
        <time>2025-04-26T07:47:20Z</time>
      </trkpt>
      <trkpt lat="45.21694" lon="-1.12982">
        <ele>69</ele>
        <time>2025-04-26T07:47:21Z</time>
      </trkpt>
      <trkpt lat="45.21698" lon="-1.12984">
        <ele>69</ele>
        <time>2025-04-26T07:47:22Z</time>
      </trkpt>
      <trkpt lat="45.21702" lon="-1.12985">
        <ele>68</ele>
        <time>2025-04-26T07:47:23Z</time>
      </trkpt>
      <trkpt lat="45.21707" lon="-1.12987">
        <ele>68</ele>
        <time>2025-04-26T07:47:24Z</time>
      </trkpt>
      <trkpt lat="45.21712" lon="-1.12989">
        <ele>68</ele>
        <time>2025-04-26T07:47:25Z</time>
      </trkpt>
      <trkpt lat="45.21716" lon="-1.12991">
        <ele>68</ele>
        <time>2025-04-26T07:47:26Z</time>
      </trkpt>
      <trkpt lat="45.21721" lon="-1.12992">
        <ele>69</ele>
        <time>2025-04-26T07:47:27Z</time>
      </trkpt>
      <trkpt lat="45.21726" lon="-1.12993">
        <ele>69</ele>
        <time>2025-04-26T07:47:28Z</time>
      </trkpt>
      <trkpt lat="45.2173" lon="-1.12995">
        <ele>69</ele>
        <time>2025-04-26T07:47:29Z</time>
      </trkpt>
      <trkpt lat="45.21735" lon="-1.12996">
        <ele>69</ele>
        <time>2025-04-26T07:47:30Z</time>
      </trkpt>
      <trkpt lat="45.21739" lon="-1.12997">
        <ele>69</ele>
        <time>2025-04-26T07:47:31Z</time>
      </trkpt>
      <trkpt lat="45.21744" lon="-1.12999">
        <ele>70</ele>
        <time>2025-04-26T07:47:32Z</time>
      </trkpt>
      <trkpt lat="45.21748" lon="-1.13001">
        <ele>70</ele>
        <time>2025-04-26T07:47:33Z</time>
      </trkpt>
      <trkpt lat="45.21753" lon="-1.13002">
        <ele>70</ele>
        <time>2025-04-26T07:47:34Z</time>
      </trkpt>
      <trkpt lat="45.21757" lon="-1.13004">
        <ele>71</ele>
        <time>2025-04-26T07:47:35Z</time>
      </trkpt>
      <trkpt lat="45.21761" lon="-1.13006">
        <ele>71</ele>
        <time>2025-04-26T07:47:36Z</time>
      </trkpt>
      <trkpt lat="45.21766" lon="-1.13007">
        <ele>72</ele>
        <time>2025-04-26T07:47:37Z</time>
      </trkpt>
      <trkpt lat="45.21771" lon="-1.13008">
        <ele>73</ele>
        <time>2025-04-26T07:47:38Z</time>
      </trkpt>
      <trkpt lat="45.21776" lon="-1.13008">
        <ele>74</ele>
        <time>2025-04-26T07:47:39Z</time>
      </trkpt>
      <trkpt lat="45.2178" lon="-1.13009">
        <ele>74</ele>
        <time>2025-04-26T07:47:40Z</time>
      </trkpt>
      <trkpt lat="45.21784" lon="-1.13009">
        <ele>75</ele>
        <time>2025-04-26T07:47:41Z</time>
      </trkpt>
      <trkpt lat="45.21789" lon="-1.1301">
        <ele>75</ele>
        <time>2025-04-26T07:47:42Z</time>
      </trkpt>
      <trkpt lat="45.21793" lon="-1.13011">
        <ele>75</ele>
        <time>2025-04-26T07:47:43Z</time>
      </trkpt>
      <trkpt lat="45.21798" lon="-1.13011">
        <ele>76</ele>
        <time>2025-04-26T07:47:44Z</time>
      </trkpt>
      <trkpt lat="45.21802" lon="-1.13012">
        <ele>76</ele>
        <time>2025-04-26T07:47:45Z</time>
      </trkpt>
      <trkpt lat="45.21807" lon="-1.13012">
        <ele>77</ele>
        <time>2025-04-26T07:47:46Z</time>
      </trkpt>
      <trkpt lat="45.21812" lon="-1.13013">
        <ele>77</ele>
        <time>2025-04-26T07:47:47Z</time>
      </trkpt>
      <trkpt lat="45.21816" lon="-1.13013">
        <ele>77</ele>
        <time>2025-04-26T07:47:48Z</time>
      </trkpt>
      <trkpt lat="45.2182" lon="-1.13013">
        <ele>77</ele>
        <time>2025-04-26T07:47:49Z</time>
      </trkpt>
      <trkpt lat="45.21824" lon="-1.13013">
        <ele>77</ele>
        <time>2025-04-26T07:47:50Z</time>
      </trkpt>
      <trkpt lat="45.21828" lon="-1.13013">
        <ele>76</ele>
        <time>2025-04-26T07:47:51Z</time>
      </trkpt>
      <trkpt lat="45.21832" lon="-1.13013">
        <ele>76</ele>
        <time>2025-04-26T07:47:52Z</time>
      </trkpt>
      <trkpt lat="45.21836" lon="-1.13013">
        <ele>76</ele>
        <time>2025-04-26T07:47:53Z</time>
      </trkpt>
      <trkpt lat="45.2184" lon="-1.13012">
        <ele>75</ele>
        <time>2025-04-26T07:47:54Z</time>
      </trkpt>
      <trkpt lat="45.21844" lon="-1.13011">
        <ele>76</ele>
        <time>2025-04-26T07:47:55Z</time>
      </trkpt>
      <trkpt lat="45.21849" lon="-1.1301">
        <ele>75</ele>
        <time>2025-04-26T07:47:56Z</time>
      </trkpt>
      <trkpt lat="45.21852" lon="-1.13009">
        <ele>75</ele>
        <time>2025-04-26T07:47:57Z</time>
      </trkpt>
      <trkpt lat="45.21856" lon="-1.13008">
        <ele>75</ele>
        <time>2025-04-26T07:47:58Z</time>
      </trkpt>
      <trkpt lat="45.2186" lon="-1.13007">
        <ele>75</ele>
        <time>2025-04-26T07:47:59Z</time>
      </trkpt>
      <trkpt lat="45.21863" lon="-1.13005">
        <ele>75</ele>
        <time>2025-04-26T07:48:00Z</time>
      </trkpt>
      <trkpt lat="45.21867" lon="-1.13003">
        <ele>75</ele>
        <time>2025-04-26T07:48:01Z</time>
      </trkpt>
      <trkpt lat="45.21871" lon="-1.13001">
        <ele>74</ele>
        <time>2025-04-26T07:48:02Z</time>
      </trkpt>
      <trkpt lat="45.21875" lon="-1.12999">
        <ele>74</ele>
        <time>2025-04-26T07:48:03Z</time>
      </trkpt>
      <trkpt lat="45.21879" lon="-1.12997">
        <ele>75</ele>
        <time>2025-04-26T07:48:04Z</time>
      </trkpt>
      <trkpt lat="45.21882" lon="-1.12995">
        <ele>74</ele>
        <time>2025-04-26T07:48:05Z</time>
      </trkpt>
      <trkpt lat="45.21886" lon="-1.12993">
        <ele>74</ele>
        <time>2025-04-26T07:48:06Z</time>
      </trkpt>
      <trkpt lat="45.21889" lon="-1.12991">
        <ele>75</ele>
        <time>2025-04-26T07:48:07Z</time>
      </trkpt>
      <trkpt lat="45.21893" lon="-1.12989">
        <ele>74</ele>
        <time>2025-04-26T07:48:08Z</time>
      </trkpt>
      <trkpt lat="45.21896" lon="-1.12987">
        <ele>74</ele>
        <time>2025-04-26T07:48:09Z</time>
      </trkpt>
      <trkpt lat="45.219" lon="-1.12985">
        <ele>74</ele>
        <time>2025-04-26T07:48:10Z</time>
      </trkpt>
      <trkpt lat="45.21903" lon="-1.12983">
        <ele>74</ele>
        <time>2025-04-26T07:48:11Z</time>
      </trkpt>
      <trkpt lat="45.21907" lon="-1.12981">
        <ele>74</ele>
        <time>2025-04-26T07:48:12Z</time>
      </trkpt>
      <trkpt lat="45.21912" lon="-1.12978">
        <ele>75</ele>
        <time>2025-04-26T07:48:13Z</time>
      </trkpt>
      <trkpt lat="45.21916" lon="-1.12977">
        <ele>74</ele>
        <time>2025-04-26T07:48:14Z</time>
      </trkpt>
      <trkpt lat="45.2192" lon="-1.12975">
        <ele>74</ele>
        <time>2025-04-26T07:48:15Z</time>
      </trkpt>
      <trkpt lat="45.21923" lon="-1.12973">
        <ele>74</ele>
        <time>2025-04-26T07:48:16Z</time>
      </trkpt>
      <trkpt lat="45.21927" lon="-1.12972">
        <ele>73</ele>
        <time>2025-04-26T07:48:17Z</time>
      </trkpt>
      <trkpt lat="45.2193" lon="-1.1297">
        <ele>73</ele>
        <time>2025-04-26T07:48:18Z</time>
      </trkpt>
      <trkpt lat="45.21934" lon="-1.12969">
        <ele>73</ele>
        <time>2025-04-26T07:48:19Z</time>
      </trkpt>
      <trkpt lat="45.21938" lon="-1.12967">
        <ele>73</ele>
        <time>2025-04-26T07:48:20Z</time>
      </trkpt>
      <trkpt lat="45.21942" lon="-1.12966">
        <ele>73</ele>
        <time>2025-04-26T07:48:21Z</time>
      </trkpt>
      <trkpt lat="45.21947" lon="-1.12964">
        <ele>73</ele>
        <time>2025-04-26T07:48:22Z</time>
      </trkpt>
      <trkpt lat="45.21951" lon="-1.12963">
        <ele>74</ele>
        <time>2025-04-26T07:48:23Z</time>
      </trkpt>
      <trkpt lat="45.21955" lon="-1.12962">
        <ele>74</ele>
        <time>2025-04-26T07:48:24Z</time>
      </trkpt>
      <trkpt lat="45.21959" lon="-1.1296">
        <ele>74</ele>
        <time>2025-04-26T07:48:25Z</time>
      </trkpt>
      <trkpt lat="45.21963" lon="-1.12959">
        <ele>74</ele>
        <time>2025-04-26T07:48:26Z</time>
      </trkpt>
      <trkpt lat="45.21967" lon="-1.12958">
        <ele>74</ele>
        <time>2025-04-26T07:48:27Z</time>
      </trkpt>
      <trkpt lat="45.2197" lon="-1.12957">
        <ele>73</ele>
        <time>2025-04-26T07:48:28Z</time>
      </trkpt>
      <trkpt lat="45.21974" lon="-1.12956">
        <ele>73</ele>
        <time>2025-04-26T07:48:29Z</time>
      </trkpt>
      <trkpt lat="45.21977" lon="-1.12955">
        <ele>73</ele>
        <time>2025-04-26T07:48:30Z</time>
      </trkpt>
      <trkpt lat="45.21981" lon="-1.12954">
        <ele>73</ele>
        <time>2025-04-26T07:48:31Z</time>
      </trkpt>
      <trkpt lat="45.21985" lon="-1.12953">
        <ele>74</ele>
        <time>2025-04-26T07:48:32Z</time>
      </trkpt>
      <trkpt lat="45.21989" lon="-1.12951">
        <ele>74</ele>
        <time>2025-04-26T07:48:33Z</time>
      </trkpt>
      <trkpt lat="45.21992" lon="-1.1295">
        <ele>74</ele>
        <time>2025-04-26T07:48:34Z</time>
      </trkpt>
      <trkpt lat="45.21996" lon="-1.12949">
        <ele>75</ele>
        <time>2025-04-26T07:48:35Z</time>
      </trkpt>
      <trkpt lat="45.22" lon="-1.12948">
        <ele>75</ele>
        <time>2025-04-26T07:48:36Z</time>
      </trkpt>
      <trkpt lat="45.22004" lon="-1.12947">
        <ele>75</ele>
        <time>2025-04-26T07:48:37Z</time>
      </trkpt>
      <trkpt lat="45.22008" lon="-1.12946">
        <ele>75</ele>
        <time>2025-04-26T07:48:38Z</time>
      </trkpt>
      <trkpt lat="45.22012" lon="-1.12945">
        <ele>75</ele>
        <time>2025-04-26T07:48:39Z</time>
      </trkpt>
      <trkpt lat="45.22016" lon="-1.12943">
        <ele>76</ele>
        <time>2025-04-26T07:48:40Z</time>
      </trkpt>
      <trkpt lat="45.22019" lon="-1.12942">
        <ele>76</ele>
        <time>2025-04-26T07:48:41Z</time>
      </trkpt>
      <trkpt lat="45.22023" lon="-1.12942">
        <ele>76</ele>
        <time>2025-04-26T07:48:42Z</time>
      </trkpt>
      <trkpt lat="45.22026" lon="-1.12941">
        <ele>76</ele>
        <time>2025-04-26T07:48:43Z</time>
      </trkpt>
      <trkpt lat="45.2203" lon="-1.1294">
        <ele>76</ele>
        <time>2025-04-26T07:48:44Z</time>
      </trkpt>
      <trkpt lat="45.22033" lon="-1.12939">
        <ele>76</ele>
        <time>2025-04-26T07:48:45Z</time>
      </trkpt>
      <trkpt lat="45.22036" lon="-1.12938">
        <ele>77</ele>
        <time>2025-04-26T07:48:46Z</time>
      </trkpt>
      <trkpt lat="45.2204" lon="-1.12938">
        <ele>77</ele>
        <time>2025-04-26T07:48:47Z</time>
      </trkpt>
      <trkpt lat="45.22044" lon="-1.12937">
        <ele>77</ele>
        <time>2025-04-26T07:48:48Z</time>
      </trkpt>
      <trkpt lat="45.22047" lon="-1.12936">
        <ele>77</ele>
        <time>2025-04-26T07:48:49Z</time>
      </trkpt>
      <trkpt lat="45.22052" lon="-1.12935">
        <ele>77</ele>
        <time>2025-04-26T07:48:50Z</time>
      </trkpt>
      <trkpt lat="45.22056" lon="-1.12934">
        <ele>78</ele>
        <time>2025-04-26T07:48:51Z</time>
      </trkpt>
      <trkpt lat="45.22059" lon="-1.12934">
        <ele>78</ele>
        <time>2025-04-26T07:48:52Z</time>
      </trkpt>
      <trkpt lat="45.22063" lon="-1.12934">
        <ele>78</ele>
        <time>2025-04-26T07:48:53Z</time>
      </trkpt>
      <trkpt lat="45.22067" lon="-1.12934">
        <ele>78</ele>
        <time>2025-04-26T07:48:54Z</time>
      </trkpt>
      <trkpt lat="45.22071" lon="-1.12933">
        <ele>78</ele>
        <time>2025-04-26T07:48:55Z</time>
      </trkpt>
      <trkpt lat="45.22074" lon="-1.12934">
        <ele>79</ele>
        <time>2025-04-26T07:48:56Z</time>
      </trkpt>
      <trkpt lat="45.22078" lon="-1.12934">
        <ele>79</ele>
        <time>2025-04-26T07:48:57Z</time>
      </trkpt>
      <trkpt lat="45.22082" lon="-1.12934">
        <ele>79</ele>
        <time>2025-04-26T07:48:58Z</time>
      </trkpt>
      <trkpt lat="45.22085" lon="-1.12935">
        <ele>80</ele>
        <time>2025-04-26T07:48:59Z</time>
      </trkpt>
      <trkpt lat="45.22087" lon="-1.12936">
        <ele>80</ele>
        <time>2025-04-26T07:49:00Z</time>
      </trkpt>
      <trkpt lat="45.22091" lon="-1.12937">
        <ele>80</ele>
        <time>2025-04-26T07:49:01Z</time>
      </trkpt>
      <trkpt lat="45.22094" lon="-1.12938">
        <ele>80</ele>
        <time>2025-04-26T07:49:02Z</time>
      </trkpt>
      <trkpt lat="45.22097" lon="-1.1294">
        <ele>80</ele>
        <time>2025-04-26T07:49:03Z</time>
      </trkpt>
      <trkpt lat="45.221" lon="-1.12942">
        <ele>80</ele>
        <time>2025-04-26T07:49:04Z</time>
      </trkpt>
      <trkpt lat="45.22103" lon="-1.12943">
        <ele>80</ele>
        <time>2025-04-26T07:49:05Z</time>
      </trkpt>
      <trkpt lat="45.22106" lon="-1.12945">
        <ele>79</ele>
        <time>2025-04-26T07:49:06Z</time>
      </trkpt>
      <trkpt lat="45.2211" lon="-1.12947">
        <ele>79</ele>
        <time>2025-04-26T07:49:07Z</time>
      </trkpt>
      <trkpt lat="45.22113" lon="-1.12949">
        <ele>79</ele>
        <time>2025-04-26T07:49:08Z</time>
      </trkpt>
      <trkpt lat="45.22116" lon="-1.12951">
        <ele>79</ele>
        <time>2025-04-26T07:49:09Z</time>
      </trkpt>
      <trkpt lat="45.22119" lon="-1.12953">
        <ele>79</ele>
        <time>2025-04-26T07:49:10Z</time>
      </trkpt>
      <trkpt lat="45.22122" lon="-1.12955">
        <ele>79</ele>
        <time>2025-04-26T07:49:11Z</time>
      </trkpt>
      <trkpt lat="45.22124" lon="-1.12957">
        <ele>79</ele>
        <time>2025-04-26T07:49:12Z</time>
      </trkpt>
      <trkpt lat="45.22127" lon="-1.1296">
        <ele>80</ele>
        <time>2025-04-26T07:49:13Z</time>
      </trkpt>
      <trkpt lat="45.22129" lon="-1.12963">
        <ele>80</ele>
        <time>2025-04-26T07:49:14Z</time>
      </trkpt>
      <trkpt lat="45.22131" lon="-1.12966">
        <ele>80</ele>
        <time>2025-04-26T07:49:15Z</time>
      </trkpt>
      <trkpt lat="45.22134" lon="-1.12968">
        <ele>79</ele>
        <time>2025-04-26T07:49:16Z</time>
      </trkpt>
      <trkpt lat="45.22136" lon="-1.1297">
        <ele>80</ele>
        <time>2025-04-26T07:49:17Z</time>
      </trkpt>
      <trkpt lat="45.22139" lon="-1.12973">
        <ele>80</ele>
        <time>2025-04-26T07:49:18Z</time>
      </trkpt>
      <trkpt lat="45.22141" lon="-1.12976">
        <ele>80</ele>
        <time>2025-04-26T07:49:19Z</time>
      </trkpt>
      <trkpt lat="45.22144" lon="-1.12978">
        <ele>80</ele>
        <time>2025-04-26T07:49:20Z</time>
      </trkpt>
      <trkpt lat="45.22146" lon="-1.12981">
        <ele>80</ele>
        <time>2025-04-26T07:49:21Z</time>
      </trkpt>
      <trkpt lat="45.22149" lon="-1.12983">
        <ele>80</ele>
        <time>2025-04-26T07:49:22Z</time>
      </trkpt>
      <trkpt lat="45.22152" lon="-1.12985">
        <ele>79</ele>
        <time>2025-04-26T07:49:23Z</time>
      </trkpt>
      <trkpt lat="45.22155" lon="-1.12988">
        <ele>79</ele>
        <time>2025-04-26T07:49:24Z</time>
      </trkpt>
      <trkpt lat="45.22157" lon="-1.1299">
        <ele>79</ele>
        <time>2025-04-26T07:49:25Z</time>
      </trkpt>
      <trkpt lat="45.2216" lon="-1.12992">
        <ele>79</ele>
        <time>2025-04-26T07:49:26Z</time>
      </trkpt>
      <trkpt lat="45.22162" lon="-1.12995">
        <ele>79</ele>
        <time>2025-04-26T07:49:27Z</time>
      </trkpt>
      <trkpt lat="45.22164" lon="-1.12998">
        <ele>79</ele>
        <time>2025-04-26T07:49:28Z</time>
      </trkpt>
      <trkpt lat="45.22167" lon="-1.13001">
        <ele>79</ele>
        <time>2025-04-26T07:49:29Z</time>
      </trkpt>
      <trkpt lat="45.2217" lon="-1.13003">
        <ele>79</ele>
        <time>2025-04-26T07:49:30Z</time>
      </trkpt>
      <trkpt lat="45.22172" lon="-1.13006">
        <ele>79</ele>
        <time>2025-04-26T07:49:31Z</time>
      </trkpt>
      <trkpt lat="45.22175" lon="-1.13009">
        <ele>79</ele>
        <time>2025-04-26T07:49:32Z</time>
      </trkpt>
      <trkpt lat="45.22177" lon="-1.13011">
        <ele>80</ele>
        <time>2025-04-26T07:49:33Z</time>
      </trkpt>
      <trkpt lat="45.22179" lon="-1.13014">
        <ele>80</ele>
        <time>2025-04-26T07:49:34Z</time>
      </trkpt>
      <trkpt lat="45.22181" lon="-1.13017">
        <ele>80</ele>
        <time>2025-04-26T07:49:35Z</time>
      </trkpt>
      <trkpt lat="45.22184" lon="-1.1302">
        <ele>80</ele>
        <time>2025-04-26T07:49:36Z</time>
      </trkpt>
      <trkpt lat="45.22186" lon="-1.13023">
        <ele>80</ele>
        <time>2025-04-26T07:49:37Z</time>
      </trkpt>
      <trkpt lat="45.22188" lon="-1.13026">
        <ele>81</ele>
        <time>2025-04-26T07:49:38Z</time>
      </trkpt>
      <trkpt lat="45.2219" lon="-1.13028">
        <ele>81</ele>
        <time>2025-04-26T07:49:39Z</time>
      </trkpt>
      <trkpt lat="45.22192" lon="-1.13031">
        <ele>81</ele>
        <time>2025-04-26T07:49:40Z</time>
      </trkpt>
      <trkpt lat="45.22194" lon="-1.13034">
        <ele>82</ele>
        <time>2025-04-26T07:49:41Z</time>
      </trkpt>
      <trkpt lat="45.22196" lon="-1.13037">
        <ele>82</ele>
        <time>2025-04-26T07:49:42Z</time>
      </trkpt>
      <trkpt lat="45.22197" lon="-1.1304">
        <ele>82</ele>
        <time>2025-04-26T07:49:43Z</time>
      </trkpt>
      <trkpt lat="45.22199" lon="-1.13044">
        <ele>82</ele>
        <time>2025-04-26T07:49:44Z</time>
      </trkpt>
      <trkpt lat="45.222" lon="-1.13046">
        <ele>82</ele>
        <time>2025-04-26T07:49:45Z</time>
      </trkpt>
      <trkpt lat="45.22202" lon="-1.13049">
        <ele>82</ele>
        <time>2025-04-26T07:49:46Z</time>
      </trkpt>
      <trkpt lat="45.22204" lon="-1.13052">
        <ele>82</ele>
        <time>2025-04-26T07:49:47Z</time>
      </trkpt>
      <trkpt lat="45.22206" lon="-1.13055">
        <ele>82</ele>
        <time>2025-04-26T07:49:48Z</time>
      </trkpt>
      <trkpt lat="45.22207" lon="-1.13057">
        <ele>82</ele>
        <time>2025-04-26T07:49:49Z</time>
      </trkpt>
      <trkpt lat="45.22209" lon="-1.13059">
        <ele>82</ele>
        <time>2025-04-26T07:49:50Z</time>
      </trkpt>
      <trkpt lat="45.22209" lon="-1.13061">
        <ele>82</ele>
        <time>2025-04-26T07:49:51Z</time>
      </trkpt>
      <trkpt lat="45.22209" lon="-1.13064">
        <ele>82</ele>
        <time>2025-04-26T07:49:52Z</time>
      </trkpt>
      <trkpt lat="45.22209" lon="-1.13066">
        <ele>82</ele>
        <time>2025-04-26T07:49:53Z</time>
      </trkpt>
      <trkpt lat="45.22209" lon="-1.13067">
        <ele>82</ele>
        <time>2025-04-26T07:49:54Z</time>
      </trkpt>
      <trkpt lat="45.2221" lon="-1.13068">
        <ele>82</ele>
        <time>2025-04-26T07:49:55Z</time>
      </trkpt>
      <trkpt lat="45.2221" lon="-1.13068">
        <ele>83</ele>
        <time>2025-04-26T07:49:56Z</time>
      </trkpt>
      <trkpt lat="45.22209" lon="-1.13068">
        <ele>83</ele>
        <time>2025-04-26T07:49:57Z</time>
      </trkpt>
      <trkpt lat="45.22209" lon="-1.13068">
        <ele>83</ele>
        <time>2025-04-26T07:49:58Z</time>
      </trkpt>
      <trkpt lat="45.22209" lon="-1.13068">
        <ele>83</ele>
        <time>2025-04-26T07:49:59Z</time>
      </trkpt>
      <trkpt lat="45.22209" lon="-1.13068">
        <ele>83</ele>
        <time>2025-04-26T07:50:00Z</time>
      </trkpt>
      <trkpt lat="45.22209" lon="-1.13068">
        <ele>83</ele>
        <time>2025-04-26T07:50:01Z</time>
      </trkpt>
      <trkpt lat="45.22209" lon="-1.13068">
        <ele>83</ele>
        <time>2025-04-26T07:50:02Z</time>
      </trkpt>
      <trkpt lat="45.22209" lon="-1.13068">
        <ele>83</ele>
        <time>2025-04-26T07:50:03Z</time>
      </trkpt>
      <trkpt lat="45.22208" lon="-1.13068">
        <ele>83</ele>
        <time>2025-04-26T07:50:04Z</time>
      </trkpt>
      <trkpt lat="45.22208" lon="-1.13068">
        <ele>83</ele>
        <time>2025-04-26T07:50:05Z</time>
      </trkpt>
      <trkpt lat="45.22208" lon="-1.13068">
        <ele>83</ele>
        <time>2025-04-26T07:50:06Z</time>
      </trkpt>
      <trkpt lat="45.22208" lon="-1.13068">
        <ele>83</ele>
        <time>2025-04-26T07:50:07Z</time>
      </trkpt>
      <trkpt lat="45.22208" lon="-1.13068">
        <ele>83</ele>
        <time>2025-04-26T07:50:08Z</time>
      </trkpt>
      <trkpt lat="45.22208" lon="-1.13068">
        <ele>83</ele>
        <time>2025-04-26T07:50:09Z</time>
      </trkpt>
      <trkpt lat="45.22208" lon="-1.13068">
        <ele>83</ele>
        <time>2025-04-26T07:50:10Z</time>
      </trkpt>
      <trkpt lat="45.22208" lon="-1.13068">
        <ele>83</ele>
        <time>2025-04-26T07:50:11Z</time>
      </trkpt>
      <trkpt lat="45.22208" lon="-1.13068">
        <ele>83</ele>
        <time>2025-04-26T07:50:12Z</time>
      </trkpt>
      <trkpt lat="45.22208" lon="-1.13068">
        <ele>83</ele>
        <time>2025-04-26T07:50:13Z</time>
      </trkpt>
      <trkpt lat="45.22208" lon="-1.13068">
        <ele>83</ele>
        <time>2025-04-26T07:50:14Z</time>
      </trkpt>
      <trkpt lat="45.22208" lon="-1.13068">
        <ele>83</ele>
        <time>2025-04-26T07:50:15Z</time>
      </trkpt>
      <trkpt lat="45.22208" lon="-1.13068">
        <ele>83</ele>
        <time>2025-04-26T07:50:16Z</time>
      </trkpt>
      <trkpt lat="45.22208" lon="-1.13068">
        <ele>83</ele>
        <time>2025-04-26T07:50:17Z</time>
      </trkpt>
      <trkpt lat="45.22208" lon="-1.13068">
        <ele>83</ele>
        <time>2025-04-26T07:50:18Z</time>
      </trkpt>
      <trkpt lat="45.22208" lon="-1.13068">
        <ele>83</ele>
        <time>2025-04-26T07:50:19Z</time>
      </trkpt>
      <trkpt lat="45.22208" lon="-1.13068">
        <ele>83</ele>
        <time>2025-04-26T07:50:20Z</time>
      </trkpt>
      <trkpt lat="45.22208" lon="-1.13068">
        <ele>83</ele>
        <time>2025-04-26T07:50:21Z</time>
      </trkpt>
      <trkpt lat="45.22208" lon="-1.13068">
        <ele>83</ele>
        <time>2025-04-26T07:50:22Z</time>
      </trkpt>
      <trkpt lat="45.22208" lon="-1.13068">
        <ele>83</ele>
        <time>2025-04-26T07:50:23Z</time>
      </trkpt>
      <trkpt lat="45.22208" lon="-1.13068">
        <ele>83</ele>
        <time>2025-04-26T07:50:24Z</time>
      </trkpt>
      <trkpt lat="45.22208" lon="-1.13068">
        <ele>83</ele>
        <time>2025-04-26T07:50:25Z</time>
      </trkpt>
      <trkpt lat="45.22208" lon="-1.13068">
        <ele>83</ele>
        <time>2025-04-26T07:50:26Z</time>
      </trkpt>
      <trkpt lat="45.22208" lon="-1.13068">
        <ele>83</ele>
        <time>2025-04-26T07:50:27Z</time>
      </trkpt>
      <trkpt lat="45.22208" lon="-1.13068">
        <ele>83</ele>
        <time>2025-04-26T07:50:28Z</time>
      </trkpt>
      <trkpt lat="45.22208" lon="-1.13068">
        <ele>83</ele>
        <time>2025-04-26T07:50:29Z</time>
      </trkpt>
      <trkpt lat="45.22208" lon="-1.13068">
        <ele>83</ele>
        <time>2025-04-26T07:50:30Z</time>
      </trkpt>
      <trkpt lat="45.22208" lon="-1.13068">
        <ele>83</ele>
        <time>2025-04-26T07:50:31Z</time>
      </trkpt>
      <trkpt lat="45.22208" lon="-1.13068">
        <ele>83</ele>
        <time>2025-04-26T07:50:32Z</time>
      </trkpt>
      <trkpt lat="45.22208" lon="-1.13068">
        <ele>83</ele>
        <time>2025-04-26T07:50:33Z</time>
      </trkpt>
      <trkpt lat="45.22208" lon="-1.13068">
        <ele>83</ele>
        <time>2025-04-26T07:50:34Z</time>
      </trkpt>
      <trkpt lat="45.22208" lon="-1.13068">
        <ele>83</ele>
        <time>2025-04-26T07:50:35Z</time>
      </trkpt>
      <trkpt lat="45.22208" lon="-1.13068">
        <ele>83</ele>
        <time>2025-04-26T07:50:36Z</time>
      </trkpt>
      <trkpt lat="45.22208" lon="-1.13068">
        <ele>83</ele>
        <time>2025-04-26T07:50:37Z</time>
      </trkpt>
      <trkpt lat="45.22208" lon="-1.13068">
        <ele>83</ele>
        <time>2025-04-26T07:50:38Z</time>
      </trkpt>
      <trkpt lat="45.22208" lon="-1.13068">
        <ele>83</ele>
        <time>2025-04-26T07:50:39Z</time>
      </trkpt>
      <trkpt lat="45.22208" lon="-1.13068">
        <ele>83</ele>
        <time>2025-04-26T07:50:40Z</time>
      </trkpt>
      <trkpt lat="45.22208" lon="-1.13068">
        <ele>83</ele>
        <time>2025-04-26T07:50:41Z</time>
      </trkpt>
      <trkpt lat="45.22208" lon="-1.13068">
        <ele>83</ele>
        <time>2025-04-26T07:50:42Z</time>
      </trkpt>
      <trkpt lat="45.22208" lon="-1.13068">
        <ele>83</ele>
        <time>2025-04-26T07:50:43Z</time>
      </trkpt>
      <trkpt lat="45.22208" lon="-1.13068">
        <ele>83</ele>
        <time>2025-04-26T07:50:44Z</time>
      </trkpt>
      <trkpt lat="45.22208" lon="-1.13068">
        <ele>83</ele>
        <time>2025-04-26T07:50:45Z</time>
      </trkpt>
      <trkpt lat="45.22208" lon="-1.13068">
        <ele>83</ele>
        <time>2025-04-26T07:50:46Z</time>
      </trkpt>
      <trkpt lat="45.22208" lon="-1.13068">
        <ele>83</ele>
        <time>2025-04-26T07:50:47Z</time>
      </trkpt>
      <trkpt lat="45.22208" lon="-1.13068">
        <ele>83</ele>
        <time>2025-04-26T07:50:48Z</time>
      </trkpt>
      <trkpt lat="45.22208" lon="-1.13068">
        <ele>83</ele>
        <time>2025-04-26T07:50:49Z</time>
      </trkpt>
      <trkpt lat="45.22208" lon="-1.13068">
        <ele>83</ele>
        <time>2025-04-26T07:50:50Z</time>
      </trkpt>
      <trkpt lat="45.22208" lon="-1.13068">
        <ele>83</ele>
        <time>2025-04-26T07:50:51Z</time>
      </trkpt>
      <trkpt lat="45.22208" lon="-1.13068">
        <ele>83</ele>
        <time>2025-04-26T07:50:52Z</time>
      </trkpt>
      <trkpt lat="45.22208" lon="-1.13068">
        <ele>83</ele>
        <time>2025-04-26T07:50:53Z</time>
      </trkpt>
      <trkpt lat="45.22208" lon="-1.13068">
        <ele>83</ele>
        <time>2025-04-26T07:50:54Z</time>
      </trkpt>
      <trkpt lat="45.22208" lon="-1.13068">
        <ele>83</ele>
        <time>2025-04-26T07:50:55Z</time>
      </trkpt>
      <trkpt lat="45.22208" lon="-1.13068">
        <ele>83</ele>
        <time>2025-04-26T07:50:56Z</time>
      </trkpt>
      <trkpt lat="45.22208" lon="-1.13068">
        <ele>83</ele>
        <time>2025-04-26T07:50:57Z</time>
      </trkpt>
      <trkpt lat="45.22208" lon="-1.13068">
        <ele>83</ele>
        <time>2025-04-26T07:50:58Z</time>
      </trkpt>
      <trkpt lat="45.22208" lon="-1.13068">
        <ele>83</ele>
        <time>2025-04-26T07:50:59Z</time>
      </trkpt>
      <trkpt lat="45.22208" lon="-1.13068">
        <ele>83</ele>
        <time>2025-04-26T07:51:00Z</time>
      </trkpt>
      <trkpt lat="45.2221" lon="-1.13071">
        <ele>83</ele>
        <time>2025-04-26T07:51:01Z</time>
      </trkpt>
      <trkpt lat="45.22211" lon="-1.13073">
        <ele>83</ele>
        <time>2025-04-26T07:51:02Z</time>
      </trkpt>
      <trkpt lat="45.22212" lon="-1.13073">
        <ele>84</ele>
        <time>2025-04-26T07:51:03Z</time>
      </trkpt>
      <trkpt lat="45.22212" lon="-1.13074">
        <ele>84</ele>
        <time>2025-04-26T07:51:04Z</time>
      </trkpt>
      <trkpt lat="45.22212" lon="-1.13074">
        <ele>84</ele>
        <time>2025-04-26T07:51:05Z</time>
      </trkpt>
      <trkpt lat="45.22213" lon="-1.13074">
        <ele>84</ele>
        <time>2025-04-26T07:51:06Z</time>
      </trkpt>
      <trkpt lat="45.22213" lon="-1.13073">
        <ele>84</ele>
        <time>2025-04-26T07:51:07Z</time>
      </trkpt>
      <trkpt lat="45.22213" lon="-1.13074">
        <ele>85</ele>
        <time>2025-04-26T07:54:58Z</time>
      </trkpt>
      <trkpt lat="45.22213" lon="-1.13074">
        <ele>85</ele>
        <time>2025-04-26T07:54:59Z</time>
      </trkpt>
      <trkpt lat="45.22213" lon="-1.13074">
        <ele>85</ele>
        <time>2025-04-26T07:55:00Z</time>
      </trkpt>
      <trkpt lat="45.22213" lon="-1.13074">
        <ele>85</ele>
        <time>2025-04-26T07:55:01Z</time>
      </trkpt>
      <trkpt lat="45.22213" lon="-1.13074">
        <ele>85</ele>
        <time>2025-04-26T07:55:02Z</time>
      </trkpt>
      <trkpt lat="45.22213" lon="-1.13074">
        <ele>85</ele>
        <time>2025-04-26T07:55:03Z</time>
      </trkpt>
      <trkpt lat="45.22213" lon="-1.13074">
        <ele>85</ele>
        <time>2025-04-26T07:55:04Z</time>
      </trkpt>
      <trkpt lat="45.22213" lon="-1.13074">
        <ele>85</ele>
        <time>2025-04-26T07:55:05Z</time>
      </trkpt>
      <trkpt lat="45.22213" lon="-1.13074">
        <ele>85</ele>
        <time>2025-04-26T07:55:06Z</time>
      </trkpt>
      <trkpt lat="45.22215" lon="-1.1308">
        <ele>84</ele>
        <time>2025-04-26T07:55:07Z</time>
      </trkpt>
      <trkpt lat="45.22216" lon="-1.13082">
        <ele>85</ele>
        <time>2025-04-26T07:55:08Z</time>
      </trkpt>
      <trkpt lat="45.22218" lon="-1.13083">
        <ele>85</ele>
        <time>2025-04-26T07:55:09Z</time>
      </trkpt>
      <trkpt lat="45.22219" lon="-1.13085">
        <ele>85</ele>
        <time>2025-04-26T07:55:10Z</time>
      </trkpt>
      <trkpt lat="45.22221" lon="-1.13087">
        <ele>85</ele>
        <time>2025-04-26T07:55:11Z</time>
      </trkpt>
      <trkpt lat="45.22222" lon="-1.1309">
        <ele>86</ele>
        <time>2025-04-26T07:55:12Z</time>
      </trkpt>
      <trkpt lat="45.22224" lon="-1.1309">
        <ele>86</ele>
        <time>2025-04-26T07:55:13Z</time>
      </trkpt>
      <trkpt lat="45.22226" lon="-1.13092">
        <ele>87</ele>
        <time>2025-04-26T07:55:14Z</time>
      </trkpt>
      <trkpt lat="45.22226" lon="-1.13096">
        <ele>88</ele>
        <time>2025-04-26T07:55:15Z</time>
      </trkpt>
      <trkpt lat="45.22227" lon="-1.13099">
        <ele>89</ele>
        <time>2025-04-26T07:55:16Z</time>
      </trkpt>
      <trkpt lat="45.22229" lon="-1.13103">
        <ele>90</ele>
        <time>2025-04-26T07:55:17Z</time>
      </trkpt>
      <trkpt lat="45.22231" lon="-1.13106">
        <ele>90</ele>
        <time>2025-04-26T07:55:18Z</time>
      </trkpt>
      <trkpt lat="45.22232" lon="-1.13109">
        <ele>91</ele>
        <time>2025-04-26T07:55:19Z</time>
      </trkpt>
      <trkpt lat="45.22233" lon="-1.13111">
        <ele>92</ele>
        <time>2025-04-26T07:55:20Z</time>
      </trkpt>
      <trkpt lat="45.22235" lon="-1.13113">
        <ele>92</ele>
        <time>2025-04-26T07:55:21Z</time>
      </trkpt>
      <trkpt lat="45.22238" lon="-1.13115">
        <ele>92</ele>
        <time>2025-04-26T07:55:22Z</time>
      </trkpt>
      <trkpt lat="45.2224" lon="-1.13117">
        <ele>93</ele>
        <time>2025-04-26T07:55:23Z</time>
      </trkpt>
      <trkpt lat="45.22242" lon="-1.13119">
        <ele>93</ele>
        <time>2025-04-26T07:55:24Z</time>
      </trkpt>
      <trkpt lat="45.22244" lon="-1.13121">
        <ele>94</ele>
        <time>2025-04-26T07:55:25Z</time>
      </trkpt>
      <trkpt lat="45.22245" lon="-1.13123">
        <ele>94</ele>
        <time>2025-04-26T07:55:26Z</time>
      </trkpt>
      <trkpt lat="45.22247" lon="-1.13125">
        <ele>95</ele>
        <time>2025-04-26T07:55:27Z</time>
      </trkpt>
      <trkpt lat="45.22249" lon="-1.13128">
        <ele>95</ele>
        <time>2025-04-26T07:55:28Z</time>
      </trkpt>
      <trkpt lat="45.22251" lon="-1.1313">
        <ele>95</ele>
        <time>2025-04-26T07:55:29Z</time>
      </trkpt>
      <trkpt lat="45.22254" lon="-1.13133">
        <ele>96</ele>
        <time>2025-04-26T07:55:30Z</time>
      </trkpt>
      <trkpt lat="45.22257" lon="-1.13136">
        <ele>96</ele>
        <time>2025-04-26T07:55:31Z</time>
      </trkpt>
      <trkpt lat="45.22259" lon="-1.13139">
        <ele>96</ele>
        <time>2025-04-26T07:55:32Z</time>
      </trkpt>
      <trkpt lat="45.22262" lon="-1.13142">
        <ele>96</ele>
        <time>2025-04-26T07:55:33Z</time>
      </trkpt>
      <trkpt lat="45.22265" lon="-1.13144">
        <ele>96</ele>
        <time>2025-04-26T07:55:34Z</time>
      </trkpt>
      <trkpt lat="45.22268" lon="-1.13147">
        <ele>96</ele>
        <time>2025-04-26T07:55:35Z</time>
      </trkpt>
      <trkpt lat="45.22271" lon="-1.13149">
        <ele>96</ele>
        <time>2025-04-26T07:55:36Z</time>
      </trkpt>
      <trkpt lat="45.22273" lon="-1.13152">
        <ele>96</ele>
        <time>2025-04-26T07:55:37Z</time>
      </trkpt>
      <trkpt lat="45.22276" lon="-1.13154">
        <ele>96</ele>
        <time>2025-04-26T07:55:38Z</time>
      </trkpt>
      <trkpt lat="45.22279" lon="-1.13158">
        <ele>96</ele>
        <time>2025-04-26T07:55:39Z</time>
      </trkpt>
      <trkpt lat="45.22282" lon="-1.13162">
        <ele>96</ele>
        <time>2025-04-26T07:55:40Z</time>
      </trkpt>
      <trkpt lat="45.22285" lon="-1.13165">
        <ele>96</ele>
        <time>2025-04-26T07:55:41Z</time>
      </trkpt>
      <trkpt lat="45.22287" lon="-1.13168">
        <ele>95</ele>
        <time>2025-04-26T07:55:42Z</time>
      </trkpt>
      <trkpt lat="45.2229" lon="-1.13172">
        <ele>96</ele>
        <time>2025-04-26T07:55:43Z</time>
      </trkpt>
      <trkpt lat="45.22293" lon="-1.13176">
        <ele>95</ele>
        <time>2025-04-26T07:55:44Z</time>
      </trkpt>
      <trkpt lat="45.22296" lon="-1.13179">
        <ele>95</ele>
        <time>2025-04-26T07:55:45Z</time>
      </trkpt>
      <trkpt lat="45.22299" lon="-1.13182">
        <ele>95</ele>
        <time>2025-04-26T07:55:46Z</time>
      </trkpt>
      <trkpt lat="45.22301" lon="-1.13185">
        <ele>95</ele>
        <time>2025-04-26T07:55:47Z</time>
      </trkpt>
      <trkpt lat="45.22303" lon="-1.13188">
        <ele>94</ele>
        <time>2025-04-26T07:55:48Z</time>
      </trkpt>
      <trkpt lat="45.22305" lon="-1.13192">
        <ele>93</ele>
        <time>2025-04-26T07:55:49Z</time>
      </trkpt>
      <trkpt lat="45.22307" lon="-1.13196">
        <ele>92</ele>
        <time>2025-04-26T07:55:50Z</time>
      </trkpt>
      <trkpt lat="45.2231" lon="-1.13199">
        <ele>91</ele>
        <time>2025-04-26T07:55:51Z</time>
      </trkpt>
      <trkpt lat="45.22313" lon="-1.13202">
        <ele>91</ele>
        <time>2025-04-26T07:55:52Z</time>
      </trkpt>
      <trkpt lat="45.22315" lon="-1.13205">
        <ele>91</ele>
        <time>2025-04-26T07:55:53Z</time>
      </trkpt>
      <trkpt lat="45.22318" lon="-1.13209">
        <ele>91</ele>
        <time>2025-04-26T07:55:54Z</time>
      </trkpt>
      <trkpt lat="45.2232" lon="-1.13212">
        <ele>91</ele>
        <time>2025-04-26T07:55:55Z</time>
      </trkpt>
      <trkpt lat="45.22322" lon="-1.13215">
        <ele>91</ele>
        <time>2025-04-26T07:55:56Z</time>
      </trkpt>
      <trkpt lat="45.22325" lon="-1.13218">
        <ele>91</ele>
        <time>2025-04-26T07:55:57Z</time>
      </trkpt>
      <trkpt lat="45.22328" lon="-1.13221">
        <ele>90</ele>
        <time>2025-04-26T07:55:58Z</time>
      </trkpt>
      <trkpt lat="45.2233" lon="-1.13224">
        <ele>90</ele>
        <time>2025-04-26T07:55:59Z</time>
      </trkpt>
      <trkpt lat="45.22332" lon="-1.13226">
        <ele>90</ele>
        <time>2025-04-26T07:56:00Z</time>
      </trkpt>
      <trkpt lat="45.22334" lon="-1.13228">
        <ele>89</ele>
        <time>2025-04-26T07:56:01Z</time>
      </trkpt>
      <trkpt lat="45.22335" lon="-1.13229">
        <ele>89</ele>
        <time>2025-04-26T07:56:02Z</time>
      </trkpt>
      <trkpt lat="45.22337" lon="-1.1323">
        <ele>89</ele>
        <time>2025-04-26T07:56:03Z</time>
      </trkpt>
      <trkpt lat="45.22339" lon="-1.13231">
        <ele>89</ele>
        <time>2025-04-26T07:56:04Z</time>
      </trkpt>
      <trkpt lat="45.2234" lon="-1.13232">
        <ele>89</ele>
        <time>2025-04-26T07:56:05Z</time>
      </trkpt>
      <trkpt lat="45.22342" lon="-1.13234">
        <ele>89</ele>
        <time>2025-04-26T07:56:06Z</time>
      </trkpt>
      <trkpt lat="45.22343" lon="-1.13236">
        <ele>89</ele>
        <time>2025-04-26T07:56:07Z</time>
      </trkpt>
      <trkpt lat="45.22344" lon="-1.13238">
        <ele>89</ele>
        <time>2025-04-26T07:56:08Z</time>
      </trkpt>
      <trkpt lat="45.22346" lon="-1.1324">
        <ele>90</ele>
        <time>2025-04-26T07:56:09Z</time>
      </trkpt>
      <trkpt lat="45.22348" lon="-1.13242">
        <ele>90</ele>
        <time>2025-04-26T07:56:10Z</time>
      </trkpt>
      <trkpt lat="45.2235" lon="-1.13244">
        <ele>90</ele>
        <time>2025-04-26T07:56:11Z</time>
      </trkpt>
      <trkpt lat="45.22353" lon="-1.13247">
        <ele>91</ele>
        <time>2025-04-26T07:56:12Z</time>
      </trkpt>
      <trkpt lat="45.22355" lon="-1.13249">
        <ele>91</ele>
        <time>2025-04-26T07:56:13Z</time>
      </trkpt>
      <trkpt lat="45.22356" lon="-1.13251">
        <ele>92</ele>
        <time>2025-04-26T07:56:14Z</time>
      </trkpt>
      <trkpt lat="45.22358" lon="-1.13252">
        <ele>92</ele>
        <time>2025-04-26T07:56:15Z</time>
      </trkpt>
      <trkpt lat="45.2236" lon="-1.13253">
        <ele>93</ele>
        <time>2025-04-26T07:56:16Z</time>
      </trkpt>
      <trkpt lat="45.22362" lon="-1.13255">
        <ele>93</ele>
        <time>2025-04-26T07:56:17Z</time>
      </trkpt>
      <trkpt lat="45.22365" lon="-1.13258">
        <ele>93</ele>
        <time>2025-04-26T07:56:18Z</time>
      </trkpt>
      <trkpt lat="45.22366" lon="-1.1326">
        <ele>93</ele>
        <time>2025-04-26T07:56:19Z</time>
      </trkpt>
      <trkpt lat="45.22369" lon="-1.13263">
        <ele>93</ele>
        <time>2025-04-26T07:56:20Z</time>
      </trkpt>
      <trkpt lat="45.22371" lon="-1.13267">
        <ele>92</ele>
        <time>2025-04-26T07:56:21Z</time>
      </trkpt>
      <trkpt lat="45.22373" lon="-1.1327">
        <ele>92</ele>
        <time>2025-04-26T07:56:22Z</time>
      </trkpt>
      <trkpt lat="45.22376" lon="-1.13273">
        <ele>92</ele>
        <time>2025-04-26T07:56:23Z</time>
      </trkpt>
      <trkpt lat="45.22378" lon="-1.13275">
        <ele>92</ele>
        <time>2025-04-26T07:56:24Z</time>
      </trkpt>
      <trkpt lat="45.22383" lon="-1.13279">
        <ele>91</ele>
        <time>2025-04-26T07:56:25Z</time>
      </trkpt>
      <trkpt lat="45.22387" lon="-1.13282">
        <ele>91</ele>
        <time>2025-04-26T07:56:26Z</time>
      </trkpt>
      <trkpt lat="45.22389" lon="-1.13286">
        <ele>90</ele>
        <time>2025-04-26T07:56:27Z</time>
      </trkpt>
      <trkpt lat="45.22392" lon="-1.13289">
        <ele>90</ele>
        <time>2025-04-26T07:56:28Z</time>
      </trkpt>
      <trkpt lat="45.22395" lon="-1.13293">
        <ele>89</ele>
        <time>2025-04-26T07:56:29Z</time>
      </trkpt>
      <trkpt lat="45.22397" lon="-1.13299">
        <ele>88</ele>
        <time>2025-04-26T07:56:30Z</time>
      </trkpt>
      <trkpt lat="45.224" lon="-1.13302">
        <ele>88</ele>
        <time>2025-04-26T07:56:31Z</time>
      </trkpt>
      <trkpt lat="45.22402" lon="-1.13305">
        <ele>87</ele>
        <time>2025-04-26T07:56:32Z</time>
      </trkpt>
      <trkpt lat="45.22405" lon="-1.13308">
        <ele>87</ele>
        <time>2025-04-26T07:56:33Z</time>
      </trkpt>
      <trkpt lat="45.22408" lon="-1.13311">
        <ele>89</ele>
        <time>2025-04-26T07:56:34Z</time>
      </trkpt>
      <trkpt lat="45.2241" lon="-1.13315">
        <ele>88</ele>
        <time>2025-04-26T07:56:35Z</time>
      </trkpt>
      <trkpt lat="45.22412" lon="-1.13318">
        <ele>88</ele>
        <time>2025-04-26T07:56:36Z</time>
      </trkpt>
      <trkpt lat="45.22415" lon="-1.13322">
        <ele>87</ele>
        <time>2025-04-26T07:56:37Z</time>
      </trkpt>
      <trkpt lat="45.22418" lon="-1.13325">
        <ele>87</ele>
        <time>2025-04-26T07:56:38Z</time>
      </trkpt>
      <trkpt lat="45.22421" lon="-1.13329">
        <ele>87</ele>
        <time>2025-04-26T07:56:39Z</time>
      </trkpt>
      <trkpt lat="45.22423" lon="-1.13331">
        <ele>83</ele>
        <time>2025-04-26T07:56:40Z</time>
      </trkpt>
      <trkpt lat="45.22426" lon="-1.13334">
        <ele>83</ele>
        <time>2025-04-26T07:56:41Z</time>
      </trkpt>
      <trkpt lat="45.22428" lon="-1.13337">
        <ele>84</ele>
        <time>2025-04-26T07:56:42Z</time>
      </trkpt>
      <trkpt lat="45.22431" lon="-1.1334">
        <ele>84</ele>
        <time>2025-04-26T07:56:43Z</time>
      </trkpt>
      <trkpt lat="45.22433" lon="-1.13344">
        <ele>84</ele>
        <time>2025-04-26T07:56:44Z</time>
      </trkpt>
      <trkpt lat="45.22436" lon="-1.13347">
        <ele>84</ele>
        <time>2025-04-26T07:56:45Z</time>
      </trkpt>
      <trkpt lat="45.22438" lon="-1.13351">
        <ele>84</ele>
        <time>2025-04-26T07:56:46Z</time>
      </trkpt>
      <trkpt lat="45.2244" lon="-1.13354">
        <ele>83</ele>
        <time>2025-04-26T07:56:47Z</time>
      </trkpt>
      <trkpt lat="45.22442" lon="-1.13359">
        <ele>84</ele>
        <time>2025-04-26T07:56:48Z</time>
      </trkpt>
      <trkpt lat="45.22445" lon="-1.13363">
        <ele>85</ele>
        <time>2025-04-26T07:56:49Z</time>
      </trkpt>
      <trkpt lat="45.22447" lon="-1.13367">
        <ele>85</ele>
        <time>2025-04-26T07:56:50Z</time>
      </trkpt>
      <trkpt lat="45.22449" lon="-1.1337">
        <ele>85</ele>
        <time>2025-04-26T07:56:51Z</time>
      </trkpt>
      <trkpt lat="45.22451" lon="-1.13374">
        <ele>85</ele>
        <time>2025-04-26T07:56:52Z</time>
      </trkpt>
      <trkpt lat="45.22453" lon="-1.13377">
        <ele>85</ele>
        <time>2025-04-26T07:56:53Z</time>
      </trkpt>
      <trkpt lat="45.22455" lon="-1.1338">
        <ele>86</ele>
        <time>2025-04-26T07:56:54Z</time>
      </trkpt>
      <trkpt lat="45.22457" lon="-1.13383">
        <ele>87</ele>
        <time>2025-04-26T07:56:55Z</time>
      </trkpt>
      <trkpt lat="45.22458" lon="-1.13385">
        <ele>88</ele>
        <time>2025-04-26T07:56:56Z</time>
      </trkpt>
      <trkpt lat="45.22459" lon="-1.13388">
        <ele>88</ele>
        <time>2025-04-26T07:56:57Z</time>
      </trkpt>
      <trkpt lat="45.2246" lon="-1.13391">
        <ele>89</ele>
        <time>2025-04-26T07:56:58Z</time>
      </trkpt>
      <trkpt lat="45.22461" lon="-1.13394">
        <ele>90</ele>
        <time>2025-04-26T07:56:59Z</time>
      </trkpt>
      <trkpt lat="45.22461" lon="-1.13398">
        <ele>91</ele>
        <time>2025-04-26T07:57:00Z</time>
      </trkpt>
      <trkpt lat="45.22462" lon="-1.13401">
        <ele>91</ele>
        <time>2025-04-26T07:57:01Z</time>
      </trkpt>
      <trkpt lat="45.22462" lon="-1.13404">
        <ele>92</ele>
        <time>2025-04-26T07:57:02Z</time>
      </trkpt>
      <trkpt lat="45.22463" lon="-1.13408">
        <ele>92</ele>
        <time>2025-04-26T07:57:03Z</time>
      </trkpt>
      <trkpt lat="45.22463" lon="-1.13412">
        <ele>93</ele>
        <time>2025-04-26T07:57:04Z</time>
      </trkpt>
      <trkpt lat="45.22463" lon="-1.13415">
        <ele>93</ele>
        <time>2025-04-26T07:57:05Z</time>
      </trkpt>
      <trkpt lat="45.22462" lon="-1.13418">
        <ele>94</ele>
        <time>2025-04-26T07:57:06Z</time>
      </trkpt>
      <trkpt lat="45.22462" lon="-1.13421">
        <ele>94</ele>
        <time>2025-04-26T07:57:07Z</time>
      </trkpt>
      <trkpt lat="45.22461" lon="-1.13424">
        <ele>93</ele>
        <time>2025-04-26T07:57:08Z</time>
      </trkpt>
      <trkpt lat="45.22459" lon="-1.13427">
        <ele>93</ele>
        <time>2025-04-26T07:57:09Z</time>
      </trkpt>
      <trkpt lat="45.22458" lon="-1.1343">
        <ele>94</ele>
        <time>2025-04-26T07:57:10Z</time>
      </trkpt>
      <trkpt lat="45.22456" lon="-1.13433">
        <ele>94</ele>
        <time>2025-04-26T07:57:11Z</time>
      </trkpt>
      <trkpt lat="45.22454" lon="-1.13435">
        <ele>94</ele>
        <time>2025-04-26T07:57:12Z</time>
      </trkpt>
      <trkpt lat="45.22452" lon="-1.13437">
        <ele>94</ele>
        <time>2025-04-26T07:57:13Z</time>
      </trkpt>
      <trkpt lat="45.2245" lon="-1.13439">
        <ele>94</ele>
        <time>2025-04-26T07:57:14Z</time>
      </trkpt>
      <trkpt lat="45.22448" lon="-1.13441">
        <ele>93</ele>
        <time>2025-04-26T07:57:15Z</time>
      </trkpt>
      <trkpt lat="45.22446" lon="-1.13442">
        <ele>93</ele>
        <time>2025-04-26T07:57:16Z</time>
      </trkpt>
      <trkpt lat="45.22444" lon="-1.13443">
        <ele>92</ele>
        <time>2025-04-26T07:57:17Z</time>
      </trkpt>
      <trkpt lat="45.22442" lon="-1.13445">
        <ele>92</ele>
        <time>2025-04-26T07:57:18Z</time>
      </trkpt>
      <trkpt lat="45.2244" lon="-1.13446">
        <ele>92</ele>
        <time>2025-04-26T07:57:19Z</time>
      </trkpt>
      <trkpt lat="45.22438" lon="-1.13448">
        <ele>92</ele>
        <time>2025-04-26T07:57:20Z</time>
      </trkpt>
      <trkpt lat="45.22436" lon="-1.1345">
        <ele>91</ele>
        <time>2025-04-26T07:57:21Z</time>
      </trkpt>
      <trkpt lat="45.22434" lon="-1.13452">
        <ele>91</ele>
        <time>2025-04-26T07:57:22Z</time>
      </trkpt>
      <trkpt lat="45.22432" lon="-1.13454">
        <ele>91</ele>
        <time>2025-04-26T07:57:23Z</time>
      </trkpt>
      <trkpt lat="45.2243" lon="-1.13456">
        <ele>90</ele>
        <time>2025-04-26T07:57:24Z</time>
      </trkpt>
      <trkpt lat="45.22428" lon="-1.13458">
        <ele>91</ele>
        <time>2025-04-26T07:57:25Z</time>
      </trkpt>
      <trkpt lat="45.22427" lon="-1.1346">
        <ele>90</ele>
        <time>2025-04-26T07:57:26Z</time>
      </trkpt>
      <trkpt lat="45.22425" lon="-1.13462">
        <ele>90</ele>
        <time>2025-04-26T07:57:27Z</time>
      </trkpt>
      <trkpt lat="45.22423" lon="-1.13464">
        <ele>90</ele>
        <time>2025-04-26T07:57:28Z</time>
      </trkpt>
      <trkpt lat="45.22422" lon="-1.13466">
        <ele>90</ele>
        <time>2025-04-26T07:57:29Z</time>
      </trkpt>
      <trkpt lat="45.2242" lon="-1.13468">
        <ele>89</ele>
        <time>2025-04-26T07:57:30Z</time>
      </trkpt>
      <trkpt lat="45.22419" lon="-1.1347">
        <ele>90</ele>
        <time>2025-04-26T07:57:31Z</time>
      </trkpt>
      <trkpt lat="45.22418" lon="-1.13473">
        <ele>90</ele>
        <time>2025-04-26T07:57:32Z</time>
      </trkpt>
      <trkpt lat="45.22417" lon="-1.13475">
        <ele>90</ele>
        <time>2025-04-26T07:57:33Z</time>
      </trkpt>
      <trkpt lat="45.22415" lon="-1.13478">
        <ele>91</ele>
        <time>2025-04-26T07:57:34Z</time>
      </trkpt>
      <trkpt lat="45.22415" lon="-1.13481">
        <ele>91</ele>
        <time>2025-04-26T07:57:35Z</time>
      </trkpt>
      <trkpt lat="45.22414" lon="-1.13484">
        <ele>91</ele>
        <time>2025-04-26T07:57:36Z</time>
      </trkpt>
      <trkpt lat="45.22413" lon="-1.13487">
        <ele>92</ele>
        <time>2025-04-26T07:57:37Z</time>
      </trkpt>
      <trkpt lat="45.22412" lon="-1.1349">
        <ele>92</ele>
        <time>2025-04-26T07:57:38Z</time>
      </trkpt>
      <trkpt lat="45.22412" lon="-1.13492">
        <ele>93</ele>
        <time>2025-04-26T07:57:39Z</time>
      </trkpt>
      <trkpt lat="45.22413" lon="-1.13495">
        <ele>94</ele>
        <time>2025-04-26T07:57:40Z</time>
      </trkpt>
      <trkpt lat="45.22414" lon="-1.13498">
        <ele>94</ele>
        <time>2025-04-26T07:57:41Z</time>
      </trkpt>
      <trkpt lat="45.22414" lon="-1.13501">
        <ele>94</ele>
        <time>2025-04-26T07:57:42Z</time>
      </trkpt>
      <trkpt lat="45.22414" lon="-1.13504">
        <ele>94</ele>
        <time>2025-04-26T07:57:43Z</time>
      </trkpt>
      <trkpt lat="45.22414" lon="-1.13508">
        <ele>94</ele>
        <time>2025-04-26T07:57:44Z</time>
      </trkpt>
      <trkpt lat="45.22415" lon="-1.1351">
        <ele>94</ele>
        <time>2025-04-26T07:57:45Z</time>
      </trkpt>
      <trkpt lat="45.22416" lon="-1.13513">
        <ele>94</ele>
        <time>2025-04-26T07:57:46Z</time>
      </trkpt>
      <trkpt lat="45.22417" lon="-1.13516">
        <ele>93</ele>
        <time>2025-04-26T07:57:47Z</time>
      </trkpt>
      <trkpt lat="45.22417" lon="-1.13519">
        <ele>93</ele>
        <time>2025-04-26T07:57:48Z</time>
      </trkpt>
      <trkpt lat="45.22418" lon="-1.13523">
        <ele>93</ele>
        <time>2025-04-26T07:57:49Z</time>
      </trkpt>
      <trkpt lat="45.22418" lon="-1.13526">
        <ele>93</ele>
        <time>2025-04-26T07:57:50Z</time>
      </trkpt>
      <trkpt lat="45.22419" lon="-1.13529">
        <ele>93</ele>
        <time>2025-04-26T07:57:51Z</time>
      </trkpt>
      <trkpt lat="45.2242" lon="-1.13533">
        <ele>92</ele>
        <time>2025-04-26T07:57:52Z</time>
      </trkpt>
      <trkpt lat="45.2242" lon="-1.13536">
        <ele>92</ele>
        <time>2025-04-26T07:57:53Z</time>
      </trkpt>
      <trkpt lat="45.22421" lon="-1.1354">
        <ele>92</ele>
        <time>2025-04-26T07:57:54Z</time>
      </trkpt>
      <trkpt lat="45.22422" lon="-1.13544">
        <ele>92</ele>
        <time>2025-04-26T07:57:55Z</time>
      </trkpt>
      <trkpt lat="45.22423" lon="-1.13548">
        <ele>93</ele>
        <time>2025-04-26T07:57:56Z</time>
      </trkpt>
      <trkpt lat="45.22424" lon="-1.13552">
        <ele>93</ele>
        <time>2025-04-26T07:57:57Z</time>
      </trkpt>
      <trkpt lat="45.22425" lon="-1.13556">
        <ele>92</ele>
        <time>2025-04-26T07:57:58Z</time>
      </trkpt>
      <trkpt lat="45.22426" lon="-1.1356">
        <ele>93</ele>
        <time>2025-04-26T07:57:59Z</time>
      </trkpt>
      <trkpt lat="45.22425" lon="-1.13564">
        <ele>92</ele>
        <time>2025-04-26T07:58:00Z</time>
      </trkpt>
      <trkpt lat="45.22425" lon="-1.13568">
        <ele>92</ele>
        <time>2025-04-26T07:58:01Z</time>
      </trkpt>
      <trkpt lat="45.22426" lon="-1.13572">
        <ele>92</ele>
        <time>2025-04-26T07:58:02Z</time>
      </trkpt>
      <trkpt lat="45.22426" lon="-1.13577">
        <ele>92</ele>
        <time>2025-04-26T07:58:03Z</time>
      </trkpt>
      <trkpt lat="45.22427" lon="-1.13581">
        <ele>92</ele>
        <time>2025-04-26T07:58:04Z</time>
      </trkpt>
      <trkpt lat="45.22428" lon="-1.13585">
        <ele>91</ele>
        <time>2025-04-26T07:58:05Z</time>
      </trkpt>
      <trkpt lat="45.22429" lon="-1.13588">
        <ele>91</ele>
        <time>2025-04-26T07:58:06Z</time>
      </trkpt>
      <trkpt lat="45.2243" lon="-1.13592">
        <ele>90</ele>
        <time>2025-04-26T07:58:07Z</time>
      </trkpt>
      <trkpt lat="45.22431" lon="-1.13597">
        <ele>90</ele>
        <time>2025-04-26T07:58:08Z</time>
      </trkpt>
      <trkpt lat="45.22432" lon="-1.13601">
        <ele>89</ele>
        <time>2025-04-26T07:58:09Z</time>
      </trkpt>
      <trkpt lat="45.22432" lon="-1.13605">
        <ele>89</ele>
        <time>2025-04-26T07:58:10Z</time>
      </trkpt>
      <trkpt lat="45.22433" lon="-1.13608">
        <ele>88</ele>
        <time>2025-04-26T07:58:11Z</time>
      </trkpt>
      <trkpt lat="45.22433" lon="-1.13612">
        <ele>88</ele>
        <time>2025-04-26T07:58:12Z</time>
      </trkpt>
      <trkpt lat="45.22433" lon="-1.13617">
        <ele>87</ele>
        <time>2025-04-26T07:58:13Z</time>
      </trkpt>
      <trkpt lat="45.22433" lon="-1.1362">
        <ele>86</ele>
        <time>2025-04-26T07:58:14Z</time>
      </trkpt>
      <trkpt lat="45.22433" lon="-1.13626">
        <ele>86</ele>
        <time>2025-04-26T07:58:15Z</time>
      </trkpt>
      <trkpt lat="45.22434" lon="-1.13631">
        <ele>86</ele>
        <time>2025-04-26T07:58:16Z</time>
      </trkpt>
      <trkpt lat="45.22435" lon="-1.13636">
        <ele>87</ele>
        <time>2025-04-26T07:58:17Z</time>
      </trkpt>
      <trkpt lat="45.22436" lon="-1.13641">
        <ele>87</ele>
        <time>2025-04-26T07:58:18Z</time>
      </trkpt>
      <trkpt lat="45.22437" lon="-1.13646">
        <ele>87</ele>
        <time>2025-04-26T07:58:19Z</time>
      </trkpt>
      <trkpt lat="45.22438" lon="-1.1365">
        <ele>87</ele>
        <time>2025-04-26T07:58:20Z</time>
      </trkpt>
      <trkpt lat="45.22439" lon="-1.13655">
        <ele>88</ele>
        <time>2025-04-26T07:58:21Z</time>
      </trkpt>
      <trkpt lat="45.2244" lon="-1.13661">
        <ele>88</ele>
        <time>2025-04-26T07:58:22Z</time>
      </trkpt>
      <trkpt lat="45.2244" lon="-1.13667">
        <ele>88</ele>
        <time>2025-04-26T07:58:23Z</time>
      </trkpt>
      <trkpt lat="45.22441" lon="-1.13673">
        <ele>88</ele>
        <time>2025-04-26T07:58:24Z</time>
      </trkpt>
      <trkpt lat="45.22442" lon="-1.13679">
        <ele>89</ele>
        <time>2025-04-26T07:58:25Z</time>
      </trkpt>
      <trkpt lat="45.22442" lon="-1.13687">
        <ele>90</ele>
        <time>2025-04-26T07:58:26Z</time>
      </trkpt>
      <trkpt lat="45.22443" lon="-1.13694">
        <ele>90</ele>
        <time>2025-04-26T07:58:27Z</time>
      </trkpt>
      <trkpt lat="45.22445" lon="-1.13703">
        <ele>90</ele>
        <time>2025-04-26T07:58:28Z</time>
      </trkpt>
      <trkpt lat="45.22446" lon="-1.13713">
        <ele>90</ele>
        <time>2025-04-26T07:58:29Z</time>
      </trkpt>
      <trkpt lat="45.22447" lon="-1.13721">
        <ele>88</ele>
        <time>2025-04-26T07:58:30Z</time>
      </trkpt>
      <trkpt lat="45.22449" lon="-1.13731">
        <ele>88</ele>
        <time>2025-04-26T07:58:31Z</time>
      </trkpt>
      <trkpt lat="45.2245" lon="-1.13739">
        <ele>89</ele>
        <time>2025-04-26T07:58:32Z</time>
      </trkpt>
      <trkpt lat="45.22451" lon="-1.13748">
        <ele>88</ele>
        <time>2025-04-26T07:58:33Z</time>
      </trkpt>
      <trkpt lat="45.22452" lon="-1.13757">
        <ele>88</ele>
        <time>2025-04-26T07:58:34Z</time>
      </trkpt>
      <trkpt lat="45.22453" lon="-1.13765">
        <ele>88</ele>
        <time>2025-04-26T07:58:35Z</time>
      </trkpt>
      <trkpt lat="45.22454" lon="-1.13773">
        <ele>88</ele>
        <time>2025-04-26T07:58:36Z</time>
      </trkpt>
      <trkpt lat="45.22455" lon="-1.13781">
        <ele>87</ele>
        <time>2025-04-26T07:58:37Z</time>
      </trkpt>
      <trkpt lat="45.22456" lon="-1.13789">
        <ele>87</ele>
        <time>2025-04-26T07:58:38Z</time>
      </trkpt>
      <trkpt lat="45.22457" lon="-1.13796">
        <ele>86</ele>
        <time>2025-04-26T07:58:39Z</time>
      </trkpt>
      <trkpt lat="45.22457" lon="-1.13804">
        <ele>86</ele>
        <time>2025-04-26T07:58:40Z</time>
      </trkpt>
      <trkpt lat="45.22457" lon="-1.13811">
        <ele>86</ele>
        <time>2025-04-26T07:58:41Z</time>
      </trkpt>
      <trkpt lat="45.22456" lon="-1.13819">
        <ele>85</ele>
        <time>2025-04-26T07:58:42Z</time>
      </trkpt>
      <trkpt lat="45.22455" lon="-1.13826">
        <ele>85</ele>
        <time>2025-04-26T07:58:43Z</time>
      </trkpt>
      <trkpt lat="45.22455" lon="-1.13832">
        <ele>85</ele>
        <time>2025-04-26T07:58:44Z</time>
      </trkpt>
      <trkpt lat="45.22454" lon="-1.13838">
        <ele>85</ele>
        <time>2025-04-26T07:58:45Z</time>
      </trkpt>
      <trkpt lat="45.22452" lon="-1.13844">
        <ele>85</ele>
        <time>2025-04-26T07:58:46Z</time>
      </trkpt>
      <trkpt lat="45.22451" lon="-1.13848">
        <ele>85</ele>
        <time>2025-04-26T07:58:47Z</time>
      </trkpt>
      <trkpt lat="45.2245" lon="-1.13853">
        <ele>86</ele>
        <time>2025-04-26T07:58:48Z</time>
      </trkpt>
      <trkpt lat="45.22449" lon="-1.13857">
        <ele>86</ele>
        <time>2025-04-26T07:58:49Z</time>
      </trkpt>
      <trkpt lat="45.22448" lon="-1.1386">
        <ele>87</ele>
        <time>2025-04-26T07:58:50Z</time>
      </trkpt>
      <trkpt lat="45.22447" lon="-1.13864">
        <ele>88</ele>
        <time>2025-04-26T07:58:51Z</time>
      </trkpt>
      <trkpt lat="45.22447" lon="-1.13867">
        <ele>89</ele>
        <time>2025-04-26T07:58:52Z</time>
      </trkpt>
      <trkpt lat="45.22446" lon="-1.13871">
        <ele>89</ele>
        <time>2025-04-26T07:58:53Z</time>
      </trkpt>
      <trkpt lat="45.22445" lon="-1.13874">
        <ele>89</ele>
        <time>2025-04-26T07:58:54Z</time>
      </trkpt>
      <trkpt lat="45.22444" lon="-1.13877">
        <ele>89</ele>
        <time>2025-04-26T07:58:55Z</time>
      </trkpt>
      <trkpt lat="45.22443" lon="-1.13881">
        <ele>89</ele>
        <time>2025-04-26T07:58:56Z</time>
      </trkpt>
      <trkpt lat="45.22442" lon="-1.13886">
        <ele>90</ele>
        <time>2025-04-26T07:58:57Z</time>
      </trkpt>
      <trkpt lat="45.22441" lon="-1.1389">
        <ele>90</ele>
        <time>2025-04-26T07:58:58Z</time>
      </trkpt>
      <trkpt lat="45.2244" lon="-1.13894">
        <ele>90</ele>
        <time>2025-04-26T07:58:59Z</time>
      </trkpt>
      <trkpt lat="45.22438" lon="-1.13898">
        <ele>90</ele>
        <time>2025-04-26T07:59:00Z</time>
      </trkpt>
      <trkpt lat="45.22437" lon="-1.13902">
        <ele>90</ele>
        <time>2025-04-26T07:59:01Z</time>
      </trkpt>
      <trkpt lat="45.22436" lon="-1.13906">
        <ele>89</ele>
        <time>2025-04-26T07:59:02Z</time>
      </trkpt>
      <trkpt lat="45.22435" lon="-1.13912">
        <ele>89</ele>
        <time>2025-04-26T07:59:03Z</time>
      </trkpt>
      <trkpt lat="45.22433" lon="-1.13917">
        <ele>89</ele>
        <time>2025-04-26T07:59:04Z</time>
      </trkpt>
      <trkpt lat="45.22432" lon="-1.13923">
        <ele>89</ele>
        <time>2025-04-26T07:59:05Z</time>
      </trkpt>
      <trkpt lat="45.22431" lon="-1.13929">
        <ele>89</ele>
        <time>2025-04-26T07:59:06Z</time>
      </trkpt>
      <trkpt lat="45.2243" lon="-1.13935">
        <ele>89</ele>
        <time>2025-04-26T07:59:07Z</time>
      </trkpt>
      <trkpt lat="45.22428" lon="-1.13941">
        <ele>88</ele>
        <time>2025-04-26T07:59:08Z</time>
      </trkpt>
      <trkpt lat="45.22427" lon="-1.13948">
        <ele>88</ele>
        <time>2025-04-26T07:59:09Z</time>
      </trkpt>
      <trkpt lat="45.22425" lon="-1.13955">
        <ele>87</ele>
        <time>2025-04-26T07:59:10Z</time>
      </trkpt>
      <trkpt lat="45.22424" lon="-1.1396">
        <ele>86</ele>
        <time>2025-04-26T07:59:11Z</time>
      </trkpt>
      <trkpt lat="45.22422" lon="-1.13967">
        <ele>85</ele>
        <time>2025-04-26T07:59:12Z</time>
      </trkpt>
      <trkpt lat="45.22421" lon="-1.13973">
        <ele>84</ele>
        <time>2025-04-26T07:59:13Z</time>
      </trkpt>
      <trkpt lat="45.2242" lon="-1.13978">
        <ele>83</ele>
        <time>2025-04-26T07:59:14Z</time>
      </trkpt>
      <trkpt lat="45.22418" lon="-1.13984">
        <ele>82</ele>
        <time>2025-04-26T07:59:15Z</time>
      </trkpt>
      <trkpt lat="45.22415" lon="-1.13991">
        <ele>83</ele>
        <time>2025-04-26T07:59:16Z</time>
      </trkpt>
      <trkpt lat="45.22412" lon="-1.13998">
        <ele>83</ele>
        <time>2025-04-26T07:59:17Z</time>
      </trkpt>
      <trkpt lat="45.22409" lon="-1.14004">
        <ele>82</ele>
        <time>2025-04-26T07:59:18Z</time>
      </trkpt>
      <trkpt lat="45.22406" lon="-1.1401">
        <ele>82</ele>
        <time>2025-04-26T07:59:19Z</time>
      </trkpt>
      <trkpt lat="45.22403" lon="-1.14015">
        <ele>82</ele>
        <time>2025-04-26T07:59:20Z</time>
      </trkpt>
      <trkpt lat="45.22401" lon="-1.14021">
        <ele>81</ele>
        <time>2025-04-26T07:59:21Z</time>
      </trkpt>
      <trkpt lat="45.22398" lon="-1.14027">
        <ele>81</ele>
        <time>2025-04-26T07:59:22Z</time>
      </trkpt>
      <trkpt lat="45.22395" lon="-1.14033">
        <ele>81</ele>
        <time>2025-04-26T07:59:23Z</time>
      </trkpt>
      <trkpt lat="45.22392" lon="-1.1404">
        <ele>80</ele>
        <time>2025-04-26T07:59:24Z</time>
      </trkpt>
      <trkpt lat="45.22389" lon="-1.14046">
        <ele>79</ele>
        <time>2025-04-26T07:59:25Z</time>
      </trkpt>
      <trkpt lat="45.22386" lon="-1.14053">
        <ele>79</ele>
        <time>2025-04-26T07:59:26Z</time>
      </trkpt>
      <trkpt lat="45.22384" lon="-1.14059">
        <ele>79</ele>
        <time>2025-04-26T07:59:27Z</time>
      </trkpt>
      <trkpt lat="45.2238" lon="-1.14065">
        <ele>79</ele>
        <time>2025-04-26T07:59:28Z</time>
      </trkpt>
      <trkpt lat="45.22376" lon="-1.14071">
        <ele>79</ele>
        <time>2025-04-26T07:59:29Z</time>
      </trkpt>
      <trkpt lat="45.22372" lon="-1.14077">
        <ele>79</ele>
        <time>2025-04-26T07:59:30Z</time>
      </trkpt>
      <trkpt lat="45.22368" lon="-1.14082">
        <ele>80</ele>
        <time>2025-04-26T07:59:31Z</time>
      </trkpt>
      <trkpt lat="45.22364" lon="-1.14086">
        <ele>80</ele>
        <time>2025-04-26T07:59:32Z</time>
      </trkpt>
      <trkpt lat="45.22361" lon="-1.14091">
        <ele>80</ele>
        <time>2025-04-26T07:59:33Z</time>
      </trkpt>
      <trkpt lat="45.22358" lon="-1.14095">
        <ele>80</ele>
        <time>2025-04-26T07:59:34Z</time>
      </trkpt>
      <trkpt lat="45.22355" lon="-1.14098">
        <ele>80</ele>
        <time>2025-04-26T07:59:35Z</time>
      </trkpt>
      <trkpt lat="45.22353" lon="-1.14102">
        <ele>81</ele>
        <time>2025-04-26T07:59:36Z</time>
      </trkpt>
      <trkpt lat="45.22351" lon="-1.14105">
        <ele>81</ele>
        <time>2025-04-26T07:59:37Z</time>
      </trkpt>
      <trkpt lat="45.22349" lon="-1.1411">
        <ele>81</ele>
        <time>2025-04-26T07:59:38Z</time>
      </trkpt>
      <trkpt lat="45.22347" lon="-1.14114">
        <ele>81</ele>
        <time>2025-04-26T07:59:39Z</time>
      </trkpt>
      <trkpt lat="45.22346" lon="-1.14119">
        <ele>81</ele>
        <time>2025-04-26T07:59:40Z</time>
      </trkpt>
      <trkpt lat="45.22345" lon="-1.14124">
        <ele>81</ele>
        <time>2025-04-26T07:59:41Z</time>
      </trkpt>
      <trkpt lat="45.22345" lon="-1.14129">
        <ele>81</ele>
        <time>2025-04-26T07:59:42Z</time>
      </trkpt>
      <trkpt lat="45.22346" lon="-1.14133">
        <ele>82</ele>
        <time>2025-04-26T07:59:43Z</time>
      </trkpt>
      <trkpt lat="45.22346" lon="-1.14137">
        <ele>83</ele>
        <time>2025-04-26T07:59:44Z</time>
      </trkpt>
      <trkpt lat="45.22347" lon="-1.1414">
        <ele>83</ele>
        <time>2025-04-26T07:59:45Z</time>
      </trkpt>
      <trkpt lat="45.22348" lon="-1.14144">
        <ele>84</ele>
        <time>2025-04-26T07:59:46Z</time>
      </trkpt>
      <trkpt lat="45.2235" lon="-1.14147">
        <ele>85</ele>
        <time>2025-04-26T07:59:47Z</time>
      </trkpt>
      <trkpt lat="45.22351" lon="-1.1415">
        <ele>86</ele>
        <time>2025-04-26T07:59:48Z</time>
      </trkpt>
      <trkpt lat="45.22353" lon="-1.14154">
        <ele>87</ele>
        <time>2025-04-26T07:59:49Z</time>
      </trkpt>
      <trkpt lat="45.22355" lon="-1.14158">
        <ele>88</ele>
        <time>2025-04-26T07:59:50Z</time>
      </trkpt>
      <trkpt lat="45.22357" lon="-1.14162">
        <ele>90</ele>
        <time>2025-04-26T07:59:51Z</time>
      </trkpt>
      <trkpt lat="45.2236" lon="-1.14167">
        <ele>91</ele>
        <time>2025-04-26T07:59:52Z</time>
      </trkpt>
      <trkpt lat="45.22363" lon="-1.14172">
        <ele>91</ele>
        <time>2025-04-26T07:59:53Z</time>
      </trkpt>
      <trkpt lat="45.22365" lon="-1.14177">
        <ele>92</ele>
        <time>2025-04-26T07:59:54Z</time>
      </trkpt>
      <trkpt lat="45.22368" lon="-1.14181">
        <ele>92</ele>
        <time>2025-04-26T07:59:55Z</time>
      </trkpt>
      <trkpt lat="45.22372" lon="-1.14188">
        <ele>91</ele>
        <time>2025-04-26T07:59:56Z</time>
      </trkpt>
      <trkpt lat="45.22375" lon="-1.14193">
        <ele>91</ele>
        <time>2025-04-26T07:59:57Z</time>
      </trkpt>
      <trkpt lat="45.22377" lon="-1.14197">
        <ele>90</ele>
        <time>2025-04-26T07:59:58Z</time>
      </trkpt>
      <trkpt lat="45.22379" lon="-1.14201">
        <ele>91</ele>
        <time>2025-04-26T07:59:59Z</time>
      </trkpt>
      <trkpt lat="45.22382" lon="-1.14206">
        <ele>90</ele>
        <time>2025-04-26T08:00:00Z</time>
      </trkpt>
      <trkpt lat="45.22384" lon="-1.1421">
        <ele>90</ele>
        <time>2025-04-26T08:00:01Z</time>
      </trkpt>
      <trkpt lat="45.22386" lon="-1.14213">
        <ele>90</ele>
        <time>2025-04-26T08:00:02Z</time>
      </trkpt>
      <trkpt lat="45.22388" lon="-1.14217">
        <ele>90</ele>
        <time>2025-04-26T08:00:03Z</time>
      </trkpt>
      <trkpt lat="45.2239" lon="-1.1422">
        <ele>90</ele>
        <time>2025-04-26T08:00:04Z</time>
      </trkpt>
      <trkpt lat="45.22392" lon="-1.14225">
        <ele>90</ele>
        <time>2025-04-26T08:00:05Z</time>
      </trkpt>
      <trkpt lat="45.22395" lon="-1.14229">
        <ele>91</ele>
        <time>2025-04-26T08:00:06Z</time>
      </trkpt>
      <trkpt lat="45.22398" lon="-1.14234">
        <ele>89</ele>
        <time>2025-04-26T08:00:07Z</time>
      </trkpt>
      <trkpt lat="45.22401" lon="-1.14239">
        <ele>89</ele>
        <time>2025-04-26T08:00:08Z</time>
      </trkpt>
      <trkpt lat="45.22404" lon="-1.14243">
        <ele>88</ele>
        <time>2025-04-26T08:00:09Z</time>
      </trkpt>
      <trkpt lat="45.22407" lon="-1.14246">
        <ele>88</ele>
        <time>2025-04-26T08:00:10Z</time>
      </trkpt>
      <trkpt lat="45.2241" lon="-1.1425">
        <ele>88</ele>
        <time>2025-04-26T08:00:11Z</time>
      </trkpt>
      <trkpt lat="45.22412" lon="-1.14253">
        <ele>87</ele>
        <time>2025-04-26T08:00:12Z</time>
      </trkpt>
      <trkpt lat="45.22414" lon="-1.14256">
        <ele>87</ele>
        <time>2025-04-26T08:00:13Z</time>
      </trkpt>
      <trkpt lat="45.22416" lon="-1.1426">
        <ele>87</ele>
        <time>2025-04-26T08:00:14Z</time>
      </trkpt>
      <trkpt lat="45.22418" lon="-1.14263">
        <ele>87</ele>
        <time>2025-04-26T08:00:15Z</time>
      </trkpt>
      <trkpt lat="45.22419" lon="-1.14267">
        <ele>87</ele>
        <time>2025-04-26T08:00:16Z</time>
      </trkpt>
      <trkpt lat="45.22421" lon="-1.14271">
        <ele>87</ele>
        <time>2025-04-26T08:00:17Z</time>
      </trkpt>
      <trkpt lat="45.22422" lon="-1.14274">
        <ele>87</ele>
        <time>2025-04-26T08:00:18Z</time>
      </trkpt>
      <trkpt lat="45.22423" lon="-1.14277">
        <ele>86</ele>
        <time>2025-04-26T08:00:19Z</time>
      </trkpt>
      <trkpt lat="45.22424" lon="-1.1428">
        <ele>86</ele>
        <time>2025-04-26T08:00:20Z</time>
      </trkpt>
      <trkpt lat="45.22425" lon="-1.14282">
        <ele>86</ele>
        <time>2025-04-26T08:00:21Z</time>
      </trkpt>
      <trkpt lat="45.22425" lon="-1.14286">
        <ele>86</ele>
        <time>2025-04-26T08:00:22Z</time>
      </trkpt>
      <trkpt lat="45.22426" lon="-1.1429">
        <ele>86</ele>
        <time>2025-04-26T08:00:23Z</time>
      </trkpt>
      <trkpt lat="45.22427" lon="-1.14294">
        <ele>86</ele>
        <time>2025-04-26T08:00:24Z</time>
      </trkpt>
      <trkpt lat="45.22427" lon="-1.14298">
        <ele>86</ele>
        <time>2025-04-26T08:00:25Z</time>
      </trkpt>
      <trkpt lat="45.22428" lon="-1.14302">
        <ele>85</ele>
        <time>2025-04-26T08:00:26Z</time>
      </trkpt>
      <trkpt lat="45.22428" lon="-1.14305">
        <ele>85</ele>
        <time>2025-04-26T08:00:27Z</time>
      </trkpt>
      <trkpt lat="45.22428" lon="-1.14307">
        <ele>85</ele>
        <time>2025-04-26T08:00:28Z</time>
      </trkpt>
      <trkpt lat="45.22429" lon="-1.1431">
        <ele>86</ele>
        <time>2025-04-26T08:00:29Z</time>
      </trkpt>
      <trkpt lat="45.22429" lon="-1.14312">
        <ele>86</ele>
        <time>2025-04-26T08:00:30Z</time>
      </trkpt>
      <trkpt lat="45.22429" lon="-1.14315">
        <ele>87</ele>
        <time>2025-04-26T08:00:31Z</time>
      </trkpt>
      <trkpt lat="45.22429" lon="-1.14318">
        <ele>87</ele>
        <time>2025-04-26T08:00:32Z</time>
      </trkpt>
      <trkpt lat="45.22429" lon="-1.1432">
        <ele>87</ele>
        <time>2025-04-26T08:00:33Z</time>
      </trkpt>
      <trkpt lat="45.2243" lon="-1.14323">
        <ele>88</ele>
        <time>2025-04-26T08:00:34Z</time>
      </trkpt>
      <trkpt lat="45.2243" lon="-1.14325">
        <ele>88</ele>
        <time>2025-04-26T08:00:35Z</time>
      </trkpt>
      <trkpt lat="45.22431" lon="-1.14328">
        <ele>88</ele>
        <time>2025-04-26T08:00:36Z</time>
      </trkpt>
      <trkpt lat="45.22431" lon="-1.14331">
        <ele>88</ele>
        <time>2025-04-26T08:00:37Z</time>
      </trkpt>
      <trkpt lat="45.22432" lon="-1.14334">
        <ele>89</ele>
        <time>2025-04-26T08:00:38Z</time>
      </trkpt>
      <trkpt lat="45.22432" lon="-1.14338">
        <ele>89</ele>
        <time>2025-04-26T08:00:39Z</time>
      </trkpt>
      <trkpt lat="45.22433" lon="-1.14341">
        <ele>88</ele>
        <time>2025-04-26T08:00:40Z</time>
      </trkpt>
      <trkpt lat="45.22433" lon="-1.14344">
        <ele>88</ele>
        <time>2025-04-26T08:00:41Z</time>
      </trkpt>
      <trkpt lat="45.22433" lon="-1.14347">
        <ele>88</ele>
        <time>2025-04-26T08:00:42Z</time>
      </trkpt>
      <trkpt lat="45.22433" lon="-1.1435">
        <ele>88</ele>
        <time>2025-04-26T08:00:43Z</time>
      </trkpt>
      <trkpt lat="45.22433" lon="-1.14353">
        <ele>88</ele>
        <time>2025-04-26T08:00:44Z</time>
      </trkpt>
      <trkpt lat="45.22433" lon="-1.14356">
        <ele>88</ele>
        <time>2025-04-26T08:00:45Z</time>
      </trkpt>
      <trkpt lat="45.22433" lon="-1.14359">
        <ele>89</ele>
        <time>2025-04-26T08:00:46Z</time>
      </trkpt>
      <trkpt lat="45.22434" lon="-1.14363">
        <ele>89</ele>
        <time>2025-04-26T08:00:47Z</time>
      </trkpt>
      <trkpt lat="45.22434" lon="-1.14366">
        <ele>89</ele>
        <time>2025-04-26T08:00:48Z</time>
      </trkpt>
      <trkpt lat="45.22435" lon="-1.14369">
        <ele>89</ele>
        <time>2025-04-26T08:00:49Z</time>
      </trkpt>
      <trkpt lat="45.22435" lon="-1.14371">
        <ele>89</ele>
        <time>2025-04-26T08:00:50Z</time>
      </trkpt>
      <trkpt lat="45.22435" lon="-1.14374">
        <ele>89</ele>
        <time>2025-04-26T08:00:51Z</time>
      </trkpt>
      <trkpt lat="45.22436" lon="-1.14376">
        <ele>89</ele>
        <time>2025-04-26T08:00:52Z</time>
      </trkpt>
      <trkpt lat="45.22437" lon="-1.14381">
        <ele>89</ele>
        <time>2025-04-26T08:00:53Z</time>
      </trkpt>
      <trkpt lat="45.22438" lon="-1.14385">
        <ele>88</ele>
        <time>2025-04-26T08:00:54Z</time>
      </trkpt>
      <trkpt lat="45.22438" lon="-1.14389">
        <ele>87</ele>
        <time>2025-04-26T08:00:55Z</time>
      </trkpt>
      <trkpt lat="45.22437" lon="-1.14392">
        <ele>88</ele>
        <time>2025-04-26T08:00:56Z</time>
      </trkpt>
      <trkpt lat="45.22437" lon="-1.14396">
        <ele>88</ele>
        <time>2025-04-26T08:00:57Z</time>
      </trkpt>
      <trkpt lat="45.22437" lon="-1.14399">
        <ele>88</ele>
        <time>2025-04-26T08:00:58Z</time>
      </trkpt>
      <trkpt lat="45.22437" lon="-1.14402">
        <ele>88</ele>
        <time>2025-04-26T08:00:59Z</time>
      </trkpt>
      <trkpt lat="45.22437" lon="-1.14405">
        <ele>88</ele>
        <time>2025-04-26T08:01:00Z</time>
      </trkpt>
      <trkpt lat="45.22437" lon="-1.14408">
        <ele>88</ele>
        <time>2025-04-26T08:01:01Z</time>
      </trkpt>
      <trkpt lat="45.22436" lon="-1.14411">
        <ele>88</ele>
        <time>2025-04-26T08:01:02Z</time>
      </trkpt>
      <trkpt lat="45.22436" lon="-1.14414">
        <ele>87</ele>
        <time>2025-04-26T08:01:03Z</time>
      </trkpt>
      <trkpt lat="45.22435" lon="-1.14416">
        <ele>87</ele>
        <time>2025-04-26T08:01:04Z</time>
      </trkpt>
      <trkpt lat="45.22435" lon="-1.14419">
        <ele>87</ele>
        <time>2025-04-26T08:01:05Z</time>
      </trkpt>
      <trkpt lat="45.22434" lon="-1.14422">
        <ele>87</ele>
        <time>2025-04-26T08:01:06Z</time>
      </trkpt>
      <trkpt lat="45.22433" lon="-1.14425">
        <ele>87</ele>
        <time>2025-04-26T08:01:07Z</time>
      </trkpt>
      <trkpt lat="45.22433" lon="-1.14428">
        <ele>86</ele>
        <time>2025-04-26T08:01:08Z</time>
      </trkpt>
      <trkpt lat="45.22432" lon="-1.14432">
        <ele>86</ele>
        <time>2025-04-26T08:01:09Z</time>
      </trkpt>
      <trkpt lat="45.22432" lon="-1.14435">
        <ele>86</ele>
        <time>2025-04-26T08:01:10Z</time>
      </trkpt>
      <trkpt lat="45.2243" lon="-1.14439">
        <ele>87</ele>
        <time>2025-04-26T08:01:11Z</time>
      </trkpt>
      <trkpt lat="45.22429" lon="-1.14443">
        <ele>87</ele>
        <time>2025-04-26T08:01:12Z</time>
      </trkpt>
      <trkpt lat="45.22428" lon="-1.14446">
        <ele>87</ele>
        <time>2025-04-26T08:01:13Z</time>
      </trkpt>
      <trkpt lat="45.22427" lon="-1.14449">
        <ele>87</ele>
        <time>2025-04-26T08:01:14Z</time>
      </trkpt>
      <trkpt lat="45.22425" lon="-1.14452">
        <ele>87</ele>
        <time>2025-04-26T08:01:15Z</time>
      </trkpt>
      <trkpt lat="45.22424" lon="-1.14455">
        <ele>87</ele>
        <time>2025-04-26T08:01:16Z</time>
      </trkpt>
      <trkpt lat="45.22424" lon="-1.14458">
        <ele>87</ele>
        <time>2025-04-26T08:01:17Z</time>
      </trkpt>
      <trkpt lat="45.22422" lon="-1.1446">
        <ele>87</ele>
        <time>2025-04-26T08:01:18Z</time>
      </trkpt>
      <trkpt lat="45.22421" lon="-1.14463">
        <ele>87</ele>
        <time>2025-04-26T08:01:19Z</time>
      </trkpt>
      <trkpt lat="45.2242" lon="-1.14465">
        <ele>86</ele>
        <time>2025-04-26T08:01:20Z</time>
      </trkpt>
      <trkpt lat="45.22419" lon="-1.14468">
        <ele>86</ele>
        <time>2025-04-26T08:01:21Z</time>
      </trkpt>
      <trkpt lat="45.22417" lon="-1.1447">
        <ele>86</ele>
        <time>2025-04-26T08:01:22Z</time>
      </trkpt>
      <trkpt lat="45.22416" lon="-1.14472">
        <ele>86</ele>
        <time>2025-04-26T08:01:23Z</time>
      </trkpt>
      <trkpt lat="45.22414" lon="-1.14474">
        <ele>86</ele>
        <time>2025-04-26T08:01:24Z</time>
      </trkpt>
      <trkpt lat="45.22413" lon="-1.14476">
        <ele>87</ele>
        <time>2025-04-26T08:01:25Z</time>
      </trkpt>
      <trkpt lat="45.22411" lon="-1.14478">
        <ele>87</ele>
        <time>2025-04-26T08:01:26Z</time>
      </trkpt>
      <trkpt lat="45.22409" lon="-1.1448">
        <ele>87</ele>
        <time>2025-04-26T08:01:27Z</time>
      </trkpt>
      <trkpt lat="45.22407" lon="-1.14481">
        <ele>88</ele>
        <time>2025-04-26T08:01:28Z</time>
      </trkpt>
      <trkpt lat="45.22405" lon="-1.14483">
        <ele>88</ele>
        <time>2025-04-26T08:01:29Z</time>
      </trkpt>
      <trkpt lat="45.22403" lon="-1.14484">
        <ele>89</ele>
        <time>2025-04-26T08:01:30Z</time>
      </trkpt>
      <trkpt lat="45.22402" lon="-1.14485">
        <ele>90</ele>
        <time>2025-04-26T08:01:31Z</time>
      </trkpt>
      <trkpt lat="45.22401" lon="-1.14485">
        <ele>90</ele>
        <time>2025-04-26T08:01:32Z</time>
      </trkpt>
      <trkpt lat="45.22399" lon="-1.14486">
        <ele>91</ele>
        <time>2025-04-26T08:01:33Z</time>
      </trkpt>
      <trkpt lat="45.22396" lon="-1.14486">
        <ele>91</ele>
        <time>2025-04-26T08:01:34Z</time>
      </trkpt>
      <trkpt lat="45.22394" lon="-1.14487">
        <ele>91</ele>
        <time>2025-04-26T08:01:35Z</time>
      </trkpt>
      <trkpt lat="45.22392" lon="-1.14488">
        <ele>91</ele>
        <time>2025-04-26T08:01:36Z</time>
      </trkpt>
      <trkpt lat="45.2239" lon="-1.14489">
        <ele>92</ele>
        <time>2025-04-26T08:01:37Z</time>
      </trkpt>
      <trkpt lat="45.22389" lon="-1.14489">
        <ele>92</ele>
        <time>2025-04-26T08:01:38Z</time>
      </trkpt>
      <trkpt lat="45.22387" lon="-1.14489">
        <ele>92</ele>
        <time>2025-04-26T08:01:39Z</time>
      </trkpt>
      <trkpt lat="45.22385" lon="-1.14489">
        <ele>93</ele>
        <time>2025-04-26T08:01:40Z</time>
      </trkpt>
      <trkpt lat="45.22383" lon="-1.1449">
        <ele>93</ele>
        <time>2025-04-26T08:01:41Z</time>
      </trkpt>
      <trkpt lat="45.22382" lon="-1.14491">
        <ele>93</ele>
        <time>2025-04-26T08:01:42Z</time>
      </trkpt>
      <trkpt lat="45.2238" lon="-1.14491">
        <ele>93</ele>
        <time>2025-04-26T08:01:43Z</time>
      </trkpt>
      <trkpt lat="45.22378" lon="-1.14491">
        <ele>94</ele>
        <time>2025-04-26T08:01:44Z</time>
      </trkpt>
      <trkpt lat="45.22377" lon="-1.14491">
        <ele>94</ele>
        <time>2025-04-26T08:01:45Z</time>
      </trkpt>
      <trkpt lat="45.22375" lon="-1.14492">
        <ele>94</ele>
        <time>2025-04-26T08:01:46Z</time>
      </trkpt>
      <trkpt lat="45.22374" lon="-1.14492">
        <ele>95</ele>
        <time>2025-04-26T08:01:47Z</time>
      </trkpt>
      <trkpt lat="45.22372" lon="-1.14493">
        <ele>95</ele>
        <time>2025-04-26T08:01:48Z</time>
      </trkpt>
      <trkpt lat="45.2237" lon="-1.14494">
        <ele>95</ele>
        <time>2025-04-26T08:01:49Z</time>
      </trkpt>
      <trkpt lat="45.22368" lon="-1.14495">
        <ele>95</ele>
        <time>2025-04-26T08:01:50Z</time>
      </trkpt>
      <trkpt lat="45.22366" lon="-1.14495">
        <ele>95</ele>
        <time>2025-04-26T08:01:51Z</time>
      </trkpt>
      <trkpt lat="45.22363" lon="-1.14496">
        <ele>96</ele>
        <time>2025-04-26T08:01:52Z</time>
      </trkpt>
      <trkpt lat="45.22361" lon="-1.14496">
        <ele>96</ele>
        <time>2025-04-26T08:01:53Z</time>
      </trkpt>
      <trkpt lat="45.22358" lon="-1.14498">
        <ele>96</ele>
        <time>2025-04-26T08:01:54Z</time>
      </trkpt>
      <trkpt lat="45.22356" lon="-1.145">
        <ele>96</ele>
        <time>2025-04-26T08:01:55Z</time>
      </trkpt>
      <trkpt lat="45.22355" lon="-1.14502">
        <ele>95</ele>
        <time>2025-04-26T08:01:56Z</time>
      </trkpt>
      <trkpt lat="45.22353" lon="-1.14504">
        <ele>95</ele>
        <time>2025-04-26T08:01:57Z</time>
      </trkpt>
      <trkpt lat="45.22351" lon="-1.14506">
        <ele>95</ele>
        <time>2025-04-26T08:01:58Z</time>
      </trkpt>
      <trkpt lat="45.2235" lon="-1.14509">
        <ele>95</ele>
        <time>2025-04-26T08:01:59Z</time>
      </trkpt>
      <trkpt lat="45.22349" lon="-1.14511">
        <ele>95</ele>
        <time>2025-04-26T08:02:00Z</time>
      </trkpt>
      <trkpt lat="45.22348" lon="-1.14514">
        <ele>94</ele>
        <time>2025-04-26T08:02:01Z</time>
      </trkpt>
      <trkpt lat="45.22347" lon="-1.14517">
        <ele>95</ele>
        <time>2025-04-26T08:02:02Z</time>
      </trkpt>
      <trkpt lat="45.22346" lon="-1.1452">
        <ele>94</ele>
        <time>2025-04-26T08:02:03Z</time>
      </trkpt>
      <trkpt lat="45.22346" lon="-1.14523">
        <ele>94</ele>
        <time>2025-04-26T08:02:04Z</time>
      </trkpt>
      <trkpt lat="45.22345" lon="-1.14526">
        <ele>94</ele>
        <time>2025-04-26T08:02:05Z</time>
      </trkpt>
      <trkpt lat="45.22344" lon="-1.14529">
        <ele>94</ele>
        <time>2025-04-26T08:02:06Z</time>
      </trkpt>
      <trkpt lat="45.22343" lon="-1.14531">
        <ele>94</ele>
        <time>2025-04-26T08:02:07Z</time>
      </trkpt>
      <trkpt lat="45.22342" lon="-1.14534">
        <ele>94</ele>
        <time>2025-04-26T08:02:08Z</time>
      </trkpt>
      <trkpt lat="45.22341" lon="-1.14536">
        <ele>93</ele>
        <time>2025-04-26T08:02:09Z</time>
      </trkpt>
      <trkpt lat="45.2234" lon="-1.1454">
        <ele>93</ele>
        <time>2025-04-26T08:02:10Z</time>
      </trkpt>
      <trkpt lat="45.22338" lon="-1.14543">
        <ele>93</ele>
        <time>2025-04-26T08:02:11Z</time>
      </trkpt>
      <trkpt lat="45.22337" lon="-1.14546">
        <ele>92</ele>
        <time>2025-04-26T08:02:12Z</time>
      </trkpt>
      <trkpt lat="45.22335" lon="-1.1455">
        <ele>91</ele>
        <time>2025-04-26T08:02:13Z</time>
      </trkpt>
      <trkpt lat="45.22334" lon="-1.14553">
        <ele>91</ele>
        <time>2025-04-26T08:02:14Z</time>
      </trkpt>
      <trkpt lat="45.22333" lon="-1.14555">
        <ele>91</ele>
        <time>2025-04-26T08:02:15Z</time>
      </trkpt>
      <trkpt lat="45.22332" lon="-1.14558">
        <ele>90</ele>
        <time>2025-04-26T08:02:16Z</time>
      </trkpt>
      <trkpt lat="45.22331" lon="-1.1456">
        <ele>90</ele>
        <time>2025-04-26T08:02:17Z</time>
      </trkpt>
      <trkpt lat="45.22329" lon="-1.14563">
        <ele>90</ele>
        <time>2025-04-26T08:02:18Z</time>
      </trkpt>
      <trkpt lat="45.22328" lon="-1.14566">
        <ele>89</ele>
        <time>2025-04-26T08:02:19Z</time>
      </trkpt>
      <trkpt lat="45.22327" lon="-1.14568">
        <ele>89</ele>
        <time>2025-04-26T08:02:20Z</time>
      </trkpt>
      <trkpt lat="45.22327" lon="-1.1457">
        <ele>89</ele>
        <time>2025-04-26T08:02:21Z</time>
      </trkpt>
      <trkpt lat="45.22326" lon="-1.14573">
        <ele>89</ele>
        <time>2025-04-26T08:02:22Z</time>
      </trkpt>
      <trkpt lat="45.22325" lon="-1.14575">
        <ele>89</ele>
        <time>2025-04-26T08:02:23Z</time>
      </trkpt>
      <trkpt lat="45.22324" lon="-1.14577">
        <ele>89</ele>
        <time>2025-04-26T08:02:24Z</time>
      </trkpt>
      <trkpt lat="45.22324" lon="-1.14579">
        <ele>89</ele>
        <time>2025-04-26T08:02:25Z</time>
      </trkpt>
      <trkpt lat="45.22323" lon="-1.14581">
        <ele>89</ele>
        <time>2025-04-26T08:02:26Z</time>
      </trkpt>
      <trkpt lat="45.22322" lon="-1.14584">
        <ele>90</ele>
        <time>2025-04-26T08:02:27Z</time>
      </trkpt>
      <trkpt lat="45.22321" lon="-1.14586">
        <ele>90</ele>
        <time>2025-04-26T08:02:28Z</time>
      </trkpt>
      <trkpt lat="45.2232" lon="-1.14588">
        <ele>90</ele>
        <time>2025-04-26T08:02:29Z</time>
      </trkpt>
      <trkpt lat="45.22318" lon="-1.14591">
        <ele>90</ele>
        <time>2025-04-26T08:02:30Z</time>
      </trkpt>
      <trkpt lat="45.22317" lon="-1.14593">
        <ele>91</ele>
        <time>2025-04-26T08:02:31Z</time>
      </trkpt>
      <trkpt lat="45.22315" lon="-1.14596">
        <ele>91</ele>
        <time>2025-04-26T08:02:32Z</time>
      </trkpt>
      <trkpt lat="45.22314" lon="-1.14598">
        <ele>91</ele>
        <time>2025-04-26T08:02:33Z</time>
      </trkpt>
      <trkpt lat="45.22312" lon="-1.14601">
        <ele>91</ele>
        <time>2025-04-26T08:02:34Z</time>
      </trkpt>
      <trkpt lat="45.22311" lon="-1.14603">
        <ele>92</ele>
        <time>2025-04-26T08:02:35Z</time>
      </trkpt>
      <trkpt lat="45.22309" lon="-1.14606">
        <ele>92</ele>
        <time>2025-04-26T08:02:36Z</time>
      </trkpt>
      <trkpt lat="45.22307" lon="-1.14608">
        <ele>92</ele>
        <time>2025-04-26T08:02:37Z</time>
      </trkpt>
      <trkpt lat="45.22305" lon="-1.14611">
        <ele>93</ele>
        <time>2025-04-26T08:02:38Z</time>
      </trkpt>
      <trkpt lat="45.22302" lon="-1.14614">
        <ele>93</ele>
        <time>2025-04-26T08:02:39Z</time>
      </trkpt>
      <trkpt lat="45.22299" lon="-1.14617">
        <ele>93</ele>
        <time>2025-04-26T08:02:40Z</time>
      </trkpt>
      <trkpt lat="45.22297" lon="-1.14621">
        <ele>94</ele>
        <time>2025-04-26T08:02:41Z</time>
      </trkpt>
      <trkpt lat="45.22294" lon="-1.14624">
        <ele>94</ele>
        <time>2025-04-26T08:02:42Z</time>
      </trkpt>
      <trkpt lat="45.22292" lon="-1.14627">
        <ele>94</ele>
        <time>2025-04-26T08:02:43Z</time>
      </trkpt>
      <trkpt lat="45.22289" lon="-1.1463">
        <ele>94</ele>
        <time>2025-04-26T08:02:44Z</time>
      </trkpt>
      <trkpt lat="45.22286" lon="-1.14633">
        <ele>94</ele>
        <time>2025-04-26T08:02:45Z</time>
      </trkpt>
      <trkpt lat="45.22283" lon="-1.14635">
        <ele>94</ele>
        <time>2025-04-26T08:02:46Z</time>
      </trkpt>
      <trkpt lat="45.2228" lon="-1.14638">
        <ele>94</ele>
        <time>2025-04-26T08:02:47Z</time>
      </trkpt>
      <trkpt lat="45.22277" lon="-1.14641">
        <ele>94</ele>
        <time>2025-04-26T08:02:48Z</time>
      </trkpt>
      <trkpt lat="45.22274" lon="-1.14642">
        <ele>95</ele>
        <time>2025-04-26T08:02:49Z</time>
      </trkpt>
      <trkpt lat="45.22271" lon="-1.14644">
        <ele>95</ele>
        <time>2025-04-26T08:02:50Z</time>
      </trkpt>
      <trkpt lat="45.22269" lon="-1.14646">
        <ele>95</ele>
        <time>2025-04-26T08:02:51Z</time>
      </trkpt>
      <trkpt lat="45.22266" lon="-1.14649">
        <ele>95</ele>
        <time>2025-04-26T08:02:52Z</time>
      </trkpt>
      <trkpt lat="45.22264" lon="-1.14651">
        <ele>96</ele>
        <time>2025-04-26T08:02:53Z</time>
      </trkpt>
      <trkpt lat="45.22262" lon="-1.14653">
        <ele>96</ele>
        <time>2025-04-26T08:02:54Z</time>
      </trkpt>
      <trkpt lat="45.2226" lon="-1.14655">
        <ele>96</ele>
        <time>2025-04-26T08:02:55Z</time>
      </trkpt>
      <trkpt lat="45.22258" lon="-1.14657">
        <ele>96</ele>
        <time>2025-04-26T08:02:56Z</time>
      </trkpt>
      <trkpt lat="45.22257" lon="-1.14658">
        <ele>96</ele>
        <time>2025-04-26T08:02:57Z</time>
      </trkpt>
      <trkpt lat="45.22254" lon="-1.14658">
        <ele>96</ele>
        <time>2025-04-26T08:02:58Z</time>
      </trkpt>
      <trkpt lat="45.22251" lon="-1.1466">
        <ele>95</ele>
        <time>2025-04-26T08:02:59Z</time>
      </trkpt>
      <trkpt lat="45.22249" lon="-1.1466">
        <ele>96</ele>
        <time>2025-04-26T08:03:00Z</time>
      </trkpt>
      <trkpt lat="45.22247" lon="-1.14661">
        <ele>96</ele>
        <time>2025-04-26T08:03:01Z</time>
      </trkpt>
      <trkpt lat="45.22245" lon="-1.14662">
        <ele>96</ele>
        <time>2025-04-26T08:03:02Z</time>
      </trkpt>
      <trkpt lat="45.22244" lon="-1.14662">
        <ele>96</ele>
        <time>2025-04-26T08:03:03Z</time>
      </trkpt>
      <trkpt lat="45.22242" lon="-1.14662">
        <ele>97</ele>
        <time>2025-04-26T08:03:04Z</time>
      </trkpt>
      <trkpt lat="45.2224" lon="-1.14662">
        <ele>97</ele>
        <time>2025-04-26T08:03:05Z</time>
      </trkpt>
      <trkpt lat="45.22238" lon="-1.14662">
        <ele>97</ele>
        <time>2025-04-26T08:03:06Z</time>
      </trkpt>
      <trkpt lat="45.22237" lon="-1.14663">
        <ele>97</ele>
        <time>2025-04-26T08:03:07Z</time>
      </trkpt>
      <trkpt lat="45.22236" lon="-1.14663">
        <ele>97</ele>
        <time>2025-04-26T08:03:08Z</time>
      </trkpt>
      <trkpt lat="45.22235" lon="-1.14663">
        <ele>98</ele>
        <time>2025-04-26T08:03:09Z</time>
      </trkpt>
      <trkpt lat="45.22233" lon="-1.14663">
        <ele>98</ele>
        <time>2025-04-26T08:03:10Z</time>
      </trkpt>
      <trkpt lat="45.22232" lon="-1.14664">
        <ele>98</ele>
        <time>2025-04-26T08:03:11Z</time>
      </trkpt>
      <trkpt lat="45.22231" lon="-1.14664">
        <ele>99</ele>
        <time>2025-04-26T08:03:12Z</time>
      </trkpt>
      <trkpt lat="45.2223" lon="-1.14664">
        <ele>99</ele>
        <time>2025-04-26T08:03:13Z</time>
      </trkpt>
      <trkpt lat="45.22229" lon="-1.14664">
        <ele>99</ele>
        <time>2025-04-26T08:03:14Z</time>
      </trkpt>
      <trkpt lat="45.22227" lon="-1.14664">
        <ele>100</ele>
        <time>2025-04-26T08:03:15Z</time>
      </trkpt>
      <trkpt lat="45.22226" lon="-1.14665">
        <ele>100</ele>
        <time>2025-04-26T08:03:16Z</time>
      </trkpt>
      <trkpt lat="45.22225" lon="-1.14665">
        <ele>100</ele>
        <time>2025-04-26T08:03:17Z</time>
      </trkpt>
      <trkpt lat="45.22224" lon="-1.14665">
        <ele>100</ele>
        <time>2025-04-26T08:03:18Z</time>
      </trkpt>
      <trkpt lat="45.22223" lon="-1.14665">
        <ele>101</ele>
        <time>2025-04-26T08:03:19Z</time>
      </trkpt>
      <trkpt lat="45.22221" lon="-1.14665">
        <ele>101</ele>
        <time>2025-04-26T08:03:20Z</time>
      </trkpt>
      <trkpt lat="45.2222" lon="-1.14665">
        <ele>101</ele>
        <time>2025-04-26T08:03:21Z</time>
      </trkpt>
      <trkpt lat="45.22219" lon="-1.14665">
        <ele>101</ele>
        <time>2025-04-26T08:03:22Z</time>
      </trkpt>
      <trkpt lat="45.22218" lon="-1.14665">
        <ele>102</ele>
        <time>2025-04-26T08:03:23Z</time>
      </trkpt>
      <trkpt lat="45.22217" lon="-1.14665">
        <ele>102</ele>
        <time>2025-04-26T08:03:24Z</time>
      </trkpt>
      <trkpt lat="45.22216" lon="-1.14665">
        <ele>102</ele>
        <time>2025-04-26T08:03:25Z</time>
      </trkpt>
      <trkpt lat="45.22215" lon="-1.14666">
        <ele>101</ele>
        <time>2025-04-26T08:03:26Z</time>
      </trkpt>
      <trkpt lat="45.22214" lon="-1.14666">
        <ele>101</ele>
        <time>2025-04-26T08:03:27Z</time>
      </trkpt>
      <trkpt lat="45.22213" lon="-1.14666">
        <ele>102</ele>
        <time>2025-04-26T08:03:28Z</time>
      </trkpt>
      <trkpt lat="45.22212" lon="-1.14667">
        <ele>102</ele>
        <time>2025-04-26T08:03:29Z</time>
      </trkpt>
      <trkpt lat="45.22212" lon="-1.14667">
        <ele>102</ele>
        <time>2025-04-26T08:03:30Z</time>
      </trkpt>
      <trkpt lat="45.22212" lon="-1.14667">
        <ele>102</ele>
        <time>2025-04-26T08:03:31Z</time>
      </trkpt>
      <trkpt lat="45.22213" lon="-1.14667">
        <ele>102</ele>
        <time>2025-04-26T08:03:32Z</time>
      </trkpt>
      <trkpt lat="45.22213" lon="-1.14667">
        <ele>102</ele>
        <time>2025-04-26T08:03:33Z</time>
      </trkpt>
      <trkpt lat="45.22213" lon="-1.14666">
        <ele>103</ele>
        <time>2025-04-26T08:03:34Z</time>
      </trkpt>
      <trkpt lat="45.22212" lon="-1.14666">
        <ele>103</ele>
        <time>2025-04-26T08:03:35Z</time>
      </trkpt>
      <trkpt lat="45.22212" lon="-1.14666">
        <ele>103</ele>
        <time>2025-04-26T08:03:36Z</time>
      </trkpt>
      <trkpt lat="45.22211" lon="-1.14667">
        <ele>103</ele>
        <time>2025-04-26T08:03:37Z</time>
      </trkpt>
      <trkpt lat="45.2221" lon="-1.14667">
        <ele>103</ele>
        <time>2025-04-26T08:03:38Z</time>
      </trkpt>
      <trkpt lat="45.2221" lon="-1.14667">
        <ele>104</ele>
        <time>2025-04-26T08:03:39Z</time>
      </trkpt>
      <trkpt lat="45.2221" lon="-1.14668">
        <ele>104</ele>
        <time>2025-04-26T08:03:40Z</time>
      </trkpt>
      <trkpt lat="45.2221" lon="-1.14668">
        <ele>104</ele>
        <time>2025-04-26T08:03:41Z</time>
      </trkpt>
      <trkpt lat="45.22209" lon="-1.14668">
        <ele>105</ele>
        <time>2025-04-26T08:03:42Z</time>
      </trkpt>
      <trkpt lat="45.22208" lon="-1.14669">
        <ele>105</ele>
        <time>2025-04-26T08:03:43Z</time>
      </trkpt>
      <trkpt lat="45.22208" lon="-1.14671">
        <ele>105</ele>
        <time>2025-04-26T08:03:44Z</time>
      </trkpt>
      <trkpt lat="45.22207" lon="-1.14672">
        <ele>105</ele>
        <time>2025-04-26T08:03:45Z</time>
      </trkpt>
      <trkpt lat="45.22206" lon="-1.14674">
        <ele>105</ele>
        <time>2025-04-26T08:03:46Z</time>
      </trkpt>
      <trkpt lat="45.22205" lon="-1.14675">
        <ele>105</ele>
        <time>2025-04-26T08:03:47Z</time>
      </trkpt>
      <trkpt lat="45.22204" lon="-1.14677">
        <ele>105</ele>
        <time>2025-04-26T08:03:48Z</time>
      </trkpt>
      <trkpt lat="45.22202" lon="-1.14678">
        <ele>104</ele>
        <time>2025-04-26T08:03:49Z</time>
      </trkpt>
      <trkpt lat="45.22201" lon="-1.14679">
        <ele>104</ele>
        <time>2025-04-26T08:03:50Z</time>
      </trkpt>
      <trkpt lat="45.222" lon="-1.1468">
        <ele>104</ele>
        <time>2025-04-26T08:03:51Z</time>
      </trkpt>
      <trkpt lat="45.22199" lon="-1.14682">
        <ele>104</ele>
        <time>2025-04-26T08:03:52Z</time>
      </trkpt>
      <trkpt lat="45.22198" lon="-1.14683">
        <ele>104</ele>
        <time>2025-04-26T08:03:53Z</time>
      </trkpt>
      <trkpt lat="45.22196" lon="-1.14685">
        <ele>104</ele>
        <time>2025-04-26T08:03:54Z</time>
      </trkpt>
      <trkpt lat="45.22195" lon="-1.14687">
        <ele>103</ele>
        <time>2025-04-26T08:03:55Z</time>
      </trkpt>
      <trkpt lat="45.22194" lon="-1.14689">
        <ele>103</ele>
        <time>2025-04-26T08:03:56Z</time>
      </trkpt>
      <trkpt lat="45.22192" lon="-1.14691">
        <ele>103</ele>
        <time>2025-04-26T08:03:57Z</time>
      </trkpt>
      <trkpt lat="45.22191" lon="-1.14693">
        <ele>103</ele>
        <time>2025-04-26T08:03:58Z</time>
      </trkpt>
      <trkpt lat="45.22189" lon="-1.14695">
        <ele>103</ele>
        <time>2025-04-26T08:03:59Z</time>
      </trkpt>
      <trkpt lat="45.22188" lon="-1.14697">
        <ele>103</ele>
        <time>2025-04-26T08:04:00Z</time>
      </trkpt>
      <trkpt lat="45.22187" lon="-1.14699">
        <ele>103</ele>
        <time>2025-04-26T08:04:01Z</time>
      </trkpt>
      <trkpt lat="45.22186" lon="-1.14703">
        <ele>103</ele>
        <time>2025-04-26T08:04:02Z</time>
      </trkpt>
      <trkpt lat="45.22185" lon="-1.14706">
        <ele>103</ele>
        <time>2025-04-26T08:04:03Z</time>
      </trkpt>
      <trkpt lat="45.22184" lon="-1.14709">
        <ele>104</ele>
        <time>2025-04-26T08:04:04Z</time>
      </trkpt>
      <trkpt lat="45.22183" lon="-1.14712">
        <ele>105</ele>
        <time>2025-04-26T08:04:05Z</time>
      </trkpt>
      <trkpt lat="45.22182" lon="-1.14715">
        <ele>105</ele>
        <time>2025-04-26T08:04:06Z</time>
      </trkpt>
      <trkpt lat="45.22181" lon="-1.14718">
        <ele>105</ele>
        <time>2025-04-26T08:04:07Z</time>
      </trkpt>
      <trkpt lat="45.22181" lon="-1.14721">
        <ele>106</ele>
        <time>2025-04-26T08:04:08Z</time>
      </trkpt>
      <trkpt lat="45.22181" lon="-1.14724">
        <ele>105</ele>
        <time>2025-04-26T08:04:09Z</time>
      </trkpt>
      <trkpt lat="45.2218" lon="-1.14727">
        <ele>105</ele>
        <time>2025-04-26T08:04:10Z</time>
      </trkpt>
      <trkpt lat="45.22179" lon="-1.14729">
        <ele>105</ele>
        <time>2025-04-26T08:04:11Z</time>
      </trkpt>
      <trkpt lat="45.22179" lon="-1.14732">
        <ele>104</ele>
        <time>2025-04-26T08:04:12Z</time>
      </trkpt>
      <trkpt lat="45.22178" lon="-1.14734">
        <ele>104</ele>
        <time>2025-04-26T08:04:13Z</time>
      </trkpt>
      <trkpt lat="45.22178" lon="-1.14737">
        <ele>104</ele>
        <time>2025-04-26T08:04:14Z</time>
      </trkpt>
      <trkpt lat="45.22177" lon="-1.1474">
        <ele>104</ele>
        <time>2025-04-26T08:04:15Z</time>
      </trkpt>
      <trkpt lat="45.22177" lon="-1.14743">
        <ele>104</ele>
        <time>2025-04-26T08:04:16Z</time>
      </trkpt>
      <trkpt lat="45.22176" lon="-1.14746">
        <ele>105</ele>
        <time>2025-04-26T08:04:17Z</time>
      </trkpt>
      <trkpt lat="45.22176" lon="-1.14749">
        <ele>105</ele>
        <time>2025-04-26T08:04:18Z</time>
      </trkpt>
      <trkpt lat="45.22175" lon="-1.14751">
        <ele>105</ele>
        <time>2025-04-26T08:04:19Z</time>
      </trkpt>
      <trkpt lat="45.22174" lon="-1.14755">
        <ele>105</ele>
        <time>2025-04-26T08:04:20Z</time>
      </trkpt>
      <trkpt lat="45.22173" lon="-1.14758">
        <ele>105</ele>
        <time>2025-04-26T08:04:21Z</time>
      </trkpt>
      <trkpt lat="45.22173" lon="-1.14762">
        <ele>105</ele>
        <time>2025-04-26T08:04:22Z</time>
      </trkpt>
      <trkpt lat="45.22172" lon="-1.14766">
        <ele>104</ele>
        <time>2025-04-26T08:04:23Z</time>
      </trkpt>
      <trkpt lat="45.22171" lon="-1.1477">
        <ele>104</ele>
        <time>2025-04-26T08:04:24Z</time>
      </trkpt>
      <trkpt lat="45.22171" lon="-1.14773">
        <ele>103</ele>
        <time>2025-04-26T08:04:25Z</time>
      </trkpt>
      <trkpt lat="45.2217" lon="-1.14776">
        <ele>103</ele>
        <time>2025-04-26T08:04:26Z</time>
      </trkpt>
      <trkpt lat="45.2217" lon="-1.14779">
        <ele>102</ele>
        <time>2025-04-26T08:04:27Z</time>
      </trkpt>
      <trkpt lat="45.22169" lon="-1.14782">
        <ele>101</ele>
        <time>2025-04-26T08:04:28Z</time>
      </trkpt>
      <trkpt lat="45.22169" lon="-1.14784">
        <ele>101</ele>
        <time>2025-04-26T08:04:29Z</time>
      </trkpt>
      <trkpt lat="45.22168" lon="-1.14787">
        <ele>101</ele>
        <time>2025-04-26T08:04:30Z</time>
      </trkpt>
      <trkpt lat="45.22168" lon="-1.14789">
        <ele>101</ele>
        <time>2025-04-26T08:04:31Z</time>
      </trkpt>
      <trkpt lat="45.22168" lon="-1.14792">
        <ele>101</ele>
        <time>2025-04-26T08:04:32Z</time>
      </trkpt>
      <trkpt lat="45.22168" lon="-1.14795">
        <ele>101</ele>
        <time>2025-04-26T08:04:33Z</time>
      </trkpt>
      <trkpt lat="45.22167" lon="-1.14799">
        <ele>101</ele>
        <time>2025-04-26T08:04:34Z</time>
      </trkpt>
      <trkpt lat="45.22167" lon="-1.14802">
        <ele>101</ele>
        <time>2025-04-26T08:04:35Z</time>
      </trkpt>
      <trkpt lat="45.22168" lon="-1.14806">
        <ele>101</ele>
        <time>2025-04-26T08:04:36Z</time>
      </trkpt>
      <trkpt lat="45.22169" lon="-1.14808">
        <ele>100</ele>
        <time>2025-04-26T08:04:37Z</time>
      </trkpt>
      <trkpt lat="45.22169" lon="-1.14811">
        <ele>101</ele>
        <time>2025-04-26T08:04:38Z</time>
      </trkpt>
      <trkpt lat="45.2217" lon="-1.14814">
        <ele>100</ele>
        <time>2025-04-26T08:04:39Z</time>
      </trkpt>
      <trkpt lat="45.22171" lon="-1.14817">
        <ele>100</ele>
        <time>2025-04-26T08:04:40Z</time>
      </trkpt>
      <trkpt lat="45.22171" lon="-1.1482">
        <ele>100</ele>
        <time>2025-04-26T08:04:41Z</time>
      </trkpt>
      <trkpt lat="45.22172" lon="-1.14823">
        <ele>100</ele>
        <time>2025-04-26T08:04:42Z</time>
      </trkpt>
      <trkpt lat="45.22172" lon="-1.14826">
        <ele>100</ele>
        <time>2025-04-26T08:04:43Z</time>
      </trkpt>
      <trkpt lat="45.22172" lon="-1.1483">
        <ele>100</ele>
        <time>2025-04-26T08:04:44Z</time>
      </trkpt>
      <trkpt lat="45.22172" lon="-1.14833">
        <ele>100</ele>
        <time>2025-04-26T08:04:45Z</time>
      </trkpt>
      <trkpt lat="45.22172" lon="-1.14837">
        <ele>101</ele>
        <time>2025-04-26T08:04:46Z</time>
      </trkpt>
      <trkpt lat="45.22172" lon="-1.1484">
        <ele>101</ele>
        <time>2025-04-26T08:04:47Z</time>
      </trkpt>
      <trkpt lat="45.22172" lon="-1.14844">
        <ele>102</ele>
        <time>2025-04-26T08:04:48Z</time>
      </trkpt>
      <trkpt lat="45.22172" lon="-1.14847">
        <ele>103</ele>
        <time>2025-04-26T08:04:49Z</time>
      </trkpt>
      <trkpt lat="45.22172" lon="-1.14851">
        <ele>103</ele>
        <time>2025-04-26T08:04:50Z</time>
      </trkpt>
      <trkpt lat="45.22172" lon="-1.14853">
        <ele>104</ele>
        <time>2025-04-26T08:04:51Z</time>
      </trkpt>
      <trkpt lat="45.22172" lon="-1.14854">
        <ele>105</ele>
        <time>2025-04-26T08:04:52Z</time>
      </trkpt>
      <trkpt lat="45.22172" lon="-1.14856">
        <ele>106</ele>
        <time>2025-04-26T08:04:53Z</time>
      </trkpt>
      <trkpt lat="45.22173" lon="-1.14857">
        <ele>107</ele>
        <time>2025-04-26T08:04:54Z</time>
      </trkpt>
      <trkpt lat="45.22172" lon="-1.14859">
        <ele>108</ele>
        <time>2025-04-26T08:04:55Z</time>
      </trkpt>
      <trkpt lat="45.22172" lon="-1.14859">
        <ele>108</ele>
        <time>2025-04-26T08:04:56Z</time>
      </trkpt>
      <trkpt lat="45.22171" lon="-1.1486">
        <ele>108</ele>
        <time>2025-04-26T08:04:57Z</time>
      </trkpt>
      <trkpt lat="45.22171" lon="-1.1486">
        <ele>109</ele>
        <time>2025-04-26T08:04:58Z</time>
      </trkpt>
      <trkpt lat="45.22171" lon="-1.1486">
        <ele>109</ele>
        <time>2025-04-26T08:04:59Z</time>
      </trkpt>
      <trkpt lat="45.22171" lon="-1.1486">
        <ele>109</ele>
        <time>2025-04-26T08:05:00Z</time>
      </trkpt>
      <trkpt lat="45.22172" lon="-1.14861">
        <ele>109</ele>
        <time>2025-04-26T08:05:01Z</time>
      </trkpt>
      <trkpt lat="45.22172" lon="-1.14862">
        <ele>109</ele>
        <time>2025-04-26T08:05:02Z</time>
      </trkpt>
      <trkpt lat="45.22172" lon="-1.14863">
        <ele>110</ele>
        <time>2025-04-26T08:05:03Z</time>
      </trkpt>
      <trkpt lat="45.22172" lon="-1.14863">
        <ele>110</ele>
        <time>2025-04-26T08:05:04Z</time>
      </trkpt>
      <trkpt lat="45.22172" lon="-1.14863">
        <ele>110</ele>
        <time>2025-04-26T08:05:05Z</time>
      </trkpt>
      <trkpt lat="45.22172" lon="-1.14863">
        <ele>110</ele>
        <time>2025-04-26T08:05:06Z</time>
      </trkpt>
      <trkpt lat="45.22172" lon="-1.14863">
        <ele>110</ele>
        <time>2025-04-26T08:05:07Z</time>
      </trkpt>
      <trkpt lat="45.22172" lon="-1.14863">
        <ele>110</ele>
        <time>2025-04-26T08:05:08Z</time>
      </trkpt>
      <trkpt lat="45.22172" lon="-1.14863">
        <ele>110</ele>
        <time>2025-04-26T08:05:09Z</time>
      </trkpt>
      <trkpt lat="45.22172" lon="-1.14863">
        <ele>110</ele>
        <time>2025-04-26T08:05:10Z</time>
      </trkpt>
      <trkpt lat="45.22172" lon="-1.14863">
        <ele>110</ele>
        <time>2025-04-26T08:05:11Z</time>
      </trkpt>
      <trkpt lat="45.22172" lon="-1.14863">
        <ele>110</ele>
        <time>2025-04-26T08:05:12Z</time>
      </trkpt>
      <trkpt lat="45.22172" lon="-1.14863">
        <ele>110</ele>
        <time>2025-04-26T08:05:13Z</time>
      </trkpt>
      <trkpt lat="45.22172" lon="-1.14863">
        <ele>110</ele>
        <time>2025-04-26T08:05:14Z</time>
      </trkpt>
      <trkpt lat="45.22172" lon="-1.14863">
        <ele>110</ele>
        <time>2025-04-26T08:05:15Z</time>
      </trkpt>
      <trkpt lat="45.22172" lon="-1.14863">
        <ele>110</ele>
        <time>2025-04-26T08:05:16Z</time>
      </trkpt>
      <trkpt lat="45.22172" lon="-1.14863">
        <ele>110</ele>
        <time>2025-04-26T08:05:17Z</time>
      </trkpt>
      <trkpt lat="45.22172" lon="-1.14863">
        <ele>110</ele>
        <time>2025-04-26T08:05:18Z</time>
      </trkpt>
      <trkpt lat="45.22172" lon="-1.14863">
        <ele>110</ele>
        <time>2025-04-26T08:05:19Z</time>
      </trkpt>
      <trkpt lat="45.22172" lon="-1.14863">
        <ele>110</ele>
        <time>2025-04-26T08:05:20Z</time>
      </trkpt>
      <trkpt lat="45.22172" lon="-1.14863">
        <ele>110</ele>
        <time>2025-04-26T08:05:21Z</time>
      </trkpt>
      <trkpt lat="45.22172" lon="-1.14863">
        <ele>110</ele>
        <time>2025-04-26T08:05:22Z</time>
      </trkpt>
      <trkpt lat="45.22172" lon="-1.14863">
        <ele>110</ele>
        <time>2025-04-26T08:05:23Z</time>
      </trkpt>
      <trkpt lat="45.22172" lon="-1.14863">
        <ele>110</ele>
        <time>2025-04-26T08:05:24Z</time>
      </trkpt>
      <trkpt lat="45.22172" lon="-1.14863">
        <ele>110</ele>
        <time>2025-04-26T08:05:25Z</time>
      </trkpt>
      <trkpt lat="45.22172" lon="-1.14863">
        <ele>110</ele>
        <time>2025-04-26T08:05:26Z</time>
      </trkpt>
      <trkpt lat="45.22172" lon="-1.14863">
        <ele>110</ele>
        <time>2025-04-26T08:05:27Z</time>
      </trkpt>
      <trkpt lat="45.22172" lon="-1.14863">
        <ele>110</ele>
        <time>2025-04-26T08:05:28Z</time>
      </trkpt>
      <trkpt lat="45.22172" lon="-1.14863">
        <ele>110</ele>
        <time>2025-04-26T08:05:29Z</time>
      </trkpt>
      <trkpt lat="45.22172" lon="-1.14863">
        <ele>110</ele>
        <time>2025-04-26T08:05:30Z</time>
      </trkpt>
      <trkpt lat="45.22172" lon="-1.14863">
        <ele>110</ele>
        <time>2025-04-26T08:05:31Z</time>
      </trkpt>
      <trkpt lat="45.22172" lon="-1.14863">
        <ele>110</ele>
        <time>2025-04-26T08:05:32Z</time>
      </trkpt>
      <trkpt lat="45.22172" lon="-1.14863">
        <ele>110</ele>
        <time>2025-04-26T08:05:33Z</time>
      </trkpt>
      <trkpt lat="45.22172" lon="-1.14863">
        <ele>110</ele>
        <time>2025-04-26T08:05:34Z</time>
      </trkpt>
      <trkpt lat="45.22172" lon="-1.14863">
        <ele>110</ele>
        <time>2025-04-26T08:05:35Z</time>
      </trkpt>
      <trkpt lat="45.22172" lon="-1.14863">
        <ele>110</ele>
        <time>2025-04-26T08:05:36Z</time>
      </trkpt>
      <trkpt lat="45.22172" lon="-1.14863">
        <ele>110</ele>
        <time>2025-04-26T08:05:37Z</time>
      </trkpt>
      <trkpt lat="45.22172" lon="-1.14863">
        <ele>110</ele>
        <time>2025-04-26T08:05:38Z</time>
      </trkpt>
      <trkpt lat="45.22172" lon="-1.14863">
        <ele>110</ele>
        <time>2025-04-26T08:05:39Z</time>
      </trkpt>
      <trkpt lat="45.22172" lon="-1.14863">
        <ele>110</ele>
        <time>2025-04-26T08:05:40Z</time>
      </trkpt>
      <trkpt lat="45.22172" lon="-1.14863">
        <ele>110</ele>
        <time>2025-04-26T08:05:41Z</time>
      </trkpt>
      <trkpt lat="45.22172" lon="-1.14863">
        <ele>110</ele>
        <time>2025-04-26T08:05:42Z</time>
      </trkpt>
      <trkpt lat="45.22172" lon="-1.14863">
        <ele>110</ele>
        <time>2025-04-26T08:05:43Z</time>
      </trkpt>
      <trkpt lat="45.22172" lon="-1.14863">
        <ele>110</ele>
        <time>2025-04-26T08:05:44Z</time>
      </trkpt>
      <trkpt lat="45.22172" lon="-1.14863">
        <ele>110</ele>
        <time>2025-04-26T08:05:45Z</time>
      </trkpt>
      <trkpt lat="45.22172" lon="-1.14863">
        <ele>110</ele>
        <time>2025-04-26T08:05:46Z</time>
      </trkpt>
      <trkpt lat="45.22172" lon="-1.14863">
        <ele>110</ele>
        <time>2025-04-26T08:05:47Z</time>
      </trkpt>
      <trkpt lat="45.22172" lon="-1.14863">
        <ele>110</ele>
        <time>2025-04-26T08:05:48Z</time>
      </trkpt>
      <trkpt lat="45.22172" lon="-1.14863">
        <ele>110</ele>
        <time>2025-04-26T08:05:49Z</time>
      </trkpt>
      <trkpt lat="45.22172" lon="-1.14863">
        <ele>110</ele>
        <time>2025-04-26T08:05:50Z</time>
      </trkpt>
      <trkpt lat="45.22172" lon="-1.14863">
        <ele>110</ele>
        <time>2025-04-26T08:05:51Z</time>
      </trkpt>
      <trkpt lat="45.22172" lon="-1.14863">
        <ele>110</ele>
        <time>2025-04-26T08:05:52Z</time>
      </trkpt>
      <trkpt lat="45.22172" lon="-1.14863">
        <ele>110</ele>
        <time>2025-04-26T08:05:53Z</time>
      </trkpt>
      <trkpt lat="45.22172" lon="-1.14863">
        <ele>110</ele>
        <time>2025-04-26T08:05:54Z</time>
      </trkpt>
      <trkpt lat="45.22172" lon="-1.14863">
        <ele>110</ele>
        <time>2025-04-26T08:05:55Z</time>
      </trkpt>
      <trkpt lat="45.22172" lon="-1.14863">
        <ele>110</ele>
        <time>2025-04-26T08:05:56Z</time>
      </trkpt>
      <trkpt lat="45.22172" lon="-1.14863">
        <ele>110</ele>
        <time>2025-04-26T08:05:57Z</time>
      </trkpt>
      <trkpt lat="45.22172" lon="-1.14863">
        <ele>110</ele>
        <time>2025-04-26T08:05:58Z</time>
      </trkpt>
      <trkpt lat="45.22172" lon="-1.14863">
        <ele>110</ele>
        <time>2025-04-26T08:05:59Z</time>
      </trkpt>
      <trkpt lat="45.22172" lon="-1.14863">
        <ele>110</ele>
        <time>2025-04-26T08:06:00Z</time>
      </trkpt>
      <trkpt lat="45.22172" lon="-1.14863">
        <ele>110</ele>
        <time>2025-04-26T08:06:01Z</time>
      </trkpt>
      <trkpt lat="45.22172" lon="-1.14863">
        <ele>110</ele>
        <time>2025-04-26T08:06:02Z</time>
      </trkpt>
      <trkpt lat="45.22172" lon="-1.14863">
        <ele>110</ele>
        <time>2025-04-26T08:06:03Z</time>
      </trkpt>
      <trkpt lat="45.22172" lon="-1.14863">
        <ele>110</ele>
        <time>2025-04-26T08:06:04Z</time>
      </trkpt>
      <trkpt lat="45.22172" lon="-1.14863">
        <ele>110</ele>
        <time>2025-04-26T08:06:05Z</time>
      </trkpt>
      <trkpt lat="45.22172" lon="-1.14863">
        <ele>110</ele>
        <time>2025-04-26T08:09:52Z</time>
      </trkpt>
      <trkpt lat="45.22172" lon="-1.14863">
        <ele>110</ele>
        <time>2025-04-26T08:09:53Z</time>
      </trkpt>
      <trkpt lat="45.22172" lon="-1.14863">
        <ele>110</ele>
        <time>2025-04-26T08:09:54Z</time>
      </trkpt>
      <trkpt lat="45.2217" lon="-1.14871">
        <ele>108</ele>
        <time>2025-04-26T08:09:55Z</time>
      </trkpt>
      <trkpt lat="45.2217" lon="-1.14872">
        <ele>108</ele>
        <time>2025-04-26T08:09:56Z</time>
      </trkpt>
      <trkpt lat="45.2217" lon="-1.14874">
        <ele>108</ele>
        <time>2025-04-26T08:09:57Z</time>
      </trkpt>
      <trkpt lat="45.22171" lon="-1.14875">
        <ele>108</ele>
        <time>2025-04-26T08:09:58Z</time>
      </trkpt>
      <trkpt lat="45.22171" lon="-1.14878">
        <ele>108</ele>
        <time>2025-04-26T08:09:59Z</time>
      </trkpt>
      <trkpt lat="45.22172" lon="-1.14882">
        <ele>108</ele>
        <time>2025-04-26T08:10:00Z</time>
      </trkpt>
      <trkpt lat="45.22173" lon="-1.14885">
        <ele>108</ele>
        <time>2025-04-26T08:10:01Z</time>
      </trkpt>
      <trkpt lat="45.22174" lon="-1.14888">
        <ele>107</ele>
        <time>2025-04-26T08:10:02Z</time>
      </trkpt>
      <trkpt lat="45.22175" lon="-1.14892">
        <ele>107</ele>
        <time>2025-04-26T08:10:03Z</time>
      </trkpt>
      <trkpt lat="45.22176" lon="-1.14895">
        <ele>107</ele>
        <time>2025-04-26T08:10:04Z</time>
      </trkpt>
      <trkpt lat="45.22177" lon="-1.14898">
        <ele>106</ele>
        <time>2025-04-26T08:10:05Z</time>
      </trkpt>
      <trkpt lat="45.22177" lon="-1.14902">
        <ele>105</ele>
        <time>2025-04-26T08:10:06Z</time>
      </trkpt>
      <trkpt lat="45.22178" lon="-1.14906">
        <ele>105</ele>
        <time>2025-04-26T08:10:07Z</time>
      </trkpt>
      <trkpt lat="45.22179" lon="-1.1491">
        <ele>105</ele>
        <time>2025-04-26T08:10:08Z</time>
      </trkpt>
      <trkpt lat="45.2218" lon="-1.14913">
        <ele>104</ele>
        <time>2025-04-26T08:10:09Z</time>
      </trkpt>
      <trkpt lat="45.2218" lon="-1.14918">
        <ele>104</ele>
        <time>2025-04-26T08:10:10Z</time>
      </trkpt>
      <trkpt lat="45.22181" lon="-1.14922">
        <ele>104</ele>
        <time>2025-04-26T08:10:11Z</time>
      </trkpt>
      <trkpt lat="45.22181" lon="-1.14926">
        <ele>104</ele>
        <time>2025-04-26T08:10:12Z</time>
      </trkpt>
      <trkpt lat="45.22181" lon="-1.1493">
        <ele>104</ele>
        <time>2025-04-26T08:10:13Z</time>
      </trkpt>
      <trkpt lat="45.2218" lon="-1.14935">
        <ele>104</ele>
        <time>2025-04-26T08:10:14Z</time>
      </trkpt>
      <trkpt lat="45.2218" lon="-1.1494">
        <ele>103</ele>
        <time>2025-04-26T08:10:15Z</time>
      </trkpt>
      <trkpt lat="45.22179" lon="-1.14946">
        <ele>103</ele>
        <time>2025-04-26T08:10:16Z</time>
      </trkpt>
      <trkpt lat="45.22177" lon="-1.14952">
        <ele>103</ele>
        <time>2025-04-26T08:10:17Z</time>
      </trkpt>
      <trkpt lat="45.22175" lon="-1.14958">
        <ele>103</ele>
        <time>2025-04-26T08:10:18Z</time>
      </trkpt>
      <trkpt lat="45.22173" lon="-1.14964">
        <ele>102</ele>
        <time>2025-04-26T08:10:19Z</time>
      </trkpt>
      <trkpt lat="45.2217" lon="-1.14971">
        <ele>102</ele>
        <time>2025-04-26T08:10:20Z</time>
      </trkpt>
      <trkpt lat="45.22168" lon="-1.14978">
        <ele>101</ele>
        <time>2025-04-26T08:10:21Z</time>
      </trkpt>
      <trkpt lat="45.22167" lon="-1.14984">
        <ele>100</ele>
        <time>2025-04-26T08:10:22Z</time>
      </trkpt>
      <trkpt lat="45.22165" lon="-1.14991">
        <ele>99</ele>
        <time>2025-04-26T08:10:23Z</time>
      </trkpt>
      <trkpt lat="45.22164" lon="-1.14996">
        <ele>98</ele>
        <time>2025-04-26T08:10:24Z</time>
      </trkpt>
      <trkpt lat="45.22162" lon="-1.15004">
        <ele>98</ele>
        <time>2025-04-26T08:10:25Z</time>
      </trkpt>
      <trkpt lat="45.22159" lon="-1.15012">
        <ele>96</ele>
        <time>2025-04-26T08:10:26Z</time>
      </trkpt>
      <trkpt lat="45.22156" lon="-1.1502">
        <ele>95</ele>
        <time>2025-04-26T08:10:27Z</time>
      </trkpt>
      <trkpt lat="45.22153" lon="-1.15028">
        <ele>94</ele>
        <time>2025-04-26T08:10:28Z</time>
      </trkpt>
      <trkpt lat="45.2215" lon="-1.15036">
        <ele>93</ele>
        <time>2025-04-26T08:10:29Z</time>
      </trkpt>
      <trkpt lat="45.22147" lon="-1.15043">
        <ele>92</ele>
        <time>2025-04-26T08:10:30Z</time>
      </trkpt>
      <trkpt lat="45.22144" lon="-1.15049">
        <ele>91</ele>
        <time>2025-04-26T08:10:31Z</time>
      </trkpt>
      <trkpt lat="45.22141" lon="-1.15057">
        <ele>91</ele>
        <time>2025-04-26T08:10:32Z</time>
      </trkpt>
      <trkpt lat="45.22138" lon="-1.15064">
        <ele>91</ele>
        <time>2025-04-26T08:10:33Z</time>
      </trkpt>
      <trkpt lat="45.22134" lon="-1.15071">
        <ele>91</ele>
        <time>2025-04-26T08:10:34Z</time>
      </trkpt>
      <trkpt lat="45.2213" lon="-1.15078">
        <ele>90</ele>
        <time>2025-04-26T08:10:35Z</time>
      </trkpt>
      <trkpt lat="45.22126" lon="-1.15085">
        <ele>90</ele>
        <time>2025-04-26T08:10:36Z</time>
      </trkpt>
      <trkpt lat="45.22123" lon="-1.15092">
        <ele>89</ele>
        <time>2025-04-26T08:10:37Z</time>
      </trkpt>
      <trkpt lat="45.2212" lon="-1.15099">
        <ele>89</ele>
        <time>2025-04-26T08:10:38Z</time>
      </trkpt>
      <trkpt lat="45.22117" lon="-1.15105">
        <ele>89</ele>
        <time>2025-04-26T08:10:39Z</time>
      </trkpt>
      <trkpt lat="45.22114" lon="-1.15113">
        <ele>89</ele>
        <time>2025-04-26T08:10:40Z</time>
      </trkpt>
      <trkpt lat="45.22112" lon="-1.1512">
        <ele>89</ele>
        <time>2025-04-26T08:10:41Z</time>
      </trkpt>
      <trkpt lat="45.22111" lon="-1.15128">
        <ele>89</ele>
        <time>2025-04-26T08:10:42Z</time>
      </trkpt>
      <trkpt lat="45.2211" lon="-1.15136">
        <ele>90</ele>
        <time>2025-04-26T08:10:43Z</time>
      </trkpt>
      <trkpt lat="45.22109" lon="-1.15143">
        <ele>91</ele>
        <time>2025-04-26T08:10:44Z</time>
      </trkpt>
      <trkpt lat="45.22109" lon="-1.15149">
        <ele>91</ele>
        <time>2025-04-26T08:10:45Z</time>
      </trkpt>
      <trkpt lat="45.22108" lon="-1.15155">
        <ele>92</ele>
        <time>2025-04-26T08:10:46Z</time>
      </trkpt>
      <trkpt lat="45.22107" lon="-1.1516">
        <ele>93</ele>
        <time>2025-04-26T08:10:47Z</time>
      </trkpt>
      <trkpt lat="45.22107" lon="-1.15164">
        <ele>93</ele>
        <time>2025-04-26T08:10:48Z</time>
      </trkpt>
      <trkpt lat="45.22107" lon="-1.15168">
        <ele>92</ele>
        <time>2025-04-26T08:10:49Z</time>
      </trkpt>
      <trkpt lat="45.22106" lon="-1.15171">
        <ele>93</ele>
        <time>2025-04-26T08:10:50Z</time>
      </trkpt>
      <trkpt lat="45.22107" lon="-1.15174">
        <ele>93</ele>
        <time>2025-04-26T08:10:51Z</time>
      </trkpt>
      <trkpt lat="45.22107" lon="-1.15177">
        <ele>94</ele>
        <time>2025-04-26T08:10:52Z</time>
      </trkpt>
      <trkpt lat="45.22107" lon="-1.15181">
        <ele>95</ele>
        <time>2025-04-26T08:10:53Z</time>
      </trkpt>
      <trkpt lat="45.22106" lon="-1.15185">
        <ele>96</ele>
        <time>2025-04-26T08:10:54Z</time>
      </trkpt>
      <trkpt lat="45.22106" lon="-1.15188">
        <ele>96</ele>
        <time>2025-04-26T08:10:55Z</time>
      </trkpt>
      <trkpt lat="45.22106" lon="-1.15192">
        <ele>97</ele>
        <time>2025-04-26T08:10:56Z</time>
      </trkpt>
      <trkpt lat="45.22106" lon="-1.15196">
        <ele>97</ele>
        <time>2025-04-26T08:10:57Z</time>
      </trkpt>
      <trkpt lat="45.22105" lon="-1.152">
        <ele>97</ele>
        <time>2025-04-26T08:10:58Z</time>
      </trkpt>
      <trkpt lat="45.22105" lon="-1.15203">
        <ele>97</ele>
        <time>2025-04-26T08:10:59Z</time>
      </trkpt>
      <trkpt lat="45.22105" lon="-1.15206">
        <ele>98</ele>
        <time>2025-04-26T08:11:00Z</time>
      </trkpt>
      <trkpt lat="45.22105" lon="-1.1521">
        <ele>98</ele>
        <time>2025-04-26T08:11:01Z</time>
      </trkpt>
      <trkpt lat="45.22105" lon="-1.15214">
        <ele>99</ele>
        <time>2025-04-26T08:11:02Z</time>
      </trkpt>
      <trkpt lat="45.22105" lon="-1.15218">
        <ele>99</ele>
        <time>2025-04-26T08:11:03Z</time>
      </trkpt>
      <trkpt lat="45.22104" lon="-1.15222">
        <ele>99</ele>
        <time>2025-04-26T08:11:04Z</time>
      </trkpt>
      <trkpt lat="45.22104" lon="-1.15227">
        <ele>98</ele>
        <time>2025-04-26T08:11:05Z</time>
      </trkpt>
      <trkpt lat="45.22104" lon="-1.15232">
        <ele>97</ele>
        <time>2025-04-26T08:11:06Z</time>
      </trkpt>
      <trkpt lat="45.22104" lon="-1.15236">
        <ele>97</ele>
        <time>2025-04-26T08:11:07Z</time>
      </trkpt>
      <trkpt lat="45.22103" lon="-1.15239">
        <ele>97</ele>
        <time>2025-04-26T08:11:08Z</time>
      </trkpt>
      <trkpt lat="45.22102" lon="-1.15243">
        <ele>97</ele>
        <time>2025-04-26T08:11:09Z</time>
      </trkpt>
      <trkpt lat="45.22101" lon="-1.15247">
        <ele>96</ele>
        <time>2025-04-26T08:11:10Z</time>
      </trkpt>
      <trkpt lat="45.22101" lon="-1.1525">
        <ele>96</ele>
        <time>2025-04-26T08:11:11Z</time>
      </trkpt>
      <trkpt lat="45.22101" lon="-1.15254">
        <ele>97</ele>
        <time>2025-04-26T08:11:12Z</time>
      </trkpt>
      <trkpt lat="45.221" lon="-1.15256">
        <ele>97</ele>
        <time>2025-04-26T08:11:13Z</time>
      </trkpt>
      <trkpt lat="45.221" lon="-1.15259">
        <ele>96</ele>
        <time>2025-04-26T08:11:14Z</time>
      </trkpt>
      <trkpt lat="45.22099" lon="-1.15263">
        <ele>95</ele>
        <time>2025-04-26T08:11:15Z</time>
      </trkpt>
      <trkpt lat="45.22099" lon="-1.15267">
        <ele>94</ele>
        <time>2025-04-26T08:11:16Z</time>
      </trkpt>
      <trkpt lat="45.22099" lon="-1.15271">
        <ele>94</ele>
        <time>2025-04-26T08:11:17Z</time>
      </trkpt>
      <trkpt lat="45.22098" lon="-1.15276">
        <ele>93</ele>
        <time>2025-04-26T08:11:18Z</time>
      </trkpt>
      <trkpt lat="45.22097" lon="-1.1528">
        <ele>93</ele>
        <time>2025-04-26T08:11:19Z</time>
      </trkpt>
      <trkpt lat="45.22096" lon="-1.15284">
        <ele>92</ele>
        <time>2025-04-26T08:11:20Z</time>
      </trkpt>
      <trkpt lat="45.22094" lon="-1.15288">
        <ele>91</ele>
        <time>2025-04-26T08:11:21Z</time>
      </trkpt>
      <trkpt lat="45.22093" lon="-1.15292">
        <ele>91</ele>
        <time>2025-04-26T08:11:22Z</time>
      </trkpt>
      <trkpt lat="45.22091" lon="-1.15296">
        <ele>90</ele>
        <time>2025-04-26T08:11:23Z</time>
      </trkpt>
      <trkpt lat="45.22089" lon="-1.15301">
        <ele>88</ele>
        <time>2025-04-26T08:11:24Z</time>
      </trkpt>
      <trkpt lat="45.22086" lon="-1.15307">
        <ele>88</ele>
        <time>2025-04-26T08:11:25Z</time>
      </trkpt>
      <trkpt lat="45.22083" lon="-1.15314">
        <ele>87</ele>
        <time>2025-04-26T08:11:26Z</time>
      </trkpt>
      <trkpt lat="45.2208" lon="-1.1532">
        <ele>87</ele>
        <time>2025-04-26T08:11:27Z</time>
      </trkpt>
      <trkpt lat="45.22077" lon="-1.15327">
        <ele>86</ele>
        <time>2025-04-26T08:11:28Z</time>
      </trkpt>
      <trkpt lat="45.22074" lon="-1.15334">
        <ele>86</ele>
        <time>2025-04-26T08:11:29Z</time>
      </trkpt>
      <trkpt lat="45.2207" lon="-1.15341">
        <ele>86</ele>
        <time>2025-04-26T08:11:30Z</time>
      </trkpt>
      <trkpt lat="45.22066" lon="-1.15348">
        <ele>85</ele>
        <time>2025-04-26T08:11:31Z</time>
      </trkpt>
      <trkpt lat="45.22063" lon="-1.15354">
        <ele>85</ele>
        <time>2025-04-26T08:11:32Z</time>
      </trkpt>
      <trkpt lat="45.2206" lon="-1.15361">
        <ele>85</ele>
        <time>2025-04-26T08:11:33Z</time>
      </trkpt>
      <trkpt lat="45.22057" lon="-1.15367">
        <ele>84</ele>
        <time>2025-04-26T08:11:34Z</time>
      </trkpt>
      <trkpt lat="45.22055" lon="-1.15373">
        <ele>84</ele>
        <time>2025-04-26T08:11:35Z</time>
      </trkpt>
      <trkpt lat="45.22052" lon="-1.15378">
        <ele>83</ele>
        <time>2025-04-26T08:11:36Z</time>
      </trkpt>
      <trkpt lat="45.22049" lon="-1.15384">
        <ele>82</ele>
        <time>2025-04-26T08:11:37Z</time>
      </trkpt>
      <trkpt lat="45.22047" lon="-1.1539">
        <ele>82</ele>
        <time>2025-04-26T08:11:38Z</time>
      </trkpt>
      <trkpt lat="45.22044" lon="-1.15395">
        <ele>82</ele>
        <time>2025-04-26T08:11:39Z</time>
      </trkpt>
      <trkpt lat="45.22041" lon="-1.15401">
        <ele>81</ele>
        <time>2025-04-26T08:11:40Z</time>
      </trkpt>
      <trkpt lat="45.22038" lon="-1.15406">
        <ele>81</ele>
        <time>2025-04-26T08:11:41Z</time>
      </trkpt>
      <trkpt lat="45.22035" lon="-1.15411">
        <ele>80</ele>
        <time>2025-04-26T08:11:42Z</time>
      </trkpt>
      <trkpt lat="45.22032" lon="-1.15416">
        <ele>79</ele>
        <time>2025-04-26T08:11:43Z</time>
      </trkpt>
      <trkpt lat="45.22028" lon="-1.15421">
        <ele>78</ele>
        <time>2025-04-26T08:11:44Z</time>
      </trkpt>
      <trkpt lat="45.22024" lon="-1.15426">
        <ele>77</ele>
        <time>2025-04-26T08:11:45Z</time>
      </trkpt>
      <trkpt lat="45.2202" lon="-1.15432">
        <ele>77</ele>
        <time>2025-04-26T08:11:46Z</time>
      </trkpt>
      <trkpt lat="45.22016" lon="-1.15436">
        <ele>77</ele>
        <time>2025-04-26T08:11:47Z</time>
      </trkpt>
      <trkpt lat="45.22013" lon="-1.15441">
        <ele>77</ele>
        <time>2025-04-26T08:11:48Z</time>
      </trkpt>
      <trkpt lat="45.2201" lon="-1.15445">
        <ele>78</ele>
        <time>2025-04-26T08:11:49Z</time>
      </trkpt>
      <trkpt lat="45.22006" lon="-1.1545">
        <ele>77</ele>
        <time>2025-04-26T08:11:50Z</time>
      </trkpt>
      <trkpt lat="45.22003" lon="-1.15454">
        <ele>77</ele>
        <time>2025-04-26T08:11:51Z</time>
      </trkpt>
      <trkpt lat="45.21999" lon="-1.15459">
        <ele>76</ele>
        <time>2025-04-26T08:11:52Z</time>
      </trkpt>
      <trkpt lat="45.21996" lon="-1.15463">
        <ele>76</ele>
        <time>2025-04-26T08:11:53Z</time>
      </trkpt>
      <trkpt lat="45.21994" lon="-1.15467">
        <ele>76</ele>
        <time>2025-04-26T08:11:54Z</time>
      </trkpt>
      <trkpt lat="45.21991" lon="-1.15471">
        <ele>76</ele>
        <time>2025-04-26T08:11:55Z</time>
      </trkpt>
      <trkpt lat="45.21987" lon="-1.15475">
        <ele>76</ele>
        <time>2025-04-26T08:11:56Z</time>
      </trkpt>
      <trkpt lat="45.21984" lon="-1.1548">
        <ele>76</ele>
        <time>2025-04-26T08:11:57Z</time>
      </trkpt>
      <trkpt lat="45.21981" lon="-1.15484">
        <ele>76</ele>
        <time>2025-04-26T08:11:58Z</time>
      </trkpt>
      <trkpt lat="45.21978" lon="-1.15488">
        <ele>75</ele>
        <time>2025-04-26T08:11:59Z</time>
      </trkpt>
      <trkpt lat="45.21975" lon="-1.15492">
        <ele>74</ele>
        <time>2025-04-26T08:12:00Z</time>
      </trkpt>
      <trkpt lat="45.21971" lon="-1.15496">
        <ele>74</ele>
        <time>2025-04-26T08:12:01Z</time>
      </trkpt>
      <trkpt lat="45.21968" lon="-1.15501">
        <ele>74</ele>
        <time>2025-04-26T08:12:02Z</time>
      </trkpt>
      <trkpt lat="45.21964" lon="-1.15506">
        <ele>74</ele>
        <time>2025-04-26T08:12:03Z</time>
      </trkpt>
      <trkpt lat="45.2196" lon="-1.15511">
        <ele>74</ele>
        <time>2025-04-26T08:12:04Z</time>
      </trkpt>
      <trkpt lat="45.21957" lon="-1.15515">
        <ele>74</ele>
        <time>2025-04-26T08:12:05Z</time>
      </trkpt>
      <trkpt lat="45.21952" lon="-1.15521">
        <ele>74</ele>
        <time>2025-04-26T08:12:06Z</time>
      </trkpt>
      <trkpt lat="45.21948" lon="-1.15527">
        <ele>73</ele>
        <time>2025-04-26T08:12:07Z</time>
      </trkpt>
      <trkpt lat="45.21944" lon="-1.15534">
        <ele>73</ele>
        <time>2025-04-26T08:12:08Z</time>
      </trkpt>
      <trkpt lat="45.2194" lon="-1.1554">
        <ele>72</ele>
        <time>2025-04-26T08:12:09Z</time>
      </trkpt>
      <trkpt lat="45.21937" lon="-1.15547">
        <ele>72</ele>
        <time>2025-04-26T08:12:10Z</time>
      </trkpt>
      <trkpt lat="45.21933" lon="-1.15555">
        <ele>72</ele>
        <time>2025-04-26T08:12:11Z</time>
      </trkpt>
      <trkpt lat="45.21931" lon="-1.15563">
        <ele>72</ele>
        <time>2025-04-26T08:12:12Z</time>
      </trkpt>
      <trkpt lat="45.2193" lon="-1.15571">
        <ele>72</ele>
        <time>2025-04-26T08:12:13Z</time>
      </trkpt>
      <trkpt lat="45.21929" lon="-1.15577">
        <ele>71</ele>
        <time>2025-04-26T08:12:14Z</time>
      </trkpt>
      <trkpt lat="45.21928" lon="-1.15585">
        <ele>71</ele>
        <time>2025-04-26T08:12:15Z</time>
      </trkpt>
      <trkpt lat="45.21928" lon="-1.15591">
        <ele>71</ele>
        <time>2025-04-26T08:12:16Z</time>
      </trkpt>
      <trkpt lat="45.21928" lon="-1.15598">
        <ele>70</ele>
        <time>2025-04-26T08:12:17Z</time>
      </trkpt>
      <trkpt lat="45.21927" lon="-1.15606">
        <ele>71</ele>
        <time>2025-04-26T08:12:18Z</time>
      </trkpt>
      <trkpt lat="45.21926" lon="-1.15613">
        <ele>71</ele>
        <time>2025-04-26T08:12:19Z</time>
      </trkpt>
      <trkpt lat="45.21926" lon="-1.15621">
        <ele>71</ele>
        <time>2025-04-26T08:12:20Z</time>
      </trkpt>
      <trkpt lat="45.21925" lon="-1.15628">
        <ele>71</ele>
        <time>2025-04-26T08:12:21Z</time>
      </trkpt>
      <trkpt lat="45.21924" lon="-1.15635">
        <ele>71</ele>
        <time>2025-04-26T08:12:22Z</time>
      </trkpt>
      <trkpt lat="45.21923" lon="-1.15643">
        <ele>72</ele>
        <time>2025-04-26T08:12:23Z</time>
      </trkpt>
      <trkpt lat="45.21922" lon="-1.15651">
        <ele>71</ele>
        <time>2025-04-26T08:12:24Z</time>
      </trkpt>
      <trkpt lat="45.21922" lon="-1.15659">
        <ele>71</ele>
        <time>2025-04-26T08:12:25Z</time>
      </trkpt>
      <trkpt lat="45.21921" lon="-1.15666">
        <ele>71</ele>
        <time>2025-04-26T08:12:26Z</time>
      </trkpt>
      <trkpt lat="45.2192" lon="-1.15672">
        <ele>71</ele>
        <time>2025-04-26T08:12:27Z</time>
      </trkpt>
      <trkpt lat="45.21918" lon="-1.15679">
        <ele>71</ele>
        <time>2025-04-26T08:12:28Z</time>
      </trkpt>
      <trkpt lat="45.21916" lon="-1.15686">
        <ele>71</ele>
        <time>2025-04-26T08:12:29Z</time>
      </trkpt>
      <trkpt lat="45.21913" lon="-1.15692">
        <ele>71</ele>
        <time>2025-04-26T08:12:30Z</time>
      </trkpt>
      <trkpt lat="45.2191" lon="-1.15698">
        <ele>71</ele>
        <time>2025-04-26T08:12:31Z</time>
      </trkpt>
      <trkpt lat="45.21908" lon="-1.15704">
        <ele>72</ele>
        <time>2025-04-26T08:12:32Z</time>
      </trkpt>
      <trkpt lat="45.21905" lon="-1.1571">
        <ele>72</ele>
        <time>2025-04-26T08:12:33Z</time>
      </trkpt>
      <trkpt lat="45.21904" lon="-1.15718">
        <ele>72</ele>
        <time>2025-04-26T08:12:34Z</time>
      </trkpt>
      <trkpt lat="45.21904" lon="-1.15725">
        <ele>72</ele>
        <time>2025-04-26T08:12:35Z</time>
      </trkpt>
      <trkpt lat="45.21904" lon="-1.15732">
        <ele>72</ele>
        <time>2025-04-26T08:12:36Z</time>
      </trkpt>
      <trkpt lat="45.21905" lon="-1.15737">
        <ele>72</ele>
        <time>2025-04-26T08:12:37Z</time>
      </trkpt>
      <trkpt lat="45.21905" lon="-1.15743">
        <ele>72</ele>
        <time>2025-04-26T08:12:38Z</time>
      </trkpt>
      <trkpt lat="45.21906" lon="-1.15748">
        <ele>72</ele>
        <time>2025-04-26T08:12:39Z</time>
      </trkpt>
      <trkpt lat="45.21908" lon="-1.15753">
        <ele>71</ele>
        <time>2025-04-26T08:12:40Z</time>
      </trkpt>
      <trkpt lat="45.21908" lon="-1.15758">
        <ele>71</ele>
        <time>2025-04-26T08:12:41Z</time>
      </trkpt>
      <trkpt lat="45.21909" lon="-1.15762">
        <ele>71</ele>
        <time>2025-04-26T08:12:42Z</time>
      </trkpt>
      <trkpt lat="45.21908" lon="-1.15767">
        <ele>71</ele>
        <time>2025-04-26T08:12:43Z</time>
      </trkpt>
      <trkpt lat="45.21908" lon="-1.15773">
        <ele>71</ele>
        <time>2025-04-26T08:12:44Z</time>
      </trkpt>
      <trkpt lat="45.21907" lon="-1.15777">
        <ele>71</ele>
        <time>2025-04-26T08:12:45Z</time>
      </trkpt>
      <trkpt lat="45.21907" lon="-1.15783">
        <ele>70</ele>
        <time>2025-04-26T08:12:46Z</time>
      </trkpt>
      <trkpt lat="45.21907" lon="-1.15788">
        <ele>71</ele>
        <time>2025-04-26T08:12:47Z</time>
      </trkpt>
      <trkpt lat="45.21907" lon="-1.15793">
        <ele>71</ele>
        <time>2025-04-26T08:12:48Z</time>
      </trkpt>
      <trkpt lat="45.21908" lon="-1.15797">
        <ele>71</ele>
        <time>2025-04-26T08:12:49Z</time>
      </trkpt>
      <trkpt lat="45.21908" lon="-1.158">
        <ele>71</ele>
        <time>2025-04-26T08:12:50Z</time>
      </trkpt>
      <trkpt lat="45.21909" lon="-1.15803">
        <ele>71</ele>
        <time>2025-04-26T08:12:51Z</time>
      </trkpt>
      <trkpt lat="45.21909" lon="-1.15804">
        <ele>72</ele>
        <time>2025-04-26T08:12:52Z</time>
      </trkpt>
      <trkpt lat="45.21909" lon="-1.15805">
        <ele>72</ele>
        <time>2025-04-26T08:12:53Z</time>
      </trkpt>
      <trkpt lat="45.21909" lon="-1.15805">
        <ele>72</ele>
        <time>2025-04-26T08:12:54Z</time>
      </trkpt>
      <trkpt lat="45.21909" lon="-1.15806">
        <ele>72</ele>
        <time>2025-04-26T08:12:55Z</time>
      </trkpt>
      <trkpt lat="45.21909" lon="-1.15806">
        <ele>72</ele>
        <time>2025-04-26T08:12:56Z</time>
      </trkpt>
      <trkpt lat="45.21909" lon="-1.15806">
        <ele>72</ele>
        <time>2025-04-26T08:12:57Z</time>
      </trkpt>
      <trkpt lat="45.21908" lon="-1.15807">
        <ele>73</ele>
        <time>2025-04-26T08:12:58Z</time>
      </trkpt>
      <trkpt lat="45.21908" lon="-1.15807">
        <ele>73</ele>
        <time>2025-04-26T08:12:59Z</time>
      </trkpt>
      <trkpt lat="45.21907" lon="-1.15808">
        <ele>73</ele>
        <time>2025-04-26T08:13:00Z</time>
      </trkpt>
      <trkpt lat="45.21907" lon="-1.15808">
        <ele>74</ele>
        <time>2025-04-26T08:13:01Z</time>
      </trkpt>
      <trkpt lat="45.21907" lon="-1.15809">
        <ele>74</ele>
        <time>2025-04-26T08:13:02Z</time>
      </trkpt>
      <trkpt lat="45.21906" lon="-1.15809">
        <ele>75</ele>
        <time>2025-04-26T08:13:03Z</time>
      </trkpt>
      <trkpt lat="45.21906" lon="-1.15809">
        <ele>75</ele>
        <time>2025-04-26T08:13:04Z</time>
      </trkpt>
      <trkpt lat="45.21906" lon="-1.15809">
        <ele>75</ele>
        <time>2025-04-26T08:13:05Z</time>
      </trkpt>
      <trkpt lat="45.21906" lon="-1.15809">
        <ele>75</ele>
        <time>2025-04-26T08:13:06Z</time>
      </trkpt>
      <trkpt lat="45.21906" lon="-1.15809">
        <ele>75</ele>
        <time>2025-04-26T08:13:07Z</time>
      </trkpt>
      <trkpt lat="45.21906" lon="-1.15809">
        <ele>75</ele>
        <time>2025-04-26T08:13:08Z</time>
      </trkpt>
      <trkpt lat="45.21906" lon="-1.15809">
        <ele>75</ele>
        <time>2025-04-26T08:13:09Z</time>
      </trkpt>
      <trkpt lat="45.21906" lon="-1.15809">
        <ele>75</ele>
        <time>2025-04-26T08:13:10Z</time>
      </trkpt>
      <trkpt lat="45.21906" lon="-1.15809">
        <ele>75</ele>
        <time>2025-04-26T08:13:11Z</time>
      </trkpt>
      <trkpt lat="45.21906" lon="-1.15809">
        <ele>75</ele>
        <time>2025-04-26T08:13:12Z</time>
      </trkpt>
      <trkpt lat="45.21906" lon="-1.15809">
        <ele>75</ele>
        <time>2025-04-26T08:13:13Z</time>
      </trkpt>
      <trkpt lat="45.21906" lon="-1.15809">
        <ele>75</ele>
        <time>2025-04-26T08:13:14Z</time>
      </trkpt>
      <trkpt lat="45.21906" lon="-1.15809">
        <ele>75</ele>
        <time>2025-04-26T08:13:15Z</time>
      </trkpt>
      <trkpt lat="45.21906" lon="-1.15809">
        <ele>75</ele>
        <time>2025-04-26T08:13:16Z</time>
      </trkpt>
      <trkpt lat="45.21906" lon="-1.15809">
        <ele>75</ele>
        <time>2025-04-26T08:13:17Z</time>
      </trkpt>
      <trkpt lat="45.21906" lon="-1.15809">
        <ele>75</ele>
        <time>2025-04-26T08:13:18Z</time>
      </trkpt>
      <trkpt lat="45.21908" lon="-1.15806">
        <ele>74</ele>
        <time>2025-04-26T08:13:19Z</time>
      </trkpt>
      <trkpt lat="45.21908" lon="-1.15804">
        <ele>74</ele>
        <time>2025-04-26T08:13:20Z</time>
      </trkpt>
      <trkpt lat="45.21908" lon="-1.15802">
        <ele>73</ele>
        <time>2025-04-26T08:13:21Z</time>
      </trkpt>
      <trkpt lat="45.21908" lon="-1.15799">
        <ele>72</ele>
        <time>2025-04-26T08:13:22Z</time>
      </trkpt>
      <trkpt lat="45.21907" lon="-1.15795">
        <ele>72</ele>
        <time>2025-04-26T08:13:23Z</time>
      </trkpt>
      <trkpt lat="45.21906" lon="-1.15792">
        <ele>72</ele>
        <time>2025-04-26T08:13:24Z</time>
      </trkpt>
      <trkpt lat="45.21906" lon="-1.15788">
        <ele>72</ele>
        <time>2025-04-26T08:13:25Z</time>
      </trkpt>
      <trkpt lat="45.21906" lon="-1.15784">
        <ele>72</ele>
        <time>2025-04-26T08:13:26Z</time>
      </trkpt>
      <trkpt lat="45.21906" lon="-1.1578">
        <ele>73</ele>
        <time>2025-04-26T08:13:27Z</time>
      </trkpt>
      <trkpt lat="45.21906" lon="-1.15777">
        <ele>74</ele>
        <time>2025-04-26T08:13:28Z</time>
      </trkpt>
      <trkpt lat="45.21906" lon="-1.15774">
        <ele>74</ele>
        <time>2025-04-26T08:13:29Z</time>
      </trkpt>
      <trkpt lat="45.21907" lon="-1.15771">
        <ele>74</ele>
        <time>2025-04-26T08:13:30Z</time>
      </trkpt>
      <trkpt lat="45.21907" lon="-1.15768">
        <ele>74</ele>
        <time>2025-04-26T08:13:31Z</time>
      </trkpt>
      <trkpt lat="45.21906" lon="-1.15767">
        <ele>74</ele>
        <time>2025-04-26T08:13:32Z</time>
      </trkpt>
      <trkpt lat="45.21906" lon="-1.15766">
        <ele>75</ele>
        <time>2025-04-26T08:13:33Z</time>
      </trkpt>
      <trkpt lat="45.21906" lon="-1.15766">
        <ele>75</ele>
        <time>2025-04-26T08:13:34Z</time>
      </trkpt>
      <trkpt lat="45.21906" lon="-1.15765">
        <ele>76</ele>
        <time>2025-04-26T08:13:35Z</time>
      </trkpt>
      <trkpt lat="45.21906" lon="-1.15765">
        <ele>76</ele>
        <time>2025-04-26T08:13:36Z</time>
      </trkpt>
      <trkpt lat="45.21906" lon="-1.15764">
        <ele>76</ele>
        <time>2025-04-26T08:13:37Z</time>
      </trkpt>
      <trkpt lat="45.21906" lon="-1.15763">
        <ele>76</ele>
        <time>2025-04-26T08:13:38Z</time>
      </trkpt>
      <trkpt lat="45.21906" lon="-1.15763">
        <ele>76</ele>
        <time>2025-04-26T08:13:39Z</time>
      </trkpt>
      <trkpt lat="45.21907" lon="-1.15762">
        <ele>76</ele>
        <time>2025-04-26T08:13:40Z</time>
      </trkpt>
      <trkpt lat="45.21907" lon="-1.1576">
        <ele>76</ele>
        <time>2025-04-26T08:13:41Z</time>
      </trkpt>
      <trkpt lat="45.21908" lon="-1.1576">
        <ele>75</ele>
        <time>2025-04-26T08:13:42Z</time>
      </trkpt>
      <trkpt lat="45.21909" lon="-1.15759">
        <ele>75</ele>
        <time>2025-04-26T08:13:43Z</time>
      </trkpt>
      <trkpt lat="45.2191" lon="-1.15758">
        <ele>75</ele>
        <time>2025-04-26T08:13:44Z</time>
      </trkpt>
      <trkpt lat="45.21912" lon="-1.15757">
        <ele>75</ele>
        <time>2025-04-26T08:13:45Z</time>
      </trkpt>
      <trkpt lat="45.21914" lon="-1.15756">
        <ele>75</ele>
        <time>2025-04-26T08:13:46Z</time>
      </trkpt>
      <trkpt lat="45.21916" lon="-1.15755">
        <ele>75</ele>
        <time>2025-04-26T08:13:47Z</time>
      </trkpt>
      <trkpt lat="45.21918" lon="-1.15755">
        <ele>75</ele>
        <time>2025-04-26T08:13:48Z</time>
      </trkpt>
      <trkpt lat="45.21921" lon="-1.15754">
        <ele>75</ele>
        <time>2025-04-26T08:13:49Z</time>
      </trkpt>
      <trkpt lat="45.21924" lon="-1.15754">
        <ele>74</ele>
        <time>2025-04-26T08:13:50Z</time>
      </trkpt>
      <trkpt lat="45.21926" lon="-1.15754">
        <ele>74</ele>
        <time>2025-04-26T08:13:51Z</time>
      </trkpt>
      <trkpt lat="45.21929" lon="-1.15754">
        <ele>74</ele>
        <time>2025-04-26T08:13:52Z</time>
      </trkpt>
      <trkpt lat="45.21932" lon="-1.15754">
        <ele>74</ele>
        <time>2025-04-26T08:13:53Z</time>
      </trkpt>
      <trkpt lat="45.21935" lon="-1.15753">
        <ele>74</ele>
        <time>2025-04-26T08:13:54Z</time>
      </trkpt>
      <trkpt lat="45.21939" lon="-1.15753">
        <ele>74</ele>
        <time>2025-04-26T08:13:55Z</time>
      </trkpt>
      <trkpt lat="45.21942" lon="-1.15752">
        <ele>74</ele>
        <time>2025-04-26T08:13:56Z</time>
      </trkpt>
      <trkpt lat="45.21946" lon="-1.15752">
        <ele>74</ele>
        <time>2025-04-26T08:13:57Z</time>
      </trkpt>
      <trkpt lat="45.21949" lon="-1.15751">
        <ele>75</ele>
        <time>2025-04-26T08:13:58Z</time>
      </trkpt>
      <trkpt lat="45.21953" lon="-1.1575">
        <ele>75</ele>
        <time>2025-04-26T08:13:59Z</time>
      </trkpt>
      <trkpt lat="45.21957" lon="-1.1575">
        <ele>75</ele>
        <time>2025-04-26T08:14:00Z</time>
      </trkpt>
      <trkpt lat="45.2196" lon="-1.1575">
        <ele>74</ele>
        <time>2025-04-26T08:14:01Z</time>
      </trkpt>
      <trkpt lat="45.21964" lon="-1.15749">
        <ele>74</ele>
        <time>2025-04-26T08:14:02Z</time>
      </trkpt>
      <trkpt lat="45.21968" lon="-1.15749">
        <ele>74</ele>
        <time>2025-04-26T08:14:03Z</time>
      </trkpt>
      <trkpt lat="45.21972" lon="-1.1575">
        <ele>74</ele>
        <time>2025-04-26T08:14:04Z</time>
      </trkpt>
      <trkpt lat="45.21977" lon="-1.15749">
        <ele>74</ele>
        <time>2025-04-26T08:14:05Z</time>
      </trkpt>
      <trkpt lat="45.21981" lon="-1.1575">
        <ele>73</ele>
        <time>2025-04-26T08:14:06Z</time>
      </trkpt>
      <trkpt lat="45.21986" lon="-1.1575">
        <ele>73</ele>
        <time>2025-04-26T08:14:07Z</time>
      </trkpt>
      <trkpt lat="45.2199" lon="-1.1575">
        <ele>73</ele>
        <time>2025-04-26T08:14:08Z</time>
      </trkpt>
      <trkpt lat="45.21995" lon="-1.1575">
        <ele>73</ele>
        <time>2025-04-26T08:14:09Z</time>
      </trkpt>
      <trkpt lat="45.21999" lon="-1.1575">
        <ele>73</ele>
        <time>2025-04-26T08:14:10Z</time>
      </trkpt>
      <trkpt lat="45.22004" lon="-1.1575">
        <ele>73</ele>
        <time>2025-04-26T08:14:11Z</time>
      </trkpt>
      <trkpt lat="45.22008" lon="-1.1575">
        <ele>72</ele>
        <time>2025-04-26T08:14:12Z</time>
      </trkpt>
      <trkpt lat="45.22013" lon="-1.1575">
        <ele>72</ele>
        <time>2025-04-26T08:14:13Z</time>
      </trkpt>
      <trkpt lat="45.22018" lon="-1.1575">
        <ele>72</ele>
        <time>2025-04-26T08:14:14Z</time>
      </trkpt>
      <trkpt lat="45.22023" lon="-1.1575">
        <ele>71</ele>
        <time>2025-04-26T08:14:15Z</time>
      </trkpt>
      <trkpt lat="45.22028" lon="-1.15751">
        <ele>71</ele>
        <time>2025-04-26T08:14:16Z</time>
      </trkpt>
      <trkpt lat="45.22033" lon="-1.15751">
        <ele>71</ele>
        <time>2025-04-26T08:14:17Z</time>
      </trkpt>
      <trkpt lat="45.22039" lon="-1.15752">
        <ele>71</ele>
        <time>2025-04-26T08:14:18Z</time>
      </trkpt>
      <trkpt lat="45.22044" lon="-1.15752">
        <ele>72</ele>
        <time>2025-04-26T08:14:19Z</time>
      </trkpt>
      <trkpt lat="45.22049" lon="-1.15752">
        <ele>72</ele>
        <time>2025-04-26T08:14:20Z</time>
      </trkpt>
      <trkpt lat="45.22054" lon="-1.15752">
        <ele>72</ele>
        <time>2025-04-26T08:14:21Z</time>
      </trkpt>
      <trkpt lat="45.22058" lon="-1.15753">
        <ele>72</ele>
        <time>2025-04-26T08:14:22Z</time>
      </trkpt>
      <trkpt lat="45.22063" lon="-1.15753">
        <ele>71</ele>
        <time>2025-04-26T08:14:23Z</time>
      </trkpt>
      <trkpt lat="45.22068" lon="-1.15753">
        <ele>71</ele>
        <time>2025-04-26T08:14:24Z</time>
      </trkpt>
      <trkpt lat="45.22073" lon="-1.15753">
        <ele>71</ele>
        <time>2025-04-26T08:14:25Z</time>
      </trkpt>
      <trkpt lat="45.22078" lon="-1.15753">
        <ele>71</ele>
        <time>2025-04-26T08:14:26Z</time>
      </trkpt>
      <trkpt lat="45.22083" lon="-1.15753">
        <ele>70</ele>
        <time>2025-04-26T08:14:27Z</time>
      </trkpt>
      <trkpt lat="45.22088" lon="-1.15753">
        <ele>70</ele>
        <time>2025-04-26T08:14:28Z</time>
      </trkpt>
      <trkpt lat="45.22093" lon="-1.15754">
        <ele>70</ele>
        <time>2025-04-26T08:14:29Z</time>
      </trkpt>
      <trkpt lat="45.22098" lon="-1.15754">
        <ele>70</ele>
        <time>2025-04-26T08:14:30Z</time>
      </trkpt>
      <trkpt lat="45.22102" lon="-1.15755">
        <ele>70</ele>
        <time>2025-04-26T08:14:31Z</time>
      </trkpt>
      <trkpt lat="45.22107" lon="-1.15755">
        <ele>70</ele>
        <time>2025-04-26T08:14:32Z</time>
      </trkpt>
      <trkpt lat="45.22112" lon="-1.15755">
        <ele>70</ele>
        <time>2025-04-26T08:14:33Z</time>
      </trkpt>
      <trkpt lat="45.22117" lon="-1.15756">
        <ele>70</ele>
        <time>2025-04-26T08:14:34Z</time>
      </trkpt>
      <trkpt lat="45.22122" lon="-1.15755">
        <ele>71</ele>
        <time>2025-04-26T08:14:35Z</time>
      </trkpt>
      <trkpt lat="45.22127" lon="-1.15755">
        <ele>71</ele>
        <time>2025-04-26T08:14:36Z</time>
      </trkpt>
      <trkpt lat="45.22132" lon="-1.15755">
        <ele>71</ele>
        <time>2025-04-26T08:14:37Z</time>
      </trkpt>
      <trkpt lat="45.22137" lon="-1.15755">
        <ele>72</ele>
        <time>2025-04-26T08:14:38Z</time>
      </trkpt>
      <trkpt lat="45.22142" lon="-1.15755">
        <ele>72</ele>
        <time>2025-04-26T08:14:39Z</time>
      </trkpt>
      <trkpt lat="45.22147" lon="-1.15756">
        <ele>72</ele>
        <time>2025-04-26T08:14:40Z</time>
      </trkpt>
      <trkpt lat="45.22152" lon="-1.15756">
        <ele>73</ele>
        <time>2025-04-26T08:14:41Z</time>
      </trkpt>
      <trkpt lat="45.22157" lon="-1.15756">
        <ele>73</ele>
        <time>2025-04-26T08:14:42Z</time>
      </trkpt>
      <trkpt lat="45.22162" lon="-1.15756">
        <ele>73</ele>
        <time>2025-04-26T08:14:43Z</time>
      </trkpt>
      <trkpt lat="45.22167" lon="-1.15757">
        <ele>73</ele>
        <time>2025-04-26T08:14:44Z</time>
      </trkpt>
      <trkpt lat="45.22172" lon="-1.15756">
        <ele>73</ele>
        <time>2025-04-26T08:14:45Z</time>
      </trkpt>
      <trkpt lat="45.22177" lon="-1.15756">
        <ele>74</ele>
        <time>2025-04-26T08:14:46Z</time>
      </trkpt>
      <trkpt lat="45.22182" lon="-1.15756">
        <ele>74</ele>
        <time>2025-04-26T08:14:47Z</time>
      </trkpt>
      <trkpt lat="45.22186" lon="-1.15756">
        <ele>74</ele>
        <time>2025-04-26T08:14:48Z</time>
      </trkpt>
      <trkpt lat="45.22191" lon="-1.15757">
        <ele>75</ele>
        <time>2025-04-26T08:14:49Z</time>
      </trkpt>
      <trkpt lat="45.22195" lon="-1.15757">
        <ele>74</ele>
        <time>2025-04-26T08:14:50Z</time>
      </trkpt>
      <trkpt lat="45.22199" lon="-1.15757">
        <ele>75</ele>
        <time>2025-04-26T08:14:51Z</time>
      </trkpt>
      <trkpt lat="45.22203" lon="-1.15758">
        <ele>75</ele>
        <time>2025-04-26T08:14:52Z</time>
      </trkpt>
      <trkpt lat="45.22207" lon="-1.15758">
        <ele>75</ele>
        <time>2025-04-26T08:14:53Z</time>
      </trkpt>
      <trkpt lat="45.2221" lon="-1.15758">
        <ele>75</ele>
        <time>2025-04-26T08:14:54Z</time>
      </trkpt>
      <trkpt lat="45.22214" lon="-1.15758">
        <ele>75</ele>
        <time>2025-04-26T08:14:55Z</time>
      </trkpt>
      <trkpt lat="45.22218" lon="-1.15759">
        <ele>75</ele>
        <time>2025-04-26T08:14:56Z</time>
      </trkpt>
      <trkpt lat="45.22222" lon="-1.15758">
        <ele>76</ele>
        <time>2025-04-26T08:14:57Z</time>
      </trkpt>
      <trkpt lat="45.22226" lon="-1.15758">
        <ele>76</ele>
        <time>2025-04-26T08:14:58Z</time>
      </trkpt>
      <trkpt lat="45.2223" lon="-1.15758">
        <ele>76</ele>
        <time>2025-04-26T08:14:59Z</time>
      </trkpt>
      <trkpt lat="45.22233" lon="-1.15758">
        <ele>76</ele>
        <time>2025-04-26T08:15:00Z</time>
      </trkpt>
      <trkpt lat="45.22236" lon="-1.15758">
        <ele>76</ele>
        <time>2025-04-26T08:15:01Z</time>
      </trkpt>
      <trkpt lat="45.2224" lon="-1.15758">
        <ele>76</ele>
        <time>2025-04-26T08:15:02Z</time>
      </trkpt>
      <trkpt lat="45.22243" lon="-1.15758">
        <ele>77</ele>
        <time>2025-04-26T08:15:03Z</time>
      </trkpt>
      <trkpt lat="45.22247" lon="-1.15757">
        <ele>77</ele>
        <time>2025-04-26T08:15:04Z</time>
      </trkpt>
      <trkpt lat="45.2225" lon="-1.15757">
        <ele>77</ele>
        <time>2025-04-26T08:15:05Z</time>
      </trkpt>
      <trkpt lat="45.22252" lon="-1.15757">
        <ele>77</ele>
        <time>2025-04-26T08:15:06Z</time>
      </trkpt>
      <trkpt lat="45.22254" lon="-1.15757">
        <ele>77</ele>
        <time>2025-04-26T08:15:07Z</time>
      </trkpt>
      <trkpt lat="45.22256" lon="-1.15757">
        <ele>77</ele>
        <time>2025-04-26T08:15:08Z</time>
      </trkpt>
      <trkpt lat="45.22258" lon="-1.15758">
        <ele>77</ele>
        <time>2025-04-26T08:15:09Z</time>
      </trkpt>
      <trkpt lat="45.2226" lon="-1.15759">
        <ele>77</ele>
        <time>2025-04-26T08:15:10Z</time>
      </trkpt>
      <trkpt lat="45.22261" lon="-1.1576">
        <ele>77</ele>
        <time>2025-04-26T08:15:11Z</time>
      </trkpt>
      <trkpt lat="45.22262" lon="-1.1576">
        <ele>77</ele>
        <time>2025-04-26T08:15:12Z</time>
      </trkpt>
      <trkpt lat="45.22263" lon="-1.1576">
        <ele>77</ele>
        <time>2025-04-26T08:15:13Z</time>
      </trkpt>
      <trkpt lat="45.22265" lon="-1.1576">
        <ele>77</ele>
        <time>2025-04-26T08:15:14Z</time>
      </trkpt>
      <trkpt lat="45.22266" lon="-1.1576">
        <ele>77</ele>
        <time>2025-04-26T08:15:15Z</time>
      </trkpt>
      <trkpt lat="45.22268" lon="-1.15758">
        <ele>78</ele>
        <time>2025-04-26T08:15:16Z</time>
      </trkpt>
      <trkpt lat="45.2227" lon="-1.15757">
        <ele>78</ele>
        <time>2025-04-26T08:15:17Z</time>
      </trkpt>
      <trkpt lat="45.22273" lon="-1.15755">
        <ele>78</ele>
        <time>2025-04-26T08:15:18Z</time>
      </trkpt>
      <trkpt lat="45.22277" lon="-1.15752">
        <ele>78</ele>
        <time>2025-04-26T08:15:19Z</time>
      </trkpt>
      <trkpt lat="45.22281" lon="-1.1575">
        <ele>78</ele>
        <time>2025-04-26T08:15:20Z</time>
      </trkpt>
      <trkpt lat="45.22285" lon="-1.15747">
        <ele>78</ele>
        <time>2025-04-26T08:15:21Z</time>
      </trkpt>
      <trkpt lat="45.22289" lon="-1.15744">
        <ele>79</ele>
        <time>2025-04-26T08:15:22Z</time>
      </trkpt>
      <trkpt lat="45.22293" lon="-1.15741">
        <ele>79</ele>
        <time>2025-04-26T08:15:23Z</time>
      </trkpt>
      <trkpt lat="45.22297" lon="-1.15738">
        <ele>79</ele>
        <time>2025-04-26T08:15:24Z</time>
      </trkpt>
      <trkpt lat="45.22302" lon="-1.15735">
        <ele>78</ele>
        <time>2025-04-26T08:15:25Z</time>
      </trkpt>
      <trkpt lat="45.22307" lon="-1.15732">
        <ele>78</ele>
        <time>2025-04-26T08:15:26Z</time>
      </trkpt>
      <trkpt lat="45.22311" lon="-1.1573">
        <ele>78</ele>
        <time>2025-04-26T08:15:27Z</time>
      </trkpt>
      <trkpt lat="45.22316" lon="-1.15727">
        <ele>78</ele>
        <time>2025-04-26T08:15:28Z</time>
      </trkpt>
      <trkpt lat="45.22321" lon="-1.15724">
        <ele>78</ele>
        <time>2025-04-26T08:15:29Z</time>
      </trkpt>
      <trkpt lat="45.22325" lon="-1.15722">
        <ele>78</ele>
        <time>2025-04-26T08:15:30Z</time>
      </trkpt>
      <trkpt lat="45.22329" lon="-1.15721">
        <ele>78</ele>
        <time>2025-04-26T08:15:31Z</time>
      </trkpt>
      <trkpt lat="45.22334" lon="-1.1572">
        <ele>77</ele>
        <time>2025-04-26T08:15:32Z</time>
      </trkpt>
      <trkpt lat="45.22338" lon="-1.1572">
        <ele>77</ele>
        <time>2025-04-26T08:15:33Z</time>
      </trkpt>
      <trkpt lat="45.22343" lon="-1.15723">
        <ele>76</ele>
        <time>2025-04-26T08:15:34Z</time>
      </trkpt>
      <trkpt lat="45.22347" lon="-1.15726">
        <ele>75</ele>
        <time>2025-04-26T08:15:35Z</time>
      </trkpt>
      <trkpt lat="45.22351" lon="-1.15731">
        <ele>74</ele>
        <time>2025-04-26T08:15:36Z</time>
      </trkpt>
      <trkpt lat="45.22355" lon="-1.15735">
        <ele>73</ele>
        <time>2025-04-26T08:15:37Z</time>
      </trkpt>
      <trkpt lat="45.22359" lon="-1.15739">
        <ele>73</ele>
        <time>2025-04-26T08:15:38Z</time>
      </trkpt>
      <trkpt lat="45.22363" lon="-1.15743">
        <ele>72</ele>
        <time>2025-04-26T08:15:39Z</time>
      </trkpt>
      <trkpt lat="45.22366" lon="-1.15747">
        <ele>72</ele>
        <time>2025-04-26T08:15:40Z</time>
      </trkpt>
      <trkpt lat="45.22368" lon="-1.1575">
        <ele>72</ele>
        <time>2025-04-26T08:15:41Z</time>
      </trkpt>
      <trkpt lat="45.2237" lon="-1.15752">
        <ele>72</ele>
        <time>2025-04-26T08:15:42Z</time>
      </trkpt>
      <trkpt lat="45.22372" lon="-1.15753">
        <ele>73</ele>
        <time>2025-04-26T08:15:43Z</time>
      </trkpt>
      <trkpt lat="45.22374" lon="-1.15753">
        <ele>73</ele>
        <time>2025-04-26T08:15:44Z</time>
      </trkpt>
      <trkpt lat="45.22375" lon="-1.15753">
        <ele>73</ele>
        <time>2025-04-26T08:15:45Z</time>
      </trkpt>
      <trkpt lat="45.22377" lon="-1.15754">
        <ele>73</ele>
        <time>2025-04-26T08:15:46Z</time>
      </trkpt>
      <trkpt lat="45.22378" lon="-1.15756">
        <ele>73</ele>
        <time>2025-04-26T08:15:47Z</time>
      </trkpt>
      <trkpt lat="45.2238" lon="-1.15757">
        <ele>73</ele>
        <time>2025-04-26T08:15:48Z</time>
      </trkpt>
      <trkpt lat="45.22381" lon="-1.15757">
        <ele>73</ele>
        <time>2025-04-26T08:15:49Z</time>
      </trkpt>
      <trkpt lat="45.22382" lon="-1.15757">
        <ele>74</ele>
        <time>2025-04-26T08:15:50Z</time>
      </trkpt>
      <trkpt lat="45.22384" lon="-1.15756">
        <ele>74</ele>
        <time>2025-04-26T08:15:51Z</time>
      </trkpt>
      <trkpt lat="45.22387" lon="-1.15755">
        <ele>75</ele>
        <time>2025-04-26T08:15:52Z</time>
      </trkpt>
      <trkpt lat="45.2239" lon="-1.15754">
        <ele>75</ele>
        <time>2025-04-26T08:15:53Z</time>
      </trkpt>
      <trkpt lat="45.22393" lon="-1.15754">
        <ele>75</ele>
        <time>2025-04-26T08:15:54Z</time>
      </trkpt>
      <trkpt lat="45.22396" lon="-1.15753">
        <ele>75</ele>
        <time>2025-04-26T08:15:55Z</time>
      </trkpt>
      <trkpt lat="45.22399" lon="-1.15752">
        <ele>75</ele>
        <time>2025-04-26T08:15:56Z</time>
      </trkpt>
      <trkpt lat="45.22403" lon="-1.15751">
        <ele>75</ele>
        <time>2025-04-26T08:15:57Z</time>
      </trkpt>
      <trkpt lat="45.22407" lon="-1.1575">
        <ele>76</ele>
        <time>2025-04-26T08:15:58Z</time>
      </trkpt>
      <trkpt lat="45.22411" lon="-1.15749">
        <ele>76</ele>
        <time>2025-04-26T08:15:59Z</time>
      </trkpt>
      <trkpt lat="45.22414" lon="-1.15747">
        <ele>76</ele>
        <time>2025-04-26T08:16:00Z</time>
      </trkpt>
      <trkpt lat="45.22418" lon="-1.15746">
        <ele>76</ele>
        <time>2025-04-26T08:16:01Z</time>
      </trkpt>
      <trkpt lat="45.22422" lon="-1.15745">
        <ele>77</ele>
        <time>2025-04-26T08:16:02Z</time>
      </trkpt>
      <trkpt lat="45.22425" lon="-1.15743">
        <ele>77</ele>
        <time>2025-04-26T08:16:03Z</time>
      </trkpt>
      <trkpt lat="45.2243" lon="-1.15743">
        <ele>76</ele>
        <time>2025-04-26T08:16:04Z</time>
      </trkpt>
      <trkpt lat="45.22434" lon="-1.15742">
        <ele>75</ele>
        <time>2025-04-26T08:16:05Z</time>
      </trkpt>
      <trkpt lat="45.22437" lon="-1.15741">
        <ele>74</ele>
        <time>2025-04-26T08:16:06Z</time>
      </trkpt>
      <trkpt lat="45.22441" lon="-1.1574">
        <ele>74</ele>
        <time>2025-04-26T08:16:07Z</time>
      </trkpt>
      <trkpt lat="45.22445" lon="-1.15738">
        <ele>73</ele>
        <time>2025-04-26T08:16:08Z</time>
      </trkpt>
      <trkpt lat="45.22449" lon="-1.15737">
        <ele>73</ele>
        <time>2025-04-26T08:16:09Z</time>
      </trkpt>
      <trkpt lat="45.22453" lon="-1.15735">
        <ele>73</ele>
        <time>2025-04-26T08:16:10Z</time>
      </trkpt>
      <trkpt lat="45.22457" lon="-1.15734">
        <ele>73</ele>
        <time>2025-04-26T08:16:11Z</time>
      </trkpt>
      <trkpt lat="45.22461" lon="-1.15733">
        <ele>73</ele>
        <time>2025-04-26T08:16:12Z</time>
      </trkpt>
      <trkpt lat="45.22465" lon="-1.15732">
        <ele>73</ele>
        <time>2025-04-26T08:16:13Z</time>
      </trkpt>
      <trkpt lat="45.22469" lon="-1.1573">
        <ele>72</ele>
        <time>2025-04-26T08:16:14Z</time>
      </trkpt>
      <trkpt lat="45.22473" lon="-1.15728">
        <ele>72</ele>
        <time>2025-04-26T08:16:15Z</time>
      </trkpt>
      <trkpt lat="45.22478" lon="-1.15727">
        <ele>72</ele>
        <time>2025-04-26T08:16:16Z</time>
      </trkpt>
      <trkpt lat="45.22482" lon="-1.15726">
        <ele>72</ele>
        <time>2025-04-26T08:16:17Z</time>
      </trkpt>
      <trkpt lat="45.22486" lon="-1.15725">
        <ele>71</ele>
        <time>2025-04-26T08:16:18Z</time>
      </trkpt>
      <trkpt lat="45.22491" lon="-1.15723">
        <ele>72</ele>
        <time>2025-04-26T08:16:19Z</time>
      </trkpt>
      <trkpt lat="45.22496" lon="-1.15722">
        <ele>73</ele>
        <time>2025-04-26T08:16:20Z</time>
      </trkpt>
      <trkpt lat="45.225" lon="-1.15721">
        <ele>73</ele>
        <time>2025-04-26T08:16:21Z</time>
      </trkpt>
      <trkpt lat="45.22504" lon="-1.1572">
        <ele>73</ele>
        <time>2025-04-26T08:16:22Z</time>
      </trkpt>
      <trkpt lat="45.22508" lon="-1.15719">
        <ele>73</ele>
        <time>2025-04-26T08:16:23Z</time>
      </trkpt>
      <trkpt lat="45.22512" lon="-1.15718">
        <ele>73</ele>
        <time>2025-04-26T08:16:24Z</time>
      </trkpt>
      <trkpt lat="45.22515" lon="-1.15718">
        <ele>74</ele>
        <time>2025-04-26T08:16:25Z</time>
      </trkpt>
      <trkpt lat="45.22518" lon="-1.15717">
        <ele>74</ele>
        <time>2025-04-26T08:16:26Z</time>
      </trkpt>
      <trkpt lat="45.22521" lon="-1.15716">
        <ele>73</ele>
        <time>2025-04-26T08:16:27Z</time>
      </trkpt>
      <trkpt lat="45.22524" lon="-1.15716">
        <ele>74</ele>
        <time>2025-04-26T08:16:28Z</time>
      </trkpt>
      <trkpt lat="45.22527" lon="-1.15715">
        <ele>74</ele>
        <time>2025-04-26T08:16:29Z</time>
      </trkpt>
      <trkpt lat="45.2253" lon="-1.15714">
        <ele>74</ele>
        <time>2025-04-26T08:16:30Z</time>
      </trkpt>
      <trkpt lat="45.22533" lon="-1.15712">
        <ele>75</ele>
        <time>2025-04-26T08:16:31Z</time>
      </trkpt>
      <trkpt lat="45.22536" lon="-1.15711">
        <ele>75</ele>
        <time>2025-04-26T08:16:32Z</time>
      </trkpt>
      <trkpt lat="45.22539" lon="-1.1571">
        <ele>74</ele>
        <time>2025-04-26T08:16:33Z</time>
      </trkpt>
      <trkpt lat="45.22541" lon="-1.15708">
        <ele>74</ele>
        <time>2025-04-26T08:16:34Z</time>
      </trkpt>
      <trkpt lat="45.22544" lon="-1.15707">
        <ele>74</ele>
        <time>2025-04-26T08:16:35Z</time>
      </trkpt>
      <trkpt lat="45.22547" lon="-1.15706">
        <ele>74</ele>
        <time>2025-04-26T08:16:36Z</time>
      </trkpt>
      <trkpt lat="45.2255" lon="-1.15705">
        <ele>74</ele>
        <time>2025-04-26T08:16:37Z</time>
      </trkpt>
      <trkpt lat="45.22553" lon="-1.15704">
        <ele>74</ele>
        <time>2025-04-26T08:16:38Z</time>
      </trkpt>
      <trkpt lat="45.22556" lon="-1.15703">
        <ele>75</ele>
        <time>2025-04-26T08:16:39Z</time>
      </trkpt>
      <trkpt lat="45.2256" lon="-1.15702">
        <ele>76</ele>
        <time>2025-04-26T08:16:40Z</time>
      </trkpt>
      <trkpt lat="45.22563" lon="-1.15701">
        <ele>76</ele>
        <time>2025-04-26T08:16:41Z</time>
      </trkpt>
      <trkpt lat="45.22566" lon="-1.157">
        <ele>77</ele>
        <time>2025-04-26T08:16:42Z</time>
      </trkpt>
      <trkpt lat="45.22569" lon="-1.15699">
        <ele>77</ele>
        <time>2025-04-26T08:16:43Z</time>
      </trkpt>
      <trkpt lat="45.22572" lon="-1.15698">
        <ele>78</ele>
        <time>2025-04-26T08:16:44Z</time>
      </trkpt>
      <trkpt lat="45.22575" lon="-1.15697">
        <ele>78</ele>
        <time>2025-04-26T08:16:45Z</time>
      </trkpt>
      <trkpt lat="45.22579" lon="-1.15696">
        <ele>78</ele>
        <time>2025-04-26T08:16:46Z</time>
      </trkpt>
      <trkpt lat="45.22582" lon="-1.15695">
        <ele>78</ele>
        <time>2025-04-26T08:16:47Z</time>
      </trkpt>
      <trkpt lat="45.22585" lon="-1.15695">
        <ele>78</ele>
        <time>2025-04-26T08:16:48Z</time>
      </trkpt>
      <trkpt lat="45.22589" lon="-1.15694">
        <ele>78</ele>
        <time>2025-04-26T08:16:49Z</time>
      </trkpt>
      <trkpt lat="45.22592" lon="-1.15693">
        <ele>78</ele>
        <time>2025-04-26T08:16:50Z</time>
      </trkpt>
      <trkpt lat="45.22595" lon="-1.15692">
        <ele>78</ele>
        <time>2025-04-26T08:16:51Z</time>
      </trkpt>
      <trkpt lat="45.22598" lon="-1.15691">
        <ele>78</ele>
        <time>2025-04-26T08:16:52Z</time>
      </trkpt>
      <trkpt lat="45.22602" lon="-1.1569">
        <ele>77</ele>
        <time>2025-04-26T08:16:53Z</time>
      </trkpt>
      <trkpt lat="45.22605" lon="-1.15689">
        <ele>77</ele>
        <time>2025-04-26T08:16:54Z</time>
      </trkpt>
      <trkpt lat="45.22609" lon="-1.15688">
        <ele>77</ele>
        <time>2025-04-26T08:16:55Z</time>
      </trkpt>
      <trkpt lat="45.22612" lon="-1.15687">
        <ele>77</ele>
        <time>2025-04-26T08:16:56Z</time>
      </trkpt>
      <trkpt lat="45.22615" lon="-1.15686">
        <ele>77</ele>
        <time>2025-04-26T08:16:57Z</time>
      </trkpt>
      <trkpt lat="45.22619" lon="-1.15686">
        <ele>77</ele>
        <time>2025-04-26T08:16:58Z</time>
      </trkpt>
      <trkpt lat="45.22622" lon="-1.15685">
        <ele>76</ele>
        <time>2025-04-26T08:16:59Z</time>
      </trkpt>
      <trkpt lat="45.22626" lon="-1.15685">
        <ele>76</ele>
        <time>2025-04-26T08:17:00Z</time>
      </trkpt>
      <trkpt lat="45.22629" lon="-1.15684">
        <ele>76</ele>
        <time>2025-04-26T08:17:01Z</time>
      </trkpt>
      <trkpt lat="45.22633" lon="-1.15683">
        <ele>76</ele>
        <time>2025-04-26T08:17:02Z</time>
      </trkpt>
      <trkpt lat="45.22636" lon="-1.15682">
        <ele>76</ele>
        <time>2025-04-26T08:17:03Z</time>
      </trkpt>
      <trkpt lat="45.2264" lon="-1.15681">
        <ele>75</ele>
        <time>2025-04-26T08:17:04Z</time>
      </trkpt>
      <trkpt lat="45.22643" lon="-1.1568">
        <ele>75</ele>
        <time>2025-04-26T08:17:05Z</time>
      </trkpt>
      <trkpt lat="45.22647" lon="-1.15678">
        <ele>75</ele>
        <time>2025-04-26T08:17:06Z</time>
      </trkpt>
      <trkpt lat="45.2265" lon="-1.15677">
        <ele>74</ele>
        <time>2025-04-26T08:17:07Z</time>
      </trkpt>
      <trkpt lat="45.22654" lon="-1.15676">
        <ele>74</ele>
        <time>2025-04-26T08:17:08Z</time>
      </trkpt>
      <trkpt lat="45.22658" lon="-1.15675">
        <ele>74</ele>
        <time>2025-04-26T08:17:09Z</time>
      </trkpt>
      <trkpt lat="45.22661" lon="-1.15674">
        <ele>73</ele>
        <time>2025-04-26T08:17:10Z</time>
      </trkpt>
      <trkpt lat="45.22665" lon="-1.15672">
        <ele>73</ele>
        <time>2025-04-26T08:17:11Z</time>
      </trkpt>
      <trkpt lat="45.22669" lon="-1.15671">
        <ele>73</ele>
        <time>2025-04-26T08:17:12Z</time>
      </trkpt>
      <trkpt lat="45.22673" lon="-1.15669">
        <ele>73</ele>
        <time>2025-04-26T08:17:13Z</time>
      </trkpt>
      <trkpt lat="45.22677" lon="-1.15668">
        <ele>73</ele>
        <time>2025-04-26T08:17:14Z</time>
      </trkpt>
      <trkpt lat="45.22682" lon="-1.15666">
        <ele>73</ele>
        <time>2025-04-26T08:17:15Z</time>
      </trkpt>
      <trkpt lat="45.22686" lon="-1.15665">
        <ele>73</ele>
        <time>2025-04-26T08:17:16Z</time>
      </trkpt>
      <trkpt lat="45.22691" lon="-1.15663">
        <ele>73</ele>
        <time>2025-04-26T08:17:17Z</time>
      </trkpt>
      <trkpt lat="45.22696" lon="-1.15661">
        <ele>72</ele>
        <time>2025-04-26T08:17:18Z</time>
      </trkpt>
      <trkpt lat="45.22701" lon="-1.15659">
        <ele>72</ele>
        <time>2025-04-26T08:17:19Z</time>
      </trkpt>
      <trkpt lat="45.22706" lon="-1.15657">
        <ele>72</ele>
        <time>2025-04-26T08:17:20Z</time>
      </trkpt>
      <trkpt lat="45.22711" lon="-1.15655">
        <ele>71</ele>
        <time>2025-04-26T08:17:21Z</time>
      </trkpt>
      <trkpt lat="45.22716" lon="-1.15653">
        <ele>71</ele>
        <time>2025-04-26T08:17:22Z</time>
      </trkpt>
      <trkpt lat="45.22722" lon="-1.15652">
        <ele>71</ele>
        <time>2025-04-26T08:17:23Z</time>
      </trkpt>
      <trkpt lat="45.22727" lon="-1.1565">
        <ele>71</ele>
        <time>2025-04-26T08:17:24Z</time>
      </trkpt>
      <trkpt lat="45.22733" lon="-1.15648">
        <ele>70</ele>
        <time>2025-04-26T08:17:25Z</time>
      </trkpt>
      <trkpt lat="45.2274" lon="-1.15646">
        <ele>70</ele>
        <time>2025-04-26T08:17:26Z</time>
      </trkpt>
      <trkpt lat="45.22746" lon="-1.15644">
        <ele>71</ele>
        <time>2025-04-26T08:17:27Z</time>
      </trkpt>
      <trkpt lat="45.22753" lon="-1.15642">
        <ele>71</ele>
        <time>2025-04-26T08:17:28Z</time>
      </trkpt>
      <trkpt lat="45.2276" lon="-1.15639">
        <ele>71</ele>
        <time>2025-04-26T08:17:29Z</time>
      </trkpt>
      <trkpt lat="45.22767" lon="-1.15637">
        <ele>71</ele>
        <time>2025-04-26T08:17:30Z</time>
      </trkpt>
      <trkpt lat="45.22774" lon="-1.15634">
        <ele>72</ele>
        <time>2025-04-26T08:17:31Z</time>
      </trkpt>
      <trkpt lat="45.22781" lon="-1.15632">
        <ele>72</ele>
        <time>2025-04-26T08:17:32Z</time>
      </trkpt>
      <trkpt lat="45.22788" lon="-1.1563">
        <ele>72</ele>
        <time>2025-04-26T08:17:33Z</time>
      </trkpt>
      <trkpt lat="45.22794" lon="-1.15627">
        <ele>72</ele>
        <time>2025-04-26T08:17:34Z</time>
      </trkpt>
      <trkpt lat="45.22801" lon="-1.15625">
        <ele>73</ele>
        <time>2025-04-26T08:17:35Z</time>
      </trkpt>
      <trkpt lat="45.22808" lon="-1.15624">
        <ele>72</ele>
        <time>2025-04-26T08:17:36Z</time>
      </trkpt>
      <trkpt lat="45.22814" lon="-1.15621">
        <ele>72</ele>
        <time>2025-04-26T08:17:37Z</time>
      </trkpt>
      <trkpt lat="45.2282" lon="-1.15618">
        <ele>72</ele>
        <time>2025-04-26T08:17:38Z</time>
      </trkpt>
      <trkpt lat="45.22826" lon="-1.15616">
        <ele>73</ele>
        <time>2025-04-26T08:17:39Z</time>
      </trkpt>
      <trkpt lat="45.22832" lon="-1.15614">
        <ele>73</ele>
        <time>2025-04-26T08:17:40Z</time>
      </trkpt>
      <trkpt lat="45.22838" lon="-1.15612">
        <ele>73</ele>
        <time>2025-04-26T08:17:41Z</time>
      </trkpt>
      <trkpt lat="45.22844" lon="-1.15611">
        <ele>72</ele>
        <time>2025-04-26T08:17:42Z</time>
      </trkpt>
      <trkpt lat="45.2285" lon="-1.1561">
        <ele>72</ele>
        <time>2025-04-26T08:17:43Z</time>
      </trkpt>
      <trkpt lat="45.22856" lon="-1.15608">
        <ele>72</ele>
        <time>2025-04-26T08:17:44Z</time>
      </trkpt>
      <trkpt lat="45.22861" lon="-1.15607">
        <ele>72</ele>
        <time>2025-04-26T08:17:45Z</time>
      </trkpt>
      <trkpt lat="45.22866" lon="-1.15605">
        <ele>71</ele>
        <time>2025-04-26T08:17:46Z</time>
      </trkpt>
      <trkpt lat="45.22871" lon="-1.15604">
        <ele>71</ele>
        <time>2025-04-26T08:17:47Z</time>
      </trkpt>
      <trkpt lat="45.22876" lon="-1.15603">
        <ele>71</ele>
        <time>2025-04-26T08:17:48Z</time>
      </trkpt>
      <trkpt lat="45.2288" lon="-1.15601">
        <ele>71</ele>
        <time>2025-04-26T08:17:49Z</time>
      </trkpt>
      <trkpt lat="45.22885" lon="-1.156">
        <ele>72</ele>
        <time>2025-04-26T08:17:50Z</time>
      </trkpt>
      <trkpt lat="45.22889" lon="-1.15598">
        <ele>72</ele>
        <time>2025-04-26T08:17:51Z</time>
      </trkpt>
      <trkpt lat="45.22893" lon="-1.15597">
        <ele>72</ele>
        <time>2025-04-26T08:17:52Z</time>
      </trkpt>
      <trkpt lat="45.22896" lon="-1.15596">
        <ele>72</ele>
        <time>2025-04-26T08:17:53Z</time>
      </trkpt>
      <trkpt lat="45.229" lon="-1.15595">
        <ele>73</ele>
        <time>2025-04-26T08:17:54Z</time>
      </trkpt>
      <trkpt lat="45.22903" lon="-1.15594">
        <ele>73</ele>
        <time>2025-04-26T08:17:55Z</time>
      </trkpt>
      <trkpt lat="45.22906" lon="-1.15594">
        <ele>73</ele>
        <time>2025-04-26T08:17:56Z</time>
      </trkpt>
      <trkpt lat="45.22909" lon="-1.15593">
        <ele>73</ele>
        <time>2025-04-26T08:17:57Z</time>
      </trkpt>
      <trkpt lat="45.22913" lon="-1.15592">
        <ele>73</ele>
        <time>2025-04-26T08:17:58Z</time>
      </trkpt>
      <trkpt lat="45.22916" lon="-1.15591">
        <ele>74</ele>
        <time>2025-04-26T08:17:59Z</time>
      </trkpt>
      <trkpt lat="45.22919" lon="-1.1559">
        <ele>73</ele>
        <time>2025-04-26T08:18:00Z</time>
      </trkpt>
      <trkpt lat="45.22922" lon="-1.15589">
        <ele>73</ele>
        <time>2025-04-26T08:18:01Z</time>
      </trkpt>
      <trkpt lat="45.22925" lon="-1.15588">
        <ele>74</ele>
        <time>2025-04-26T08:18:02Z</time>
      </trkpt>
      <trkpt lat="45.22928" lon="-1.15587">
        <ele>74</ele>
        <time>2025-04-26T08:18:03Z</time>
      </trkpt>
      <trkpt lat="45.22931" lon="-1.15586">
        <ele>74</ele>
        <time>2025-04-26T08:18:04Z</time>
      </trkpt>
      <trkpt lat="45.22934" lon="-1.15585">
        <ele>74</ele>
        <time>2025-04-26T08:18:05Z</time>
      </trkpt>
      <trkpt lat="45.22937" lon="-1.15584">
        <ele>74</ele>
        <time>2025-04-26T08:18:06Z</time>
      </trkpt>
      <trkpt lat="45.22939" lon="-1.15583">
        <ele>75</ele>
        <time>2025-04-26T08:18:07Z</time>
      </trkpt>
      <trkpt lat="45.22943" lon="-1.15582">
        <ele>75</ele>
        <time>2025-04-26T08:18:08Z</time>
      </trkpt>
      <trkpt lat="45.22945" lon="-1.15581">
        <ele>75</ele>
        <time>2025-04-26T08:18:09Z</time>
      </trkpt>
      <trkpt lat="45.22948" lon="-1.1558">
        <ele>75</ele>
        <time>2025-04-26T08:18:10Z</time>
      </trkpt>
      <trkpt lat="45.22951" lon="-1.15579">
        <ele>75</ele>
        <time>2025-04-26T08:18:11Z</time>
      </trkpt>
      <trkpt lat="45.22953" lon="-1.15578">
        <ele>75</ele>
        <time>2025-04-26T08:18:12Z</time>
      </trkpt>
      <trkpt lat="45.22956" lon="-1.15577">
        <ele>75</ele>
        <time>2025-04-26T08:18:13Z</time>
      </trkpt>
      <trkpt lat="45.22959" lon="-1.15576">
        <ele>76</ele>
        <time>2025-04-26T08:18:14Z</time>
      </trkpt>
      <trkpt lat="45.22962" lon="-1.15575">
        <ele>75</ele>
        <time>2025-04-26T08:18:15Z</time>
      </trkpt>
      <trkpt lat="45.22965" lon="-1.15574">
        <ele>76</ele>
        <time>2025-04-26T08:18:16Z</time>
      </trkpt>
      <trkpt lat="45.22968" lon="-1.15573">
        <ele>76</ele>
        <time>2025-04-26T08:18:17Z</time>
      </trkpt>
      <trkpt lat="45.22971" lon="-1.15573">
        <ele>76</ele>
        <time>2025-04-26T08:18:18Z</time>
      </trkpt>
      <trkpt lat="45.22974" lon="-1.15572">
        <ele>76</ele>
        <time>2025-04-26T08:18:19Z</time>
      </trkpt>
      <trkpt lat="45.22978" lon="-1.15571">
        <ele>76</ele>
        <time>2025-04-26T08:18:20Z</time>
      </trkpt>
      <trkpt lat="45.2298" lon="-1.1557">
        <ele>76</ele>
        <time>2025-04-26T08:18:21Z</time>
      </trkpt>
      <trkpt lat="45.22983" lon="-1.15569">
        <ele>76</ele>
        <time>2025-04-26T08:18:22Z</time>
      </trkpt>
      <trkpt lat="45.22986" lon="-1.15569">
        <ele>76</ele>
        <time>2025-04-26T08:18:23Z</time>
      </trkpt>
      <trkpt lat="45.22989" lon="-1.15568">
        <ele>76</ele>
        <time>2025-04-26T08:18:24Z</time>
      </trkpt>
      <trkpt lat="45.22992" lon="-1.15567">
        <ele>75</ele>
        <time>2025-04-26T08:18:25Z</time>
      </trkpt>
      <trkpt lat="45.22996" lon="-1.15566">
        <ele>76</ele>
        <time>2025-04-26T08:18:26Z</time>
      </trkpt>
      <trkpt lat="45.23" lon="-1.15565">
        <ele>76</ele>
        <time>2025-04-26T08:18:27Z</time>
      </trkpt>
      <trkpt lat="45.23003" lon="-1.15564">
        <ele>76</ele>
        <time>2025-04-26T08:18:28Z</time>
      </trkpt>
      <trkpt lat="45.23006" lon="-1.15564">
        <ele>76</ele>
        <time>2025-04-26T08:18:29Z</time>
      </trkpt>
      <trkpt lat="45.23009" lon="-1.15563">
        <ele>76</ele>
        <time>2025-04-26T08:18:30Z</time>
      </trkpt>
      <trkpt lat="45.23011" lon="-1.15562">
        <ele>76</ele>
        <time>2025-04-26T08:18:31Z</time>
      </trkpt>
      <trkpt lat="45.23014" lon="-1.1556">
        <ele>76</ele>
        <time>2025-04-26T08:18:32Z</time>
      </trkpt>
      <trkpt lat="45.23017" lon="-1.15558">
        <ele>77</ele>
        <time>2025-04-26T08:18:33Z</time>
      </trkpt>
      <trkpt lat="45.23019" lon="-1.15557">
        <ele>77</ele>
        <time>2025-04-26T08:18:34Z</time>
      </trkpt>
      <trkpt lat="45.23022" lon="-1.15555">
        <ele>78</ele>
        <time>2025-04-26T08:18:35Z</time>
      </trkpt>
      <trkpt lat="45.23025" lon="-1.15554">
        <ele>78</ele>
        <time>2025-04-26T08:18:36Z</time>
      </trkpt>
      <trkpt lat="45.23028" lon="-1.15553">
        <ele>78</ele>
        <time>2025-04-26T08:18:37Z</time>
      </trkpt>
      <trkpt lat="45.23032" lon="-1.15553">
        <ele>78</ele>
        <time>2025-04-26T08:18:38Z</time>
      </trkpt>
      <trkpt lat="45.23035" lon="-1.15552">
        <ele>78</ele>
        <time>2025-04-26T08:18:39Z</time>
      </trkpt>
      <trkpt lat="45.23039" lon="-1.15552">
        <ele>78</ele>
        <time>2025-04-26T08:18:40Z</time>
      </trkpt>
      <trkpt lat="45.23042" lon="-1.15551">
        <ele>77</ele>
        <time>2025-04-26T08:18:41Z</time>
      </trkpt>
      <trkpt lat="45.23046" lon="-1.1555">
        <ele>77</ele>
        <time>2025-04-26T08:18:42Z</time>
      </trkpt>
      <trkpt lat="45.23049" lon="-1.1555">
        <ele>76</ele>
        <time>2025-04-26T08:18:43Z</time>
      </trkpt>
      <trkpt lat="45.23053" lon="-1.15549">
        <ele>76</ele>
        <time>2025-04-26T08:18:44Z</time>
      </trkpt>
      <trkpt lat="45.23057" lon="-1.15548">
        <ele>75</ele>
        <time>2025-04-26T08:18:45Z</time>
      </trkpt>
      <trkpt lat="45.2306" lon="-1.15547">
        <ele>74</ele>
        <time>2025-04-26T08:18:46Z</time>
      </trkpt>
      <trkpt lat="45.23064" lon="-1.15546">
        <ele>74</ele>
        <time>2025-04-26T08:18:47Z</time>
      </trkpt>
      <trkpt lat="45.23067" lon="-1.15544">
        <ele>73</ele>
        <time>2025-04-26T08:18:48Z</time>
      </trkpt>
      <trkpt lat="45.23071" lon="-1.15543">
        <ele>73</ele>
        <time>2025-04-26T08:18:49Z</time>
      </trkpt>
      <trkpt lat="45.23074" lon="-1.15541">
        <ele>73</ele>
        <time>2025-04-26T08:18:50Z</time>
      </trkpt>
      <trkpt lat="45.23078" lon="-1.1554">
        <ele>74</ele>
        <time>2025-04-26T08:18:51Z</time>
      </trkpt>
      <trkpt lat="45.23082" lon="-1.15538">
        <ele>74</ele>
        <time>2025-04-26T08:18:52Z</time>
      </trkpt>
      <trkpt lat="45.23085" lon="-1.15537">
        <ele>74</ele>
        <time>2025-04-26T08:18:53Z</time>
      </trkpt>
      <trkpt lat="45.23088" lon="-1.15536">
        <ele>74</ele>
        <time>2025-04-26T08:18:54Z</time>
      </trkpt>
      <trkpt lat="45.23091" lon="-1.15536">
        <ele>74</ele>
        <time>2025-04-26T08:18:55Z</time>
      </trkpt>
      <trkpt lat="45.23094" lon="-1.15535">
        <ele>74</ele>
        <time>2025-04-26T08:18:56Z</time>
      </trkpt>
      <trkpt lat="45.23097" lon="-1.15535">
        <ele>74</ele>
        <time>2025-04-26T08:18:57Z</time>
      </trkpt>
      <trkpt lat="45.231" lon="-1.15534">
        <ele>74</ele>
        <time>2025-04-26T08:18:58Z</time>
      </trkpt>
      <trkpt lat="45.23104" lon="-1.15533">
        <ele>74</ele>
        <time>2025-04-26T08:18:59Z</time>
      </trkpt>
      <trkpt lat="45.23107" lon="-1.15532">
        <ele>74</ele>
        <time>2025-04-26T08:19:00Z</time>
      </trkpt>
      <trkpt lat="45.2311" lon="-1.15531">
        <ele>74</ele>
        <time>2025-04-26T08:19:01Z</time>
      </trkpt>
      <trkpt lat="45.23113" lon="-1.1553">
        <ele>75</ele>
        <time>2025-04-26T08:19:02Z</time>
      </trkpt>
      <trkpt lat="45.23116" lon="-1.15528">
        <ele>76</ele>
        <time>2025-04-26T08:19:03Z</time>
      </trkpt>
      <trkpt lat="45.23118" lon="-1.15527">
        <ele>76</ele>
        <time>2025-04-26T08:19:04Z</time>
      </trkpt>
      <trkpt lat="45.23121" lon="-1.15526">
        <ele>76</ele>
        <time>2025-04-26T08:19:05Z</time>
      </trkpt>
      <trkpt lat="45.23123" lon="-1.15526">
        <ele>76</ele>
        <time>2025-04-26T08:19:06Z</time>
      </trkpt>
      <trkpt lat="45.23126" lon="-1.15524">
        <ele>77</ele>
        <time>2025-04-26T08:19:07Z</time>
      </trkpt>
      <trkpt lat="45.2313" lon="-1.15523">
        <ele>77</ele>
        <time>2025-04-26T08:19:08Z</time>
      </trkpt>
      <trkpt lat="45.23132" lon="-1.15522">
        <ele>77</ele>
        <time>2025-04-26T08:19:09Z</time>
      </trkpt>
      <trkpt lat="45.23135" lon="-1.15521">
        <ele>78</ele>
        <time>2025-04-26T08:19:10Z</time>
      </trkpt>
      <trkpt lat="45.23138" lon="-1.1552">
        <ele>78</ele>
        <time>2025-04-26T08:19:11Z</time>
      </trkpt>
      <trkpt lat="45.23141" lon="-1.15519">
        <ele>79</ele>
        <time>2025-04-26T08:19:12Z</time>
      </trkpt>
      <trkpt lat="45.23144" lon="-1.15518">
        <ele>79</ele>
        <time>2025-04-26T08:19:13Z</time>
      </trkpt>
      <trkpt lat="45.23148" lon="-1.15517">
        <ele>79</ele>
        <time>2025-04-26T08:19:14Z</time>
      </trkpt>
      <trkpt lat="45.23151" lon="-1.15516">
        <ele>80</ele>
        <time>2025-04-26T08:19:15Z</time>
      </trkpt>
      <trkpt lat="45.23154" lon="-1.15514">
        <ele>80</ele>
        <time>2025-04-26T08:19:16Z</time>
      </trkpt>
      <trkpt lat="45.23157" lon="-1.15513">
        <ele>80</ele>
        <time>2025-04-26T08:19:17Z</time>
      </trkpt>
      <trkpt lat="45.23161" lon="-1.15511">
        <ele>80</ele>
        <time>2025-04-26T08:19:18Z</time>
      </trkpt>
      <trkpt lat="45.23164" lon="-1.1551">
        <ele>80</ele>
        <time>2025-04-26T08:19:19Z</time>
      </trkpt>
      <trkpt lat="45.23168" lon="-1.15509">
        <ele>80</ele>
        <time>2025-04-26T08:19:20Z</time>
      </trkpt>
      <trkpt lat="45.23171" lon="-1.15507">
        <ele>81</ele>
        <time>2025-04-26T08:19:21Z</time>
      </trkpt>
      <trkpt lat="45.23174" lon="-1.15506">
        <ele>81</ele>
        <time>2025-04-26T08:19:22Z</time>
      </trkpt>
      <trkpt lat="45.23178" lon="-1.15505">
        <ele>81</ele>
        <time>2025-04-26T08:19:23Z</time>
      </trkpt>
      <trkpt lat="45.23182" lon="-1.15504">
        <ele>80</ele>
        <time>2025-04-26T08:19:24Z</time>
      </trkpt>
      <trkpt lat="45.23185" lon="-1.15502">
        <ele>80</ele>
        <time>2025-04-26T08:19:25Z</time>
      </trkpt>
      <trkpt lat="45.23189" lon="-1.15502">
        <ele>80</ele>
        <time>2025-04-26T08:19:26Z</time>
      </trkpt>
      <trkpt lat="45.23193" lon="-1.15501">
        <ele>80</ele>
        <time>2025-04-26T08:19:27Z</time>
      </trkpt>
      <trkpt lat="45.23198" lon="-1.155">
        <ele>78</ele>
        <time>2025-04-26T08:19:28Z</time>
      </trkpt>
      <trkpt lat="45.23202" lon="-1.15499">
        <ele>78</ele>
        <time>2025-04-26T08:19:29Z</time>
      </trkpt>
      <trkpt lat="45.23207" lon="-1.15498">
        <ele>77</ele>
        <time>2025-04-26T08:19:30Z</time>
      </trkpt>
      <trkpt lat="45.23211" lon="-1.15497">
        <ele>76</ele>
        <time>2025-04-26T08:19:31Z</time>
      </trkpt>
      <trkpt lat="45.23216" lon="-1.15495">
        <ele>75</ele>
        <time>2025-04-26T08:19:32Z</time>
      </trkpt>
      <trkpt lat="45.23222" lon="-1.15494">
        <ele>75</ele>
        <time>2025-04-26T08:19:33Z</time>
      </trkpt>
      <trkpt lat="45.23227" lon="-1.15493">
        <ele>74</ele>
        <time>2025-04-26T08:19:34Z</time>
      </trkpt>
      <trkpt lat="45.23232" lon="-1.15491">
        <ele>75</ele>
        <time>2025-04-26T08:19:35Z</time>
      </trkpt>
      <trkpt lat="45.23238" lon="-1.15489">
        <ele>75</ele>
        <time>2025-04-26T08:19:36Z</time>
      </trkpt>
      <trkpt lat="45.23244" lon="-1.15488">
        <ele>74</ele>
        <time>2025-04-26T08:19:37Z</time>
      </trkpt>
      <trkpt lat="45.2325" lon="-1.15486">
        <ele>74</ele>
        <time>2025-04-26T08:19:38Z</time>
      </trkpt>
      <trkpt lat="45.23255" lon="-1.15483">
        <ele>73</ele>
        <time>2025-04-26T08:19:39Z</time>
      </trkpt>
      <trkpt lat="45.23261" lon="-1.15481">
        <ele>74</ele>
        <time>2025-04-26T08:19:40Z</time>
      </trkpt>
      <trkpt lat="45.23266" lon="-1.1548">
        <ele>74</ele>
        <time>2025-04-26T08:19:41Z</time>
      </trkpt>
      <trkpt lat="45.23271" lon="-1.15478">
        <ele>74</ele>
        <time>2025-04-26T08:19:42Z</time>
      </trkpt>
      <trkpt lat="45.23277" lon="-1.15476">
        <ele>74</ele>
        <time>2025-04-26T08:19:43Z</time>
      </trkpt>
      <trkpt lat="45.23283" lon="-1.15474">
        <ele>75</ele>
        <time>2025-04-26T08:19:44Z</time>
      </trkpt>
      <trkpt lat="45.23288" lon="-1.15473">
        <ele>75</ele>
        <time>2025-04-26T08:19:45Z</time>
      </trkpt>
      <trkpt lat="45.23293" lon="-1.1547">
        <ele>75</ele>
        <time>2025-04-26T08:19:46Z</time>
      </trkpt>
      <trkpt lat="45.23298" lon="-1.15468">
        <ele>75</ele>
        <time>2025-04-26T08:19:47Z</time>
      </trkpt>
      <trkpt lat="45.23303" lon="-1.15466">
        <ele>75</ele>
        <time>2025-04-26T08:19:48Z</time>
      </trkpt>
      <trkpt lat="45.23308" lon="-1.15465">
        <ele>75</ele>
        <time>2025-04-26T08:19:49Z</time>
      </trkpt>
      <trkpt lat="45.23314" lon="-1.15463">
        <ele>76</ele>
        <time>2025-04-26T08:19:50Z</time>
      </trkpt>
      <trkpt lat="45.23319" lon="-1.15462">
        <ele>76</ele>
        <time>2025-04-26T08:19:51Z</time>
      </trkpt>
      <trkpt lat="45.23325" lon="-1.1546">
        <ele>76</ele>
        <time>2025-04-26T08:19:52Z</time>
      </trkpt>
      <trkpt lat="45.2333" lon="-1.15459">
        <ele>76</ele>
        <time>2025-04-26T08:19:53Z</time>
      </trkpt>
      <trkpt lat="45.23335" lon="-1.15457">
        <ele>75</ele>
        <time>2025-04-26T08:19:54Z</time>
      </trkpt>
      <trkpt lat="45.23341" lon="-1.15456">
        <ele>74</ele>
        <time>2025-04-26T08:19:55Z</time>
      </trkpt>
      <trkpt lat="45.23347" lon="-1.15454">
        <ele>74</ele>
        <time>2025-04-26T08:19:56Z</time>
      </trkpt>
      <trkpt lat="45.23352" lon="-1.15453">
        <ele>74</ele>
        <time>2025-04-26T08:19:57Z</time>
      </trkpt>
      <trkpt lat="45.23358" lon="-1.15451">
        <ele>74</ele>
        <time>2025-04-26T08:19:58Z</time>
      </trkpt>
      <trkpt lat="45.23363" lon="-1.15449">
        <ele>73</ele>
        <time>2025-04-26T08:19:59Z</time>
      </trkpt>
      <trkpt lat="45.23369" lon="-1.15448">
        <ele>73</ele>
        <time>2025-04-26T08:20:00Z</time>
      </trkpt>
      <trkpt lat="45.23375" lon="-1.15446">
        <ele>73</ele>
        <time>2025-04-26T08:20:01Z</time>
      </trkpt>
      <trkpt lat="45.2338" lon="-1.15444">
        <ele>72</ele>
        <time>2025-04-26T08:20:02Z</time>
      </trkpt>
      <trkpt lat="45.23386" lon="-1.15442">
        <ele>72</ele>
        <time>2025-04-26T08:20:03Z</time>
      </trkpt>
      <trkpt lat="45.23392" lon="-1.1544">
        <ele>72</ele>
        <time>2025-04-26T08:20:04Z</time>
      </trkpt>
      <trkpt lat="45.23397" lon="-1.15438">
        <ele>72</ele>
        <time>2025-04-26T08:20:05Z</time>
      </trkpt>
      <trkpt lat="45.23402" lon="-1.15437">
        <ele>72</ele>
        <time>2025-04-26T08:20:06Z</time>
      </trkpt>
      <trkpt lat="45.23408" lon="-1.15435">
        <ele>71</ele>
        <time>2025-04-26T08:20:07Z</time>
      </trkpt>
      <trkpt lat="45.23414" lon="-1.15434">
        <ele>71</ele>
        <time>2025-04-26T08:20:08Z</time>
      </trkpt>
      <trkpt lat="45.2342" lon="-1.15432">
        <ele>71</ele>
        <time>2025-04-26T08:20:09Z</time>
      </trkpt>
      <trkpt lat="45.23425" lon="-1.15431">
        <ele>71</ele>
        <time>2025-04-26T08:20:10Z</time>
      </trkpt>
      <trkpt lat="45.23431" lon="-1.15429">
        <ele>71</ele>
        <time>2025-04-26T08:20:11Z</time>
      </trkpt>
      <trkpt lat="45.23436" lon="-1.15427">
        <ele>71</ele>
        <time>2025-04-26T08:20:12Z</time>
      </trkpt>
      <trkpt lat="45.23442" lon="-1.15425">
        <ele>72</ele>
        <time>2025-04-26T08:20:13Z</time>
      </trkpt>
      <trkpt lat="45.23447" lon="-1.15422">
        <ele>72</ele>
        <time>2025-04-26T08:20:14Z</time>
      </trkpt>
      <trkpt lat="45.23452" lon="-1.1542">
        <ele>72</ele>
        <time>2025-04-26T08:20:15Z</time>
      </trkpt>
      <trkpt lat="45.23458" lon="-1.15418">
        <ele>72</ele>
        <time>2025-04-26T08:20:16Z</time>
      </trkpt>
      <trkpt lat="45.23464" lon="-1.15417">
        <ele>72</ele>
        <time>2025-04-26T08:20:17Z</time>
      </trkpt>
      <trkpt lat="45.2347" lon="-1.15415">
        <ele>72</ele>
        <time>2025-04-26T08:20:18Z</time>
      </trkpt>
      <trkpt lat="45.23476" lon="-1.15413">
        <ele>71</ele>
        <time>2025-04-26T08:20:19Z</time>
      </trkpt>
      <trkpt lat="45.23482" lon="-1.15411">
        <ele>71</ele>
        <time>2025-04-26T08:20:20Z</time>
      </trkpt>
      <trkpt lat="45.23487" lon="-1.1541">
        <ele>71</ele>
        <time>2025-04-26T08:20:21Z</time>
      </trkpt>
      <trkpt lat="45.23493" lon="-1.15407">
        <ele>71</ele>
        <time>2025-04-26T08:20:22Z</time>
      </trkpt>
      <trkpt lat="45.23499" lon="-1.15405">
        <ele>71</ele>
        <time>2025-04-26T08:20:23Z</time>
      </trkpt>
      <trkpt lat="45.23505" lon="-1.15403">
        <ele>71</ele>
        <time>2025-04-26T08:20:24Z</time>
      </trkpt>
      <trkpt lat="45.23511" lon="-1.15401">
        <ele>71</ele>
        <time>2025-04-26T08:20:25Z</time>
      </trkpt>
      <trkpt lat="45.23517" lon="-1.15399">
        <ele>71</ele>
        <time>2025-04-26T08:20:26Z</time>
      </trkpt>
      <trkpt lat="45.23522" lon="-1.15397">
        <ele>71</ele>
        <time>2025-04-26T08:20:27Z</time>
      </trkpt>
      <trkpt lat="45.23528" lon="-1.15395">
        <ele>71</ele>
        <time>2025-04-26T08:20:28Z</time>
      </trkpt>
      <trkpt lat="45.23533" lon="-1.15393">
        <ele>71</ele>
        <time>2025-04-26T08:20:29Z</time>
      </trkpt>
      <trkpt lat="45.23539" lon="-1.15392">
        <ele>71</ele>
        <time>2025-04-26T08:20:30Z</time>
      </trkpt>
      <trkpt lat="45.23544" lon="-1.1539">
        <ele>71</ele>
        <time>2025-04-26T08:20:31Z</time>
      </trkpt>
      <trkpt lat="45.2355" lon="-1.15388">
        <ele>71</ele>
        <time>2025-04-26T08:20:32Z</time>
      </trkpt>
      <trkpt lat="45.23556" lon="-1.15387">
        <ele>71</ele>
        <time>2025-04-26T08:20:33Z</time>
      </trkpt>
      <trkpt lat="45.23561" lon="-1.15385">
        <ele>71</ele>
        <time>2025-04-26T08:20:34Z</time>
      </trkpt>
      <trkpt lat="45.23567" lon="-1.15383">
        <ele>71</ele>
        <time>2025-04-26T08:20:35Z</time>
      </trkpt>
      <trkpt lat="45.23573" lon="-1.15381">
        <ele>71</ele>
        <time>2025-04-26T08:20:36Z</time>
      </trkpt>
      <trkpt lat="45.23578" lon="-1.15379">
        <ele>72</ele>
        <time>2025-04-26T08:20:37Z</time>
      </trkpt>
      <trkpt lat="45.23585" lon="-1.15377">
        <ele>72</ele>
        <time>2025-04-26T08:20:38Z</time>
      </trkpt>
      <trkpt lat="45.2359" lon="-1.15376">
        <ele>72</ele>
        <time>2025-04-26T08:20:39Z</time>
      </trkpt>
      <trkpt lat="45.23596" lon="-1.15374">
        <ele>72</ele>
        <time>2025-04-26T08:20:40Z</time>
      </trkpt>
      <trkpt lat="45.23602" lon="-1.15372">
        <ele>72</ele>
        <time>2025-04-26T08:20:41Z</time>
      </trkpt>
      <trkpt lat="45.23608" lon="-1.1537">
        <ele>72</ele>
        <time>2025-04-26T08:20:42Z</time>
      </trkpt>
      <trkpt lat="45.23614" lon="-1.15368">
        <ele>71</ele>
        <time>2025-04-26T08:20:43Z</time>
      </trkpt>
      <trkpt lat="45.23619" lon="-1.15367">
        <ele>72</ele>
        <time>2025-04-26T08:20:44Z</time>
      </trkpt>
      <trkpt lat="45.23624" lon="-1.15365">
        <ele>72</ele>
        <time>2025-04-26T08:20:45Z</time>
      </trkpt>
      <trkpt lat="45.2363" lon="-1.15364">
        <ele>72</ele>
        <time>2025-04-26T08:20:46Z</time>
      </trkpt>
      <trkpt lat="45.23636" lon="-1.15362">
        <ele>72</ele>
        <time>2025-04-26T08:20:47Z</time>
      </trkpt>
      <trkpt lat="45.23641" lon="-1.1536">
        <ele>71</ele>
        <time>2025-04-26T08:20:48Z</time>
      </trkpt>
      <trkpt lat="45.23647" lon="-1.15358">
        <ele>71</ele>
        <time>2025-04-26T08:20:49Z</time>
      </trkpt>
      <trkpt lat="45.23652" lon="-1.15356">
        <ele>71</ele>
        <time>2025-04-26T08:20:50Z</time>
      </trkpt>
      <trkpt lat="45.23657" lon="-1.15355">
        <ele>71</ele>
        <time>2025-04-26T08:20:51Z</time>
      </trkpt>
      <trkpt lat="45.23662" lon="-1.15353">
        <ele>71</ele>
        <time>2025-04-26T08:20:52Z</time>
      </trkpt>
      <trkpt lat="45.23667" lon="-1.15351">
        <ele>71</ele>
        <time>2025-04-26T08:20:53Z</time>
      </trkpt>
      <trkpt lat="45.23672" lon="-1.15349">
        <ele>71</ele>
        <time>2025-04-26T08:20:54Z</time>
      </trkpt>
      <trkpt lat="45.23677" lon="-1.15347">
        <ele>72</ele>
        <time>2025-04-26T08:20:55Z</time>
      </trkpt>
      <trkpt lat="45.23682" lon="-1.15346">
        <ele>72</ele>
        <time>2025-04-26T08:20:56Z</time>
      </trkpt>
      <trkpt lat="45.23687" lon="-1.15344">
        <ele>72</ele>
        <time>2025-04-26T08:20:57Z</time>
      </trkpt>
      <trkpt lat="45.23691" lon="-1.15342">
        <ele>72</ele>
        <time>2025-04-26T08:20:58Z</time>
      </trkpt>
      <trkpt lat="45.23696" lon="-1.15341">
        <ele>72</ele>
        <time>2025-04-26T08:20:59Z</time>
      </trkpt>
      <trkpt lat="45.237" lon="-1.15339">
        <ele>72</ele>
        <time>2025-04-26T08:21:00Z</time>
      </trkpt>
      <trkpt lat="45.23704" lon="-1.15339">
        <ele>72</ele>
        <time>2025-04-26T08:21:01Z</time>
      </trkpt>
      <trkpt lat="45.23709" lon="-1.15338">
        <ele>72</ele>
        <time>2025-04-26T08:21:02Z</time>
      </trkpt>
      <trkpt lat="45.23713" lon="-1.15337">
        <ele>72</ele>
        <time>2025-04-26T08:21:03Z</time>
      </trkpt>
      <trkpt lat="45.23717" lon="-1.15336">
        <ele>72</ele>
        <time>2025-04-26T08:21:04Z</time>
      </trkpt>
      <trkpt lat="45.23722" lon="-1.15334">
        <ele>71</ele>
        <time>2025-04-26T08:21:05Z</time>
      </trkpt>
      <trkpt lat="45.23727" lon="-1.15332">
        <ele>70</ele>
        <time>2025-04-26T08:21:06Z</time>
      </trkpt>
      <trkpt lat="45.23731" lon="-1.1533">
        <ele>70</ele>
        <time>2025-04-26T08:21:07Z</time>
      </trkpt>
      <trkpt lat="45.23736" lon="-1.15328">
        <ele>70</ele>
        <time>2025-04-26T08:21:08Z</time>
      </trkpt>
      <trkpt lat="45.23741" lon="-1.15327">
        <ele>70</ele>
        <time>2025-04-26T08:21:09Z</time>
      </trkpt>
      <trkpt lat="45.23745" lon="-1.15326">
        <ele>70</ele>
        <time>2025-04-26T08:21:10Z</time>
      </trkpt>
      <trkpt lat="45.23749" lon="-1.15324">
        <ele>70</ele>
        <time>2025-04-26T08:21:11Z</time>
      </trkpt>
      <trkpt lat="45.23753" lon="-1.15323">
        <ele>69</ele>
        <time>2025-04-26T08:21:12Z</time>
      </trkpt>
      <trkpt lat="45.23758" lon="-1.15322">
        <ele>69</ele>
        <time>2025-04-26T08:21:13Z</time>
      </trkpt>
      <trkpt lat="45.23762" lon="-1.15321">
        <ele>69</ele>
        <time>2025-04-26T08:21:14Z</time>
      </trkpt>
      <trkpt lat="45.23766" lon="-1.15319">
        <ele>69</ele>
        <time>2025-04-26T08:21:15Z</time>
      </trkpt>
      <trkpt lat="45.2377" lon="-1.15316">
        <ele>71</ele>
        <time>2025-04-26T08:21:16Z</time>
      </trkpt>
      <trkpt lat="45.23774" lon="-1.15315">
        <ele>71</ele>
        <time>2025-04-26T08:21:17Z</time>
      </trkpt>
      <trkpt lat="45.23779" lon="-1.15314">
        <ele>71</ele>
        <time>2025-04-26T08:21:18Z</time>
      </trkpt>
      <trkpt lat="45.23784" lon="-1.15313">
        <ele>71</ele>
        <time>2025-04-26T08:21:19Z</time>
      </trkpt>
      <trkpt lat="45.23789" lon="-1.15313">
        <ele>71</ele>
        <time>2025-04-26T08:21:20Z</time>
      </trkpt>
      <trkpt lat="45.23794" lon="-1.15312">
        <ele>71</ele>
        <time>2025-04-26T08:21:21Z</time>
      </trkpt>
      <trkpt lat="45.23798" lon="-1.1531">
        <ele>70</ele>
        <time>2025-04-26T08:21:22Z</time>
      </trkpt>
      <trkpt lat="45.23803" lon="-1.15308">
        <ele>70</ele>
        <time>2025-04-26T08:21:23Z</time>
      </trkpt>
      <trkpt lat="45.23808" lon="-1.15307">
        <ele>69</ele>
        <time>2025-04-26T08:21:24Z</time>
      </trkpt>
      <trkpt lat="45.23812" lon="-1.15306">
        <ele>69</ele>
        <time>2025-04-26T08:21:25Z</time>
      </trkpt>
      <trkpt lat="45.23816" lon="-1.15304">
        <ele>69</ele>
        <time>2025-04-26T08:21:26Z</time>
      </trkpt>
      <trkpt lat="45.23821" lon="-1.15303">
        <ele>69</ele>
        <time>2025-04-26T08:21:27Z</time>
      </trkpt>
      <trkpt lat="45.23825" lon="-1.15301">
        <ele>69</ele>
        <time>2025-04-26T08:21:28Z</time>
      </trkpt>
      <trkpt lat="45.2383" lon="-1.15299">
        <ele>69</ele>
        <time>2025-04-26T08:21:29Z</time>
      </trkpt>
      <trkpt lat="45.23835" lon="-1.15298">
        <ele>69</ele>
        <time>2025-04-26T08:21:30Z</time>
      </trkpt>
      <trkpt lat="45.23839" lon="-1.15296">
        <ele>69</ele>
        <time>2025-04-26T08:21:31Z</time>
      </trkpt>
      <trkpt lat="45.23843" lon="-1.15295">
        <ele>69</ele>
        <time>2025-04-26T08:21:32Z</time>
      </trkpt>
      <trkpt lat="45.23847" lon="-1.15293">
        <ele>70</ele>
        <time>2025-04-26T08:21:33Z</time>
      </trkpt>
      <trkpt lat="45.2385" lon="-1.15292">
        <ele>70</ele>
        <time>2025-04-26T08:21:34Z</time>
      </trkpt>
      <trkpt lat="45.23854" lon="-1.1529">
        <ele>71</ele>
        <time>2025-04-26T08:21:35Z</time>
      </trkpt>
      <trkpt lat="45.23858" lon="-1.15289">
        <ele>72</ele>
        <time>2025-04-26T08:21:36Z</time>
      </trkpt>
      <trkpt lat="45.23862" lon="-1.15287">
        <ele>73</ele>
        <time>2025-04-26T08:21:37Z</time>
      </trkpt>
      <trkpt lat="45.23866" lon="-1.15286">
        <ele>73</ele>
        <time>2025-04-26T08:21:38Z</time>
      </trkpt>
      <trkpt lat="45.23869" lon="-1.15284">
        <ele>74</ele>
        <time>2025-04-26T08:21:39Z</time>
      </trkpt>
      <trkpt lat="45.23873" lon="-1.15283">
        <ele>74</ele>
        <time>2025-04-26T08:21:40Z</time>
      </trkpt>
      <trkpt lat="45.23877" lon="-1.15282">
        <ele>75</ele>
        <time>2025-04-26T08:21:41Z</time>
      </trkpt>
      <trkpt lat="45.23881" lon="-1.15281">
        <ele>75</ele>
        <time>2025-04-26T08:21:42Z</time>
      </trkpt>
      <trkpt lat="45.23886" lon="-1.1528">
        <ele>75</ele>
        <time>2025-04-26T08:21:43Z</time>
      </trkpt>
      <trkpt lat="45.2389" lon="-1.15279">
        <ele>76</ele>
        <time>2025-04-26T08:21:44Z</time>
      </trkpt>
      <trkpt lat="45.23894" lon="-1.15277">
        <ele>76</ele>
        <time>2025-04-26T08:21:45Z</time>
      </trkpt>
      <trkpt lat="45.23898" lon="-1.15276">
        <ele>77</ele>
        <time>2025-04-26T08:21:46Z</time>
      </trkpt>
      <trkpt lat="45.23903" lon="-1.15273">
        <ele>77</ele>
        <time>2025-04-26T08:21:47Z</time>
      </trkpt>
      <trkpt lat="45.23907" lon="-1.15272">
        <ele>77</ele>
        <time>2025-04-26T08:21:48Z</time>
      </trkpt>
      <trkpt lat="45.23911" lon="-1.15271">
        <ele>78</ele>
        <time>2025-04-26T08:21:49Z</time>
      </trkpt>
      <trkpt lat="45.23916" lon="-1.1527">
        <ele>78</ele>
        <time>2025-04-26T08:21:50Z</time>
      </trkpt>
      <trkpt lat="45.2392" lon="-1.15269">
        <ele>78</ele>
        <time>2025-04-26T08:21:51Z</time>
      </trkpt>
      <trkpt lat="45.23923" lon="-1.15268">
        <ele>78</ele>
        <time>2025-04-26T08:21:52Z</time>
      </trkpt>
      <trkpt lat="45.23928" lon="-1.15266">
        <ele>78</ele>
        <time>2025-04-26T08:21:53Z</time>
      </trkpt>
      <trkpt lat="45.23932" lon="-1.15266">
        <ele>78</ele>
        <time>2025-04-26T08:21:54Z</time>
      </trkpt>
      <trkpt lat="45.23936" lon="-1.15265">
        <ele>78</ele>
        <time>2025-04-26T08:21:55Z</time>
      </trkpt>
      <trkpt lat="45.23939" lon="-1.15264">
        <ele>78</ele>
        <time>2025-04-26T08:21:56Z</time>
      </trkpt>
      <trkpt lat="45.23943" lon="-1.15263">
        <ele>78</ele>
        <time>2025-04-26T08:21:57Z</time>
      </trkpt>
      <trkpt lat="45.23947" lon="-1.15262">
        <ele>77</ele>
        <time>2025-04-26T08:21:58Z</time>
      </trkpt>
      <trkpt lat="45.2395" lon="-1.15261">
        <ele>78</ele>
        <time>2025-04-26T08:21:59Z</time>
      </trkpt>
      <trkpt lat="45.23954" lon="-1.15259">
        <ele>77</ele>
        <time>2025-04-26T08:22:00Z</time>
      </trkpt>
      <trkpt lat="45.23957" lon="-1.15257">
        <ele>77</ele>
        <time>2025-04-26T08:22:01Z</time>
      </trkpt>
      <trkpt lat="45.23961" lon="-1.15255">
        <ele>77</ele>
        <time>2025-04-26T08:22:02Z</time>
      </trkpt>
      <trkpt lat="45.23964" lon="-1.15253">
        <ele>77</ele>
        <time>2025-04-26T08:22:03Z</time>
      </trkpt>
      <trkpt lat="45.23968" lon="-1.15252">
        <ele>77</ele>
        <time>2025-04-26T08:22:04Z</time>
      </trkpt>
      <trkpt lat="45.23971" lon="-1.1525">
        <ele>77</ele>
        <time>2025-04-26T08:22:05Z</time>
      </trkpt>
      <trkpt lat="45.23975" lon="-1.15249">
        <ele>77</ele>
        <time>2025-04-26T08:22:06Z</time>
      </trkpt>
      <trkpt lat="45.23978" lon="-1.15247">
        <ele>76</ele>
        <time>2025-04-26T08:22:07Z</time>
      </trkpt>
      <trkpt lat="45.23982" lon="-1.15246">
        <ele>76</ele>
        <time>2025-04-26T08:22:08Z</time>
      </trkpt>
      <trkpt lat="45.23987" lon="-1.15245">
        <ele>76</ele>
        <time>2025-04-26T08:22:09Z</time>
      </trkpt>
      <trkpt lat="45.23991" lon="-1.15243">
        <ele>75</ele>
        <time>2025-04-26T08:22:10Z</time>
      </trkpt>
      <trkpt lat="45.23996" lon="-1.15242">
        <ele>75</ele>
        <time>2025-04-26T08:22:11Z</time>
      </trkpt>
      <trkpt lat="45.23999" lon="-1.1524">
        <ele>75</ele>
        <time>2025-04-26T08:22:12Z</time>
      </trkpt>
      <trkpt lat="45.24003" lon="-1.15238">
        <ele>74</ele>
        <time>2025-04-26T08:22:13Z</time>
      </trkpt>
      <trkpt lat="45.24007" lon="-1.15237">
        <ele>74</ele>
        <time>2025-04-26T08:22:14Z</time>
      </trkpt>
      <trkpt lat="45.24011" lon="-1.15235">
        <ele>74</ele>
        <time>2025-04-26T08:22:15Z</time>
      </trkpt>
      <trkpt lat="45.24015" lon="-1.15235">
        <ele>74</ele>
        <time>2025-04-26T08:22:16Z</time>
      </trkpt>
      <trkpt lat="45.24019" lon="-1.15234">
        <ele>74</ele>
        <time>2025-04-26T08:22:17Z</time>
      </trkpt>
      <trkpt lat="45.24024" lon="-1.15232">
        <ele>74</ele>
        <time>2025-04-26T08:22:18Z</time>
      </trkpt>
      <trkpt lat="45.24028" lon="-1.15231">
        <ele>75</ele>
        <time>2025-04-26T08:22:19Z</time>
      </trkpt>
      <trkpt lat="45.24032" lon="-1.1523">
        <ele>76</ele>
        <time>2025-04-26T08:22:20Z</time>
      </trkpt>
      <trkpt lat="45.24036" lon="-1.15229">
        <ele>76</ele>
        <time>2025-04-26T08:22:21Z</time>
      </trkpt>
      <trkpt lat="45.2404" lon="-1.15228">
        <ele>77</ele>
        <time>2025-04-26T08:22:22Z</time>
      </trkpt>
      <trkpt lat="45.24044" lon="-1.15226">
        <ele>77</ele>
        <time>2025-04-26T08:22:23Z</time>
      </trkpt>
      <trkpt lat="45.24048" lon="-1.15224">
        <ele>77</ele>
        <time>2025-04-26T08:22:24Z</time>
      </trkpt>
      <trkpt lat="45.24052" lon="-1.15223">
        <ele>76</ele>
        <time>2025-04-26T08:22:25Z</time>
      </trkpt>
      <trkpt lat="45.24056" lon="-1.15221">
        <ele>76</ele>
        <time>2025-04-26T08:22:26Z</time>
      </trkpt>
      <trkpt lat="45.2406" lon="-1.15219">
        <ele>77</ele>
        <time>2025-04-26T08:22:27Z</time>
      </trkpt>
      <trkpt lat="45.24064" lon="-1.15217">
        <ele>76</ele>
        <time>2025-04-26T08:22:28Z</time>
      </trkpt>
      <trkpt lat="45.24069" lon="-1.15216">
        <ele>76</ele>
        <time>2025-04-26T08:22:29Z</time>
      </trkpt>
      <trkpt lat="45.24074" lon="-1.15214">
        <ele>76</ele>
        <time>2025-04-26T08:22:30Z</time>
      </trkpt>
      <trkpt lat="45.24078" lon="-1.15213">
        <ele>76</ele>
        <time>2025-04-26T08:22:31Z</time>
      </trkpt>
      <trkpt lat="45.24082" lon="-1.15211">
        <ele>77</ele>
        <time>2025-04-26T08:22:32Z</time>
      </trkpt>
      <trkpt lat="45.24086" lon="-1.1521">
        <ele>77</ele>
        <time>2025-04-26T08:22:33Z</time>
      </trkpt>
      <trkpt lat="45.24091" lon="-1.15208">
        <ele>77</ele>
        <time>2025-04-26T08:22:34Z</time>
      </trkpt>
      <trkpt lat="45.24095" lon="-1.15207">
        <ele>77</ele>
        <time>2025-04-26T08:22:35Z</time>
      </trkpt>
      <trkpt lat="45.24099" lon="-1.15206">
        <ele>77</ele>
        <time>2025-04-26T08:22:36Z</time>
      </trkpt>
      <trkpt lat="45.24103" lon="-1.15205">
        <ele>78</ele>
        <time>2025-04-26T08:22:37Z</time>
      </trkpt>
      <trkpt lat="45.24107" lon="-1.15203">
        <ele>78</ele>
        <time>2025-04-26T08:22:38Z</time>
      </trkpt>
      <trkpt lat="45.24111" lon="-1.15201">
        <ele>78</ele>
        <time>2025-04-26T08:22:39Z</time>
      </trkpt>
      <trkpt lat="45.24115" lon="-1.152">
        <ele>78</ele>
        <time>2025-04-26T08:22:40Z</time>
      </trkpt>
      <trkpt lat="45.24119" lon="-1.15199">
        <ele>78</ele>
        <time>2025-04-26T08:22:41Z</time>
      </trkpt>
      <trkpt lat="45.24124" lon="-1.15197">
        <ele>77</ele>
        <time>2025-04-26T08:22:42Z</time>
      </trkpt>
      <trkpt lat="45.24129" lon="-1.15197">
        <ele>76</ele>
        <time>2025-04-26T08:22:43Z</time>
      </trkpt>
      <trkpt lat="45.24134" lon="-1.15195">
        <ele>75</ele>
        <time>2025-04-26T08:22:44Z</time>
      </trkpt>
      <trkpt lat="45.24139" lon="-1.15193">
        <ele>75</ele>
        <time>2025-04-26T08:22:45Z</time>
      </trkpt>
      <trkpt lat="45.24143" lon="-1.15191">
        <ele>75</ele>
        <time>2025-04-26T08:22:46Z</time>
      </trkpt>
      <trkpt lat="45.24148" lon="-1.1519">
        <ele>75</ele>
        <time>2025-04-26T08:22:47Z</time>
      </trkpt>
      <trkpt lat="45.24152" lon="-1.15188">
        <ele>75</ele>
        <time>2025-04-26T08:22:48Z</time>
      </trkpt>
      <trkpt lat="45.24156" lon="-1.15187">
        <ele>75</ele>
        <time>2025-04-26T08:22:49Z</time>
      </trkpt>
      <trkpt lat="45.2416" lon="-1.15186">
        <ele>74</ele>
        <time>2025-04-26T08:22:50Z</time>
      </trkpt>
      <trkpt lat="45.24164" lon="-1.15185">
        <ele>74</ele>
        <time>2025-04-26T08:22:51Z</time>
      </trkpt>
      <trkpt lat="45.24168" lon="-1.15184">
        <ele>73</ele>
        <time>2025-04-26T08:22:52Z</time>
      </trkpt>
      <trkpt lat="45.24172" lon="-1.15183">
        <ele>73</ele>
        <time>2025-04-26T08:22:53Z</time>
      </trkpt>
      <trkpt lat="45.24176" lon="-1.15183">
        <ele>72</ele>
        <time>2025-04-26T08:22:54Z</time>
      </trkpt>
      <trkpt lat="45.2418" lon="-1.15182">
        <ele>71</ele>
        <time>2025-04-26T08:22:55Z</time>
      </trkpt>
      <trkpt lat="45.24184" lon="-1.15181">
        <ele>71</ele>
        <time>2025-04-26T08:22:56Z</time>
      </trkpt>
      <trkpt lat="45.24189" lon="-1.1518">
        <ele>70</ele>
        <time>2025-04-26T08:22:57Z</time>
      </trkpt>
      <trkpt lat="45.24193" lon="-1.15178">
        <ele>70</ele>
        <time>2025-04-26T08:22:58Z</time>
      </trkpt>
      <trkpt lat="45.24198" lon="-1.15176">
        <ele>70</ele>
        <time>2025-04-26T08:22:59Z</time>
      </trkpt>
      <trkpt lat="45.24202" lon="-1.15175">
        <ele>70</ele>
        <time>2025-04-26T08:23:00Z</time>
      </trkpt>
      <trkpt lat="45.24206" lon="-1.15174">
        <ele>70</ele>
        <time>2025-04-26T08:23:01Z</time>
      </trkpt>
      <trkpt lat="45.2421" lon="-1.15173">
        <ele>69</ele>
        <time>2025-04-26T08:23:02Z</time>
      </trkpt>
      <trkpt lat="45.24214" lon="-1.15172">
        <ele>69</ele>
        <time>2025-04-26T08:23:03Z</time>
      </trkpt>
      <trkpt lat="45.24218" lon="-1.15171">
        <ele>69</ele>
        <time>2025-04-26T08:23:04Z</time>
      </trkpt>
      <trkpt lat="45.24222" lon="-1.1517">
        <ele>69</ele>
        <time>2025-04-26T08:23:05Z</time>
      </trkpt>
      <trkpt lat="45.24226" lon="-1.15169">
        <ele>69</ele>
        <time>2025-04-26T08:23:06Z</time>
      </trkpt>
      <trkpt lat="45.2423" lon="-1.15168">
        <ele>68</ele>
        <time>2025-04-26T08:23:07Z</time>
      </trkpt>
      <trkpt lat="45.24234" lon="-1.15166">
        <ele>68</ele>
        <time>2025-04-26T08:23:08Z</time>
      </trkpt>
      <trkpt lat="45.24238" lon="-1.15165">
        <ele>69</ele>
        <time>2025-04-26T08:23:09Z</time>
      </trkpt>
      <trkpt lat="45.24242" lon="-1.15163">
        <ele>69</ele>
        <time>2025-04-26T08:23:10Z</time>
      </trkpt>
      <trkpt lat="45.24245" lon="-1.15161">
        <ele>69</ele>
        <time>2025-04-26T08:23:11Z</time>
      </trkpt>
      <trkpt lat="45.24249" lon="-1.1516">
        <ele>69</ele>
        <time>2025-04-26T08:23:12Z</time>
      </trkpt>
      <trkpt lat="45.24252" lon="-1.15159">
        <ele>68</ele>
        <time>2025-04-26T08:23:13Z</time>
      </trkpt>
      <trkpt lat="45.24256" lon="-1.15158">
        <ele>69</ele>
        <time>2025-04-26T08:23:14Z</time>
      </trkpt>
      <trkpt lat="45.2426" lon="-1.15157">
        <ele>69</ele>
        <time>2025-04-26T08:23:15Z</time>
      </trkpt>
      <trkpt lat="45.24263" lon="-1.15155">
        <ele>69</ele>
        <time>2025-04-26T08:23:16Z</time>
      </trkpt>
      <trkpt lat="45.24267" lon="-1.15154">
        <ele>69</ele>
        <time>2025-04-26T08:23:17Z</time>
      </trkpt>
      <trkpt lat="45.2427" lon="-1.15154">
        <ele>69</ele>
        <time>2025-04-26T08:23:18Z</time>
      </trkpt>
      <trkpt lat="45.24273" lon="-1.15152">
        <ele>69</ele>
        <time>2025-04-26T08:23:19Z</time>
      </trkpt>
      <trkpt lat="45.24276" lon="-1.15151">
        <ele>69</ele>
        <time>2025-04-26T08:23:20Z</time>
      </trkpt>
      <trkpt lat="45.2428" lon="-1.1515">
        <ele>68</ele>
        <time>2025-04-26T08:23:21Z</time>
      </trkpt>
      <trkpt lat="45.24283" lon="-1.15149">
        <ele>69</ele>
        <time>2025-04-26T08:23:22Z</time>
      </trkpt>
      <trkpt lat="45.24286" lon="-1.15148">
        <ele>69</ele>
        <time>2025-04-26T08:23:23Z</time>
      </trkpt>
      <trkpt lat="45.2429" lon="-1.15146">
        <ele>68</ele>
        <time>2025-04-26T08:23:24Z</time>
      </trkpt>
      <trkpt lat="45.24293" lon="-1.15145">
        <ele>69</ele>
        <time>2025-04-26T08:23:25Z</time>
      </trkpt>
      <trkpt lat="45.24296" lon="-1.15145">
        <ele>69</ele>
        <time>2025-04-26T08:23:26Z</time>
      </trkpt>
      <trkpt lat="45.243" lon="-1.15143">
        <ele>69</ele>
        <time>2025-04-26T08:23:27Z</time>
      </trkpt>
      <trkpt lat="45.24303" lon="-1.15142">
        <ele>69</ele>
        <time>2025-04-26T08:23:28Z</time>
      </trkpt>
      <trkpt lat="45.24306" lon="-1.15141">
        <ele>69</ele>
        <time>2025-04-26T08:23:29Z</time>
      </trkpt>
      <trkpt lat="45.24309" lon="-1.15139">
        <ele>69</ele>
        <time>2025-04-26T08:23:30Z</time>
      </trkpt>
      <trkpt lat="45.24312" lon="-1.15139">
        <ele>70</ele>
        <time>2025-04-26T08:23:31Z</time>
      </trkpt>
      <trkpt lat="45.24316" lon="-1.15138">
        <ele>70</ele>
        <time>2025-04-26T08:23:32Z</time>
      </trkpt>
      <trkpt lat="45.24319" lon="-1.15137">
        <ele>70</ele>
        <time>2025-04-26T08:23:33Z</time>
      </trkpt>
      <trkpt lat="45.24322" lon="-1.15135">
        <ele>70</ele>
        <time>2025-04-26T08:23:34Z</time>
      </trkpt>
      <trkpt lat="45.24326" lon="-1.15134">
        <ele>70</ele>
        <time>2025-04-26T08:23:35Z</time>
      </trkpt>
      <trkpt lat="45.24329" lon="-1.15133">
        <ele>70</ele>
        <time>2025-04-26T08:23:36Z</time>
      </trkpt>
      <trkpt lat="45.24332" lon="-1.15131">
        <ele>70</ele>
        <time>2025-04-26T08:23:37Z</time>
      </trkpt>
      <trkpt lat="45.24335" lon="-1.1513">
        <ele>70</ele>
        <time>2025-04-26T08:23:38Z</time>
      </trkpt>
      <trkpt lat="45.24339" lon="-1.15129">
        <ele>71</ele>
        <time>2025-04-26T08:23:39Z</time>
      </trkpt>
      <trkpt lat="45.24342" lon="-1.15127">
        <ele>71</ele>
        <time>2025-04-26T08:23:40Z</time>
      </trkpt>
      <trkpt lat="45.24346" lon="-1.15126">
        <ele>70</ele>
        <time>2025-04-26T08:23:41Z</time>
      </trkpt>
      <trkpt lat="45.2435" lon="-1.15125">
        <ele>71</ele>
        <time>2025-04-26T08:23:42Z</time>
      </trkpt>
      <trkpt lat="45.24353" lon="-1.15124">
        <ele>71</ele>
        <time>2025-04-26T08:23:43Z</time>
      </trkpt>
      <trkpt lat="45.24356" lon="-1.15123">
        <ele>71</ele>
        <time>2025-04-26T08:23:44Z</time>
      </trkpt>
      <trkpt lat="45.2436" lon="-1.15121">
        <ele>71</ele>
        <time>2025-04-26T08:23:45Z</time>
      </trkpt>
      <trkpt lat="45.24363" lon="-1.1512">
        <ele>71</ele>
        <time>2025-04-26T08:23:46Z</time>
      </trkpt>
      <trkpt lat="45.24367" lon="-1.15119">
        <ele>71</ele>
        <time>2025-04-26T08:23:47Z</time>
      </trkpt>
      <trkpt lat="45.2437" lon="-1.15118">
        <ele>71</ele>
        <time>2025-04-26T08:23:48Z</time>
      </trkpt>
      <trkpt lat="45.24374" lon="-1.15116">
        <ele>71</ele>
        <time>2025-04-26T08:23:49Z</time>
      </trkpt>
      <trkpt lat="45.24377" lon="-1.15115">
        <ele>71</ele>
        <time>2025-04-26T08:23:50Z</time>
      </trkpt>
      <trkpt lat="45.24381" lon="-1.15114">
        <ele>71</ele>
        <time>2025-04-26T08:23:51Z</time>
      </trkpt>
      <trkpt lat="45.24384" lon="-1.15113">
        <ele>71</ele>
        <time>2025-04-26T08:23:52Z</time>
      </trkpt>
      <trkpt lat="45.24388" lon="-1.15112">
        <ele>72</ele>
        <time>2025-04-26T08:23:53Z</time>
      </trkpt>
      <trkpt lat="45.24391" lon="-1.15111">
        <ele>72</ele>
        <time>2025-04-26T08:23:54Z</time>
      </trkpt>
      <trkpt lat="45.24394" lon="-1.15109">
        <ele>71</ele>
        <time>2025-04-26T08:23:55Z</time>
      </trkpt>
      <trkpt lat="45.24397" lon="-1.15108">
        <ele>71</ele>
        <time>2025-04-26T08:23:56Z</time>
      </trkpt>
      <trkpt lat="45.24401" lon="-1.15106">
        <ele>72</ele>
        <time>2025-04-26T08:23:57Z</time>
      </trkpt>
      <trkpt lat="45.24405" lon="-1.15105">
        <ele>72</ele>
        <time>2025-04-26T08:23:58Z</time>
      </trkpt>
      <trkpt lat="45.24408" lon="-1.15104">
        <ele>72</ele>
        <time>2025-04-26T08:23:59Z</time>
      </trkpt>
      <trkpt lat="45.24412" lon="-1.15104">
        <ele>72</ele>
        <time>2025-04-26T08:24:00Z</time>
      </trkpt>
      <trkpt lat="45.24415" lon="-1.15103">
        <ele>73</ele>
        <time>2025-04-26T08:24:01Z</time>
      </trkpt>
      <trkpt lat="45.24419" lon="-1.15101">
        <ele>72</ele>
        <time>2025-04-26T08:24:02Z</time>
      </trkpt>
      <trkpt lat="45.24423" lon="-1.151">
        <ele>72</ele>
        <time>2025-04-26T08:24:03Z</time>
      </trkpt>
      <trkpt lat="45.24426" lon="-1.15099">
        <ele>72</ele>
        <time>2025-04-26T08:24:04Z</time>
      </trkpt>
      <trkpt lat="45.2443" lon="-1.15098">
        <ele>72</ele>
        <time>2025-04-26T08:24:05Z</time>
      </trkpt>
      <trkpt lat="45.24433" lon="-1.15097">
        <ele>72</ele>
        <time>2025-04-26T08:24:06Z</time>
      </trkpt>
      <trkpt lat="45.24437" lon="-1.15095">
        <ele>72</ele>
        <time>2025-04-26T08:24:07Z</time>
      </trkpt>
      <trkpt lat="45.2444" lon="-1.15094">
        <ele>71</ele>
        <time>2025-04-26T08:24:08Z</time>
      </trkpt>
      <trkpt lat="45.24444" lon="-1.15092">
        <ele>72</ele>
        <time>2025-04-26T08:24:09Z</time>
      </trkpt>
      <trkpt lat="45.24447" lon="-1.15091">
        <ele>72</ele>
        <time>2025-04-26T08:24:10Z</time>
      </trkpt>
      <trkpt lat="45.24451" lon="-1.1509">
        <ele>72</ele>
        <time>2025-04-26T08:24:11Z</time>
      </trkpt>
      <trkpt lat="45.24454" lon="-1.15089">
        <ele>72</ele>
        <time>2025-04-26T08:24:12Z</time>
      </trkpt>
      <trkpt lat="45.24457" lon="-1.15088">
        <ele>72</ele>
        <time>2025-04-26T08:24:13Z</time>
      </trkpt>
      <trkpt lat="45.24461" lon="-1.15087">
        <ele>72</ele>
        <time>2025-04-26T08:24:14Z</time>
      </trkpt>
      <trkpt lat="45.24464" lon="-1.15086">
        <ele>72</ele>
        <time>2025-04-26T08:24:15Z</time>
      </trkpt>
      <trkpt lat="45.24468" lon="-1.15085">
        <ele>71</ele>
        <time>2025-04-26T08:24:16Z</time>
      </trkpt>
      <trkpt lat="45.24471" lon="-1.15084">
        <ele>71</ele>
        <time>2025-04-26T08:24:17Z</time>
      </trkpt>
      <trkpt lat="45.24474" lon="-1.15083">
        <ele>71</ele>
        <time>2025-04-26T08:24:18Z</time>
      </trkpt>
      <trkpt lat="45.24478" lon="-1.15082">
        <ele>71</ele>
        <time>2025-04-26T08:24:19Z</time>
      </trkpt>
      <trkpt lat="45.24481" lon="-1.15081">
        <ele>71</ele>
        <time>2025-04-26T08:24:20Z</time>
      </trkpt>
      <trkpt lat="45.24484" lon="-1.1508">
        <ele>71</ele>
        <time>2025-04-26T08:24:21Z</time>
      </trkpt>
      <trkpt lat="45.24488" lon="-1.15079">
        <ele>71</ele>
        <time>2025-04-26T08:24:22Z</time>
      </trkpt>
      <trkpt lat="45.24491" lon="-1.15078">
        <ele>71</ele>
        <time>2025-04-26T08:24:23Z</time>
      </trkpt>
      <trkpt lat="45.24494" lon="-1.15077">
        <ele>71</ele>
        <time>2025-04-26T08:24:24Z</time>
      </trkpt>
      <trkpt lat="45.24497" lon="-1.15075">
        <ele>71</ele>
        <time>2025-04-26T08:24:25Z</time>
      </trkpt>
      <trkpt lat="45.245" lon="-1.15074">
        <ele>71</ele>
        <time>2025-04-26T08:24:26Z</time>
      </trkpt>
      <trkpt lat="45.24504" lon="-1.15072">
        <ele>71</ele>
        <time>2025-04-26T08:24:27Z</time>
      </trkpt>
      <trkpt lat="45.24507" lon="-1.15071">
        <ele>72</ele>
        <time>2025-04-26T08:24:28Z</time>
      </trkpt>
      <trkpt lat="45.24511" lon="-1.1507">
        <ele>72</ele>
        <time>2025-04-26T08:24:29Z</time>
      </trkpt>
      <trkpt lat="45.24515" lon="-1.15069">
        <ele>72</ele>
        <time>2025-04-26T08:24:30Z</time>
      </trkpt>
      <trkpt lat="45.24518" lon="-1.15068">
        <ele>71</ele>
        <time>2025-04-26T08:24:31Z</time>
      </trkpt>
      <trkpt lat="45.24522" lon="-1.15067">
        <ele>71</ele>
        <time>2025-04-26T08:24:32Z</time>
      </trkpt>
      <trkpt lat="45.24525" lon="-1.15065">
        <ele>71</ele>
        <time>2025-04-26T08:24:33Z</time>
      </trkpt>
      <trkpt lat="45.24529" lon="-1.15064">
        <ele>71</ele>
        <time>2025-04-26T08:24:34Z</time>
      </trkpt>
      <trkpt lat="45.24533" lon="-1.15063">
        <ele>72</ele>
        <time>2025-04-26T08:24:35Z</time>
      </trkpt>
      <trkpt lat="45.24536" lon="-1.15062">
        <ele>71</ele>
        <time>2025-04-26T08:24:36Z</time>
      </trkpt>
      <trkpt lat="45.24539" lon="-1.15061">
        <ele>71</ele>
        <time>2025-04-26T08:24:37Z</time>
      </trkpt>
      <trkpt lat="45.24542" lon="-1.15059">
        <ele>72</ele>
        <time>2025-04-26T08:24:38Z</time>
      </trkpt>
      <trkpt lat="45.24546" lon="-1.15058">
        <ele>71</ele>
        <time>2025-04-26T08:24:39Z</time>
      </trkpt>
      <trkpt lat="45.2455" lon="-1.15057">
        <ele>71</ele>
        <time>2025-04-26T08:24:40Z</time>
      </trkpt>
      <trkpt lat="45.24553" lon="-1.15056">
        <ele>71</ele>
        <time>2025-04-26T08:24:41Z</time>
      </trkpt>
      <trkpt lat="45.24557" lon="-1.15055">
        <ele>71</ele>
        <time>2025-04-26T08:24:42Z</time>
      </trkpt>
      <trkpt lat="45.2456" lon="-1.15054">
        <ele>71</ele>
        <time>2025-04-26T08:24:43Z</time>
      </trkpt>
      <trkpt lat="45.24563" lon="-1.15052">
        <ele>72</ele>
        <time>2025-04-26T08:24:44Z</time>
      </trkpt>
      <trkpt lat="45.24567" lon="-1.15051">
        <ele>72</ele>
        <time>2025-04-26T08:24:45Z</time>
      </trkpt>
      <trkpt lat="45.2457" lon="-1.1505">
        <ele>72</ele>
        <time>2025-04-26T08:24:46Z</time>
      </trkpt>
      <trkpt lat="45.24574" lon="-1.1505">
        <ele>72</ele>
        <time>2025-04-26T08:24:47Z</time>
      </trkpt>
      <trkpt lat="45.24578" lon="-1.15049">
        <ele>72</ele>
        <time>2025-04-26T08:24:48Z</time>
      </trkpt>
      <trkpt lat="45.24581" lon="-1.15047">
        <ele>72</ele>
        <time>2025-04-26T08:24:49Z</time>
      </trkpt>
      <trkpt lat="45.24585" lon="-1.15046">
        <ele>71</ele>
        <time>2025-04-26T08:24:50Z</time>
      </trkpt>
      <trkpt lat="45.24588" lon="-1.15045">
        <ele>71</ele>
        <time>2025-04-26T08:24:51Z</time>
      </trkpt>
      <trkpt lat="45.24592" lon="-1.15043">
        <ele>72</ele>
        <time>2025-04-26T08:24:52Z</time>
      </trkpt>
      <trkpt lat="45.24595" lon="-1.15042">
        <ele>72</ele>
        <time>2025-04-26T08:24:53Z</time>
      </trkpt>
      <trkpt lat="45.24599" lon="-1.15041">
        <ele>72</ele>
        <time>2025-04-26T08:24:54Z</time>
      </trkpt>
      <trkpt lat="45.24602" lon="-1.1504">
        <ele>72</ele>
        <time>2025-04-26T08:24:55Z</time>
      </trkpt>
      <trkpt lat="45.24606" lon="-1.15039">
        <ele>72</ele>
        <time>2025-04-26T08:24:56Z</time>
      </trkpt>
      <trkpt lat="45.24609" lon="-1.15037">
        <ele>72</ele>
        <time>2025-04-26T08:24:57Z</time>
      </trkpt>
      <trkpt lat="45.24613" lon="-1.15036">
        <ele>72</ele>
        <time>2025-04-26T08:24:58Z</time>
      </trkpt>
      <trkpt lat="45.24616" lon="-1.15035">
        <ele>72</ele>
        <time>2025-04-26T08:24:59Z</time>
      </trkpt>
      <trkpt lat="45.24619" lon="-1.15033">
        <ele>72</ele>
        <time>2025-04-26T08:25:00Z</time>
      </trkpt>
      <trkpt lat="45.24623" lon="-1.15032">
        <ele>72</ele>
        <time>2025-04-26T08:25:01Z</time>
      </trkpt>
      <trkpt lat="45.24626" lon="-1.15031">
        <ele>72</ele>
        <time>2025-04-26T08:25:02Z</time>
      </trkpt>
      <trkpt lat="45.2463" lon="-1.1503">
        <ele>72</ele>
        <time>2025-04-26T08:25:03Z</time>
      </trkpt>
      <trkpt lat="45.24633" lon="-1.15028">
        <ele>72</ele>
        <time>2025-04-26T08:25:04Z</time>
      </trkpt>
      <trkpt lat="45.24636" lon="-1.15027">
        <ele>72</ele>
        <time>2025-04-26T08:25:05Z</time>
      </trkpt>
      <trkpt lat="45.2464" lon="-1.15027">
        <ele>72</ele>
        <time>2025-04-26T08:25:06Z</time>
      </trkpt>
      <trkpt lat="45.24642" lon="-1.15026">
        <ele>72</ele>
        <time>2025-04-26T08:25:07Z</time>
      </trkpt>
      <trkpt lat="45.24645" lon="-1.15024">
        <ele>72</ele>
        <time>2025-04-26T08:25:08Z</time>
      </trkpt>
      <trkpt lat="45.24649" lon="-1.15023">
        <ele>72</ele>
        <time>2025-04-26T08:25:09Z</time>
      </trkpt>
      <trkpt lat="45.24652" lon="-1.15023">
        <ele>72</ele>
        <time>2025-04-26T08:25:10Z</time>
      </trkpt>
      <trkpt lat="45.24655" lon="-1.15022">
        <ele>72</ele>
        <time>2025-04-26T08:25:11Z</time>
      </trkpt>
      <trkpt lat="45.24658" lon="-1.15021">
        <ele>72</ele>
        <time>2025-04-26T08:25:12Z</time>
      </trkpt>
      <trkpt lat="45.24661" lon="-1.1502">
        <ele>73</ele>
        <time>2025-04-26T08:25:13Z</time>
      </trkpt>
      <trkpt lat="45.24664" lon="-1.15019">
        <ele>73</ele>
        <time>2025-04-26T08:25:14Z</time>
      </trkpt>
      <trkpt lat="45.24667" lon="-1.15018">
        <ele>72</ele>
        <time>2025-04-26T08:25:15Z</time>
      </trkpt>
      <trkpt lat="45.2467" lon="-1.15016">
        <ele>72</ele>
        <time>2025-04-26T08:25:16Z</time>
      </trkpt>
      <trkpt lat="45.24673" lon="-1.15015">
        <ele>72</ele>
        <time>2025-04-26T08:25:17Z</time>
      </trkpt>
      <trkpt lat="45.24676" lon="-1.15014">
        <ele>72</ele>
        <time>2025-04-26T08:25:18Z</time>
      </trkpt>
      <trkpt lat="45.24679" lon="-1.15012">
        <ele>72</ele>
        <time>2025-04-26T08:25:19Z</time>
      </trkpt>
      <trkpt lat="45.24682" lon="-1.1501">
        <ele>72</ele>
        <time>2025-04-26T08:25:20Z</time>
      </trkpt>
      <trkpt lat="45.24685" lon="-1.15009">
        <ele>72</ele>
        <time>2025-04-26T08:25:21Z</time>
      </trkpt>
      <trkpt lat="45.24689" lon="-1.15008">
        <ele>73</ele>
        <time>2025-04-26T08:25:22Z</time>
      </trkpt>
      <trkpt lat="45.24692" lon="-1.15008">
        <ele>73</ele>
        <time>2025-04-26T08:25:23Z</time>
      </trkpt>
      <trkpt lat="45.24696" lon="-1.15006">
        <ele>73</ele>
        <time>2025-04-26T08:25:24Z</time>
      </trkpt>
      <trkpt lat="45.24699" lon="-1.15005">
        <ele>73</ele>
        <time>2025-04-26T08:25:25Z</time>
      </trkpt>
      <trkpt lat="45.24703" lon="-1.15004">
        <ele>73</ele>
        <time>2025-04-26T08:25:26Z</time>
      </trkpt>
      <trkpt lat="45.24706" lon="-1.15002">
        <ele>73</ele>
        <time>2025-04-26T08:25:27Z</time>
      </trkpt>
      <trkpt lat="45.2471" lon="-1.15001">
        <ele>73</ele>
        <time>2025-04-26T08:25:28Z</time>
      </trkpt>
      <trkpt lat="45.24713" lon="-1.15">
        <ele>73</ele>
        <time>2025-04-26T08:25:29Z</time>
      </trkpt>
      <trkpt lat="45.24716" lon="-1.14999">
        <ele>72</ele>
        <time>2025-04-26T08:25:30Z</time>
      </trkpt>
      <trkpt lat="45.2472" lon="-1.14998">
        <ele>72</ele>
        <time>2025-04-26T08:25:31Z</time>
      </trkpt>
      <trkpt lat="45.24723" lon="-1.14996">
        <ele>72</ele>
        <time>2025-04-26T08:25:32Z</time>
      </trkpt>
      <trkpt lat="45.24728" lon="-1.14996">
        <ele>72</ele>
        <time>2025-04-26T08:25:33Z</time>
      </trkpt>
      <trkpt lat="45.24732" lon="-1.14994">
        <ele>72</ele>
        <time>2025-04-26T08:25:34Z</time>
      </trkpt>
      <trkpt lat="45.24736" lon="-1.14992">
        <ele>72</ele>
        <time>2025-04-26T08:25:35Z</time>
      </trkpt>
      <trkpt lat="45.2474" lon="-1.1499">
        <ele>72</ele>
        <time>2025-04-26T08:25:36Z</time>
      </trkpt>
      <trkpt lat="45.24744" lon="-1.14988">
        <ele>72</ele>
        <time>2025-04-26T08:25:37Z</time>
      </trkpt>
      <trkpt lat="45.24748" lon="-1.14987">
        <ele>72</ele>
        <time>2025-04-26T08:25:38Z</time>
      </trkpt>
      <trkpt lat="45.24752" lon="-1.14985">
        <ele>72</ele>
        <time>2025-04-26T08:25:39Z</time>
      </trkpt>
      <trkpt lat="45.24756" lon="-1.14983">
        <ele>72</ele>
        <time>2025-04-26T08:25:40Z</time>
      </trkpt>
      <trkpt lat="45.2476" lon="-1.14982">
        <ele>71</ele>
        <time>2025-04-26T08:25:41Z</time>
      </trkpt>
      <trkpt lat="45.24764" lon="-1.1498">
        <ele>71</ele>
        <time>2025-04-26T08:25:42Z</time>
      </trkpt>
      <trkpt lat="45.24769" lon="-1.14978">
        <ele>71</ele>
        <time>2025-04-26T08:25:43Z</time>
      </trkpt>
      <trkpt lat="45.24773" lon="-1.14976">
        <ele>71</ele>
        <time>2025-04-26T08:25:44Z</time>
      </trkpt>
      <trkpt lat="45.24778" lon="-1.14974">
        <ele>71</ele>
        <time>2025-04-26T08:25:45Z</time>
      </trkpt>
      <trkpt lat="45.24783" lon="-1.14972">
        <ele>70</ele>
        <time>2025-04-26T08:25:46Z</time>
      </trkpt>
      <trkpt lat="45.24788" lon="-1.14971">
        <ele>70</ele>
        <time>2025-04-26T08:25:47Z</time>
      </trkpt>
      <trkpt lat="45.24793" lon="-1.1497">
        <ele>70</ele>
        <time>2025-04-26T08:25:48Z</time>
      </trkpt>
      <trkpt lat="45.24798" lon="-1.14969">
        <ele>70</ele>
        <time>2025-04-26T08:25:49Z</time>
      </trkpt>
      <trkpt lat="45.24802" lon="-1.14967">
        <ele>70</ele>
        <time>2025-04-26T08:25:50Z</time>
      </trkpt>
      <trkpt lat="45.24807" lon="-1.14965">
        <ele>70</ele>
        <time>2025-04-26T08:25:51Z</time>
      </trkpt>
      <trkpt lat="45.24812" lon="-1.14963">
        <ele>71</ele>
        <time>2025-04-26T08:25:52Z</time>
      </trkpt>
      <trkpt lat="45.24817" lon="-1.14961">
        <ele>71</ele>
        <time>2025-04-26T08:25:53Z</time>
      </trkpt>
      <trkpt lat="45.24821" lon="-1.14959">
        <ele>71</ele>
        <time>2025-04-26T08:25:54Z</time>
      </trkpt>
      <trkpt lat="45.24826" lon="-1.14958">
        <ele>71</ele>
        <time>2025-04-26T08:25:55Z</time>
      </trkpt>
      <trkpt lat="45.24831" lon="-1.14957">
        <ele>70</ele>
        <time>2025-04-26T08:25:56Z</time>
      </trkpt>
      <trkpt lat="45.24835" lon="-1.14956">
        <ele>70</ele>
        <time>2025-04-26T08:25:57Z</time>
      </trkpt>
      <trkpt lat="45.2484" lon="-1.14955">
        <ele>71</ele>
        <time>2025-04-26T08:25:58Z</time>
      </trkpt>
      <trkpt lat="45.24845" lon="-1.14953">
        <ele>71</ele>
        <time>2025-04-26T08:25:59Z</time>
      </trkpt>
      <trkpt lat="45.24849" lon="-1.14951">
        <ele>71</ele>
        <time>2025-04-26T08:26:00Z</time>
      </trkpt>
      <trkpt lat="45.24854" lon="-1.14949">
        <ele>71</ele>
        <time>2025-04-26T08:26:01Z</time>
      </trkpt>
      <trkpt lat="45.24858" lon="-1.14947">
        <ele>72</ele>
        <time>2025-04-26T08:26:02Z</time>
      </trkpt>
      <trkpt lat="45.24862" lon="-1.14945">
        <ele>72</ele>
        <time>2025-04-26T08:26:03Z</time>
      </trkpt>
      <trkpt lat="45.24867" lon="-1.14944">
        <ele>72</ele>
        <time>2025-04-26T08:26:04Z</time>
      </trkpt>
      <trkpt lat="45.24872" lon="-1.14943">
        <ele>71</ele>
        <time>2025-04-26T08:26:05Z</time>
      </trkpt>
      <trkpt lat="45.24876" lon="-1.14942">
        <ele>71</ele>
        <time>2025-04-26T08:26:06Z</time>
      </trkpt>
      <trkpt lat="45.24881" lon="-1.1494">
        <ele>71</ele>
        <time>2025-04-26T08:26:07Z</time>
      </trkpt>
      <trkpt lat="45.24885" lon="-1.14939">
        <ele>71</ele>
        <time>2025-04-26T08:26:08Z</time>
      </trkpt>
      <trkpt lat="45.24889" lon="-1.14937">
        <ele>71</ele>
        <time>2025-04-26T08:26:09Z</time>
      </trkpt>
      <trkpt lat="45.24894" lon="-1.14936">
        <ele>71</ele>
        <time>2025-04-26T08:26:10Z</time>
      </trkpt>
      <trkpt lat="45.24898" lon="-1.14935">
        <ele>71</ele>
        <time>2025-04-26T08:26:11Z</time>
      </trkpt>
      <trkpt lat="45.24902" lon="-1.14933">
        <ele>71</ele>
        <time>2025-04-26T08:26:12Z</time>
      </trkpt>
      <trkpt lat="45.24906" lon="-1.14932">
        <ele>70</ele>
        <time>2025-04-26T08:26:13Z</time>
      </trkpt>
      <trkpt lat="45.24911" lon="-1.1493">
        <ele>70</ele>
        <time>2025-04-26T08:26:14Z</time>
      </trkpt>
      <trkpt lat="45.24915" lon="-1.14929">
        <ele>71</ele>
        <time>2025-04-26T08:26:15Z</time>
      </trkpt>
      <trkpt lat="45.2492" lon="-1.14927">
        <ele>71</ele>
        <time>2025-04-26T08:26:16Z</time>
      </trkpt>
      <trkpt lat="45.24924" lon="-1.14925">
        <ele>71</ele>
        <time>2025-04-26T08:26:17Z</time>
      </trkpt>
      <trkpt lat="45.24928" lon="-1.14924">
        <ele>71</ele>
        <time>2025-04-26T08:26:18Z</time>
      </trkpt>
      <trkpt lat="45.24933" lon="-1.14922">
        <ele>72</ele>
        <time>2025-04-26T08:26:19Z</time>
      </trkpt>
      <trkpt lat="45.24937" lon="-1.14921">
        <ele>71</ele>
        <time>2025-04-26T08:26:20Z</time>
      </trkpt>
      <trkpt lat="45.24941" lon="-1.14919">
        <ele>71</ele>
        <time>2025-04-26T08:26:21Z</time>
      </trkpt>
      <trkpt lat="45.24946" lon="-1.14917">
        <ele>71</ele>
        <time>2025-04-26T08:26:22Z</time>
      </trkpt>
      <trkpt lat="45.2495" lon="-1.14916">
        <ele>71</ele>
        <time>2025-04-26T08:26:23Z</time>
      </trkpt>
      <trkpt lat="45.24955" lon="-1.14915">
        <ele>71</ele>
        <time>2025-04-26T08:26:24Z</time>
      </trkpt>
      <trkpt lat="45.24959" lon="-1.14914">
        <ele>70</ele>
        <time>2025-04-26T08:26:25Z</time>
      </trkpt>
      <trkpt lat="45.24964" lon="-1.14912">
        <ele>70</ele>
        <time>2025-04-26T08:26:26Z</time>
      </trkpt>
      <trkpt lat="45.24969" lon="-1.14911">
        <ele>69</ele>
        <time>2025-04-26T08:26:27Z</time>
      </trkpt>
      <trkpt lat="45.24973" lon="-1.14909">
        <ele>69</ele>
        <time>2025-04-26T08:26:28Z</time>
      </trkpt>
      <trkpt lat="45.24977" lon="-1.14907">
        <ele>69</ele>
        <time>2025-04-26T08:26:29Z</time>
      </trkpt>
      <trkpt lat="45.24982" lon="-1.14905">
        <ele>69</ele>
        <time>2025-04-26T08:26:30Z</time>
      </trkpt>
      <trkpt lat="45.24987" lon="-1.14904">
        <ele>69</ele>
        <time>2025-04-26T08:26:31Z</time>
      </trkpt>
      <trkpt lat="45.24992" lon="-1.14903">
        <ele>69</ele>
        <time>2025-04-26T08:26:32Z</time>
      </trkpt>
      <trkpt lat="45.24996" lon="-1.14901">
        <ele>69</ele>
        <time>2025-04-26T08:26:33Z</time>
      </trkpt>
      <trkpt lat="45.25" lon="-1.149">
        <ele>68</ele>
        <time>2025-04-26T08:26:34Z</time>
      </trkpt>
      <trkpt lat="45.25005" lon="-1.14899">
        <ele>68</ele>
        <time>2025-04-26T08:26:35Z</time>
      </trkpt>
      <trkpt lat="45.25009" lon="-1.14897">
        <ele>68</ele>
        <time>2025-04-26T08:26:36Z</time>
      </trkpt>
      <trkpt lat="45.25014" lon="-1.14895">
        <ele>69</ele>
        <time>2025-04-26T08:26:37Z</time>
      </trkpt>
      <trkpt lat="45.25018" lon="-1.14893">
        <ele>68</ele>
        <time>2025-04-26T08:26:38Z</time>
      </trkpt>
      <trkpt lat="45.25023" lon="-1.14891">
        <ele>68</ele>
        <time>2025-04-26T08:26:39Z</time>
      </trkpt>
      <trkpt lat="45.25027" lon="-1.1489">
        <ele>68</ele>
        <time>2025-04-26T08:26:40Z</time>
      </trkpt>
      <trkpt lat="45.25032" lon="-1.14888">
        <ele>68</ele>
        <time>2025-04-26T08:26:41Z</time>
      </trkpt>
      <trkpt lat="45.25036" lon="-1.14887">
        <ele>69</ele>
        <time>2025-04-26T08:26:42Z</time>
      </trkpt>
      <trkpt lat="45.2504" lon="-1.14886">
        <ele>69</ele>
        <time>2025-04-26T08:26:43Z</time>
      </trkpt>
      <trkpt lat="45.25044" lon="-1.14884">
        <ele>69</ele>
        <time>2025-04-26T08:26:44Z</time>
      </trkpt>
      <trkpt lat="45.25048" lon="-1.14883">
        <ele>69</ele>
        <time>2025-04-26T08:26:45Z</time>
      </trkpt>
      <trkpt lat="45.25052" lon="-1.14881">
        <ele>69</ele>
        <time>2025-04-26T08:26:46Z</time>
      </trkpt>
      <trkpt lat="45.25056" lon="-1.1488">
        <ele>69</ele>
        <time>2025-04-26T08:26:47Z</time>
      </trkpt>
      <trkpt lat="45.2506" lon="-1.14879">
        <ele>69</ele>
        <time>2025-04-26T08:26:48Z</time>
      </trkpt>
      <trkpt lat="45.25064" lon="-1.14877">
        <ele>69</ele>
        <time>2025-04-26T08:26:49Z</time>
      </trkpt>
      <trkpt lat="45.25068" lon="-1.14876">
        <ele>69</ele>
        <time>2025-04-26T08:26:50Z</time>
      </trkpt>
      <trkpt lat="45.25072" lon="-1.14875">
        <ele>69</ele>
        <time>2025-04-26T08:26:51Z</time>
      </trkpt>
      <trkpt lat="45.25076" lon="-1.14873">
        <ele>69</ele>
        <time>2025-04-26T08:26:52Z</time>
      </trkpt>
      <trkpt lat="45.2508" lon="-1.14871">
        <ele>69</ele>
        <time>2025-04-26T08:26:53Z</time>
      </trkpt>
      <trkpt lat="45.25085" lon="-1.1487">
        <ele>69</ele>
        <time>2025-04-26T08:26:54Z</time>
      </trkpt>
      <trkpt lat="45.25089" lon="-1.14868">
        <ele>69</ele>
        <time>2025-04-26T08:26:55Z</time>
      </trkpt>
      <trkpt lat="45.25093" lon="-1.14867">
        <ele>69</ele>
        <time>2025-04-26T08:26:56Z</time>
      </trkpt>
      <trkpt lat="45.25097" lon="-1.14866">
        <ele>69</ele>
        <time>2025-04-26T08:26:57Z</time>
      </trkpt>
      <trkpt lat="45.25101" lon="-1.14864">
        <ele>69</ele>
        <time>2025-04-26T08:26:58Z</time>
      </trkpt>
      <trkpt lat="45.25105" lon="-1.14863">
        <ele>69</ele>
        <time>2025-04-26T08:26:59Z</time>
      </trkpt>
      <trkpt lat="45.25109" lon="-1.14861">
        <ele>70</ele>
        <time>2025-04-26T08:27:00Z</time>
      </trkpt>
      <trkpt lat="45.25113" lon="-1.1486">
        <ele>70</ele>
        <time>2025-04-26T08:27:01Z</time>
      </trkpt>
      <trkpt lat="45.25117" lon="-1.14858">
        <ele>70</ele>
        <time>2025-04-26T08:27:02Z</time>
      </trkpt>
      <trkpt lat="45.25122" lon="-1.14857">
        <ele>70</ele>
        <time>2025-04-26T08:27:03Z</time>
      </trkpt>
      <trkpt lat="45.25126" lon="-1.14856">
        <ele>70</ele>
        <time>2025-04-26T08:27:04Z</time>
      </trkpt>
      <trkpt lat="45.25131" lon="-1.14854">
        <ele>70</ele>
        <time>2025-04-26T08:27:05Z</time>
      </trkpt>
      <trkpt lat="45.25135" lon="-1.14853">
        <ele>70</ele>
        <time>2025-04-26T08:27:06Z</time>
      </trkpt>
      <trkpt lat="45.25139" lon="-1.14852">
        <ele>70</ele>
        <time>2025-04-26T08:27:07Z</time>
      </trkpt>
      <trkpt lat="45.25143" lon="-1.1485">
        <ele>70</ele>
        <time>2025-04-26T08:27:08Z</time>
      </trkpt>
      <trkpt lat="45.25147" lon="-1.14848">
        <ele>71</ele>
        <time>2025-04-26T08:27:09Z</time>
      </trkpt>
      <trkpt lat="45.25151" lon="-1.14847">
        <ele>70</ele>
        <time>2025-04-26T08:27:10Z</time>
      </trkpt>
      <trkpt lat="45.25156" lon="-1.14846">
        <ele>70</ele>
        <time>2025-04-26T08:27:11Z</time>
      </trkpt>
      <trkpt lat="45.2516" lon="-1.14844">
        <ele>70</ele>
        <time>2025-04-26T08:27:12Z</time>
      </trkpt>
      <trkpt lat="45.25165" lon="-1.14843">
        <ele>69</ele>
        <time>2025-04-26T08:27:13Z</time>
      </trkpt>
      <trkpt lat="45.25169" lon="-1.14842">
        <ele>69</ele>
        <time>2025-04-26T08:27:14Z</time>
      </trkpt>
      <trkpt lat="45.25173" lon="-1.1484">
        <ele>69</ele>
        <time>2025-04-26T08:27:15Z</time>
      </trkpt>
      <trkpt lat="45.25177" lon="-1.14839">
        <ele>69</ele>
        <time>2025-04-26T08:27:16Z</time>
      </trkpt>
      <trkpt lat="45.25181" lon="-1.14837">
        <ele>69</ele>
        <time>2025-04-26T08:27:17Z</time>
      </trkpt>
      <trkpt lat="45.25185" lon="-1.14836">
        <ele>69</ele>
        <time>2025-04-26T08:27:18Z</time>
      </trkpt>
      <trkpt lat="45.25189" lon="-1.14834">
        <ele>69</ele>
        <time>2025-04-26T08:27:19Z</time>
      </trkpt>
      <trkpt lat="45.25193" lon="-1.14833">
        <ele>70</ele>
        <time>2025-04-26T08:27:20Z</time>
      </trkpt>
      <trkpt lat="45.25198" lon="-1.14832">
        <ele>70</ele>
        <time>2025-04-26T08:27:21Z</time>
      </trkpt>
      <trkpt lat="45.25201" lon="-1.1483">
        <ele>70</ele>
        <time>2025-04-26T08:27:22Z</time>
      </trkpt>
      <trkpt lat="45.25205" lon="-1.14829">
        <ele>70</ele>
        <time>2025-04-26T08:27:23Z</time>
      </trkpt>
      <trkpt lat="45.2521" lon="-1.14828">
        <ele>70</ele>
        <time>2025-04-26T08:27:24Z</time>
      </trkpt>
      <trkpt lat="45.25214" lon="-1.14827">
        <ele>69</ele>
        <time>2025-04-26T08:27:25Z</time>
      </trkpt>
      <trkpt lat="45.25219" lon="-1.14825">
        <ele>69</ele>
        <time>2025-04-26T08:27:26Z</time>
      </trkpt>
      <trkpt lat="45.25223" lon="-1.14823">
        <ele>69</ele>
        <time>2025-04-26T08:27:27Z</time>
      </trkpt>
      <trkpt lat="45.25228" lon="-1.14822">
        <ele>69</ele>
        <time>2025-04-26T08:27:28Z</time>
      </trkpt>
      <trkpt lat="45.25232" lon="-1.1482">
        <ele>69</ele>
        <time>2025-04-26T08:27:29Z</time>
      </trkpt>
      <trkpt lat="45.25236" lon="-1.14819">
        <ele>69</ele>
        <time>2025-04-26T08:27:30Z</time>
      </trkpt>
      <trkpt lat="45.2524" lon="-1.14817">
        <ele>69</ele>
        <time>2025-04-26T08:27:31Z</time>
      </trkpt>
      <trkpt lat="45.25244" lon="-1.14815">
        <ele>70</ele>
        <time>2025-04-26T08:27:32Z</time>
      </trkpt>
      <trkpt lat="45.25248" lon="-1.14813">
        <ele>70</ele>
        <time>2025-04-26T08:27:33Z</time>
      </trkpt>
      <trkpt lat="45.25252" lon="-1.14812">
        <ele>70</ele>
        <time>2025-04-26T08:27:34Z</time>
      </trkpt>
      <trkpt lat="45.25257" lon="-1.1481">
        <ele>71</ele>
        <time>2025-04-26T08:27:35Z</time>
      </trkpt>
      <trkpt lat="45.25261" lon="-1.14809">
        <ele>71</ele>
        <time>2025-04-26T08:27:36Z</time>
      </trkpt>
      <trkpt lat="45.25265" lon="-1.14807">
        <ele>71</ele>
        <time>2025-04-26T08:27:37Z</time>
      </trkpt>
      <trkpt lat="45.25269" lon="-1.14805">
        <ele>71</ele>
        <time>2025-04-26T08:27:38Z</time>
      </trkpt>
      <trkpt lat="45.25273" lon="-1.14804">
        <ele>71</ele>
        <time>2025-04-26T08:27:39Z</time>
      </trkpt>
      <trkpt lat="45.25277" lon="-1.14802">
        <ele>71</ele>
        <time>2025-04-26T08:27:40Z</time>
      </trkpt>
      <trkpt lat="45.25282" lon="-1.148">
        <ele>72</ele>
        <time>2025-04-26T08:27:41Z</time>
      </trkpt>
      <trkpt lat="45.25286" lon="-1.14799">
        <ele>72</ele>
        <time>2025-04-26T08:27:42Z</time>
      </trkpt>
      <trkpt lat="45.2529" lon="-1.14798">
        <ele>73</ele>
        <time>2025-04-26T08:27:43Z</time>
      </trkpt>
      <trkpt lat="45.25295" lon="-1.14797">
        <ele>74</ele>
        <time>2025-04-26T08:27:44Z</time>
      </trkpt>
      <trkpt lat="45.25299" lon="-1.14796">
        <ele>74</ele>
        <time>2025-04-26T08:27:45Z</time>
      </trkpt>
      <trkpt lat="45.25303" lon="-1.14794">
        <ele>74</ele>
        <time>2025-04-26T08:27:46Z</time>
      </trkpt>
      <trkpt lat="45.25308" lon="-1.14792">
        <ele>74</ele>
        <time>2025-04-26T08:27:47Z</time>
      </trkpt>
      <trkpt lat="45.25312" lon="-1.1479">
        <ele>74</ele>
        <time>2025-04-26T08:27:48Z</time>
      </trkpt>
      <trkpt lat="45.25316" lon="-1.14789">
        <ele>74</ele>
        <time>2025-04-26T08:27:49Z</time>
      </trkpt>
      <trkpt lat="45.2532" lon="-1.14787">
        <ele>74</ele>
        <time>2025-04-26T08:27:50Z</time>
      </trkpt>
      <trkpt lat="45.25325" lon="-1.14786">
        <ele>74</ele>
        <time>2025-04-26T08:27:51Z</time>
      </trkpt>
      <trkpt lat="45.25329" lon="-1.14785">
        <ele>75</ele>
        <time>2025-04-26T08:27:52Z</time>
      </trkpt>
      <trkpt lat="45.25333" lon="-1.14783">
        <ele>75</ele>
        <time>2025-04-26T08:27:53Z</time>
      </trkpt>
      <trkpt lat="45.25338" lon="-1.14781">
        <ele>75</ele>
        <time>2025-04-26T08:27:54Z</time>
      </trkpt>
      <trkpt lat="45.25341" lon="-1.1478">
        <ele>74</ele>
        <time>2025-04-26T08:27:55Z</time>
      </trkpt>
      <trkpt lat="45.25345" lon="-1.14779">
        <ele>75</ele>
        <time>2025-04-26T08:27:56Z</time>
      </trkpt>
      <trkpt lat="45.25349" lon="-1.14778">
        <ele>74</ele>
        <time>2025-04-26T08:27:57Z</time>
      </trkpt>
      <trkpt lat="45.25354" lon="-1.14777">
        <ele>74</ele>
        <time>2025-04-26T08:27:58Z</time>
      </trkpt>
      <trkpt lat="45.25358" lon="-1.14775">
        <ele>74</ele>
        <time>2025-04-26T08:27:59Z</time>
      </trkpt>
      <trkpt lat="45.25362" lon="-1.14775">
        <ele>74</ele>
        <time>2025-04-26T08:28:00Z</time>
      </trkpt>
      <trkpt lat="45.25366" lon="-1.14773">
        <ele>73</ele>
        <time>2025-04-26T08:28:01Z</time>
      </trkpt>
      <trkpt lat="45.2537" lon="-1.14771">
        <ele>73</ele>
        <time>2025-04-26T08:28:02Z</time>
      </trkpt>
      <trkpt lat="45.25374" lon="-1.1477">
        <ele>73</ele>
        <time>2025-04-26T08:28:03Z</time>
      </trkpt>
      <trkpt lat="45.25378" lon="-1.14769">
        <ele>73</ele>
        <time>2025-04-26T08:28:04Z</time>
      </trkpt>
      <trkpt lat="45.25382" lon="-1.14768">
        <ele>72</ele>
        <time>2025-04-26T08:28:05Z</time>
      </trkpt>
      <trkpt lat="45.25386" lon="-1.14767">
        <ele>72</ele>
        <time>2025-04-26T08:28:06Z</time>
      </trkpt>
      <trkpt lat="45.25391" lon="-1.14766">
        <ele>71</ele>
        <time>2025-04-26T08:28:07Z</time>
      </trkpt>
      <trkpt lat="45.25395" lon="-1.14764">
        <ele>72</ele>
        <time>2025-04-26T08:28:08Z</time>
      </trkpt>
      <trkpt lat="45.25399" lon="-1.14763">
        <ele>71</ele>
        <time>2025-04-26T08:28:09Z</time>
      </trkpt>
      <trkpt lat="45.25403" lon="-1.14762">
        <ele>71</ele>
        <time>2025-04-26T08:28:10Z</time>
      </trkpt>
      <trkpt lat="45.25407" lon="-1.1476">
        <ele>71</ele>
        <time>2025-04-26T08:28:11Z</time>
      </trkpt>
      <trkpt lat="45.25411" lon="-1.14759">
        <ele>70</ele>
        <time>2025-04-26T08:28:12Z</time>
      </trkpt>
      <trkpt lat="45.25415" lon="-1.14758">
        <ele>69</ele>
        <time>2025-04-26T08:28:13Z</time>
      </trkpt>
      <trkpt lat="45.25419" lon="-1.14757">
        <ele>69</ele>
        <time>2025-04-26T08:28:14Z</time>
      </trkpt>
      <trkpt lat="45.25423" lon="-1.14755">
        <ele>69</ele>
        <time>2025-04-26T08:28:15Z</time>
      </trkpt>
      <trkpt lat="45.25427" lon="-1.14754">
        <ele>69</ele>
        <time>2025-04-26T08:28:16Z</time>
      </trkpt>
      <trkpt lat="45.25431" lon="-1.14753">
        <ele>69</ele>
        <time>2025-04-26T08:28:17Z</time>
      </trkpt>
      <trkpt lat="45.25435" lon="-1.14752">
        <ele>69</ele>
        <time>2025-04-26T08:28:18Z</time>
      </trkpt>
      <trkpt lat="45.25439" lon="-1.14751">
        <ele>69</ele>
        <time>2025-04-26T08:28:19Z</time>
      </trkpt>
      <trkpt lat="45.25442" lon="-1.14749">
        <ele>69</ele>
        <time>2025-04-26T08:28:20Z</time>
      </trkpt>
      <trkpt lat="45.25446" lon="-1.14748">
        <ele>69</ele>
        <time>2025-04-26T08:28:21Z</time>
      </trkpt>
      <trkpt lat="45.2545" lon="-1.14747">
        <ele>69</ele>
        <time>2025-04-26T08:28:22Z</time>
      </trkpt>
      <trkpt lat="45.25454" lon="-1.14745">
        <ele>69</ele>
        <time>2025-04-26T08:28:23Z</time>
      </trkpt>
      <trkpt lat="45.25458" lon="-1.14744">
        <ele>69</ele>
        <time>2025-04-26T08:28:24Z</time>
      </trkpt>
      <trkpt lat="45.25462" lon="-1.14743">
        <ele>69</ele>
        <time>2025-04-26T08:28:25Z</time>
      </trkpt>
      <trkpt lat="45.25466" lon="-1.14741">
        <ele>69</ele>
        <time>2025-04-26T08:28:26Z</time>
      </trkpt>
      <trkpt lat="45.25469" lon="-1.1474">
        <ele>69</ele>
        <time>2025-04-26T08:28:27Z</time>
      </trkpt>
      <trkpt lat="45.25473" lon="-1.14738">
        <ele>69</ele>
        <time>2025-04-26T08:28:28Z</time>
      </trkpt>
      <trkpt lat="45.25477" lon="-1.14737">
        <ele>69</ele>
        <time>2025-04-26T08:28:29Z</time>
      </trkpt>
      <trkpt lat="45.25481" lon="-1.14736">
        <ele>70</ele>
        <time>2025-04-26T08:28:30Z</time>
      </trkpt>
      <trkpt lat="45.25485" lon="-1.14734">
        <ele>69</ele>
        <time>2025-04-26T08:28:31Z</time>
      </trkpt>
      <trkpt lat="45.25489" lon="-1.14733">
        <ele>69</ele>
        <time>2025-04-26T08:28:32Z</time>
      </trkpt>
      <trkpt lat="45.25493" lon="-1.14731">
        <ele>69</ele>
        <time>2025-04-26T08:28:33Z</time>
      </trkpt>
      <trkpt lat="45.25496" lon="-1.1473">
        <ele>69</ele>
        <time>2025-04-26T08:28:34Z</time>
      </trkpt>
      <trkpt lat="45.25501" lon="-1.14729">
        <ele>70</ele>
        <time>2025-04-26T08:28:35Z</time>
      </trkpt>
      <trkpt lat="45.25505" lon="-1.14727">
        <ele>69</ele>
        <time>2025-04-26T08:28:36Z</time>
      </trkpt>
      <trkpt lat="45.25509" lon="-1.14726">
        <ele>70</ele>
        <time>2025-04-26T08:28:37Z</time>
      </trkpt>
      <trkpt lat="45.25513" lon="-1.14725">
        <ele>70</ele>
        <time>2025-04-26T08:28:38Z</time>
      </trkpt>
      <trkpt lat="45.25517" lon="-1.14723">
        <ele>70</ele>
        <time>2025-04-26T08:28:39Z</time>
      </trkpt>
      <trkpt lat="45.25521" lon="-1.14722">
        <ele>69</ele>
        <time>2025-04-26T08:28:40Z</time>
      </trkpt>
      <trkpt lat="45.25525" lon="-1.14721">
        <ele>69</ele>
        <time>2025-04-26T08:28:41Z</time>
      </trkpt>
      <trkpt lat="45.25529" lon="-1.14719">
        <ele>69</ele>
        <time>2025-04-26T08:28:42Z</time>
      </trkpt>
      <trkpt lat="45.25533" lon="-1.14717">
        <ele>69</ele>
        <time>2025-04-26T08:28:43Z</time>
      </trkpt>
      <trkpt lat="45.25537" lon="-1.14716">
        <ele>69</ele>
        <time>2025-04-26T08:28:44Z</time>
      </trkpt>
      <trkpt lat="45.25541" lon="-1.14714">
        <ele>69</ele>
        <time>2025-04-26T08:28:45Z</time>
      </trkpt>
      <trkpt lat="45.25545" lon="-1.14713">
        <ele>69</ele>
        <time>2025-04-26T08:28:46Z</time>
      </trkpt>
      <trkpt lat="45.25549" lon="-1.14711">
        <ele>69</ele>
        <time>2025-04-26T08:28:47Z</time>
      </trkpt>
      <trkpt lat="45.25553" lon="-1.1471">
        <ele>69</ele>
        <time>2025-04-26T08:28:48Z</time>
      </trkpt>
      <trkpt lat="45.25558" lon="-1.14709">
        <ele>69</ele>
        <time>2025-04-26T08:28:49Z</time>
      </trkpt>
      <trkpt lat="45.25562" lon="-1.14707">
        <ele>69</ele>
        <time>2025-04-26T08:28:50Z</time>
      </trkpt>
      <trkpt lat="45.25566" lon="-1.14705">
        <ele>70</ele>
        <time>2025-04-26T08:28:51Z</time>
      </trkpt>
      <trkpt lat="45.2557" lon="-1.14704">
        <ele>70</ele>
        <time>2025-04-26T08:28:52Z</time>
      </trkpt>
      <trkpt lat="45.25574" lon="-1.14703">
        <ele>71</ele>
        <time>2025-04-26T08:28:53Z</time>
      </trkpt>
      <trkpt lat="45.25578" lon="-1.14701">
        <ele>71</ele>
        <time>2025-04-26T08:28:54Z</time>
      </trkpt>
      <trkpt lat="45.25583" lon="-1.14699">
        <ele>71</ele>
        <time>2025-04-26T08:28:55Z</time>
      </trkpt>
      <trkpt lat="45.25587" lon="-1.14698">
        <ele>71</ele>
        <time>2025-04-26T08:28:56Z</time>
      </trkpt>
      <trkpt lat="45.25591" lon="-1.14697">
        <ele>72</ele>
        <time>2025-04-26T08:28:57Z</time>
      </trkpt>
      <trkpt lat="45.25596" lon="-1.14695">
        <ele>72</ele>
        <time>2025-04-26T08:28:58Z</time>
      </trkpt>
      <trkpt lat="45.25599" lon="-1.14694">
        <ele>72</ele>
        <time>2025-04-26T08:28:59Z</time>
      </trkpt>
      <trkpt lat="45.25603" lon="-1.14693">
        <ele>72</ele>
        <time>2025-04-26T08:29:00Z</time>
      </trkpt>
      <trkpt lat="45.25607" lon="-1.14691">
        <ele>72</ele>
        <time>2025-04-26T08:29:01Z</time>
      </trkpt>
      <trkpt lat="45.25611" lon="-1.14689">
        <ele>73</ele>
        <time>2025-04-26T08:29:02Z</time>
      </trkpt>
      <trkpt lat="45.25615" lon="-1.14688">
        <ele>73</ele>
        <time>2025-04-26T08:29:03Z</time>
      </trkpt>
      <trkpt lat="45.25619" lon="-1.14687">
        <ele>73</ele>
        <time>2025-04-26T08:29:04Z</time>
      </trkpt>
      <trkpt lat="45.25623" lon="-1.14685">
        <ele>73</ele>
        <time>2025-04-26T08:29:05Z</time>
      </trkpt>
      <trkpt lat="45.25627" lon="-1.14684">
        <ele>73</ele>
        <time>2025-04-26T08:29:06Z</time>
      </trkpt>
      <trkpt lat="45.25631" lon="-1.14683">
        <ele>72</ele>
        <time>2025-04-26T08:29:07Z</time>
      </trkpt>
      <trkpt lat="45.25634" lon="-1.14682">
        <ele>73</ele>
        <time>2025-04-26T08:29:08Z</time>
      </trkpt>
      <trkpt lat="45.25638" lon="-1.1468">
        <ele>73</ele>
        <time>2025-04-26T08:29:09Z</time>
      </trkpt>
      <trkpt lat="45.25642" lon="-1.14679">
        <ele>73</ele>
        <time>2025-04-26T08:29:10Z</time>
      </trkpt>
      <trkpt lat="45.25646" lon="-1.14677">
        <ele>73</ele>
        <time>2025-04-26T08:29:11Z</time>
      </trkpt>
      <trkpt lat="45.2565" lon="-1.14676">
        <ele>73</ele>
        <time>2025-04-26T08:29:12Z</time>
      </trkpt>
      <trkpt lat="45.25654" lon="-1.14675">
        <ele>73</ele>
        <time>2025-04-26T08:29:13Z</time>
      </trkpt>
      <trkpt lat="45.25658" lon="-1.14673">
        <ele>73</ele>
        <time>2025-04-26T08:29:14Z</time>
      </trkpt>
      <trkpt lat="45.25661" lon="-1.14672">
        <ele>73</ele>
        <time>2025-04-26T08:29:15Z</time>
      </trkpt>
      <trkpt lat="45.25665" lon="-1.14671">
        <ele>73</ele>
        <time>2025-04-26T08:29:16Z</time>
      </trkpt>
      <trkpt lat="45.25669" lon="-1.1467">
        <ele>73</ele>
        <time>2025-04-26T08:29:17Z</time>
      </trkpt>
      <trkpt lat="45.25672" lon="-1.14669">
        <ele>73</ele>
        <time>2025-04-26T08:29:18Z</time>
      </trkpt>
      <trkpt lat="45.25676" lon="-1.14668">
        <ele>73</ele>
        <time>2025-04-26T08:29:19Z</time>
      </trkpt>
      <trkpt lat="45.25681" lon="-1.14666">
        <ele>73</ele>
        <time>2025-04-26T08:29:20Z</time>
      </trkpt>
      <trkpt lat="45.25685" lon="-1.14665">
        <ele>73</ele>
        <time>2025-04-26T08:29:21Z</time>
      </trkpt>
      <trkpt lat="45.25689" lon="-1.14663">
        <ele>72</ele>
        <time>2025-04-26T08:29:22Z</time>
      </trkpt>
      <trkpt lat="45.25693" lon="-1.14662">
        <ele>73</ele>
        <time>2025-04-26T08:29:23Z</time>
      </trkpt>
      <trkpt lat="45.25697" lon="-1.14661">
        <ele>73</ele>
        <time>2025-04-26T08:29:24Z</time>
      </trkpt>
      <trkpt lat="45.25701" lon="-1.14659">
        <ele>73</ele>
        <time>2025-04-26T08:29:25Z</time>
      </trkpt>
      <trkpt lat="45.25705" lon="-1.14658">
        <ele>73</ele>
        <time>2025-04-26T08:29:26Z</time>
      </trkpt>
      <trkpt lat="45.25709" lon="-1.14656">
        <ele>73</ele>
        <time>2025-04-26T08:29:27Z</time>
      </trkpt>
      <trkpt lat="45.25713" lon="-1.14655">
        <ele>73</ele>
        <time>2025-04-26T08:29:28Z</time>
      </trkpt>
      <trkpt lat="45.25717" lon="-1.14654">
        <ele>73</ele>
        <time>2025-04-26T08:29:29Z</time>
      </trkpt>
      <trkpt lat="45.25721" lon="-1.14653">
        <ele>73</ele>
        <time>2025-04-26T08:29:30Z</time>
      </trkpt>
      <trkpt lat="45.25725" lon="-1.14652">
        <ele>72</ele>
        <time>2025-04-26T08:29:31Z</time>
      </trkpt>
      <trkpt lat="45.25729" lon="-1.14651">
        <ele>72</ele>
        <time>2025-04-26T08:29:32Z</time>
      </trkpt>
      <trkpt lat="45.25732" lon="-1.1465">
        <ele>72</ele>
        <time>2025-04-26T08:29:33Z</time>
      </trkpt>
      <trkpt lat="45.25736" lon="-1.14649">
        <ele>72</ele>
        <time>2025-04-26T08:29:34Z</time>
      </trkpt>
      <trkpt lat="45.2574" lon="-1.14647">
        <ele>72</ele>
        <time>2025-04-26T08:29:35Z</time>
      </trkpt>
      <trkpt lat="45.25744" lon="-1.14646">
        <ele>72</ele>
        <time>2025-04-26T08:29:36Z</time>
      </trkpt>
      <trkpt lat="45.25747" lon="-1.14644">
        <ele>72</ele>
        <time>2025-04-26T08:29:37Z</time>
      </trkpt>
      <trkpt lat="45.25751" lon="-1.14643">
        <ele>72</ele>
        <time>2025-04-26T08:29:38Z</time>
      </trkpt>
      <trkpt lat="45.25754" lon="-1.14641">
        <ele>72</ele>
        <time>2025-04-26T08:29:39Z</time>
      </trkpt>
      <trkpt lat="45.25758" lon="-1.1464">
        <ele>72</ele>
        <time>2025-04-26T08:29:40Z</time>
      </trkpt>
      <trkpt lat="45.25762" lon="-1.14638">
        <ele>73</ele>
        <time>2025-04-26T08:29:41Z</time>
      </trkpt>
      <trkpt lat="45.25766" lon="-1.14636">
        <ele>73</ele>
        <time>2025-04-26T08:29:42Z</time>
      </trkpt>
      <trkpt lat="45.2577" lon="-1.14635">
        <ele>73</ele>
        <time>2025-04-26T08:29:43Z</time>
      </trkpt>
      <trkpt lat="45.25774" lon="-1.14634">
        <ele>74</ele>
        <time>2025-04-26T08:29:44Z</time>
      </trkpt>
      <trkpt lat="45.25778" lon="-1.14633">
        <ele>74</ele>
        <time>2025-04-26T08:29:45Z</time>
      </trkpt>
      <trkpt lat="45.25781" lon="-1.14632">
        <ele>74</ele>
        <time>2025-04-26T08:29:46Z</time>
      </trkpt>
      <trkpt lat="45.25785" lon="-1.14631">
        <ele>74</ele>
        <time>2025-04-26T08:29:47Z</time>
      </trkpt>
      <trkpt lat="45.25789" lon="-1.14629">
        <ele>74</ele>
        <time>2025-04-26T08:29:48Z</time>
      </trkpt>
      <trkpt lat="45.25793" lon="-1.14628">
        <ele>74</ele>
        <time>2025-04-26T08:29:49Z</time>
      </trkpt>
      <trkpt lat="45.25797" lon="-1.14627">
        <ele>74</ele>
        <time>2025-04-26T08:29:50Z</time>
      </trkpt>
      <trkpt lat="45.25801" lon="-1.14625">
        <ele>74</ele>
        <time>2025-04-26T08:29:51Z</time>
      </trkpt>
      <trkpt lat="45.25805" lon="-1.14624">
        <ele>74</ele>
        <time>2025-04-26T08:29:52Z</time>
      </trkpt>
      <trkpt lat="45.2581" lon="-1.14622">
        <ele>74</ele>
        <time>2025-04-26T08:29:53Z</time>
      </trkpt>
      <trkpt lat="45.25813" lon="-1.14621">
        <ele>74</ele>
        <time>2025-04-26T08:29:54Z</time>
      </trkpt>
      <trkpt lat="45.25817" lon="-1.1462">
        <ele>74</ele>
        <time>2025-04-26T08:29:55Z</time>
      </trkpt>
      <trkpt lat="45.25821" lon="-1.14618">
        <ele>74</ele>
        <time>2025-04-26T08:29:56Z</time>
      </trkpt>
      <trkpt lat="45.25825" lon="-1.14617">
        <ele>74</ele>
        <time>2025-04-26T08:29:57Z</time>
      </trkpt>
      <trkpt lat="45.25829" lon="-1.14616">
        <ele>74</ele>
        <time>2025-04-26T08:29:58Z</time>
      </trkpt>
      <trkpt lat="45.25833" lon="-1.14615">
        <ele>74</ele>
        <time>2025-04-26T08:29:59Z</time>
      </trkpt>
      <trkpt lat="45.25837" lon="-1.14613">
        <ele>74</ele>
        <time>2025-04-26T08:30:00Z</time>
      </trkpt>
      <trkpt lat="45.25841" lon="-1.14612">
        <ele>74</ele>
        <time>2025-04-26T08:30:01Z</time>
      </trkpt>
      <trkpt lat="45.25846" lon="-1.14611">
        <ele>73</ele>
        <time>2025-04-26T08:30:02Z</time>
      </trkpt>
      <trkpt lat="45.2585" lon="-1.14609">
        <ele>73</ele>
        <time>2025-04-26T08:30:03Z</time>
      </trkpt>
      <trkpt lat="45.25854" lon="-1.14608">
        <ele>73</ele>
        <time>2025-04-26T08:30:04Z</time>
      </trkpt>
      <trkpt lat="45.25858" lon="-1.14607">
        <ele>73</ele>
        <time>2025-04-26T08:30:05Z</time>
      </trkpt>
      <trkpt lat="45.25862" lon="-1.14605">
        <ele>73</ele>
        <time>2025-04-26T08:30:06Z</time>
      </trkpt>
      <trkpt lat="45.25866" lon="-1.14604">
        <ele>73</ele>
        <time>2025-04-26T08:30:07Z</time>
      </trkpt>
      <trkpt lat="45.2587" lon="-1.14602">
        <ele>73</ele>
        <time>2025-04-26T08:30:08Z</time>
      </trkpt>
      <trkpt lat="45.25874" lon="-1.14601">
        <ele>73</ele>
        <time>2025-04-26T08:30:09Z</time>
      </trkpt>
      <trkpt lat="45.25878" lon="-1.146">
        <ele>73</ele>
        <time>2025-04-26T08:30:10Z</time>
      </trkpt>
      <trkpt lat="45.25882" lon="-1.14599">
        <ele>73</ele>
        <time>2025-04-26T08:30:11Z</time>
      </trkpt>
      <trkpt lat="45.25886" lon="-1.14597">
        <ele>72</ele>
        <time>2025-04-26T08:30:12Z</time>
      </trkpt>
      <trkpt lat="45.2589" lon="-1.14596">
        <ele>72</ele>
        <time>2025-04-26T08:30:13Z</time>
      </trkpt>
      <trkpt lat="45.25894" lon="-1.14594">
        <ele>72</ele>
        <time>2025-04-26T08:30:14Z</time>
      </trkpt>
      <trkpt lat="45.25898" lon="-1.14594">
        <ele>72</ele>
        <time>2025-04-26T08:30:15Z</time>
      </trkpt>
      <trkpt lat="45.25903" lon="-1.14593">
        <ele>72</ele>
        <time>2025-04-26T08:30:16Z</time>
      </trkpt>
      <trkpt lat="45.25906" lon="-1.14591">
        <ele>72</ele>
        <time>2025-04-26T08:30:17Z</time>
      </trkpt>
      <trkpt lat="45.2591" lon="-1.14589">
        <ele>72</ele>
        <time>2025-04-26T08:30:18Z</time>
      </trkpt>
      <trkpt lat="45.25914" lon="-1.14588">
        <ele>72</ele>
        <time>2025-04-26T08:30:19Z</time>
      </trkpt>
      <trkpt lat="45.25918" lon="-1.14586">
        <ele>72</ele>
        <time>2025-04-26T08:30:20Z</time>
      </trkpt>
      <trkpt lat="45.25922" lon="-1.14585">
        <ele>73</ele>
        <time>2025-04-26T08:30:21Z</time>
      </trkpt>
      <trkpt lat="45.25926" lon="-1.14583">
        <ele>73</ele>
        <time>2025-04-26T08:30:22Z</time>
      </trkpt>
      <trkpt lat="45.2593" lon="-1.14582">
        <ele>73</ele>
        <time>2025-04-26T08:30:23Z</time>
      </trkpt>
      <trkpt lat="45.25935" lon="-1.1458">
        <ele>73</ele>
        <time>2025-04-26T08:30:24Z</time>
      </trkpt>
      <trkpt lat="45.25939" lon="-1.14579">
        <ele>73</ele>
        <time>2025-04-26T08:30:25Z</time>
      </trkpt>
      <trkpt lat="45.25943" lon="-1.14577">
        <ele>73</ele>
        <time>2025-04-26T08:30:26Z</time>
      </trkpt>
      <trkpt lat="45.25947" lon="-1.14576">
        <ele>73</ele>
        <time>2025-04-26T08:30:27Z</time>
      </trkpt>
      <trkpt lat="45.25951" lon="-1.14574">
        <ele>74</ele>
        <time>2025-04-26T08:30:28Z</time>
      </trkpt>
      <trkpt lat="45.25955" lon="-1.14573">
        <ele>73</ele>
        <time>2025-04-26T08:30:29Z</time>
      </trkpt>
      <trkpt lat="45.25959" lon="-1.14571">
        <ele>73</ele>
        <time>2025-04-26T08:30:30Z</time>
      </trkpt>
      <trkpt lat="45.25963" lon="-1.1457">
        <ele>73</ele>
        <time>2025-04-26T08:30:31Z</time>
      </trkpt>
      <trkpt lat="45.25967" lon="-1.14568">
        <ele>74</ele>
        <time>2025-04-26T08:30:32Z</time>
      </trkpt>
      <trkpt lat="45.25971" lon="-1.14567">
        <ele>73</ele>
        <time>2025-04-26T08:30:33Z</time>
      </trkpt>
      <trkpt lat="45.25975" lon="-1.14565">
        <ele>73</ele>
        <time>2025-04-26T08:30:34Z</time>
      </trkpt>
      <trkpt lat="45.25979" lon="-1.14564">
        <ele>73</ele>
        <time>2025-04-26T08:30:35Z</time>
      </trkpt>
      <trkpt lat="45.25984" lon="-1.14562">
        <ele>74</ele>
        <time>2025-04-26T08:30:36Z</time>
      </trkpt>
      <trkpt lat="45.25988" lon="-1.14561">
        <ele>74</ele>
        <time>2025-04-26T08:30:37Z</time>
      </trkpt>
      <trkpt lat="45.25992" lon="-1.1456">
        <ele>74</ele>
        <time>2025-04-26T08:30:38Z</time>
      </trkpt>
      <trkpt lat="45.25997" lon="-1.14559">
        <ele>74</ele>
        <time>2025-04-26T08:30:39Z</time>
      </trkpt>
      <trkpt lat="45.26001" lon="-1.14557">
        <ele>74</ele>
        <time>2025-04-26T08:30:40Z</time>
      </trkpt>
      <trkpt lat="45.26006" lon="-1.14556">
        <ele>74</ele>
        <time>2025-04-26T08:30:41Z</time>
      </trkpt>
      <trkpt lat="45.26011" lon="-1.14554">
        <ele>74</ele>
        <time>2025-04-26T08:30:42Z</time>
      </trkpt>
      <trkpt lat="45.26015" lon="-1.14552">
        <ele>73</ele>
        <time>2025-04-26T08:30:43Z</time>
      </trkpt>
      <trkpt lat="45.2602" lon="-1.14551">
        <ele>73</ele>
        <time>2025-04-26T08:30:44Z</time>
      </trkpt>
      <trkpt lat="45.26025" lon="-1.1455">
        <ele>73</ele>
        <time>2025-04-26T08:30:45Z</time>
      </trkpt>
      <trkpt lat="45.2603" lon="-1.14548">
        <ele>73</ele>
        <time>2025-04-26T08:30:46Z</time>
      </trkpt>
      <trkpt lat="45.26035" lon="-1.14546">
        <ele>72</ele>
        <time>2025-04-26T08:30:47Z</time>
      </trkpt>
      <trkpt lat="45.2604" lon="-1.14544">
        <ele>72</ele>
        <time>2025-04-26T08:30:48Z</time>
      </trkpt>
      <trkpt lat="45.26045" lon="-1.14543">
        <ele>72</ele>
        <time>2025-04-26T08:30:49Z</time>
      </trkpt>
      <trkpt lat="45.2605" lon="-1.14541">
        <ele>72</ele>
        <time>2025-04-26T08:30:50Z</time>
      </trkpt>
      <trkpt lat="45.26055" lon="-1.14539">
        <ele>72</ele>
        <time>2025-04-26T08:30:51Z</time>
      </trkpt>
      <trkpt lat="45.2606" lon="-1.14537">
        <ele>72</ele>
        <time>2025-04-26T08:30:52Z</time>
      </trkpt>
      <trkpt lat="45.26065" lon="-1.14535">
        <ele>73</ele>
        <time>2025-04-26T08:30:53Z</time>
      </trkpt>
      <trkpt lat="45.2607" lon="-1.14534">
        <ele>73</ele>
        <time>2025-04-26T08:30:54Z</time>
      </trkpt>
      <trkpt lat="45.26075" lon="-1.14532">
        <ele>73</ele>
        <time>2025-04-26T08:30:55Z</time>
      </trkpt>
      <trkpt lat="45.2608" lon="-1.14531">
        <ele>73</ele>
        <time>2025-04-26T08:30:56Z</time>
      </trkpt>
      <trkpt lat="45.26085" lon="-1.14529">
        <ele>73</ele>
        <time>2025-04-26T08:30:57Z</time>
      </trkpt>
      <trkpt lat="45.2609" lon="-1.14527">
        <ele>74</ele>
        <time>2025-04-26T08:30:58Z</time>
      </trkpt>
      <trkpt lat="45.26095" lon="-1.14525">
        <ele>74</ele>
        <time>2025-04-26T08:30:59Z</time>
      </trkpt>
      <trkpt lat="45.26101" lon="-1.14523">
        <ele>74</ele>
        <time>2025-04-26T08:31:00Z</time>
      </trkpt>
      <trkpt lat="45.26106" lon="-1.14521">
        <ele>75</ele>
        <time>2025-04-26T08:31:01Z</time>
      </trkpt>
      <trkpt lat="45.26111" lon="-1.1452">
        <ele>75</ele>
        <time>2025-04-26T08:31:02Z</time>
      </trkpt>
      <trkpt lat="45.26116" lon="-1.14519">
        <ele>76</ele>
        <time>2025-04-26T08:31:03Z</time>
      </trkpt>
      <trkpt lat="45.26121" lon="-1.14517">
        <ele>76</ele>
        <time>2025-04-26T08:31:04Z</time>
      </trkpt>
      <trkpt lat="45.26126" lon="-1.14515">
        <ele>75</ele>
        <time>2025-04-26T08:31:05Z</time>
      </trkpt>
      <trkpt lat="45.26131" lon="-1.14513">
        <ele>75</ele>
        <time>2025-04-26T08:31:06Z</time>
      </trkpt>
      <trkpt lat="45.26137" lon="-1.14511">
        <ele>75</ele>
        <time>2025-04-26T08:31:07Z</time>
      </trkpt>
      <trkpt lat="45.26142" lon="-1.1451">
        <ele>75</ele>
        <time>2025-04-26T08:31:08Z</time>
      </trkpt>
      <trkpt lat="45.26147" lon="-1.14508">
        <ele>74</ele>
        <time>2025-04-26T08:31:09Z</time>
      </trkpt>
      <trkpt lat="45.26152" lon="-1.14507">
        <ele>74</ele>
        <time>2025-04-26T08:31:10Z</time>
      </trkpt>
      <trkpt lat="45.26158" lon="-1.14505">
        <ele>74</ele>
        <time>2025-04-26T08:31:11Z</time>
      </trkpt>
      <trkpt lat="45.26163" lon="-1.14504">
        <ele>74</ele>
        <time>2025-04-26T08:31:12Z</time>
      </trkpt>
      <trkpt lat="45.26168" lon="-1.14502">
        <ele>74</ele>
        <time>2025-04-26T08:31:13Z</time>
      </trkpt>
      <trkpt lat="45.26174" lon="-1.145">
        <ele>74</ele>
        <time>2025-04-26T08:31:14Z</time>
      </trkpt>
      <trkpt lat="45.26179" lon="-1.14498">
        <ele>75</ele>
        <time>2025-04-26T08:31:15Z</time>
      </trkpt>
      <trkpt lat="45.26184" lon="-1.14496">
        <ele>75</ele>
        <time>2025-04-26T08:31:16Z</time>
      </trkpt>
      <trkpt lat="45.26189" lon="-1.14494">
        <ele>74</ele>
        <time>2025-04-26T08:31:17Z</time>
      </trkpt>
      <trkpt lat="45.26194" lon="-1.14493">
        <ele>74</ele>
        <time>2025-04-26T08:31:18Z</time>
      </trkpt>
      <trkpt lat="45.26198" lon="-1.14491">
        <ele>74</ele>
        <time>2025-04-26T08:31:19Z</time>
      </trkpt>
      <trkpt lat="45.26202" lon="-1.1449">
        <ele>74</ele>
        <time>2025-04-26T08:31:20Z</time>
      </trkpt>
      <trkpt lat="45.26207" lon="-1.14488">
        <ele>74</ele>
        <time>2025-04-26T08:31:21Z</time>
      </trkpt>
      <trkpt lat="45.26212" lon="-1.14486">
        <ele>74</ele>
        <time>2025-04-26T08:31:22Z</time>
      </trkpt>
      <trkpt lat="45.26217" lon="-1.14485">
        <ele>74</ele>
        <time>2025-04-26T08:31:23Z</time>
      </trkpt>
      <trkpt lat="45.26221" lon="-1.14483">
        <ele>74</ele>
        <time>2025-04-26T08:31:24Z</time>
      </trkpt>
      <trkpt lat="45.26226" lon="-1.14482">
        <ele>74</ele>
        <time>2025-04-26T08:31:25Z</time>
      </trkpt>
      <trkpt lat="45.26231" lon="-1.1448">
        <ele>74</ele>
        <time>2025-04-26T08:31:26Z</time>
      </trkpt>
      <trkpt lat="45.26237" lon="-1.14479">
        <ele>75</ele>
        <time>2025-04-26T08:31:27Z</time>
      </trkpt>
      <trkpt lat="45.26241" lon="-1.14477">
        <ele>75</ele>
        <time>2025-04-26T08:31:28Z</time>
      </trkpt>
      <trkpt lat="45.26246" lon="-1.14475">
        <ele>75</ele>
        <time>2025-04-26T08:31:29Z</time>
      </trkpt>
      <trkpt lat="45.2625" lon="-1.14474">
        <ele>75</ele>
        <time>2025-04-26T08:31:30Z</time>
      </trkpt>
      <trkpt lat="45.26254" lon="-1.14473">
        <ele>75</ele>
        <time>2025-04-26T08:31:31Z</time>
      </trkpt>
      <trkpt lat="45.26258" lon="-1.14471">
        <ele>75</ele>
        <time>2025-04-26T08:31:32Z</time>
      </trkpt>
      <trkpt lat="45.26262" lon="-1.1447">
        <ele>75</ele>
        <time>2025-04-26T08:31:33Z</time>
      </trkpt>
      <trkpt lat="45.26266" lon="-1.14468">
        <ele>76</ele>
        <time>2025-04-26T08:31:34Z</time>
      </trkpt>
      <trkpt lat="45.26271" lon="-1.14467">
        <ele>76</ele>
        <time>2025-04-26T08:31:35Z</time>
      </trkpt>
      <trkpt lat="45.26275" lon="-1.14466">
        <ele>75</ele>
        <time>2025-04-26T08:31:36Z</time>
      </trkpt>
      <trkpt lat="45.26279" lon="-1.14465">
        <ele>76</ele>
        <time>2025-04-26T08:31:37Z</time>
      </trkpt>
      <trkpt lat="45.26283" lon="-1.14463">
        <ele>76</ele>
        <time>2025-04-26T08:31:38Z</time>
      </trkpt>
      <trkpt lat="45.26287" lon="-1.14462">
        <ele>76</ele>
        <time>2025-04-26T08:31:39Z</time>
      </trkpt>
      <trkpt lat="45.26291" lon="-1.1446">
        <ele>76</ele>
        <time>2025-04-26T08:31:40Z</time>
      </trkpt>
      <trkpt lat="45.26295" lon="-1.14458">
        <ele>76</ele>
        <time>2025-04-26T08:31:41Z</time>
      </trkpt>
      <trkpt lat="45.26299" lon="-1.14457">
        <ele>77</ele>
        <time>2025-04-26T08:31:42Z</time>
      </trkpt>
      <trkpt lat="45.26304" lon="-1.14455">
        <ele>77</ele>
        <time>2025-04-26T08:31:43Z</time>
      </trkpt>
      <trkpt lat="45.26308" lon="-1.14454">
        <ele>77</ele>
        <time>2025-04-26T08:31:44Z</time>
      </trkpt>
      <trkpt lat="45.26312" lon="-1.14452">
        <ele>77</ele>
        <time>2025-04-26T08:31:45Z</time>
      </trkpt>
      <trkpt lat="45.26317" lon="-1.1445">
        <ele>77</ele>
        <time>2025-04-26T08:31:46Z</time>
      </trkpt>
      <trkpt lat="45.26321" lon="-1.14449">
        <ele>77</ele>
        <time>2025-04-26T08:31:47Z</time>
      </trkpt>
      <trkpt lat="45.26326" lon="-1.14447">
        <ele>76</ele>
        <time>2025-04-26T08:31:48Z</time>
      </trkpt>
      <trkpt lat="45.2633" lon="-1.14446">
        <ele>75</ele>
        <time>2025-04-26T08:31:49Z</time>
      </trkpt>
      <trkpt lat="45.26334" lon="-1.14444">
        <ele>75</ele>
        <time>2025-04-26T08:31:50Z</time>
      </trkpt>
      <trkpt lat="45.26338" lon="-1.14442">
        <ele>75</ele>
        <time>2025-04-26T08:31:51Z</time>
      </trkpt>
      <trkpt lat="45.26343" lon="-1.14441">
        <ele>75</ele>
        <time>2025-04-26T08:31:52Z</time>
      </trkpt>
      <trkpt lat="45.26347" lon="-1.1444">
        <ele>75</ele>
        <time>2025-04-26T08:31:53Z</time>
      </trkpt>
      <trkpt lat="45.26352" lon="-1.14438">
        <ele>75</ele>
        <time>2025-04-26T08:31:54Z</time>
      </trkpt>
      <trkpt lat="45.26356" lon="-1.14436">
        <ele>75</ele>
        <time>2025-04-26T08:31:55Z</time>
      </trkpt>
      <trkpt lat="45.26359" lon="-1.14435">
        <ele>76</ele>
        <time>2025-04-26T08:31:56Z</time>
      </trkpt>
      <trkpt lat="45.26364" lon="-1.14433">
        <ele>76</ele>
        <time>2025-04-26T08:31:57Z</time>
      </trkpt>
      <trkpt lat="45.26369" lon="-1.14432">
        <ele>76</ele>
        <time>2025-04-26T08:31:58Z</time>
      </trkpt>
      <trkpt lat="45.26373" lon="-1.1443">
        <ele>76</ele>
        <time>2025-04-26T08:31:59Z</time>
      </trkpt>
      <trkpt lat="45.26378" lon="-1.14429">
        <ele>76</ele>
        <time>2025-04-26T08:32:00Z</time>
      </trkpt>
      <trkpt lat="45.26382" lon="-1.14427">
        <ele>76</ele>
        <time>2025-04-26T08:32:01Z</time>
      </trkpt>
      <trkpt lat="45.26386" lon="-1.14426">
        <ele>76</ele>
        <time>2025-04-26T08:32:02Z</time>
      </trkpt>
      <trkpt lat="45.26391" lon="-1.14425">
        <ele>76</ele>
        <time>2025-04-26T08:32:03Z</time>
      </trkpt>
      <trkpt lat="45.26395" lon="-1.14424">
        <ele>75</ele>
        <time>2025-04-26T08:32:04Z</time>
      </trkpt>
      <trkpt lat="45.26399" lon="-1.14423">
        <ele>75</ele>
        <time>2025-04-26T08:32:05Z</time>
      </trkpt>
      <trkpt lat="45.26403" lon="-1.14421">
        <ele>75</ele>
        <time>2025-04-26T08:32:06Z</time>
      </trkpt>
      <trkpt lat="45.26407" lon="-1.1442">
        <ele>75</ele>
        <time>2025-04-26T08:32:07Z</time>
      </trkpt>
      <trkpt lat="45.26411" lon="-1.14418">
        <ele>75</ele>
        <time>2025-04-26T08:32:08Z</time>
      </trkpt>
      <trkpt lat="45.26416" lon="-1.14417">
        <ele>75</ele>
        <time>2025-04-26T08:32:09Z</time>
      </trkpt>
      <trkpt lat="45.2642" lon="-1.14415">
        <ele>75</ele>
        <time>2025-04-26T08:32:10Z</time>
      </trkpt>
      <trkpt lat="45.26424" lon="-1.14414">
        <ele>74</ele>
        <time>2025-04-26T08:32:11Z</time>
      </trkpt>
      <trkpt lat="45.26429" lon="-1.14413">
        <ele>74</ele>
        <time>2025-04-26T08:32:12Z</time>
      </trkpt>
      <trkpt lat="45.26433" lon="-1.14411">
        <ele>74</ele>
        <time>2025-04-26T08:32:13Z</time>
      </trkpt>
      <trkpt lat="45.26438" lon="-1.1441">
        <ele>75</ele>
        <time>2025-04-26T08:32:14Z</time>
      </trkpt>
      <trkpt lat="45.26442" lon="-1.14408">
        <ele>75</ele>
        <time>2025-04-26T08:32:15Z</time>
      </trkpt>
      <trkpt lat="45.26446" lon="-1.14407">
        <ele>75</ele>
        <time>2025-04-26T08:32:16Z</time>
      </trkpt>
      <trkpt lat="45.2645" lon="-1.14406">
        <ele>75</ele>
        <time>2025-04-26T08:32:17Z</time>
      </trkpt>
      <trkpt lat="45.26454" lon="-1.14404">
        <ele>74</ele>
        <time>2025-04-26T08:32:18Z</time>
      </trkpt>
      <trkpt lat="45.26458" lon="-1.14403">
        <ele>74</ele>
        <time>2025-04-26T08:32:19Z</time>
      </trkpt>
      <trkpt lat="45.26462" lon="-1.14401">
        <ele>74</ele>
        <time>2025-04-26T08:32:20Z</time>
      </trkpt>
      <trkpt lat="45.26466" lon="-1.14399">
        <ele>74</ele>
        <time>2025-04-26T08:32:21Z</time>
      </trkpt>
      <trkpt lat="45.26469" lon="-1.14398">
        <ele>74</ele>
        <time>2025-04-26T08:32:22Z</time>
      </trkpt>
      <trkpt lat="45.26472" lon="-1.14396">
        <ele>75</ele>
        <time>2025-04-26T08:32:23Z</time>
      </trkpt>
      <trkpt lat="45.26476" lon="-1.14395">
        <ele>75</ele>
        <time>2025-04-26T08:32:24Z</time>
      </trkpt>
      <trkpt lat="45.26479" lon="-1.14394">
        <ele>75</ele>
        <time>2025-04-26T08:32:25Z</time>
      </trkpt>
      <trkpt lat="45.26483" lon="-1.14393">
        <ele>75</ele>
        <time>2025-04-26T08:32:26Z</time>
      </trkpt>
      <trkpt lat="45.26486" lon="-1.14392">
        <ele>75</ele>
        <time>2025-04-26T08:32:27Z</time>
      </trkpt>
      <trkpt lat="45.26489" lon="-1.14391">
        <ele>75</ele>
        <time>2025-04-26T08:32:28Z</time>
      </trkpt>
      <trkpt lat="45.26492" lon="-1.1439">
        <ele>75</ele>
        <time>2025-04-26T08:32:29Z</time>
      </trkpt>
      <trkpt lat="45.26495" lon="-1.14389">
        <ele>74</ele>
        <time>2025-04-26T08:32:30Z</time>
      </trkpt>
      <trkpt lat="45.26497" lon="-1.14388">
        <ele>73</ele>
        <time>2025-04-26T08:32:31Z</time>
      </trkpt>
      <trkpt lat="45.265" lon="-1.14387">
        <ele>73</ele>
        <time>2025-04-26T08:32:32Z</time>
      </trkpt>
      <trkpt lat="45.26503" lon="-1.14387">
        <ele>73</ele>
        <time>2025-04-26T08:32:33Z</time>
      </trkpt>
      <trkpt lat="45.26505" lon="-1.14386">
        <ele>73</ele>
        <time>2025-04-26T08:32:34Z</time>
      </trkpt>
      <trkpt lat="45.26507" lon="-1.14385">
        <ele>73</ele>
        <time>2025-04-26T08:32:35Z</time>
      </trkpt>
      <trkpt lat="45.26509" lon="-1.14385">
        <ele>73</ele>
        <time>2025-04-26T08:32:36Z</time>
      </trkpt>
      <trkpt lat="45.2651" lon="-1.14385">
        <ele>73</ele>
        <time>2025-04-26T08:32:37Z</time>
      </trkpt>
      <trkpt lat="45.26511" lon="-1.14385">
        <ele>73</ele>
        <time>2025-04-26T08:32:38Z</time>
      </trkpt>
      <trkpt lat="45.26511" lon="-1.14386">
        <ele>73</ele>
        <time>2025-04-26T08:32:39Z</time>
      </trkpt>
      <trkpt lat="45.26511" lon="-1.14386">
        <ele>73</ele>
        <time>2025-04-26T08:32:40Z</time>
      </trkpt>
      <trkpt lat="45.26511" lon="-1.14386">
        <ele>73</ele>
        <time>2025-04-26T08:32:41Z</time>
      </trkpt>
      <trkpt lat="45.26511" lon="-1.14386">
        <ele>73</ele>
        <time>2025-04-26T08:32:42Z</time>
      </trkpt>
      <trkpt lat="45.26511" lon="-1.14386">
        <ele>73</ele>
        <time>2025-04-26T08:32:43Z</time>
      </trkpt>
      <trkpt lat="45.26511" lon="-1.14386">
        <ele>73</ele>
        <time>2025-04-26T08:32:44Z</time>
      </trkpt>
      <trkpt lat="45.26511" lon="-1.14386">
        <ele>73</ele>
        <time>2025-04-26T08:32:45Z</time>
      </trkpt>
      <trkpt lat="45.26511" lon="-1.14386">
        <ele>73</ele>
        <time>2025-04-26T08:32:46Z</time>
      </trkpt>
      <trkpt lat="45.26511" lon="-1.14386">
        <ele>73</ele>
        <time>2025-04-26T08:32:47Z</time>
      </trkpt>
      <trkpt lat="45.26511" lon="-1.14386">
        <ele>73</ele>
        <time>2025-04-26T08:32:48Z</time>
      </trkpt>
      <trkpt lat="45.26511" lon="-1.14386">
        <ele>73</ele>
        <time>2025-04-26T08:32:49Z</time>
      </trkpt>
      <trkpt lat="45.26511" lon="-1.14386">
        <ele>73</ele>
        <time>2025-04-26T08:32:50Z</time>
      </trkpt>
      <trkpt lat="45.26511" lon="-1.14386">
        <ele>73</ele>
        <time>2025-04-26T08:32:51Z</time>
      </trkpt>
      <trkpt lat="45.26511" lon="-1.14386">
        <ele>73</ele>
        <time>2025-04-26T08:32:52Z</time>
      </trkpt>
      <trkpt lat="45.26511" lon="-1.14386">
        <ele>73</ele>
        <time>2025-04-26T08:32:53Z</time>
      </trkpt>
      <trkpt lat="45.26511" lon="-1.14386">
        <ele>73</ele>
        <time>2025-04-26T08:32:54Z</time>
      </trkpt>
      <trkpt lat="45.26511" lon="-1.14386">
        <ele>73</ele>
        <time>2025-04-26T08:32:55Z</time>
      </trkpt>
      <trkpt lat="45.26511" lon="-1.14386">
        <ele>73</ele>
        <time>2025-04-26T08:32:56Z</time>
      </trkpt>
      <trkpt lat="45.26511" lon="-1.14386">
        <ele>73</ele>
        <time>2025-04-26T08:32:57Z</time>
      </trkpt>
      <trkpt lat="45.26511" lon="-1.14386">
        <ele>73</ele>
        <time>2025-04-26T08:32:58Z</time>
      </trkpt>
      <trkpt lat="45.26511" lon="-1.14386">
        <ele>73</ele>
        <time>2025-04-26T08:32:59Z</time>
      </trkpt>
      <trkpt lat="45.26511" lon="-1.14386">
        <ele>73</ele>
        <time>2025-04-26T08:33:00Z</time>
      </trkpt>
      <trkpt lat="45.26511" lon="-1.14386">
        <ele>73</ele>
        <time>2025-04-26T08:33:01Z</time>
      </trkpt>
      <trkpt lat="45.26511" lon="-1.14386">
        <ele>73</ele>
        <time>2025-04-26T08:33:02Z</time>
      </trkpt>
      <trkpt lat="45.26511" lon="-1.14386">
        <ele>73</ele>
        <time>2025-04-26T08:33:03Z</time>
      </trkpt>
      <trkpt lat="45.26511" lon="-1.14386">
        <ele>73</ele>
        <time>2025-04-26T08:33:04Z</time>
      </trkpt>
      <trkpt lat="45.26511" lon="-1.14386">
        <ele>73</ele>
        <time>2025-04-26T08:33:05Z</time>
      </trkpt>
      <trkpt lat="45.26511" lon="-1.14386">
        <ele>73</ele>
        <time>2025-04-26T08:33:06Z</time>
      </trkpt>
      <trkpt lat="45.26511" lon="-1.14386">
        <ele>73</ele>
        <time>2025-04-26T08:33:07Z</time>
      </trkpt>
      <trkpt lat="45.26511" lon="-1.14386">
        <ele>73</ele>
        <time>2025-04-26T08:33:08Z</time>
      </trkpt>
      <trkpt lat="45.26511" lon="-1.14386">
        <ele>73</ele>
        <time>2025-04-26T08:33:09Z</time>
      </trkpt>
      <trkpt lat="45.26511" lon="-1.14386">
        <ele>73</ele>
        <time>2025-04-26T08:33:10Z</time>
      </trkpt>
      <trkpt lat="45.26511" lon="-1.14386">
        <ele>73</ele>
        <time>2025-04-26T08:33:11Z</time>
      </trkpt>
      <trkpt lat="45.26511" lon="-1.14386">
        <ele>73</ele>
        <time>2025-04-26T08:33:12Z</time>
      </trkpt>
      <trkpt lat="45.26511" lon="-1.14386">
        <ele>73</ele>
        <time>2025-04-26T08:33:13Z</time>
      </trkpt>
      <trkpt lat="45.26511" lon="-1.14386">
        <ele>73</ele>
        <time>2025-04-26T08:33:14Z</time>
      </trkpt>
      <trkpt lat="45.26511" lon="-1.14386">
        <ele>73</ele>
        <time>2025-04-26T08:33:15Z</time>
      </trkpt>
      <trkpt lat="45.26511" lon="-1.14386">
        <ele>73</ele>
        <time>2025-04-26T08:33:16Z</time>
      </trkpt>
      <trkpt lat="45.26511" lon="-1.14386">
        <ele>73</ele>
        <time>2025-04-26T08:33:17Z</time>
      </trkpt>
      <trkpt lat="45.26511" lon="-1.14386">
        <ele>73</ele>
        <time>2025-04-26T08:33:18Z</time>
      </trkpt>
      <trkpt lat="45.26511" lon="-1.14386">
        <ele>73</ele>
        <time>2025-04-26T08:33:19Z</time>
      </trkpt>
      <trkpt lat="45.26511" lon="-1.14386">
        <ele>73</ele>
        <time>2025-04-26T08:33:20Z</time>
      </trkpt>
      <trkpt lat="45.26511" lon="-1.14386">
        <ele>73</ele>
        <time>2025-04-26T08:33:21Z</time>
      </trkpt>
      <trkpt lat="45.26511" lon="-1.14386">
        <ele>73</ele>
        <time>2025-04-26T08:33:22Z</time>
      </trkpt>
      <trkpt lat="45.26511" lon="-1.14386">
        <ele>73</ele>
        <time>2025-04-26T08:33:23Z</time>
      </trkpt>
      <trkpt lat="45.26511" lon="-1.14386">
        <ele>73</ele>
        <time>2025-04-26T08:33:24Z</time>
      </trkpt>
      <trkpt lat="45.26511" lon="-1.14386">
        <ele>73</ele>
        <time>2025-04-26T08:33:25Z</time>
      </trkpt>
      <trkpt lat="45.26511" lon="-1.14386">
        <ele>73</ele>
        <time>2025-04-26T08:33:26Z</time>
      </trkpt>
      <trkpt lat="45.26511" lon="-1.14386">
        <ele>73</ele>
        <time>2025-04-26T08:33:27Z</time>
      </trkpt>
      <trkpt lat="45.26511" lon="-1.14386">
        <ele>73</ele>
        <time>2025-04-26T08:33:28Z</time>
      </trkpt>
      <trkpt lat="45.26511" lon="-1.14386">
        <ele>73</ele>
        <time>2025-04-26T08:33:29Z</time>
      </trkpt>
      <trkpt lat="45.26511" lon="-1.14386">
        <ele>73</ele>
        <time>2025-04-26T08:33:30Z</time>
      </trkpt>
      <trkpt lat="45.26511" lon="-1.14386">
        <ele>73</ele>
        <time>2025-04-26T08:33:31Z</time>
      </trkpt>
      <trkpt lat="45.26511" lon="-1.14386">
        <ele>73</ele>
        <time>2025-04-26T08:33:32Z</time>
      </trkpt>
      <trkpt lat="45.26511" lon="-1.14386">
        <ele>73</ele>
        <time>2025-04-26T08:33:33Z</time>
      </trkpt>
      <trkpt lat="45.26511" lon="-1.14386">
        <ele>73</ele>
        <time>2025-04-26T08:33:34Z</time>
      </trkpt>
      <trkpt lat="45.26511" lon="-1.14386">
        <ele>73</ele>
        <time>2025-04-26T08:33:35Z</time>
      </trkpt>
      <trkpt lat="45.26511" lon="-1.14386">
        <ele>73</ele>
        <time>2025-04-26T08:33:36Z</time>
      </trkpt>
      <trkpt lat="45.26511" lon="-1.14386">
        <ele>73</ele>
        <time>2025-04-26T08:33:37Z</time>
      </trkpt>
      <trkpt lat="45.26511" lon="-1.14386">
        <ele>73</ele>
        <time>2025-04-26T08:33:38Z</time>
      </trkpt>
      <trkpt lat="45.26511" lon="-1.14386">
        <ele>73</ele>
        <time>2025-04-26T08:33:39Z</time>
      </trkpt>
      <trkpt lat="45.26511" lon="-1.14386">
        <ele>73</ele>
        <time>2025-04-26T08:33:40Z</time>
      </trkpt>
      <trkpt lat="45.26511" lon="-1.14386">
        <ele>73</ele>
        <time>2025-04-26T08:33:41Z</time>
      </trkpt>
      <trkpt lat="45.26511" lon="-1.14386">
        <ele>73</ele>
        <time>2025-04-26T08:33:42Z</time>
      </trkpt>
      <trkpt lat="45.26511" lon="-1.14386">
        <ele>73</ele>
        <time>2025-04-26T08:33:43Z</time>
      </trkpt>
      <trkpt lat="45.26511" lon="-1.14386">
        <ele>73</ele>
        <time>2025-04-26T08:33:44Z</time>
      </trkpt>
      <trkpt lat="45.26511" lon="-1.14386">
        <ele>73</ele>
        <time>2025-04-26T08:33:45Z</time>
      </trkpt>
      <trkpt lat="45.26511" lon="-1.14386">
        <ele>73</ele>
        <time>2025-04-26T08:33:46Z</time>
      </trkpt>
      <trkpt lat="45.26511" lon="-1.14386">
        <ele>73</ele>
        <time>2025-04-26T08:33:47Z</time>
      </trkpt>
      <trkpt lat="45.26511" lon="-1.14386">
        <ele>73</ele>
        <time>2025-04-26T08:33:48Z</time>
      </trkpt>
      <trkpt lat="45.26511" lon="-1.14386">
        <ele>73</ele>
        <time>2025-04-26T08:33:49Z</time>
      </trkpt>
      <trkpt lat="45.26511" lon="-1.14386">
        <ele>73</ele>
        <time>2025-04-26T08:33:50Z</time>
      </trkpt>
      <trkpt lat="45.26511" lon="-1.14386">
        <ele>73</ele>
        <time>2025-04-26T08:33:51Z</time>
      </trkpt>
      <trkpt lat="45.26511" lon="-1.14386">
        <ele>73</ele>
        <time>2025-04-26T08:33:52Z</time>
      </trkpt>
      <trkpt lat="45.26511" lon="-1.14386">
        <ele>73</ele>
        <time>2025-04-26T08:35:01Z</time>
      </trkpt>
      <trkpt lat="45.26511" lon="-1.14386">
        <ele>73</ele>
        <time>2025-04-26T08:35:02Z</time>
      </trkpt>
      <trkpt lat="45.26511" lon="-1.14386">
        <ele>73</ele>
        <time>2025-04-26T08:35:03Z</time>
      </trkpt>
      <trkpt lat="45.26511" lon="-1.14386">
        <ele>73</ele>
        <time>2025-04-26T08:35:04Z</time>
      </trkpt>
      <trkpt lat="45.26511" lon="-1.14386">
        <ele>73</ele>
        <time>2025-04-26T08:35:05Z</time>
      </trkpt>
      <trkpt lat="45.26511" lon="-1.14386">
        <ele>73</ele>
        <time>2025-04-26T08:35:06Z</time>
      </trkpt>
      <trkpt lat="45.26511" lon="-1.14386">
        <ele>73</ele>
        <time>2025-04-26T08:35:07Z</time>
      </trkpt>
      <trkpt lat="45.26511" lon="-1.14386">
        <ele>73</ele>
        <time>2025-04-26T08:35:08Z</time>
      </trkpt>
      <trkpt lat="45.26511" lon="-1.14386">
        <ele>73</ele>
        <time>2025-04-26T08:35:09Z</time>
      </trkpt>
      <trkpt lat="45.26513" lon="-1.14386">
        <ele>76</ele>
        <time>2025-04-26T08:35:10Z</time>
      </trkpt>
      <trkpt lat="45.26514" lon="-1.14385">
        <ele>76</ele>
        <time>2025-04-26T08:35:11Z</time>
      </trkpt>
      <trkpt lat="45.26516" lon="-1.14384">
        <ele>76</ele>
        <time>2025-04-26T08:35:12Z</time>
      </trkpt>
      <trkpt lat="45.26518" lon="-1.14382">
        <ele>76</ele>
        <time>2025-04-26T08:35:13Z</time>
      </trkpt>
      <trkpt lat="45.2652" lon="-1.1438">
        <ele>76</ele>
        <time>2025-04-26T08:35:14Z</time>
      </trkpt>
      <trkpt lat="45.26522" lon="-1.1438">
        <ele>76</ele>
        <time>2025-04-26T08:35:15Z</time>
      </trkpt>
      <trkpt lat="45.26525" lon="-1.14379">
        <ele>75</ele>
        <time>2025-04-26T08:35:16Z</time>
      </trkpt>
      <trkpt lat="45.26527" lon="-1.14378">
        <ele>75</ele>
        <time>2025-04-26T08:35:17Z</time>
      </trkpt>
      <trkpt lat="45.2653" lon="-1.14377">
        <ele>74</ele>
        <time>2025-04-26T08:35:18Z</time>
      </trkpt>
      <trkpt lat="45.26533" lon="-1.14376">
        <ele>74</ele>
        <time>2025-04-26T08:35:19Z</time>
      </trkpt>
      <trkpt lat="45.26536" lon="-1.14375">
        <ele>74</ele>
        <time>2025-04-26T08:35:20Z</time>
      </trkpt>
      <trkpt lat="45.26539" lon="-1.14375">
        <ele>74</ele>
        <time>2025-04-26T08:35:21Z</time>
      </trkpt>
      <trkpt lat="45.26543" lon="-1.14374">
        <ele>74</ele>
        <time>2025-04-26T08:35:22Z</time>
      </trkpt>
      <trkpt lat="45.26547" lon="-1.14373">
        <ele>74</ele>
        <time>2025-04-26T08:35:23Z</time>
      </trkpt>
      <trkpt lat="45.2655" lon="-1.14371">
        <ele>73</ele>
        <time>2025-04-26T08:35:24Z</time>
      </trkpt>
      <trkpt lat="45.26554" lon="-1.1437">
        <ele>74</ele>
        <time>2025-04-26T08:35:25Z</time>
      </trkpt>
      <trkpt lat="45.26558" lon="-1.14368">
        <ele>74</ele>
        <time>2025-04-26T08:35:26Z</time>
      </trkpt>
      <trkpt lat="45.26562" lon="-1.14367">
        <ele>75</ele>
        <time>2025-04-26T08:35:27Z</time>
      </trkpt>
      <trkpt lat="45.26566" lon="-1.14365">
        <ele>75</ele>
        <time>2025-04-26T08:35:28Z</time>
      </trkpt>
      <trkpt lat="45.2657" lon="-1.14364">
        <ele>75</ele>
        <time>2025-04-26T08:35:29Z</time>
      </trkpt>
      <trkpt lat="45.26573" lon="-1.14363">
        <ele>75</ele>
        <time>2025-04-26T08:35:30Z</time>
      </trkpt>
      <trkpt lat="45.26577" lon="-1.14362">
        <ele>75</ele>
        <time>2025-04-26T08:35:31Z</time>
      </trkpt>
      <trkpt lat="45.26582" lon="-1.14361">
        <ele>75</ele>
        <time>2025-04-26T08:35:32Z</time>
      </trkpt>
      <trkpt lat="45.26586" lon="-1.14359">
        <ele>75</ele>
        <time>2025-04-26T08:35:33Z</time>
      </trkpt>
      <trkpt lat="45.2659" lon="-1.14358">
        <ele>75</ele>
        <time>2025-04-26T08:35:34Z</time>
      </trkpt>
      <trkpt lat="45.26595" lon="-1.14356">
        <ele>76</ele>
        <time>2025-04-26T08:35:35Z</time>
      </trkpt>
      <trkpt lat="45.26598" lon="-1.14354">
        <ele>76</ele>
        <time>2025-04-26T08:35:36Z</time>
      </trkpt>
      <trkpt lat="45.26603" lon="-1.14352">
        <ele>75</ele>
        <time>2025-04-26T08:35:37Z</time>
      </trkpt>
      <trkpt lat="45.26607" lon="-1.14351">
        <ele>75</ele>
        <time>2025-04-26T08:35:38Z</time>
      </trkpt>
      <trkpt lat="45.26611" lon="-1.1435">
        <ele>75</ele>
        <time>2025-04-26T08:35:39Z</time>
      </trkpt>
      <trkpt lat="45.26615" lon="-1.14349">
        <ele>75</ele>
        <time>2025-04-26T08:35:40Z</time>
      </trkpt>
      <trkpt lat="45.26619" lon="-1.14348">
        <ele>74</ele>
        <time>2025-04-26T08:35:41Z</time>
      </trkpt>
      <trkpt lat="45.26623" lon="-1.14347">
        <ele>74</ele>
        <time>2025-04-26T08:35:42Z</time>
      </trkpt>
      <trkpt lat="45.26627" lon="-1.14345">
        <ele>73</ele>
        <time>2025-04-26T08:35:43Z</time>
      </trkpt>
      <trkpt lat="45.26631" lon="-1.14344">
        <ele>73</ele>
        <time>2025-04-26T08:35:44Z</time>
      </trkpt>
      <trkpt lat="45.26635" lon="-1.14342">
        <ele>72</ele>
        <time>2025-04-26T08:35:45Z</time>
      </trkpt>
      <trkpt lat="45.26639" lon="-1.14341">
        <ele>72</ele>
        <time>2025-04-26T08:35:46Z</time>
      </trkpt>
      <trkpt lat="45.26642" lon="-1.14339">
        <ele>72</ele>
        <time>2025-04-26T08:35:47Z</time>
      </trkpt>
      <trkpt lat="45.26646" lon="-1.14338">
        <ele>72</ele>
        <time>2025-04-26T08:35:48Z</time>
      </trkpt>
      <trkpt lat="45.2665" lon="-1.14337">
        <ele>72</ele>
        <time>2025-04-26T08:35:49Z</time>
      </trkpt>
      <trkpt lat="45.26653" lon="-1.14336">
        <ele>73</ele>
        <time>2025-04-26T08:35:50Z</time>
      </trkpt>
      <trkpt lat="45.26657" lon="-1.14335">
        <ele>73</ele>
        <time>2025-04-26T08:35:51Z</time>
      </trkpt>
      <trkpt lat="45.26661" lon="-1.14334">
        <ele>73</ele>
        <time>2025-04-26T08:35:52Z</time>
      </trkpt>
      <trkpt lat="45.26665" lon="-1.14333">
        <ele>73</ele>
        <time>2025-04-26T08:35:53Z</time>
      </trkpt>
      <trkpt lat="45.26669" lon="-1.14333">
        <ele>73</ele>
        <time>2025-04-26T08:35:54Z</time>
      </trkpt>
      <trkpt lat="45.26672" lon="-1.14332">
        <ele>73</ele>
        <time>2025-04-26T08:35:55Z</time>
      </trkpt>
      <trkpt lat="45.26675" lon="-1.14332">
        <ele>73</ele>
        <time>2025-04-26T08:35:56Z</time>
      </trkpt>
      <trkpt lat="45.26678" lon="-1.14331">
        <ele>73</ele>
        <time>2025-04-26T08:35:57Z</time>
      </trkpt>
      <trkpt lat="45.26681" lon="-1.1433">
        <ele>72</ele>
        <time>2025-04-26T08:35:58Z</time>
      </trkpt>
      <trkpt lat="45.26684" lon="-1.14329">
        <ele>72</ele>
        <time>2025-04-26T08:35:59Z</time>
      </trkpt>
      <trkpt lat="45.26686" lon="-1.14328">
        <ele>72</ele>
        <time>2025-04-26T08:36:00Z</time>
      </trkpt>
      <trkpt lat="45.26689" lon="-1.14326">
        <ele>72</ele>
        <time>2025-04-26T08:36:01Z</time>
      </trkpt>
      <trkpt lat="45.26692" lon="-1.14324">
        <ele>72</ele>
        <time>2025-04-26T08:36:02Z</time>
      </trkpt>
      <trkpt lat="45.26694" lon="-1.14322">
        <ele>73</ele>
        <time>2025-04-26T08:36:03Z</time>
      </trkpt>
      <trkpt lat="45.26697" lon="-1.14321">
        <ele>73</ele>
        <time>2025-04-26T08:36:04Z</time>
      </trkpt>
      <trkpt lat="45.26699" lon="-1.1432">
        <ele>73</ele>
        <time>2025-04-26T08:36:05Z</time>
      </trkpt>
      <trkpt lat="45.26702" lon="-1.14319">
        <ele>73</ele>
        <time>2025-04-26T08:36:06Z</time>
      </trkpt>
      <trkpt lat="45.26705" lon="-1.14318">
        <ele>73</ele>
        <time>2025-04-26T08:36:07Z</time>
      </trkpt>
      <trkpt lat="45.26709" lon="-1.14317">
        <ele>73</ele>
        <time>2025-04-26T08:36:08Z</time>
      </trkpt>
      <trkpt lat="45.26712" lon="-1.14316">
        <ele>73</ele>
        <time>2025-04-26T08:36:09Z</time>
      </trkpt>
      <trkpt lat="45.26715" lon="-1.14315">
        <ele>73</ele>
        <time>2025-04-26T08:36:10Z</time>
      </trkpt>
      <trkpt lat="45.26719" lon="-1.14314">
        <ele>73</ele>
        <time>2025-04-26T08:36:11Z</time>
      </trkpt>
      <trkpt lat="45.26722" lon="-1.14312">
        <ele>73</ele>
        <time>2025-04-26T08:36:12Z</time>
      </trkpt>
      <trkpt lat="45.26725" lon="-1.1431">
        <ele>73</ele>
        <time>2025-04-26T08:36:13Z</time>
      </trkpt>
      <trkpt lat="45.26728" lon="-1.14309">
        <ele>73</ele>
        <time>2025-04-26T08:36:14Z</time>
      </trkpt>
      <trkpt lat="45.26732" lon="-1.14308">
        <ele>74</ele>
        <time>2025-04-26T08:36:15Z</time>
      </trkpt>
      <trkpt lat="45.26736" lon="-1.14307">
        <ele>74</ele>
        <time>2025-04-26T08:36:16Z</time>
      </trkpt>
      <trkpt lat="45.26739" lon="-1.14306">
        <ele>74</ele>
        <time>2025-04-26T08:36:17Z</time>
      </trkpt>
      <trkpt lat="45.26743" lon="-1.14305">
        <ele>74</ele>
        <time>2025-04-26T08:36:18Z</time>
      </trkpt>
      <trkpt lat="45.26746" lon="-1.14303">
        <ele>74</ele>
        <time>2025-04-26T08:36:19Z</time>
      </trkpt>
      <trkpt lat="45.2675" lon="-1.14302">
        <ele>74</ele>
        <time>2025-04-26T08:36:20Z</time>
      </trkpt>
      <trkpt lat="45.26753" lon="-1.14301">
        <ele>74</ele>
        <time>2025-04-26T08:36:21Z</time>
      </trkpt>
      <trkpt lat="45.26757" lon="-1.14299">
        <ele>74</ele>
        <time>2025-04-26T08:36:22Z</time>
      </trkpt>
      <trkpt lat="45.26761" lon="-1.14299">
        <ele>74</ele>
        <time>2025-04-26T08:36:23Z</time>
      </trkpt>
      <trkpt lat="45.26764" lon="-1.14298">
        <ele>74</ele>
        <time>2025-04-26T08:36:24Z</time>
      </trkpt>
      <trkpt lat="45.26768" lon="-1.14296">
        <ele>74</ele>
        <time>2025-04-26T08:36:25Z</time>
      </trkpt>
      <trkpt lat="45.26771" lon="-1.14294">
        <ele>74</ele>
        <time>2025-04-26T08:36:26Z</time>
      </trkpt>
      <trkpt lat="45.26775" lon="-1.14293">
        <ele>74</ele>
        <time>2025-04-26T08:36:27Z</time>
      </trkpt>
      <trkpt lat="45.26779" lon="-1.14293">
        <ele>74</ele>
        <time>2025-04-26T08:36:28Z</time>
      </trkpt>
      <trkpt lat="45.26782" lon="-1.14291">
        <ele>74</ele>
        <time>2025-04-26T08:36:29Z</time>
      </trkpt>
      <trkpt lat="45.26786" lon="-1.1429">
        <ele>73</ele>
        <time>2025-04-26T08:36:30Z</time>
      </trkpt>
      <trkpt lat="45.26789" lon="-1.14289">
        <ele>73</ele>
        <time>2025-04-26T08:36:31Z</time>
      </trkpt>
      <trkpt lat="45.26793" lon="-1.14287">
        <ele>73</ele>
        <time>2025-04-26T08:36:32Z</time>
      </trkpt>
      <trkpt lat="45.26796" lon="-1.14286">
        <ele>73</ele>
        <time>2025-04-26T08:36:33Z</time>
      </trkpt>
      <trkpt lat="45.268" lon="-1.14285">
        <ele>73</ele>
        <time>2025-04-26T08:36:34Z</time>
      </trkpt>
      <trkpt lat="45.26804" lon="-1.14284">
        <ele>73</ele>
        <time>2025-04-26T08:36:35Z</time>
      </trkpt>
      <trkpt lat="45.26807" lon="-1.14283">
        <ele>73</ele>
        <time>2025-04-26T08:36:36Z</time>
      </trkpt>
      <trkpt lat="45.26811" lon="-1.14281">
        <ele>73</ele>
        <time>2025-04-26T08:36:37Z</time>
      </trkpt>
      <trkpt lat="45.26814" lon="-1.1428">
        <ele>74</ele>
        <time>2025-04-26T08:36:38Z</time>
      </trkpt>
      <trkpt lat="45.26818" lon="-1.14279">
        <ele>74</ele>
        <time>2025-04-26T08:36:39Z</time>
      </trkpt>
      <trkpt lat="45.26822" lon="-1.14278">
        <ele>74</ele>
        <time>2025-04-26T08:36:40Z</time>
      </trkpt>
      <trkpt lat="45.26825" lon="-1.14276">
        <ele>74</ele>
        <time>2025-04-26T08:36:41Z</time>
      </trkpt>
      <trkpt lat="45.26829" lon="-1.14275">
        <ele>74</ele>
        <time>2025-04-26T08:36:42Z</time>
      </trkpt>
      <trkpt lat="45.26833" lon="-1.14274">
        <ele>74</ele>
        <time>2025-04-26T08:36:43Z</time>
      </trkpt>
      <trkpt lat="45.26837" lon="-1.14272">
        <ele>73</ele>
        <time>2025-04-26T08:36:44Z</time>
      </trkpt>
      <trkpt lat="45.26841" lon="-1.14271">
        <ele>73</ele>
        <time>2025-04-26T08:36:45Z</time>
      </trkpt>
      <trkpt lat="45.26845" lon="-1.14269">
        <ele>73</ele>
        <time>2025-04-26T08:36:46Z</time>
      </trkpt>
      <trkpt lat="45.26849" lon="-1.14268">
        <ele>73</ele>
        <time>2025-04-26T08:36:47Z</time>
      </trkpt>
      <trkpt lat="45.26853" lon="-1.14267">
        <ele>73</ele>
        <time>2025-04-26T08:36:48Z</time>
      </trkpt>
      <trkpt lat="45.26857" lon="-1.14266">
        <ele>73</ele>
        <time>2025-04-26T08:36:49Z</time>
      </trkpt>
      <trkpt lat="45.26861" lon="-1.14265">
        <ele>73</ele>
        <time>2025-04-26T08:36:50Z</time>
      </trkpt>
      <trkpt lat="45.26865" lon="-1.14263">
        <ele>73</ele>
        <time>2025-04-26T08:36:51Z</time>
      </trkpt>
      <trkpt lat="45.26869" lon="-1.14262">
        <ele>73</ele>
        <time>2025-04-26T08:36:52Z</time>
      </trkpt>
      <trkpt lat="45.26873" lon="-1.1426">
        <ele>73</ele>
        <time>2025-04-26T08:36:53Z</time>
      </trkpt>
      <trkpt lat="45.26878" lon="-1.14259">
        <ele>73</ele>
        <time>2025-04-26T08:36:54Z</time>
      </trkpt>
      <trkpt lat="45.26882" lon="-1.14257">
        <ele>73</ele>
        <time>2025-04-26T08:36:55Z</time>
      </trkpt>
      <trkpt lat="45.26886" lon="-1.14256">
        <ele>72</ele>
        <time>2025-04-26T08:36:56Z</time>
      </trkpt>
      <trkpt lat="45.2689" lon="-1.14254">
        <ele>72</ele>
        <time>2025-04-26T08:36:57Z</time>
      </trkpt>
      <trkpt lat="45.26895" lon="-1.14253">
        <ele>72</ele>
        <time>2025-04-26T08:36:58Z</time>
      </trkpt>
      <trkpt lat="45.26899" lon="-1.14252">
        <ele>72</ele>
        <time>2025-04-26T08:36:59Z</time>
      </trkpt>
      <trkpt lat="45.26903" lon="-1.14251">
        <ele>72</ele>
        <time>2025-04-26T08:37:00Z</time>
      </trkpt>
      <trkpt lat="45.26907" lon="-1.14249">
        <ele>72</ele>
        <time>2025-04-26T08:37:01Z</time>
      </trkpt>
      <trkpt lat="45.26911" lon="-1.14247">
        <ele>72</ele>
        <time>2025-04-26T08:37:02Z</time>
      </trkpt>
      <trkpt lat="45.26916" lon="-1.14246">
        <ele>71</ele>
        <time>2025-04-26T08:37:03Z</time>
      </trkpt>
      <trkpt lat="45.2692" lon="-1.14245">
        <ele>71</ele>
        <time>2025-04-26T08:37:04Z</time>
      </trkpt>
      <trkpt lat="45.26924" lon="-1.14243">
        <ele>71</ele>
        <time>2025-04-26T08:37:05Z</time>
      </trkpt>
      <trkpt lat="45.26928" lon="-1.14242">
        <ele>71</ele>
        <time>2025-04-26T08:37:06Z</time>
      </trkpt>
      <trkpt lat="45.26932" lon="-1.1424">
        <ele>71</ele>
        <time>2025-04-26T08:37:07Z</time>
      </trkpt>
      <trkpt lat="45.26936" lon="-1.14238">
        <ele>72</ele>
        <time>2025-04-26T08:37:08Z</time>
      </trkpt>
      <trkpt lat="45.26941" lon="-1.14237">
        <ele>72</ele>
        <time>2025-04-26T08:37:09Z</time>
      </trkpt>
      <trkpt lat="45.26945" lon="-1.14235">
        <ele>73</ele>
        <time>2025-04-26T08:37:10Z</time>
      </trkpt>
      <trkpt lat="45.26949" lon="-1.14234">
        <ele>73</ele>
        <time>2025-04-26T08:37:11Z</time>
      </trkpt>
      <trkpt lat="45.26953" lon="-1.14232">
        <ele>73</ele>
        <time>2025-04-26T08:37:12Z</time>
      </trkpt>
      <trkpt lat="45.26957" lon="-1.14231">
        <ele>73</ele>
        <time>2025-04-26T08:37:13Z</time>
      </trkpt>
      <trkpt lat="45.26961" lon="-1.1423">
        <ele>74</ele>
        <time>2025-04-26T08:37:14Z</time>
      </trkpt>
      <trkpt lat="45.26965" lon="-1.14229">
        <ele>74</ele>
        <time>2025-04-26T08:37:15Z</time>
      </trkpt>
      <trkpt lat="45.26969" lon="-1.14227">
        <ele>74</ele>
        <time>2025-04-26T08:37:16Z</time>
      </trkpt>
      <trkpt lat="45.26973" lon="-1.14226">
        <ele>74</ele>
        <time>2025-04-26T08:37:17Z</time>
      </trkpt>
      <trkpt lat="45.26977" lon="-1.14225">
        <ele>74</ele>
        <time>2025-04-26T08:37:18Z</time>
      </trkpt>
      <trkpt lat="45.26981" lon="-1.14224">
        <ele>75</ele>
        <time>2025-04-26T08:37:19Z</time>
      </trkpt>
      <trkpt lat="45.26986" lon="-1.14223">
        <ele>74</ele>
        <time>2025-04-26T08:37:20Z</time>
      </trkpt>
      <trkpt lat="45.2699" lon="-1.14221">
        <ele>74</ele>
        <time>2025-04-26T08:37:21Z</time>
      </trkpt>
      <trkpt lat="45.26994" lon="-1.1422">
        <ele>74</ele>
        <time>2025-04-26T08:37:22Z</time>
      </trkpt>
      <trkpt lat="45.26998" lon="-1.14218">
        <ele>74</ele>
        <time>2025-04-26T08:37:23Z</time>
      </trkpt>
      <trkpt lat="45.27002" lon="-1.14216">
        <ele>74</ele>
        <time>2025-04-26T08:37:24Z</time>
      </trkpt>
      <trkpt lat="45.27006" lon="-1.14215">
        <ele>74</ele>
        <time>2025-04-26T08:37:25Z</time>
      </trkpt>
      <trkpt lat="45.2701" lon="-1.14213">
        <ele>74</ele>
        <time>2025-04-26T08:37:26Z</time>
      </trkpt>
      <trkpt lat="45.27014" lon="-1.14212">
        <ele>74</ele>
        <time>2025-04-26T08:37:27Z</time>
      </trkpt>
      <trkpt lat="45.27018" lon="-1.14211">
        <ele>74</ele>
        <time>2025-04-26T08:37:28Z</time>
      </trkpt>
      <trkpt lat="45.27022" lon="-1.1421">
        <ele>74</ele>
        <time>2025-04-26T08:37:29Z</time>
      </trkpt>
      <trkpt lat="45.27026" lon="-1.14208">
        <ele>74</ele>
        <time>2025-04-26T08:37:30Z</time>
      </trkpt>
      <trkpt lat="45.2703" lon="-1.14207">
        <ele>74</ele>
        <time>2025-04-26T08:37:31Z</time>
      </trkpt>
      <trkpt lat="45.27034" lon="-1.14205">
        <ele>74</ele>
        <time>2025-04-26T08:37:32Z</time>
      </trkpt>
      <trkpt lat="45.27037" lon="-1.14203">
        <ele>74</ele>
        <time>2025-04-26T08:37:33Z</time>
      </trkpt>
      <trkpt lat="45.27041" lon="-1.14202">
        <ele>75</ele>
        <time>2025-04-26T08:37:34Z</time>
      </trkpt>
      <trkpt lat="45.27044" lon="-1.14201">
        <ele>76</ele>
        <time>2025-04-26T08:37:35Z</time>
      </trkpt>
      <trkpt lat="45.27048" lon="-1.14199">
        <ele>76</ele>
        <time>2025-04-26T08:37:36Z</time>
      </trkpt>
      <trkpt lat="45.27051" lon="-1.14198">
        <ele>77</ele>
        <time>2025-04-26T08:37:37Z</time>
      </trkpt>
      <trkpt lat="45.27055" lon="-1.14196">
        <ele>77</ele>
        <time>2025-04-26T08:37:38Z</time>
      </trkpt>
      <trkpt lat="45.27059" lon="-1.14196">
        <ele>77</ele>
        <time>2025-04-26T08:37:39Z</time>
      </trkpt>
      <trkpt lat="45.27063" lon="-1.14195">
        <ele>77</ele>
        <time>2025-04-26T08:37:40Z</time>
      </trkpt>
      <trkpt lat="45.27067" lon="-1.14194">
        <ele>77</ele>
        <time>2025-04-26T08:37:41Z</time>
      </trkpt>
      <trkpt lat="45.27071" lon="-1.14193">
        <ele>77</ele>
        <time>2025-04-26T08:37:42Z</time>
      </trkpt>
      <trkpt lat="45.27075" lon="-1.14191">
        <ele>77</ele>
        <time>2025-04-26T08:37:43Z</time>
      </trkpt>
      <trkpt lat="45.27078" lon="-1.1419">
        <ele>77</ele>
        <time>2025-04-26T08:37:44Z</time>
      </trkpt>
      <trkpt lat="45.27083" lon="-1.14189">
        <ele>77</ele>
        <time>2025-04-26T08:37:45Z</time>
      </trkpt>
      <trkpt lat="45.27087" lon="-1.14188">
        <ele>77</ele>
        <time>2025-04-26T08:37:46Z</time>
      </trkpt>
      <trkpt lat="45.27091" lon="-1.14187">
        <ele>78</ele>
        <time>2025-04-26T08:37:47Z</time>
      </trkpt>
      <trkpt lat="45.27095" lon="-1.14186">
        <ele>78</ele>
        <time>2025-04-26T08:37:48Z</time>
      </trkpt>
      <trkpt lat="45.27099" lon="-1.14184">
        <ele>78</ele>
        <time>2025-04-26T08:37:49Z</time>
      </trkpt>
      <trkpt lat="45.27103" lon="-1.14182">
        <ele>79</ele>
        <time>2025-04-26T08:37:50Z</time>
      </trkpt>
      <trkpt lat="45.27107" lon="-1.1418">
        <ele>79</ele>
        <time>2025-04-26T08:37:51Z</time>
      </trkpt>
      <trkpt lat="45.27111" lon="-1.14179">
        <ele>79</ele>
        <time>2025-04-26T08:37:52Z</time>
      </trkpt>
      <trkpt lat="45.27115" lon="-1.14177">
        <ele>79</ele>
        <time>2025-04-26T08:37:53Z</time>
      </trkpt>
      <trkpt lat="45.27119" lon="-1.14175">
        <ele>80</ele>
        <time>2025-04-26T08:37:54Z</time>
      </trkpt>
      <trkpt lat="45.27124" lon="-1.14174">
        <ele>80</ele>
        <time>2025-04-26T08:37:55Z</time>
      </trkpt>
      <trkpt lat="45.27128" lon="-1.14172">
        <ele>80</ele>
        <time>2025-04-26T08:37:56Z</time>
      </trkpt>
      <trkpt lat="45.27132" lon="-1.14171">
        <ele>81</ele>
        <time>2025-04-26T08:37:57Z</time>
      </trkpt>
      <trkpt lat="45.27136" lon="-1.1417">
        <ele>81</ele>
        <time>2025-04-26T08:37:58Z</time>
      </trkpt>
      <trkpt lat="45.2714" lon="-1.14168">
        <ele>80</ele>
        <time>2025-04-26T08:37:59Z</time>
      </trkpt>
      <trkpt lat="45.27144" lon="-1.14166">
        <ele>80</ele>
        <time>2025-04-26T08:38:00Z</time>
      </trkpt>
      <trkpt lat="45.27148" lon="-1.14165">
        <ele>80</ele>
        <time>2025-04-26T08:38:01Z</time>
      </trkpt>
      <trkpt lat="45.27152" lon="-1.14164">
        <ele>79</ele>
        <time>2025-04-26T08:38:02Z</time>
      </trkpt>
      <trkpt lat="45.27156" lon="-1.14162">
        <ele>79</ele>
        <time>2025-04-26T08:38:03Z</time>
      </trkpt>
      <trkpt lat="45.2716" lon="-1.1416">
        <ele>78</ele>
        <time>2025-04-26T08:38:04Z</time>
      </trkpt>
      <trkpt lat="45.27163" lon="-1.14159">
        <ele>78</ele>
        <time>2025-04-26T08:38:05Z</time>
      </trkpt>
      <trkpt lat="45.27167" lon="-1.14157">
        <ele>77</ele>
        <time>2025-04-26T08:38:06Z</time>
      </trkpt>
      <trkpt lat="45.27171" lon="-1.14156">
        <ele>77</ele>
        <time>2025-04-26T08:38:07Z</time>
      </trkpt>
      <trkpt lat="45.27174" lon="-1.14156">
        <ele>77</ele>
        <time>2025-04-26T08:38:08Z</time>
      </trkpt>
      <trkpt lat="45.27178" lon="-1.14155">
        <ele>77</ele>
        <time>2025-04-26T08:38:09Z</time>
      </trkpt>
      <trkpt lat="45.27182" lon="-1.14153">
        <ele>77</ele>
        <time>2025-04-26T08:38:10Z</time>
      </trkpt>
      <trkpt lat="45.27185" lon="-1.14152">
        <ele>77</ele>
        <time>2025-04-26T08:38:11Z</time>
      </trkpt>
      <trkpt lat="45.27189" lon="-1.1415">
        <ele>76</ele>
        <time>2025-04-26T08:38:12Z</time>
      </trkpt>
      <trkpt lat="45.27193" lon="-1.14149">
        <ele>76</ele>
        <time>2025-04-26T08:38:13Z</time>
      </trkpt>
      <trkpt lat="45.27197" lon="-1.14148">
        <ele>76</ele>
        <time>2025-04-26T08:38:14Z</time>
      </trkpt>
      <trkpt lat="45.27201" lon="-1.14147">
        <ele>75</ele>
        <time>2025-04-26T08:38:15Z</time>
      </trkpt>
      <trkpt lat="45.27205" lon="-1.14146">
        <ele>75</ele>
        <time>2025-04-26T08:38:16Z</time>
      </trkpt>
      <trkpt lat="45.27209" lon="-1.14145">
        <ele>74</ele>
        <time>2025-04-26T08:38:17Z</time>
      </trkpt>
      <trkpt lat="45.27213" lon="-1.14144">
        <ele>75</ele>
        <time>2025-04-26T08:38:18Z</time>
      </trkpt>
      <trkpt lat="45.27217" lon="-1.14143">
        <ele>75</ele>
        <time>2025-04-26T08:38:19Z</time>
      </trkpt>
      <trkpt lat="45.27221" lon="-1.14142">
        <ele>75</ele>
        <time>2025-04-26T08:38:20Z</time>
      </trkpt>
      <trkpt lat="45.27225" lon="-1.1414">
        <ele>76</ele>
        <time>2025-04-26T08:38:21Z</time>
      </trkpt>
      <trkpt lat="45.27229" lon="-1.14139">
        <ele>76</ele>
        <time>2025-04-26T08:38:22Z</time>
      </trkpt>
      <trkpt lat="45.27232" lon="-1.14136">
        <ele>76</ele>
        <time>2025-04-26T08:38:23Z</time>
      </trkpt>
      <trkpt lat="45.27237" lon="-1.14135">
        <ele>76</ele>
        <time>2025-04-26T08:38:24Z</time>
      </trkpt>
      <trkpt lat="45.2724" lon="-1.14135">
        <ele>77</ele>
        <time>2025-04-26T08:38:25Z</time>
      </trkpt>
      <trkpt lat="45.27244" lon="-1.14133">
        <ele>77</ele>
        <time>2025-04-26T08:38:26Z</time>
      </trkpt>
      <trkpt lat="45.27248" lon="-1.14131">
        <ele>76</ele>
        <time>2025-04-26T08:38:27Z</time>
      </trkpt>
      <trkpt lat="45.27252" lon="-1.1413">
        <ele>76</ele>
        <time>2025-04-26T08:38:28Z</time>
      </trkpt>
      <trkpt lat="45.27256" lon="-1.14128">
        <ele>76</ele>
        <time>2025-04-26T08:38:29Z</time>
      </trkpt>
      <trkpt lat="45.2726" lon="-1.14127">
        <ele>76</ele>
        <time>2025-04-26T08:38:30Z</time>
      </trkpt>
      <trkpt lat="45.27264" lon="-1.14126">
        <ele>76</ele>
        <time>2025-04-26T08:38:31Z</time>
      </trkpt>
      <trkpt lat="45.27268" lon="-1.14125">
        <ele>76</ele>
        <time>2025-04-26T08:38:32Z</time>
      </trkpt>
      <trkpt lat="45.27272" lon="-1.14124">
        <ele>76</ele>
        <time>2025-04-26T08:38:33Z</time>
      </trkpt>
      <trkpt lat="45.27276" lon="-1.14122">
        <ele>76</ele>
        <time>2025-04-26T08:38:34Z</time>
      </trkpt>
      <trkpt lat="45.2728" lon="-1.1412">
        <ele>77</ele>
        <time>2025-04-26T08:38:35Z</time>
      </trkpt>
      <trkpt lat="45.27283" lon="-1.14118">
        <ele>77</ele>
        <time>2025-04-26T08:38:36Z</time>
      </trkpt>
      <trkpt lat="45.27287" lon="-1.14117">
        <ele>77</ele>
        <time>2025-04-26T08:38:37Z</time>
      </trkpt>
      <trkpt lat="45.27292" lon="-1.14117">
        <ele>77</ele>
        <time>2025-04-26T08:38:38Z</time>
      </trkpt>
      <trkpt lat="45.27296" lon="-1.14116">
        <ele>76</ele>
        <time>2025-04-26T08:38:39Z</time>
      </trkpt>
      <trkpt lat="45.273" lon="-1.14115">
        <ele>76</ele>
        <time>2025-04-26T08:38:40Z</time>
      </trkpt>
      <trkpt lat="45.27303" lon="-1.14114">
        <ele>76</ele>
        <time>2025-04-26T08:38:41Z</time>
      </trkpt>
      <trkpt lat="45.27307" lon="-1.14112">
        <ele>75</ele>
        <time>2025-04-26T08:38:42Z</time>
      </trkpt>
      <trkpt lat="45.27311" lon="-1.14111">
        <ele>75</ele>
        <time>2025-04-26T08:38:43Z</time>
      </trkpt>
      <trkpt lat="45.27314" lon="-1.14109">
        <ele>75</ele>
        <time>2025-04-26T08:38:44Z</time>
      </trkpt>
      <trkpt lat="45.27318" lon="-1.14107">
        <ele>75</ele>
        <time>2025-04-26T08:38:45Z</time>
      </trkpt>
      <trkpt lat="45.27321" lon="-1.14106">
        <ele>74</ele>
        <time>2025-04-26T08:38:46Z</time>
      </trkpt>
      <trkpt lat="45.27325" lon="-1.14105">
        <ele>74</ele>
        <time>2025-04-26T08:38:47Z</time>
      </trkpt>
      <trkpt lat="45.27329" lon="-1.14104">
        <ele>74</ele>
        <time>2025-04-26T08:38:48Z</time>
      </trkpt>
      <trkpt lat="45.27332" lon="-1.14102">
        <ele>74</ele>
        <time>2025-04-26T08:38:49Z</time>
      </trkpt>
      <trkpt lat="45.27336" lon="-1.14101">
        <ele>75</ele>
        <time>2025-04-26T08:38:50Z</time>
      </trkpt>
      <trkpt lat="45.27339" lon="-1.141">
        <ele>74</ele>
        <time>2025-04-26T08:38:51Z</time>
      </trkpt>
      <trkpt lat="45.27343" lon="-1.14098">
        <ele>73</ele>
        <time>2025-04-26T08:38:52Z</time>
      </trkpt>
      <trkpt lat="45.27347" lon="-1.14096">
        <ele>73</ele>
        <time>2025-04-26T08:38:53Z</time>
      </trkpt>
      <trkpt lat="45.27351" lon="-1.14095">
        <ele>73</ele>
        <time>2025-04-26T08:38:54Z</time>
      </trkpt>
      <trkpt lat="45.27355" lon="-1.14094">
        <ele>73</ele>
        <time>2025-04-26T08:38:55Z</time>
      </trkpt>
      <trkpt lat="45.27359" lon="-1.14093">
        <ele>73</ele>
        <time>2025-04-26T08:38:56Z</time>
      </trkpt>
      <trkpt lat="45.27363" lon="-1.14091">
        <ele>73</ele>
        <time>2025-04-26T08:38:57Z</time>
      </trkpt>
      <trkpt lat="45.27366" lon="-1.1409">
        <ele>73</ele>
        <time>2025-04-26T08:38:58Z</time>
      </trkpt>
      <trkpt lat="45.2737" lon="-1.14089">
        <ele>73</ele>
        <time>2025-04-26T08:38:59Z</time>
      </trkpt>
      <trkpt lat="45.27374" lon="-1.14088">
        <ele>73</ele>
        <time>2025-04-26T08:39:00Z</time>
      </trkpt>
      <trkpt lat="45.27378" lon="-1.14086">
        <ele>74</ele>
        <time>2025-04-26T08:39:01Z</time>
      </trkpt>
      <trkpt lat="45.27383" lon="-1.14084">
        <ele>73</ele>
        <time>2025-04-26T08:39:02Z</time>
      </trkpt>
      <trkpt lat="45.27387" lon="-1.14082">
        <ele>73</ele>
        <time>2025-04-26T08:39:03Z</time>
      </trkpt>
      <trkpt lat="45.2739" lon="-1.1408">
        <ele>74</ele>
        <time>2025-04-26T08:39:04Z</time>
      </trkpt>
      <trkpt lat="45.27394" lon="-1.14078">
        <ele>75</ele>
        <time>2025-04-26T08:39:05Z</time>
      </trkpt>
      <trkpt lat="45.27398" lon="-1.14077">
        <ele>76</ele>
        <time>2025-04-26T08:39:06Z</time>
      </trkpt>
      <trkpt lat="45.27402" lon="-1.14075">
        <ele>77</ele>
        <time>2025-04-26T08:39:07Z</time>
      </trkpt>
      <trkpt lat="45.27406" lon="-1.14074">
        <ele>77</ele>
        <time>2025-04-26T08:39:08Z</time>
      </trkpt>
      <trkpt lat="45.27411" lon="-1.14073">
        <ele>78</ele>
        <time>2025-04-26T08:39:09Z</time>
      </trkpt>
      <trkpt lat="45.27415" lon="-1.14071">
        <ele>78</ele>
        <time>2025-04-26T08:39:10Z</time>
      </trkpt>
      <trkpt lat="45.27419" lon="-1.1407">
        <ele>79</ele>
        <time>2025-04-26T08:39:11Z</time>
      </trkpt>
      <trkpt lat="45.27423" lon="-1.14068">
        <ele>79</ele>
        <time>2025-04-26T08:39:12Z</time>
      </trkpt>
      <trkpt lat="45.27426" lon="-1.14066">
        <ele>79</ele>
        <time>2025-04-26T08:39:13Z</time>
      </trkpt>
      <trkpt lat="45.2743" lon="-1.14065">
        <ele>79</ele>
        <time>2025-04-26T08:39:14Z</time>
      </trkpt>
      <trkpt lat="45.27434" lon="-1.14063">
        <ele>80</ele>
        <time>2025-04-26T08:39:15Z</time>
      </trkpt>
      <trkpt lat="45.27438" lon="-1.14061">
        <ele>80</ele>
        <time>2025-04-26T08:39:16Z</time>
      </trkpt>
      <trkpt lat="45.27442" lon="-1.14059">
        <ele>80</ele>
        <time>2025-04-26T08:39:17Z</time>
      </trkpt>
      <trkpt lat="45.27446" lon="-1.14057">
        <ele>80</ele>
        <time>2025-04-26T08:39:18Z</time>
      </trkpt>
      <trkpt lat="45.2745" lon="-1.14056">
        <ele>80</ele>
        <time>2025-04-26T08:39:19Z</time>
      </trkpt>
      <trkpt lat="45.27454" lon="-1.14055">
        <ele>81</ele>
        <time>2025-04-26T08:39:20Z</time>
      </trkpt>
      <trkpt lat="45.27458" lon="-1.14053">
        <ele>80</ele>
        <time>2025-04-26T08:39:21Z</time>
      </trkpt>
      <trkpt lat="45.27462" lon="-1.14052">
        <ele>80</ele>
        <time>2025-04-26T08:39:22Z</time>
      </trkpt>
      <trkpt lat="45.27466" lon="-1.14051">
        <ele>80</ele>
        <time>2025-04-26T08:39:23Z</time>
      </trkpt>
      <trkpt lat="45.27469" lon="-1.14049">
        <ele>80</ele>
        <time>2025-04-26T08:39:24Z</time>
      </trkpt>
      <trkpt lat="45.27474" lon="-1.14049">
        <ele>80</ele>
        <time>2025-04-26T08:39:25Z</time>
      </trkpt>
      <trkpt lat="45.27478" lon="-1.14048">
        <ele>80</ele>
        <time>2025-04-26T08:39:26Z</time>
      </trkpt>
      <trkpt lat="45.27482" lon="-1.14047">
        <ele>79</ele>
        <time>2025-04-26T08:39:27Z</time>
      </trkpt>
      <trkpt lat="45.27486" lon="-1.14045">
        <ele>79</ele>
        <time>2025-04-26T08:39:28Z</time>
      </trkpt>
      <trkpt lat="45.2749" lon="-1.14044">
        <ele>79</ele>
        <time>2025-04-26T08:39:29Z</time>
      </trkpt>
      <trkpt lat="45.27494" lon="-1.14043">
        <ele>78</ele>
        <time>2025-04-26T08:39:30Z</time>
      </trkpt>
      <trkpt lat="45.27498" lon="-1.14042">
        <ele>78</ele>
        <time>2025-04-26T08:39:31Z</time>
      </trkpt>
      <trkpt lat="45.27502" lon="-1.14041">
        <ele>78</ele>
        <time>2025-04-26T08:39:32Z</time>
      </trkpt>
      <trkpt lat="45.27506" lon="-1.1404">
        <ele>78</ele>
        <time>2025-04-26T08:39:33Z</time>
      </trkpt>
      <trkpt lat="45.2751" lon="-1.14039">
        <ele>78</ele>
        <time>2025-04-26T08:39:34Z</time>
      </trkpt>
      <trkpt lat="45.27514" lon="-1.14038">
        <ele>78</ele>
        <time>2025-04-26T08:39:35Z</time>
      </trkpt>
      <trkpt lat="45.27518" lon="-1.14036">
        <ele>78</ele>
        <time>2025-04-26T08:39:36Z</time>
      </trkpt>
      <trkpt lat="45.27521" lon="-1.14035">
        <ele>77</ele>
        <time>2025-04-26T08:39:37Z</time>
      </trkpt>
      <trkpt lat="45.27525" lon="-1.14033">
        <ele>77</ele>
        <time>2025-04-26T08:39:38Z</time>
      </trkpt>
      <trkpt lat="45.27529" lon="-1.14032">
        <ele>77</ele>
        <time>2025-04-26T08:39:39Z</time>
      </trkpt>
      <trkpt lat="45.27533" lon="-1.1403">
        <ele>77</ele>
        <time>2025-04-26T08:39:40Z</time>
      </trkpt>
      <trkpt lat="45.27537" lon="-1.14029">
        <ele>76</ele>
        <time>2025-04-26T08:39:41Z</time>
      </trkpt>
      <trkpt lat="45.27541" lon="-1.14027">
        <ele>75</ele>
        <time>2025-04-26T08:39:42Z</time>
      </trkpt>
      <trkpt lat="45.27545" lon="-1.14026">
        <ele>74</ele>
        <time>2025-04-26T08:39:43Z</time>
      </trkpt>
      <trkpt lat="45.27548" lon="-1.14024">
        <ele>74</ele>
        <time>2025-04-26T08:39:44Z</time>
      </trkpt>
      <trkpt lat="45.27552" lon="-1.14023">
        <ele>74</ele>
        <time>2025-04-26T08:39:45Z</time>
      </trkpt>
      <trkpt lat="45.27556" lon="-1.14021">
        <ele>75</ele>
        <time>2025-04-26T08:39:46Z</time>
      </trkpt>
      <trkpt lat="45.2756" lon="-1.14019">
        <ele>75</ele>
        <time>2025-04-26T08:39:47Z</time>
      </trkpt>
      <trkpt lat="45.27563" lon="-1.14018">
        <ele>75</ele>
        <time>2025-04-26T08:39:48Z</time>
      </trkpt>
      <trkpt lat="45.27567" lon="-1.14016">
        <ele>75</ele>
        <time>2025-04-26T08:39:49Z</time>
      </trkpt>
      <trkpt lat="45.27571" lon="-1.14014">
        <ele>75</ele>
        <time>2025-04-26T08:39:50Z</time>
      </trkpt>
      <trkpt lat="45.27575" lon="-1.14013">
        <ele>76</ele>
        <time>2025-04-26T08:39:51Z</time>
      </trkpt>
      <trkpt lat="45.27579" lon="-1.14012">
        <ele>75</ele>
        <time>2025-04-26T08:39:52Z</time>
      </trkpt>
      <trkpt lat="45.27582" lon="-1.14011">
        <ele>75</ele>
        <time>2025-04-26T08:39:53Z</time>
      </trkpt>
      <trkpt lat="45.27586" lon="-1.1401">
        <ele>76</ele>
        <time>2025-04-26T08:39:54Z</time>
      </trkpt>
      <trkpt lat="45.2759" lon="-1.14008">
        <ele>76</ele>
        <time>2025-04-26T08:39:55Z</time>
      </trkpt>
      <trkpt lat="45.27594" lon="-1.14007">
        <ele>76</ele>
        <time>2025-04-26T08:39:56Z</time>
      </trkpt>
      <trkpt lat="45.27598" lon="-1.14005">
        <ele>77</ele>
        <time>2025-04-26T08:39:57Z</time>
      </trkpt>
      <trkpt lat="45.27602" lon="-1.14003">
        <ele>77</ele>
        <time>2025-04-26T08:39:58Z</time>
      </trkpt>
      <trkpt lat="45.27606" lon="-1.14001">
        <ele>77</ele>
        <time>2025-04-26T08:39:59Z</time>
      </trkpt>
      <trkpt lat="45.2761" lon="-1.14">
        <ele>77</ele>
        <time>2025-04-26T08:40:00Z</time>
      </trkpt>
      <trkpt lat="45.27614" lon="-1.13998">
        <ele>77</ele>
        <time>2025-04-26T08:40:01Z</time>
      </trkpt>
      <trkpt lat="45.27618" lon="-1.13997">
        <ele>77</ele>
        <time>2025-04-26T08:40:02Z</time>
      </trkpt>
      <trkpt lat="45.27622" lon="-1.13995">
        <ele>77</ele>
        <time>2025-04-26T08:40:03Z</time>
      </trkpt>
      <trkpt lat="45.27626" lon="-1.13994">
        <ele>77</ele>
        <time>2025-04-26T08:40:04Z</time>
      </trkpt>
      <trkpt lat="45.2763" lon="-1.13992">
        <ele>77</ele>
        <time>2025-04-26T08:40:05Z</time>
      </trkpt>
      <trkpt lat="45.27634" lon="-1.1399">
        <ele>78</ele>
        <time>2025-04-26T08:40:06Z</time>
      </trkpt>
      <trkpt lat="45.27638" lon="-1.13989">
        <ele>78</ele>
        <time>2025-04-26T08:40:07Z</time>
      </trkpt>
      <trkpt lat="45.27642" lon="-1.13988">
        <ele>78</ele>
        <time>2025-04-26T08:40:08Z</time>
      </trkpt>
      <trkpt lat="45.27646" lon="-1.13987">
        <ele>77</ele>
        <time>2025-04-26T08:40:09Z</time>
      </trkpt>
      <trkpt lat="45.2765" lon="-1.13986">
        <ele>77</ele>
        <time>2025-04-26T08:40:10Z</time>
      </trkpt>
      <trkpt lat="45.27654" lon="-1.13984">
        <ele>77</ele>
        <time>2025-04-26T08:40:11Z</time>
      </trkpt>
      <trkpt lat="45.27659" lon="-1.13983">
        <ele>76</ele>
        <time>2025-04-26T08:40:12Z</time>
      </trkpt>
      <trkpt lat="45.27663" lon="-1.13981">
        <ele>76</ele>
        <time>2025-04-26T08:40:13Z</time>
      </trkpt>
      <trkpt lat="45.27667" lon="-1.1398">
        <ele>76</ele>
        <time>2025-04-26T08:40:14Z</time>
      </trkpt>
      <trkpt lat="45.27671" lon="-1.13978">
        <ele>76</ele>
        <time>2025-04-26T08:40:15Z</time>
      </trkpt>
      <trkpt lat="45.27676" lon="-1.13976">
        <ele>76</ele>
        <time>2025-04-26T08:40:16Z</time>
      </trkpt>
      <trkpt lat="45.2768" lon="-1.13974">
        <ele>76</ele>
        <time>2025-04-26T08:40:17Z</time>
      </trkpt>
      <trkpt lat="45.27683" lon="-1.13972">
        <ele>76</ele>
        <time>2025-04-26T08:40:18Z</time>
      </trkpt>
      <trkpt lat="45.27687" lon="-1.1397">
        <ele>76</ele>
        <time>2025-04-26T08:40:19Z</time>
      </trkpt>
      <trkpt lat="45.27691" lon="-1.13969">
        <ele>76</ele>
        <time>2025-04-26T08:40:20Z</time>
      </trkpt>
      <trkpt lat="45.27695" lon="-1.13967">
        <ele>76</ele>
        <time>2025-04-26T08:40:21Z</time>
      </trkpt>
      <trkpt lat="45.27699" lon="-1.13965">
        <ele>76</ele>
        <time>2025-04-26T08:40:22Z</time>
      </trkpt>
      <trkpt lat="45.27702" lon="-1.13964">
        <ele>76</ele>
        <time>2025-04-26T08:40:23Z</time>
      </trkpt>
      <trkpt lat="45.27706" lon="-1.13962">
        <ele>76</ele>
        <time>2025-04-26T08:40:24Z</time>
      </trkpt>
      <trkpt lat="45.2771" lon="-1.1396">
        <ele>76</ele>
        <time>2025-04-26T08:40:25Z</time>
      </trkpt>
      <trkpt lat="45.27714" lon="-1.1396">
        <ele>77</ele>
        <time>2025-04-26T08:40:26Z</time>
      </trkpt>
      <trkpt lat="45.27718" lon="-1.13959">
        <ele>76</ele>
        <time>2025-04-26T08:40:27Z</time>
      </trkpt>
      <trkpt lat="45.27722" lon="-1.13957">
        <ele>76</ele>
        <time>2025-04-26T08:40:28Z</time>
      </trkpt>
      <trkpt lat="45.27726" lon="-1.13956">
        <ele>76</ele>
        <time>2025-04-26T08:40:29Z</time>
      </trkpt>
      <trkpt lat="45.2773" lon="-1.13955">
        <ele>76</ele>
        <time>2025-04-26T08:40:30Z</time>
      </trkpt>
      <trkpt lat="45.27734" lon="-1.13953">
        <ele>76</ele>
        <time>2025-04-26T08:40:31Z</time>
      </trkpt>
      <trkpt lat="45.27738" lon="-1.13951">
        <ele>76</ele>
        <time>2025-04-26T08:40:32Z</time>
      </trkpt>
      <trkpt lat="45.27742" lon="-1.13949">
        <ele>76</ele>
        <time>2025-04-26T08:40:33Z</time>
      </trkpt>
      <trkpt lat="45.27746" lon="-1.13947">
        <ele>77</ele>
        <time>2025-04-26T08:40:34Z</time>
      </trkpt>
      <trkpt lat="45.2775" lon="-1.13946">
        <ele>77</ele>
        <time>2025-04-26T08:40:35Z</time>
      </trkpt>
      <trkpt lat="45.27754" lon="-1.13945">
        <ele>76</ele>
        <time>2025-04-26T08:40:36Z</time>
      </trkpt>
      <trkpt lat="45.27757" lon="-1.13944">
        <ele>76</ele>
        <time>2025-04-26T08:40:37Z</time>
      </trkpt>
      <trkpt lat="45.27761" lon="-1.13944">
        <ele>76</ele>
        <time>2025-04-26T08:40:38Z</time>
      </trkpt>
      <trkpt lat="45.27766" lon="-1.13943">
        <ele>76</ele>
        <time>2025-04-26T08:40:39Z</time>
      </trkpt>
      <trkpt lat="45.2777" lon="-1.13941">
        <ele>76</ele>
        <time>2025-04-26T08:40:40Z</time>
      </trkpt>
      <trkpt lat="45.27774" lon="-1.1394">
        <ele>76</ele>
        <time>2025-04-26T08:40:41Z</time>
      </trkpt>
      <trkpt lat="45.27778" lon="-1.13938">
        <ele>76</ele>
        <time>2025-04-26T08:40:42Z</time>
      </trkpt>
      <trkpt lat="45.27782" lon="-1.13937">
        <ele>76</ele>
        <time>2025-04-26T08:40:43Z</time>
      </trkpt>
      <trkpt lat="45.27786" lon="-1.13936">
        <ele>77</ele>
        <time>2025-04-26T08:40:44Z</time>
      </trkpt>
      <trkpt lat="45.2779" lon="-1.13934">
        <ele>77</ele>
        <time>2025-04-26T08:40:45Z</time>
      </trkpt>
      <trkpt lat="45.27794" lon="-1.13933">
        <ele>76</ele>
        <time>2025-04-26T08:40:46Z</time>
      </trkpt>
      <trkpt lat="45.27798" lon="-1.13932">
        <ele>76</ele>
        <time>2025-04-26T08:40:47Z</time>
      </trkpt>
      <trkpt lat="45.27802" lon="-1.13931">
        <ele>76</ele>
        <time>2025-04-26T08:40:48Z</time>
      </trkpt>
      <trkpt lat="45.27806" lon="-1.1393">
        <ele>75</ele>
        <time>2025-04-26T08:40:49Z</time>
      </trkpt>
      <trkpt lat="45.2781" lon="-1.13928">
        <ele>75</ele>
        <time>2025-04-26T08:40:50Z</time>
      </trkpt>
      <trkpt lat="45.27814" lon="-1.13927">
        <ele>75</ele>
        <time>2025-04-26T08:40:51Z</time>
      </trkpt>
      <trkpt lat="45.27817" lon="-1.13925">
        <ele>75</ele>
        <time>2025-04-26T08:40:52Z</time>
      </trkpt>
      <trkpt lat="45.27821" lon="-1.13923">
        <ele>74</ele>
        <time>2025-04-26T08:40:53Z</time>
      </trkpt>
      <trkpt lat="45.27824" lon="-1.13922">
        <ele>74</ele>
        <time>2025-04-26T08:40:54Z</time>
      </trkpt>
      <trkpt lat="45.27828" lon="-1.1392">
        <ele>75</ele>
        <time>2025-04-26T08:40:55Z</time>
      </trkpt>
      <trkpt lat="45.27833" lon="-1.13918">
        <ele>75</ele>
        <time>2025-04-26T08:40:56Z</time>
      </trkpt>
      <trkpt lat="45.27837" lon="-1.13917">
        <ele>75</ele>
        <time>2025-04-26T08:40:57Z</time>
      </trkpt>
      <trkpt lat="45.27841" lon="-1.13916">
        <ele>75</ele>
        <time>2025-04-26T08:40:58Z</time>
      </trkpt>
      <trkpt lat="45.27845" lon="-1.13914">
        <ele>74</ele>
        <time>2025-04-26T08:40:59Z</time>
      </trkpt>
      <trkpt lat="45.27849" lon="-1.13913">
        <ele>75</ele>
        <time>2025-04-26T08:41:00Z</time>
      </trkpt>
      <trkpt lat="45.27853" lon="-1.13911">
        <ele>75</ele>
        <time>2025-04-26T08:41:01Z</time>
      </trkpt>
      <trkpt lat="45.27857" lon="-1.1391">
        <ele>75</ele>
        <time>2025-04-26T08:41:02Z</time>
      </trkpt>
      <trkpt lat="45.27861" lon="-1.13908">
        <ele>75</ele>
        <time>2025-04-26T08:41:03Z</time>
      </trkpt>
      <trkpt lat="45.27865" lon="-1.13907">
        <ele>75</ele>
        <time>2025-04-26T08:41:04Z</time>
      </trkpt>
      <trkpt lat="45.27868" lon="-1.13905">
        <ele>75</ele>
        <time>2025-04-26T08:41:05Z</time>
      </trkpt>
      <trkpt lat="45.27872" lon="-1.13903">
        <ele>75</ele>
        <time>2025-04-26T08:41:06Z</time>
      </trkpt>
      <trkpt lat="45.27876" lon="-1.13902">
        <ele>76</ele>
        <time>2025-04-26T08:41:07Z</time>
      </trkpt>
      <trkpt lat="45.2788" lon="-1.139">
        <ele>76</ele>
        <time>2025-04-26T08:41:08Z</time>
      </trkpt>
      <trkpt lat="45.27884" lon="-1.13899">
        <ele>77</ele>
        <time>2025-04-26T08:41:09Z</time>
      </trkpt>
      <trkpt lat="45.27888" lon="-1.13898">
        <ele>77</ele>
        <time>2025-04-26T08:41:10Z</time>
      </trkpt>
      <trkpt lat="45.27892" lon="-1.13896">
        <ele>77</ele>
        <time>2025-04-26T08:41:11Z</time>
      </trkpt>
      <trkpt lat="45.27896" lon="-1.13895">
        <ele>76</ele>
        <time>2025-04-26T08:41:12Z</time>
      </trkpt>
      <trkpt lat="45.279" lon="-1.13894">
        <ele>76</ele>
        <time>2025-04-26T08:41:13Z</time>
      </trkpt>
      <trkpt lat="45.27904" lon="-1.13893">
        <ele>76</ele>
        <time>2025-04-26T08:41:14Z</time>
      </trkpt>
      <trkpt lat="45.27909" lon="-1.13892">
        <ele>76</ele>
        <time>2025-04-26T08:41:15Z</time>
      </trkpt>
      <trkpt lat="45.27913" lon="-1.13891">
        <ele>76</ele>
        <time>2025-04-26T08:41:16Z</time>
      </trkpt>
      <trkpt lat="45.27917" lon="-1.13888">
        <ele>76</ele>
        <time>2025-04-26T08:41:17Z</time>
      </trkpt>
      <trkpt lat="45.27921" lon="-1.13886">
        <ele>76</ele>
        <time>2025-04-26T08:41:18Z</time>
      </trkpt>
      <trkpt lat="45.27925" lon="-1.13885">
        <ele>76</ele>
        <time>2025-04-26T08:41:19Z</time>
      </trkpt>
      <trkpt lat="45.27929" lon="-1.13882">
        <ele>76</ele>
        <time>2025-04-26T08:41:20Z</time>
      </trkpt>
      <trkpt lat="45.27933" lon="-1.13881">
        <ele>77</ele>
        <time>2025-04-26T08:41:21Z</time>
      </trkpt>
      <trkpt lat="45.27937" lon="-1.13878">
        <ele>77</ele>
        <time>2025-04-26T08:41:22Z</time>
      </trkpt>
      <trkpt lat="45.27941" lon="-1.13877">
        <ele>76</ele>
        <time>2025-04-26T08:41:23Z</time>
      </trkpt>
      <trkpt lat="45.27945" lon="-1.13875">
        <ele>77</ele>
        <time>2025-04-26T08:41:24Z</time>
      </trkpt>
      <trkpt lat="45.27949" lon="-1.13874">
        <ele>77</ele>
        <time>2025-04-26T08:41:25Z</time>
      </trkpt>
      <trkpt lat="45.27954" lon="-1.13872">
        <ele>78</ele>
        <time>2025-04-26T08:41:26Z</time>
      </trkpt>
      <trkpt lat="45.27958" lon="-1.13871">
        <ele>79</ele>
        <time>2025-04-26T08:41:27Z</time>
      </trkpt>
      <trkpt lat="45.27961" lon="-1.1387">
        <ele>79</ele>
        <time>2025-04-26T08:41:28Z</time>
      </trkpt>
      <trkpt lat="45.27965" lon="-1.13869">
        <ele>80</ele>
        <time>2025-04-26T08:41:29Z</time>
      </trkpt>
      <trkpt lat="45.27969" lon="-1.13868">
        <ele>80</ele>
        <time>2025-04-26T08:41:30Z</time>
      </trkpt>
      <trkpt lat="45.27973" lon="-1.13867">
        <ele>80</ele>
        <time>2025-04-26T08:41:31Z</time>
      </trkpt>
      <trkpt lat="45.27977" lon="-1.13866">
        <ele>80</ele>
        <time>2025-04-26T08:41:32Z</time>
      </trkpt>
      <trkpt lat="45.27981" lon="-1.13864">
        <ele>80</ele>
        <time>2025-04-26T08:41:33Z</time>
      </trkpt>
      <trkpt lat="45.27986" lon="-1.13862">
        <ele>80</ele>
        <time>2025-04-26T08:41:34Z</time>
      </trkpt>
      <trkpt lat="45.2799" lon="-1.1386">
        <ele>79</ele>
        <time>2025-04-26T08:41:35Z</time>
      </trkpt>
      <trkpt lat="45.27994" lon="-1.13859">
        <ele>79</ele>
        <time>2025-04-26T08:41:36Z</time>
      </trkpt>
      <trkpt lat="45.27998" lon="-1.13857">
        <ele>79</ele>
        <time>2025-04-26T08:41:37Z</time>
      </trkpt>
      <trkpt lat="45.28002" lon="-1.13855">
        <ele>78</ele>
        <time>2025-04-26T08:41:38Z</time>
      </trkpt>
      <trkpt lat="45.28006" lon="-1.13853">
        <ele>79</ele>
        <time>2025-04-26T08:41:39Z</time>
      </trkpt>
      <trkpt lat="45.2801" lon="-1.13852">
        <ele>78</ele>
        <time>2025-04-26T08:41:40Z</time>
      </trkpt>
      <trkpt lat="45.28015" lon="-1.13851">
        <ele>77</ele>
        <time>2025-04-26T08:41:41Z</time>
      </trkpt>
      <trkpt lat="45.28019" lon="-1.1385">
        <ele>77</ele>
        <time>2025-04-26T08:41:42Z</time>
      </trkpt>
      <trkpt lat="45.28023" lon="-1.13848">
        <ele>76</ele>
        <time>2025-04-26T08:41:43Z</time>
      </trkpt>
      <trkpt lat="45.28027" lon="-1.13847">
        <ele>76</ele>
        <time>2025-04-26T08:41:44Z</time>
      </trkpt>
      <trkpt lat="45.28031" lon="-1.13846">
        <ele>77</ele>
        <time>2025-04-26T08:41:45Z</time>
      </trkpt>
      <trkpt lat="45.28035" lon="-1.13844">
        <ele>76</ele>
        <time>2025-04-26T08:41:46Z</time>
      </trkpt>
      <trkpt lat="45.28039" lon="-1.13843">
        <ele>76</ele>
        <time>2025-04-26T08:41:47Z</time>
      </trkpt>
      <trkpt lat="45.28043" lon="-1.13842">
        <ele>76</ele>
        <time>2025-04-26T08:41:48Z</time>
      </trkpt>
      <trkpt lat="45.28047" lon="-1.1384">
        <ele>76</ele>
        <time>2025-04-26T08:41:49Z</time>
      </trkpt>
      <trkpt lat="45.28051" lon="-1.13838">
        <ele>76</ele>
        <time>2025-04-26T08:41:50Z</time>
      </trkpt>
      <trkpt lat="45.28055" lon="-1.13836">
        <ele>77</ele>
        <time>2025-04-26T08:41:51Z</time>
      </trkpt>
      <trkpt lat="45.28059" lon="-1.13835">
        <ele>76</ele>
        <time>2025-04-26T08:41:52Z</time>
      </trkpt>
      <trkpt lat="45.28063" lon="-1.13835">
        <ele>76</ele>
        <time>2025-04-26T08:41:53Z</time>
      </trkpt>
      <trkpt lat="45.28067" lon="-1.13833">
        <ele>76</ele>
        <time>2025-04-26T08:41:54Z</time>
      </trkpt>
      <trkpt lat="45.28071" lon="-1.13831">
        <ele>76</ele>
        <time>2025-04-26T08:41:55Z</time>
      </trkpt>
      <trkpt lat="45.28074" lon="-1.13828">
        <ele>77</ele>
        <time>2025-04-26T08:41:56Z</time>
      </trkpt>
      <trkpt lat="45.28078" lon="-1.13826">
        <ele>77</ele>
        <time>2025-04-26T08:41:57Z</time>
      </trkpt>
      <trkpt lat="45.28082" lon="-1.13824">
        <ele>78</ele>
        <time>2025-04-26T08:41:58Z</time>
      </trkpt>
      <trkpt lat="45.28087" lon="-1.13823">
        <ele>79</ele>
        <time>2025-04-26T08:41:59Z</time>
      </trkpt>
      <trkpt lat="45.2809" lon="-1.13822">
        <ele>80</ele>
        <time>2025-04-26T08:42:00Z</time>
      </trkpt>
      <trkpt lat="45.28094" lon="-1.13821">
        <ele>80</ele>
        <time>2025-04-26T08:42:01Z</time>
      </trkpt>
      <trkpt lat="45.28098" lon="-1.1382">
        <ele>81</ele>
        <time>2025-04-26T08:42:02Z</time>
      </trkpt>
      <trkpt lat="45.28102" lon="-1.13819">
        <ele>80</ele>
        <time>2025-04-26T08:42:03Z</time>
      </trkpt>
      <trkpt lat="45.28106" lon="-1.13817">
        <ele>81</ele>
        <time>2025-04-26T08:42:04Z</time>
      </trkpt>
      <trkpt lat="45.2811" lon="-1.13816">
        <ele>81</ele>
        <time>2025-04-26T08:42:05Z</time>
      </trkpt>
      <trkpt lat="45.28114" lon="-1.13814">
        <ele>81</ele>
        <time>2025-04-26T08:42:06Z</time>
      </trkpt>
      <trkpt lat="45.28117" lon="-1.13813">
        <ele>81</ele>
        <time>2025-04-26T08:42:07Z</time>
      </trkpt>
      <trkpt lat="45.28121" lon="-1.13811">
        <ele>81</ele>
        <time>2025-04-26T08:42:08Z</time>
      </trkpt>
      <trkpt lat="45.28125" lon="-1.13809">
        <ele>81</ele>
        <time>2025-04-26T08:42:09Z</time>
      </trkpt>
      <trkpt lat="45.28129" lon="-1.13808">
        <ele>81</ele>
        <time>2025-04-26T08:42:10Z</time>
      </trkpt>
      <trkpt lat="45.28134" lon="-1.13807">
        <ele>81</ele>
        <time>2025-04-26T08:42:11Z</time>
      </trkpt>
      <trkpt lat="45.28138" lon="-1.13805">
        <ele>81</ele>
        <time>2025-04-26T08:42:12Z</time>
      </trkpt>
      <trkpt lat="45.28142" lon="-1.13803">
        <ele>80</ele>
        <time>2025-04-26T08:42:13Z</time>
      </trkpt>
      <trkpt lat="45.28147" lon="-1.13801">
        <ele>80</ele>
        <time>2025-04-26T08:42:14Z</time>
      </trkpt>
      <trkpt lat="45.28151" lon="-1.13799">
        <ele>79</ele>
        <time>2025-04-26T08:42:15Z</time>
      </trkpt>
      <trkpt lat="45.28156" lon="-1.13797">
        <ele>79</ele>
        <time>2025-04-26T08:42:16Z</time>
      </trkpt>
      <trkpt lat="45.2816" lon="-1.13796">
        <ele>78</ele>
        <time>2025-04-26T08:42:17Z</time>
      </trkpt>
      <trkpt lat="45.28164" lon="-1.13795">
        <ele>77</ele>
        <time>2025-04-26T08:42:18Z</time>
      </trkpt>
      <trkpt lat="45.28169" lon="-1.13794">
        <ele>76</ele>
        <time>2025-04-26T08:42:19Z</time>
      </trkpt>
      <trkpt lat="45.28173" lon="-1.13793">
        <ele>75</ele>
        <time>2025-04-26T08:42:20Z</time>
      </trkpt>
      <trkpt lat="45.28178" lon="-1.13791">
        <ele>74</ele>
        <time>2025-04-26T08:42:21Z</time>
      </trkpt>
      <trkpt lat="45.28182" lon="-1.1379">
        <ele>74</ele>
        <time>2025-04-26T08:42:22Z</time>
      </trkpt>
      <trkpt lat="45.28186" lon="-1.13789">
        <ele>74</ele>
        <time>2025-04-26T08:42:23Z</time>
      </trkpt>
      <trkpt lat="45.2819" lon="-1.13788">
        <ele>74</ele>
        <time>2025-04-26T08:42:24Z</time>
      </trkpt>
      <trkpt lat="45.28195" lon="-1.13788">
        <ele>74</ele>
        <time>2025-04-26T08:42:25Z</time>
      </trkpt>
      <trkpt lat="45.28199" lon="-1.13787">
        <ele>75</ele>
        <time>2025-04-26T08:42:26Z</time>
      </trkpt>
      <trkpt lat="45.28203" lon="-1.13785">
        <ele>75</ele>
        <time>2025-04-26T08:42:27Z</time>
      </trkpt>
      <trkpt lat="45.28208" lon="-1.13783">
        <ele>75</ele>
        <time>2025-04-26T08:42:28Z</time>
      </trkpt>
      <trkpt lat="45.28211" lon="-1.13781">
        <ele>76</ele>
        <time>2025-04-26T08:42:29Z</time>
      </trkpt>
      <trkpt lat="45.28215" lon="-1.13779">
        <ele>76</ele>
        <time>2025-04-26T08:42:30Z</time>
      </trkpt>
      <trkpt lat="45.2822" lon="-1.13777">
        <ele>77</ele>
        <time>2025-04-26T08:42:31Z</time>
      </trkpt>
      <trkpt lat="45.28225" lon="-1.13776">
        <ele>77</ele>
        <time>2025-04-26T08:42:32Z</time>
      </trkpt>
      <trkpt lat="45.28229" lon="-1.13774">
        <ele>78</ele>
        <time>2025-04-26T08:42:33Z</time>
      </trkpt>
      <trkpt lat="45.28233" lon="-1.13773">
        <ele>79</ele>
        <time>2025-04-26T08:42:34Z</time>
      </trkpt>
      <trkpt lat="45.28237" lon="-1.13772">
        <ele>79</ele>
        <time>2025-04-26T08:42:35Z</time>
      </trkpt>
      <trkpt lat="45.28241" lon="-1.1377">
        <ele>80</ele>
        <time>2025-04-26T08:42:36Z</time>
      </trkpt>
      <trkpt lat="45.28245" lon="-1.13769">
        <ele>81</ele>
        <time>2025-04-26T08:42:37Z</time>
      </trkpt>
      <trkpt lat="45.28249" lon="-1.13767">
        <ele>81</ele>
        <time>2025-04-26T08:42:38Z</time>
      </trkpt>
      <trkpt lat="45.28253" lon="-1.13764">
        <ele>81</ele>
        <time>2025-04-26T08:42:39Z</time>
      </trkpt>
      <trkpt lat="45.28258" lon="-1.13763">
        <ele>81</ele>
        <time>2025-04-26T08:42:40Z</time>
      </trkpt>
      <trkpt lat="45.28262" lon="-1.13761">
        <ele>81</ele>
        <time>2025-04-26T08:42:41Z</time>
      </trkpt>
      <trkpt lat="45.28266" lon="-1.13758">
        <ele>81</ele>
        <time>2025-04-26T08:42:42Z</time>
      </trkpt>
      <trkpt lat="45.28269" lon="-1.13757">
        <ele>80</ele>
        <time>2025-04-26T08:42:43Z</time>
      </trkpt>
      <trkpt lat="45.28273" lon="-1.13757">
        <ele>80</ele>
        <time>2025-04-26T08:42:44Z</time>
      </trkpt>
      <trkpt lat="45.28277" lon="-1.13756">
        <ele>81</ele>
        <time>2025-04-26T08:42:45Z</time>
      </trkpt>
      <trkpt lat="45.28281" lon="-1.13755">
        <ele>81</ele>
        <time>2025-04-26T08:42:46Z</time>
      </trkpt>
      <trkpt lat="45.28285" lon="-1.13754">
        <ele>81</ele>
        <time>2025-04-26T08:42:47Z</time>
      </trkpt>
      <trkpt lat="45.28289" lon="-1.13753">
        <ele>81</ele>
        <time>2025-04-26T08:42:48Z</time>
      </trkpt>
      <trkpt lat="45.28293" lon="-1.13752">
        <ele>81</ele>
        <time>2025-04-26T08:42:49Z</time>
      </trkpt>
      <trkpt lat="45.28298" lon="-1.1375">
        <ele>81</ele>
        <time>2025-04-26T08:42:50Z</time>
      </trkpt>
      <trkpt lat="45.28302" lon="-1.13748">
        <ele>82</ele>
        <time>2025-04-26T08:42:51Z</time>
      </trkpt>
      <trkpt lat="45.28306" lon="-1.13747">
        <ele>82</ele>
        <time>2025-04-26T08:42:52Z</time>
      </trkpt>
      <trkpt lat="45.28311" lon="-1.13745">
        <ele>83</ele>
        <time>2025-04-26T08:42:53Z</time>
      </trkpt>
      <trkpt lat="45.28315" lon="-1.13744">
        <ele>83</ele>
        <time>2025-04-26T08:42:54Z</time>
      </trkpt>
      <trkpt lat="45.28319" lon="-1.13742">
        <ele>84</ele>
        <time>2025-04-26T08:42:55Z</time>
      </trkpt>
      <trkpt lat="45.28323" lon="-1.13741">
        <ele>84</ele>
        <time>2025-04-26T08:42:56Z</time>
      </trkpt>
      <trkpt lat="45.28327" lon="-1.1374">
        <ele>85</ele>
        <time>2025-04-26T08:42:57Z</time>
      </trkpt>
      <trkpt lat="45.28331" lon="-1.13739">
        <ele>86</ele>
        <time>2025-04-26T08:42:58Z</time>
      </trkpt>
      <trkpt lat="45.28335" lon="-1.13737">
        <ele>86</ele>
        <time>2025-04-26T08:42:59Z</time>
      </trkpt>
      <trkpt lat="45.2834" lon="-1.13736">
        <ele>87</ele>
        <time>2025-04-26T08:43:00Z</time>
      </trkpt>
      <trkpt lat="45.28345" lon="-1.13734">
        <ele>87</ele>
        <time>2025-04-26T08:43:01Z</time>
      </trkpt>
      <trkpt lat="45.28349" lon="-1.13731">
        <ele>88</ele>
        <time>2025-04-26T08:43:02Z</time>
      </trkpt>
      <trkpt lat="45.28353" lon="-1.13729">
        <ele>88</ele>
        <time>2025-04-26T08:43:03Z</time>
      </trkpt>
      <trkpt lat="45.28358" lon="-1.13727">
        <ele>88</ele>
        <time>2025-04-26T08:43:04Z</time>
      </trkpt>
      <trkpt lat="45.28362" lon="-1.13726">
        <ele>88</ele>
        <time>2025-04-26T08:43:05Z</time>
      </trkpt>
      <trkpt lat="45.28367" lon="-1.13724">
        <ele>88</ele>
        <time>2025-04-26T08:43:06Z</time>
      </trkpt>
      <trkpt lat="45.28371" lon="-1.13722">
        <ele>88</ele>
        <time>2025-04-26T08:43:07Z</time>
      </trkpt>
      <trkpt lat="45.28376" lon="-1.1372">
        <ele>87</ele>
        <time>2025-04-26T08:43:08Z</time>
      </trkpt>
      <trkpt lat="45.28379" lon="-1.13718">
        <ele>86</ele>
        <time>2025-04-26T08:43:09Z</time>
      </trkpt>
      <trkpt lat="45.28384" lon="-1.13716">
        <ele>85</ele>
        <time>2025-04-26T08:43:10Z</time>
      </trkpt>
      <trkpt lat="45.28388" lon="-1.13713">
        <ele>84</ele>
        <time>2025-04-26T08:43:11Z</time>
      </trkpt>
      <trkpt lat="45.28393" lon="-1.13711">
        <ele>84</ele>
        <time>2025-04-26T08:43:12Z</time>
      </trkpt>
      <trkpt lat="45.28396" lon="-1.13709">
        <ele>84</ele>
        <time>2025-04-26T08:43:13Z</time>
      </trkpt>
      <trkpt lat="45.284" lon="-1.13708">
        <ele>83</ele>
        <time>2025-04-26T08:43:14Z</time>
      </trkpt>
      <trkpt lat="45.28405" lon="-1.13706">
        <ele>83</ele>
        <time>2025-04-26T08:43:15Z</time>
      </trkpt>
      <trkpt lat="45.28409" lon="-1.13704">
        <ele>83</ele>
        <time>2025-04-26T08:43:16Z</time>
      </trkpt>
      <trkpt lat="45.28413" lon="-1.13702">
        <ele>83</ele>
        <time>2025-04-26T08:43:17Z</time>
      </trkpt>
      <trkpt lat="45.28418" lon="-1.137">
        <ele>83</ele>
        <time>2025-04-26T08:43:18Z</time>
      </trkpt>
      <trkpt lat="45.28423" lon="-1.13698">
        <ele>83</ele>
        <time>2025-04-26T08:43:19Z</time>
      </trkpt>
      <trkpt lat="45.28427" lon="-1.13697">
        <ele>82</ele>
        <time>2025-04-26T08:43:20Z</time>
      </trkpt>
      <trkpt lat="45.28432" lon="-1.13695">
        <ele>82</ele>
        <time>2025-04-26T08:43:21Z</time>
      </trkpt>
      <trkpt lat="45.28436" lon="-1.13694">
        <ele>81</ele>
        <time>2025-04-26T08:43:22Z</time>
      </trkpt>
      <trkpt lat="45.28441" lon="-1.13693">
        <ele>81</ele>
        <time>2025-04-26T08:43:23Z</time>
      </trkpt>
      <trkpt lat="45.28445" lon="-1.13692">
        <ele>80</ele>
        <time>2025-04-26T08:43:24Z</time>
      </trkpt>
      <trkpt lat="45.2845" lon="-1.13691">
        <ele>79</ele>
        <time>2025-04-26T08:43:25Z</time>
      </trkpt>
      <trkpt lat="45.28454" lon="-1.1369">
        <ele>78</ele>
        <time>2025-04-26T08:43:26Z</time>
      </trkpt>
      <trkpt lat="45.28458" lon="-1.13689">
        <ele>78</ele>
        <time>2025-04-26T08:43:27Z</time>
      </trkpt>
      <trkpt lat="45.28462" lon="-1.13687">
        <ele>78</ele>
        <time>2025-04-26T08:43:28Z</time>
      </trkpt>
      <trkpt lat="45.28465" lon="-1.13686">
        <ele>78</ele>
        <time>2025-04-26T08:43:29Z</time>
      </trkpt>
      <trkpt lat="45.28469" lon="-1.13683">
        <ele>79</ele>
        <time>2025-04-26T08:43:30Z</time>
      </trkpt>
      <trkpt lat="45.28473" lon="-1.13682">
        <ele>80</ele>
        <time>2025-04-26T08:43:31Z</time>
      </trkpt>
      <trkpt lat="45.28477" lon="-1.13681">
        <ele>80</ele>
        <time>2025-04-26T08:43:32Z</time>
      </trkpt>
      <trkpt lat="45.28482" lon="-1.1368">
        <ele>80</ele>
        <time>2025-04-26T08:43:33Z</time>
      </trkpt>
      <trkpt lat="45.28486" lon="-1.13679">
        <ele>81</ele>
        <time>2025-04-26T08:43:34Z</time>
      </trkpt>
      <trkpt lat="45.2849" lon="-1.13677">
        <ele>82</ele>
        <time>2025-04-26T08:43:35Z</time>
      </trkpt>
      <trkpt lat="45.28494" lon="-1.13675">
        <ele>83</ele>
        <time>2025-04-26T08:43:36Z</time>
      </trkpt>
      <trkpt lat="45.28499" lon="-1.13673">
        <ele>82</ele>
        <time>2025-04-26T08:43:37Z</time>
      </trkpt>
      <trkpt lat="45.28504" lon="-1.13671">
        <ele>81</ele>
        <time>2025-04-26T08:43:38Z</time>
      </trkpt>
      <trkpt lat="45.28509" lon="-1.13668">
        <ele>80</ele>
        <time>2025-04-26T08:43:39Z</time>
      </trkpt>
      <trkpt lat="45.28514" lon="-1.13666">
        <ele>79</ele>
        <time>2025-04-26T08:43:40Z</time>
      </trkpt>
      <trkpt lat="45.28518" lon="-1.13664">
        <ele>79</ele>
        <time>2025-04-26T08:43:41Z</time>
      </trkpt>
      <trkpt lat="45.28523" lon="-1.13662">
        <ele>79</ele>
        <time>2025-04-26T08:43:42Z</time>
      </trkpt>
      <trkpt lat="45.28527" lon="-1.13661">
        <ele>78</ele>
        <time>2025-04-26T08:43:43Z</time>
      </trkpt>
      <trkpt lat="45.28531" lon="-1.13659">
        <ele>78</ele>
        <time>2025-04-26T08:43:44Z</time>
      </trkpt>
      <trkpt lat="45.28535" lon="-1.13659">
        <ele>78</ele>
        <time>2025-04-26T08:43:45Z</time>
      </trkpt>
      <trkpt lat="45.28539" lon="-1.13659">
        <ele>77</ele>
        <time>2025-04-26T08:43:46Z</time>
      </trkpt>
      <trkpt lat="45.28544" lon="-1.13658">
        <ele>76</ele>
        <time>2025-04-26T08:43:47Z</time>
      </trkpt>
      <trkpt lat="45.28548" lon="-1.13657">
        <ele>75</ele>
        <time>2025-04-26T08:43:48Z</time>
      </trkpt>
      <trkpt lat="45.28552" lon="-1.13655">
        <ele>75</ele>
        <time>2025-04-26T08:43:49Z</time>
      </trkpt>
      <trkpt lat="45.28555" lon="-1.13654">
        <ele>75</ele>
        <time>2025-04-26T08:43:50Z</time>
      </trkpt>
      <trkpt lat="45.2856" lon="-1.13652">
        <ele>76</ele>
        <time>2025-04-26T08:43:51Z</time>
      </trkpt>
      <trkpt lat="45.28563" lon="-1.13651">
        <ele>76</ele>
        <time>2025-04-26T08:43:52Z</time>
      </trkpt>
      <trkpt lat="45.28567" lon="-1.13651">
        <ele>76</ele>
        <time>2025-04-26T08:43:53Z</time>
      </trkpt>
      <trkpt lat="45.28571" lon="-1.1365">
        <ele>77</ele>
        <time>2025-04-26T08:43:54Z</time>
      </trkpt>
      <trkpt lat="45.28575" lon="-1.13648">
        <ele>78</ele>
        <time>2025-04-26T08:43:55Z</time>
      </trkpt>
      <trkpt lat="45.28579" lon="-1.13646">
        <ele>79</ele>
        <time>2025-04-26T08:43:56Z</time>
      </trkpt>
      <trkpt lat="45.28583" lon="-1.13644">
        <ele>80</ele>
        <time>2025-04-26T08:43:57Z</time>
      </trkpt>
      <trkpt lat="45.28586" lon="-1.13642">
        <ele>80</ele>
        <time>2025-04-26T08:43:58Z</time>
      </trkpt>
      <trkpt lat="45.2859" lon="-1.13641">
        <ele>81</ele>
        <time>2025-04-26T08:43:59Z</time>
      </trkpt>
      <trkpt lat="45.28594" lon="-1.1364">
        <ele>81</ele>
        <time>2025-04-26T08:44:00Z</time>
      </trkpt>
      <trkpt lat="45.28598" lon="-1.13638">
        <ele>82</ele>
        <time>2025-04-26T08:44:01Z</time>
      </trkpt>
      <trkpt lat="45.28602" lon="-1.13637">
        <ele>81</ele>
        <time>2025-04-26T08:44:02Z</time>
      </trkpt>
      <trkpt lat="45.28606" lon="-1.13636">
        <ele>82</ele>
        <time>2025-04-26T08:44:03Z</time>
      </trkpt>
      <trkpt lat="45.2861" lon="-1.13635">
        <ele>82</ele>
        <time>2025-04-26T08:44:04Z</time>
      </trkpt>
      <trkpt lat="45.28614" lon="-1.13633">
        <ele>82</ele>
        <time>2025-04-26T08:44:05Z</time>
      </trkpt>
      <trkpt lat="45.28618" lon="-1.13631">
        <ele>82</ele>
        <time>2025-04-26T08:44:06Z</time>
      </trkpt>
      <trkpt lat="45.28623" lon="-1.1363">
        <ele>83</ele>
        <time>2025-04-26T08:44:07Z</time>
      </trkpt>
      <trkpt lat="45.28627" lon="-1.13628">
        <ele>84</ele>
        <time>2025-04-26T08:44:08Z</time>
      </trkpt>
      <trkpt lat="45.2863" lon="-1.13626">
        <ele>85</ele>
        <time>2025-04-26T08:44:09Z</time>
      </trkpt>
      <trkpt lat="45.28634" lon="-1.13625">
        <ele>85</ele>
        <time>2025-04-26T08:44:10Z</time>
      </trkpt>
      <trkpt lat="45.28639" lon="-1.13624">
        <ele>85</ele>
        <time>2025-04-26T08:44:11Z</time>
      </trkpt>
      <trkpt lat="45.28643" lon="-1.13623">
        <ele>85</ele>
        <time>2025-04-26T08:44:12Z</time>
      </trkpt>
      <trkpt lat="45.28648" lon="-1.1362">
        <ele>85</ele>
        <time>2025-04-26T08:44:13Z</time>
      </trkpt>
      <trkpt lat="45.28652" lon="-1.13618">
        <ele>85</ele>
        <time>2025-04-26T08:44:14Z</time>
      </trkpt>
      <trkpt lat="45.28656" lon="-1.13617">
        <ele>85</ele>
        <time>2025-04-26T08:44:15Z</time>
      </trkpt>
      <trkpt lat="45.28661" lon="-1.13615">
        <ele>85</ele>
        <time>2025-04-26T08:44:16Z</time>
      </trkpt>
      <trkpt lat="45.28666" lon="-1.13612">
        <ele>85</ele>
        <time>2025-04-26T08:44:17Z</time>
      </trkpt>
      <trkpt lat="45.28671" lon="-1.1361">
        <ele>83</ele>
        <time>2025-04-26T08:44:18Z</time>
      </trkpt>
      <trkpt lat="45.28676" lon="-1.13609">
        <ele>83</ele>
        <time>2025-04-26T08:44:19Z</time>
      </trkpt>
      <trkpt lat="45.2868" lon="-1.13607">
        <ele>82</ele>
        <time>2025-04-26T08:44:20Z</time>
      </trkpt>
      <trkpt lat="45.28684" lon="-1.13606">
        <ele>81</ele>
        <time>2025-04-26T08:44:21Z</time>
      </trkpt>
      <trkpt lat="45.28689" lon="-1.13605">
        <ele>81</ele>
        <time>2025-04-26T08:44:22Z</time>
      </trkpt>
      <trkpt lat="45.28693" lon="-1.13603">
        <ele>80</ele>
        <time>2025-04-26T08:44:23Z</time>
      </trkpt>
      <trkpt lat="45.28697" lon="-1.13601">
        <ele>80</ele>
        <time>2025-04-26T08:44:24Z</time>
      </trkpt>
      <trkpt lat="45.28702" lon="-1.13599">
        <ele>79</ele>
        <time>2025-04-26T08:44:25Z</time>
      </trkpt>
      <trkpt lat="45.28707" lon="-1.13597">
        <ele>79</ele>
        <time>2025-04-26T08:44:26Z</time>
      </trkpt>
      <trkpt lat="45.28711" lon="-1.13595">
        <ele>79</ele>
        <time>2025-04-26T08:44:27Z</time>
      </trkpt>
      <trkpt lat="45.28715" lon="-1.13593">
        <ele>79</ele>
        <time>2025-04-26T08:44:28Z</time>
      </trkpt>
      <trkpt lat="45.2872" lon="-1.13592">
        <ele>80</ele>
        <time>2025-04-26T08:44:29Z</time>
      </trkpt>
      <trkpt lat="45.28724" lon="-1.1359">
        <ele>80</ele>
        <time>2025-04-26T08:44:30Z</time>
      </trkpt>
      <trkpt lat="45.28728" lon="-1.13588">
        <ele>81</ele>
        <time>2025-04-26T08:44:31Z</time>
      </trkpt>
      <trkpt lat="45.28732" lon="-1.13588">
        <ele>81</ele>
        <time>2025-04-26T08:44:32Z</time>
      </trkpt>
      <trkpt lat="45.28736" lon="-1.13587">
        <ele>81</ele>
        <time>2025-04-26T08:44:33Z</time>
      </trkpt>
      <trkpt lat="45.2874" lon="-1.13586">
        <ele>82</ele>
        <time>2025-04-26T08:44:34Z</time>
      </trkpt>
      <trkpt lat="45.28744" lon="-1.13584">
        <ele>81</ele>
        <time>2025-04-26T08:44:35Z</time>
      </trkpt>
      <trkpt lat="45.28748" lon="-1.13582">
        <ele>81</ele>
        <time>2025-04-26T08:44:36Z</time>
      </trkpt>
      <trkpt lat="45.28752" lon="-1.13581">
        <ele>81</ele>
        <time>2025-04-26T08:44:37Z</time>
      </trkpt>
      <trkpt lat="45.28756" lon="-1.1358">
        <ele>81</ele>
        <time>2025-04-26T08:44:38Z</time>
      </trkpt>
      <trkpt lat="45.2876" lon="-1.13579">
        <ele>82</ele>
        <time>2025-04-26T08:44:39Z</time>
      </trkpt>
      <trkpt lat="45.28763" lon="-1.13578">
        <ele>83</ele>
        <time>2025-04-26T08:44:40Z</time>
      </trkpt>
      <trkpt lat="45.28767" lon="-1.13577">
        <ele>84</ele>
        <time>2025-04-26T08:44:41Z</time>
      </trkpt>
      <trkpt lat="45.28771" lon="-1.13575">
        <ele>84</ele>
        <time>2025-04-26T08:44:42Z</time>
      </trkpt>
      <trkpt lat="45.28776" lon="-1.13573">
        <ele>84</ele>
        <time>2025-04-26T08:44:43Z</time>
      </trkpt>
      <trkpt lat="45.28781" lon="-1.13572">
        <ele>84</ele>
        <time>2025-04-26T08:44:44Z</time>
      </trkpt>
      <trkpt lat="45.28785" lon="-1.1357">
        <ele>83</ele>
        <time>2025-04-26T08:44:45Z</time>
      </trkpt>
      <trkpt lat="45.28789" lon="-1.13567">
        <ele>83</ele>
        <time>2025-04-26T08:44:46Z</time>
      </trkpt>
      <trkpt lat="45.28793" lon="-1.13565">
        <ele>83</ele>
        <time>2025-04-26T08:44:47Z</time>
      </trkpt>
      <trkpt lat="45.28797" lon="-1.13563">
        <ele>83</ele>
        <time>2025-04-26T08:44:48Z</time>
      </trkpt>
      <trkpt lat="45.28801" lon="-1.13561">
        <ele>82</ele>
        <time>2025-04-26T08:44:49Z</time>
      </trkpt>
      <trkpt lat="45.28805" lon="-1.13561">
        <ele>82</ele>
        <time>2025-04-26T08:44:50Z</time>
      </trkpt>
      <trkpt lat="45.28809" lon="-1.1356">
        <ele>81</ele>
        <time>2025-04-26T08:44:51Z</time>
      </trkpt>
      <trkpt lat="45.28813" lon="-1.13559">
        <ele>82</ele>
        <time>2025-04-26T08:44:52Z</time>
      </trkpt>
      <trkpt lat="45.28817" lon="-1.13557">
        <ele>82</ele>
        <time>2025-04-26T08:44:53Z</time>
      </trkpt>
      <trkpt lat="45.28821" lon="-1.13556">
        <ele>82</ele>
        <time>2025-04-26T08:44:54Z</time>
      </trkpt>
      <trkpt lat="45.28825" lon="-1.13555">
        <ele>82</ele>
        <time>2025-04-26T08:44:55Z</time>
      </trkpt>
      <trkpt lat="45.28829" lon="-1.13553">
        <ele>81</ele>
        <time>2025-04-26T08:44:56Z</time>
      </trkpt>
      <trkpt lat="45.28833" lon="-1.13552">
        <ele>81</ele>
        <time>2025-04-26T08:44:57Z</time>
      </trkpt>
      <trkpt lat="45.28837" lon="-1.1355">
        <ele>82</ele>
        <time>2025-04-26T08:44:58Z</time>
      </trkpt>
      <trkpt lat="45.28842" lon="-1.13549">
        <ele>82</ele>
        <time>2025-04-26T08:44:59Z</time>
      </trkpt>
      <trkpt lat="45.28846" lon="-1.13547">
        <ele>82</ele>
        <time>2025-04-26T08:45:00Z</time>
      </trkpt>
      <trkpt lat="45.28851" lon="-1.13545">
        <ele>81</ele>
        <time>2025-04-26T08:45:01Z</time>
      </trkpt>
      <trkpt lat="45.28855" lon="-1.13543">
        <ele>81</ele>
        <time>2025-04-26T08:45:02Z</time>
      </trkpt>
      <trkpt lat="45.28859" lon="-1.13542">
        <ele>80</ele>
        <time>2025-04-26T08:45:03Z</time>
      </trkpt>
      <trkpt lat="45.28864" lon="-1.1354">
        <ele>80</ele>
        <time>2025-04-26T08:45:04Z</time>
      </trkpt>
      <trkpt lat="45.28868" lon="-1.13539">
        <ele>80</ele>
        <time>2025-04-26T08:45:05Z</time>
      </trkpt>
      <trkpt lat="45.28873" lon="-1.13538">
        <ele>80</ele>
        <time>2025-04-26T08:45:06Z</time>
      </trkpt>
      <trkpt lat="45.28877" lon="-1.13537">
        <ele>79</ele>
        <time>2025-04-26T08:45:07Z</time>
      </trkpt>
      <trkpt lat="45.28882" lon="-1.13535">
        <ele>79</ele>
        <time>2025-04-26T08:45:08Z</time>
      </trkpt>
      <trkpt lat="45.28887" lon="-1.13534">
        <ele>79</ele>
        <time>2025-04-26T08:45:09Z</time>
      </trkpt>
      <trkpt lat="45.28891" lon="-1.13532">
        <ele>78</ele>
        <time>2025-04-26T08:45:10Z</time>
      </trkpt>
      <trkpt lat="45.28894" lon="-1.1353">
        <ele>78</ele>
        <time>2025-04-26T08:45:11Z</time>
      </trkpt>
      <trkpt lat="45.28898" lon="-1.13529">
        <ele>77</ele>
        <time>2025-04-26T08:45:12Z</time>
      </trkpt>
      <trkpt lat="45.28902" lon="-1.13528">
        <ele>76</ele>
        <time>2025-04-26T08:45:13Z</time>
      </trkpt>
      <trkpt lat="45.28906" lon="-1.13527">
        <ele>75</ele>
        <time>2025-04-26T08:45:14Z</time>
      </trkpt>
      <trkpt lat="45.28911" lon="-1.13526">
        <ele>74</ele>
        <time>2025-04-26T08:45:15Z</time>
      </trkpt>
      <trkpt lat="45.28915" lon="-1.13525">
        <ele>74</ele>
        <time>2025-04-26T08:45:16Z</time>
      </trkpt>
      <trkpt lat="45.28918" lon="-1.13523">
        <ele>74</ele>
        <time>2025-04-26T08:45:17Z</time>
      </trkpt>
      <trkpt lat="45.28922" lon="-1.13522">
        <ele>74</ele>
        <time>2025-04-26T08:45:18Z</time>
      </trkpt>
      <trkpt lat="45.28926" lon="-1.1352">
        <ele>75</ele>
        <time>2025-04-26T08:45:19Z</time>
      </trkpt>
      <trkpt lat="45.2893" lon="-1.13519">
        <ele>75</ele>
        <time>2025-04-26T08:45:20Z</time>
      </trkpt>
      <trkpt lat="45.28934" lon="-1.13517">
        <ele>75</ele>
        <time>2025-04-26T08:45:21Z</time>
      </trkpt>
      <trkpt lat="45.28938" lon="-1.13516">
        <ele>76</ele>
        <time>2025-04-26T08:45:22Z</time>
      </trkpt>
      <trkpt lat="45.28943" lon="-1.13514">
        <ele>76</ele>
        <time>2025-04-26T08:45:23Z</time>
      </trkpt>
      <trkpt lat="45.28947" lon="-1.13512">
        <ele>76</ele>
        <time>2025-04-26T08:45:24Z</time>
      </trkpt>
      <trkpt lat="45.28951" lon="-1.1351">
        <ele>77</ele>
        <time>2025-04-26T08:45:25Z</time>
      </trkpt>
      <trkpt lat="45.28955" lon="-1.13508">
        <ele>77</ele>
        <time>2025-04-26T08:45:26Z</time>
      </trkpt>
      <trkpt lat="45.28958" lon="-1.13506">
        <ele>78</ele>
        <time>2025-04-26T08:45:27Z</time>
      </trkpt>
      <trkpt lat="45.28963" lon="-1.13505">
        <ele>78</ele>
        <time>2025-04-26T08:45:28Z</time>
      </trkpt>
      <trkpt lat="45.28967" lon="-1.13503">
        <ele>79</ele>
        <time>2025-04-26T08:45:29Z</time>
      </trkpt>
      <trkpt lat="45.28971" lon="-1.13502">
        <ele>78</ele>
        <time>2025-04-26T08:45:30Z</time>
      </trkpt>
      <trkpt lat="45.28975" lon="-1.135">
        <ele>78</ele>
        <time>2025-04-26T08:45:31Z</time>
      </trkpt>
      <trkpt lat="45.28979" lon="-1.13499">
        <ele>78</ele>
        <time>2025-04-26T08:45:32Z</time>
      </trkpt>
      <trkpt lat="45.28983" lon="-1.13497">
        <ele>78</ele>
        <time>2025-04-26T08:45:33Z</time>
      </trkpt>
      <trkpt lat="45.28987" lon="-1.13496">
        <ele>78</ele>
        <time>2025-04-26T08:45:34Z</time>
      </trkpt>
      <trkpt lat="45.28991" lon="-1.13494">
        <ele>77</ele>
        <time>2025-04-26T08:45:35Z</time>
      </trkpt>
      <trkpt lat="45.28995" lon="-1.13493">
        <ele>77</ele>
        <time>2025-04-26T08:45:36Z</time>
      </trkpt>
      <trkpt lat="45.28999" lon="-1.13492">
        <ele>76</ele>
        <time>2025-04-26T08:45:37Z</time>
      </trkpt>
      <trkpt lat="45.29003" lon="-1.13491">
        <ele>75</ele>
        <time>2025-04-26T08:45:38Z</time>
      </trkpt>
      <trkpt lat="45.29007" lon="-1.1349">
        <ele>75</ele>
        <time>2025-04-26T08:45:39Z</time>
      </trkpt>
      <trkpt lat="45.29011" lon="-1.1349">
        <ele>74</ele>
        <time>2025-04-26T08:45:40Z</time>
      </trkpt>
      <trkpt lat="45.29014" lon="-1.13489">
        <ele>75</ele>
        <time>2025-04-26T08:45:41Z</time>
      </trkpt>
      <trkpt lat="45.29018" lon="-1.13488">
        <ele>75</ele>
        <time>2025-04-26T08:45:42Z</time>
      </trkpt>
      <trkpt lat="45.29022" lon="-1.13487">
        <ele>75</ele>
        <time>2025-04-26T08:45:43Z</time>
      </trkpt>
      <trkpt lat="45.29025" lon="-1.13486">
        <ele>76</ele>
        <time>2025-04-26T08:45:44Z</time>
      </trkpt>
      <trkpt lat="45.29029" lon="-1.13484">
        <ele>75</ele>
        <time>2025-04-26T08:45:45Z</time>
      </trkpt>
      <trkpt lat="45.29033" lon="-1.13483">
        <ele>75</ele>
        <time>2025-04-26T08:45:46Z</time>
      </trkpt>
      <trkpt lat="45.29037" lon="-1.1348">
        <ele>76</ele>
        <time>2025-04-26T08:45:47Z</time>
      </trkpt>
      <trkpt lat="45.2904" lon="-1.13478">
        <ele>76</ele>
        <time>2025-04-26T08:45:48Z</time>
      </trkpt>
      <trkpt lat="45.29044" lon="-1.13476">
        <ele>76</ele>
        <time>2025-04-26T08:45:49Z</time>
      </trkpt>
      <trkpt lat="45.29048" lon="-1.13475">
        <ele>76</ele>
        <time>2025-04-26T08:45:50Z</time>
      </trkpt>
      <trkpt lat="45.29052" lon="-1.13474">
        <ele>77</ele>
        <time>2025-04-26T08:45:51Z</time>
      </trkpt>
      <trkpt lat="45.29056" lon="-1.13472">
        <ele>78</ele>
        <time>2025-04-26T08:45:52Z</time>
      </trkpt>
      <trkpt lat="45.2906" lon="-1.13471">
        <ele>78</ele>
        <time>2025-04-26T08:45:53Z</time>
      </trkpt>
      <trkpt lat="45.29064" lon="-1.13469">
        <ele>78</ele>
        <time>2025-04-26T08:45:54Z</time>
      </trkpt>
      <trkpt lat="45.29068" lon="-1.13468">
        <ele>78</ele>
        <time>2025-04-26T08:45:55Z</time>
      </trkpt>
      <trkpt lat="45.29072" lon="-1.13467">
        <ele>78</ele>
        <time>2025-04-26T08:45:56Z</time>
      </trkpt>
      <trkpt lat="45.29076" lon="-1.13466">
        <ele>78</ele>
        <time>2025-04-26T08:45:57Z</time>
      </trkpt>
      <trkpt lat="45.2908" lon="-1.13464">
        <ele>78</ele>
        <time>2025-04-26T08:45:58Z</time>
      </trkpt>
      <trkpt lat="45.29084" lon="-1.13462">
        <ele>77</ele>
        <time>2025-04-26T08:45:59Z</time>
      </trkpt>
      <trkpt lat="45.29088" lon="-1.13461">
        <ele>77</ele>
        <time>2025-04-26T08:46:00Z</time>
      </trkpt>
      <trkpt lat="45.29091" lon="-1.1346">
        <ele>77</ele>
        <time>2025-04-26T08:46:01Z</time>
      </trkpt>
      <trkpt lat="45.29095" lon="-1.13459">
        <ele>78</ele>
        <time>2025-04-26T08:46:02Z</time>
      </trkpt>
      <trkpt lat="45.29099" lon="-1.13457">
        <ele>78</ele>
        <time>2025-04-26T08:46:03Z</time>
      </trkpt>
      <trkpt lat="45.29103" lon="-1.13455">
        <ele>78</ele>
        <time>2025-04-26T08:46:04Z</time>
      </trkpt>
      <trkpt lat="45.29108" lon="-1.13453">
        <ele>78</ele>
        <time>2025-04-26T08:46:05Z</time>
      </trkpt>
      <trkpt lat="45.29112" lon="-1.13452">
        <ele>77</ele>
        <time>2025-04-26T08:46:06Z</time>
      </trkpt>
      <trkpt lat="45.29115" lon="-1.1345">
        <ele>77</ele>
        <time>2025-04-26T08:46:07Z</time>
      </trkpt>
      <trkpt lat="45.29119" lon="-1.13449">
        <ele>77</ele>
        <time>2025-04-26T08:46:08Z</time>
      </trkpt>
      <trkpt lat="45.29123" lon="-1.13446">
        <ele>77</ele>
        <time>2025-04-26T08:46:09Z</time>
      </trkpt>
      <trkpt lat="45.29127" lon="-1.13445">
        <ele>77</ele>
        <time>2025-04-26T08:46:10Z</time>
      </trkpt>
      <trkpt lat="45.29131" lon="-1.13444">
        <ele>77</ele>
        <time>2025-04-26T08:46:11Z</time>
      </trkpt>
      <trkpt lat="45.29135" lon="-1.13442">
        <ele>77</ele>
        <time>2025-04-26T08:46:12Z</time>
      </trkpt>
      <trkpt lat="45.29139" lon="-1.13441">
        <ele>77</ele>
        <time>2025-04-26T08:46:13Z</time>
      </trkpt>
      <trkpt lat="45.29142" lon="-1.1344">
        <ele>77</ele>
        <time>2025-04-26T08:46:14Z</time>
      </trkpt>
      <trkpt lat="45.29146" lon="-1.13439">
        <ele>77</ele>
        <time>2025-04-26T08:46:15Z</time>
      </trkpt>
      <trkpt lat="45.2915" lon="-1.13438">
        <ele>77</ele>
        <time>2025-04-26T08:46:16Z</time>
      </trkpt>
      <trkpt lat="45.29154" lon="-1.13437">
        <ele>77</ele>
        <time>2025-04-26T08:46:17Z</time>
      </trkpt>
      <trkpt lat="45.29159" lon="-1.13436">
        <ele>76</ele>
        <time>2025-04-26T08:46:18Z</time>
      </trkpt>
      <trkpt lat="45.29163" lon="-1.13434">
        <ele>76</ele>
        <time>2025-04-26T08:46:19Z</time>
      </trkpt>
      <trkpt lat="45.29168" lon="-1.13433">
        <ele>75</ele>
        <time>2025-04-26T08:46:20Z</time>
      </trkpt>
      <trkpt lat="45.29172" lon="-1.13432">
        <ele>75</ele>
        <time>2025-04-26T08:46:21Z</time>
      </trkpt>
      <trkpt lat="45.29176" lon="-1.13431">
        <ele>74</ele>
        <time>2025-04-26T08:46:22Z</time>
      </trkpt>
      <trkpt lat="45.2918" lon="-1.13429">
        <ele>74</ele>
        <time>2025-04-26T08:46:23Z</time>
      </trkpt>
      <trkpt lat="45.29185" lon="-1.13427">
        <ele>74</ele>
        <time>2025-04-26T08:46:24Z</time>
      </trkpt>
      <trkpt lat="45.29189" lon="-1.13425">
        <ele>74</ele>
        <time>2025-04-26T08:46:25Z</time>
      </trkpt>
      <trkpt lat="45.29193" lon="-1.13424">
        <ele>74</ele>
        <time>2025-04-26T08:46:26Z</time>
      </trkpt>
      <trkpt lat="45.29197" lon="-1.13422">
        <ele>74</ele>
        <time>2025-04-26T08:46:27Z</time>
      </trkpt>
      <trkpt lat="45.29201" lon="-1.13421">
        <ele>74</ele>
        <time>2025-04-26T08:46:28Z</time>
      </trkpt>
      <trkpt lat="45.29205" lon="-1.13419">
        <ele>74</ele>
        <time>2025-04-26T08:46:29Z</time>
      </trkpt>
      <trkpt lat="45.29209" lon="-1.13418">
        <ele>74</ele>
        <time>2025-04-26T08:46:30Z</time>
      </trkpt>
      <trkpt lat="45.29213" lon="-1.13417">
        <ele>74</ele>
        <time>2025-04-26T08:46:31Z</time>
      </trkpt>
      <trkpt lat="45.29217" lon="-1.13415">
        <ele>74</ele>
        <time>2025-04-26T08:46:32Z</time>
      </trkpt>
      <trkpt lat="45.29221" lon="-1.13413">
        <ele>74</ele>
        <time>2025-04-26T08:46:33Z</time>
      </trkpt>
      <trkpt lat="45.29225" lon="-1.13411">
        <ele>74</ele>
        <time>2025-04-26T08:46:34Z</time>
      </trkpt>
      <trkpt lat="45.29228" lon="-1.13409">
        <ele>74</ele>
        <time>2025-04-26T08:46:35Z</time>
      </trkpt>
      <trkpt lat="45.29232" lon="-1.13407">
        <ele>74</ele>
        <time>2025-04-26T08:46:36Z</time>
      </trkpt>
      <trkpt lat="45.29236" lon="-1.13406">
        <ele>74</ele>
        <time>2025-04-26T08:46:37Z</time>
      </trkpt>
      <trkpt lat="45.2924" lon="-1.13404">
        <ele>73</ele>
        <time>2025-04-26T08:46:38Z</time>
      </trkpt>
      <trkpt lat="45.29244" lon="-1.13403">
        <ele>73</ele>
        <time>2025-04-26T08:46:39Z</time>
      </trkpt>
      <trkpt lat="45.29248" lon="-1.13403">
        <ele>72</ele>
        <time>2025-04-26T08:46:40Z</time>
      </trkpt>
      <trkpt lat="45.29251" lon="-1.13401">
        <ele>72</ele>
        <time>2025-04-26T08:46:41Z</time>
      </trkpt>
      <trkpt lat="45.29255" lon="-1.134">
        <ele>72</ele>
        <time>2025-04-26T08:46:42Z</time>
      </trkpt>
      <trkpt lat="45.29259" lon="-1.13399">
        <ele>72</ele>
        <time>2025-04-26T08:46:43Z</time>
      </trkpt>
      <trkpt lat="45.29263" lon="-1.13397">
        <ele>73</ele>
        <time>2025-04-26T08:46:44Z</time>
      </trkpt>
      <trkpt lat="45.29267" lon="-1.13396">
        <ele>74</ele>
        <time>2025-04-26T08:46:45Z</time>
      </trkpt>
      <trkpt lat="45.29272" lon="-1.13395">
        <ele>74</ele>
        <time>2025-04-26T08:46:46Z</time>
      </trkpt>
      <trkpt lat="45.29276" lon="-1.13393">
        <ele>75</ele>
        <time>2025-04-26T08:46:47Z</time>
      </trkpt>
      <trkpt lat="45.2928" lon="-1.13391">
        <ele>75</ele>
        <time>2025-04-26T08:46:48Z</time>
      </trkpt>
      <trkpt lat="45.29284" lon="-1.13389">
        <ele>76</ele>
        <time>2025-04-26T08:46:49Z</time>
      </trkpt>
      <trkpt lat="45.29288" lon="-1.13388">
        <ele>76</ele>
        <time>2025-04-26T08:46:50Z</time>
      </trkpt>
      <trkpt lat="45.29293" lon="-1.13387">
        <ele>76</ele>
        <time>2025-04-26T08:46:51Z</time>
      </trkpt>
      <trkpt lat="45.29297" lon="-1.13385">
        <ele>76</ele>
        <time>2025-04-26T08:46:52Z</time>
      </trkpt>
      <trkpt lat="45.29301" lon="-1.13384">
        <ele>76</ele>
        <time>2025-04-26T08:46:53Z</time>
      </trkpt>
      <trkpt lat="45.29305" lon="-1.13382">
        <ele>76</ele>
        <time>2025-04-26T08:46:54Z</time>
      </trkpt>
      <trkpt lat="45.29309" lon="-1.1338">
        <ele>77</ele>
        <time>2025-04-26T08:46:55Z</time>
      </trkpt>
      <trkpt lat="45.29312" lon="-1.13378">
        <ele>77</ele>
        <time>2025-04-26T08:46:56Z</time>
      </trkpt>
      <trkpt lat="45.29317" lon="-1.13376">
        <ele>78</ele>
        <time>2025-04-26T08:46:57Z</time>
      </trkpt>
      <trkpt lat="45.29321" lon="-1.13374">
        <ele>78</ele>
        <time>2025-04-26T08:46:58Z</time>
      </trkpt>
      <trkpt lat="45.29325" lon="-1.13372">
        <ele>78</ele>
        <time>2025-04-26T08:46:59Z</time>
      </trkpt>
      <trkpt lat="45.29329" lon="-1.1337">
        <ele>78</ele>
        <time>2025-04-26T08:47:00Z</time>
      </trkpt>
      <trkpt lat="45.29333" lon="-1.13369">
        <ele>77</ele>
        <time>2025-04-26T08:47:01Z</time>
      </trkpt>
      <trkpt lat="45.29337" lon="-1.13367">
        <ele>77</ele>
        <time>2025-04-26T08:47:02Z</time>
      </trkpt>
      <trkpt lat="45.29341" lon="-1.13366">
        <ele>78</ele>
        <time>2025-04-26T08:47:03Z</time>
      </trkpt>
      <trkpt lat="45.29345" lon="-1.13365">
        <ele>78</ele>
        <time>2025-04-26T08:47:04Z</time>
      </trkpt>
      <trkpt lat="45.29349" lon="-1.13364">
        <ele>78</ele>
        <time>2025-04-26T08:47:05Z</time>
      </trkpt>
      <trkpt lat="45.29354" lon="-1.13362">
        <ele>78</ele>
        <time>2025-04-26T08:47:06Z</time>
      </trkpt>
      <trkpt lat="45.29358" lon="-1.1336">
        <ele>79</ele>
        <time>2025-04-26T08:47:07Z</time>
      </trkpt>
      <trkpt lat="45.29362" lon="-1.13359">
        <ele>79</ele>
        <time>2025-04-26T08:47:08Z</time>
      </trkpt>
      <trkpt lat="45.29366" lon="-1.13357">
        <ele>79</ele>
        <time>2025-04-26T08:47:09Z</time>
      </trkpt>
      <trkpt lat="45.2937" lon="-1.13356">
        <ele>79</ele>
        <time>2025-04-26T08:47:10Z</time>
      </trkpt>
      <trkpt lat="45.29375" lon="-1.13354">
        <ele>79</ele>
        <time>2025-04-26T08:47:11Z</time>
      </trkpt>
      <trkpt lat="45.29379" lon="-1.13353">
        <ele>78</ele>
        <time>2025-04-26T08:47:12Z</time>
      </trkpt>
      <trkpt lat="45.29383" lon="-1.13351">
        <ele>77</ele>
        <time>2025-04-26T08:47:13Z</time>
      </trkpt>
      <trkpt lat="45.29387" lon="-1.13349">
        <ele>77</ele>
        <time>2025-04-26T08:47:14Z</time>
      </trkpt>
      <trkpt lat="45.29392" lon="-1.13348">
        <ele>77</ele>
        <time>2025-04-26T08:47:15Z</time>
      </trkpt>
      <trkpt lat="45.29396" lon="-1.13347">
        <ele>78</ele>
        <time>2025-04-26T08:47:16Z</time>
      </trkpt>
      <trkpt lat="45.294" lon="-1.13346">
        <ele>78</ele>
        <time>2025-04-26T08:47:17Z</time>
      </trkpt>
      <trkpt lat="45.29404" lon="-1.13345">
        <ele>78</ele>
        <time>2025-04-26T08:47:18Z</time>
      </trkpt>
      <trkpt lat="45.29408" lon="-1.13343">
        <ele>78</ele>
        <time>2025-04-26T08:47:19Z</time>
      </trkpt>
      <trkpt lat="45.29413" lon="-1.13341">
        <ele>78</ele>
        <time>2025-04-26T08:47:20Z</time>
      </trkpt>
      <trkpt lat="45.29417" lon="-1.1334">
        <ele>79</ele>
        <time>2025-04-26T08:47:21Z</time>
      </trkpt>
      <trkpt lat="45.29421" lon="-1.13338">
        <ele>79</ele>
        <time>2025-04-26T08:47:22Z</time>
      </trkpt>
      <trkpt lat="45.29425" lon="-1.13337">
        <ele>79</ele>
        <time>2025-04-26T08:47:23Z</time>
      </trkpt>
      <trkpt lat="45.2943" lon="-1.13335">
        <ele>78</ele>
        <time>2025-04-26T08:47:24Z</time>
      </trkpt>
      <trkpt lat="45.29434" lon="-1.13334">
        <ele>77</ele>
        <time>2025-04-26T08:47:25Z</time>
      </trkpt>
      <trkpt lat="45.29438" lon="-1.13333">
        <ele>77</ele>
        <time>2025-04-26T08:47:26Z</time>
      </trkpt>
      <trkpt lat="45.29443" lon="-1.13332">
        <ele>77</ele>
        <time>2025-04-26T08:47:27Z</time>
      </trkpt>
      <trkpt lat="45.29447" lon="-1.1333">
        <ele>77</ele>
        <time>2025-04-26T08:47:28Z</time>
      </trkpt>
      <trkpt lat="45.29451" lon="-1.13329">
        <ele>78</ele>
        <time>2025-04-26T08:47:29Z</time>
      </trkpt>
      <trkpt lat="45.29455" lon="-1.13327">
        <ele>78</ele>
        <time>2025-04-26T08:47:30Z</time>
      </trkpt>
      <trkpt lat="45.2946" lon="-1.13325">
        <ele>77</ele>
        <time>2025-04-26T08:47:31Z</time>
      </trkpt>
      <trkpt lat="45.29464" lon="-1.13323">
        <ele>77</ele>
        <time>2025-04-26T08:47:32Z</time>
      </trkpt>
      <trkpt lat="45.29469" lon="-1.13321">
        <ele>77</ele>
        <time>2025-04-26T08:47:33Z</time>
      </trkpt>
      <trkpt lat="45.29473" lon="-1.1332">
        <ele>77</ele>
        <time>2025-04-26T08:47:34Z</time>
      </trkpt>
      <trkpt lat="45.29478" lon="-1.13318">
        <ele>77</ele>
        <time>2025-04-26T08:47:35Z</time>
      </trkpt>
      <trkpt lat="45.29482" lon="-1.13316">
        <ele>78</ele>
        <time>2025-04-26T08:47:36Z</time>
      </trkpt>
      <trkpt lat="45.29487" lon="-1.13314">
        <ele>78</ele>
        <time>2025-04-26T08:47:37Z</time>
      </trkpt>
      <trkpt lat="45.29491" lon="-1.13312">
        <ele>78</ele>
        <time>2025-04-26T08:47:38Z</time>
      </trkpt>
      <trkpt lat="45.29496" lon="-1.13311">
        <ele>77</ele>
        <time>2025-04-26T08:47:39Z</time>
      </trkpt>
      <trkpt lat="45.295" lon="-1.13309">
        <ele>76</ele>
        <time>2025-04-26T08:47:40Z</time>
      </trkpt>
      <trkpt lat="45.29505" lon="-1.13308">
        <ele>76</ele>
        <time>2025-04-26T08:47:41Z</time>
      </trkpt>
      <trkpt lat="45.29509" lon="-1.13306">
        <ele>76</ele>
        <time>2025-04-26T08:47:42Z</time>
      </trkpt>
      <trkpt lat="45.29514" lon="-1.13304">
        <ele>75</ele>
        <time>2025-04-26T08:47:43Z</time>
      </trkpt>
      <trkpt lat="45.29519" lon="-1.13303">
        <ele>75</ele>
        <time>2025-04-26T08:47:44Z</time>
      </trkpt>
      <trkpt lat="45.29523" lon="-1.13302">
        <ele>74</ele>
        <time>2025-04-26T08:47:45Z</time>
      </trkpt>
      <trkpt lat="45.29527" lon="-1.133">
        <ele>74</ele>
        <time>2025-04-26T08:47:46Z</time>
      </trkpt>
      <trkpt lat="45.29531" lon="-1.13298">
        <ele>74</ele>
        <time>2025-04-26T08:47:47Z</time>
      </trkpt>
      <trkpt lat="45.29536" lon="-1.13296">
        <ele>74</ele>
        <time>2025-04-26T08:47:48Z</time>
      </trkpt>
      <trkpt lat="45.2954" lon="-1.13295">
        <ele>75</ele>
        <time>2025-04-26T08:47:49Z</time>
      </trkpt>
      <trkpt lat="45.29545" lon="-1.13293">
        <ele>75</ele>
        <time>2025-04-26T08:47:50Z</time>
      </trkpt>
      <trkpt lat="45.2955" lon="-1.13292">
        <ele>75</ele>
        <time>2025-04-26T08:47:51Z</time>
      </trkpt>
      <trkpt lat="45.29553" lon="-1.13291">
        <ele>76</ele>
        <time>2025-04-26T08:47:52Z</time>
      </trkpt>
      <trkpt lat="45.29558" lon="-1.13289">
        <ele>77</ele>
        <time>2025-04-26T08:47:53Z</time>
      </trkpt>
      <trkpt lat="45.29562" lon="-1.13288">
        <ele>76</ele>
        <time>2025-04-26T08:47:54Z</time>
      </trkpt>
      <trkpt lat="45.29566" lon="-1.13287">
        <ele>76</ele>
        <time>2025-04-26T08:47:55Z</time>
      </trkpt>
      <trkpt lat="45.2957" lon="-1.13285">
        <ele>76</ele>
        <time>2025-04-26T08:47:56Z</time>
      </trkpt>
      <trkpt lat="45.29575" lon="-1.13283">
        <ele>76</ele>
        <time>2025-04-26T08:47:57Z</time>
      </trkpt>
      <trkpt lat="45.29579" lon="-1.13282">
        <ele>76</ele>
        <time>2025-04-26T08:47:58Z</time>
      </trkpt>
      <trkpt lat="45.29583" lon="-1.13279">
        <ele>75</ele>
        <time>2025-04-26T08:47:59Z</time>
      </trkpt>
      <trkpt lat="45.29588" lon="-1.13278">
        <ele>75</ele>
        <time>2025-04-26T08:48:00Z</time>
      </trkpt>
      <trkpt lat="45.29592" lon="-1.13277">
        <ele>75</ele>
        <time>2025-04-26T08:48:01Z</time>
      </trkpt>
      <trkpt lat="45.29597" lon="-1.13276">
        <ele>76</ele>
        <time>2025-04-26T08:48:02Z</time>
      </trkpt>
      <trkpt lat="45.29601" lon="-1.13275">
        <ele>76</ele>
        <time>2025-04-26T08:48:03Z</time>
      </trkpt>
      <trkpt lat="45.29605" lon="-1.13273">
        <ele>76</ele>
        <time>2025-04-26T08:48:04Z</time>
      </trkpt>
      <trkpt lat="45.2961" lon="-1.13271">
        <ele>76</ele>
        <time>2025-04-26T08:48:05Z</time>
      </trkpt>
      <trkpt lat="45.29614" lon="-1.1327">
        <ele>75</ele>
        <time>2025-04-26T08:48:06Z</time>
      </trkpt>
      <trkpt lat="45.29619" lon="-1.13268">
        <ele>75</ele>
        <time>2025-04-26T08:48:07Z</time>
      </trkpt>
      <trkpt lat="45.29623" lon="-1.13267">
        <ele>75</ele>
        <time>2025-04-26T08:48:08Z</time>
      </trkpt>
      <trkpt lat="45.29628" lon="-1.13265">
        <ele>75</ele>
        <time>2025-04-26T08:48:09Z</time>
      </trkpt>
      <trkpt lat="45.29632" lon="-1.13264">
        <ele>75</ele>
        <time>2025-04-26T08:48:10Z</time>
      </trkpt>
      <trkpt lat="45.29636" lon="-1.13262">
        <ele>74</ele>
        <time>2025-04-26T08:48:11Z</time>
      </trkpt>
      <trkpt lat="45.29641" lon="-1.1326">
        <ele>74</ele>
        <time>2025-04-26T08:48:12Z</time>
      </trkpt>
      <trkpt lat="45.29645" lon="-1.13258">
        <ele>74</ele>
        <time>2025-04-26T08:48:13Z</time>
      </trkpt>
      <trkpt lat="45.2965" lon="-1.13256">
        <ele>74</ele>
        <time>2025-04-26T08:48:14Z</time>
      </trkpt>
      <trkpt lat="45.29655" lon="-1.13254">
        <ele>75</ele>
        <time>2025-04-26T08:48:15Z</time>
      </trkpt>
      <trkpt lat="45.29659" lon="-1.13253">
        <ele>75</ele>
        <time>2025-04-26T08:48:16Z</time>
      </trkpt>
      <trkpt lat="45.29664" lon="-1.13251">
        <ele>75</ele>
        <time>2025-04-26T08:48:17Z</time>
      </trkpt>
      <trkpt lat="45.29668" lon="-1.13249">
        <ele>75</ele>
        <time>2025-04-26T08:48:18Z</time>
      </trkpt>
      <trkpt lat="45.29672" lon="-1.13247">
        <ele>75</ele>
        <time>2025-04-26T08:48:19Z</time>
      </trkpt>
      <trkpt lat="45.29676" lon="-1.13246">
        <ele>75</ele>
        <time>2025-04-26T08:48:20Z</time>
      </trkpt>
      <trkpt lat="45.29679" lon="-1.13245">
        <ele>76</ele>
        <time>2025-04-26T08:48:21Z</time>
      </trkpt>
      <trkpt lat="45.29683" lon="-1.13243">
        <ele>76</ele>
        <time>2025-04-26T08:48:22Z</time>
      </trkpt>
      <trkpt lat="45.29687" lon="-1.13241">
        <ele>77</ele>
        <time>2025-04-26T08:48:23Z</time>
      </trkpt>
      <trkpt lat="45.29691" lon="-1.1324">
        <ele>77</ele>
        <time>2025-04-26T08:48:24Z</time>
      </trkpt>
      <trkpt lat="45.29696" lon="-1.13238">
        <ele>77</ele>
        <time>2025-04-26T08:48:25Z</time>
      </trkpt>
      <trkpt lat="45.297" lon="-1.13237">
        <ele>76</ele>
        <time>2025-04-26T08:48:26Z</time>
      </trkpt>
      <trkpt lat="45.29704" lon="-1.13236">
        <ele>76</ele>
        <time>2025-04-26T08:48:27Z</time>
      </trkpt>
      <trkpt lat="45.29708" lon="-1.13235">
        <ele>75</ele>
        <time>2025-04-26T08:48:28Z</time>
      </trkpt>
      <trkpt lat="45.29713" lon="-1.13234">
        <ele>75</ele>
        <time>2025-04-26T08:48:29Z</time>
      </trkpt>
      <trkpt lat="45.29717" lon="-1.13232">
        <ele>76</ele>
        <time>2025-04-26T08:48:30Z</time>
      </trkpt>
      <trkpt lat="45.29721" lon="-1.13231">
        <ele>76</ele>
        <time>2025-04-26T08:48:31Z</time>
      </trkpt>
      <trkpt lat="45.29725" lon="-1.13229">
        <ele>76</ele>
        <time>2025-04-26T08:48:32Z</time>
      </trkpt>
      <trkpt lat="45.29729" lon="-1.13227">
        <ele>76</ele>
        <time>2025-04-26T08:48:33Z</time>
      </trkpt>
      <trkpt lat="45.29733" lon="-1.13225">
        <ele>76</ele>
        <time>2025-04-26T08:48:34Z</time>
      </trkpt>
      <trkpt lat="45.29737" lon="-1.13223">
        <ele>76</ele>
        <time>2025-04-26T08:48:35Z</time>
      </trkpt>
      <trkpt lat="45.29741" lon="-1.13222">
        <ele>75</ele>
        <time>2025-04-26T08:48:36Z</time>
      </trkpt>
      <trkpt lat="45.29745" lon="-1.1322">
        <ele>74</ele>
        <time>2025-04-26T08:48:37Z</time>
      </trkpt>
      <trkpt lat="45.29749" lon="-1.13219">
        <ele>74</ele>
        <time>2025-04-26T08:48:38Z</time>
      </trkpt>
      <trkpt lat="45.29753" lon="-1.13217">
        <ele>73</ele>
        <time>2025-04-26T08:48:39Z</time>
      </trkpt>
      <trkpt lat="45.29757" lon="-1.13215">
        <ele>73</ele>
        <time>2025-04-26T08:48:40Z</time>
      </trkpt>
      <trkpt lat="45.29761" lon="-1.13214">
        <ele>72</ele>
        <time>2025-04-26T08:48:41Z</time>
      </trkpt>
      <trkpt lat="45.29765" lon="-1.13214">
        <ele>72</ele>
        <time>2025-04-26T08:48:42Z</time>
      </trkpt>
      <trkpt lat="45.29769" lon="-1.13213">
        <ele>72</ele>
        <time>2025-04-26T08:48:43Z</time>
      </trkpt>
      <trkpt lat="45.29772" lon="-1.13213">
        <ele>73</ele>
        <time>2025-04-26T08:48:44Z</time>
      </trkpt>
      <trkpt lat="45.29775" lon="-1.13212">
        <ele>73</ele>
        <time>2025-04-26T08:48:45Z</time>
      </trkpt>
      <trkpt lat="45.29779" lon="-1.13211">
        <ele>73</ele>
        <time>2025-04-26T08:48:46Z</time>
      </trkpt>
      <trkpt lat="45.29782" lon="-1.1321">
        <ele>74</ele>
        <time>2025-04-26T08:48:47Z</time>
      </trkpt>
      <trkpt lat="45.29785" lon="-1.13208">
        <ele>74</ele>
        <time>2025-04-26T08:48:48Z</time>
      </trkpt>
      <trkpt lat="45.29789" lon="-1.13207">
        <ele>74</ele>
        <time>2025-04-26T08:48:49Z</time>
      </trkpt>
      <trkpt lat="45.29792" lon="-1.13205">
        <ele>74</ele>
        <time>2025-04-26T08:48:50Z</time>
      </trkpt>
      <trkpt lat="45.29795" lon="-1.13204">
        <ele>74</ele>
        <time>2025-04-26T08:48:51Z</time>
      </trkpt>
      <trkpt lat="45.29797" lon="-1.13203">
        <ele>75</ele>
        <time>2025-04-26T08:48:52Z</time>
      </trkpt>
      <trkpt lat="45.298" lon="-1.13202">
        <ele>75</ele>
        <time>2025-04-26T08:48:53Z</time>
      </trkpt>
      <trkpt lat="45.29803" lon="-1.13201">
        <ele>77</ele>
        <time>2025-04-26T08:48:54Z</time>
      </trkpt>
      <trkpt lat="45.29806" lon="-1.13199">
        <ele>78</ele>
        <time>2025-04-26T08:48:55Z</time>
      </trkpt>
      <trkpt lat="45.29809" lon="-1.13198">
        <ele>80</ele>
        <time>2025-04-26T08:48:56Z</time>
      </trkpt>
      <trkpt lat="45.29813" lon="-1.13195">
        <ele>81</ele>
        <time>2025-04-26T08:48:57Z</time>
      </trkpt>
      <trkpt lat="45.29816" lon="-1.13194">
        <ele>81</ele>
        <time>2025-04-26T08:48:58Z</time>
      </trkpt>
      <trkpt lat="45.29819" lon="-1.13193">
        <ele>82</ele>
        <time>2025-04-26T08:48:59Z</time>
      </trkpt>
      <trkpt lat="45.29823" lon="-1.13192">
        <ele>83</ele>
        <time>2025-04-26T08:49:00Z</time>
      </trkpt>
      <trkpt lat="45.29827" lon="-1.13191">
        <ele>83</ele>
        <time>2025-04-26T08:49:01Z</time>
      </trkpt>
      <trkpt lat="45.29831" lon="-1.1319">
        <ele>83</ele>
        <time>2025-04-26T08:49:02Z</time>
      </trkpt>
      <trkpt lat="45.29835" lon="-1.13188">
        <ele>83</ele>
        <time>2025-04-26T08:49:03Z</time>
      </trkpt>
      <trkpt lat="45.29838" lon="-1.13187">
        <ele>83</ele>
        <time>2025-04-26T08:49:04Z</time>
      </trkpt>
      <trkpt lat="45.29841" lon="-1.13186">
        <ele>84</ele>
        <time>2025-04-26T08:49:05Z</time>
      </trkpt>
      <trkpt lat="45.29845" lon="-1.13185">
        <ele>83</ele>
        <time>2025-04-26T08:49:06Z</time>
      </trkpt>
      <trkpt lat="45.29848" lon="-1.13184">
        <ele>83</ele>
        <time>2025-04-26T08:49:07Z</time>
      </trkpt>
      <trkpt lat="45.29852" lon="-1.13183">
        <ele>83</ele>
        <time>2025-04-26T08:49:08Z</time>
      </trkpt>
      <trkpt lat="45.29855" lon="-1.13181">
        <ele>83</ele>
        <time>2025-04-26T08:49:09Z</time>
      </trkpt>
      <trkpt lat="45.29858" lon="-1.1318">
        <ele>83</ele>
        <time>2025-04-26T08:49:10Z</time>
      </trkpt>
      <trkpt lat="45.29861" lon="-1.13179">
        <ele>83</ele>
        <time>2025-04-26T08:49:11Z</time>
      </trkpt>
      <trkpt lat="45.29864" lon="-1.13178">
        <ele>84</ele>
        <time>2025-04-26T08:49:12Z</time>
      </trkpt>
      <trkpt lat="45.29868" lon="-1.13177">
        <ele>84</ele>
        <time>2025-04-26T08:49:13Z</time>
      </trkpt>
      <trkpt lat="45.29872" lon="-1.13176">
        <ele>85</ele>
        <time>2025-04-26T08:49:14Z</time>
      </trkpt>
      <trkpt lat="45.29876" lon="-1.13176">
        <ele>85</ele>
        <time>2025-04-26T08:49:15Z</time>
      </trkpt>
      <trkpt lat="45.2988" lon="-1.13175">
        <ele>85</ele>
        <time>2025-04-26T08:49:16Z</time>
      </trkpt>
      <trkpt lat="45.29884" lon="-1.13175">
        <ele>85</ele>
        <time>2025-04-26T08:49:17Z</time>
      </trkpt>
      <trkpt lat="45.29888" lon="-1.13175">
        <ele>84</ele>
        <time>2025-04-26T08:49:18Z</time>
      </trkpt>
      <trkpt lat="45.29893" lon="-1.13175">
        <ele>84</ele>
        <time>2025-04-26T08:49:19Z</time>
      </trkpt>
      <trkpt lat="45.29897" lon="-1.13175">
        <ele>83</ele>
        <time>2025-04-26T08:49:20Z</time>
      </trkpt>
      <trkpt lat="45.29901" lon="-1.13176">
        <ele>83</ele>
        <time>2025-04-26T08:49:21Z</time>
      </trkpt>
      <trkpt lat="45.29906" lon="-1.13175">
        <ele>83</ele>
        <time>2025-04-26T08:49:22Z</time>
      </trkpt>
      <trkpt lat="45.29909" lon="-1.13174">
        <ele>82</ele>
        <time>2025-04-26T08:49:23Z</time>
      </trkpt>
      <trkpt lat="45.29914" lon="-1.13174">
        <ele>81</ele>
        <time>2025-04-26T08:49:24Z</time>
      </trkpt>
      <trkpt lat="45.29918" lon="-1.13174">
        <ele>81</ele>
        <time>2025-04-26T08:49:25Z</time>
      </trkpt>
      <trkpt lat="45.29922" lon="-1.13175">
        <ele>80</ele>
        <time>2025-04-26T08:49:26Z</time>
      </trkpt>
      <trkpt lat="45.29927" lon="-1.13176">
        <ele>80</ele>
        <time>2025-04-26T08:49:27Z</time>
      </trkpt>
      <trkpt lat="45.29931" lon="-1.13176">
        <ele>80</ele>
        <time>2025-04-26T08:49:28Z</time>
      </trkpt>
      <trkpt lat="45.29935" lon="-1.13176">
        <ele>79</ele>
        <time>2025-04-26T08:49:29Z</time>
      </trkpt>
      <trkpt lat="45.29939" lon="-1.13176">
        <ele>78</ele>
        <time>2025-04-26T08:49:30Z</time>
      </trkpt>
      <trkpt lat="45.29943" lon="-1.13177">
        <ele>78</ele>
        <time>2025-04-26T08:49:31Z</time>
      </trkpt>
      <trkpt lat="45.29947" lon="-1.13177">
        <ele>77</ele>
        <time>2025-04-26T08:49:32Z</time>
      </trkpt>
      <trkpt lat="45.29951" lon="-1.13178">
        <ele>76</ele>
        <time>2025-04-26T08:49:33Z</time>
      </trkpt>
      <trkpt lat="45.29954" lon="-1.1318">
        <ele>76</ele>
        <time>2025-04-26T08:49:34Z</time>
      </trkpt>
      <trkpt lat="45.29958" lon="-1.13181">
        <ele>76</ele>
        <time>2025-04-26T08:49:35Z</time>
      </trkpt>
      <trkpt lat="45.29963" lon="-1.13183">
        <ele>76</ele>
        <time>2025-04-26T08:49:36Z</time>
      </trkpt>
      <trkpt lat="45.29967" lon="-1.13185">
        <ele>76</ele>
        <time>2025-04-26T08:49:37Z</time>
      </trkpt>
      <trkpt lat="45.2997" lon="-1.13186">
        <ele>76</ele>
        <time>2025-04-26T08:49:38Z</time>
      </trkpt>
      <trkpt lat="45.29974" lon="-1.13188">
        <ele>76</ele>
        <time>2025-04-26T08:49:39Z</time>
      </trkpt>
      <trkpt lat="45.29977" lon="-1.1319">
        <ele>76</ele>
        <time>2025-04-26T08:49:40Z</time>
      </trkpt>
      <trkpt lat="45.29981" lon="-1.13193">
        <ele>76</ele>
        <time>2025-04-26T08:49:41Z</time>
      </trkpt>
      <trkpt lat="45.29985" lon="-1.13195">
        <ele>75</ele>
        <time>2025-04-26T08:49:42Z</time>
      </trkpt>
      <trkpt lat="45.29988" lon="-1.13198">
        <ele>75</ele>
        <time>2025-04-26T08:49:43Z</time>
      </trkpt>
      <trkpt lat="45.29992" lon="-1.13201">
        <ele>75</ele>
        <time>2025-04-26T08:49:44Z</time>
      </trkpt>
      <trkpt lat="45.29995" lon="-1.13204">
        <ele>75</ele>
        <time>2025-04-26T08:49:45Z</time>
      </trkpt>
      <trkpt lat="45.29999" lon="-1.13207">
        <ele>75</ele>
        <time>2025-04-26T08:49:46Z</time>
      </trkpt>
      <trkpt lat="45.30002" lon="-1.13209">
        <ele>75</ele>
        <time>2025-04-26T08:49:47Z</time>
      </trkpt>
      <trkpt lat="45.30006" lon="-1.13213">
        <ele>74</ele>
        <time>2025-04-26T08:49:48Z</time>
      </trkpt>
      <trkpt lat="45.30009" lon="-1.13216">
        <ele>74</ele>
        <time>2025-04-26T08:49:49Z</time>
      </trkpt>
      <trkpt lat="45.30013" lon="-1.13219">
        <ele>74</ele>
        <time>2025-04-26T08:49:50Z</time>
      </trkpt>
      <trkpt lat="45.30017" lon="-1.13222">
        <ele>74</ele>
        <time>2025-04-26T08:49:51Z</time>
      </trkpt>
      <trkpt lat="45.3002" lon="-1.13226">
        <ele>74</ele>
        <time>2025-04-26T08:49:52Z</time>
      </trkpt>
      <trkpt lat="45.30024" lon="-1.13229">
        <ele>74</ele>
        <time>2025-04-26T08:49:53Z</time>
      </trkpt>
      <trkpt lat="45.30027" lon="-1.13233">
        <ele>74</ele>
        <time>2025-04-26T08:49:54Z</time>
      </trkpt>
      <trkpt lat="45.3003" lon="-1.13235">
        <ele>75</ele>
        <time>2025-04-26T08:49:55Z</time>
      </trkpt>
      <trkpt lat="45.30033" lon="-1.13238">
        <ele>75</ele>
        <time>2025-04-26T08:49:56Z</time>
      </trkpt>
      <trkpt lat="45.30036" lon="-1.13241">
        <ele>76</ele>
        <time>2025-04-26T08:49:57Z</time>
      </trkpt>
      <trkpt lat="45.30039" lon="-1.13245">
        <ele>76</ele>
        <time>2025-04-26T08:49:58Z</time>
      </trkpt>
      <trkpt lat="45.30043" lon="-1.13248">
        <ele>76</ele>
        <time>2025-04-26T08:49:59Z</time>
      </trkpt>
      <trkpt lat="45.30046" lon="-1.13251">
        <ele>76</ele>
        <time>2025-04-26T08:50:00Z</time>
      </trkpt>
      <trkpt lat="45.30049" lon="-1.13253">
        <ele>76</ele>
        <time>2025-04-26T08:50:01Z</time>
      </trkpt>
      <trkpt lat="45.30052" lon="-1.13256">
        <ele>76</ele>
        <time>2025-04-26T08:50:02Z</time>
      </trkpt>
      <trkpt lat="45.30056" lon="-1.13259">
        <ele>76</ele>
        <time>2025-04-26T08:50:03Z</time>
      </trkpt>
      <trkpt lat="45.3006" lon="-1.13262">
        <ele>76</ele>
        <time>2025-04-26T08:50:04Z</time>
      </trkpt>
      <trkpt lat="45.30063" lon="-1.13265">
        <ele>75</ele>
        <time>2025-04-26T08:50:05Z</time>
      </trkpt>
      <trkpt lat="45.30066" lon="-1.13268">
        <ele>76</ele>
        <time>2025-04-26T08:50:06Z</time>
      </trkpt>
      <trkpt lat="45.3007" lon="-1.13272">
        <ele>76</ele>
        <time>2025-04-26T08:50:07Z</time>
      </trkpt>
      <trkpt lat="45.30073" lon="-1.13275">
        <ele>75</ele>
        <time>2025-04-26T08:50:08Z</time>
      </trkpt>
      <trkpt lat="45.30076" lon="-1.13279">
        <ele>74</ele>
        <time>2025-04-26T08:50:09Z</time>
      </trkpt>
      <trkpt lat="45.3008" lon="-1.13281">
        <ele>72</ele>
        <time>2025-04-26T08:50:10Z</time>
      </trkpt>
      <trkpt lat="45.30084" lon="-1.13285">
        <ele>71</ele>
        <time>2025-04-26T08:50:11Z</time>
      </trkpt>
      <trkpt lat="45.30088" lon="-1.13289">
        <ele>70</ele>
        <time>2025-04-26T08:50:12Z</time>
      </trkpt>
      <trkpt lat="45.30091" lon="-1.13292">
        <ele>70</ele>
        <time>2025-04-26T08:50:13Z</time>
      </trkpt>
      <trkpt lat="45.30094" lon="-1.13295">
        <ele>71</ele>
        <time>2025-04-26T08:50:14Z</time>
      </trkpt>
      <trkpt lat="45.30097" lon="-1.13298">
        <ele>71</ele>
        <time>2025-04-26T08:50:15Z</time>
      </trkpt>
      <trkpt lat="45.301" lon="-1.13301">
        <ele>71</ele>
        <time>2025-04-26T08:50:16Z</time>
      </trkpt>
      <trkpt lat="45.30104" lon="-1.13305">
        <ele>70</ele>
        <time>2025-04-26T08:50:17Z</time>
      </trkpt>
      <trkpt lat="45.30108" lon="-1.13308">
        <ele>72</ele>
        <time>2025-04-26T08:50:18Z</time>
      </trkpt>
      <trkpt lat="45.30111" lon="-1.13311">
        <ele>72</ele>
        <time>2025-04-26T08:50:19Z</time>
      </trkpt>
      <trkpt lat="45.30114" lon="-1.13315">
        <ele>73</ele>
        <time>2025-04-26T08:50:20Z</time>
      </trkpt>
      <trkpt lat="45.30118" lon="-1.13318">
        <ele>74</ele>
        <time>2025-04-26T08:50:21Z</time>
      </trkpt>
      <trkpt lat="45.30121" lon="-1.13321">
        <ele>75</ele>
        <time>2025-04-26T08:50:22Z</time>
      </trkpt>
      <trkpt lat="45.30125" lon="-1.13324">
        <ele>77</ele>
        <time>2025-04-26T08:50:23Z</time>
      </trkpt>
      <trkpt lat="45.30128" lon="-1.13327">
        <ele>77</ele>
        <time>2025-04-26T08:50:24Z</time>
      </trkpt>
      <trkpt lat="45.30132" lon="-1.1333">
        <ele>76</ele>
        <time>2025-04-26T08:50:25Z</time>
      </trkpt>
      <trkpt lat="45.30137" lon="-1.13334">
        <ele>75</ele>
        <time>2025-04-26T08:50:26Z</time>
      </trkpt>
      <trkpt lat="45.30141" lon="-1.13338">
        <ele>75</ele>
        <time>2025-04-26T08:50:27Z</time>
      </trkpt>
      <trkpt lat="45.30145" lon="-1.13342">
        <ele>75</ele>
        <time>2025-04-26T08:50:28Z</time>
      </trkpt>
      <trkpt lat="45.30149" lon="-1.13346">
        <ele>75</ele>
        <time>2025-04-26T08:50:29Z</time>
      </trkpt>
      <trkpt lat="45.30152" lon="-1.1335">
        <ele>75</ele>
        <time>2025-04-26T08:50:30Z</time>
      </trkpt>
      <trkpt lat="45.30156" lon="-1.13353">
        <ele>75</ele>
        <time>2025-04-26T08:50:31Z</time>
      </trkpt>
      <trkpt lat="45.3016" lon="-1.13356">
        <ele>76</ele>
        <time>2025-04-26T08:50:32Z</time>
      </trkpt>
      <trkpt lat="45.30164" lon="-1.1336">
        <ele>75</ele>
        <time>2025-04-26T08:50:33Z</time>
      </trkpt>
      <trkpt lat="45.30168" lon="-1.13363">
        <ele>76</ele>
        <time>2025-04-26T08:50:34Z</time>
      </trkpt>
      <trkpt lat="45.30172" lon="-1.13367">
        <ele>76</ele>
        <time>2025-04-26T08:50:35Z</time>
      </trkpt>
      <trkpt lat="45.30175" lon="-1.1337">
        <ele>76</ele>
        <time>2025-04-26T08:50:36Z</time>
      </trkpt>
      <trkpt lat="45.30179" lon="-1.13374">
        <ele>76</ele>
        <time>2025-04-26T08:50:37Z</time>
      </trkpt>
      <trkpt lat="45.30183" lon="-1.13377">
        <ele>77</ele>
        <time>2025-04-26T08:50:38Z</time>
      </trkpt>
      <trkpt lat="45.30186" lon="-1.1338">
        <ele>77</ele>
        <time>2025-04-26T08:50:39Z</time>
      </trkpt>
      <trkpt lat="45.3019" lon="-1.13383">
        <ele>77</ele>
        <time>2025-04-26T08:50:40Z</time>
      </trkpt>
      <trkpt lat="45.30193" lon="-1.13386">
        <ele>77</ele>
        <time>2025-04-26T08:50:41Z</time>
      </trkpt>
      <trkpt lat="45.30196" lon="-1.1339">
        <ele>78</ele>
        <time>2025-04-26T08:50:42Z</time>
      </trkpt>
      <trkpt lat="45.302" lon="-1.13393">
        <ele>78</ele>
        <time>2025-04-26T08:50:43Z</time>
      </trkpt>
      <trkpt lat="45.30203" lon="-1.13397">
        <ele>78</ele>
        <time>2025-04-26T08:50:44Z</time>
      </trkpt>
      <trkpt lat="45.30207" lon="-1.134">
        <ele>77</ele>
        <time>2025-04-26T08:50:45Z</time>
      </trkpt>
      <trkpt lat="45.30211" lon="-1.13404">
        <ele>77</ele>
        <time>2025-04-26T08:50:46Z</time>
      </trkpt>
      <trkpt lat="45.30214" lon="-1.13407">
        <ele>77</ele>
        <time>2025-04-26T08:50:47Z</time>
      </trkpt>
      <trkpt lat="45.30218" lon="-1.1341">
        <ele>77</ele>
        <time>2025-04-26T08:50:48Z</time>
      </trkpt>
      <trkpt lat="45.30222" lon="-1.13414">
        <ele>77</ele>
        <time>2025-04-26T08:50:49Z</time>
      </trkpt>
      <trkpt lat="45.30226" lon="-1.13417">
        <ele>76</ele>
        <time>2025-04-26T08:50:50Z</time>
      </trkpt>
      <trkpt lat="45.30229" lon="-1.13421">
        <ele>75</ele>
        <time>2025-04-26T08:50:51Z</time>
      </trkpt>
      <trkpt lat="45.30233" lon="-1.13424">
        <ele>75</ele>
        <time>2025-04-26T08:50:52Z</time>
      </trkpt>
      <trkpt lat="45.30236" lon="-1.13427">
        <ele>75</ele>
        <time>2025-04-26T08:50:53Z</time>
      </trkpt>
      <trkpt lat="45.3024" lon="-1.1343">
        <ele>76</ele>
        <time>2025-04-26T08:50:54Z</time>
      </trkpt>
      <trkpt lat="45.30244" lon="-1.13433">
        <ele>76</ele>
        <time>2025-04-26T08:50:55Z</time>
      </trkpt>
      <trkpt lat="45.30248" lon="-1.13437">
        <ele>77</ele>
        <time>2025-04-26T08:50:56Z</time>
      </trkpt>
      <trkpt lat="45.30251" lon="-1.1344">
        <ele>77</ele>
        <time>2025-04-26T08:50:57Z</time>
      </trkpt>
      <trkpt lat="45.30255" lon="-1.13443">
        <ele>75</ele>
        <time>2025-04-26T08:50:58Z</time>
      </trkpt>
      <trkpt lat="45.30259" lon="-1.13447">
        <ele>74</ele>
        <time>2025-04-26T08:50:59Z</time>
      </trkpt>
      <trkpt lat="45.30262" lon="-1.1345">
        <ele>73</ele>
        <time>2025-04-26T08:51:00Z</time>
      </trkpt>
      <trkpt lat="45.30266" lon="-1.13453">
        <ele>74</ele>
        <time>2025-04-26T08:51:01Z</time>
      </trkpt>
      <trkpt lat="45.3027" lon="-1.13457">
        <ele>74</ele>
        <time>2025-04-26T08:51:02Z</time>
      </trkpt>
      <trkpt lat="45.30274" lon="-1.1346">
        <ele>75</ele>
        <time>2025-04-26T08:51:03Z</time>
      </trkpt>
      <trkpt lat="45.30277" lon="-1.13464">
        <ele>75</ele>
        <time>2025-04-26T08:51:04Z</time>
      </trkpt>
      <trkpt lat="45.30282" lon="-1.13468">
        <ele>74</ele>
        <time>2025-04-26T08:51:05Z</time>
      </trkpt>
      <trkpt lat="45.30286" lon="-1.13471">
        <ele>74</ele>
        <time>2025-04-26T08:51:06Z</time>
      </trkpt>
      <trkpt lat="45.3029" lon="-1.13475">
        <ele>75</ele>
        <time>2025-04-26T08:51:07Z</time>
      </trkpt>
      <trkpt lat="45.30293" lon="-1.13478">
        <ele>74</ele>
        <time>2025-04-26T08:51:08Z</time>
      </trkpt>
      <trkpt lat="45.30297" lon="-1.13482">
        <ele>74</ele>
        <time>2025-04-26T08:51:09Z</time>
      </trkpt>
      <trkpt lat="45.30301" lon="-1.13486">
        <ele>73</ele>
        <time>2025-04-26T08:51:10Z</time>
      </trkpt>
      <trkpt lat="45.30305" lon="-1.1349">
        <ele>73</ele>
        <time>2025-04-26T08:51:11Z</time>
      </trkpt>
      <trkpt lat="45.30308" lon="-1.13493">
        <ele>73</ele>
        <time>2025-04-26T08:51:12Z</time>
      </trkpt>
      <trkpt lat="45.30312" lon="-1.13497">
        <ele>73</ele>
        <time>2025-04-26T08:51:13Z</time>
      </trkpt>
      <trkpt lat="45.30316" lon="-1.135">
        <ele>72</ele>
        <time>2025-04-26T08:51:14Z</time>
      </trkpt>
      <trkpt lat="45.30319" lon="-1.13504">
        <ele>72</ele>
        <time>2025-04-26T08:51:15Z</time>
      </trkpt>
      <trkpt lat="45.30323" lon="-1.13508">
        <ele>73</ele>
        <time>2025-04-26T08:51:16Z</time>
      </trkpt>
      <trkpt lat="45.30326" lon="-1.13511">
        <ele>73</ele>
        <time>2025-04-26T08:51:17Z</time>
      </trkpt>
      <trkpt lat="45.3033" lon="-1.13514">
        <ele>73</ele>
        <time>2025-04-26T08:51:18Z</time>
      </trkpt>
      <trkpt lat="45.30333" lon="-1.13517">
        <ele>73</ele>
        <time>2025-04-26T08:51:19Z</time>
      </trkpt>
      <trkpt lat="45.30337" lon="-1.1352">
        <ele>74</ele>
        <time>2025-04-26T08:51:20Z</time>
      </trkpt>
      <trkpt lat="45.30341" lon="-1.13524">
        <ele>74</ele>
        <time>2025-04-26T08:51:21Z</time>
      </trkpt>
      <trkpt lat="45.30345" lon="-1.13526">
        <ele>75</ele>
        <time>2025-04-26T08:51:22Z</time>
      </trkpt>
      <trkpt lat="45.30348" lon="-1.13529">
        <ele>76</ele>
        <time>2025-04-26T08:51:23Z</time>
      </trkpt>
      <trkpt lat="45.30351" lon="-1.13533">
        <ele>76</ele>
        <time>2025-04-26T08:51:24Z</time>
      </trkpt>
      <trkpt lat="45.30355" lon="-1.13536">
        <ele>76</ele>
        <time>2025-04-26T08:51:25Z</time>
      </trkpt>
      <trkpt lat="45.30359" lon="-1.13539">
        <ele>75</ele>
        <time>2025-04-26T08:51:26Z</time>
      </trkpt>
      <trkpt lat="45.30362" lon="-1.13543">
        <ele>75</ele>
        <time>2025-04-26T08:51:27Z</time>
      </trkpt>
      <trkpt lat="45.30366" lon="-1.13547">
        <ele>75</ele>
        <time>2025-04-26T08:51:28Z</time>
      </trkpt>
      <trkpt lat="45.3037" lon="-1.1355">
        <ele>75</ele>
        <time>2025-04-26T08:51:29Z</time>
      </trkpt>
      <trkpt lat="45.30374" lon="-1.13553">
        <ele>75</ele>
        <time>2025-04-26T08:51:30Z</time>
      </trkpt>
      <trkpt lat="45.30377" lon="-1.13556">
        <ele>75</ele>
        <time>2025-04-26T08:51:31Z</time>
      </trkpt>
      <trkpt lat="45.30381" lon="-1.1356">
        <ele>75</ele>
        <time>2025-04-26T08:51:32Z</time>
      </trkpt>
      <trkpt lat="45.30384" lon="-1.13562">
        <ele>75</ele>
        <time>2025-04-26T08:51:33Z</time>
      </trkpt>
      <trkpt lat="45.30388" lon="-1.13566">
        <ele>74</ele>
        <time>2025-04-26T08:51:34Z</time>
      </trkpt>
      <trkpt lat="45.30392" lon="-1.13569">
        <ele>74</ele>
        <time>2025-04-26T08:51:35Z</time>
      </trkpt>
      <trkpt lat="45.30396" lon="-1.13573">
        <ele>74</ele>
        <time>2025-04-26T08:51:36Z</time>
      </trkpt>
      <trkpt lat="45.304" lon="-1.13576">
        <ele>74</ele>
        <time>2025-04-26T08:51:37Z</time>
      </trkpt>
      <trkpt lat="45.30403" lon="-1.1358">
        <ele>73</ele>
        <time>2025-04-26T08:51:38Z</time>
      </trkpt>
      <trkpt lat="45.30407" lon="-1.13584">
        <ele>73</ele>
        <time>2025-04-26T08:51:39Z</time>
      </trkpt>
      <trkpt lat="45.30411" lon="-1.13588">
        <ele>73</ele>
        <time>2025-04-26T08:51:40Z</time>
      </trkpt>
      <trkpt lat="45.30415" lon="-1.13592">
        <ele>72</ele>
        <time>2025-04-26T08:51:41Z</time>
      </trkpt>
      <trkpt lat="45.30419" lon="-1.13596">
        <ele>72</ele>
        <time>2025-04-26T08:51:42Z</time>
      </trkpt>
      <trkpt lat="45.30422" lon="-1.136">
        <ele>71</ele>
        <time>2025-04-26T08:51:43Z</time>
      </trkpt>
      <trkpt lat="45.30426" lon="-1.13604">
        <ele>71</ele>
        <time>2025-04-26T08:51:44Z</time>
      </trkpt>
      <trkpt lat="45.3043" lon="-1.13607">
        <ele>71</ele>
        <time>2025-04-26T08:51:45Z</time>
      </trkpt>
      <trkpt lat="45.30433" lon="-1.13611">
        <ele>71</ele>
        <time>2025-04-26T08:51:46Z</time>
      </trkpt>
      <trkpt lat="45.30437" lon="-1.13614">
        <ele>71</ele>
        <time>2025-04-26T08:51:47Z</time>
      </trkpt>
      <trkpt lat="45.30441" lon="-1.13617">
        <ele>72</ele>
        <time>2025-04-26T08:51:48Z</time>
      </trkpt>
      <trkpt lat="45.30445" lon="-1.1362">
        <ele>72</ele>
        <time>2025-04-26T08:51:49Z</time>
      </trkpt>
      <trkpt lat="45.30449" lon="-1.13623">
        <ele>72</ele>
        <time>2025-04-26T08:51:50Z</time>
      </trkpt>
      <trkpt lat="45.30452" lon="-1.13625">
        <ele>72</ele>
        <time>2025-04-26T08:51:51Z</time>
      </trkpt>
      <trkpt lat="45.30455" lon="-1.13629">
        <ele>72</ele>
        <time>2025-04-26T08:51:52Z</time>
      </trkpt>
      <trkpt lat="45.30458" lon="-1.13633">
        <ele>72</ele>
        <time>2025-04-26T08:51:53Z</time>
      </trkpt>
      <trkpt lat="45.30461" lon="-1.13636">
        <ele>72</ele>
        <time>2025-04-26T08:51:54Z</time>
      </trkpt>
      <trkpt lat="45.30464" lon="-1.13639">
        <ele>72</ele>
        <time>2025-04-26T08:51:55Z</time>
      </trkpt>
      <trkpt lat="45.30468" lon="-1.13643">
        <ele>72</ele>
        <time>2025-04-26T08:51:56Z</time>
      </trkpt>
      <trkpt lat="45.30472" lon="-1.13645">
        <ele>72</ele>
        <time>2025-04-26T08:51:57Z</time>
      </trkpt>
      <trkpt lat="45.30475" lon="-1.13649">
        <ele>72</ele>
        <time>2025-04-26T08:51:58Z</time>
      </trkpt>
      <trkpt lat="45.30478" lon="-1.13652">
        <ele>72</ele>
        <time>2025-04-26T08:51:59Z</time>
      </trkpt>
      <trkpt lat="45.30481" lon="-1.13655">
        <ele>72</ele>
        <time>2025-04-26T08:52:00Z</time>
      </trkpt>
      <trkpt lat="45.30484" lon="-1.13658">
        <ele>72</ele>
        <time>2025-04-26T08:52:01Z</time>
      </trkpt>
      <trkpt lat="45.30487" lon="-1.13661">
        <ele>72</ele>
        <time>2025-04-26T08:52:02Z</time>
      </trkpt>
      <trkpt lat="45.3049" lon="-1.13664">
        <ele>72</ele>
        <time>2025-04-26T08:52:03Z</time>
      </trkpt>
      <trkpt lat="45.30493" lon="-1.13667">
        <ele>72</ele>
        <time>2025-04-26T08:52:04Z</time>
      </trkpt>
      <trkpt lat="45.30496" lon="-1.13669">
        <ele>72</ele>
        <time>2025-04-26T08:52:05Z</time>
      </trkpt>
      <trkpt lat="45.30499" lon="-1.13672">
        <ele>72</ele>
        <time>2025-04-26T08:52:06Z</time>
      </trkpt>
      <trkpt lat="45.30503" lon="-1.13674">
        <ele>71</ele>
        <time>2025-04-26T08:52:07Z</time>
      </trkpt>
      <trkpt lat="45.30506" lon="-1.13678">
        <ele>71</ele>
        <time>2025-04-26T08:52:08Z</time>
      </trkpt>
      <trkpt lat="45.3051" lon="-1.1368">
        <ele>71</ele>
        <time>2025-04-26T08:52:09Z</time>
      </trkpt>
      <trkpt lat="45.30513" lon="-1.13683">
        <ele>71</ele>
        <time>2025-04-26T08:52:10Z</time>
      </trkpt>
      <trkpt lat="45.30516" lon="-1.13686">
        <ele>70</ele>
        <time>2025-04-26T08:52:11Z</time>
      </trkpt>
      <trkpt lat="45.30519" lon="-1.13689">
        <ele>70</ele>
        <time>2025-04-26T08:52:12Z</time>
      </trkpt>
      <trkpt lat="45.30522" lon="-1.13692">
        <ele>70</ele>
        <time>2025-04-26T08:52:13Z</time>
      </trkpt>
      <trkpt lat="45.30525" lon="-1.13694">
        <ele>70</ele>
        <time>2025-04-26T08:52:14Z</time>
      </trkpt>
      <trkpt lat="45.30528" lon="-1.13696">
        <ele>71</ele>
        <time>2025-04-26T08:52:15Z</time>
      </trkpt>
      <trkpt lat="45.30531" lon="-1.13699">
        <ele>71</ele>
        <time>2025-04-26T08:52:16Z</time>
      </trkpt>
      <trkpt lat="45.30535" lon="-1.13702">
        <ele>72</ele>
        <time>2025-04-26T08:52:17Z</time>
      </trkpt>
      <trkpt lat="45.30538" lon="-1.13705">
        <ele>72</ele>
        <time>2025-04-26T08:52:18Z</time>
      </trkpt>
      <trkpt lat="45.30542" lon="-1.13708">
        <ele>73</ele>
        <time>2025-04-26T08:52:19Z</time>
      </trkpt>
      <trkpt lat="45.30545" lon="-1.1371">
        <ele>74</ele>
        <time>2025-04-26T08:52:20Z</time>
      </trkpt>
      <trkpt lat="45.30548" lon="-1.13712">
        <ele>75</ele>
        <time>2025-04-26T08:52:21Z</time>
      </trkpt>
      <trkpt lat="45.30551" lon="-1.13715">
        <ele>75</ele>
        <time>2025-04-26T08:52:22Z</time>
      </trkpt>
      <trkpt lat="45.30555" lon="-1.13717">
        <ele>75</ele>
        <time>2025-04-26T08:52:23Z</time>
      </trkpt>
      <trkpt lat="45.30559" lon="-1.1372">
        <ele>75</ele>
        <time>2025-04-26T08:52:24Z</time>
      </trkpt>
      <trkpt lat="45.30563" lon="-1.13722">
        <ele>75</ele>
        <time>2025-04-26T08:52:25Z</time>
      </trkpt>
      <trkpt lat="45.30567" lon="-1.13724">
        <ele>75</ele>
        <time>2025-04-26T08:52:26Z</time>
      </trkpt>
      <trkpt lat="45.30571" lon="-1.13726">
        <ele>75</ele>
        <time>2025-04-26T08:52:27Z</time>
      </trkpt>
      <trkpt lat="45.30574" lon="-1.13729">
        <ele>75</ele>
        <time>2025-04-26T08:52:28Z</time>
      </trkpt>
      <trkpt lat="45.30578" lon="-1.13731">
        <ele>75</ele>
        <time>2025-04-26T08:52:29Z</time>
      </trkpt>
      <trkpt lat="45.30582" lon="-1.13733">
        <ele>75</ele>
        <time>2025-04-26T08:52:30Z</time>
      </trkpt>
      <trkpt lat="45.30585" lon="-1.13735">
        <ele>75</ele>
        <time>2025-04-26T08:52:31Z</time>
      </trkpt>
      <trkpt lat="45.30589" lon="-1.13736">
        <ele>75</ele>
        <time>2025-04-26T08:52:32Z</time>
      </trkpt>
      <trkpt lat="45.30592" lon="-1.13737">
        <ele>76</ele>
        <time>2025-04-26T08:52:33Z</time>
      </trkpt>
      <trkpt lat="45.30596" lon="-1.13739">
        <ele>76</ele>
        <time>2025-04-26T08:52:34Z</time>
      </trkpt>
      <trkpt lat="45.306" lon="-1.13741">
        <ele>76</ele>
        <time>2025-04-26T08:52:35Z</time>
      </trkpt>
      <trkpt lat="45.30603" lon="-1.13743">
        <ele>77</ele>
        <time>2025-04-26T08:52:36Z</time>
      </trkpt>
      <trkpt lat="45.30607" lon="-1.13744">
        <ele>77</ele>
        <time>2025-04-26T08:52:37Z</time>
      </trkpt>
      <trkpt lat="45.30611" lon="-1.13745">
        <ele>77</ele>
        <time>2025-04-26T08:52:38Z</time>
      </trkpt>
      <trkpt lat="45.30615" lon="-1.13747">
        <ele>76</ele>
        <time>2025-04-26T08:52:39Z</time>
      </trkpt>
      <trkpt lat="45.30619" lon="-1.13748">
        <ele>77</ele>
        <time>2025-04-26T08:52:40Z</time>
      </trkpt>
      <trkpt lat="45.30623" lon="-1.13749">
        <ele>76</ele>
        <time>2025-04-26T08:52:41Z</time>
      </trkpt>
      <trkpt lat="45.30627" lon="-1.13749">
        <ele>77</ele>
        <time>2025-04-26T08:52:42Z</time>
      </trkpt>
      <trkpt lat="45.30631" lon="-1.1375">
        <ele>77</ele>
        <time>2025-04-26T08:52:43Z</time>
      </trkpt>
      <trkpt lat="45.30635" lon="-1.13751">
        <ele>76</ele>
        <time>2025-04-26T08:52:44Z</time>
      </trkpt>
      <trkpt lat="45.30639" lon="-1.13752">
        <ele>76</ele>
        <time>2025-04-26T08:52:45Z</time>
      </trkpt>
      <trkpt lat="45.30644" lon="-1.13752">
        <ele>76</ele>
        <time>2025-04-26T08:52:46Z</time>
      </trkpt>
      <trkpt lat="45.30647" lon="-1.13752">
        <ele>77</ele>
        <time>2025-04-26T08:52:47Z</time>
      </trkpt>
      <trkpt lat="45.30651" lon="-1.13753">
        <ele>77</ele>
        <time>2025-04-26T08:52:48Z</time>
      </trkpt>
      <trkpt lat="45.30655" lon="-1.13753">
        <ele>77</ele>
        <time>2025-04-26T08:52:49Z</time>
      </trkpt>
      <trkpt lat="45.30659" lon="-1.13754">
        <ele>77</ele>
        <time>2025-04-26T08:52:50Z</time>
      </trkpt>
      <trkpt lat="45.30663" lon="-1.13754">
        <ele>77</ele>
        <time>2025-04-26T08:52:51Z</time>
      </trkpt>
      <trkpt lat="45.30668" lon="-1.13755">
        <ele>78</ele>
        <time>2025-04-26T08:52:52Z</time>
      </trkpt>
      <trkpt lat="45.30672" lon="-1.13755">
        <ele>78</ele>
        <time>2025-04-26T08:52:53Z</time>
      </trkpt>
      <trkpt lat="45.30677" lon="-1.13755">
        <ele>77</ele>
        <time>2025-04-26T08:52:54Z</time>
      </trkpt>
      <trkpt lat="45.30681" lon="-1.13755">
        <ele>78</ele>
        <time>2025-04-26T08:52:55Z</time>
      </trkpt>
      <trkpt lat="45.30685" lon="-1.13755">
        <ele>78</ele>
        <time>2025-04-26T08:52:56Z</time>
      </trkpt>
      <trkpt lat="45.30689" lon="-1.13755">
        <ele>77</ele>
        <time>2025-04-26T08:52:57Z</time>
      </trkpt>
      <trkpt lat="45.30693" lon="-1.13754">
        <ele>78</ele>
        <time>2025-04-26T08:52:58Z</time>
      </trkpt>
      <trkpt lat="45.30696" lon="-1.13754">
        <ele>77</ele>
        <time>2025-04-26T08:52:59Z</time>
      </trkpt>
      <trkpt lat="45.307" lon="-1.13753">
        <ele>77</ele>
        <time>2025-04-26T08:53:00Z</time>
      </trkpt>
      <trkpt lat="45.30703" lon="-1.13753">
        <ele>77</ele>
        <time>2025-04-26T08:53:01Z</time>
      </trkpt>
      <trkpt lat="45.30707" lon="-1.13753">
        <ele>77</ele>
        <time>2025-04-26T08:53:02Z</time>
      </trkpt>
      <trkpt lat="45.30711" lon="-1.13752">
        <ele>76</ele>
        <time>2025-04-26T08:53:03Z</time>
      </trkpt>
      <trkpt lat="45.30715" lon="-1.13752">
        <ele>76</ele>
        <time>2025-04-26T08:53:04Z</time>
      </trkpt>
      <trkpt lat="45.30718" lon="-1.13751">
        <ele>76</ele>
        <time>2025-04-26T08:53:05Z</time>
      </trkpt>
      <trkpt lat="45.30722" lon="-1.13751">
        <ele>76</ele>
        <time>2025-04-26T08:53:06Z</time>
      </trkpt>
      <trkpt lat="45.30726" lon="-1.1375">
        <ele>76</ele>
        <time>2025-04-26T08:53:07Z</time>
      </trkpt>
      <trkpt lat="45.3073" lon="-1.13749">
        <ele>77</ele>
        <time>2025-04-26T08:53:08Z</time>
      </trkpt>
      <trkpt lat="45.30734" lon="-1.13747">
        <ele>77</ele>
        <time>2025-04-26T08:53:09Z</time>
      </trkpt>
      <trkpt lat="45.30738" lon="-1.13747">
        <ele>78</ele>
        <time>2025-04-26T08:53:10Z</time>
      </trkpt>
      <trkpt lat="45.30742" lon="-1.13746">
        <ele>78</ele>
        <time>2025-04-26T08:53:11Z</time>
      </trkpt>
      <trkpt lat="45.30746" lon="-1.13745">
        <ele>78</ele>
        <time>2025-04-26T08:53:12Z</time>
      </trkpt>
      <trkpt lat="45.3075" lon="-1.13744">
        <ele>78</ele>
        <time>2025-04-26T08:53:13Z</time>
      </trkpt>
      <trkpt lat="45.30753" lon="-1.13743">
        <ele>78</ele>
        <time>2025-04-26T08:53:14Z</time>
      </trkpt>
      <trkpt lat="45.30757" lon="-1.13741">
        <ele>79</ele>
        <time>2025-04-26T08:53:15Z</time>
      </trkpt>
      <trkpt lat="45.30761" lon="-1.13741">
        <ele>79</ele>
        <time>2025-04-26T08:53:16Z</time>
      </trkpt>
      <trkpt lat="45.30765" lon="-1.1374">
        <ele>80</ele>
        <time>2025-04-26T08:53:17Z</time>
      </trkpt>
      <trkpt lat="45.30769" lon="-1.13739">
        <ele>80</ele>
        <time>2025-04-26T08:53:18Z</time>
      </trkpt>
      <trkpt lat="45.30773" lon="-1.13737">
        <ele>81</ele>
        <time>2025-04-26T08:53:19Z</time>
      </trkpt>
      <trkpt lat="45.30777" lon="-1.13736">
        <ele>81</ele>
        <time>2025-04-26T08:53:20Z</time>
      </trkpt>
      <trkpt lat="45.30782" lon="-1.13735">
        <ele>81</ele>
        <time>2025-04-26T08:53:21Z</time>
      </trkpt>
      <trkpt lat="45.30786" lon="-1.13734">
        <ele>81</ele>
        <time>2025-04-26T08:53:22Z</time>
      </trkpt>
      <trkpt lat="45.3079" lon="-1.13733">
        <ele>80</ele>
        <time>2025-04-26T08:53:23Z</time>
      </trkpt>
      <trkpt lat="45.30794" lon="-1.13732">
        <ele>81</ele>
        <time>2025-04-26T08:53:24Z</time>
      </trkpt>
      <trkpt lat="45.30798" lon="-1.1373">
        <ele>79</ele>
        <time>2025-04-26T08:53:25Z</time>
      </trkpt>
      <trkpt lat="45.30803" lon="-1.13728">
        <ele>79</ele>
        <time>2025-04-26T08:53:26Z</time>
      </trkpt>
      <trkpt lat="45.30807" lon="-1.13727">
        <ele>79</ele>
        <time>2025-04-26T08:53:27Z</time>
      </trkpt>
      <trkpt lat="45.3081" lon="-1.13726">
        <ele>79</ele>
        <time>2025-04-26T08:53:28Z</time>
      </trkpt>
      <trkpt lat="45.30814" lon="-1.13725">
        <ele>80</ele>
        <time>2025-04-26T08:53:29Z</time>
      </trkpt>
      <trkpt lat="45.30819" lon="-1.13725">
        <ele>81</ele>
        <time>2025-04-26T08:53:30Z</time>
      </trkpt>
      <trkpt lat="45.30823" lon="-1.13723">
        <ele>81</ele>
        <time>2025-04-26T08:53:31Z</time>
      </trkpt>
      <trkpt lat="45.30827" lon="-1.13721">
        <ele>81</ele>
        <time>2025-04-26T08:53:32Z</time>
      </trkpt>
      <trkpt lat="45.30831" lon="-1.1372">
        <ele>81</ele>
        <time>2025-04-26T08:53:33Z</time>
      </trkpt>
      <trkpt lat="45.30835" lon="-1.13719">
        <ele>82</ele>
        <time>2025-04-26T08:53:34Z</time>
      </trkpt>
      <trkpt lat="45.30839" lon="-1.13718">
        <ele>82</ele>
        <time>2025-04-26T08:53:35Z</time>
      </trkpt>
      <trkpt lat="45.30843" lon="-1.13717">
        <ele>83</ele>
        <time>2025-04-26T08:53:36Z</time>
      </trkpt>
      <trkpt lat="45.30847" lon="-1.13715">
        <ele>83</ele>
        <time>2025-04-26T08:53:37Z</time>
      </trkpt>
      <trkpt lat="45.30852" lon="-1.13713">
        <ele>83</ele>
        <time>2025-04-26T08:53:38Z</time>
      </trkpt>
      <trkpt lat="45.30856" lon="-1.13712">
        <ele>82</ele>
        <time>2025-04-26T08:53:39Z</time>
      </trkpt>
      <trkpt lat="45.3086" lon="-1.13711">
        <ele>81</ele>
        <time>2025-04-26T08:53:40Z</time>
      </trkpt>
      <trkpt lat="45.30864" lon="-1.1371">
        <ele>81</ele>
        <time>2025-04-26T08:53:41Z</time>
      </trkpt>
      <trkpt lat="45.30868" lon="-1.13709">
        <ele>81</ele>
        <time>2025-04-26T08:53:42Z</time>
      </trkpt>
      <trkpt lat="45.30872" lon="-1.13708">
        <ele>80</ele>
        <time>2025-04-26T08:53:43Z</time>
      </trkpt>
      <trkpt lat="45.30877" lon="-1.13706">
        <ele>79</ele>
        <time>2025-04-26T08:53:44Z</time>
      </trkpt>
      <trkpt lat="45.30881" lon="-1.13706">
        <ele>79</ele>
        <time>2025-04-26T08:53:45Z</time>
      </trkpt>
      <trkpt lat="45.30885" lon="-1.13705">
        <ele>79</ele>
        <time>2025-04-26T08:53:46Z</time>
      </trkpt>
      <trkpt lat="45.30889" lon="-1.13705">
        <ele>79</ele>
        <time>2025-04-26T08:53:47Z</time>
      </trkpt>
      <trkpt lat="45.30894" lon="-1.13704">
        <ele>79</ele>
        <time>2025-04-26T08:53:48Z</time>
      </trkpt>
      <trkpt lat="45.30898" lon="-1.13703">
        <ele>79</ele>
        <time>2025-04-26T08:53:49Z</time>
      </trkpt>
      <trkpt lat="45.30902" lon="-1.13702">
        <ele>79</ele>
        <time>2025-04-26T08:53:50Z</time>
      </trkpt>
      <trkpt lat="45.30906" lon="-1.137">
        <ele>79</ele>
        <time>2025-04-26T08:53:51Z</time>
      </trkpt>
      <trkpt lat="45.3091" lon="-1.13699">
        <ele>78</ele>
        <time>2025-04-26T08:53:52Z</time>
      </trkpt>
      <trkpt lat="45.30915" lon="-1.13698">
        <ele>78</ele>
        <time>2025-04-26T08:53:53Z</time>
      </trkpt>
      <trkpt lat="45.30919" lon="-1.13697">
        <ele>78</ele>
        <time>2025-04-26T08:53:54Z</time>
      </trkpt>
      <trkpt lat="45.30924" lon="-1.13696">
        <ele>78</ele>
        <time>2025-04-26T08:53:55Z</time>
      </trkpt>
      <trkpt lat="45.30928" lon="-1.13695">
        <ele>77</ele>
        <time>2025-04-26T08:53:56Z</time>
      </trkpt>
      <trkpt lat="45.30932" lon="-1.13694">
        <ele>76</ele>
        <time>2025-04-26T08:53:57Z</time>
      </trkpt>
      <trkpt lat="45.30936" lon="-1.13693">
        <ele>75</ele>
        <time>2025-04-26T08:53:58Z</time>
      </trkpt>
      <trkpt lat="45.30941" lon="-1.13692">
        <ele>75</ele>
        <time>2025-04-26T08:53:59Z</time>
      </trkpt>
      <trkpt lat="45.30945" lon="-1.13691">
        <ele>75</ele>
        <time>2025-04-26T08:54:00Z</time>
      </trkpt>
      <trkpt lat="45.30949" lon="-1.13689">
        <ele>74</ele>
        <time>2025-04-26T08:54:01Z</time>
      </trkpt>
      <trkpt lat="45.30953" lon="-1.13688">
        <ele>74</ele>
        <time>2025-04-26T08:54:02Z</time>
      </trkpt>
      <trkpt lat="45.30957" lon="-1.13688">
        <ele>73</ele>
        <time>2025-04-26T08:54:03Z</time>
      </trkpt>
      <trkpt lat="45.30962" lon="-1.13687">
        <ele>72</ele>
        <time>2025-04-26T08:54:04Z</time>
      </trkpt>
      <trkpt lat="45.30966" lon="-1.13686">
        <ele>72</ele>
        <time>2025-04-26T08:54:05Z</time>
      </trkpt>
      <trkpt lat="45.3097" lon="-1.13685">
        <ele>72</ele>
        <time>2025-04-26T08:54:06Z</time>
      </trkpt>
      <trkpt lat="45.30974" lon="-1.13683">
        <ele>72</ele>
        <time>2025-04-26T08:54:07Z</time>
      </trkpt>
      <trkpt lat="45.30978" lon="-1.13682">
        <ele>71</ele>
        <time>2025-04-26T08:54:08Z</time>
      </trkpt>
      <trkpt lat="45.30982" lon="-1.1368">
        <ele>71</ele>
        <time>2025-04-26T08:54:09Z</time>
      </trkpt>
      <trkpt lat="45.30986" lon="-1.13679">
        <ele>71</ele>
        <time>2025-04-26T08:54:10Z</time>
      </trkpt>
      <trkpt lat="45.30991" lon="-1.13678">
        <ele>71</ele>
        <time>2025-04-26T08:54:11Z</time>
      </trkpt>
      <trkpt lat="45.30995" lon="-1.13676">
        <ele>71</ele>
        <time>2025-04-26T08:54:12Z</time>
      </trkpt>
      <trkpt lat="45.31" lon="-1.13676">
        <ele>71</ele>
        <time>2025-04-26T08:54:13Z</time>
      </trkpt>
      <trkpt lat="45.31004" lon="-1.13675">
        <ele>70</ele>
        <time>2025-04-26T08:54:14Z</time>
      </trkpt>
      <trkpt lat="45.31009" lon="-1.13674">
        <ele>71</ele>
        <time>2025-04-26T08:54:15Z</time>
      </trkpt>
      <trkpt lat="45.31013" lon="-1.13672">
        <ele>72</ele>
        <time>2025-04-26T08:54:16Z</time>
      </trkpt>
      <trkpt lat="45.31018" lon="-1.1367">
        <ele>72</ele>
        <time>2025-04-26T08:54:17Z</time>
      </trkpt>
      <trkpt lat="45.31022" lon="-1.13669">
        <ele>72</ele>
        <time>2025-04-26T08:54:18Z</time>
      </trkpt>
      <trkpt lat="45.31026" lon="-1.13668">
        <ele>72</ele>
        <time>2025-04-26T08:54:19Z</time>
      </trkpt>
      <trkpt lat="45.31031" lon="-1.13667">
        <ele>72</ele>
        <time>2025-04-26T08:54:20Z</time>
      </trkpt>
      <trkpt lat="45.31035" lon="-1.13666">
        <ele>72</ele>
        <time>2025-04-26T08:54:21Z</time>
      </trkpt>
      <trkpt lat="45.31039" lon="-1.13665">
        <ele>72</ele>
        <time>2025-04-26T08:54:22Z</time>
      </trkpt>
      <trkpt lat="45.31043" lon="-1.13664">
        <ele>71</ele>
        <time>2025-04-26T08:54:23Z</time>
      </trkpt>
      <trkpt lat="45.31047" lon="-1.13662">
        <ele>71</ele>
        <time>2025-04-26T08:54:24Z</time>
      </trkpt>
      <trkpt lat="45.31052" lon="-1.13661">
        <ele>72</ele>
        <time>2025-04-26T08:54:25Z</time>
      </trkpt>
      <trkpt lat="45.31056" lon="-1.13659">
        <ele>72</ele>
        <time>2025-04-26T08:54:26Z</time>
      </trkpt>
      <trkpt lat="45.3106" lon="-1.13658">
        <ele>72</ele>
        <time>2025-04-26T08:54:27Z</time>
      </trkpt>
      <trkpt lat="45.31064" lon="-1.13657">
        <ele>72</ele>
        <time>2025-04-26T08:54:28Z</time>
      </trkpt>
      <trkpt lat="45.31068" lon="-1.13656">
        <ele>72</ele>
        <time>2025-04-26T08:54:29Z</time>
      </trkpt>
      <trkpt lat="45.31072" lon="-1.13655">
        <ele>71</ele>
        <time>2025-04-26T08:54:30Z</time>
      </trkpt>
      <trkpt lat="45.31076" lon="-1.13654">
        <ele>71</ele>
        <time>2025-04-26T08:54:31Z</time>
      </trkpt>
      <trkpt lat="45.3108" lon="-1.13654">
        <ele>71</ele>
        <time>2025-04-26T08:54:32Z</time>
      </trkpt>
      <trkpt lat="45.31085" lon="-1.13654">
        <ele>71</ele>
        <time>2025-04-26T08:54:33Z</time>
      </trkpt>
      <trkpt lat="45.31089" lon="-1.13653">
        <ele>72</ele>
        <time>2025-04-26T08:54:34Z</time>
      </trkpt>
      <trkpt lat="45.31093" lon="-1.13651">
        <ele>72</ele>
        <time>2025-04-26T08:54:35Z</time>
      </trkpt>
      <trkpt lat="45.31098" lon="-1.1365">
        <ele>72</ele>
        <time>2025-04-26T08:54:36Z</time>
      </trkpt>
      <trkpt lat="45.31102" lon="-1.13649">
        <ele>71</ele>
        <time>2025-04-26T08:54:37Z</time>
      </trkpt>
      <trkpt lat="45.31106" lon="-1.13648">
        <ele>71</ele>
        <time>2025-04-26T08:54:38Z</time>
      </trkpt>
      <trkpt lat="45.31111" lon="-1.13647">
        <ele>71</ele>
        <time>2025-04-26T08:54:39Z</time>
      </trkpt>
      <trkpt lat="45.31115" lon="-1.13646">
        <ele>71</ele>
        <time>2025-04-26T08:54:40Z</time>
      </trkpt>
      <trkpt lat="45.31119" lon="-1.13645">
        <ele>71</ele>
        <time>2025-04-26T08:54:41Z</time>
      </trkpt>
      <trkpt lat="45.31124" lon="-1.13643">
        <ele>71</ele>
        <time>2025-04-26T08:54:42Z</time>
      </trkpt>
      <trkpt lat="45.31128" lon="-1.13642">
        <ele>71</ele>
        <time>2025-04-26T08:54:43Z</time>
      </trkpt>
      <trkpt lat="45.31132" lon="-1.13641">
        <ele>71</ele>
        <time>2025-04-26T08:54:44Z</time>
      </trkpt>
      <trkpt lat="45.31137" lon="-1.1364">
        <ele>71</ele>
        <time>2025-04-26T08:54:45Z</time>
      </trkpt>
      <trkpt lat="45.31141" lon="-1.13639">
        <ele>71</ele>
        <time>2025-04-26T08:54:46Z</time>
      </trkpt>
      <trkpt lat="45.31146" lon="-1.13638">
        <ele>71</ele>
        <time>2025-04-26T08:54:47Z</time>
      </trkpt>
      <trkpt lat="45.3115" lon="-1.13637">
        <ele>71</ele>
        <time>2025-04-26T08:54:48Z</time>
      </trkpt>
      <trkpt lat="45.31155" lon="-1.13636">
        <ele>71</ele>
        <time>2025-04-26T08:54:49Z</time>
      </trkpt>
      <trkpt lat="45.31159" lon="-1.13634">
        <ele>70</ele>
        <time>2025-04-26T08:54:50Z</time>
      </trkpt>
      <trkpt lat="45.31163" lon="-1.13633">
        <ele>70</ele>
        <time>2025-04-26T08:54:51Z</time>
      </trkpt>
      <trkpt lat="45.31168" lon="-1.13632">
        <ele>70</ele>
        <time>2025-04-26T08:54:52Z</time>
      </trkpt>
      <trkpt lat="45.31172" lon="-1.13631">
        <ele>70</ele>
        <time>2025-04-26T08:54:53Z</time>
      </trkpt>
      <trkpt lat="45.31177" lon="-1.1363">
        <ele>71</ele>
        <time>2025-04-26T08:54:54Z</time>
      </trkpt>
      <trkpt lat="45.31181" lon="-1.13628">
        <ele>71</ele>
        <time>2025-04-26T08:54:55Z</time>
      </trkpt>
      <trkpt lat="45.31185" lon="-1.13627">
        <ele>71</ele>
        <time>2025-04-26T08:54:56Z</time>
      </trkpt>
      <trkpt lat="45.3119" lon="-1.13626">
        <ele>71</ele>
        <time>2025-04-26T08:54:57Z</time>
      </trkpt>
      <trkpt lat="45.31194" lon="-1.13625">
        <ele>71</ele>
        <time>2025-04-26T08:54:58Z</time>
      </trkpt>
      <trkpt lat="45.31199" lon="-1.13623">
        <ele>70</ele>
        <time>2025-04-26T08:54:59Z</time>
      </trkpt>
      <trkpt lat="45.31203" lon="-1.13622">
        <ele>71</ele>
        <time>2025-04-26T08:55:00Z</time>
      </trkpt>
      <trkpt lat="45.31207" lon="-1.13621">
        <ele>71</ele>
        <time>2025-04-26T08:55:01Z</time>
      </trkpt>
      <trkpt lat="45.31211" lon="-1.1362">
        <ele>71</ele>
        <time>2025-04-26T08:55:02Z</time>
      </trkpt>
      <trkpt lat="45.31215" lon="-1.13619">
        <ele>71</ele>
        <time>2025-04-26T08:55:03Z</time>
      </trkpt>
      <trkpt lat="45.3122" lon="-1.13618">
        <ele>70</ele>
        <time>2025-04-26T08:55:04Z</time>
      </trkpt>
      <trkpt lat="45.31224" lon="-1.13617">
        <ele>71</ele>
        <time>2025-04-26T08:55:05Z</time>
      </trkpt>
      <trkpt lat="45.31228" lon="-1.13616">
        <ele>70</ele>
        <time>2025-04-26T08:55:06Z</time>
      </trkpt>
      <trkpt lat="45.31233" lon="-1.13615">
        <ele>70</ele>
        <time>2025-04-26T08:55:07Z</time>
      </trkpt>
      <trkpt lat="45.31237" lon="-1.13614">
        <ele>70</ele>
        <time>2025-04-26T08:55:08Z</time>
      </trkpt>
      <trkpt lat="45.31242" lon="-1.13612">
        <ele>70</ele>
        <time>2025-04-26T08:55:09Z</time>
      </trkpt>
      <trkpt lat="45.31246" lon="-1.13611">
        <ele>70</ele>
        <time>2025-04-26T08:55:10Z</time>
      </trkpt>
      <trkpt lat="45.3125" lon="-1.1361">
        <ele>70</ele>
        <time>2025-04-26T08:55:11Z</time>
      </trkpt>
      <trkpt lat="45.31255" lon="-1.13608">
        <ele>70</ele>
        <time>2025-04-26T08:55:12Z</time>
      </trkpt>
      <trkpt lat="45.31259" lon="-1.13607">
        <ele>70</ele>
        <time>2025-04-26T08:55:13Z</time>
      </trkpt>
      <trkpt lat="45.31263" lon="-1.13606">
        <ele>70</ele>
        <time>2025-04-26T08:55:14Z</time>
      </trkpt>
      <trkpt lat="45.31268" lon="-1.13605">
        <ele>71</ele>
        <time>2025-04-26T08:55:15Z</time>
      </trkpt>
      <trkpt lat="45.31272" lon="-1.13603">
        <ele>71</ele>
        <time>2025-04-26T08:55:16Z</time>
      </trkpt>
      <trkpt lat="45.31276" lon="-1.13602">
        <ele>71</ele>
        <time>2025-04-26T08:55:17Z</time>
      </trkpt>
      <trkpt lat="45.31281" lon="-1.13601">
        <ele>71</ele>
        <time>2025-04-26T08:55:18Z</time>
      </trkpt>
      <trkpt lat="45.31285" lon="-1.136">
        <ele>71</ele>
        <time>2025-04-26T08:55:19Z</time>
      </trkpt>
      <trkpt lat="45.3129" lon="-1.13599">
        <ele>71</ele>
        <time>2025-04-26T08:55:20Z</time>
      </trkpt>
      <trkpt lat="45.31294" lon="-1.13598">
        <ele>71</ele>
        <time>2025-04-26T08:55:21Z</time>
      </trkpt>
      <trkpt lat="45.31298" lon="-1.13597">
        <ele>71</ele>
        <time>2025-04-26T08:55:22Z</time>
      </trkpt>
      <trkpt lat="45.31303" lon="-1.13595">
        <ele>72</ele>
        <time>2025-04-26T08:55:23Z</time>
      </trkpt>
      <trkpt lat="45.31307" lon="-1.13594">
        <ele>71</ele>
        <time>2025-04-26T08:55:24Z</time>
      </trkpt>
      <trkpt lat="45.31311" lon="-1.13594">
        <ele>71</ele>
        <time>2025-04-26T08:55:25Z</time>
      </trkpt>
      <trkpt lat="45.31315" lon="-1.13593">
        <ele>71</ele>
        <time>2025-04-26T08:55:26Z</time>
      </trkpt>
      <trkpt lat="45.3132" lon="-1.13591">
        <ele>71</ele>
        <time>2025-04-26T08:55:27Z</time>
      </trkpt>
      <trkpt lat="45.31324" lon="-1.1359">
        <ele>71</ele>
        <time>2025-04-26T08:55:28Z</time>
      </trkpt>
      <trkpt lat="45.31329" lon="-1.13589">
        <ele>71</ele>
        <time>2025-04-26T08:55:29Z</time>
      </trkpt>
      <trkpt lat="45.31333" lon="-1.13587">
        <ele>72</ele>
        <time>2025-04-26T08:55:30Z</time>
      </trkpt>
      <trkpt lat="45.31337" lon="-1.13586">
        <ele>72</ele>
        <time>2025-04-26T08:55:31Z</time>
      </trkpt>
      <trkpt lat="45.31341" lon="-1.13585">
        <ele>72</ele>
        <time>2025-04-26T08:55:32Z</time>
      </trkpt>
      <trkpt lat="45.31345" lon="-1.13584">
        <ele>72</ele>
        <time>2025-04-26T08:55:33Z</time>
      </trkpt>
      <trkpt lat="45.31349" lon="-1.13582">
        <ele>72</ele>
        <time>2025-04-26T08:55:34Z</time>
      </trkpt>
      <trkpt lat="45.31353" lon="-1.13581">
        <ele>72</ele>
        <time>2025-04-26T08:55:35Z</time>
      </trkpt>
      <trkpt lat="45.31357" lon="-1.13579">
        <ele>72</ele>
        <time>2025-04-26T08:55:36Z</time>
      </trkpt>
      <trkpt lat="45.31362" lon="-1.13579">
        <ele>72</ele>
        <time>2025-04-26T08:55:37Z</time>
      </trkpt>
      <trkpt lat="45.31366" lon="-1.13577">
        <ele>72</ele>
        <time>2025-04-26T08:55:38Z</time>
      </trkpt>
      <trkpt lat="45.3137" lon="-1.13577">
        <ele>72</ele>
        <time>2025-04-26T08:55:39Z</time>
      </trkpt>
      <trkpt lat="45.31375" lon="-1.13576">
        <ele>72</ele>
        <time>2025-04-26T08:55:40Z</time>
      </trkpt>
      <trkpt lat="45.31379" lon="-1.13574">
        <ele>72</ele>
        <time>2025-04-26T08:55:41Z</time>
      </trkpt>
      <trkpt lat="45.31384" lon="-1.13573">
        <ele>72</ele>
        <time>2025-04-26T08:55:42Z</time>
      </trkpt>
      <trkpt lat="45.31388" lon="-1.13572">
        <ele>72</ele>
        <time>2025-04-26T08:55:43Z</time>
      </trkpt>
      <trkpt lat="45.31392" lon="-1.13571">
        <ele>71</ele>
        <time>2025-04-26T08:55:44Z</time>
      </trkpt>
      <trkpt lat="45.31396" lon="-1.1357">
        <ele>72</ele>
        <time>2025-04-26T08:55:45Z</time>
      </trkpt>
      <trkpt lat="45.314" lon="-1.13569">
        <ele>72</ele>
        <time>2025-04-26T08:55:46Z</time>
      </trkpt>
      <trkpt lat="45.31405" lon="-1.13567">
        <ele>72</ele>
        <time>2025-04-26T08:55:47Z</time>
      </trkpt>
      <trkpt lat="45.31409" lon="-1.13566">
        <ele>71</ele>
        <time>2025-04-26T08:55:48Z</time>
      </trkpt>
      <trkpt lat="45.31414" lon="-1.13566">
        <ele>71</ele>
        <time>2025-04-26T08:55:49Z</time>
      </trkpt>
      <trkpt lat="45.31417" lon="-1.13565">
        <ele>71</ele>
        <time>2025-04-26T08:55:50Z</time>
      </trkpt>
      <trkpt lat="45.31422" lon="-1.13563">
        <ele>71</ele>
        <time>2025-04-26T08:55:51Z</time>
      </trkpt>
      <trkpt lat="45.31426" lon="-1.13562">
        <ele>71</ele>
        <time>2025-04-26T08:55:52Z</time>
      </trkpt>
      <trkpt lat="45.3143" lon="-1.13561">
        <ele>71</ele>
        <time>2025-04-26T08:55:53Z</time>
      </trkpt>
      <trkpt lat="45.31435" lon="-1.1356">
        <ele>70</ele>
        <time>2025-04-26T08:55:54Z</time>
      </trkpt>
      <trkpt lat="45.31439" lon="-1.13559">
        <ele>71</ele>
        <time>2025-04-26T08:55:55Z</time>
      </trkpt>
      <trkpt lat="45.31444" lon="-1.13558">
        <ele>71</ele>
        <time>2025-04-26T08:55:56Z</time>
      </trkpt>
      <trkpt lat="45.31448" lon="-1.13556">
        <ele>71</ele>
        <time>2025-04-26T08:55:57Z</time>
      </trkpt>
      <trkpt lat="45.31452" lon="-1.13555">
        <ele>71</ele>
        <time>2025-04-26T08:55:58Z</time>
      </trkpt>
      <trkpt lat="45.31457" lon="-1.13554">
        <ele>71</ele>
        <time>2025-04-26T08:55:59Z</time>
      </trkpt>
      <trkpt lat="45.31461" lon="-1.13553">
        <ele>71</ele>
        <time>2025-04-26T08:56:00Z</time>
      </trkpt>
      <trkpt lat="45.31465" lon="-1.13552">
        <ele>71</ele>
        <time>2025-04-26T08:56:01Z</time>
      </trkpt>
      <trkpt lat="45.31469" lon="-1.1355">
        <ele>70</ele>
        <time>2025-04-26T08:56:02Z</time>
      </trkpt>
      <trkpt lat="45.31473" lon="-1.13549">
        <ele>70</ele>
        <time>2025-04-26T08:56:03Z</time>
      </trkpt>
      <trkpt lat="45.31477" lon="-1.13548">
        <ele>71</ele>
        <time>2025-04-26T08:56:04Z</time>
      </trkpt>
      <trkpt lat="45.3148" lon="-1.13547">
        <ele>71</ele>
        <time>2025-04-26T08:56:05Z</time>
      </trkpt>
      <trkpt lat="45.31484" lon="-1.13546">
        <ele>71</ele>
        <time>2025-04-26T08:56:06Z</time>
      </trkpt>
      <trkpt lat="45.31488" lon="-1.13545">
        <ele>71</ele>
        <time>2025-04-26T08:56:07Z</time>
      </trkpt>
      <trkpt lat="45.31491" lon="-1.13545">
        <ele>70</ele>
        <time>2025-04-26T08:56:08Z</time>
      </trkpt>
      <trkpt lat="45.31495" lon="-1.13544">
        <ele>70</ele>
        <time>2025-04-26T08:56:09Z</time>
      </trkpt>
      <trkpt lat="45.31499" lon="-1.13543">
        <ele>70</ele>
        <time>2025-04-26T08:56:10Z</time>
      </trkpt>
      <trkpt lat="45.31502" lon="-1.13542">
        <ele>70</ele>
        <time>2025-04-26T08:56:11Z</time>
      </trkpt>
      <trkpt lat="45.31506" lon="-1.13541">
        <ele>70</ele>
        <time>2025-04-26T08:56:12Z</time>
      </trkpt>
      <trkpt lat="45.3151" lon="-1.1354">
        <ele>70</ele>
        <time>2025-04-26T08:56:13Z</time>
      </trkpt>
      <trkpt lat="45.31514" lon="-1.13538">
        <ele>71</ele>
        <time>2025-04-26T08:56:14Z</time>
      </trkpt>
      <trkpt lat="45.31518" lon="-1.13537">
        <ele>71</ele>
        <time>2025-04-26T08:56:15Z</time>
      </trkpt>
      <trkpt lat="45.31521" lon="-1.13536">
        <ele>71</ele>
        <time>2025-04-26T08:56:16Z</time>
      </trkpt>
      <trkpt lat="45.31525" lon="-1.13535">
        <ele>71</ele>
        <time>2025-04-26T08:56:17Z</time>
      </trkpt>
      <trkpt lat="45.3153" lon="-1.13533">
        <ele>71</ele>
        <time>2025-04-26T08:56:18Z</time>
      </trkpt>
      <trkpt lat="45.31534" lon="-1.13532">
        <ele>71</ele>
        <time>2025-04-26T08:56:19Z</time>
      </trkpt>
      <trkpt lat="45.31538" lon="-1.13531">
        <ele>71</ele>
        <time>2025-04-26T08:56:20Z</time>
      </trkpt>
      <trkpt lat="45.31542" lon="-1.1353">
        <ele>71</ele>
        <time>2025-04-26T08:56:21Z</time>
      </trkpt>
      <trkpt lat="45.31546" lon="-1.13529">
        <ele>70</ele>
        <time>2025-04-26T08:56:22Z</time>
      </trkpt>
      <trkpt lat="45.3155" lon="-1.13528">
        <ele>70</ele>
        <time>2025-04-26T08:56:23Z</time>
      </trkpt>
      <trkpt lat="45.31554" lon="-1.13527">
        <ele>70</ele>
        <time>2025-04-26T08:56:24Z</time>
      </trkpt>
      <trkpt lat="45.31559" lon="-1.13526">
        <ele>70</ele>
        <time>2025-04-26T08:56:25Z</time>
      </trkpt>
      <trkpt lat="45.31564" lon="-1.13524">
        <ele>70</ele>
        <time>2025-04-26T08:56:26Z</time>
      </trkpt>
      <trkpt lat="45.31568" lon="-1.13523">
        <ele>69</ele>
        <time>2025-04-26T08:56:27Z</time>
      </trkpt>
      <trkpt lat="45.31573" lon="-1.13521">
        <ele>69</ele>
        <time>2025-04-26T08:56:28Z</time>
      </trkpt>
      <trkpt lat="45.31578" lon="-1.1352">
        <ele>69</ele>
        <time>2025-04-26T08:56:29Z</time>
      </trkpt>
      <trkpt lat="45.31582" lon="-1.13519">
        <ele>70</ele>
        <time>2025-04-26T08:56:30Z</time>
      </trkpt>
      <trkpt lat="45.31587" lon="-1.13517">
        <ele>70</ele>
        <time>2025-04-26T08:56:31Z</time>
      </trkpt>
      <trkpt lat="45.31592" lon="-1.13516">
        <ele>69</ele>
        <time>2025-04-26T08:56:32Z</time>
      </trkpt>
      <trkpt lat="45.31596" lon="-1.13515">
        <ele>69</ele>
        <time>2025-04-26T08:56:33Z</time>
      </trkpt>
      <trkpt lat="45.31601" lon="-1.13514">
        <ele>68</ele>
        <time>2025-04-26T08:56:34Z</time>
      </trkpt>
      <trkpt lat="45.31606" lon="-1.13513">
        <ele>68</ele>
        <time>2025-04-26T08:56:35Z</time>
      </trkpt>
      <trkpt lat="45.31611" lon="-1.13511">
        <ele>68</ele>
        <time>2025-04-26T08:56:36Z</time>
      </trkpt>
      <trkpt lat="45.31615" lon="-1.1351">
        <ele>69</ele>
        <time>2025-04-26T08:56:37Z</time>
      </trkpt>
      <trkpt lat="45.3162" lon="-1.13509">
        <ele>69</ele>
        <time>2025-04-26T08:56:38Z</time>
      </trkpt>
      <trkpt lat="45.31625" lon="-1.13508">
        <ele>70</ele>
        <time>2025-04-26T08:56:39Z</time>
      </trkpt>
      <trkpt lat="45.3163" lon="-1.13507">
        <ele>70</ele>
        <time>2025-04-26T08:56:40Z</time>
      </trkpt>
      <trkpt lat="45.31634" lon="-1.13506">
        <ele>70</ele>
        <time>2025-04-26T08:56:41Z</time>
      </trkpt>
      <trkpt lat="45.31638" lon="-1.13505">
        <ele>70</ele>
        <time>2025-04-26T08:56:42Z</time>
      </trkpt>
      <trkpt lat="45.31642" lon="-1.13504">
        <ele>70</ele>
        <time>2025-04-26T08:56:43Z</time>
      </trkpt>
      <trkpt lat="45.31646" lon="-1.13503">
        <ele>69</ele>
        <time>2025-04-26T08:56:44Z</time>
      </trkpt>
      <trkpt lat="45.31651" lon="-1.13501">
        <ele>70</ele>
        <time>2025-04-26T08:56:45Z</time>
      </trkpt>
      <trkpt lat="45.31656" lon="-1.135">
        <ele>70</ele>
        <time>2025-04-26T08:56:46Z</time>
      </trkpt>
      <trkpt lat="45.31661" lon="-1.13498">
        <ele>70</ele>
        <time>2025-04-26T08:56:47Z</time>
      </trkpt>
      <trkpt lat="45.31666" lon="-1.13497">
        <ele>69</ele>
        <time>2025-04-26T08:56:48Z</time>
      </trkpt>
      <trkpt lat="45.31671" lon="-1.13496">
        <ele>69</ele>
        <time>2025-04-26T08:56:49Z</time>
      </trkpt>
      <trkpt lat="45.31676" lon="-1.13495">
        <ele>68</ele>
        <time>2025-04-26T08:56:50Z</time>
      </trkpt>
      <trkpt lat="45.3168" lon="-1.13493">
        <ele>67</ele>
        <time>2025-04-26T08:56:51Z</time>
      </trkpt>
      <trkpt lat="45.31685" lon="-1.13491">
        <ele>67</ele>
        <time>2025-04-26T08:56:52Z</time>
      </trkpt>
      <trkpt lat="45.3169" lon="-1.13489">
        <ele>68</ele>
        <time>2025-04-26T08:56:53Z</time>
      </trkpt>
      <trkpt lat="45.31694" lon="-1.13488">
        <ele>70</ele>
        <time>2025-04-26T08:56:54Z</time>
      </trkpt>
      <trkpt lat="45.31698" lon="-1.13487">
        <ele>71</ele>
        <time>2025-04-26T08:56:55Z</time>
      </trkpt>
      <trkpt lat="45.31702" lon="-1.13485">
        <ele>72</ele>
        <time>2025-04-26T08:56:56Z</time>
      </trkpt>
      <trkpt lat="45.31706" lon="-1.13484">
        <ele>73</ele>
        <time>2025-04-26T08:56:57Z</time>
      </trkpt>
      <trkpt lat="45.3171" lon="-1.13483">
        <ele>74</ele>
        <time>2025-04-26T08:56:58Z</time>
      </trkpt>
      <trkpt lat="45.31715" lon="-1.13483">
        <ele>74</ele>
        <time>2025-04-26T08:56:59Z</time>
      </trkpt>
      <trkpt lat="45.31718" lon="-1.13483">
        <ele>75</ele>
        <time>2025-04-26T08:57:00Z</time>
      </trkpt>
      <trkpt lat="45.31722" lon="-1.13482">
        <ele>75</ele>
        <time>2025-04-26T08:57:01Z</time>
      </trkpt>
      <trkpt lat="45.31725" lon="-1.13482">
        <ele>76</ele>
        <time>2025-04-26T08:57:02Z</time>
      </trkpt>
      <trkpt lat="45.31728" lon="-1.13481">
        <ele>76</ele>
        <time>2025-04-26T08:57:03Z</time>
      </trkpt>
      <trkpt lat="45.3173" lon="-1.13481">
        <ele>76</ele>
        <time>2025-04-26T08:57:04Z</time>
      </trkpt>
      <trkpt lat="45.31731" lon="-1.13481">
        <ele>76</ele>
        <time>2025-04-26T08:57:05Z</time>
      </trkpt>
      <trkpt lat="45.31733" lon="-1.13481">
        <ele>75</ele>
        <time>2025-04-26T08:57:06Z</time>
      </trkpt>
      <trkpt lat="45.31733" lon="-1.1348">
        <ele>75</ele>
        <time>2025-04-26T08:57:07Z</time>
      </trkpt>
      <trkpt lat="45.31734" lon="-1.1348">
        <ele>75</ele>
        <time>2025-04-26T08:57:08Z</time>
      </trkpt>
      <trkpt lat="45.31735" lon="-1.1348">
        <ele>75</ele>
        <time>2025-04-26T08:57:09Z</time>
      </trkpt>
      <trkpt lat="45.31735" lon="-1.1348">
        <ele>75</ele>
        <time>2025-04-26T08:57:10Z</time>
      </trkpt>
      <trkpt lat="45.31735" lon="-1.1348">
        <ele>75</ele>
        <time>2025-04-26T08:57:11Z</time>
      </trkpt>
      <trkpt lat="45.31735" lon="-1.1348">
        <ele>75</ele>
        <time>2025-04-26T08:57:12Z</time>
      </trkpt>
      <trkpt lat="45.31735" lon="-1.1348">
        <ele>75</ele>
        <time>2025-04-26T08:57:13Z</time>
      </trkpt>
      <trkpt lat="45.31735" lon="-1.1348">
        <ele>75</ele>
        <time>2025-04-26T08:57:14Z</time>
      </trkpt>
      <trkpt lat="45.31735" lon="-1.1348">
        <ele>75</ele>
        <time>2025-04-26T08:57:15Z</time>
      </trkpt>
      <trkpt lat="45.31735" lon="-1.1348">
        <ele>75</ele>
        <time>2025-04-26T08:57:16Z</time>
      </trkpt>
      <trkpt lat="45.31735" lon="-1.1348">
        <ele>75</ele>
        <time>2025-04-26T08:57:17Z</time>
      </trkpt>
      <trkpt lat="45.31735" lon="-1.1348">
        <ele>75</ele>
        <time>2025-04-26T08:57:18Z</time>
      </trkpt>
      <trkpt lat="45.31735" lon="-1.1348">
        <ele>75</ele>
        <time>2025-04-26T08:57:19Z</time>
      </trkpt>
      <trkpt lat="45.31735" lon="-1.1348">
        <ele>75</ele>
        <time>2025-04-26T08:57:20Z</time>
      </trkpt>
      <trkpt lat="45.31735" lon="-1.1348">
        <ele>75</ele>
        <time>2025-04-26T08:57:21Z</time>
      </trkpt>
      <trkpt lat="45.31735" lon="-1.1348">
        <ele>75</ele>
        <time>2025-04-26T08:57:22Z</time>
      </trkpt>
      <trkpt lat="45.31735" lon="-1.1348">
        <ele>75</ele>
        <time>2025-04-26T08:57:23Z</time>
      </trkpt>
      <trkpt lat="45.31735" lon="-1.1348">
        <ele>75</ele>
        <time>2025-04-26T08:57:24Z</time>
      </trkpt>
      <trkpt lat="45.31735" lon="-1.1348">
        <ele>75</ele>
        <time>2025-04-26T08:57:25Z</time>
      </trkpt>
      <trkpt lat="45.31735" lon="-1.1348">
        <ele>75</ele>
        <time>2025-04-26T08:57:26Z</time>
      </trkpt>
      <trkpt lat="45.31735" lon="-1.1348">
        <ele>75</ele>
        <time>2025-04-26T08:57:27Z</time>
      </trkpt>
      <trkpt lat="45.31735" lon="-1.1348">
        <ele>75</ele>
        <time>2025-04-26T08:57:28Z</time>
      </trkpt>
      <trkpt lat="45.31735" lon="-1.1348">
        <ele>75</ele>
        <time>2025-04-26T08:57:29Z</time>
      </trkpt>
      <trkpt lat="45.31735" lon="-1.1348">
        <ele>75</ele>
        <time>2025-04-26T08:57:30Z</time>
      </trkpt>
      <trkpt lat="45.31735" lon="-1.1348">
        <ele>75</ele>
        <time>2025-04-26T08:57:31Z</time>
      </trkpt>
      <trkpt lat="45.31735" lon="-1.1348">
        <ele>75</ele>
        <time>2025-04-26T08:57:32Z</time>
      </trkpt>
      <trkpt lat="45.31735" lon="-1.1348">
        <ele>75</ele>
        <time>2025-04-26T08:57:33Z</time>
      </trkpt>
      <trkpt lat="45.31735" lon="-1.1348">
        <ele>75</ele>
        <time>2025-04-26T08:57:34Z</time>
      </trkpt>
      <trkpt lat="45.31735" lon="-1.1348">
        <ele>75</ele>
        <time>2025-04-26T08:57:35Z</time>
      </trkpt>
      <trkpt lat="45.31735" lon="-1.1348">
        <ele>75</ele>
        <time>2025-04-26T08:57:36Z</time>
      </trkpt>
      <trkpt lat="45.31735" lon="-1.1348">
        <ele>75</ele>
        <time>2025-04-26T08:57:37Z</time>
      </trkpt>
      <trkpt lat="45.31735" lon="-1.1348">
        <ele>75</ele>
        <time>2025-04-26T08:57:38Z</time>
      </trkpt>
      <trkpt lat="45.31735" lon="-1.1348">
        <ele>75</ele>
        <time>2025-04-26T08:57:39Z</time>
      </trkpt>
      <trkpt lat="45.31735" lon="-1.1348">
        <ele>75</ele>
        <time>2025-04-26T08:57:40Z</time>
      </trkpt>
      <trkpt lat="45.31735" lon="-1.1348">
        <ele>75</ele>
        <time>2025-04-26T08:57:41Z</time>
      </trkpt>
      <trkpt lat="45.31735" lon="-1.1348">
        <ele>75</ele>
        <time>2025-04-26T08:57:42Z</time>
      </trkpt>
      <trkpt lat="45.31735" lon="-1.1348">
        <ele>75</ele>
        <time>2025-04-26T08:57:43Z</time>
      </trkpt>
      <trkpt lat="45.31735" lon="-1.1348">
        <ele>75</ele>
        <time>2025-04-26T08:57:44Z</time>
      </trkpt>
      <trkpt lat="45.31735" lon="-1.1348">
        <ele>75</ele>
        <time>2025-04-26T08:57:45Z</time>
      </trkpt>
      <trkpt lat="45.31735" lon="-1.1348">
        <ele>75</ele>
        <time>2025-04-26T08:57:46Z</time>
      </trkpt>
      <trkpt lat="45.31735" lon="-1.1348">
        <ele>75</ele>
        <time>2025-04-26T08:57:47Z</time>
      </trkpt>
      <trkpt lat="45.31735" lon="-1.1348">
        <ele>75</ele>
        <time>2025-04-26T08:57:48Z</time>
      </trkpt>
      <trkpt lat="45.31735" lon="-1.1348">
        <ele>75</ele>
        <time>2025-04-26T08:57:49Z</time>
      </trkpt>
      <trkpt lat="45.31735" lon="-1.1348">
        <ele>75</ele>
        <time>2025-04-26T08:57:50Z</time>
      </trkpt>
      <trkpt lat="45.31735" lon="-1.1348">
        <ele>75</ele>
        <time>2025-04-26T08:57:51Z</time>
      </trkpt>
      <trkpt lat="45.31735" lon="-1.1348">
        <ele>75</ele>
        <time>2025-04-26T08:57:52Z</time>
      </trkpt>
      <trkpt lat="45.31735" lon="-1.1348">
        <ele>75</ele>
        <time>2025-04-26T08:57:53Z</time>
      </trkpt>
      <trkpt lat="45.31735" lon="-1.1348">
        <ele>75</ele>
        <time>2025-04-26T08:57:54Z</time>
      </trkpt>
      <trkpt lat="45.31735" lon="-1.1348">
        <ele>75</ele>
        <time>2025-04-26T08:57:55Z</time>
      </trkpt>
      <trkpt lat="45.31735" lon="-1.1348">
        <ele>75</ele>
        <time>2025-04-26T08:57:56Z</time>
      </trkpt>
      <trkpt lat="45.31735" lon="-1.1348">
        <ele>75</ele>
        <time>2025-04-26T08:57:57Z</time>
      </trkpt>
      <trkpt lat="45.31735" lon="-1.1348">
        <ele>75</ele>
        <time>2025-04-26T08:57:58Z</time>
      </trkpt>
      <trkpt lat="45.31735" lon="-1.1348">
        <ele>75</ele>
        <time>2025-04-26T08:57:59Z</time>
      </trkpt>
      <trkpt lat="45.31735" lon="-1.1348">
        <ele>75</ele>
        <time>2025-04-26T08:58:00Z</time>
      </trkpt>
      <trkpt lat="45.31735" lon="-1.1348">
        <ele>75</ele>
        <time>2025-04-26T08:58:01Z</time>
      </trkpt>
      <trkpt lat="45.31735" lon="-1.1348">
        <ele>75</ele>
        <time>2025-04-26T08:58:02Z</time>
      </trkpt>
      <trkpt lat="45.31735" lon="-1.1348">
        <ele>75</ele>
        <time>2025-04-26T08:58:03Z</time>
      </trkpt>
      <trkpt lat="45.31735" lon="-1.1348">
        <ele>75</ele>
        <time>2025-04-26T08:58:04Z</time>
      </trkpt>
      <trkpt lat="45.31735" lon="-1.1348">
        <ele>75</ele>
        <time>2025-04-26T08:58:05Z</time>
      </trkpt>
      <trkpt lat="45.31735" lon="-1.1348">
        <ele>75</ele>
        <time>2025-04-26T08:58:06Z</time>
      </trkpt>
      <trkpt lat="45.31735" lon="-1.1348">
        <ele>75</ele>
        <time>2025-04-26T08:58:07Z</time>
      </trkpt>
      <trkpt lat="45.31735" lon="-1.1348">
        <ele>75</ele>
        <time>2025-04-26T08:58:08Z</time>
      </trkpt>
      <trkpt lat="45.31735" lon="-1.1348">
        <ele>75</ele>
        <time>2025-04-26T08:58:09Z</time>
      </trkpt>
      <trkpt lat="45.31735" lon="-1.1348">
        <ele>75</ele>
        <time>2025-04-26T08:58:10Z</time>
      </trkpt>
      <trkpt lat="45.31735" lon="-1.1348">
        <ele>75</ele>
        <time>2025-04-26T08:58:11Z</time>
      </trkpt>
      <trkpt lat="45.31735" lon="-1.1348">
        <ele>75</ele>
        <time>2025-04-26T08:58:12Z</time>
      </trkpt>
      <trkpt lat="45.31735" lon="-1.1348">
        <ele>75</ele>
        <time>2025-04-26T08:58:13Z</time>
      </trkpt>
      <trkpt lat="45.31735" lon="-1.1348">
        <ele>75</ele>
        <time>2025-04-26T08:58:14Z</time>
      </trkpt>
      <trkpt lat="45.31735" lon="-1.1348">
        <ele>75</ele>
        <time>2025-04-26T08:58:15Z</time>
      </trkpt>
      <trkpt lat="45.31735" lon="-1.1348">
        <ele>75</ele>
        <time>2025-04-26T08:58:16Z</time>
      </trkpt>
      <trkpt lat="45.31735" lon="-1.1348">
        <ele>75</ele>
        <time>2025-04-26T08:58:17Z</time>
      </trkpt>
      <trkpt lat="45.31735" lon="-1.1348">
        <ele>75</ele>
        <time>2025-04-26T08:58:18Z</time>
      </trkpt>
      <trkpt lat="45.31735" lon="-1.1348">
        <ele>75</ele>
        <time>2025-04-26T08:58:19Z</time>
      </trkpt>
      <trkpt lat="45.31735" lon="-1.1348">
        <ele>75</ele>
        <time>2025-04-26T08:58:20Z</time>
      </trkpt>
      <trkpt lat="45.31735" lon="-1.1348">
        <ele>75</ele>
        <time>2025-04-26T08:58:21Z</time>
      </trkpt>
      <trkpt lat="45.31735" lon="-1.1348">
        <ele>75</ele>
        <time>2025-04-26T08:58:22Z</time>
      </trkpt>
      <trkpt lat="45.31735" lon="-1.1348">
        <ele>75</ele>
        <time>2025-04-26T08:58:23Z</time>
      </trkpt>
      <trkpt lat="45.31735" lon="-1.1348">
        <ele>75</ele>
        <time>2025-04-26T08:58:24Z</time>
      </trkpt>
      <trkpt lat="45.31735" lon="-1.1348">
        <ele>75</ele>
        <time>2025-04-26T09:01:42Z</time>
      </trkpt>
      <trkpt lat="45.31735" lon="-1.1348">
        <ele>75</ele>
        <time>2025-04-26T09:01:43Z</time>
      </trkpt>
      <trkpt lat="45.31735" lon="-1.1348">
        <ele>75</ele>
        <time>2025-04-26T09:01:44Z</time>
      </trkpt>
      <trkpt lat="45.31735" lon="-1.1348">
        <ele>75</ele>
        <time>2025-04-26T09:01:45Z</time>
      </trkpt>
      <trkpt lat="45.31735" lon="-1.1348">
        <ele>75</ele>
        <time>2025-04-26T09:01:46Z</time>
      </trkpt>
      <trkpt lat="45.31735" lon="-1.1348">
        <ele>75</ele>
        <time>2025-04-26T09:01:47Z</time>
      </trkpt>
      <trkpt lat="45.31735" lon="-1.1348">
        <ele>75</ele>
        <time>2025-04-26T09:01:48Z</time>
      </trkpt>
      <trkpt lat="45.31735" lon="-1.1348">
        <ele>75</ele>
        <time>2025-04-26T09:01:49Z</time>
      </trkpt>
      <trkpt lat="45.31735" lon="-1.1348">
        <ele>75</ele>
        <time>2025-04-26T09:01:50Z</time>
      </trkpt>
      <trkpt lat="45.31735" lon="-1.1348">
        <ele>75</ele>
        <time>2025-04-26T09:01:51Z</time>
      </trkpt>
      <trkpt lat="45.31735" lon="-1.1348">
        <ele>75</ele>
        <time>2025-04-26T09:01:52Z</time>
      </trkpt>
      <trkpt lat="45.31735" lon="-1.1348">
        <ele>75</ele>
        <time>2025-04-26T09:01:53Z</time>
      </trkpt>
      <trkpt lat="45.31735" lon="-1.1348">
        <ele>75</ele>
        <time>2025-04-26T09:01:54Z</time>
      </trkpt>
      <trkpt lat="45.31735" lon="-1.1348">
        <ele>75</ele>
        <time>2025-04-26T09:01:55Z</time>
      </trkpt>
      <trkpt lat="45.31735" lon="-1.1348">
        <ele>75</ele>
        <time>2025-04-26T09:01:56Z</time>
      </trkpt>
      <trkpt lat="45.31735" lon="-1.1348">
        <ele>75</ele>
        <time>2025-04-26T09:01:57Z</time>
      </trkpt>
      <trkpt lat="45.31735" lon="-1.1348">
        <ele>75</ele>
        <time>2025-04-26T09:01:58Z</time>
      </trkpt>
      <trkpt lat="45.31735" lon="-1.1348">
        <ele>75</ele>
        <time>2025-04-26T09:01:59Z</time>
      </trkpt>
      <trkpt lat="45.31735" lon="-1.1348">
        <ele>75</ele>
        <time>2025-04-26T09:02:00Z</time>
      </trkpt>
      <trkpt lat="45.31735" lon="-1.1348">
        <ele>75</ele>
        <time>2025-04-26T09:02:01Z</time>
      </trkpt>
      <trkpt lat="45.31735" lon="-1.1348">
        <ele>75</ele>
        <time>2025-04-26T09:02:02Z</time>
      </trkpt>
      <trkpt lat="45.31735" lon="-1.1348">
        <ele>75</ele>
        <time>2025-04-26T09:02:03Z</time>
      </trkpt>
      <trkpt lat="45.31738" lon="-1.13472">
        <ele>72</ele>
        <time>2025-04-26T09:02:04Z</time>
      </trkpt>
      <trkpt lat="45.3174" lon="-1.13471">
        <ele>73</ele>
        <time>2025-04-26T09:02:05Z</time>
      </trkpt>
      <trkpt lat="45.31743" lon="-1.13471">
        <ele>73</ele>
        <time>2025-04-26T09:02:06Z</time>
      </trkpt>
      <trkpt lat="45.31746" lon="-1.13471">
        <ele>74</ele>
        <time>2025-04-26T09:02:07Z</time>
      </trkpt>
      <trkpt lat="45.31748" lon="-1.13471">
        <ele>75</ele>
        <time>2025-04-26T09:02:08Z</time>
      </trkpt>
      <trkpt lat="45.3175" lon="-1.13471">
        <ele>75</ele>
        <time>2025-04-26T09:02:09Z</time>
      </trkpt>
      <trkpt lat="45.31753" lon="-1.1347">
        <ele>76</ele>
        <time>2025-04-26T09:02:10Z</time>
      </trkpt>
      <trkpt lat="45.31756" lon="-1.1347">
        <ele>77</ele>
        <time>2025-04-26T09:02:11Z</time>
      </trkpt>
      <trkpt lat="45.31759" lon="-1.1347">
        <ele>78</ele>
        <time>2025-04-26T09:02:12Z</time>
      </trkpt>
      <trkpt lat="45.31761" lon="-1.1347">
        <ele>78</ele>
        <time>2025-04-26T09:02:13Z</time>
      </trkpt>
      <trkpt lat="45.31764" lon="-1.13469">
        <ele>78</ele>
        <time>2025-04-26T09:02:14Z</time>
      </trkpt>
      <trkpt lat="45.31767" lon="-1.13469">
        <ele>78</ele>
        <time>2025-04-26T09:02:15Z</time>
      </trkpt>
      <trkpt lat="45.3177" lon="-1.13468">
        <ele>78</ele>
        <time>2025-04-26T09:02:16Z</time>
      </trkpt>
      <trkpt lat="45.31773" lon="-1.13467">
        <ele>78</ele>
        <time>2025-04-26T09:02:17Z</time>
      </trkpt>
      <trkpt lat="45.31776" lon="-1.13466">
        <ele>78</ele>
        <time>2025-04-26T09:02:18Z</time>
      </trkpt>
      <trkpt lat="45.31778" lon="-1.13465">
        <ele>77</ele>
        <time>2025-04-26T09:02:19Z</time>
      </trkpt>
      <trkpt lat="45.31781" lon="-1.13465">
        <ele>77</ele>
        <time>2025-04-26T09:02:20Z</time>
      </trkpt>
      <trkpt lat="45.31785" lon="-1.13465">
        <ele>77</ele>
        <time>2025-04-26T09:02:21Z</time>
      </trkpt>
      <trkpt lat="45.31789" lon="-1.13464">
        <ele>77</ele>
        <time>2025-04-26T09:02:22Z</time>
      </trkpt>
      <trkpt lat="45.31793" lon="-1.13464">
        <ele>78</ele>
        <time>2025-04-26T09:02:23Z</time>
      </trkpt>
      <trkpt lat="45.31798" lon="-1.13463">
        <ele>78</ele>
        <time>2025-04-26T09:02:24Z</time>
      </trkpt>
      <trkpt lat="45.31802" lon="-1.13462">
        <ele>79</ele>
        <time>2025-04-26T09:02:25Z</time>
      </trkpt>
      <trkpt lat="45.31806" lon="-1.1346">
        <ele>79</ele>
        <time>2025-04-26T09:02:26Z</time>
      </trkpt>
      <trkpt lat="45.3181" lon="-1.13459">
        <ele>78</ele>
        <time>2025-04-26T09:02:27Z</time>
      </trkpt>
      <trkpt lat="45.31813" lon="-1.13458">
        <ele>78</ele>
        <time>2025-04-26T09:02:28Z</time>
      </trkpt>
      <trkpt lat="45.31817" lon="-1.13456">
        <ele>77</ele>
        <time>2025-04-26T09:02:29Z</time>
      </trkpt>
      <trkpt lat="45.31821" lon="-1.13455">
        <ele>77</ele>
        <time>2025-04-26T09:02:30Z</time>
      </trkpt>
      <trkpt lat="45.31825" lon="-1.13453">
        <ele>76</ele>
        <time>2025-04-26T09:02:31Z</time>
      </trkpt>
      <trkpt lat="45.31829" lon="-1.13451">
        <ele>75</ele>
        <time>2025-04-26T09:02:32Z</time>
      </trkpt>
      <trkpt lat="45.31834" lon="-1.1345">
        <ele>73</ele>
        <time>2025-04-26T09:02:33Z</time>
      </trkpt>
      <trkpt lat="45.31838" lon="-1.13449">
        <ele>73</ele>
        <time>2025-04-26T09:02:34Z</time>
      </trkpt>
      <trkpt lat="45.31842" lon="-1.13447">
        <ele>73</ele>
        <time>2025-04-26T09:02:35Z</time>
      </trkpt>
      <trkpt lat="45.31847" lon="-1.13446">
        <ele>72</ele>
        <time>2025-04-26T09:02:36Z</time>
      </trkpt>
      <trkpt lat="45.31852" lon="-1.13446">
        <ele>72</ele>
        <time>2025-04-26T09:02:37Z</time>
      </trkpt>
      <trkpt lat="45.31856" lon="-1.13445">
        <ele>71</ele>
        <time>2025-04-26T09:02:38Z</time>
      </trkpt>
      <trkpt lat="45.31861" lon="-1.13444">
        <ele>71</ele>
        <time>2025-04-26T09:02:39Z</time>
      </trkpt>
      <trkpt lat="45.31865" lon="-1.13443">
        <ele>71</ele>
        <time>2025-04-26T09:02:40Z</time>
      </trkpt>
      <trkpt lat="45.31869" lon="-1.13442">
        <ele>70</ele>
        <time>2025-04-26T09:02:41Z</time>
      </trkpt>
      <trkpt lat="45.31873" lon="-1.13441">
        <ele>70</ele>
        <time>2025-04-26T09:02:42Z</time>
      </trkpt>
      <trkpt lat="45.31877" lon="-1.1344">
        <ele>70</ele>
        <time>2025-04-26T09:02:43Z</time>
      </trkpt>
      <trkpt lat="45.31882" lon="-1.13439">
        <ele>70</ele>
        <time>2025-04-26T09:02:44Z</time>
      </trkpt>
      <trkpt lat="45.31886" lon="-1.13438">
        <ele>70</ele>
        <time>2025-04-26T09:02:45Z</time>
      </trkpt>
      <trkpt lat="45.3189" lon="-1.13437">
        <ele>70</ele>
        <time>2025-04-26T09:02:46Z</time>
      </trkpt>
      <trkpt lat="45.31895" lon="-1.13435">
        <ele>70</ele>
        <time>2025-04-26T09:02:47Z</time>
      </trkpt>
      <trkpt lat="45.31899" lon="-1.13434">
        <ele>70</ele>
        <time>2025-04-26T09:02:48Z</time>
      </trkpt>
      <trkpt lat="45.31904" lon="-1.13433">
        <ele>70</ele>
        <time>2025-04-26T09:02:49Z</time>
      </trkpt>
      <trkpt lat="45.31908" lon="-1.13432">
        <ele>70</ele>
        <time>2025-04-26T09:02:50Z</time>
      </trkpt>
      <trkpt lat="45.31912" lon="-1.13431">
        <ele>70</ele>
        <time>2025-04-26T09:02:51Z</time>
      </trkpt>
      <trkpt lat="45.31916" lon="-1.1343">
        <ele>71</ele>
        <time>2025-04-26T09:02:52Z</time>
      </trkpt>
      <trkpt lat="45.31921" lon="-1.13429">
        <ele>71</ele>
        <time>2025-04-26T09:02:53Z</time>
      </trkpt>
      <trkpt lat="45.31925" lon="-1.13427">
        <ele>71</ele>
        <time>2025-04-26T09:02:54Z</time>
      </trkpt>
      <trkpt lat="45.31929" lon="-1.13426">
        <ele>71</ele>
        <time>2025-04-26T09:02:55Z</time>
      </trkpt>
      <trkpt lat="45.31933" lon="-1.13425">
        <ele>71</ele>
        <time>2025-04-26T09:02:56Z</time>
      </trkpt>
      <trkpt lat="45.31938" lon="-1.13423">
        <ele>71</ele>
        <time>2025-04-26T09:02:57Z</time>
      </trkpt>
      <trkpt lat="45.31942" lon="-1.13422">
        <ele>71</ele>
        <time>2025-04-26T09:02:58Z</time>
      </trkpt>
      <trkpt lat="45.31946" lon="-1.13421">
        <ele>71</ele>
        <time>2025-04-26T09:02:59Z</time>
      </trkpt>
      <trkpt lat="45.3195" lon="-1.13419">
        <ele>71</ele>
        <time>2025-04-26T09:03:00Z</time>
      </trkpt>
      <trkpt lat="45.31955" lon="-1.13418">
        <ele>71</ele>
        <time>2025-04-26T09:03:01Z</time>
      </trkpt>
      <trkpt lat="45.3196" lon="-1.13417">
        <ele>71</ele>
        <time>2025-04-26T09:03:02Z</time>
      </trkpt>
      <trkpt lat="45.31964" lon="-1.13416">
        <ele>70</ele>
        <time>2025-04-26T09:03:03Z</time>
      </trkpt>
      <trkpt lat="45.31969" lon="-1.13415">
        <ele>70</ele>
        <time>2025-04-26T09:03:04Z</time>
      </trkpt>
      <trkpt lat="45.31974" lon="-1.13414">
        <ele>69</ele>
        <time>2025-04-26T09:03:05Z</time>
      </trkpt>
      <trkpt lat="45.31978" lon="-1.13413">
        <ele>69</ele>
        <time>2025-04-26T09:03:06Z</time>
      </trkpt>
      <trkpt lat="45.31983" lon="-1.13412">
        <ele>69</ele>
        <time>2025-04-26T09:03:07Z</time>
      </trkpt>
      <trkpt lat="45.31987" lon="-1.1341">
        <ele>69</ele>
        <time>2025-04-26T09:03:08Z</time>
      </trkpt>
      <trkpt lat="45.31992" lon="-1.13409">
        <ele>69</ele>
        <time>2025-04-26T09:03:09Z</time>
      </trkpt>
      <trkpt lat="45.31996" lon="-1.13408">
        <ele>69</ele>
        <time>2025-04-26T09:03:10Z</time>
      </trkpt>
      <trkpt lat="45.32" lon="-1.13406">
        <ele>69</ele>
        <time>2025-04-26T09:03:11Z</time>
      </trkpt>
      <trkpt lat="45.32005" lon="-1.13405">
        <ele>69</ele>
        <time>2025-04-26T09:03:12Z</time>
      </trkpt>
      <trkpt lat="45.32009" lon="-1.13403">
        <ele>69</ele>
        <time>2025-04-26T09:03:13Z</time>
      </trkpt>
      <trkpt lat="45.32013" lon="-1.13402">
        <ele>69</ele>
        <time>2025-04-26T09:03:14Z</time>
      </trkpt>
      <trkpt lat="45.32018" lon="-1.13401">
        <ele>69</ele>
        <time>2025-04-26T09:03:15Z</time>
      </trkpt>
      <trkpt lat="45.32022" lon="-1.134">
        <ele>68</ele>
        <time>2025-04-26T09:03:16Z</time>
      </trkpt>
      <trkpt lat="45.32026" lon="-1.13398">
        <ele>68</ele>
        <time>2025-04-26T09:03:17Z</time>
      </trkpt>
      <trkpt lat="45.3203" lon="-1.13397">
        <ele>68</ele>
        <time>2025-04-26T09:03:18Z</time>
      </trkpt>
      <trkpt lat="45.32035" lon="-1.13396">
        <ele>68</ele>
        <time>2025-04-26T09:03:19Z</time>
      </trkpt>
      <trkpt lat="45.32039" lon="-1.13395">
        <ele>68</ele>
        <time>2025-04-26T09:03:20Z</time>
      </trkpt>
      <trkpt lat="45.32044" lon="-1.13393">
        <ele>68</ele>
        <time>2025-04-26T09:03:21Z</time>
      </trkpt>
      <trkpt lat="45.32048" lon="-1.13392">
        <ele>68</ele>
        <time>2025-04-26T09:03:22Z</time>
      </trkpt>
      <trkpt lat="45.32053" lon="-1.13391">
        <ele>68</ele>
        <time>2025-04-26T09:03:23Z</time>
      </trkpt>
      <trkpt lat="45.32057" lon="-1.13389">
        <ele>68</ele>
        <time>2025-04-26T09:03:24Z</time>
      </trkpt>
      <trkpt lat="45.32061" lon="-1.13388">
        <ele>68</ele>
        <time>2025-04-26T09:03:25Z</time>
      </trkpt>
      <trkpt lat="45.32065" lon="-1.13387">
        <ele>68</ele>
        <time>2025-04-26T09:03:26Z</time>
      </trkpt>
      <trkpt lat="45.3207" lon="-1.13385">
        <ele>69</ele>
        <time>2025-04-26T09:03:27Z</time>
      </trkpt>
      <trkpt lat="45.32074" lon="-1.13384">
        <ele>69</ele>
        <time>2025-04-26T09:03:28Z</time>
      </trkpt>
      <trkpt lat="45.32078" lon="-1.13382">
        <ele>69</ele>
        <time>2025-04-26T09:03:29Z</time>
      </trkpt>
      <trkpt lat="45.32082" lon="-1.13381">
        <ele>69</ele>
        <time>2025-04-26T09:03:30Z</time>
      </trkpt>
      <trkpt lat="45.32087" lon="-1.1338">
        <ele>69</ele>
        <time>2025-04-26T09:03:31Z</time>
      </trkpt>
      <trkpt lat="45.32091" lon="-1.13378">
        <ele>69</ele>
        <time>2025-04-26T09:03:32Z</time>
      </trkpt>
      <trkpt lat="45.32096" lon="-1.13377">
        <ele>68</ele>
        <time>2025-04-26T09:03:33Z</time>
      </trkpt>
      <trkpt lat="45.321" lon="-1.13376">
        <ele>68</ele>
        <time>2025-04-26T09:03:34Z</time>
      </trkpt>
      <trkpt lat="45.32104" lon="-1.13375">
        <ele>68</ele>
        <time>2025-04-26T09:03:35Z</time>
      </trkpt>
      <trkpt lat="45.32108" lon="-1.13374">
        <ele>68</ele>
        <time>2025-04-26T09:03:36Z</time>
      </trkpt>
      <trkpt lat="45.32112" lon="-1.13373">
        <ele>68</ele>
        <time>2025-04-26T09:03:37Z</time>
      </trkpt>
      <trkpt lat="45.32117" lon="-1.13372">
        <ele>68</ele>
        <time>2025-04-26T09:03:38Z</time>
      </trkpt>
      <trkpt lat="45.32121" lon="-1.1337">
        <ele>68</ele>
        <time>2025-04-26T09:03:39Z</time>
      </trkpt>
      <trkpt lat="45.32126" lon="-1.13369">
        <ele>68</ele>
        <time>2025-04-26T09:03:40Z</time>
      </trkpt>
      <trkpt lat="45.3213" lon="-1.13368">
        <ele>68</ele>
        <time>2025-04-26T09:03:41Z</time>
      </trkpt>
      <trkpt lat="45.32134" lon="-1.13366">
        <ele>68</ele>
        <time>2025-04-26T09:03:42Z</time>
      </trkpt>
      <trkpt lat="45.32139" lon="-1.13365">
        <ele>68</ele>
        <time>2025-04-26T09:03:43Z</time>
      </trkpt>
      <trkpt lat="45.32143" lon="-1.13363">
        <ele>68</ele>
        <time>2025-04-26T09:03:44Z</time>
      </trkpt>
      <trkpt lat="45.32148" lon="-1.13362">
        <ele>68</ele>
        <time>2025-04-26T09:03:45Z</time>
      </trkpt>
      <trkpt lat="45.32152" lon="-1.13361">
        <ele>68</ele>
        <time>2025-04-26T09:03:46Z</time>
      </trkpt>
      <trkpt lat="45.32157" lon="-1.1336">
        <ele>68</ele>
        <time>2025-04-26T09:03:47Z</time>
      </trkpt>
      <trkpt lat="45.32161" lon="-1.13358">
        <ele>68</ele>
        <time>2025-04-26T09:03:48Z</time>
      </trkpt>
      <trkpt lat="45.32165" lon="-1.13357">
        <ele>67</ele>
        <time>2025-04-26T09:03:49Z</time>
      </trkpt>
      <trkpt lat="45.3217" lon="-1.13356">
        <ele>67</ele>
        <time>2025-04-26T09:03:50Z</time>
      </trkpt>
      <trkpt lat="45.32175" lon="-1.13355">
        <ele>67</ele>
        <time>2025-04-26T09:03:51Z</time>
      </trkpt>
      <trkpt lat="45.32179" lon="-1.13354">
        <ele>67</ele>
        <time>2025-04-26T09:03:52Z</time>
      </trkpt>
      <trkpt lat="45.32183" lon="-1.13352">
        <ele>67</ele>
        <time>2025-04-26T09:03:53Z</time>
      </trkpt>
      <trkpt lat="45.32188" lon="-1.13351">
        <ele>67</ele>
        <time>2025-04-26T09:03:54Z</time>
      </trkpt>
      <trkpt lat="45.32193" lon="-1.1335">
        <ele>67</ele>
        <time>2025-04-26T09:03:55Z</time>
      </trkpt>
      <trkpt lat="45.32197" lon="-1.13349">
        <ele>67</ele>
        <time>2025-04-26T09:03:56Z</time>
      </trkpt>
      <trkpt lat="45.32202" lon="-1.13347">
        <ele>66</ele>
        <time>2025-04-26T09:03:57Z</time>
      </trkpt>
      <trkpt lat="45.32206" lon="-1.13346">
        <ele>66</ele>
        <time>2025-04-26T09:03:58Z</time>
      </trkpt>
      <trkpt lat="45.3221" lon="-1.13344">
        <ele>66</ele>
        <time>2025-04-26T09:03:59Z</time>
      </trkpt>
      <trkpt lat="45.32215" lon="-1.13343">
        <ele>66</ele>
        <time>2025-04-26T09:04:00Z</time>
      </trkpt>
      <trkpt lat="45.32219" lon="-1.13342">
        <ele>67</ele>
        <time>2025-04-26T09:04:01Z</time>
      </trkpt>
      <trkpt lat="45.32224" lon="-1.1334">
        <ele>67</ele>
        <time>2025-04-26T09:04:02Z</time>
      </trkpt>
      <trkpt lat="45.32228" lon="-1.13338">
        <ele>68</ele>
        <time>2025-04-26T09:04:03Z</time>
      </trkpt>
      <trkpt lat="45.32233" lon="-1.13337">
        <ele>68</ele>
        <time>2025-04-26T09:04:04Z</time>
      </trkpt>
      <trkpt lat="45.32237" lon="-1.13336">
        <ele>68</ele>
        <time>2025-04-26T09:04:05Z</time>
      </trkpt>
      <trkpt lat="45.32241" lon="-1.13335">
        <ele>68</ele>
        <time>2025-04-26T09:04:06Z</time>
      </trkpt>
      <trkpt lat="45.32245" lon="-1.13333">
        <ele>68</ele>
        <time>2025-04-26T09:04:07Z</time>
      </trkpt>
      <trkpt lat="45.32249" lon="-1.13332">
        <ele>68</ele>
        <time>2025-04-26T09:04:08Z</time>
      </trkpt>
      <trkpt lat="45.32253" lon="-1.13331">
        <ele>68</ele>
        <time>2025-04-26T09:04:09Z</time>
      </trkpt>
      <trkpt lat="45.32257" lon="-1.13329">
        <ele>68</ele>
        <time>2025-04-26T09:04:10Z</time>
      </trkpt>
      <trkpt lat="45.32261" lon="-1.13329">
        <ele>68</ele>
        <time>2025-04-26T09:04:11Z</time>
      </trkpt>
      <trkpt lat="45.32265" lon="-1.13327">
        <ele>68</ele>
        <time>2025-04-26T09:04:12Z</time>
      </trkpt>
      <trkpt lat="45.32269" lon="-1.13326">
        <ele>68</ele>
        <time>2025-04-26T09:04:13Z</time>
      </trkpt>
      <trkpt lat="45.32273" lon="-1.13325">
        <ele>68</ele>
        <time>2025-04-26T09:04:14Z</time>
      </trkpt>
      <trkpt lat="45.32277" lon="-1.13324">
        <ele>68</ele>
        <time>2025-04-26T09:04:15Z</time>
      </trkpt>
      <trkpt lat="45.3228" lon="-1.13323">
        <ele>68</ele>
        <time>2025-04-26T09:04:16Z</time>
      </trkpt>
      <trkpt lat="45.32284" lon="-1.13322">
        <ele>68</ele>
        <time>2025-04-26T09:04:17Z</time>
      </trkpt>
      <trkpt lat="45.32287" lon="-1.13321">
        <ele>67</ele>
        <time>2025-04-26T09:04:18Z</time>
      </trkpt>
      <trkpt lat="45.3229" lon="-1.1332">
        <ele>67</ele>
        <time>2025-04-26T09:04:19Z</time>
      </trkpt>
      <trkpt lat="45.32293" lon="-1.1332">
        <ele>67</ele>
        <time>2025-04-26T09:04:20Z</time>
      </trkpt>
      <trkpt lat="45.32297" lon="-1.13319">
        <ele>67</ele>
        <time>2025-04-26T09:04:21Z</time>
      </trkpt>
      <trkpt lat="45.32299" lon="-1.13318">
        <ele>67</ele>
        <time>2025-04-26T09:04:22Z</time>
      </trkpt>
      <trkpt lat="45.32302" lon="-1.13317">
        <ele>67</ele>
        <time>2025-04-26T09:04:23Z</time>
      </trkpt>
      <trkpt lat="45.32304" lon="-1.13316">
        <ele>67</ele>
        <time>2025-04-26T09:04:24Z</time>
      </trkpt>
      <trkpt lat="45.32306" lon="-1.13315">
        <ele>68</ele>
        <time>2025-04-26T09:04:25Z</time>
      </trkpt>
      <trkpt lat="45.32308" lon="-1.13313">
        <ele>68</ele>
        <time>2025-04-26T09:04:26Z</time>
      </trkpt>
      <trkpt lat="45.32308" lon="-1.13311">
        <ele>68</ele>
        <time>2025-04-26T09:04:27Z</time>
      </trkpt>
      <trkpt lat="45.32309" lon="-1.13309">
        <ele>68</ele>
        <time>2025-04-26T09:04:28Z</time>
      </trkpt>
      <trkpt lat="45.32309" lon="-1.13307">
        <ele>68</ele>
        <time>2025-04-26T09:04:29Z</time>
      </trkpt>
      <trkpt lat="45.3231" lon="-1.13305">
        <ele>68</ele>
        <time>2025-04-26T09:04:30Z</time>
      </trkpt>
      <trkpt lat="45.3231" lon="-1.13303">
        <ele>68</ele>
        <time>2025-04-26T09:04:31Z</time>
      </trkpt>
      <trkpt lat="45.3231" lon="-1.133">
        <ele>68</ele>
        <time>2025-04-26T09:04:32Z</time>
      </trkpt>
      <trkpt lat="45.32311" lon="-1.13298">
        <ele>68</ele>
        <time>2025-04-26T09:04:33Z</time>
      </trkpt>
      <trkpt lat="45.32311" lon="-1.13295">
        <ele>68</ele>
        <time>2025-04-26T09:04:34Z</time>
      </trkpt>
      <trkpt lat="45.32311" lon="-1.13293">
        <ele>67</ele>
        <time>2025-04-26T09:04:35Z</time>
      </trkpt>
      <trkpt lat="45.32312" lon="-1.13291">
        <ele>67</ele>
        <time>2025-04-26T09:04:36Z</time>
      </trkpt>
      <trkpt lat="45.32312" lon="-1.13288">
        <ele>67</ele>
        <time>2025-04-26T09:04:37Z</time>
      </trkpt>
      <trkpt lat="45.32313" lon="-1.13286">
        <ele>67</ele>
        <time>2025-04-26T09:04:38Z</time>
      </trkpt>
      <trkpt lat="45.32313" lon="-1.13284">
        <ele>66</ele>
        <time>2025-04-26T09:04:39Z</time>
      </trkpt>
      <trkpt lat="45.32313" lon="-1.13282">
        <ele>67</ele>
        <time>2025-04-26T09:04:40Z</time>
      </trkpt>
      <trkpt lat="45.32313" lon="-1.13281">
        <ele>66</ele>
        <time>2025-04-26T09:04:41Z</time>
      </trkpt>
      <trkpt lat="45.32313" lon="-1.1328">
        <ele>66</ele>
        <time>2025-04-26T09:04:42Z</time>
      </trkpt>
      <trkpt lat="45.32313" lon="-1.13278">
        <ele>66</ele>
        <time>2025-04-26T09:04:43Z</time>
      </trkpt>
      <trkpt lat="45.32312" lon="-1.13277">
        <ele>66</ele>
        <time>2025-04-26T09:04:44Z</time>
      </trkpt>
      <trkpt lat="45.32311" lon="-1.13276">
        <ele>65</ele>
        <time>2025-04-26T09:04:45Z</time>
      </trkpt>
      <trkpt lat="45.32311" lon="-1.13275">
        <ele>66</ele>
        <time>2025-04-26T09:04:46Z</time>
      </trkpt>
      <trkpt lat="45.3231" lon="-1.13274">
        <ele>66</ele>
        <time>2025-04-26T09:04:47Z</time>
      </trkpt>
      <trkpt lat="45.3231" lon="-1.13272">
        <ele>65</ele>
        <time>2025-04-26T09:04:48Z</time>
      </trkpt>
      <trkpt lat="45.3231" lon="-1.13271">
        <ele>65</ele>
        <time>2025-04-26T09:04:49Z</time>
      </trkpt>
      <trkpt lat="45.32309" lon="-1.13269">
        <ele>65</ele>
        <time>2025-04-26T09:04:50Z</time>
      </trkpt>
      <trkpt lat="45.32309" lon="-1.13268">
        <ele>66</ele>
        <time>2025-04-26T09:04:51Z</time>
      </trkpt>
      <trkpt lat="45.32309" lon="-1.13267">
        <ele>66</ele>
        <time>2025-04-26T09:04:52Z</time>
      </trkpt>
      <trkpt lat="45.3231" lon="-1.13266">
        <ele>65</ele>
        <time>2025-04-26T09:04:53Z</time>
      </trkpt>
      <trkpt lat="45.3231" lon="-1.13265">
        <ele>65</ele>
        <time>2025-04-26T09:04:54Z</time>
      </trkpt>
      <trkpt lat="45.32311" lon="-1.13266">
        <ele>65</ele>
        <time>2025-04-26T09:04:55Z</time>
      </trkpt>
      <trkpt lat="45.32311" lon="-1.13266">
        <ele>65</ele>
        <time>2025-04-26T09:04:56Z</time>
      </trkpt>
      <trkpt lat="45.32311" lon="-1.13267">
        <ele>65</ele>
        <time>2025-04-26T09:04:57Z</time>
      </trkpt>
      <trkpt lat="45.32311" lon="-1.13267">
        <ele>65</ele>
        <time>2025-04-26T09:04:58Z</time>
      </trkpt>
      <trkpt lat="45.32311" lon="-1.13267">
        <ele>65</ele>
        <time>2025-04-26T09:04:59Z</time>
      </trkpt>
      <trkpt lat="45.32311" lon="-1.13267">
        <ele>65</ele>
        <time>2025-04-26T09:05:00Z</time>
      </trkpt>
      <trkpt lat="45.32311" lon="-1.13267">
        <ele>65</ele>
        <time>2025-04-26T09:05:01Z</time>
      </trkpt>
      <trkpt lat="45.32311" lon="-1.13267">
        <ele>65</ele>
        <time>2025-04-26T09:05:02Z</time>
      </trkpt>
      <trkpt lat="45.32311" lon="-1.13267">
        <ele>65</ele>
        <time>2025-04-26T09:05:03Z</time>
      </trkpt>
      <trkpt lat="45.32311" lon="-1.13267">
        <ele>65</ele>
        <time>2025-04-26T09:05:04Z</time>
      </trkpt>
      <trkpt lat="45.32311" lon="-1.13267">
        <ele>65</ele>
        <time>2025-04-26T09:05:05Z</time>
      </trkpt>
      <trkpt lat="45.32311" lon="-1.13267">
        <ele>65</ele>
        <time>2025-04-26T09:05:06Z</time>
      </trkpt>
      <trkpt lat="45.32311" lon="-1.13267">
        <ele>65</ele>
        <time>2025-04-26T09:05:07Z</time>
      </trkpt>
      <trkpt lat="45.32311" lon="-1.13267">
        <ele>65</ele>
        <time>2025-04-26T09:05:08Z</time>
      </trkpt>
      <trkpt lat="45.32311" lon="-1.13267">
        <ele>65</ele>
        <time>2025-04-26T09:05:09Z</time>
      </trkpt>
      <trkpt lat="45.32311" lon="-1.13267">
        <ele>65</ele>
        <time>2025-04-26T09:05:10Z</time>
      </trkpt>
      <trkpt lat="45.32311" lon="-1.13267">
        <ele>65</ele>
        <time>2025-04-26T09:05:11Z</time>
      </trkpt>
      <trkpt lat="45.32311" lon="-1.13267">
        <ele>65</ele>
        <time>2025-04-26T09:05:12Z</time>
      </trkpt>
      <trkpt lat="45.32311" lon="-1.13267">
        <ele>65</ele>
        <time>2025-04-26T09:05:13Z</time>
      </trkpt>
      <trkpt lat="45.32311" lon="-1.13267">
        <ele>65</ele>
        <time>2025-04-26T09:05:14Z</time>
      </trkpt>
      <trkpt lat="45.32311" lon="-1.13267">
        <ele>65</ele>
        <time>2025-04-26T09:05:15Z</time>
      </trkpt>
      <trkpt lat="45.32311" lon="-1.13267">
        <ele>65</ele>
        <time>2025-04-26T09:05:16Z</time>
      </trkpt>
      <trkpt lat="45.32311" lon="-1.13267">
        <ele>65</ele>
        <time>2025-04-26T09:05:17Z</time>
      </trkpt>
      <trkpt lat="45.32311" lon="-1.13267">
        <ele>65</ele>
        <time>2025-04-26T09:05:18Z</time>
      </trkpt>
      <trkpt lat="45.32311" lon="-1.13267">
        <ele>65</ele>
        <time>2025-04-26T09:05:19Z</time>
      </trkpt>
      <trkpt lat="45.32311" lon="-1.13267">
        <ele>65</ele>
        <time>2025-04-26T09:05:20Z</time>
      </trkpt>
      <trkpt lat="45.32311" lon="-1.13267">
        <ele>65</ele>
        <time>2025-04-26T09:05:21Z</time>
      </trkpt>
      <trkpt lat="45.32311" lon="-1.13267">
        <ele>65</ele>
        <time>2025-04-26T09:05:22Z</time>
      </trkpt>
      <trkpt lat="45.32311" lon="-1.13267">
        <ele>65</ele>
        <time>2025-04-26T09:05:23Z</time>
      </trkpt>
      <trkpt lat="45.32311" lon="-1.13267">
        <ele>65</ele>
        <time>2025-04-26T09:05:24Z</time>
      </trkpt>
      <trkpt lat="45.32311" lon="-1.13267">
        <ele>65</ele>
        <time>2025-04-26T09:05:25Z</time>
      </trkpt>
      <trkpt lat="45.32311" lon="-1.13267">
        <ele>65</ele>
        <time>2025-04-26T09:05:26Z</time>
      </trkpt>
      <trkpt lat="45.32311" lon="-1.13267">
        <ele>65</ele>
        <time>2025-04-26T09:05:27Z</time>
      </trkpt>
      <trkpt lat="45.32311" lon="-1.13267">
        <ele>65</ele>
        <time>2025-04-26T09:05:28Z</time>
      </trkpt>
      <trkpt lat="45.32311" lon="-1.13267">
        <ele>65</ele>
        <time>2025-04-26T09:05:29Z</time>
      </trkpt>
      <trkpt lat="45.32311" lon="-1.13267">
        <ele>65</ele>
        <time>2025-04-26T09:05:30Z</time>
      </trkpt>
      <trkpt lat="45.32311" lon="-1.13267">
        <ele>65</ele>
        <time>2025-04-26T09:05:31Z</time>
      </trkpt>
      <trkpt lat="45.32311" lon="-1.13267">
        <ele>65</ele>
        <time>2025-04-26T09:05:32Z</time>
      </trkpt>
      <trkpt lat="45.32311" lon="-1.13267">
        <ele>65</ele>
        <time>2025-04-26T09:05:33Z</time>
      </trkpt>
      <trkpt lat="45.32311" lon="-1.13267">
        <ele>65</ele>
        <time>2025-04-26T09:05:34Z</time>
      </trkpt>
      <trkpt lat="45.32311" lon="-1.13267">
        <ele>65</ele>
        <time>2025-04-26T09:05:35Z</time>
      </trkpt>
      <trkpt lat="45.32311" lon="-1.13267">
        <ele>65</ele>
        <time>2025-04-26T09:05:36Z</time>
      </trkpt>
      <trkpt lat="45.32311" lon="-1.13267">
        <ele>65</ele>
        <time>2025-04-26T09:05:37Z</time>
      </trkpt>
      <trkpt lat="45.32311" lon="-1.13267">
        <ele>65</ele>
        <time>2025-04-26T09:05:38Z</time>
      </trkpt>
      <trkpt lat="45.32311" lon="-1.13267">
        <ele>65</ele>
        <time>2025-04-26T09:05:39Z</time>
      </trkpt>
      <trkpt lat="45.32311" lon="-1.13267">
        <ele>65</ele>
        <time>2025-04-26T09:05:40Z</time>
      </trkpt>
      <trkpt lat="45.32311" lon="-1.13267">
        <ele>65</ele>
        <time>2025-04-26T09:05:41Z</time>
      </trkpt>
      <trkpt lat="45.32311" lon="-1.13267">
        <ele>65</ele>
        <time>2025-04-26T09:05:42Z</time>
      </trkpt>
      <trkpt lat="45.32311" lon="-1.13267">
        <ele>65</ele>
        <time>2025-04-26T09:05:43Z</time>
      </trkpt>
      <trkpt lat="45.32311" lon="-1.13267">
        <ele>65</ele>
        <time>2025-04-26T09:05:44Z</time>
      </trkpt>
      <trkpt lat="45.32311" lon="-1.13267">
        <ele>65</ele>
        <time>2025-04-26T09:05:45Z</time>
      </trkpt>
      <trkpt lat="45.32311" lon="-1.13267">
        <ele>65</ele>
        <time>2025-04-26T09:05:46Z</time>
      </trkpt>
      <trkpt lat="45.32311" lon="-1.13267">
        <ele>65</ele>
        <time>2025-04-26T09:05:47Z</time>
      </trkpt>
      <trkpt lat="45.32311" lon="-1.13267">
        <ele>65</ele>
        <time>2025-04-26T09:05:48Z</time>
      </trkpt>
      <trkpt lat="45.32311" lon="-1.13267">
        <ele>65</ele>
        <time>2025-04-26T09:05:49Z</time>
      </trkpt>
      <trkpt lat="45.32311" lon="-1.13267">
        <ele>65</ele>
        <time>2025-04-26T09:20:34Z</time>
      </trkpt>
      <trkpt lat="45.32311" lon="-1.13267">
        <ele>65</ele>
        <time>2025-04-26T09:20:35Z</time>
      </trkpt>
      <trkpt lat="45.32311" lon="-1.13267">
        <ele>65</ele>
        <time>2025-04-26T09:20:36Z</time>
      </trkpt>
      <trkpt lat="45.32311" lon="-1.13267">
        <ele>65</ele>
        <time>2025-04-26T09:20:37Z</time>
      </trkpt>
      <trkpt lat="45.32311" lon="-1.13267">
        <ele>65</ele>
        <time>2025-04-26T09:20:38Z</time>
      </trkpt>
      <trkpt lat="45.32311" lon="-1.13267">
        <ele>65</ele>
        <time>2025-04-26T09:20:39Z</time>
      </trkpt>
      <trkpt lat="45.32311" lon="-1.13267">
        <ele>65</ele>
        <time>2025-04-26T09:20:40Z</time>
      </trkpt>
      <trkpt lat="45.32311" lon="-1.13267">
        <ele>65</ele>
        <time>2025-04-26T09:20:41Z</time>
      </trkpt>
      <trkpt lat="45.32311" lon="-1.13267">
        <ele>65</ele>
        <time>2025-04-26T09:20:42Z</time>
      </trkpt>
      <trkpt lat="45.32311" lon="-1.13267">
        <ele>65</ele>
        <time>2025-04-26T09:20:43Z</time>
      </trkpt>
      <trkpt lat="45.32311" lon="-1.13267">
        <ele>65</ele>
        <time>2025-04-26T09:20:44Z</time>
      </trkpt>
      <trkpt lat="45.32311" lon="-1.13267">
        <ele>65</ele>
        <time>2025-04-26T09:20:45Z</time>
      </trkpt>
      <trkpt lat="45.32311" lon="-1.13267">
        <ele>65</ele>
        <time>2025-04-26T09:20:46Z</time>
      </trkpt>
      <trkpt lat="45.32314" lon="-1.13272">
        <ele>68</ele>
        <time>2025-04-26T09:20:47Z</time>
      </trkpt>
      <trkpt lat="45.32315" lon="-1.13274">
        <ele>68</ele>
        <time>2025-04-26T09:20:48Z</time>
      </trkpt>
      <trkpt lat="45.32315" lon="-1.13276">
        <ele>68</ele>
        <time>2025-04-26T09:20:49Z</time>
      </trkpt>
      <trkpt lat="45.32315" lon="-1.13278">
        <ele>68</ele>
        <time>2025-04-26T09:20:50Z</time>
      </trkpt>
      <trkpt lat="45.32315" lon="-1.13279">
        <ele>68</ele>
        <time>2025-04-26T09:20:51Z</time>
      </trkpt>
      <trkpt lat="45.32315" lon="-1.1328">
        <ele>68</ele>
        <time>2025-04-26T09:20:52Z</time>
      </trkpt>
      <trkpt lat="45.32314" lon="-1.13282">
        <ele>68</ele>
        <time>2025-04-26T09:20:53Z</time>
      </trkpt>
      <trkpt lat="45.32314" lon="-1.13283">
        <ele>68</ele>
        <time>2025-04-26T09:20:54Z</time>
      </trkpt>
      <trkpt lat="45.32315" lon="-1.13285">
        <ele>68</ele>
        <time>2025-04-26T09:20:55Z</time>
      </trkpt>
      <trkpt lat="45.32315" lon="-1.13287">
        <ele>67</ele>
        <time>2025-04-26T09:20:56Z</time>
      </trkpt>
      <trkpt lat="45.32315" lon="-1.13289">
        <ele>67</ele>
        <time>2025-04-26T09:20:57Z</time>
      </trkpt>
      <trkpt lat="45.32315" lon="-1.13291">
        <ele>67</ele>
        <time>2025-04-26T09:20:58Z</time>
      </trkpt>
      <trkpt lat="45.32314" lon="-1.13292">
        <ele>67</ele>
        <time>2025-04-26T09:20:59Z</time>
      </trkpt>
      <trkpt lat="45.32314" lon="-1.13293">
        <ele>67</ele>
        <time>2025-04-26T09:21:00Z</time>
      </trkpt>
      <trkpt lat="45.32314" lon="-1.13295">
        <ele>67</ele>
        <time>2025-04-26T09:21:01Z</time>
      </trkpt>
      <trkpt lat="45.32314" lon="-1.13297">
        <ele>67</ele>
        <time>2025-04-26T09:21:02Z</time>
      </trkpt>
      <trkpt lat="45.32314" lon="-1.13298">
        <ele>67</ele>
        <time>2025-04-26T09:21:03Z</time>
      </trkpt>
      <trkpt lat="45.32314" lon="-1.133">
        <ele>67</ele>
        <time>2025-04-26T09:21:04Z</time>
      </trkpt>
      <trkpt lat="45.32314" lon="-1.13301">
        <ele>67</ele>
        <time>2025-04-26T09:21:05Z</time>
      </trkpt>
      <trkpt lat="45.32315" lon="-1.13302">
        <ele>67</ele>
        <time>2025-04-26T09:21:06Z</time>
      </trkpt>
      <trkpt lat="45.32315" lon="-1.13303">
        <ele>68</ele>
        <time>2025-04-26T09:21:07Z</time>
      </trkpt>
      <trkpt lat="45.32315" lon="-1.13304">
        <ele>68</ele>
        <time>2025-04-26T09:21:08Z</time>
      </trkpt>
      <trkpt lat="45.32316" lon="-1.13305">
        <ele>68</ele>
        <time>2025-04-26T09:21:09Z</time>
      </trkpt>
      <trkpt lat="45.32317" lon="-1.13306">
        <ele>68</ele>
        <time>2025-04-26T09:21:10Z</time>
      </trkpt>
      <trkpt lat="45.32317" lon="-1.13307">
        <ele>68</ele>
        <time>2025-04-26T09:21:11Z</time>
      </trkpt>
      <trkpt lat="45.32319" lon="-1.13308">
        <ele>68</ele>
        <time>2025-04-26T09:21:12Z</time>
      </trkpt>
      <trkpt lat="45.32321" lon="-1.13308">
        <ele>68</ele>
        <time>2025-04-26T09:21:13Z</time>
      </trkpt>
      <trkpt lat="45.32323" lon="-1.13308">
        <ele>68</ele>
        <time>2025-04-26T09:21:14Z</time>
      </trkpt>
      <trkpt lat="45.32325" lon="-1.13309">
        <ele>67</ele>
        <time>2025-04-26T09:21:15Z</time>
      </trkpt>
      <trkpt lat="45.32327" lon="-1.13309">
        <ele>67</ele>
        <time>2025-04-26T09:21:16Z</time>
      </trkpt>
      <trkpt lat="45.3233" lon="-1.1331">
        <ele>67</ele>
        <time>2025-04-26T09:21:17Z</time>
      </trkpt>
      <trkpt lat="45.32333" lon="-1.13311">
        <ele>66</ele>
        <time>2025-04-26T09:21:18Z</time>
      </trkpt>
      <trkpt lat="45.32336" lon="-1.13312">
        <ele>66</ele>
        <time>2025-04-26T09:21:19Z</time>
      </trkpt>
      <trkpt lat="45.32338" lon="-1.13314">
        <ele>66</ele>
        <time>2025-04-26T09:21:20Z</time>
      </trkpt>
      <trkpt lat="45.32342" lon="-1.13316">
        <ele>66</ele>
        <time>2025-04-26T09:21:21Z</time>
      </trkpt>
      <trkpt lat="45.32345" lon="-1.13317">
        <ele>66</ele>
        <time>2025-04-26T09:21:22Z</time>
      </trkpt>
      <trkpt lat="45.32347" lon="-1.1332">
        <ele>66</ele>
        <time>2025-04-26T09:21:23Z</time>
      </trkpt>
      <trkpt lat="45.3235" lon="-1.13322">
        <ele>66</ele>
        <time>2025-04-26T09:21:24Z</time>
      </trkpt>
      <trkpt lat="45.32353" lon="-1.13325">
        <ele>67</ele>
        <time>2025-04-26T09:21:25Z</time>
      </trkpt>
      <trkpt lat="45.32355" lon="-1.13328">
        <ele>67</ele>
        <time>2025-04-26T09:21:26Z</time>
      </trkpt>
      <trkpt lat="45.32357" lon="-1.13331">
        <ele>67</ele>
        <time>2025-04-26T09:21:27Z</time>
      </trkpt>
      <trkpt lat="45.32359" lon="-1.13334">
        <ele>66</ele>
        <time>2025-04-26T09:21:28Z</time>
      </trkpt>
      <trkpt lat="45.3236" lon="-1.13338">
        <ele>67</ele>
        <time>2025-04-26T09:21:29Z</time>
      </trkpt>
      <trkpt lat="45.32362" lon="-1.13342">
        <ele>67</ele>
        <time>2025-04-26T09:21:30Z</time>
      </trkpt>
      <trkpt lat="45.32363" lon="-1.13347">
        <ele>67</ele>
        <time>2025-04-26T09:21:31Z</time>
      </trkpt>
      <trkpt lat="45.32364" lon="-1.13351">
        <ele>67</ele>
        <time>2025-04-26T09:21:32Z</time>
      </trkpt>
      <trkpt lat="45.32365" lon="-1.13356">
        <ele>67</ele>
        <time>2025-04-26T09:21:33Z</time>
      </trkpt>
      <trkpt lat="45.32366" lon="-1.1336">
        <ele>68</ele>
        <time>2025-04-26T09:21:34Z</time>
      </trkpt>
      <trkpt lat="45.32368" lon="-1.13365">
        <ele>68</ele>
        <time>2025-04-26T09:21:35Z</time>
      </trkpt>
      <trkpt lat="45.32369" lon="-1.1337">
        <ele>68</ele>
        <time>2025-04-26T09:21:36Z</time>
      </trkpt>
      <trkpt lat="45.32371" lon="-1.13375">
        <ele>68</ele>
        <time>2025-04-26T09:21:37Z</time>
      </trkpt>
      <trkpt lat="45.32372" lon="-1.13379">
        <ele>67</ele>
        <time>2025-04-26T09:21:38Z</time>
      </trkpt>
      <trkpt lat="45.32373" lon="-1.13384">
        <ele>67</ele>
        <time>2025-04-26T09:21:39Z</time>
      </trkpt>
      <trkpt lat="45.32374" lon="-1.13389">
        <ele>66</ele>
        <time>2025-04-26T09:21:40Z</time>
      </trkpt>
      <trkpt lat="45.32375" lon="-1.13394">
        <ele>66</ele>
        <time>2025-04-26T09:21:41Z</time>
      </trkpt>
      <trkpt lat="45.32376" lon="-1.13399">
        <ele>65</ele>
        <time>2025-04-26T09:21:42Z</time>
      </trkpt>
      <trkpt lat="45.32377" lon="-1.13404">
        <ele>65</ele>
        <time>2025-04-26T09:21:43Z</time>
      </trkpt>
      <trkpt lat="45.32378" lon="-1.13409">
        <ele>65</ele>
        <time>2025-04-26T09:21:44Z</time>
      </trkpt>
      <trkpt lat="45.32379" lon="-1.13414">
        <ele>65</ele>
        <time>2025-04-26T09:21:45Z</time>
      </trkpt>
      <trkpt lat="45.3238" lon="-1.13419">
        <ele>65</ele>
        <time>2025-04-26T09:21:46Z</time>
      </trkpt>
      <trkpt lat="45.32381" lon="-1.13424">
        <ele>65</ele>
        <time>2025-04-26T09:21:47Z</time>
      </trkpt>
      <trkpt lat="45.32382" lon="-1.13429">
        <ele>65</ele>
        <time>2025-04-26T09:21:48Z</time>
      </trkpt>
      <trkpt lat="45.32383" lon="-1.13435">
        <ele>65</ele>
        <time>2025-04-26T09:21:49Z</time>
      </trkpt>
      <trkpt lat="45.32385" lon="-1.1344">
        <ele>64</ele>
        <time>2025-04-26T09:21:50Z</time>
      </trkpt>
      <trkpt lat="45.32386" lon="-1.13445">
        <ele>64</ele>
        <time>2025-04-26T09:21:51Z</time>
      </trkpt>
      <trkpt lat="45.32387" lon="-1.13451">
        <ele>64</ele>
        <time>2025-04-26T09:21:52Z</time>
      </trkpt>
      <trkpt lat="45.32388" lon="-1.13456">
        <ele>64</ele>
        <time>2025-04-26T09:21:53Z</time>
      </trkpt>
      <trkpt lat="45.32389" lon="-1.13461">
        <ele>63</ele>
        <time>2025-04-26T09:21:54Z</time>
      </trkpt>
      <trkpt lat="45.3239" lon="-1.13467">
        <ele>63</ele>
        <time>2025-04-26T09:21:55Z</time>
      </trkpt>
      <trkpt lat="45.32392" lon="-1.13472">
        <ele>63</ele>
        <time>2025-04-26T09:21:56Z</time>
      </trkpt>
      <trkpt lat="45.32393" lon="-1.13477">
        <ele>63</ele>
        <time>2025-04-26T09:21:57Z</time>
      </trkpt>
      <trkpt lat="45.32395" lon="-1.13483">
        <ele>63</ele>
        <time>2025-04-26T09:21:58Z</time>
      </trkpt>
      <trkpt lat="45.32396" lon="-1.13489">
        <ele>63</ele>
        <time>2025-04-26T09:21:59Z</time>
      </trkpt>
      <trkpt lat="45.32397" lon="-1.13494">
        <ele>63</ele>
        <time>2025-04-26T09:22:00Z</time>
      </trkpt>
      <trkpt lat="45.32398" lon="-1.135">
        <ele>63</ele>
        <time>2025-04-26T09:22:01Z</time>
      </trkpt>
      <trkpt lat="45.32399" lon="-1.13506">
        <ele>63</ele>
        <time>2025-04-26T09:22:02Z</time>
      </trkpt>
      <trkpt lat="45.32401" lon="-1.13512">
        <ele>63</ele>
        <time>2025-04-26T09:22:03Z</time>
      </trkpt>
      <trkpt lat="45.32402" lon="-1.13517">
        <ele>62</ele>
        <time>2025-04-26T09:22:04Z</time>
      </trkpt>
      <trkpt lat="45.32403" lon="-1.13523">
        <ele>62</ele>
        <time>2025-04-26T09:22:05Z</time>
      </trkpt>
      <trkpt lat="45.32404" lon="-1.13528">
        <ele>62</ele>
        <time>2025-04-26T09:22:06Z</time>
      </trkpt>
      <trkpt lat="45.32405" lon="-1.13534">
        <ele>62</ele>
        <time>2025-04-26T09:22:07Z</time>
      </trkpt>
      <trkpt lat="45.32407" lon="-1.13539">
        <ele>62</ele>
        <time>2025-04-26T09:22:08Z</time>
      </trkpt>
      <trkpt lat="45.32408" lon="-1.13544">
        <ele>62</ele>
        <time>2025-04-26T09:22:09Z</time>
      </trkpt>
      <trkpt lat="45.32409" lon="-1.13549">
        <ele>62</ele>
        <time>2025-04-26T09:22:10Z</time>
      </trkpt>
      <trkpt lat="45.3241" lon="-1.13555">
        <ele>62</ele>
        <time>2025-04-26T09:22:11Z</time>
      </trkpt>
      <trkpt lat="45.32412" lon="-1.1356">
        <ele>62</ele>
        <time>2025-04-26T09:22:12Z</time>
      </trkpt>
      <trkpt lat="45.32413" lon="-1.13566">
        <ele>62</ele>
        <time>2025-04-26T09:22:13Z</time>
      </trkpt>
      <trkpt lat="45.32414" lon="-1.13571">
        <ele>62</ele>
        <time>2025-04-26T09:22:14Z</time>
      </trkpt>
      <trkpt lat="45.32415" lon="-1.13576">
        <ele>62</ele>
        <time>2025-04-26T09:22:15Z</time>
      </trkpt>
      <trkpt lat="45.32416" lon="-1.13581">
        <ele>62</ele>
        <time>2025-04-26T09:22:16Z</time>
      </trkpt>
      <trkpt lat="45.32418" lon="-1.13586">
        <ele>62</ele>
        <time>2025-04-26T09:22:17Z</time>
      </trkpt>
      <trkpt lat="45.32419" lon="-1.13592">
        <ele>62</ele>
        <time>2025-04-26T09:22:18Z</time>
      </trkpt>
      <trkpt lat="45.32421" lon="-1.13597">
        <ele>62</ele>
        <time>2025-04-26T09:22:19Z</time>
      </trkpt>
      <trkpt lat="45.32422" lon="-1.13602">
        <ele>62</ele>
        <time>2025-04-26T09:22:20Z</time>
      </trkpt>
      <trkpt lat="45.32423" lon="-1.13608">
        <ele>61</ele>
        <time>2025-04-26T09:22:21Z</time>
      </trkpt>
      <trkpt lat="45.32424" lon="-1.13613">
        <ele>61</ele>
        <time>2025-04-26T09:22:22Z</time>
      </trkpt>
      <trkpt lat="45.32425" lon="-1.13618">
        <ele>61</ele>
        <time>2025-04-26T09:22:23Z</time>
      </trkpt>
      <trkpt lat="45.32427" lon="-1.13624">
        <ele>61</ele>
        <time>2025-04-26T09:22:24Z</time>
      </trkpt>
      <trkpt lat="45.32428" lon="-1.13629">
        <ele>61</ele>
        <time>2025-04-26T09:22:25Z</time>
      </trkpt>
      <trkpt lat="45.32429" lon="-1.13635">
        <ele>61</ele>
        <time>2025-04-26T09:22:26Z</time>
      </trkpt>
      <trkpt lat="45.3243" lon="-1.1364">
        <ele>61</ele>
        <time>2025-04-26T09:22:27Z</time>
      </trkpt>
      <trkpt lat="45.32432" lon="-1.13645">
        <ele>61</ele>
        <time>2025-04-26T09:22:28Z</time>
      </trkpt>
      <trkpt lat="45.32433" lon="-1.1365">
        <ele>61</ele>
        <time>2025-04-26T09:22:29Z</time>
      </trkpt>
      <trkpt lat="45.32434" lon="-1.13655">
        <ele>61</ele>
        <time>2025-04-26T09:22:30Z</time>
      </trkpt>
      <trkpt lat="45.32435" lon="-1.13661">
        <ele>60</ele>
        <time>2025-04-26T09:22:31Z</time>
      </trkpt>
      <trkpt lat="45.32436" lon="-1.13666">
        <ele>59</ele>
        <time>2025-04-26T09:22:32Z</time>
      </trkpt>
      <trkpt lat="45.32437" lon="-1.13671">
        <ele>59</ele>
        <time>2025-04-26T09:22:33Z</time>
      </trkpt>
      <trkpt lat="45.32439" lon="-1.13676">
        <ele>58</ele>
        <time>2025-04-26T09:22:34Z</time>
      </trkpt>
      <trkpt lat="45.3244" lon="-1.13682">
        <ele>58</ele>
        <time>2025-04-26T09:22:35Z</time>
      </trkpt>
      <trkpt lat="45.32442" lon="-1.13688">
        <ele>59</ele>
        <time>2025-04-26T09:22:36Z</time>
      </trkpt>
      <trkpt lat="45.32443" lon="-1.13694">
        <ele>59</ele>
        <time>2025-04-26T09:22:37Z</time>
      </trkpt>
      <trkpt lat="45.32444" lon="-1.137">
        <ele>60</ele>
        <time>2025-04-26T09:22:38Z</time>
      </trkpt>
      <trkpt lat="45.32445" lon="-1.13706">
        <ele>60</ele>
        <time>2025-04-26T09:22:39Z</time>
      </trkpt>
      <trkpt lat="45.32446" lon="-1.13712">
        <ele>60</ele>
        <time>2025-04-26T09:22:40Z</time>
      </trkpt>
      <trkpt lat="45.32447" lon="-1.13717">
        <ele>61</ele>
        <time>2025-04-26T09:22:41Z</time>
      </trkpt>
      <trkpt lat="45.32449" lon="-1.13723">
        <ele>61</ele>
        <time>2025-04-26T09:22:42Z</time>
      </trkpt>
      <trkpt lat="45.3245" lon="-1.13729">
        <ele>62</ele>
        <time>2025-04-26T09:22:43Z</time>
      </trkpt>
      <trkpt lat="45.32451" lon="-1.13734">
        <ele>62</ele>
        <time>2025-04-26T09:22:44Z</time>
      </trkpt>
      <trkpt lat="45.32452" lon="-1.1374">
        <ele>62</ele>
        <time>2025-04-26T09:22:45Z</time>
      </trkpt>
      <trkpt lat="45.32454" lon="-1.13746">
        <ele>62</ele>
        <time>2025-04-26T09:22:46Z</time>
      </trkpt>
      <trkpt lat="45.32455" lon="-1.13751">
        <ele>63</ele>
        <time>2025-04-26T09:22:47Z</time>
      </trkpt>
      <trkpt lat="45.32457" lon="-1.13757">
        <ele>64</ele>
        <time>2025-04-26T09:22:48Z</time>
      </trkpt>
      <trkpt lat="45.32458" lon="-1.13763">
        <ele>64</ele>
        <time>2025-04-26T09:22:49Z</time>
      </trkpt>
      <trkpt lat="45.3246" lon="-1.13768">
        <ele>64</ele>
        <time>2025-04-26T09:22:50Z</time>
      </trkpt>
      <trkpt lat="45.32461" lon="-1.13774">
        <ele>64</ele>
        <time>2025-04-26T09:22:51Z</time>
      </trkpt>
      <trkpt lat="45.32462" lon="-1.13779">
        <ele>65</ele>
        <time>2025-04-26T09:22:52Z</time>
      </trkpt>
      <trkpt lat="45.32463" lon="-1.13785">
        <ele>65</ele>
        <time>2025-04-26T09:22:53Z</time>
      </trkpt>
      <trkpt lat="45.32465" lon="-1.13791">
        <ele>66</ele>
        <time>2025-04-26T09:22:54Z</time>
      </trkpt>
      <trkpt lat="45.32466" lon="-1.13797">
        <ele>66</ele>
        <time>2025-04-26T09:22:55Z</time>
      </trkpt>
      <trkpt lat="45.32467" lon="-1.13803">
        <ele>65</ele>
        <time>2025-04-26T09:22:56Z</time>
      </trkpt>
      <trkpt lat="45.32468" lon="-1.13808">
        <ele>65</ele>
        <time>2025-04-26T09:22:57Z</time>
      </trkpt>
      <trkpt lat="45.3247" lon="-1.13813">
        <ele>66</ele>
        <time>2025-04-26T09:22:58Z</time>
      </trkpt>
      <trkpt lat="45.32471" lon="-1.13819">
        <ele>66</ele>
        <time>2025-04-26T09:22:59Z</time>
      </trkpt>
      <trkpt lat="45.32473" lon="-1.13824">
        <ele>66</ele>
        <time>2025-04-26T09:23:00Z</time>
      </trkpt>
      <trkpt lat="45.32474" lon="-1.1383">
        <ele>66</ele>
        <time>2025-04-26T09:23:01Z</time>
      </trkpt>
      <trkpt lat="45.32475" lon="-1.13836">
        <ele>66</ele>
        <time>2025-04-26T09:23:02Z</time>
      </trkpt>
      <trkpt lat="45.32476" lon="-1.13841">
        <ele>66</ele>
        <time>2025-04-26T09:23:03Z</time>
      </trkpt>
      <trkpt lat="45.32477" lon="-1.13846">
        <ele>67</ele>
        <time>2025-04-26T09:23:04Z</time>
      </trkpt>
      <trkpt lat="45.32478" lon="-1.13852">
        <ele>68</ele>
        <time>2025-04-26T09:23:05Z</time>
      </trkpt>
      <trkpt lat="45.3248" lon="-1.13858">
        <ele>68</ele>
        <time>2025-04-26T09:23:06Z</time>
      </trkpt>
      <trkpt lat="45.32481" lon="-1.13863">
        <ele>68</ele>
        <time>2025-04-26T09:23:07Z</time>
      </trkpt>
      <trkpt lat="45.32482" lon="-1.13868">
        <ele>69</ele>
        <time>2025-04-26T09:23:08Z</time>
      </trkpt>
      <trkpt lat="45.32484" lon="-1.13874">
        <ele>69</ele>
        <time>2025-04-26T09:23:09Z</time>
      </trkpt>
      <trkpt lat="45.32485" lon="-1.1388">
        <ele>69</ele>
        <time>2025-04-26T09:23:10Z</time>
      </trkpt>
      <trkpt lat="45.32486" lon="-1.13885">
        <ele>68</ele>
        <time>2025-04-26T09:23:11Z</time>
      </trkpt>
      <trkpt lat="45.32487" lon="-1.13891">
        <ele>69</ele>
        <time>2025-04-26T09:23:12Z</time>
      </trkpt>
      <trkpt lat="45.32489" lon="-1.13896">
        <ele>69</ele>
        <time>2025-04-26T09:23:13Z</time>
      </trkpt>
      <trkpt lat="45.3249" lon="-1.13901">
        <ele>68</ele>
        <time>2025-04-26T09:23:14Z</time>
      </trkpt>
      <trkpt lat="45.32492" lon="-1.13906">
        <ele>68</ele>
        <time>2025-04-26T09:23:15Z</time>
      </trkpt>
      <trkpt lat="45.32493" lon="-1.13912">
        <ele>68</ele>
        <time>2025-04-26T09:23:16Z</time>
      </trkpt>
      <trkpt lat="45.32494" lon="-1.13918">
        <ele>68</ele>
        <time>2025-04-26T09:23:17Z</time>
      </trkpt>
      <trkpt lat="45.32495" lon="-1.13924">
        <ele>68</ele>
        <time>2025-04-26T09:23:18Z</time>
      </trkpt>
      <trkpt lat="45.32497" lon="-1.1393">
        <ele>67</ele>
        <time>2025-04-26T09:23:19Z</time>
      </trkpt>
      <trkpt lat="45.32498" lon="-1.13936">
        <ele>67</ele>
        <time>2025-04-26T09:23:20Z</time>
      </trkpt>
      <trkpt lat="45.32499" lon="-1.13942">
        <ele>68</ele>
        <time>2025-04-26T09:23:21Z</time>
      </trkpt>
      <trkpt lat="45.325" lon="-1.13947">
        <ele>68</ele>
        <time>2025-04-26T09:23:22Z</time>
      </trkpt>
      <trkpt lat="45.32501" lon="-1.13953">
        <ele>68</ele>
        <time>2025-04-26T09:23:23Z</time>
      </trkpt>
      <trkpt lat="45.32503" lon="-1.13959">
        <ele>68</ele>
        <time>2025-04-26T09:23:24Z</time>
      </trkpt>
      <trkpt lat="45.32504" lon="-1.13964">
        <ele>68</ele>
        <time>2025-04-26T09:23:25Z</time>
      </trkpt>
      <trkpt lat="45.32505" lon="-1.1397">
        <ele>68</ele>
        <time>2025-04-26T09:23:26Z</time>
      </trkpt>
      <trkpt lat="45.32507" lon="-1.13976">
        <ele>68</ele>
        <time>2025-04-26T09:23:27Z</time>
      </trkpt>
      <trkpt lat="45.32508" lon="-1.13981">
        <ele>68</ele>
        <time>2025-04-26T09:23:28Z</time>
      </trkpt>
      <trkpt lat="45.32509" lon="-1.13987">
        <ele>68</ele>
        <time>2025-04-26T09:23:29Z</time>
      </trkpt>
      <trkpt lat="45.32511" lon="-1.13993">
        <ele>68</ele>
        <time>2025-04-26T09:23:30Z</time>
      </trkpt>
      <trkpt lat="45.32512" lon="-1.13999">
        <ele>68</ele>
        <time>2025-04-26T09:23:31Z</time>
      </trkpt>
      <trkpt lat="45.32513" lon="-1.14004">
        <ele>68</ele>
        <time>2025-04-26T09:23:32Z</time>
      </trkpt>
      <trkpt lat="45.32514" lon="-1.14009">
        <ele>67</ele>
        <time>2025-04-26T09:23:33Z</time>
      </trkpt>
      <trkpt lat="45.32516" lon="-1.14015">
        <ele>67</ele>
        <time>2025-04-26T09:23:34Z</time>
      </trkpt>
      <trkpt lat="45.32517" lon="-1.14021">
        <ele>67</ele>
        <time>2025-04-26T09:23:35Z</time>
      </trkpt>
      <trkpt lat="45.32519" lon="-1.14027">
        <ele>66</ele>
        <time>2025-04-26T09:23:36Z</time>
      </trkpt>
      <trkpt lat="45.3252" lon="-1.14032">
        <ele>67</ele>
        <time>2025-04-26T09:23:37Z</time>
      </trkpt>
      <trkpt lat="45.32521" lon="-1.14038">
        <ele>66</ele>
        <time>2025-04-26T09:23:38Z</time>
      </trkpt>
      <trkpt lat="45.32523" lon="-1.14043">
        <ele>66</ele>
        <time>2025-04-26T09:23:39Z</time>
      </trkpt>
      <trkpt lat="45.32523" lon="-1.14049">
        <ele>68</ele>
        <time>2025-04-26T09:23:40Z</time>
      </trkpt>
      <trkpt lat="45.32525" lon="-1.14055">
        <ele>68</ele>
        <time>2025-04-26T09:23:41Z</time>
      </trkpt>
      <trkpt lat="45.32526" lon="-1.1406">
        <ele>67</ele>
        <time>2025-04-26T09:23:42Z</time>
      </trkpt>
      <trkpt lat="45.32527" lon="-1.14066">
        <ele>67</ele>
        <time>2025-04-26T09:23:43Z</time>
      </trkpt>
      <trkpt lat="45.32529" lon="-1.14071">
        <ele>67</ele>
        <time>2025-04-26T09:23:44Z</time>
      </trkpt>
      <trkpt lat="45.3253" lon="-1.14077">
        <ele>67</ele>
        <time>2025-04-26T09:23:45Z</time>
      </trkpt>
      <trkpt lat="45.32531" lon="-1.14083">
        <ele>67</ele>
        <time>2025-04-26T09:23:46Z</time>
      </trkpt>
      <trkpt lat="45.32532" lon="-1.14088">
        <ele>67</ele>
        <time>2025-04-26T09:23:47Z</time>
      </trkpt>
      <trkpt lat="45.32534" lon="-1.14094">
        <ele>67</ele>
        <time>2025-04-26T09:23:48Z</time>
      </trkpt>
      <trkpt lat="45.32535" lon="-1.14099">
        <ele>68</ele>
        <time>2025-04-26T09:23:49Z</time>
      </trkpt>
      <trkpt lat="45.32536" lon="-1.14105">
        <ele>67</ele>
        <time>2025-04-26T09:23:50Z</time>
      </trkpt>
      <trkpt lat="45.32538" lon="-1.14111">
        <ele>67</ele>
        <time>2025-04-26T09:23:51Z</time>
      </trkpt>
      <trkpt lat="45.32539" lon="-1.14116">
        <ele>67</ele>
        <time>2025-04-26T09:23:52Z</time>
      </trkpt>
      <trkpt lat="45.3254" lon="-1.14122">
        <ele>67</ele>
        <time>2025-04-26T09:23:53Z</time>
      </trkpt>
      <trkpt lat="45.32541" lon="-1.14128">
        <ele>67</ele>
        <time>2025-04-26T09:23:54Z</time>
      </trkpt>
      <trkpt lat="45.32542" lon="-1.14133">
        <ele>67</ele>
        <time>2025-04-26T09:23:55Z</time>
      </trkpt>
      <trkpt lat="45.32543" lon="-1.14139">
        <ele>66</ele>
        <time>2025-04-26T09:23:56Z</time>
      </trkpt>
      <trkpt lat="45.32544" lon="-1.14144">
        <ele>66</ele>
        <time>2025-04-26T09:23:57Z</time>
      </trkpt>
      <trkpt lat="45.32546" lon="-1.1415">
        <ele>66</ele>
        <time>2025-04-26T09:23:58Z</time>
      </trkpt>
      <trkpt lat="45.32547" lon="-1.14156">
        <ele>66</ele>
        <time>2025-04-26T09:23:59Z</time>
      </trkpt>
      <trkpt lat="45.32549" lon="-1.14161">
        <ele>66</ele>
        <time>2025-04-26T09:24:00Z</time>
      </trkpt>
      <trkpt lat="45.3255" lon="-1.14167">
        <ele>67</ele>
        <time>2025-04-26T09:24:01Z</time>
      </trkpt>
      <trkpt lat="45.32552" lon="-1.14172">
        <ele>67</ele>
        <time>2025-04-26T09:24:02Z</time>
      </trkpt>
      <trkpt lat="45.32553" lon="-1.14177">
        <ele>67</ele>
        <time>2025-04-26T09:24:03Z</time>
      </trkpt>
      <trkpt lat="45.32554" lon="-1.14182">
        <ele>67</ele>
        <time>2025-04-26T09:24:04Z</time>
      </trkpt>
      <trkpt lat="45.32556" lon="-1.14188">
        <ele>68</ele>
        <time>2025-04-26T09:24:05Z</time>
      </trkpt>
      <trkpt lat="45.32557" lon="-1.14194">
        <ele>68</ele>
        <time>2025-04-26T09:24:06Z</time>
      </trkpt>
      <trkpt lat="45.32558" lon="-1.142">
        <ele>68</ele>
        <time>2025-04-26T09:24:07Z</time>
      </trkpt>
      <trkpt lat="45.3256" lon="-1.14205">
        <ele>68</ele>
        <time>2025-04-26T09:24:08Z</time>
      </trkpt>
      <trkpt lat="45.32561" lon="-1.14212">
        <ele>68</ele>
        <time>2025-04-26T09:24:09Z</time>
      </trkpt>
      <trkpt lat="45.32563" lon="-1.14218">
        <ele>68</ele>
        <time>2025-04-26T09:24:10Z</time>
      </trkpt>
      <trkpt lat="45.32564" lon="-1.14224">
        <ele>68</ele>
        <time>2025-04-26T09:24:11Z</time>
      </trkpt>
      <trkpt lat="45.32565" lon="-1.1423">
        <ele>68</ele>
        <time>2025-04-26T09:24:12Z</time>
      </trkpt>
      <trkpt lat="45.32566" lon="-1.14236">
        <ele>68</ele>
        <time>2025-04-26T09:24:13Z</time>
      </trkpt>
      <trkpt lat="45.32567" lon="-1.14242">
        <ele>68</ele>
        <time>2025-04-26T09:24:14Z</time>
      </trkpt>
      <trkpt lat="45.32568" lon="-1.14248">
        <ele>68</ele>
        <time>2025-04-26T09:24:15Z</time>
      </trkpt>
      <trkpt lat="45.32569" lon="-1.14254">
        <ele>68</ele>
        <time>2025-04-26T09:24:16Z</time>
      </trkpt>
      <trkpt lat="45.32569" lon="-1.1426">
        <ele>67</ele>
        <time>2025-04-26T09:24:17Z</time>
      </trkpt>
      <trkpt lat="45.3257" lon="-1.14266">
        <ele>67</ele>
        <time>2025-04-26T09:24:18Z</time>
      </trkpt>
      <trkpt lat="45.3257" lon="-1.14272">
        <ele>66</ele>
        <time>2025-04-26T09:24:19Z</time>
      </trkpt>
      <trkpt lat="45.32571" lon="-1.14277">
        <ele>66</ele>
        <time>2025-04-26T09:24:20Z</time>
      </trkpt>
      <trkpt lat="45.32571" lon="-1.14283">
        <ele>66</ele>
        <time>2025-04-26T09:24:21Z</time>
      </trkpt>
      <trkpt lat="45.32572" lon="-1.14288">
        <ele>66</ele>
        <time>2025-04-26T09:24:22Z</time>
      </trkpt>
      <trkpt lat="45.32573" lon="-1.14294">
        <ele>67</ele>
        <time>2025-04-26T09:24:23Z</time>
      </trkpt>
      <trkpt lat="45.32573" lon="-1.143">
        <ele>67</ele>
        <time>2025-04-26T09:24:24Z</time>
      </trkpt>
      <trkpt lat="45.32573" lon="-1.14306">
        <ele>66</ele>
        <time>2025-04-26T09:24:25Z</time>
      </trkpt>
      <trkpt lat="45.32573" lon="-1.14312">
        <ele>66</ele>
        <time>2025-04-26T09:24:26Z</time>
      </trkpt>
      <trkpt lat="45.32573" lon="-1.14319">
        <ele>66</ele>
        <time>2025-04-26T09:24:27Z</time>
      </trkpt>
      <trkpt lat="45.32574" lon="-1.14324">
        <ele>66</ele>
        <time>2025-04-26T09:24:28Z</time>
      </trkpt>
      <trkpt lat="45.32574" lon="-1.1433">
        <ele>66</ele>
        <time>2025-04-26T09:24:29Z</time>
      </trkpt>
      <trkpt lat="45.32574" lon="-1.14336">
        <ele>66</ele>
        <time>2025-04-26T09:24:30Z</time>
      </trkpt>
      <trkpt lat="45.32574" lon="-1.14342">
        <ele>67</ele>
        <time>2025-04-26T09:24:31Z</time>
      </trkpt>
      <trkpt lat="45.32574" lon="-1.14349">
        <ele>67</ele>
        <time>2025-04-26T09:24:32Z</time>
      </trkpt>
      <trkpt lat="45.32574" lon="-1.14355">
        <ele>67</ele>
        <time>2025-04-26T09:24:33Z</time>
      </trkpt>
      <trkpt lat="45.32575" lon="-1.14362">
        <ele>67</ele>
        <time>2025-04-26T09:24:34Z</time>
      </trkpt>
      <trkpt lat="45.32575" lon="-1.14368">
        <ele>67</ele>
        <time>2025-04-26T09:24:35Z</time>
      </trkpt>
      <trkpt lat="45.32576" lon="-1.14375">
        <ele>67</ele>
        <time>2025-04-26T09:24:36Z</time>
      </trkpt>
      <trkpt lat="45.32576" lon="-1.14381">
        <ele>67</ele>
        <time>2025-04-26T09:24:37Z</time>
      </trkpt>
      <trkpt lat="45.32576" lon="-1.14388">
        <ele>67</ele>
        <time>2025-04-26T09:24:38Z</time>
      </trkpt>
      <trkpt lat="45.32576" lon="-1.14394">
        <ele>67</ele>
        <time>2025-04-26T09:24:39Z</time>
      </trkpt>
      <trkpt lat="45.32576" lon="-1.14401">
        <ele>67</ele>
        <time>2025-04-26T09:24:40Z</time>
      </trkpt>
      <trkpt lat="45.32576" lon="-1.14407">
        <ele>66</ele>
        <time>2025-04-26T09:24:41Z</time>
      </trkpt>
      <trkpt lat="45.32577" lon="-1.14414">
        <ele>67</ele>
        <time>2025-04-26T09:24:42Z</time>
      </trkpt>
      <trkpt lat="45.32577" lon="-1.1442">
        <ele>66</ele>
        <time>2025-04-26T09:24:43Z</time>
      </trkpt>
      <trkpt lat="45.32577" lon="-1.14427">
        <ele>66</ele>
        <time>2025-04-26T09:24:44Z</time>
      </trkpt>
      <trkpt lat="45.32577" lon="-1.14433">
        <ele>65</ele>
        <time>2025-04-26T09:24:45Z</time>
      </trkpt>
      <trkpt lat="45.32577" lon="-1.14439">
        <ele>65</ele>
        <time>2025-04-26T09:24:46Z</time>
      </trkpt>
      <trkpt lat="45.32577" lon="-1.14446">
        <ele>65</ele>
        <time>2025-04-26T09:24:47Z</time>
      </trkpt>
      <trkpt lat="45.32577" lon="-1.14452">
        <ele>65</ele>
        <time>2025-04-26T09:24:48Z</time>
      </trkpt>
      <trkpt lat="45.32578" lon="-1.14459">
        <ele>66</ele>
        <time>2025-04-26T09:24:49Z</time>
      </trkpt>
      <trkpt lat="45.32578" lon="-1.14465">
        <ele>66</ele>
        <time>2025-04-26T09:24:50Z</time>
      </trkpt>
      <trkpt lat="45.32579" lon="-1.14471">
        <ele>66</ele>
        <time>2025-04-26T09:24:51Z</time>
      </trkpt>
      <trkpt lat="45.32579" lon="-1.14477">
        <ele>65</ele>
        <time>2025-04-26T09:24:52Z</time>
      </trkpt>
      <trkpt lat="45.32579" lon="-1.14484">
        <ele>66</ele>
        <time>2025-04-26T09:24:53Z</time>
      </trkpt>
      <trkpt lat="45.32579" lon="-1.1449">
        <ele>66</ele>
        <time>2025-04-26T09:24:54Z</time>
      </trkpt>
      <trkpt lat="45.32579" lon="-1.14497">
        <ele>66</ele>
        <time>2025-04-26T09:24:55Z</time>
      </trkpt>
      <trkpt lat="45.32579" lon="-1.14503">
        <ele>66</ele>
        <time>2025-04-26T09:24:56Z</time>
      </trkpt>
      <trkpt lat="45.3258" lon="-1.14509">
        <ele>66</ele>
        <time>2025-04-26T09:24:57Z</time>
      </trkpt>
      <trkpt lat="45.3258" lon="-1.14516">
        <ele>66</ele>
        <time>2025-04-26T09:24:58Z</time>
      </trkpt>
      <trkpt lat="45.3258" lon="-1.14523">
        <ele>66</ele>
        <time>2025-04-26T09:24:59Z</time>
      </trkpt>
      <trkpt lat="45.32581" lon="-1.14529">
        <ele>66</ele>
        <time>2025-04-26T09:25:00Z</time>
      </trkpt>
      <trkpt lat="45.32581" lon="-1.14535">
        <ele>66</ele>
        <time>2025-04-26T09:25:01Z</time>
      </trkpt>
      <trkpt lat="45.32581" lon="-1.14542">
        <ele>66</ele>
        <time>2025-04-26T09:25:02Z</time>
      </trkpt>
      <trkpt lat="45.32581" lon="-1.14548">
        <ele>66</ele>
        <time>2025-04-26T09:25:03Z</time>
      </trkpt>
      <trkpt lat="45.32582" lon="-1.14555">
        <ele>66</ele>
        <time>2025-04-26T09:25:04Z</time>
      </trkpt>
      <trkpt lat="45.32582" lon="-1.14561">
        <ele>66</ele>
        <time>2025-04-26T09:25:05Z</time>
      </trkpt>
      <trkpt lat="45.32582" lon="-1.14567">
        <ele>66</ele>
        <time>2025-04-26T09:25:06Z</time>
      </trkpt>
      <trkpt lat="45.32582" lon="-1.14573">
        <ele>66</ele>
        <time>2025-04-26T09:25:07Z</time>
      </trkpt>
      <trkpt lat="45.32582" lon="-1.14579">
        <ele>66</ele>
        <time>2025-04-26T09:25:08Z</time>
      </trkpt>
      <trkpt lat="45.32582" lon="-1.14585">
        <ele>65</ele>
        <time>2025-04-26T09:25:09Z</time>
      </trkpt>
      <trkpt lat="45.32583" lon="-1.14591">
        <ele>65</ele>
        <time>2025-04-26T09:25:10Z</time>
      </trkpt>
      <trkpt lat="45.32583" lon="-1.14597">
        <ele>65</ele>
        <time>2025-04-26T09:25:11Z</time>
      </trkpt>
      <trkpt lat="45.32583" lon="-1.14604">
        <ele>66</ele>
        <time>2025-04-26T09:25:12Z</time>
      </trkpt>
      <trkpt lat="45.32584" lon="-1.14609">
        <ele>66</ele>
        <time>2025-04-26T09:25:13Z</time>
      </trkpt>
      <trkpt lat="45.32584" lon="-1.14616">
        <ele>66</ele>
        <time>2025-04-26T09:25:14Z</time>
      </trkpt>
      <trkpt lat="45.32584" lon="-1.14622">
        <ele>66</ele>
        <time>2025-04-26T09:25:15Z</time>
      </trkpt>
      <trkpt lat="45.32584" lon="-1.14628">
        <ele>66</ele>
        <time>2025-04-26T09:25:16Z</time>
      </trkpt>
      <trkpt lat="45.32584" lon="-1.14633">
        <ele>66</ele>
        <time>2025-04-26T09:25:17Z</time>
      </trkpt>
      <trkpt lat="45.32584" lon="-1.14639">
        <ele>66</ele>
        <time>2025-04-26T09:25:18Z</time>
      </trkpt>
      <trkpt lat="45.32584" lon="-1.14645">
        <ele>66</ele>
        <time>2025-04-26T09:25:19Z</time>
      </trkpt>
      <trkpt lat="45.32585" lon="-1.14651">
        <ele>66</ele>
        <time>2025-04-26T09:25:20Z</time>
      </trkpt>
      <trkpt lat="45.32585" lon="-1.14656">
        <ele>66</ele>
        <time>2025-04-26T09:25:21Z</time>
      </trkpt>
      <trkpt lat="45.32585" lon="-1.14662">
        <ele>66</ele>
        <time>2025-04-26T09:25:22Z</time>
      </trkpt>
      <trkpt lat="45.32585" lon="-1.14668">
        <ele>66</ele>
        <time>2025-04-26T09:25:23Z</time>
      </trkpt>
      <trkpt lat="45.32585" lon="-1.14674">
        <ele>66</ele>
        <time>2025-04-26T09:25:24Z</time>
      </trkpt>
      <trkpt lat="45.32586" lon="-1.1468">
        <ele>66</ele>
        <time>2025-04-26T09:25:25Z</time>
      </trkpt>
      <trkpt lat="45.32586" lon="-1.14685">
        <ele>66</ele>
        <time>2025-04-26T09:25:26Z</time>
      </trkpt>
      <trkpt lat="45.32586" lon="-1.14691">
        <ele>66</ele>
        <time>2025-04-26T09:25:27Z</time>
      </trkpt>
      <trkpt lat="45.32586" lon="-1.14697">
        <ele>66</ele>
        <time>2025-04-26T09:25:28Z</time>
      </trkpt>
      <trkpt lat="45.32586" lon="-1.14704">
        <ele>66</ele>
        <time>2025-04-26T09:25:29Z</time>
      </trkpt>
      <trkpt lat="45.32586" lon="-1.14709">
        <ele>66</ele>
        <time>2025-04-26T09:25:30Z</time>
      </trkpt>
      <trkpt lat="45.32586" lon="-1.14715">
        <ele>66</ele>
        <time>2025-04-26T09:25:31Z</time>
      </trkpt>
      <trkpt lat="45.32586" lon="-1.14721">
        <ele>65</ele>
        <time>2025-04-26T09:25:32Z</time>
      </trkpt>
      <trkpt lat="45.32587" lon="-1.14727">
        <ele>65</ele>
        <time>2025-04-26T09:25:33Z</time>
      </trkpt>
      <trkpt lat="45.32587" lon="-1.14732">
        <ele>65</ele>
        <time>2025-04-26T09:25:34Z</time>
      </trkpt>
      <trkpt lat="45.32587" lon="-1.14738">
        <ele>65</ele>
        <time>2025-04-26T09:25:35Z</time>
      </trkpt>
      <trkpt lat="45.32587" lon="-1.14744">
        <ele>65</ele>
        <time>2025-04-26T09:25:36Z</time>
      </trkpt>
      <trkpt lat="45.32587" lon="-1.1475">
        <ele>65</ele>
        <time>2025-04-26T09:25:37Z</time>
      </trkpt>
      <trkpt lat="45.32587" lon="-1.14757">
        <ele>65</ele>
        <time>2025-04-26T09:25:38Z</time>
      </trkpt>
      <trkpt lat="45.32588" lon="-1.14763">
        <ele>65</ele>
        <time>2025-04-26T09:25:39Z</time>
      </trkpt>
      <trkpt lat="45.32587" lon="-1.14768">
        <ele>65</ele>
        <time>2025-04-26T09:25:40Z</time>
      </trkpt>
      <trkpt lat="45.32588" lon="-1.14774">
        <ele>65</ele>
        <time>2025-04-26T09:25:41Z</time>
      </trkpt>
      <trkpt lat="45.32587" lon="-1.1478">
        <ele>65</ele>
        <time>2025-04-26T09:25:42Z</time>
      </trkpt>
      <trkpt lat="45.32587" lon="-1.14786">
        <ele>65</ele>
        <time>2025-04-26T09:25:43Z</time>
      </trkpt>
      <trkpt lat="45.32587" lon="-1.14792">
        <ele>65</ele>
        <time>2025-04-26T09:25:44Z</time>
      </trkpt>
      <trkpt lat="45.32588" lon="-1.14798">
        <ele>66</ele>
        <time>2025-04-26T09:25:45Z</time>
      </trkpt>
      <trkpt lat="45.32588" lon="-1.14804">
        <ele>66</ele>
        <time>2025-04-26T09:25:46Z</time>
      </trkpt>
      <trkpt lat="45.32588" lon="-1.14809">
        <ele>66</ele>
        <time>2025-04-26T09:25:47Z</time>
      </trkpt>
      <trkpt lat="45.32589" lon="-1.14815">
        <ele>66</ele>
        <time>2025-04-26T09:25:48Z</time>
      </trkpt>
      <trkpt lat="45.32588" lon="-1.1482">
        <ele>66</ele>
        <time>2025-04-26T09:25:49Z</time>
      </trkpt>
      <trkpt lat="45.32588" lon="-1.14825">
        <ele>66</ele>
        <time>2025-04-26T09:25:50Z</time>
      </trkpt>
      <trkpt lat="45.32588" lon="-1.14831">
        <ele>66</ele>
        <time>2025-04-26T09:25:51Z</time>
      </trkpt>
      <trkpt lat="45.32588" lon="-1.14836">
        <ele>66</ele>
        <time>2025-04-26T09:25:52Z</time>
      </trkpt>
      <trkpt lat="45.32588" lon="-1.14842">
        <ele>66</ele>
        <time>2025-04-26T09:25:53Z</time>
      </trkpt>
      <trkpt lat="45.32589" lon="-1.14846">
        <ele>65</ele>
        <time>2025-04-26T09:25:54Z</time>
      </trkpt>
      <trkpt lat="45.32591" lon="-1.14849">
        <ele>65</ele>
        <time>2025-04-26T09:25:55Z</time>
      </trkpt>
      <trkpt lat="45.32595" lon="-1.1485">
        <ele>65</ele>
        <time>2025-04-26T09:25:56Z</time>
      </trkpt>
      <trkpt lat="45.32599" lon="-1.1485">
        <ele>66</ele>
        <time>2025-04-26T09:25:57Z</time>
      </trkpt>
      <trkpt lat="45.32602" lon="-1.14848">
        <ele>66</ele>
        <time>2025-04-26T09:25:58Z</time>
      </trkpt>
      <trkpt lat="45.32606" lon="-1.14844">
        <ele>66</ele>
        <time>2025-04-26T09:25:59Z</time>
      </trkpt>
      <trkpt lat="45.32609" lon="-1.14841">
        <ele>67</ele>
        <time>2025-04-26T09:26:00Z</time>
      </trkpt>
      <trkpt lat="45.32611" lon="-1.14837">
        <ele>67</ele>
        <time>2025-04-26T09:26:01Z</time>
      </trkpt>
      <trkpt lat="45.32614" lon="-1.14833">
        <ele>67</ele>
        <time>2025-04-26T09:26:02Z</time>
      </trkpt>
      <trkpt lat="45.32617" lon="-1.14829">
        <ele>67</ele>
        <time>2025-04-26T09:26:03Z</time>
      </trkpt>
      <trkpt lat="45.32619" lon="-1.14826">
        <ele>66</ele>
        <time>2025-04-26T09:26:04Z</time>
      </trkpt>
      <trkpt lat="45.32622" lon="-1.14822">
        <ele>66</ele>
        <time>2025-04-26T09:26:05Z</time>
      </trkpt>
      <trkpt lat="45.32626" lon="-1.1482">
        <ele>66</ele>
        <time>2025-04-26T09:26:06Z</time>
      </trkpt>
      <trkpt lat="45.32629" lon="-1.14819">
        <ele>66</ele>
        <time>2025-04-26T09:26:07Z</time>
      </trkpt>
      <trkpt lat="45.32633" lon="-1.14818">
        <ele>65</ele>
        <time>2025-04-26T09:26:08Z</time>
      </trkpt>
      <trkpt lat="45.32637" lon="-1.14817">
        <ele>66</ele>
        <time>2025-04-26T09:26:09Z</time>
      </trkpt>
      <trkpt lat="45.32641" lon="-1.14817">
        <ele>66</ele>
        <time>2025-04-26T09:26:10Z</time>
      </trkpt>
      <trkpt lat="45.32645" lon="-1.14817">
        <ele>66</ele>
        <time>2025-04-26T09:26:11Z</time>
      </trkpt>
      <trkpt lat="45.32649" lon="-1.14816">
        <ele>66</ele>
        <time>2025-04-26T09:26:12Z</time>
      </trkpt>
      <trkpt lat="45.32653" lon="-1.14815">
        <ele>66</ele>
        <time>2025-04-26T09:26:13Z</time>
      </trkpt>
      <trkpt lat="45.32658" lon="-1.14815">
        <ele>66</ele>
        <time>2025-04-26T09:26:14Z</time>
      </trkpt>
      <trkpt lat="45.32662" lon="-1.14814">
        <ele>66</ele>
        <time>2025-04-26T09:26:15Z</time>
      </trkpt>
      <trkpt lat="45.32666" lon="-1.14814">
        <ele>66</ele>
        <time>2025-04-26T09:26:16Z</time>
      </trkpt>
      <trkpt lat="45.32671" lon="-1.14814">
        <ele>66</ele>
        <time>2025-04-26T09:26:17Z</time>
      </trkpt>
      <trkpt lat="45.32675" lon="-1.14813">
        <ele>67</ele>
        <time>2025-04-26T09:26:18Z</time>
      </trkpt>
      <trkpt lat="45.3268" lon="-1.14812">
        <ele>67</ele>
        <time>2025-04-26T09:26:19Z</time>
      </trkpt>
      <trkpt lat="45.32684" lon="-1.14811">
        <ele>67</ele>
        <time>2025-04-26T09:26:20Z</time>
      </trkpt>
      <trkpt lat="45.32688" lon="-1.14811">
        <ele>67</ele>
        <time>2025-04-26T09:26:21Z</time>
      </trkpt>
      <trkpt lat="45.32692" lon="-1.1481">
        <ele>67</ele>
        <time>2025-04-26T09:26:22Z</time>
      </trkpt>
      <trkpt lat="45.32696" lon="-1.1481">
        <ele>67</ele>
        <time>2025-04-26T09:26:23Z</time>
      </trkpt>
      <trkpt lat="45.32701" lon="-1.14809">
        <ele>67</ele>
        <time>2025-04-26T09:26:24Z</time>
      </trkpt>
      <trkpt lat="45.32705" lon="-1.14809">
        <ele>67</ele>
        <time>2025-04-26T09:26:25Z</time>
      </trkpt>
      <trkpt lat="45.32709" lon="-1.14809">
        <ele>67</ele>
        <time>2025-04-26T09:26:26Z</time>
      </trkpt>
      <trkpt lat="45.32713" lon="-1.14809">
        <ele>67</ele>
        <time>2025-04-26T09:26:27Z</time>
      </trkpt>
      <trkpt lat="45.32717" lon="-1.14808">
        <ele>67</ele>
        <time>2025-04-26T09:26:28Z</time>
      </trkpt>
      <trkpt lat="45.32721" lon="-1.14808">
        <ele>66</ele>
        <time>2025-04-26T09:26:29Z</time>
      </trkpt>
      <trkpt lat="45.32725" lon="-1.14807">
        <ele>66</ele>
        <time>2025-04-26T09:26:30Z</time>
      </trkpt>
      <trkpt lat="45.3273" lon="-1.14807">
        <ele>66</ele>
        <time>2025-04-26T09:26:31Z</time>
      </trkpt>
      <trkpt lat="45.32734" lon="-1.14806">
        <ele>66</ele>
        <time>2025-04-26T09:26:32Z</time>
      </trkpt>
      <trkpt lat="45.32739" lon="-1.14806">
        <ele>66</ele>
        <time>2025-04-26T09:26:33Z</time>
      </trkpt>
      <trkpt lat="45.32743" lon="-1.14805">
        <ele>66</ele>
        <time>2025-04-26T09:26:34Z</time>
      </trkpt>
      <trkpt lat="45.32747" lon="-1.14805">
        <ele>66</ele>
        <time>2025-04-26T09:26:35Z</time>
      </trkpt>
      <trkpt lat="45.32751" lon="-1.14804">
        <ele>66</ele>
        <time>2025-04-26T09:26:36Z</time>
      </trkpt>
      <trkpt lat="45.32755" lon="-1.14804">
        <ele>66</ele>
        <time>2025-04-26T09:26:37Z</time>
      </trkpt>
      <trkpt lat="45.32759" lon="-1.14804">
        <ele>66</ele>
        <time>2025-04-26T09:26:38Z</time>
      </trkpt>
      <trkpt lat="45.32763" lon="-1.14804">
        <ele>66</ele>
        <time>2025-04-26T09:26:39Z</time>
      </trkpt>
      <trkpt lat="45.32767" lon="-1.14803">
        <ele>66</ele>
        <time>2025-04-26T09:26:40Z</time>
      </trkpt>
      <trkpt lat="45.32771" lon="-1.14803">
        <ele>66</ele>
        <time>2025-04-26T09:26:41Z</time>
      </trkpt>
      <trkpt lat="45.32775" lon="-1.14803">
        <ele>66</ele>
        <time>2025-04-26T09:26:42Z</time>
      </trkpt>
      <trkpt lat="45.32779" lon="-1.14802">
        <ele>66</ele>
        <time>2025-04-26T09:26:43Z</time>
      </trkpt>
      <trkpt lat="45.32783" lon="-1.14801">
        <ele>66</ele>
        <time>2025-04-26T09:26:44Z</time>
      </trkpt>
      <trkpt lat="45.32787" lon="-1.14801">
        <ele>66</ele>
        <time>2025-04-26T09:26:45Z</time>
      </trkpt>
      <trkpt lat="45.32791" lon="-1.14801">
        <ele>66</ele>
        <time>2025-04-26T09:26:46Z</time>
      </trkpt>
      <trkpt lat="45.32795" lon="-1.148">
        <ele>66</ele>
        <time>2025-04-26T09:26:47Z</time>
      </trkpt>
      <trkpt lat="45.32799" lon="-1.148">
        <ele>66</ele>
        <time>2025-04-26T09:26:48Z</time>
      </trkpt>
      <trkpt lat="45.32803" lon="-1.14799">
        <ele>66</ele>
        <time>2025-04-26T09:26:49Z</time>
      </trkpt>
      <trkpt lat="45.32807" lon="-1.14799">
        <ele>66</ele>
        <time>2025-04-26T09:26:50Z</time>
      </trkpt>
      <trkpt lat="45.32811" lon="-1.14798">
        <ele>66</ele>
        <time>2025-04-26T09:26:51Z</time>
      </trkpt>
      <trkpt lat="45.32815" lon="-1.14797">
        <ele>66</ele>
        <time>2025-04-26T09:26:52Z</time>
      </trkpt>
      <trkpt lat="45.32819" lon="-1.14797">
        <ele>66</ele>
        <time>2025-04-26T09:26:53Z</time>
      </trkpt>
      <trkpt lat="45.32823" lon="-1.14796">
        <ele>67</ele>
        <time>2025-04-26T09:26:54Z</time>
      </trkpt>
      <trkpt lat="45.32827" lon="-1.14796">
        <ele>67</ele>
        <time>2025-04-26T09:26:55Z</time>
      </trkpt>
      <trkpt lat="45.32832" lon="-1.14795">
        <ele>67</ele>
        <time>2025-04-26T09:26:56Z</time>
      </trkpt>
      <trkpt lat="45.32836" lon="-1.14795">
        <ele>66</ele>
        <time>2025-04-26T09:26:57Z</time>
      </trkpt>
      <trkpt lat="45.32841" lon="-1.14795">
        <ele>66</ele>
        <time>2025-04-26T09:26:58Z</time>
      </trkpt>
      <trkpt lat="45.32845" lon="-1.14795">
        <ele>66</ele>
        <time>2025-04-26T09:26:59Z</time>
      </trkpt>
      <trkpt lat="45.3285" lon="-1.14795">
        <ele>66</ele>
        <time>2025-04-26T09:27:00Z</time>
      </trkpt>
      <trkpt lat="45.32854" lon="-1.14797">
        <ele>66</ele>
        <time>2025-04-26T09:27:01Z</time>
      </trkpt>
      <trkpt lat="45.32858" lon="-1.148">
        <ele>66</ele>
        <time>2025-04-26T09:27:02Z</time>
      </trkpt>
      <trkpt lat="45.32861" lon="-1.14805">
        <ele>66</ele>
        <time>2025-04-26T09:27:03Z</time>
      </trkpt>
      <trkpt lat="45.32864" lon="-1.14809">
        <ele>66</ele>
        <time>2025-04-26T09:27:04Z</time>
      </trkpt>
      <trkpt lat="45.32868" lon="-1.14813">
        <ele>67</ele>
        <time>2025-04-26T09:27:05Z</time>
      </trkpt>
      <trkpt lat="45.32871" lon="-1.14816">
        <ele>67</ele>
        <time>2025-04-26T09:27:06Z</time>
      </trkpt>
      <trkpt lat="45.32875" lon="-1.14818">
        <ele>67</ele>
        <time>2025-04-26T09:27:07Z</time>
      </trkpt>
      <trkpt lat="45.32879" lon="-1.14818">
        <ele>67</ele>
        <time>2025-04-26T09:27:08Z</time>
      </trkpt>
      <trkpt lat="45.32883" lon="-1.14818">
        <ele>68</ele>
        <time>2025-04-26T09:27:09Z</time>
      </trkpt>
      <trkpt lat="45.32887" lon="-1.14817">
        <ele>68</ele>
        <time>2025-04-26T09:27:10Z</time>
      </trkpt>
      <trkpt lat="45.32891" lon="-1.14814">
        <ele>68</ele>
        <time>2025-04-26T09:27:11Z</time>
      </trkpt>
      <trkpt lat="45.32895" lon="-1.14811">
        <ele>67</ele>
        <time>2025-04-26T09:27:12Z</time>
      </trkpt>
      <trkpt lat="45.32898" lon="-1.14807">
        <ele>67</ele>
        <time>2025-04-26T09:27:13Z</time>
      </trkpt>
      <trkpt lat="45.32901" lon="-1.14802">
        <ele>66</ele>
        <time>2025-04-26T09:27:14Z</time>
      </trkpt>
      <trkpt lat="45.32904" lon="-1.14797">
        <ele>66</ele>
        <time>2025-04-26T09:27:15Z</time>
      </trkpt>
      <trkpt lat="45.32907" lon="-1.14793">
        <ele>66</ele>
        <time>2025-04-26T09:27:16Z</time>
      </trkpt>
      <trkpt lat="45.3291" lon="-1.14789">
        <ele>66</ele>
        <time>2025-04-26T09:27:17Z</time>
      </trkpt>
      <trkpt lat="45.32914" lon="-1.14786">
        <ele>66</ele>
        <time>2025-04-26T09:27:18Z</time>
      </trkpt>
      <trkpt lat="45.32918" lon="-1.14785">
        <ele>66</ele>
        <time>2025-04-26T09:27:19Z</time>
      </trkpt>
      <trkpt lat="45.32922" lon="-1.14786">
        <ele>66</ele>
        <time>2025-04-26T09:27:20Z</time>
      </trkpt>
      <trkpt lat="45.32926" lon="-1.14786">
        <ele>66</ele>
        <time>2025-04-26T09:27:21Z</time>
      </trkpt>
      <trkpt lat="45.3293" lon="-1.14786">
        <ele>66</ele>
        <time>2025-04-26T09:27:22Z</time>
      </trkpt>
      <trkpt lat="45.32935" lon="-1.14785">
        <ele>66</ele>
        <time>2025-04-26T09:27:23Z</time>
      </trkpt>
      <trkpt lat="45.32939" lon="-1.14785">
        <ele>66</ele>
        <time>2025-04-26T09:27:24Z</time>
      </trkpt>
      <trkpt lat="45.32944" lon="-1.14785">
        <ele>66</ele>
        <time>2025-04-26T09:27:25Z</time>
      </trkpt>
      <trkpt lat="45.32948" lon="-1.14785">
        <ele>66</ele>
        <time>2025-04-26T09:27:26Z</time>
      </trkpt>
      <trkpt lat="45.32952" lon="-1.14784">
        <ele>66</ele>
        <time>2025-04-26T09:27:27Z</time>
      </trkpt>
      <trkpt lat="45.32957" lon="-1.14784">
        <ele>66</ele>
        <time>2025-04-26T09:27:28Z</time>
      </trkpt>
      <trkpt lat="45.3296" lon="-1.14783">
        <ele>66</ele>
        <time>2025-04-26T09:27:29Z</time>
      </trkpt>
      <trkpt lat="45.32965" lon="-1.14783">
        <ele>66</ele>
        <time>2025-04-26T09:27:30Z</time>
      </trkpt>
      <trkpt lat="45.32969" lon="-1.14782">
        <ele>65</ele>
        <time>2025-04-26T09:27:31Z</time>
      </trkpt>
      <trkpt lat="45.32973" lon="-1.14781">
        <ele>65</ele>
        <time>2025-04-26T09:27:32Z</time>
      </trkpt>
      <trkpt lat="45.32977" lon="-1.14781">
        <ele>65</ele>
        <time>2025-04-26T09:27:33Z</time>
      </trkpt>
      <trkpt lat="45.32982" lon="-1.1478">
        <ele>66</ele>
        <time>2025-04-26T09:27:34Z</time>
      </trkpt>
      <trkpt lat="45.32987" lon="-1.1478">
        <ele>66</ele>
        <time>2025-04-26T09:27:35Z</time>
      </trkpt>
      <trkpt lat="45.32991" lon="-1.14779">
        <ele>66</ele>
        <time>2025-04-26T09:27:36Z</time>
      </trkpt>
      <trkpt lat="45.32995" lon="-1.14779">
        <ele>66</ele>
        <time>2025-04-26T09:27:37Z</time>
      </trkpt>
      <trkpt lat="45.33" lon="-1.14778">
        <ele>66</ele>
        <time>2025-04-26T09:27:38Z</time>
      </trkpt>
      <trkpt lat="45.33004" lon="-1.14777">
        <ele>66</ele>
        <time>2025-04-26T09:27:39Z</time>
      </trkpt>
      <trkpt lat="45.33008" lon="-1.14777">
        <ele>66</ele>
        <time>2025-04-26T09:27:40Z</time>
      </trkpt>
      <trkpt lat="45.33012" lon="-1.14776">
        <ele>66</ele>
        <time>2025-04-26T09:27:41Z</time>
      </trkpt>
      <trkpt lat="45.33016" lon="-1.14776">
        <ele>66</ele>
        <time>2025-04-26T09:27:42Z</time>
      </trkpt>
      <trkpt lat="45.33021" lon="-1.14776">
        <ele>66</ele>
        <time>2025-04-26T09:27:43Z</time>
      </trkpt>
      <trkpt lat="45.33026" lon="-1.14776">
        <ele>66</ele>
        <time>2025-04-26T09:27:44Z</time>
      </trkpt>
      <trkpt lat="45.3303" lon="-1.14775">
        <ele>66</ele>
        <time>2025-04-26T09:27:45Z</time>
      </trkpt>
      <trkpt lat="45.33034" lon="-1.14775">
        <ele>66</ele>
        <time>2025-04-26T09:27:46Z</time>
      </trkpt>
      <trkpt lat="45.33039" lon="-1.14774">
        <ele>65</ele>
        <time>2025-04-26T09:27:47Z</time>
      </trkpt>
      <trkpt lat="45.33043" lon="-1.14774">
        <ele>65</ele>
        <time>2025-04-26T09:27:48Z</time>
      </trkpt>
      <trkpt lat="45.33048" lon="-1.14774">
        <ele>65</ele>
        <time>2025-04-26T09:27:49Z</time>
      </trkpt>
      <trkpt lat="45.33052" lon="-1.14774">
        <ele>65</ele>
        <time>2025-04-26T09:27:50Z</time>
      </trkpt>
      <trkpt lat="45.33056" lon="-1.14773">
        <ele>65</ele>
        <time>2025-04-26T09:27:51Z</time>
      </trkpt>
      <trkpt lat="45.3306" lon="-1.14773">
        <ele>66</ele>
        <time>2025-04-26T09:27:52Z</time>
      </trkpt>
      <trkpt lat="45.33064" lon="-1.14772">
        <ele>66</ele>
        <time>2025-04-26T09:27:53Z</time>
      </trkpt>
      <trkpt lat="45.33068" lon="-1.14771">
        <ele>65</ele>
        <time>2025-04-26T09:27:54Z</time>
      </trkpt>
      <trkpt lat="45.33073" lon="-1.1477">
        <ele>66</ele>
        <time>2025-04-26T09:27:55Z</time>
      </trkpt>
      <trkpt lat="45.33077" lon="-1.1477">
        <ele>66</ele>
        <time>2025-04-26T09:27:56Z</time>
      </trkpt>
      <trkpt lat="45.33082" lon="-1.1477">
        <ele>66</ele>
        <time>2025-04-26T09:27:57Z</time>
      </trkpt>
      <trkpt lat="45.33086" lon="-1.14769">
        <ele>66</ele>
        <time>2025-04-26T09:27:58Z</time>
      </trkpt>
      <trkpt lat="45.3309" lon="-1.14769">
        <ele>66</ele>
        <time>2025-04-26T09:27:59Z</time>
      </trkpt>
      <trkpt lat="45.33094" lon="-1.14768">
        <ele>66</ele>
        <time>2025-04-26T09:28:00Z</time>
      </trkpt>
      <trkpt lat="45.33099" lon="-1.14767">
        <ele>66</ele>
        <time>2025-04-26T09:28:01Z</time>
      </trkpt>
      <trkpt lat="45.33103" lon="-1.14767">
        <ele>66</ele>
        <time>2025-04-26T09:28:02Z</time>
      </trkpt>
      <trkpt lat="45.33107" lon="-1.14766">
        <ele>66</ele>
        <time>2025-04-26T09:28:03Z</time>
      </trkpt>
      <trkpt lat="45.33112" lon="-1.14766">
        <ele>66</ele>
        <time>2025-04-26T09:28:04Z</time>
      </trkpt>
      <trkpt lat="45.33117" lon="-1.14765">
        <ele>66</ele>
        <time>2025-04-26T09:28:05Z</time>
      </trkpt>
      <trkpt lat="45.33121" lon="-1.14765">
        <ele>66</ele>
        <time>2025-04-26T09:28:06Z</time>
      </trkpt>
      <trkpt lat="45.33125" lon="-1.14765">
        <ele>67</ele>
        <time>2025-04-26T09:28:07Z</time>
      </trkpt>
      <trkpt lat="45.33129" lon="-1.14766">
        <ele>66</ele>
        <time>2025-04-26T09:28:08Z</time>
      </trkpt>
      <trkpt lat="45.33133" lon="-1.14769">
        <ele>66</ele>
        <time>2025-04-26T09:28:09Z</time>
      </trkpt>
      <trkpt lat="45.33136" lon="-1.14772">
        <ele>66</ele>
        <time>2025-04-26T09:28:10Z</time>
      </trkpt>
      <trkpt lat="45.33139" lon="-1.14776">
        <ele>65</ele>
        <time>2025-04-26T09:28:11Z</time>
      </trkpt>
      <trkpt lat="45.33143" lon="-1.14781">
        <ele>65</ele>
        <time>2025-04-26T09:28:12Z</time>
      </trkpt>
      <trkpt lat="45.33146" lon="-1.14785">
        <ele>64</ele>
        <time>2025-04-26T09:28:13Z</time>
      </trkpt>
      <trkpt lat="45.3315" lon="-1.14787">
        <ele>64</ele>
        <time>2025-04-26T09:28:14Z</time>
      </trkpt>
      <trkpt lat="45.33154" lon="-1.14788">
        <ele>64</ele>
        <time>2025-04-26T09:28:15Z</time>
      </trkpt>
      <trkpt lat="45.33159" lon="-1.14788">
        <ele>64</ele>
        <time>2025-04-26T09:28:16Z</time>
      </trkpt>
      <trkpt lat="45.33163" lon="-1.14787">
        <ele>65</ele>
        <time>2025-04-26T09:28:17Z</time>
      </trkpt>
      <trkpt lat="45.33167" lon="-1.14784">
        <ele>65</ele>
        <time>2025-04-26T09:28:18Z</time>
      </trkpt>
      <trkpt lat="45.33171" lon="-1.1478">
        <ele>65</ele>
        <time>2025-04-26T09:28:19Z</time>
      </trkpt>
      <trkpt lat="45.33174" lon="-1.14776">
        <ele>65</ele>
        <time>2025-04-26T09:28:20Z</time>
      </trkpt>
      <trkpt lat="45.33177" lon="-1.14771">
        <ele>65</ele>
        <time>2025-04-26T09:28:21Z</time>
      </trkpt>
      <trkpt lat="45.3318" lon="-1.14766">
        <ele>65</ele>
        <time>2025-04-26T09:28:22Z</time>
      </trkpt>
      <trkpt lat="45.33183" lon="-1.14761">
        <ele>66</ele>
        <time>2025-04-26T09:28:23Z</time>
      </trkpt>
      <trkpt lat="45.33186" lon="-1.14758">
        <ele>66</ele>
        <time>2025-04-26T09:28:24Z</time>
      </trkpt>
      <trkpt lat="45.33191" lon="-1.14756">
        <ele>67</ele>
        <time>2025-04-26T09:28:25Z</time>
      </trkpt>
      <trkpt lat="45.33195" lon="-1.14755">
        <ele>68</ele>
        <time>2025-04-26T09:28:26Z</time>
      </trkpt>
      <trkpt lat="45.332" lon="-1.14755">
        <ele>68</ele>
        <time>2025-04-26T09:28:27Z</time>
      </trkpt>
      <trkpt lat="45.33204" lon="-1.14755">
        <ele>68</ele>
        <time>2025-04-26T09:28:28Z</time>
      </trkpt>
      <trkpt lat="45.33208" lon="-1.14754">
        <ele>68</ele>
        <time>2025-04-26T09:28:29Z</time>
      </trkpt>
      <trkpt lat="45.33212" lon="-1.14754">
        <ele>68</ele>
        <time>2025-04-26T09:28:30Z</time>
      </trkpt>
      <trkpt lat="45.33216" lon="-1.14753">
        <ele>68</ele>
        <time>2025-04-26T09:28:31Z</time>
      </trkpt>
      <trkpt lat="45.3322" lon="-1.14753">
        <ele>67</ele>
        <time>2025-04-26T09:28:32Z</time>
      </trkpt>
      <trkpt lat="45.33224" lon="-1.14753">
        <ele>66</ele>
        <time>2025-04-26T09:28:33Z</time>
      </trkpt>
      <trkpt lat="45.33228" lon="-1.14752">
        <ele>66</ele>
        <time>2025-04-26T09:28:34Z</time>
      </trkpt>
      <trkpt lat="45.33232" lon="-1.14752">
        <ele>66</ele>
        <time>2025-04-26T09:28:35Z</time>
      </trkpt>
      <trkpt lat="45.33236" lon="-1.14751">
        <ele>66</ele>
        <time>2025-04-26T09:28:36Z</time>
      </trkpt>
      <trkpt lat="45.33241" lon="-1.1475">
        <ele>66</ele>
        <time>2025-04-26T09:28:37Z</time>
      </trkpt>
      <trkpt lat="45.33245" lon="-1.14749">
        <ele>65</ele>
        <time>2025-04-26T09:28:38Z</time>
      </trkpt>
      <trkpt lat="45.33249" lon="-1.14749">
        <ele>66</ele>
        <time>2025-04-26T09:28:39Z</time>
      </trkpt>
      <trkpt lat="45.33254" lon="-1.14749">
        <ele>66</ele>
        <time>2025-04-26T09:28:40Z</time>
      </trkpt>
      <trkpt lat="45.33258" lon="-1.14748">
        <ele>66</ele>
        <time>2025-04-26T09:28:41Z</time>
      </trkpt>
      <trkpt lat="45.33262" lon="-1.14748">
        <ele>66</ele>
        <time>2025-04-26T09:28:42Z</time>
      </trkpt>
      <trkpt lat="45.33266" lon="-1.14748">
        <ele>67</ele>
        <time>2025-04-26T09:28:43Z</time>
      </trkpt>
      <trkpt lat="45.3327" lon="-1.14747">
        <ele>67</ele>
        <time>2025-04-26T09:28:44Z</time>
      </trkpt>
      <trkpt lat="45.33275" lon="-1.14747">
        <ele>67</ele>
        <time>2025-04-26T09:28:45Z</time>
      </trkpt>
      <trkpt lat="45.33279" lon="-1.14746">
        <ele>67</ele>
        <time>2025-04-26T09:28:46Z</time>
      </trkpt>
      <trkpt lat="45.33283" lon="-1.14746">
        <ele>66</ele>
        <time>2025-04-26T09:28:47Z</time>
      </trkpt>
      <trkpt lat="45.33288" lon="-1.14746">
        <ele>66</ele>
        <time>2025-04-26T09:28:48Z</time>
      </trkpt>
      <trkpt lat="45.33293" lon="-1.14746">
        <ele>67</ele>
        <time>2025-04-26T09:28:49Z</time>
      </trkpt>
      <trkpt lat="45.33296" lon="-1.14746">
        <ele>66</ele>
        <time>2025-04-26T09:28:50Z</time>
      </trkpt>
      <trkpt lat="45.333" lon="-1.14745">
        <ele>66</ele>
        <time>2025-04-26T09:28:51Z</time>
      </trkpt>
      <trkpt lat="45.33305" lon="-1.14744">
        <ele>67</ele>
        <time>2025-04-26T09:28:52Z</time>
      </trkpt>
      <trkpt lat="45.33309" lon="-1.14743">
        <ele>67</ele>
        <time>2025-04-26T09:28:53Z</time>
      </trkpt>
      <trkpt lat="45.33313" lon="-1.14743">
        <ele>67</ele>
        <time>2025-04-26T09:28:54Z</time>
      </trkpt>
      <trkpt lat="45.33318" lon="-1.14742">
        <ele>68</ele>
        <time>2025-04-26T09:28:55Z</time>
      </trkpt>
      <trkpt lat="45.33322" lon="-1.14742">
        <ele>67</ele>
        <time>2025-04-26T09:28:56Z</time>
      </trkpt>
      <trkpt lat="45.33326" lon="-1.14742">
        <ele>67</ele>
        <time>2025-04-26T09:28:57Z</time>
      </trkpt>
      <trkpt lat="45.3333" lon="-1.14742">
        <ele>66</ele>
        <time>2025-04-26T09:28:58Z</time>
      </trkpt>
      <trkpt lat="45.33335" lon="-1.14742">
        <ele>66</ele>
        <time>2025-04-26T09:28:59Z</time>
      </trkpt>
      <trkpt lat="45.33339" lon="-1.14741">
        <ele>66</ele>
        <time>2025-04-26T09:29:00Z</time>
      </trkpt>
      <trkpt lat="45.33344" lon="-1.14741">
        <ele>66</ele>
        <time>2025-04-26T09:29:01Z</time>
      </trkpt>
      <trkpt lat="45.33348" lon="-1.1474">
        <ele>67</ele>
        <time>2025-04-26T09:29:02Z</time>
      </trkpt>
      <trkpt lat="45.33353" lon="-1.14739">
        <ele>67</ele>
        <time>2025-04-26T09:29:03Z</time>
      </trkpt>
      <trkpt lat="45.33357" lon="-1.14739">
        <ele>67</ele>
        <time>2025-04-26T09:29:04Z</time>
      </trkpt>
      <trkpt lat="45.33362" lon="-1.14739">
        <ele>67</ele>
        <time>2025-04-26T09:29:05Z</time>
      </trkpt>
      <trkpt lat="45.33366" lon="-1.14739">
        <ele>67</ele>
        <time>2025-04-26T09:29:06Z</time>
      </trkpt>
      <trkpt lat="45.33371" lon="-1.14738">
        <ele>67</ele>
        <time>2025-04-26T09:29:07Z</time>
      </trkpt>
      <trkpt lat="45.33376" lon="-1.14738">
        <ele>67</ele>
        <time>2025-04-26T09:29:08Z</time>
      </trkpt>
      <trkpt lat="45.3338" lon="-1.14738">
        <ele>66</ele>
        <time>2025-04-26T09:29:09Z</time>
      </trkpt>
      <trkpt lat="45.33385" lon="-1.14738">
        <ele>67</ele>
        <time>2025-04-26T09:29:10Z</time>
      </trkpt>
      <trkpt lat="45.33389" lon="-1.14737">
        <ele>66</ele>
        <time>2025-04-26T09:29:11Z</time>
      </trkpt>
      <trkpt lat="45.33394" lon="-1.14737">
        <ele>66</ele>
        <time>2025-04-26T09:29:12Z</time>
      </trkpt>
      <trkpt lat="45.33397" lon="-1.14736">
        <ele>65</ele>
        <time>2025-04-26T09:29:13Z</time>
      </trkpt>
      <trkpt lat="45.33402" lon="-1.14736">
        <ele>65</ele>
        <time>2025-04-26T09:29:14Z</time>
      </trkpt>
      <trkpt lat="45.33406" lon="-1.14736">
        <ele>65</ele>
        <time>2025-04-26T09:29:15Z</time>
      </trkpt>
      <trkpt lat="45.3341" lon="-1.14736">
        <ele>65</ele>
        <time>2025-04-26T09:29:16Z</time>
      </trkpt>
      <trkpt lat="45.33414" lon="-1.14736">
        <ele>65</ele>
        <time>2025-04-26T09:29:17Z</time>
      </trkpt>
      <trkpt lat="45.33418" lon="-1.14737">
        <ele>65</ele>
        <time>2025-04-26T09:29:18Z</time>
      </trkpt>
      <trkpt lat="45.33422" lon="-1.14739">
        <ele>65</ele>
        <time>2025-04-26T09:29:19Z</time>
      </trkpt>
      <trkpt lat="45.33426" lon="-1.14743">
        <ele>64</ele>
        <time>2025-04-26T09:29:20Z</time>
      </trkpt>
      <trkpt lat="45.33429" lon="-1.14747">
        <ele>64</ele>
        <time>2025-04-26T09:29:21Z</time>
      </trkpt>
      <trkpt lat="45.33432" lon="-1.14751">
        <ele>64</ele>
        <time>2025-04-26T09:29:22Z</time>
      </trkpt>
      <trkpt lat="45.33435" lon="-1.14755">
        <ele>64</ele>
        <time>2025-04-26T09:29:23Z</time>
      </trkpt>
      <trkpt lat="45.33438" lon="-1.14759">
        <ele>64</ele>
        <time>2025-04-26T09:29:24Z</time>
      </trkpt>
      <trkpt lat="45.33442" lon="-1.14761">
        <ele>64</ele>
        <time>2025-04-26T09:29:25Z</time>
      </trkpt>
      <trkpt lat="45.33447" lon="-1.14761">
        <ele>64</ele>
        <time>2025-04-26T09:29:26Z</time>
      </trkpt>
      <trkpt lat="45.33451" lon="-1.1476">
        <ele>64</ele>
        <time>2025-04-26T09:29:27Z</time>
      </trkpt>
      <trkpt lat="45.33455" lon="-1.14757">
        <ele>64</ele>
        <time>2025-04-26T09:29:28Z</time>
      </trkpt>
      <trkpt lat="45.33458" lon="-1.14755">
        <ele>65</ele>
        <time>2025-04-26T09:29:29Z</time>
      </trkpt>
      <trkpt lat="45.33462" lon="-1.14751">
        <ele>65</ele>
        <time>2025-04-26T09:29:30Z</time>
      </trkpt>
      <trkpt lat="45.33465" lon="-1.14746">
        <ele>66</ele>
        <time>2025-04-26T09:29:31Z</time>
      </trkpt>
      <trkpt lat="45.33469" lon="-1.14742">
        <ele>66</ele>
        <time>2025-04-26T09:29:32Z</time>
      </trkpt>
      <trkpt lat="45.33472" lon="-1.14738">
        <ele>66</ele>
        <time>2025-04-26T09:29:33Z</time>
      </trkpt>
      <trkpt lat="45.33475" lon="-1.14734">
        <ele>66</ele>
        <time>2025-04-26T09:29:34Z</time>
      </trkpt>
      <trkpt lat="45.33478" lon="-1.14731">
        <ele>66</ele>
        <time>2025-04-26T09:29:35Z</time>
      </trkpt>
      <trkpt lat="45.33482" lon="-1.1473">
        <ele>66</ele>
        <time>2025-04-26T09:29:36Z</time>
      </trkpt>
      <trkpt lat="45.33486" lon="-1.14729">
        <ele>65</ele>
        <time>2025-04-26T09:29:37Z</time>
      </trkpt>
      <trkpt lat="45.3349" lon="-1.14729">
        <ele>65</ele>
        <time>2025-04-26T09:29:38Z</time>
      </trkpt>
      <trkpt lat="45.33494" lon="-1.14729">
        <ele>64</ele>
        <time>2025-04-26T09:29:39Z</time>
      </trkpt>
      <trkpt lat="45.33498" lon="-1.14729">
        <ele>64</ele>
        <time>2025-04-26T09:29:40Z</time>
      </trkpt>
      <trkpt lat="45.33502" lon="-1.14729">
        <ele>64</ele>
        <time>2025-04-26T09:29:41Z</time>
      </trkpt>
      <trkpt lat="45.33507" lon="-1.14728">
        <ele>64</ele>
        <time>2025-04-26T09:29:42Z</time>
      </trkpt>
      <trkpt lat="45.33511" lon="-1.14728">
        <ele>65</ele>
        <time>2025-04-26T09:29:43Z</time>
      </trkpt>
      <trkpt lat="45.33515" lon="-1.14728">
        <ele>65</ele>
        <time>2025-04-26T09:29:44Z</time>
      </trkpt>
      <trkpt lat="45.3352" lon="-1.14728">
        <ele>66</ele>
        <time>2025-04-26T09:29:45Z</time>
      </trkpt>
      <trkpt lat="45.33524" lon="-1.14728">
        <ele>66</ele>
        <time>2025-04-26T09:29:46Z</time>
      </trkpt>
      <trkpt lat="45.33528" lon="-1.14728">
        <ele>65</ele>
        <time>2025-04-26T09:29:47Z</time>
      </trkpt>
      <trkpt lat="45.33532" lon="-1.14728">
        <ele>65</ele>
        <time>2025-04-26T09:29:48Z</time>
      </trkpt>
      <trkpt lat="45.33536" lon="-1.14728">
        <ele>64</ele>
        <time>2025-04-26T09:29:49Z</time>
      </trkpt>
      <trkpt lat="45.33539" lon="-1.14728">
        <ele>64</ele>
        <time>2025-04-26T09:29:50Z</time>
      </trkpt>
      <trkpt lat="45.33544" lon="-1.14727">
        <ele>64</ele>
        <time>2025-04-26T09:29:51Z</time>
      </trkpt>
      <trkpt lat="45.33548" lon="-1.14727">
        <ele>64</ele>
        <time>2025-04-26T09:29:52Z</time>
      </trkpt>
      <trkpt lat="45.33552" lon="-1.14727">
        <ele>64</ele>
        <time>2025-04-26T09:29:53Z</time>
      </trkpt>
      <trkpt lat="45.33556" lon="-1.14726">
        <ele>63</ele>
        <time>2025-04-26T09:29:54Z</time>
      </trkpt>
      <trkpt lat="45.33561" lon="-1.14726">
        <ele>64</ele>
        <time>2025-04-26T09:29:55Z</time>
      </trkpt>
      <trkpt lat="45.33565" lon="-1.14726">
        <ele>64</ele>
        <time>2025-04-26T09:29:56Z</time>
      </trkpt>
      <trkpt lat="45.33569" lon="-1.14725">
        <ele>63</ele>
        <time>2025-04-26T09:29:57Z</time>
      </trkpt>
      <trkpt lat="45.33573" lon="-1.14725">
        <ele>63</ele>
        <time>2025-04-26T09:29:58Z</time>
      </trkpt>
      <trkpt lat="45.33577" lon="-1.14725">
        <ele>63</ele>
        <time>2025-04-26T09:29:59Z</time>
      </trkpt>
      <trkpt lat="45.33581" lon="-1.14725">
        <ele>63</ele>
        <time>2025-04-26T09:30:00Z</time>
      </trkpt>
      <trkpt lat="45.33585" lon="-1.14724">
        <ele>63</ele>
        <time>2025-04-26T09:30:01Z</time>
      </trkpt>
      <trkpt lat="45.33589" lon="-1.14724">
        <ele>64</ele>
        <time>2025-04-26T09:30:02Z</time>
      </trkpt>
      <trkpt lat="45.33593" lon="-1.14724">
        <ele>64</ele>
        <time>2025-04-26T09:30:03Z</time>
      </trkpt>
      <trkpt lat="45.33598" lon="-1.14724">
        <ele>63</ele>
        <time>2025-04-26T09:30:04Z</time>
      </trkpt>
      <trkpt lat="45.33602" lon="-1.14724">
        <ele>63</ele>
        <time>2025-04-26T09:30:05Z</time>
      </trkpt>
      <trkpt lat="45.33606" lon="-1.14724">
        <ele>63</ele>
        <time>2025-04-26T09:30:06Z</time>
      </trkpt>
      <trkpt lat="45.3361" lon="-1.14724">
        <ele>63</ele>
        <time>2025-04-26T09:30:07Z</time>
      </trkpt>
      <trkpt lat="45.33615" lon="-1.14724">
        <ele>63</ele>
        <time>2025-04-26T09:30:08Z</time>
      </trkpt>
      <trkpt lat="45.33618" lon="-1.14724">
        <ele>63</ele>
        <time>2025-04-26T09:30:09Z</time>
      </trkpt>
      <trkpt lat="45.33622" lon="-1.14723">
        <ele>63</ele>
        <time>2025-04-26T09:30:10Z</time>
      </trkpt>
      <trkpt lat="45.33627" lon="-1.14722">
        <ele>63</ele>
        <time>2025-04-26T09:30:11Z</time>
      </trkpt>
      <trkpt lat="45.33631" lon="-1.14722">
        <ele>64</ele>
        <time>2025-04-26T09:30:12Z</time>
      </trkpt>
      <trkpt lat="45.33635" lon="-1.14721">
        <ele>64</ele>
        <time>2025-04-26T09:30:13Z</time>
      </trkpt>
      <trkpt lat="45.33639" lon="-1.14721">
        <ele>64</ele>
        <time>2025-04-26T09:30:14Z</time>
      </trkpt>
      <trkpt lat="45.33643" lon="-1.1472">
        <ele>64</ele>
        <time>2025-04-26T09:30:15Z</time>
      </trkpt>
      <trkpt lat="45.33647" lon="-1.14719">
        <ele>64</ele>
        <time>2025-04-26T09:30:16Z</time>
      </trkpt>
      <trkpt lat="45.33652" lon="-1.14719">
        <ele>65</ele>
        <time>2025-04-26T09:30:17Z</time>
      </trkpt>
      <trkpt lat="45.33656" lon="-1.14719">
        <ele>65</ele>
        <time>2025-04-26T09:30:18Z</time>
      </trkpt>
      <trkpt lat="45.3366" lon="-1.1472">
        <ele>65</ele>
        <time>2025-04-26T09:30:19Z</time>
      </trkpt>
      <trkpt lat="45.33664" lon="-1.14719">
        <ele>64</ele>
        <time>2025-04-26T09:30:20Z</time>
      </trkpt>
      <trkpt lat="45.33668" lon="-1.14719">
        <ele>64</ele>
        <time>2025-04-26T09:30:21Z</time>
      </trkpt>
      <trkpt lat="45.33672" lon="-1.14719">
        <ele>63</ele>
        <time>2025-04-26T09:30:22Z</time>
      </trkpt>
      <trkpt lat="45.33677" lon="-1.14719">
        <ele>64</ele>
        <time>2025-04-26T09:30:23Z</time>
      </trkpt>
      <trkpt lat="45.33681" lon="-1.14719">
        <ele>64</ele>
        <time>2025-04-26T09:30:24Z</time>
      </trkpt>
      <trkpt lat="45.33686" lon="-1.14719">
        <ele>64</ele>
        <time>2025-04-26T09:30:25Z</time>
      </trkpt>
      <trkpt lat="45.3369" lon="-1.14719">
        <ele>64</ele>
        <time>2025-04-26T09:30:26Z</time>
      </trkpt>
      <trkpt lat="45.33694" lon="-1.14718">
        <ele>64</ele>
        <time>2025-04-26T09:30:27Z</time>
      </trkpt>
      <trkpt lat="45.33698" lon="-1.14718">
        <ele>64</ele>
        <time>2025-04-26T09:30:28Z</time>
      </trkpt>
      <trkpt lat="45.33702" lon="-1.14717">
        <ele>64</ele>
        <time>2025-04-26T09:30:29Z</time>
      </trkpt>
      <trkpt lat="45.33706" lon="-1.14717">
        <ele>65</ele>
        <time>2025-04-26T09:30:30Z</time>
      </trkpt>
      <trkpt lat="45.3371" lon="-1.14719">
        <ele>65</ele>
        <time>2025-04-26T09:30:31Z</time>
      </trkpt>
      <trkpt lat="45.33714" lon="-1.14722">
        <ele>65</ele>
        <time>2025-04-26T09:30:32Z</time>
      </trkpt>
      <trkpt lat="45.33717" lon="-1.14725">
        <ele>66</ele>
        <time>2025-04-26T09:30:33Z</time>
      </trkpt>
      <trkpt lat="45.3372" lon="-1.14729">
        <ele>66</ele>
        <time>2025-04-26T09:30:34Z</time>
      </trkpt>
      <trkpt lat="45.33723" lon="-1.14733">
        <ele>66</ele>
        <time>2025-04-26T09:30:35Z</time>
      </trkpt>
      <trkpt lat="45.33726" lon="-1.14737">
        <ele>66</ele>
        <time>2025-04-26T09:30:36Z</time>
      </trkpt>
      <trkpt lat="45.3373" lon="-1.1474">
        <ele>66</ele>
        <time>2025-04-26T09:30:37Z</time>
      </trkpt>
      <trkpt lat="45.33733" lon="-1.14742">
        <ele>66</ele>
        <time>2025-04-26T09:30:38Z</time>
      </trkpt>
      <trkpt lat="45.33737" lon="-1.14742">
        <ele>66</ele>
        <time>2025-04-26T09:30:39Z</time>
      </trkpt>
      <trkpt lat="45.33741" lon="-1.14742">
        <ele>66</ele>
        <time>2025-04-26T09:30:40Z</time>
      </trkpt>
      <trkpt lat="45.33745" lon="-1.1474">
        <ele>66</ele>
        <time>2025-04-26T09:30:41Z</time>
      </trkpt>
      <trkpt lat="45.33749" lon="-1.14738">
        <ele>66</ele>
        <time>2025-04-26T09:30:42Z</time>
      </trkpt>
      <trkpt lat="45.33752" lon="-1.14735">
        <ele>66</ele>
        <time>2025-04-26T09:30:43Z</time>
      </trkpt>
      <trkpt lat="45.33755" lon="-1.14731">
        <ele>66</ele>
        <time>2025-04-26T09:30:44Z</time>
      </trkpt>
      <trkpt lat="45.33759" lon="-1.14727">
        <ele>66</ele>
        <time>2025-04-26T09:30:45Z</time>
      </trkpt>
      <trkpt lat="45.33762" lon="-1.14722">
        <ele>66</ele>
        <time>2025-04-26T09:30:46Z</time>
      </trkpt>
      <trkpt lat="45.33765" lon="-1.14718">
        <ele>66</ele>
        <time>2025-04-26T09:30:47Z</time>
      </trkpt>
      <trkpt lat="45.33769" lon="-1.14715">
        <ele>66</ele>
        <time>2025-04-26T09:30:48Z</time>
      </trkpt>
      <trkpt lat="45.33773" lon="-1.14713">
        <ele>66</ele>
        <time>2025-04-26T09:30:49Z</time>
      </trkpt>
      <trkpt lat="45.33778" lon="-1.14713">
        <ele>66</ele>
        <time>2025-04-26T09:30:50Z</time>
      </trkpt>
      <trkpt lat="45.33782" lon="-1.14713">
        <ele>66</ele>
        <time>2025-04-26T09:30:51Z</time>
      </trkpt>
      <trkpt lat="45.33787" lon="-1.14712">
        <ele>66</ele>
        <time>2025-04-26T09:30:52Z</time>
      </trkpt>
      <trkpt lat="45.33791" lon="-1.14712">
        <ele>66</ele>
        <time>2025-04-26T09:30:53Z</time>
      </trkpt>
      <trkpt lat="45.33796" lon="-1.14712">
        <ele>66</ele>
        <time>2025-04-26T09:30:54Z</time>
      </trkpt>
      <trkpt lat="45.338" lon="-1.14711">
        <ele>66</ele>
        <time>2025-04-26T09:30:55Z</time>
      </trkpt>
      <trkpt lat="45.33804" lon="-1.14711">
        <ele>65</ele>
        <time>2025-04-26T09:30:56Z</time>
      </trkpt>
      <trkpt lat="45.33809" lon="-1.14711">
        <ele>65</ele>
        <time>2025-04-26T09:30:57Z</time>
      </trkpt>
      <trkpt lat="45.33813" lon="-1.14711">
        <ele>65</ele>
        <time>2025-04-26T09:30:58Z</time>
      </trkpt>
      <trkpt lat="45.33817" lon="-1.14711">
        <ele>65</ele>
        <time>2025-04-26T09:30:59Z</time>
      </trkpt>
      <trkpt lat="45.33821" lon="-1.1471">
        <ele>65</ele>
        <time>2025-04-26T09:31:00Z</time>
      </trkpt>
      <trkpt lat="45.33826" lon="-1.1471">
        <ele>65</ele>
        <time>2025-04-26T09:31:01Z</time>
      </trkpt>
      <trkpt lat="45.3383" lon="-1.1471">
        <ele>66</ele>
        <time>2025-04-26T09:31:02Z</time>
      </trkpt>
      <trkpt lat="45.33834" lon="-1.1471">
        <ele>66</ele>
        <time>2025-04-26T09:31:03Z</time>
      </trkpt>
      <trkpt lat="45.33838" lon="-1.1471">
        <ele>66</ele>
        <time>2025-04-26T09:31:04Z</time>
      </trkpt>
      <trkpt lat="45.33842" lon="-1.1471">
        <ele>66</ele>
        <time>2025-04-26T09:31:05Z</time>
      </trkpt>
      <trkpt lat="45.33846" lon="-1.1471">
        <ele>66</ele>
        <time>2025-04-26T09:31:06Z</time>
      </trkpt>
      <trkpt lat="45.3385" lon="-1.14709">
        <ele>67</ele>
        <time>2025-04-26T09:31:07Z</time>
      </trkpt>
      <trkpt lat="45.33854" lon="-1.14708">
        <ele>67</ele>
        <time>2025-04-26T09:31:08Z</time>
      </trkpt>
      <trkpt lat="45.33859" lon="-1.14708">
        <ele>67</ele>
        <time>2025-04-26T09:31:09Z</time>
      </trkpt>
      <trkpt lat="45.33863" lon="-1.14708">
        <ele>66</ele>
        <time>2025-04-26T09:31:10Z</time>
      </trkpt>
      <trkpt lat="45.33867" lon="-1.14708">
        <ele>66</ele>
        <time>2025-04-26T09:31:11Z</time>
      </trkpt>
      <trkpt lat="45.3387" lon="-1.14707">
        <ele>66</ele>
        <time>2025-04-26T09:31:12Z</time>
      </trkpt>
      <trkpt lat="45.33875" lon="-1.14707">
        <ele>66</ele>
        <time>2025-04-26T09:31:13Z</time>
      </trkpt>
      <trkpt lat="45.33879" lon="-1.14706">
        <ele>65</ele>
        <time>2025-04-26T09:31:14Z</time>
      </trkpt>
      <trkpt lat="45.33883" lon="-1.14705">
        <ele>65</ele>
        <time>2025-04-26T09:31:15Z</time>
      </trkpt>
      <trkpt lat="45.33887" lon="-1.14705">
        <ele>65</ele>
        <time>2025-04-26T09:31:16Z</time>
      </trkpt>
      <trkpt lat="45.33891" lon="-1.14705">
        <ele>65</ele>
        <time>2025-04-26T09:31:17Z</time>
      </trkpt>
      <trkpt lat="45.33895" lon="-1.14705">
        <ele>64</ele>
        <time>2025-04-26T09:31:18Z</time>
      </trkpt>
      <trkpt lat="45.33898" lon="-1.14705">
        <ele>64</ele>
        <time>2025-04-26T09:31:19Z</time>
      </trkpt>
      <trkpt lat="45.33902" lon="-1.14705">
        <ele>65</ele>
        <time>2025-04-26T09:31:20Z</time>
      </trkpt>
      <trkpt lat="45.33906" lon="-1.14705">
        <ele>65</ele>
        <time>2025-04-26T09:31:21Z</time>
      </trkpt>
      <trkpt lat="45.3391" lon="-1.14705">
        <ele>65</ele>
        <time>2025-04-26T09:31:22Z</time>
      </trkpt>
      <trkpt lat="45.33914" lon="-1.14704">
        <ele>65</ele>
        <time>2025-04-26T09:31:23Z</time>
      </trkpt>
      <trkpt lat="45.33918" lon="-1.14704">
        <ele>65</ele>
        <time>2025-04-26T09:31:24Z</time>
      </trkpt>
      <trkpt lat="45.33922" lon="-1.14704">
        <ele>64</ele>
        <time>2025-04-26T09:31:25Z</time>
      </trkpt>
      <trkpt lat="45.33926" lon="-1.14704">
        <ele>65</ele>
        <time>2025-04-26T09:31:26Z</time>
      </trkpt>
      <trkpt lat="45.3393" lon="-1.14704">
        <ele>65</ele>
        <time>2025-04-26T09:31:27Z</time>
      </trkpt>
      <trkpt lat="45.33935" lon="-1.14704">
        <ele>66</ele>
        <time>2025-04-26T09:31:28Z</time>
      </trkpt>
      <trkpt lat="45.33939" lon="-1.14704">
        <ele>66</ele>
        <time>2025-04-26T09:31:29Z</time>
      </trkpt>
      <trkpt lat="45.33943" lon="-1.14703">
        <ele>66</ele>
        <time>2025-04-26T09:31:30Z</time>
      </trkpt>
      <trkpt lat="45.33947" lon="-1.14703">
        <ele>65</ele>
        <time>2025-04-26T09:31:31Z</time>
      </trkpt>
      <trkpt lat="45.33951" lon="-1.14703">
        <ele>66</ele>
        <time>2025-04-26T09:31:32Z</time>
      </trkpt>
      <trkpt lat="45.33955" lon="-1.14703">
        <ele>66</ele>
        <time>2025-04-26T09:31:33Z</time>
      </trkpt>
      <trkpt lat="45.33959" lon="-1.14703">
        <ele>66</ele>
        <time>2025-04-26T09:31:34Z</time>
      </trkpt>
      <trkpt lat="45.33963" lon="-1.14702">
        <ele>66</ele>
        <time>2025-04-26T09:31:35Z</time>
      </trkpt>
      <trkpt lat="45.33967" lon="-1.14702">
        <ele>66</ele>
        <time>2025-04-26T09:31:36Z</time>
      </trkpt>
      <trkpt lat="45.33971" lon="-1.14702">
        <ele>65</ele>
        <time>2025-04-26T09:31:37Z</time>
      </trkpt>
      <trkpt lat="45.33975" lon="-1.14701">
        <ele>65</ele>
        <time>2025-04-26T09:31:38Z</time>
      </trkpt>
      <trkpt lat="45.33979" lon="-1.14701">
        <ele>65</ele>
        <time>2025-04-26T09:31:39Z</time>
      </trkpt>
      <trkpt lat="45.33983" lon="-1.14701">
        <ele>65</ele>
        <time>2025-04-26T09:31:40Z</time>
      </trkpt>
      <trkpt lat="45.33987" lon="-1.147">
        <ele>66</ele>
        <time>2025-04-26T09:31:41Z</time>
      </trkpt>
      <trkpt lat="45.33991" lon="-1.147">
        <ele>66</ele>
        <time>2025-04-26T09:31:42Z</time>
      </trkpt>
      <trkpt lat="45.33995" lon="-1.14701">
        <ele>66</ele>
        <time>2025-04-26T09:31:43Z</time>
      </trkpt>
      <trkpt lat="45.33999" lon="-1.14703">
        <ele>66</ele>
        <time>2025-04-26T09:31:44Z</time>
      </trkpt>
      <trkpt lat="45.34002" lon="-1.14706">
        <ele>66</ele>
        <time>2025-04-26T09:31:45Z</time>
      </trkpt>
      <trkpt lat="45.34005" lon="-1.1471">
        <ele>66</ele>
        <time>2025-04-26T09:31:46Z</time>
      </trkpt>
      <trkpt lat="45.34008" lon="-1.14714">
        <ele>66</ele>
        <time>2025-04-26T09:31:47Z</time>
      </trkpt>
      <trkpt lat="45.34012" lon="-1.14718">
        <ele>66</ele>
        <time>2025-04-26T09:31:48Z</time>
      </trkpt>
      <trkpt lat="45.34016" lon="-1.14722">
        <ele>65</ele>
        <time>2025-04-26T09:31:49Z</time>
      </trkpt>
      <trkpt lat="45.3402" lon="-1.14725">
        <ele>65</ele>
        <time>2025-04-26T09:31:50Z</time>
      </trkpt>
      <trkpt lat="45.34024" lon="-1.14726">
        <ele>65</ele>
        <time>2025-04-26T09:31:51Z</time>
      </trkpt>
      <trkpt lat="45.34029" lon="-1.14726">
        <ele>64</ele>
        <time>2025-04-26T09:31:52Z</time>
      </trkpt>
      <trkpt lat="45.34033" lon="-1.14725">
        <ele>64</ele>
        <time>2025-04-26T09:31:53Z</time>
      </trkpt>
      <trkpt lat="45.34037" lon="-1.14723">
        <ele>65</ele>
        <time>2025-04-26T09:31:54Z</time>
      </trkpt>
      <trkpt lat="45.34041" lon="-1.1472">
        <ele>64</ele>
        <time>2025-04-26T09:31:55Z</time>
      </trkpt>
      <trkpt lat="45.34043" lon="-1.14716">
        <ele>64</ele>
        <time>2025-04-26T09:31:56Z</time>
      </trkpt>
      <trkpt lat="45.34046" lon="-1.14712">
        <ele>64</ele>
        <time>2025-04-26T09:31:57Z</time>
      </trkpt>
      <trkpt lat="45.34049" lon="-1.14707">
        <ele>64</ele>
        <time>2025-04-26T09:31:58Z</time>
      </trkpt>
      <trkpt lat="45.34051" lon="-1.14703">
        <ele>64</ele>
        <time>2025-04-26T09:31:59Z</time>
      </trkpt>
      <trkpt lat="45.34054" lon="-1.147">
        <ele>63</ele>
        <time>2025-04-26T09:32:00Z</time>
      </trkpt>
      <trkpt lat="45.34058" lon="-1.14697">
        <ele>63</ele>
        <time>2025-04-26T09:32:01Z</time>
      </trkpt>
      <trkpt lat="45.34062" lon="-1.14695">
        <ele>63</ele>
        <time>2025-04-26T09:32:02Z</time>
      </trkpt>
      <trkpt lat="45.34066" lon="-1.14695">
        <ele>63</ele>
        <time>2025-04-26T09:32:03Z</time>
      </trkpt>
      <trkpt lat="45.3407" lon="-1.14695">
        <ele>63</ele>
        <time>2025-04-26T09:32:04Z</time>
      </trkpt>
      <trkpt lat="45.34074" lon="-1.14695">
        <ele>63</ele>
        <time>2025-04-26T09:32:05Z</time>
      </trkpt>
      <trkpt lat="45.34079" lon="-1.14694">
        <ele>63</ele>
        <time>2025-04-26T09:32:06Z</time>
      </trkpt>
      <trkpt lat="45.34083" lon="-1.14694">
        <ele>64</ele>
        <time>2025-04-26T09:32:07Z</time>
      </trkpt>
      <trkpt lat="45.34087" lon="-1.14694">
        <ele>64</ele>
        <time>2025-04-26T09:32:08Z</time>
      </trkpt>
      <trkpt lat="45.34091" lon="-1.14694">
        <ele>64</ele>
        <time>2025-04-26T09:32:09Z</time>
      </trkpt>
      <trkpt lat="45.34096" lon="-1.14694">
        <ele>65</ele>
        <time>2025-04-26T09:32:10Z</time>
      </trkpt>
      <trkpt lat="45.34099" lon="-1.14694">
        <ele>64</ele>
        <time>2025-04-26T09:32:11Z</time>
      </trkpt>
      <trkpt lat="45.34104" lon="-1.14693">
        <ele>64</ele>
        <time>2025-04-26T09:32:12Z</time>
      </trkpt>
      <trkpt lat="45.34108" lon="-1.14693">
        <ele>65</ele>
        <time>2025-04-26T09:32:13Z</time>
      </trkpt>
      <trkpt lat="45.34112" lon="-1.14693">
        <ele>66</ele>
        <time>2025-04-26T09:32:14Z</time>
      </trkpt>
      <trkpt lat="45.34116" lon="-1.14692">
        <ele>66</ele>
        <time>2025-04-26T09:32:15Z</time>
      </trkpt>
      <trkpt lat="45.3412" lon="-1.14692">
        <ele>66</ele>
        <time>2025-04-26T09:32:16Z</time>
      </trkpt>
      <trkpt lat="45.34124" lon="-1.14692">
        <ele>66</ele>
        <time>2025-04-26T09:32:17Z</time>
      </trkpt>
      <trkpt lat="45.34128" lon="-1.14692">
        <ele>66</ele>
        <time>2025-04-26T09:32:18Z</time>
      </trkpt>
      <trkpt lat="45.34132" lon="-1.14692">
        <ele>67</ele>
        <time>2025-04-26T09:32:19Z</time>
      </trkpt>
      <trkpt lat="45.34136" lon="-1.14692">
        <ele>66</ele>
        <time>2025-04-26T09:32:20Z</time>
      </trkpt>
      <trkpt lat="45.3414" lon="-1.14691">
        <ele>66</ele>
        <time>2025-04-26T09:32:21Z</time>
      </trkpt>
      <trkpt lat="45.34144" lon="-1.14691">
        <ele>66</ele>
        <time>2025-04-26T09:32:22Z</time>
      </trkpt>
      <trkpt lat="45.34148" lon="-1.1469">
        <ele>66</ele>
        <time>2025-04-26T09:32:23Z</time>
      </trkpt>
      <trkpt lat="45.34153" lon="-1.1469">
        <ele>65</ele>
        <time>2025-04-26T09:32:24Z</time>
      </trkpt>
      <trkpt lat="45.34157" lon="-1.14689">
        <ele>66</ele>
        <time>2025-04-26T09:32:25Z</time>
      </trkpt>
      <trkpt lat="45.34162" lon="-1.14689">
        <ele>66</ele>
        <time>2025-04-26T09:32:26Z</time>
      </trkpt>
      <trkpt lat="45.34166" lon="-1.14689">
        <ele>66</ele>
        <time>2025-04-26T09:32:27Z</time>
      </trkpt>
      <trkpt lat="45.3417" lon="-1.14689">
        <ele>66</ele>
        <time>2025-04-26T09:32:28Z</time>
      </trkpt>
      <trkpt lat="45.34174" lon="-1.14688">
        <ele>66</ele>
        <time>2025-04-26T09:32:29Z</time>
      </trkpt>
      <trkpt lat="45.34179" lon="-1.14688">
        <ele>65</ele>
        <time>2025-04-26T09:32:30Z</time>
      </trkpt>
      <trkpt lat="45.34182" lon="-1.14688">
        <ele>65</ele>
        <time>2025-04-26T09:32:31Z</time>
      </trkpt>
      <trkpt lat="45.34187" lon="-1.14687">
        <ele>65</ele>
        <time>2025-04-26T09:32:32Z</time>
      </trkpt>
      <trkpt lat="45.34191" lon="-1.14687">
        <ele>66</ele>
        <time>2025-04-26T09:32:33Z</time>
      </trkpt>
      <trkpt lat="45.34195" lon="-1.14686">
        <ele>66</ele>
        <time>2025-04-26T09:32:34Z</time>
      </trkpt>
      <trkpt lat="45.34199" lon="-1.14686">
        <ele>65</ele>
        <time>2025-04-26T09:32:35Z</time>
      </trkpt>
      <trkpt lat="45.34202" lon="-1.14686">
        <ele>66</ele>
        <time>2025-04-26T09:32:36Z</time>
      </trkpt>
      <trkpt lat="45.34206" lon="-1.14685">
        <ele>66</ele>
        <time>2025-04-26T09:32:37Z</time>
      </trkpt>
      <trkpt lat="45.3421" lon="-1.14685">
        <ele>66</ele>
        <time>2025-04-26T09:32:38Z</time>
      </trkpt>
      <trkpt lat="45.34214" lon="-1.14685">
        <ele>66</ele>
        <time>2025-04-26T09:32:39Z</time>
      </trkpt>
      <trkpt lat="45.34218" lon="-1.14685">
        <ele>66</ele>
        <time>2025-04-26T09:32:40Z</time>
      </trkpt>
      <trkpt lat="45.34222" lon="-1.14684">
        <ele>65</ele>
        <time>2025-04-26T09:32:41Z</time>
      </trkpt>
      <trkpt lat="45.34226" lon="-1.14684">
        <ele>65</ele>
        <time>2025-04-26T09:32:42Z</time>
      </trkpt>
      <trkpt lat="45.3423" lon="-1.14683">
        <ele>65</ele>
        <time>2025-04-26T09:32:43Z</time>
      </trkpt>
      <trkpt lat="45.34235" lon="-1.14683">
        <ele>65</ele>
        <time>2025-04-26T09:32:44Z</time>
      </trkpt>
      <trkpt lat="45.34239" lon="-1.14683">
        <ele>65</ele>
        <time>2025-04-26T09:32:45Z</time>
      </trkpt>
      <trkpt lat="45.34243" lon="-1.14682">
        <ele>66</ele>
        <time>2025-04-26T09:32:46Z</time>
      </trkpt>
      <trkpt lat="45.34247" lon="-1.14682">
        <ele>67</ele>
        <time>2025-04-26T09:32:47Z</time>
      </trkpt>
      <trkpt lat="45.34252" lon="-1.14682">
        <ele>67</ele>
        <time>2025-04-26T09:32:48Z</time>
      </trkpt>
      <trkpt lat="45.34256" lon="-1.14681">
        <ele>67</ele>
        <time>2025-04-26T09:32:49Z</time>
      </trkpt>
      <trkpt lat="45.34261" lon="-1.1468">
        <ele>68</ele>
        <time>2025-04-26T09:32:50Z</time>
      </trkpt>
      <trkpt lat="45.34265" lon="-1.1468">
        <ele>67</ele>
        <time>2025-04-26T09:32:51Z</time>
      </trkpt>
      <trkpt lat="45.3427" lon="-1.1468">
        <ele>67</ele>
        <time>2025-04-26T09:32:52Z</time>
      </trkpt>
      <trkpt lat="45.34274" lon="-1.1468">
        <ele>67</ele>
        <time>2025-04-26T09:32:53Z</time>
      </trkpt>
      <trkpt lat="45.34278" lon="-1.1468">
        <ele>67</ele>
        <time>2025-04-26T09:32:54Z</time>
      </trkpt>
      <trkpt lat="45.34282" lon="-1.1468">
        <ele>67</ele>
        <time>2025-04-26T09:32:55Z</time>
      </trkpt>
      <trkpt lat="45.34285" lon="-1.14681">
        <ele>66</ele>
        <time>2025-04-26T09:32:56Z</time>
      </trkpt>
      <trkpt lat="45.34289" lon="-1.14684">
        <ele>65</ele>
        <time>2025-04-26T09:32:57Z</time>
      </trkpt>
      <trkpt lat="45.34292" lon="-1.14688">
        <ele>65</ele>
        <time>2025-04-26T09:32:58Z</time>
      </trkpt>
      <trkpt lat="45.34295" lon="-1.14692">
        <ele>64</ele>
        <time>2025-04-26T09:32:59Z</time>
      </trkpt>
      <trkpt lat="45.34298" lon="-1.14697">
        <ele>64</ele>
        <time>2025-04-26T09:33:00Z</time>
      </trkpt>
      <trkpt lat="45.34302" lon="-1.147">
        <ele>64</ele>
        <time>2025-04-26T09:33:01Z</time>
      </trkpt>
      <trkpt lat="45.34305" lon="-1.14703">
        <ele>63</ele>
        <time>2025-04-26T09:33:02Z</time>
      </trkpt>
      <trkpt lat="45.3431" lon="-1.14704">
        <ele>63</ele>
        <time>2025-04-26T09:33:03Z</time>
      </trkpt>
      <trkpt lat="45.34314" lon="-1.14705">
        <ele>63</ele>
        <time>2025-04-26T09:33:04Z</time>
      </trkpt>
      <trkpt lat="45.34319" lon="-1.14705">
        <ele>63</ele>
        <time>2025-04-26T09:33:05Z</time>
      </trkpt>
      <trkpt lat="45.34323" lon="-1.14703">
        <ele>64</ele>
        <time>2025-04-26T09:33:06Z</time>
      </trkpt>
      <trkpt lat="45.34328" lon="-1.147">
        <ele>64</ele>
        <time>2025-04-26T09:33:07Z</time>
      </trkpt>
      <trkpt lat="45.34331" lon="-1.14696">
        <ele>64</ele>
        <time>2025-04-26T09:33:08Z</time>
      </trkpt>
      <trkpt lat="45.34334" lon="-1.14691">
        <ele>64</ele>
        <time>2025-04-26T09:33:09Z</time>
      </trkpt>
      <trkpt lat="45.34337" lon="-1.14687">
        <ele>64</ele>
        <time>2025-04-26T09:33:10Z</time>
      </trkpt>
      <trkpt lat="45.3434" lon="-1.14683">
        <ele>64</ele>
        <time>2025-04-26T09:33:11Z</time>
      </trkpt>
      <trkpt lat="45.34343" lon="-1.1468">
        <ele>65</ele>
        <time>2025-04-26T09:33:12Z</time>
      </trkpt>
      <trkpt lat="45.34347" lon="-1.14678">
        <ele>66</ele>
        <time>2025-04-26T09:33:13Z</time>
      </trkpt>
      <trkpt lat="45.34351" lon="-1.14677">
        <ele>67</ele>
        <time>2025-04-26T09:33:14Z</time>
      </trkpt>
      <trkpt lat="45.34355" lon="-1.14676">
        <ele>67</ele>
        <time>2025-04-26T09:33:15Z</time>
      </trkpt>
      <trkpt lat="45.34359" lon="-1.14676">
        <ele>67</ele>
        <time>2025-04-26T09:33:16Z</time>
      </trkpt>
      <trkpt lat="45.34363" lon="-1.14676">
        <ele>68</ele>
        <time>2025-04-26T09:33:17Z</time>
      </trkpt>
      <trkpt lat="45.34366" lon="-1.14675">
        <ele>67</ele>
        <time>2025-04-26T09:33:18Z</time>
      </trkpt>
      <trkpt lat="45.3437" lon="-1.14675">
        <ele>68</ele>
        <time>2025-04-26T09:33:19Z</time>
      </trkpt>
      <trkpt lat="45.34374" lon="-1.14674">
        <ele>68</ele>
        <time>2025-04-26T09:33:20Z</time>
      </trkpt>
      <trkpt lat="45.34378" lon="-1.14674">
        <ele>68</ele>
        <time>2025-04-26T09:33:21Z</time>
      </trkpt>
      <trkpt lat="45.34382" lon="-1.14674">
        <ele>67</ele>
        <time>2025-04-26T09:33:22Z</time>
      </trkpt>
      <trkpt lat="45.34386" lon="-1.14673">
        <ele>68</ele>
        <time>2025-04-26T09:33:23Z</time>
      </trkpt>
      <trkpt lat="45.3439" lon="-1.14672">
        <ele>68</ele>
        <time>2025-04-26T09:33:24Z</time>
      </trkpt>
      <trkpt lat="45.34394" lon="-1.14671">
        <ele>68</ele>
        <time>2025-04-26T09:33:25Z</time>
      </trkpt>
      <trkpt lat="45.34398" lon="-1.14671">
        <ele>68</ele>
        <time>2025-04-26T09:33:26Z</time>
      </trkpt>
      <trkpt lat="45.34402" lon="-1.1467">
        <ele>67</ele>
        <time>2025-04-26T09:33:27Z</time>
      </trkpt>
      <trkpt lat="45.34406" lon="-1.1467">
        <ele>68</ele>
        <time>2025-04-26T09:33:28Z</time>
      </trkpt>
      <trkpt lat="45.3441" lon="-1.1467">
        <ele>68</ele>
        <time>2025-04-26T09:33:29Z</time>
      </trkpt>
      <trkpt lat="45.34414" lon="-1.1467">
        <ele>68</ele>
        <time>2025-04-26T09:33:30Z</time>
      </trkpt>
      <trkpt lat="45.34419" lon="-1.1467">
        <ele>68</ele>
        <time>2025-04-26T09:33:31Z</time>
      </trkpt>
      <trkpt lat="45.34423" lon="-1.1467">
        <ele>68</ele>
        <time>2025-04-26T09:33:32Z</time>
      </trkpt>
      <trkpt lat="45.34427" lon="-1.1467">
        <ele>67</ele>
        <time>2025-04-26T09:33:33Z</time>
      </trkpt>
      <trkpt lat="45.34432" lon="-1.1467">
        <ele>67</ele>
        <time>2025-04-26T09:33:34Z</time>
      </trkpt>
      <trkpt lat="45.34436" lon="-1.14669">
        <ele>67</ele>
        <time>2025-04-26T09:33:35Z</time>
      </trkpt>
      <trkpt lat="45.3444" lon="-1.14669">
        <ele>67</ele>
        <time>2025-04-26T09:33:36Z</time>
      </trkpt>
      <trkpt lat="45.34445" lon="-1.14669">
        <ele>66</ele>
        <time>2025-04-26T09:33:37Z</time>
      </trkpt>
      <trkpt lat="45.34449" lon="-1.14668">
        <ele>66</ele>
        <time>2025-04-26T09:33:38Z</time>
      </trkpt>
      <trkpt lat="45.34453" lon="-1.14668">
        <ele>66</ele>
        <time>2025-04-26T09:33:39Z</time>
      </trkpt>
      <trkpt lat="45.34457" lon="-1.14667">
        <ele>66</ele>
        <time>2025-04-26T09:33:40Z</time>
      </trkpt>
      <trkpt lat="45.3446" lon="-1.14667">
        <ele>66</ele>
        <time>2025-04-26T09:33:41Z</time>
      </trkpt>
      <trkpt lat="45.34464" lon="-1.14666">
        <ele>66</ele>
        <time>2025-04-26T09:33:42Z</time>
      </trkpt>
      <trkpt lat="45.34468" lon="-1.14666">
        <ele>66</ele>
        <time>2025-04-26T09:33:43Z</time>
      </trkpt>
      <trkpt lat="45.34472" lon="-1.14666">
        <ele>66</ele>
        <time>2025-04-26T09:33:44Z</time>
      </trkpt>
      <trkpt lat="45.34477" lon="-1.14666">
        <ele>66</ele>
        <time>2025-04-26T09:33:45Z</time>
      </trkpt>
      <trkpt lat="45.3448" lon="-1.14665">
        <ele>67</ele>
        <time>2025-04-26T09:33:46Z</time>
      </trkpt>
      <trkpt lat="45.34484" lon="-1.14665">
        <ele>66</ele>
        <time>2025-04-26T09:33:47Z</time>
      </trkpt>
      <trkpt lat="45.34488" lon="-1.14665">
        <ele>66</ele>
        <time>2025-04-26T09:33:48Z</time>
      </trkpt>
      <trkpt lat="45.34492" lon="-1.14665">
        <ele>66</ele>
        <time>2025-04-26T09:33:49Z</time>
      </trkpt>
      <trkpt lat="45.34496" lon="-1.14665">
        <ele>66</ele>
        <time>2025-04-26T09:33:50Z</time>
      </trkpt>
      <trkpt lat="45.345" lon="-1.14665">
        <ele>66</ele>
        <time>2025-04-26T09:33:51Z</time>
      </trkpt>
      <trkpt lat="45.34504" lon="-1.14665">
        <ele>66</ele>
        <time>2025-04-26T09:33:52Z</time>
      </trkpt>
      <trkpt lat="45.34508" lon="-1.14665">
        <ele>65</ele>
        <time>2025-04-26T09:33:53Z</time>
      </trkpt>
      <trkpt lat="45.34513" lon="-1.14664">
        <ele>65</ele>
        <time>2025-04-26T09:33:54Z</time>
      </trkpt>
      <trkpt lat="45.34517" lon="-1.14664">
        <ele>65</ele>
        <time>2025-04-26T09:33:55Z</time>
      </trkpt>
      <trkpt lat="45.34521" lon="-1.14664">
        <ele>65</ele>
        <time>2025-04-26T09:33:56Z</time>
      </trkpt>
      <trkpt lat="45.34525" lon="-1.14664">
        <ele>65</ele>
        <time>2025-04-26T09:33:57Z</time>
      </trkpt>
      <trkpt lat="45.34529" lon="-1.14663">
        <ele>65</ele>
        <time>2025-04-26T09:33:58Z</time>
      </trkpt>
      <trkpt lat="45.34533" lon="-1.14663">
        <ele>65</ele>
        <time>2025-04-26T09:33:59Z</time>
      </trkpt>
      <trkpt lat="45.34537" lon="-1.14662">
        <ele>65</ele>
        <time>2025-04-26T09:34:00Z</time>
      </trkpt>
      <trkpt lat="45.3454" lon="-1.14662">
        <ele>65</ele>
        <time>2025-04-26T09:34:01Z</time>
      </trkpt>
      <trkpt lat="45.34544" lon="-1.14662">
        <ele>64</ele>
        <time>2025-04-26T09:34:02Z</time>
      </trkpt>
      <trkpt lat="45.34548" lon="-1.14662">
        <ele>64</ele>
        <time>2025-04-26T09:34:03Z</time>
      </trkpt>
      <trkpt lat="45.34551" lon="-1.14662">
        <ele>64</ele>
        <time>2025-04-26T09:34:04Z</time>
      </trkpt>
      <trkpt lat="45.34554" lon="-1.14664">
        <ele>63</ele>
        <time>2025-04-26T09:34:05Z</time>
      </trkpt>
      <trkpt lat="45.34558" lon="-1.14668">
        <ele>63</ele>
        <time>2025-04-26T09:34:06Z</time>
      </trkpt>
      <trkpt lat="45.34561" lon="-1.14671">
        <ele>63</ele>
        <time>2025-04-26T09:34:07Z</time>
      </trkpt>
      <trkpt lat="45.34565" lon="-1.14672">
        <ele>62</ele>
        <time>2025-04-26T09:34:08Z</time>
      </trkpt>
      <trkpt lat="45.34569" lon="-1.14671">
        <ele>63</ele>
        <time>2025-04-26T09:34:09Z</time>
      </trkpt>
      <trkpt lat="45.34572" lon="-1.14668">
        <ele>63</ele>
        <time>2025-04-26T09:34:10Z</time>
      </trkpt>
      <trkpt lat="45.34574" lon="-1.14664">
        <ele>63</ele>
        <time>2025-04-26T09:34:11Z</time>
      </trkpt>
      <trkpt lat="45.34575" lon="-1.1466">
        <ele>63</ele>
        <time>2025-04-26T09:34:12Z</time>
      </trkpt>
      <trkpt lat="45.34575" lon="-1.14657">
        <ele>64</ele>
        <time>2025-04-26T09:34:13Z</time>
      </trkpt>
      <trkpt lat="45.34575" lon="-1.14653">
        <ele>64</ele>
        <time>2025-04-26T09:34:14Z</time>
      </trkpt>
      <trkpt lat="45.34576" lon="-1.14649">
        <ele>65</ele>
        <time>2025-04-26T09:34:15Z</time>
      </trkpt>
      <trkpt lat="45.34578" lon="-1.14644">
        <ele>65</ele>
        <time>2025-04-26T09:34:16Z</time>
      </trkpt>
      <trkpt lat="45.3458" lon="-1.1464">
        <ele>66</ele>
        <time>2025-04-26T09:34:17Z</time>
      </trkpt>
      <trkpt lat="45.34583" lon="-1.14636">
        <ele>65</ele>
        <time>2025-04-26T09:34:18Z</time>
      </trkpt>
      <trkpt lat="45.34585" lon="-1.14632">
        <ele>66</ele>
        <time>2025-04-26T09:34:19Z</time>
      </trkpt>
      <trkpt lat="45.34588" lon="-1.14629">
        <ele>66</ele>
        <time>2025-04-26T09:34:20Z</time>
      </trkpt>
      <trkpt lat="45.34591" lon="-1.14625">
        <ele>65</ele>
        <time>2025-04-26T09:34:21Z</time>
      </trkpt>
      <trkpt lat="45.34593" lon="-1.14622">
        <ele>65</ele>
        <time>2025-04-26T09:34:22Z</time>
      </trkpt>
      <trkpt lat="45.34596" lon="-1.1462">
        <ele>65</ele>
        <time>2025-04-26T09:34:23Z</time>
      </trkpt>
      <trkpt lat="45.346" lon="-1.14619">
        <ele>65</ele>
        <time>2025-04-26T09:34:24Z</time>
      </trkpt>
      <trkpt lat="45.34603" lon="-1.14619">
        <ele>66</ele>
        <time>2025-04-26T09:34:25Z</time>
      </trkpt>
      <trkpt lat="45.34606" lon="-1.14619">
        <ele>66</ele>
        <time>2025-04-26T09:34:26Z</time>
      </trkpt>
      <trkpt lat="45.34609" lon="-1.1462">
        <ele>67</ele>
        <time>2025-04-26T09:34:27Z</time>
      </trkpt>
      <trkpt lat="45.34612" lon="-1.14621">
        <ele>66</ele>
        <time>2025-04-26T09:34:28Z</time>
      </trkpt>
      <trkpt lat="45.34616" lon="-1.14624">
        <ele>66</ele>
        <time>2025-04-26T09:34:29Z</time>
      </trkpt>
      <trkpt lat="45.34619" lon="-1.14627">
        <ele>65</ele>
        <time>2025-04-26T09:34:30Z</time>
      </trkpt>
      <trkpt lat="45.34622" lon="-1.1463">
        <ele>65</ele>
        <time>2025-04-26T09:34:31Z</time>
      </trkpt>
      <trkpt lat="45.34625" lon="-1.14634">
        <ele>65</ele>
        <time>2025-04-26T09:34:32Z</time>
      </trkpt>
      <trkpt lat="45.34628" lon="-1.14638">
        <ele>64</ele>
        <time>2025-04-26T09:34:33Z</time>
      </trkpt>
      <trkpt lat="45.34632" lon="-1.14641">
        <ele>65</ele>
        <time>2025-04-26T09:34:34Z</time>
      </trkpt>
      <trkpt lat="45.34635" lon="-1.14643">
        <ele>65</ele>
        <time>2025-04-26T09:34:35Z</time>
      </trkpt>
      <trkpt lat="45.34639" lon="-1.14644">
        <ele>66</ele>
        <time>2025-04-26T09:34:36Z</time>
      </trkpt>
      <trkpt lat="45.34643" lon="-1.14644">
        <ele>66</ele>
        <time>2025-04-26T09:34:37Z</time>
      </trkpt>
      <trkpt lat="45.34647" lon="-1.14644">
        <ele>66</ele>
        <time>2025-04-26T09:34:38Z</time>
      </trkpt>
      <trkpt lat="45.34652" lon="-1.14644">
        <ele>67</ele>
        <time>2025-04-26T09:34:39Z</time>
      </trkpt>
      <trkpt lat="45.34656" lon="-1.14644">
        <ele>67</ele>
        <time>2025-04-26T09:34:40Z</time>
      </trkpt>
      <trkpt lat="45.34661" lon="-1.14643">
        <ele>67</ele>
        <time>2025-04-26T09:34:41Z</time>
      </trkpt>
      <trkpt lat="45.34665" lon="-1.14643">
        <ele>67</ele>
        <time>2025-04-26T09:34:42Z</time>
      </trkpt>
      <trkpt lat="45.34669" lon="-1.14644">
        <ele>67</ele>
        <time>2025-04-26T09:34:43Z</time>
      </trkpt>
      <trkpt lat="45.34674" lon="-1.14644">
        <ele>66</ele>
        <time>2025-04-26T09:34:44Z</time>
      </trkpt>
      <trkpt lat="45.34678" lon="-1.14643">
        <ele>66</ele>
        <time>2025-04-26T09:34:45Z</time>
      </trkpt>
      <trkpt lat="45.34682" lon="-1.14642">
        <ele>66</ele>
        <time>2025-04-26T09:34:46Z</time>
      </trkpt>
      <trkpt lat="45.34686" lon="-1.14642">
        <ele>66</ele>
        <time>2025-04-26T09:34:47Z</time>
      </trkpt>
      <trkpt lat="45.34691" lon="-1.14642">
        <ele>66</ele>
        <time>2025-04-26T09:34:48Z</time>
      </trkpt>
      <trkpt lat="45.34695" lon="-1.14642">
        <ele>66</ele>
        <time>2025-04-26T09:34:49Z</time>
      </trkpt>
      <trkpt lat="45.347" lon="-1.14641">
        <ele>66</ele>
        <time>2025-04-26T09:34:50Z</time>
      </trkpt>
      <trkpt lat="45.34704" lon="-1.14641">
        <ele>66</ele>
        <time>2025-04-26T09:34:51Z</time>
      </trkpt>
      <trkpt lat="45.34708" lon="-1.1464">
        <ele>65</ele>
        <time>2025-04-26T09:34:52Z</time>
      </trkpt>
      <trkpt lat="45.34713" lon="-1.1464">
        <ele>65</ele>
        <time>2025-04-26T09:34:53Z</time>
      </trkpt>
      <trkpt lat="45.34717" lon="-1.1464">
        <ele>65</ele>
        <time>2025-04-26T09:34:54Z</time>
      </trkpt>
      <trkpt lat="45.3472" lon="-1.1464">
        <ele>65</ele>
        <time>2025-04-26T09:34:55Z</time>
      </trkpt>
      <trkpt lat="45.34725" lon="-1.14639">
        <ele>65</ele>
        <time>2025-04-26T09:34:56Z</time>
      </trkpt>
      <trkpt lat="45.34729" lon="-1.14639">
        <ele>65</ele>
        <time>2025-04-26T09:34:57Z</time>
      </trkpt>
      <trkpt lat="45.34733" lon="-1.14639">
        <ele>65</ele>
        <time>2025-04-26T09:34:58Z</time>
      </trkpt>
      <trkpt lat="45.34738" lon="-1.14638">
        <ele>65</ele>
        <time>2025-04-26T09:34:59Z</time>
      </trkpt>
      <trkpt lat="45.34742" lon="-1.14638">
        <ele>64</ele>
        <time>2025-04-26T09:35:00Z</time>
      </trkpt>
      <trkpt lat="45.34746" lon="-1.14637">
        <ele>65</ele>
        <time>2025-04-26T09:35:01Z</time>
      </trkpt>
      <trkpt lat="45.3475" lon="-1.14637">
        <ele>65</ele>
        <time>2025-04-26T09:35:02Z</time>
      </trkpt>
      <trkpt lat="45.34754" lon="-1.14637">
        <ele>66</ele>
        <time>2025-04-26T09:35:03Z</time>
      </trkpt>
      <trkpt lat="45.34758" lon="-1.14637">
        <ele>66</ele>
        <time>2025-04-26T09:35:04Z</time>
      </trkpt>
      <trkpt lat="45.34762" lon="-1.14637">
        <ele>66</ele>
        <time>2025-04-26T09:35:05Z</time>
      </trkpt>
      <trkpt lat="45.34767" lon="-1.14637">
        <ele>66</ele>
        <time>2025-04-26T09:35:06Z</time>
      </trkpt>
      <trkpt lat="45.34771" lon="-1.14636">
        <ele>66</ele>
        <time>2025-04-26T09:35:07Z</time>
      </trkpt>
      <trkpt lat="45.34776" lon="-1.14636">
        <ele>66</ele>
        <time>2025-04-26T09:35:08Z</time>
      </trkpt>
      <trkpt lat="45.3478" lon="-1.14635">
        <ele>66</ele>
        <time>2025-04-26T09:35:09Z</time>
      </trkpt>
      <trkpt lat="45.34783" lon="-1.14635">
        <ele>66</ele>
        <time>2025-04-26T09:35:10Z</time>
      </trkpt>
      <trkpt lat="45.34788" lon="-1.14635">
        <ele>65</ele>
        <time>2025-04-26T09:35:11Z</time>
      </trkpt>
      <trkpt lat="45.34791" lon="-1.14634">
        <ele>65</ele>
        <time>2025-04-26T09:35:12Z</time>
      </trkpt>
      <trkpt lat="45.34795" lon="-1.14634">
        <ele>65</ele>
        <time>2025-04-26T09:35:13Z</time>
      </trkpt>
      <trkpt lat="45.34799" lon="-1.14634">
        <ele>65</ele>
        <time>2025-04-26T09:35:14Z</time>
      </trkpt>
      <trkpt lat="45.34803" lon="-1.14634">
        <ele>65</ele>
        <time>2025-04-26T09:35:15Z</time>
      </trkpt>
      <trkpt lat="45.34806" lon="-1.14634">
        <ele>64</ele>
        <time>2025-04-26T09:35:16Z</time>
      </trkpt>
      <trkpt lat="45.3481" lon="-1.14633">
        <ele>64</ele>
        <time>2025-04-26T09:35:17Z</time>
      </trkpt>
      <trkpt lat="45.34814" lon="-1.14633">
        <ele>65</ele>
        <time>2025-04-26T09:35:18Z</time>
      </trkpt>
      <trkpt lat="45.34818" lon="-1.14632">
        <ele>65</ele>
        <time>2025-04-26T09:35:19Z</time>
      </trkpt>
      <trkpt lat="45.34822" lon="-1.14631">
        <ele>65</ele>
        <time>2025-04-26T09:35:20Z</time>
      </trkpt>
      <trkpt lat="45.34825" lon="-1.14631">
        <ele>65</ele>
        <time>2025-04-26T09:35:21Z</time>
      </trkpt>
      <trkpt lat="45.34829" lon="-1.14631">
        <ele>65</ele>
        <time>2025-04-26T09:35:22Z</time>
      </trkpt>
      <trkpt lat="45.34833" lon="-1.14632">
        <ele>65</ele>
        <time>2025-04-26T09:35:23Z</time>
      </trkpt>
      <trkpt lat="45.34837" lon="-1.14631">
        <ele>65</ele>
        <time>2025-04-26T09:35:24Z</time>
      </trkpt>
      <trkpt lat="45.34841" lon="-1.14631">
        <ele>66</ele>
        <time>2025-04-26T09:35:25Z</time>
      </trkpt>
      <trkpt lat="45.34845" lon="-1.1463">
        <ele>67</ele>
        <time>2025-04-26T09:35:26Z</time>
      </trkpt>
      <trkpt lat="45.34849" lon="-1.1463">
        <ele>67</ele>
        <time>2025-04-26T09:35:27Z</time>
      </trkpt>
      <trkpt lat="45.34853" lon="-1.1463">
        <ele>67</ele>
        <time>2025-04-26T09:35:28Z</time>
      </trkpt>
      <trkpt lat="45.34857" lon="-1.1463">
        <ele>68</ele>
        <time>2025-04-26T09:35:29Z</time>
      </trkpt>
      <trkpt lat="45.34861" lon="-1.14629">
        <ele>68</ele>
        <time>2025-04-26T09:35:30Z</time>
      </trkpt>
      <trkpt lat="45.34865" lon="-1.14628">
        <ele>68</ele>
        <time>2025-04-26T09:35:31Z</time>
      </trkpt>
      <trkpt lat="45.34868" lon="-1.14625">
        <ele>68</ele>
        <time>2025-04-26T09:35:32Z</time>
      </trkpt>
      <trkpt lat="45.34872" lon="-1.14621">
        <ele>68</ele>
        <time>2025-04-26T09:35:33Z</time>
      </trkpt>
      <trkpt lat="45.34875" lon="-1.14618">
        <ele>68</ele>
        <time>2025-04-26T09:35:34Z</time>
      </trkpt>
      <trkpt lat="45.34877" lon="-1.14615">
        <ele>67</ele>
        <time>2025-04-26T09:35:35Z</time>
      </trkpt>
      <trkpt lat="45.3488" lon="-1.14611">
        <ele>67</ele>
        <time>2025-04-26T09:35:36Z</time>
      </trkpt>
      <trkpt lat="45.34883" lon="-1.14607">
        <ele>66</ele>
        <time>2025-04-26T09:35:37Z</time>
      </trkpt>
      <trkpt lat="45.34885" lon="-1.14604">
        <ele>66</ele>
        <time>2025-04-26T09:35:38Z</time>
      </trkpt>
      <trkpt lat="45.34889" lon="-1.14603">
        <ele>67</ele>
        <time>2025-04-26T09:35:39Z</time>
      </trkpt>
      <trkpt lat="45.34892" lon="-1.14602">
        <ele>67</ele>
        <time>2025-04-26T09:35:40Z</time>
      </trkpt>
      <trkpt lat="45.34896" lon="-1.14603">
        <ele>67</ele>
        <time>2025-04-26T09:35:41Z</time>
      </trkpt>
      <trkpt lat="45.34899" lon="-1.14604">
        <ele>67</ele>
        <time>2025-04-26T09:35:42Z</time>
      </trkpt>
      <trkpt lat="45.34903" lon="-1.14606">
        <ele>66</ele>
        <time>2025-04-26T09:35:43Z</time>
      </trkpt>
      <trkpt lat="45.34906" lon="-1.14609">
        <ele>66</ele>
        <time>2025-04-26T09:35:44Z</time>
      </trkpt>
      <trkpt lat="45.34909" lon="-1.14613">
        <ele>66</ele>
        <time>2025-04-26T09:35:45Z</time>
      </trkpt>
      <trkpt lat="45.34913" lon="-1.14617">
        <ele>67</ele>
        <time>2025-04-26T09:35:46Z</time>
      </trkpt>
      <trkpt lat="45.34916" lon="-1.14619">
        <ele>66</ele>
        <time>2025-04-26T09:35:47Z</time>
      </trkpt>
      <trkpt lat="45.3492" lon="-1.14622">
        <ele>66</ele>
        <time>2025-04-26T09:35:48Z</time>
      </trkpt>
      <trkpt lat="45.34923" lon="-1.14624">
        <ele>66</ele>
        <time>2025-04-26T09:35:49Z</time>
      </trkpt>
      <trkpt lat="45.34927" lon="-1.14625">
        <ele>67</ele>
        <time>2025-04-26T09:35:50Z</time>
      </trkpt>
      <trkpt lat="45.3493" lon="-1.14626">
        <ele>67</ele>
        <time>2025-04-26T09:35:51Z</time>
      </trkpt>
      <trkpt lat="45.34934" lon="-1.14625">
        <ele>67</ele>
        <time>2025-04-26T09:35:52Z</time>
      </trkpt>
      <trkpt lat="45.34938" lon="-1.14626">
        <ele>68</ele>
        <time>2025-04-26T09:35:53Z</time>
      </trkpt>
      <trkpt lat="45.34942" lon="-1.14625">
        <ele>68</ele>
        <time>2025-04-26T09:35:54Z</time>
      </trkpt>
      <trkpt lat="45.34946" lon="-1.14626">
        <ele>68</ele>
        <time>2025-04-26T09:35:55Z</time>
      </trkpt>
      <trkpt lat="45.3495" lon="-1.14625">
        <ele>69</ele>
        <time>2025-04-26T09:35:56Z</time>
      </trkpt>
      <trkpt lat="45.34954" lon="-1.14624">
        <ele>69</ele>
        <time>2025-04-26T09:35:57Z</time>
      </trkpt>
      <trkpt lat="45.34958" lon="-1.14623">
        <ele>70</ele>
        <time>2025-04-26T09:35:58Z</time>
      </trkpt>
      <trkpt lat="45.34962" lon="-1.14623">
        <ele>69</ele>
        <time>2025-04-26T09:35:59Z</time>
      </trkpt>
      <trkpt lat="45.34965" lon="-1.14623">
        <ele>68</ele>
        <time>2025-04-26T09:36:00Z</time>
      </trkpt>
      <trkpt lat="45.34969" lon="-1.14623">
        <ele>68</ele>
        <time>2025-04-26T09:36:01Z</time>
      </trkpt>
      <trkpt lat="45.34973" lon="-1.14623">
        <ele>69</ele>
        <time>2025-04-26T09:36:02Z</time>
      </trkpt>
      <trkpt lat="45.34977" lon="-1.14622">
        <ele>70</ele>
        <time>2025-04-26T09:36:03Z</time>
      </trkpt>
      <trkpt lat="45.34981" lon="-1.14622">
        <ele>70</ele>
        <time>2025-04-26T09:36:04Z</time>
      </trkpt>
      <trkpt lat="45.34985" lon="-1.14621">
        <ele>69</ele>
        <time>2025-04-26T09:36:05Z</time>
      </trkpt>
      <trkpt lat="45.34989" lon="-1.14621">
        <ele>69</ele>
        <time>2025-04-26T09:36:06Z</time>
      </trkpt>
      <trkpt lat="45.34993" lon="-1.14621">
        <ele>69</ele>
        <time>2025-04-26T09:36:07Z</time>
      </trkpt>
      <trkpt lat="45.34997" lon="-1.14621">
        <ele>68</ele>
        <time>2025-04-26T09:36:08Z</time>
      </trkpt>
      <trkpt lat="45.35001" lon="-1.1462">
        <ele>68</ele>
        <time>2025-04-26T09:36:09Z</time>
      </trkpt>
      <trkpt lat="45.35005" lon="-1.1462">
        <ele>68</ele>
        <time>2025-04-26T09:36:10Z</time>
      </trkpt>
      <trkpt lat="45.35009" lon="-1.1462">
        <ele>68</ele>
        <time>2025-04-26T09:36:11Z</time>
      </trkpt>
      <trkpt lat="45.35012" lon="-1.1462">
        <ele>68</ele>
        <time>2025-04-26T09:36:12Z</time>
      </trkpt>
      <trkpt lat="45.35016" lon="-1.1462">
        <ele>67</ele>
        <time>2025-04-26T09:36:13Z</time>
      </trkpt>
      <trkpt lat="45.3502" lon="-1.14619">
        <ele>67</ele>
        <time>2025-04-26T09:36:14Z</time>
      </trkpt>
      <trkpt lat="45.35024" lon="-1.14619">
        <ele>68</ele>
        <time>2025-04-26T09:36:15Z</time>
      </trkpt>
      <trkpt lat="45.35028" lon="-1.14619">
        <ele>68</ele>
        <time>2025-04-26T09:36:16Z</time>
      </trkpt>
      <trkpt lat="45.35031" lon="-1.14619">
        <ele>68</ele>
        <time>2025-04-26T09:36:17Z</time>
      </trkpt>
      <trkpt lat="45.35035" lon="-1.14619">
        <ele>68</ele>
        <time>2025-04-26T09:36:18Z</time>
      </trkpt>
      <trkpt lat="45.35039" lon="-1.14619">
        <ele>69</ele>
        <time>2025-04-26T09:36:19Z</time>
      </trkpt>
      <trkpt lat="45.35043" lon="-1.14619">
        <ele>69</ele>
        <time>2025-04-26T09:36:20Z</time>
      </trkpt>
      <trkpt lat="45.35047" lon="-1.14619">
        <ele>69</ele>
        <time>2025-04-26T09:36:21Z</time>
      </trkpt>
      <trkpt lat="45.3505" lon="-1.14619">
        <ele>68</ele>
        <time>2025-04-26T09:36:22Z</time>
      </trkpt>
      <trkpt lat="45.35054" lon="-1.14619">
        <ele>68</ele>
        <time>2025-04-26T09:36:23Z</time>
      </trkpt>
      <trkpt lat="45.35058" lon="-1.14618">
        <ele>69</ele>
        <time>2025-04-26T09:36:24Z</time>
      </trkpt>
      <trkpt lat="45.35062" lon="-1.14617">
        <ele>69</ele>
        <time>2025-04-26T09:36:25Z</time>
      </trkpt>
      <trkpt lat="45.35066" lon="-1.14617">
        <ele>69</ele>
        <time>2025-04-26T09:36:26Z</time>
      </trkpt>
      <trkpt lat="45.3507" lon="-1.14616">
        <ele>69</ele>
        <time>2025-04-26T09:36:27Z</time>
      </trkpt>
      <trkpt lat="45.35074" lon="-1.14615">
        <ele>69</ele>
        <time>2025-04-26T09:36:28Z</time>
      </trkpt>
      <trkpt lat="45.35078" lon="-1.14615">
        <ele>68</ele>
        <time>2025-04-26T09:36:29Z</time>
      </trkpt>
      <trkpt lat="45.35082" lon="-1.14615">
        <ele>68</ele>
        <time>2025-04-26T09:36:30Z</time>
      </trkpt>
      <trkpt lat="45.35086" lon="-1.14614">
        <ele>68</ele>
        <time>2025-04-26T09:36:31Z</time>
      </trkpt>
      <trkpt lat="45.3509" lon="-1.14614">
        <ele>67</ele>
        <time>2025-04-26T09:36:32Z</time>
      </trkpt>
      <trkpt lat="45.35094" lon="-1.14614">
        <ele>67</ele>
        <time>2025-04-26T09:36:33Z</time>
      </trkpt>
      <trkpt lat="45.35098" lon="-1.14614">
        <ele>67</ele>
        <time>2025-04-26T09:36:34Z</time>
      </trkpt>
      <trkpt lat="45.35102" lon="-1.14614">
        <ele>67</ele>
        <time>2025-04-26T09:36:35Z</time>
      </trkpt>
      <trkpt lat="45.35106" lon="-1.14615">
        <ele>67</ele>
        <time>2025-04-26T09:36:36Z</time>
      </trkpt>
      <trkpt lat="45.3511" lon="-1.14615">
        <ele>67</ele>
        <time>2025-04-26T09:36:37Z</time>
      </trkpt>
      <trkpt lat="45.35115" lon="-1.14615">
        <ele>67</ele>
        <time>2025-04-26T09:36:38Z</time>
      </trkpt>
      <trkpt lat="45.35119" lon="-1.14615">
        <ele>67</ele>
        <time>2025-04-26T09:36:39Z</time>
      </trkpt>
      <trkpt lat="45.35123" lon="-1.14614">
        <ele>67</ele>
        <time>2025-04-26T09:36:40Z</time>
      </trkpt>
      <trkpt lat="45.35127" lon="-1.14613">
        <ele>67</ele>
        <time>2025-04-26T09:36:41Z</time>
      </trkpt>
      <trkpt lat="45.3513" lon="-1.14611">
        <ele>67</ele>
        <time>2025-04-26T09:36:42Z</time>
      </trkpt>
      <trkpt lat="45.35134" lon="-1.14608">
        <ele>67</ele>
        <time>2025-04-26T09:36:43Z</time>
      </trkpt>
      <trkpt lat="45.35137" lon="-1.14604">
        <ele>66</ele>
        <time>2025-04-26T09:36:44Z</time>
      </trkpt>
      <trkpt lat="45.35141" lon="-1.146">
        <ele>66</ele>
        <time>2025-04-26T09:36:45Z</time>
      </trkpt>
      <trkpt lat="45.35144" lon="-1.14596">
        <ele>66</ele>
        <time>2025-04-26T09:36:46Z</time>
      </trkpt>
      <trkpt lat="45.35147" lon="-1.14592">
        <ele>65</ele>
        <time>2025-04-26T09:36:47Z</time>
      </trkpt>
      <trkpt lat="45.3515" lon="-1.14588">
        <ele>66</ele>
        <time>2025-04-26T09:36:48Z</time>
      </trkpt>
      <trkpt lat="45.35153" lon="-1.14584">
        <ele>66</ele>
        <time>2025-04-26T09:36:49Z</time>
      </trkpt>
      <trkpt lat="45.35156" lon="-1.14581">
        <ele>66</ele>
        <time>2025-04-26T09:36:50Z</time>
      </trkpt>
      <trkpt lat="45.3516" lon="-1.14578">
        <ele>66</ele>
        <time>2025-04-26T09:36:51Z</time>
      </trkpt>
      <trkpt lat="45.35164" lon="-1.14575">
        <ele>66</ele>
        <time>2025-04-26T09:36:52Z</time>
      </trkpt>
      <trkpt lat="45.35167" lon="-1.14573">
        <ele>66</ele>
        <time>2025-04-26T09:36:53Z</time>
      </trkpt>
      <trkpt lat="45.35171" lon="-1.14572">
        <ele>67</ele>
        <time>2025-04-26T09:36:54Z</time>
      </trkpt>
      <trkpt lat="45.35175" lon="-1.1457">
        <ele>67</ele>
        <time>2025-04-26T09:36:55Z</time>
      </trkpt>
      <trkpt lat="45.35179" lon="-1.14569">
        <ele>67</ele>
        <time>2025-04-26T09:36:56Z</time>
      </trkpt>
      <trkpt lat="45.35183" lon="-1.1457">
        <ele>67</ele>
        <time>2025-04-26T09:36:57Z</time>
      </trkpt>
      <trkpt lat="45.35187" lon="-1.1457">
        <ele>67</ele>
        <time>2025-04-26T09:36:58Z</time>
      </trkpt>
      <trkpt lat="45.35191" lon="-1.14569">
        <ele>67</ele>
        <time>2025-04-26T09:36:59Z</time>
      </trkpt>
      <trkpt lat="45.35194" lon="-1.1457">
        <ele>67</ele>
        <time>2025-04-26T09:37:00Z</time>
      </trkpt>
      <trkpt lat="45.35197" lon="-1.14573">
        <ele>67</ele>
        <time>2025-04-26T09:37:01Z</time>
      </trkpt>
      <trkpt lat="45.352" lon="-1.14577">
        <ele>66</ele>
        <time>2025-04-26T09:37:02Z</time>
      </trkpt>
      <trkpt lat="45.35203" lon="-1.1458">
        <ele>66</ele>
        <time>2025-04-26T09:37:03Z</time>
      </trkpt>
      <trkpt lat="45.35205" lon="-1.14584">
        <ele>66</ele>
        <time>2025-04-26T09:37:04Z</time>
      </trkpt>
      <trkpt lat="45.35207" lon="-1.14588">
        <ele>66</ele>
        <time>2025-04-26T09:37:05Z</time>
      </trkpt>
      <trkpt lat="45.3521" lon="-1.14592">
        <ele>66</ele>
        <time>2025-04-26T09:37:06Z</time>
      </trkpt>
      <trkpt lat="45.35213" lon="-1.14595">
        <ele>66</ele>
        <time>2025-04-26T09:37:07Z</time>
      </trkpt>
      <trkpt lat="45.35217" lon="-1.14597">
        <ele>65</ele>
        <time>2025-04-26T09:37:08Z</time>
      </trkpt>
      <trkpt lat="45.35221" lon="-1.14598">
        <ele>65</ele>
        <time>2025-04-26T09:37:09Z</time>
      </trkpt>
      <trkpt lat="45.35225" lon="-1.14598">
        <ele>65</ele>
        <time>2025-04-26T09:37:10Z</time>
      </trkpt>
      <trkpt lat="45.35229" lon="-1.14597">
        <ele>66</ele>
        <time>2025-04-26T09:37:11Z</time>
      </trkpt>
      <trkpt lat="45.35233" lon="-1.14597">
        <ele>65</ele>
        <time>2025-04-26T09:37:12Z</time>
      </trkpt>
      <trkpt lat="45.35237" lon="-1.14596">
        <ele>65</ele>
        <time>2025-04-26T09:37:13Z</time>
      </trkpt>
      <trkpt lat="45.35242" lon="-1.14596">
        <ele>65</ele>
        <time>2025-04-26T09:37:14Z</time>
      </trkpt>
      <trkpt lat="45.35246" lon="-1.14595">
        <ele>65</ele>
        <time>2025-04-26T09:37:15Z</time>
      </trkpt>
      <trkpt lat="45.35251" lon="-1.14595">
        <ele>66</ele>
        <time>2025-04-26T09:37:16Z</time>
      </trkpt>
      <trkpt lat="45.35256" lon="-1.14595">
        <ele>66</ele>
        <time>2025-04-26T09:37:17Z</time>
      </trkpt>
      <trkpt lat="45.3526" lon="-1.14595">
        <ele>66</ele>
        <time>2025-04-26T09:37:18Z</time>
      </trkpt>
      <trkpt lat="45.35264" lon="-1.14595">
        <ele>66</ele>
        <time>2025-04-26T09:37:19Z</time>
      </trkpt>
      <trkpt lat="45.35268" lon="-1.14594">
        <ele>66</ele>
        <time>2025-04-26T09:37:20Z</time>
      </trkpt>
      <trkpt lat="45.35272" lon="-1.14594">
        <ele>66</ele>
        <time>2025-04-26T09:37:21Z</time>
      </trkpt>
      <trkpt lat="45.35276" lon="-1.14594">
        <ele>66</ele>
        <time>2025-04-26T09:37:22Z</time>
      </trkpt>
      <trkpt lat="45.3528" lon="-1.14594">
        <ele>66</ele>
        <time>2025-04-26T09:37:23Z</time>
      </trkpt>
      <trkpt lat="45.35284" lon="-1.14593">
        <ele>66</ele>
        <time>2025-04-26T09:37:24Z</time>
      </trkpt>
      <trkpt lat="45.35288" lon="-1.14593">
        <ele>65</ele>
        <time>2025-04-26T09:37:25Z</time>
      </trkpt>
      <trkpt lat="45.35291" lon="-1.14592">
        <ele>65</ele>
        <time>2025-04-26T09:37:26Z</time>
      </trkpt>
      <trkpt lat="45.35295" lon="-1.14592">
        <ele>65</ele>
        <time>2025-04-26T09:37:27Z</time>
      </trkpt>
      <trkpt lat="45.35299" lon="-1.14591">
        <ele>65</ele>
        <time>2025-04-26T09:37:28Z</time>
      </trkpt>
      <trkpt lat="45.35303" lon="-1.14591">
        <ele>64</ele>
        <time>2025-04-26T09:37:29Z</time>
      </trkpt>
      <trkpt lat="45.35307" lon="-1.14591">
        <ele>64</ele>
        <time>2025-04-26T09:37:30Z</time>
      </trkpt>
      <trkpt lat="45.35311" lon="-1.1459">
        <ele>64</ele>
        <time>2025-04-26T09:37:31Z</time>
      </trkpt>
      <trkpt lat="45.35315" lon="-1.1459">
        <ele>64</ele>
        <time>2025-04-26T09:37:32Z</time>
      </trkpt>
      <trkpt lat="45.35319" lon="-1.14589">
        <ele>64</ele>
        <time>2025-04-26T09:37:33Z</time>
      </trkpt>
      <trkpt lat="45.35323" lon="-1.14589">
        <ele>64</ele>
        <time>2025-04-26T09:37:34Z</time>
      </trkpt>
      <trkpt lat="45.35327" lon="-1.14589">
        <ele>64</ele>
        <time>2025-04-26T09:37:35Z</time>
      </trkpt>
      <trkpt lat="45.3533" lon="-1.14589">
        <ele>65</ele>
        <time>2025-04-26T09:37:36Z</time>
      </trkpt>
      <trkpt lat="45.35334" lon="-1.14589">
        <ele>65</ele>
        <time>2025-04-26T09:37:37Z</time>
      </trkpt>
      <trkpt lat="45.35338" lon="-1.14588">
        <ele>65</ele>
        <time>2025-04-26T09:37:38Z</time>
      </trkpt>
      <trkpt lat="45.35341" lon="-1.14587">
        <ele>66</ele>
        <time>2025-04-26T09:37:39Z</time>
      </trkpt>
      <trkpt lat="45.35345" lon="-1.14587">
        <ele>66</ele>
        <time>2025-04-26T09:37:40Z</time>
      </trkpt>
      <trkpt lat="45.35349" lon="-1.14587">
        <ele>66</ele>
        <time>2025-04-26T09:37:41Z</time>
      </trkpt>
      <trkpt lat="45.35352" lon="-1.14587">
        <ele>65</ele>
        <time>2025-04-26T09:37:42Z</time>
      </trkpt>
      <trkpt lat="45.35356" lon="-1.14587">
        <ele>65</ele>
        <time>2025-04-26T09:37:43Z</time>
      </trkpt>
      <trkpt lat="45.3536" lon="-1.14588">
        <ele>65</ele>
        <time>2025-04-26T09:37:44Z</time>
      </trkpt>
      <trkpt lat="45.35363" lon="-1.14587">
        <ele>64</ele>
        <time>2025-04-26T09:37:45Z</time>
      </trkpt>
      <trkpt lat="45.35368" lon="-1.14587">
        <ele>64</ele>
        <time>2025-04-26T09:37:46Z</time>
      </trkpt>
      <trkpt lat="45.35372" lon="-1.14587">
        <ele>64</ele>
        <time>2025-04-26T09:37:47Z</time>
      </trkpt>
      <trkpt lat="45.35375" lon="-1.14587">
        <ele>64</ele>
        <time>2025-04-26T09:37:48Z</time>
      </trkpt>
      <trkpt lat="45.35379" lon="-1.14587">
        <ele>64</ele>
        <time>2025-04-26T09:37:49Z</time>
      </trkpt>
      <trkpt lat="45.35383" lon="-1.14586">
        <ele>64</ele>
        <time>2025-04-26T09:37:50Z</time>
      </trkpt>
      <trkpt lat="45.35386" lon="-1.14586">
        <ele>64</ele>
        <time>2025-04-26T09:37:51Z</time>
      </trkpt>
      <trkpt lat="45.3539" lon="-1.14585">
        <ele>64</ele>
        <time>2025-04-26T09:37:52Z</time>
      </trkpt>
      <trkpt lat="45.35394" lon="-1.14585">
        <ele>64</ele>
        <time>2025-04-26T09:37:53Z</time>
      </trkpt>
      <trkpt lat="45.35398" lon="-1.14584">
        <ele>64</ele>
        <time>2025-04-26T09:37:54Z</time>
      </trkpt>
      <trkpt lat="45.35401" lon="-1.14584">
        <ele>64</ele>
        <time>2025-04-26T09:37:55Z</time>
      </trkpt>
      <trkpt lat="45.35405" lon="-1.14584">
        <ele>65</ele>
        <time>2025-04-26T09:37:56Z</time>
      </trkpt>
      <trkpt lat="45.35409" lon="-1.14584">
        <ele>65</ele>
        <time>2025-04-26T09:37:57Z</time>
      </trkpt>
      <trkpt lat="45.35412" lon="-1.14584">
        <ele>65</ele>
        <time>2025-04-26T09:37:58Z</time>
      </trkpt>
      <trkpt lat="45.35416" lon="-1.14584">
        <ele>66</ele>
        <time>2025-04-26T09:37:59Z</time>
      </trkpt>
      <trkpt lat="45.3542" lon="-1.14584">
        <ele>66</ele>
        <time>2025-04-26T09:38:00Z</time>
      </trkpt>
      <trkpt lat="45.35423" lon="-1.14584">
        <ele>65</ele>
        <time>2025-04-26T09:38:01Z</time>
      </trkpt>
      <trkpt lat="45.35428" lon="-1.14584">
        <ele>65</ele>
        <time>2025-04-26T09:38:02Z</time>
      </trkpt>
      <trkpt lat="45.35431" lon="-1.14583">
        <ele>66</ele>
        <time>2025-04-26T09:38:03Z</time>
      </trkpt>
      <trkpt lat="45.35435" lon="-1.14583">
        <ele>65</ele>
        <time>2025-04-26T09:38:04Z</time>
      </trkpt>
      <trkpt lat="45.35439" lon="-1.14582">
        <ele>65</ele>
        <time>2025-04-26T09:38:05Z</time>
      </trkpt>
      <trkpt lat="45.35443" lon="-1.1458">
        <ele>66</ele>
        <time>2025-04-26T09:38:06Z</time>
      </trkpt>
      <trkpt lat="45.35446" lon="-1.14577">
        <ele>66</ele>
        <time>2025-04-26T09:38:07Z</time>
      </trkpt>
      <trkpt lat="45.35449" lon="-1.14574">
        <ele>66</ele>
        <time>2025-04-26T09:38:08Z</time>
      </trkpt>
      <trkpt lat="45.35452" lon="-1.14571">
        <ele>66</ele>
        <time>2025-04-26T09:38:09Z</time>
      </trkpt>
      <trkpt lat="45.35456" lon="-1.14568">
        <ele>66</ele>
        <time>2025-04-26T09:38:10Z</time>
      </trkpt>
      <trkpt lat="45.3546" lon="-1.14566">
        <ele>66</ele>
        <time>2025-04-26T09:38:11Z</time>
      </trkpt>
      <trkpt lat="45.35464" lon="-1.14564">
        <ele>66</ele>
        <time>2025-04-26T09:38:12Z</time>
      </trkpt>
      <trkpt lat="45.35467" lon="-1.14563">
        <ele>66</ele>
        <time>2025-04-26T09:38:13Z</time>
      </trkpt>
      <trkpt lat="45.35471" lon="-1.14562">
        <ele>66</ele>
        <time>2025-04-26T09:38:14Z</time>
      </trkpt>
      <trkpt lat="45.35475" lon="-1.14562">
        <ele>66</ele>
        <time>2025-04-26T09:38:15Z</time>
      </trkpt>
      <trkpt lat="45.35478" lon="-1.14562">
        <ele>65</ele>
        <time>2025-04-26T09:38:16Z</time>
      </trkpt>
      <trkpt lat="45.35482" lon="-1.14563">
        <ele>65</ele>
        <time>2025-04-26T09:38:17Z</time>
      </trkpt>
      <trkpt lat="45.35486" lon="-1.14565">
        <ele>65</ele>
        <time>2025-04-26T09:38:18Z</time>
      </trkpt>
      <trkpt lat="45.3549" lon="-1.14568">
        <ele>65</ele>
        <time>2025-04-26T09:38:19Z</time>
      </trkpt>
      <trkpt lat="45.35494" lon="-1.14571">
        <ele>64</ele>
        <time>2025-04-26T09:38:20Z</time>
      </trkpt>
      <trkpt lat="45.35497" lon="-1.14573">
        <ele>64</ele>
        <time>2025-04-26T09:38:21Z</time>
      </trkpt>
      <trkpt lat="45.35501" lon="-1.14575">
        <ele>64</ele>
        <time>2025-04-26T09:38:22Z</time>
      </trkpt>
      <trkpt lat="45.35504" lon="-1.14576">
        <ele>64</ele>
        <time>2025-04-26T09:38:23Z</time>
      </trkpt>
      <trkpt lat="45.35508" lon="-1.14577">
        <ele>65</ele>
        <time>2025-04-26T09:38:24Z</time>
      </trkpt>
      <trkpt lat="45.35511" lon="-1.14578">
        <ele>66</ele>
        <time>2025-04-26T09:38:25Z</time>
      </trkpt>
      <trkpt lat="45.35514" lon="-1.14577">
        <ele>66</ele>
        <time>2025-04-26T09:38:26Z</time>
      </trkpt>
      <trkpt lat="45.35518" lon="-1.14577">
        <ele>67</ele>
        <time>2025-04-26T09:38:27Z</time>
      </trkpt>
      <trkpt lat="45.35521" lon="-1.14577">
        <ele>68</ele>
        <time>2025-04-26T09:38:28Z</time>
      </trkpt>
      <trkpt lat="45.35524" lon="-1.14576">
        <ele>68</ele>
        <time>2025-04-26T09:38:29Z</time>
      </trkpt>
      <trkpt lat="45.35528" lon="-1.14576">
        <ele>69</ele>
        <time>2025-04-26T09:38:30Z</time>
      </trkpt>
      <trkpt lat="45.35531" lon="-1.14576">
        <ele>69</ele>
        <time>2025-04-26T09:38:31Z</time>
      </trkpt>
      <trkpt lat="45.35535" lon="-1.14576">
        <ele>69</ele>
        <time>2025-04-26T09:38:32Z</time>
      </trkpt>
      <trkpt lat="45.35539" lon="-1.14575">
        <ele>69</ele>
        <time>2025-04-26T09:38:33Z</time>
      </trkpt>
      <trkpt lat="45.35543" lon="-1.14575">
        <ele>68</ele>
        <time>2025-04-26T09:38:34Z</time>
      </trkpt>
      <trkpt lat="45.35547" lon="-1.14575">
        <ele>68</ele>
        <time>2025-04-26T09:38:35Z</time>
      </trkpt>
      <trkpt lat="45.35551" lon="-1.14574">
        <ele>68</ele>
        <time>2025-04-26T09:38:36Z</time>
      </trkpt>
      <trkpt lat="45.35555" lon="-1.14574">
        <ele>67</ele>
        <time>2025-04-26T09:38:37Z</time>
      </trkpt>
      <trkpt lat="45.35559" lon="-1.14574">
        <ele>67</ele>
        <time>2025-04-26T09:38:38Z</time>
      </trkpt>
      <trkpt lat="45.35563" lon="-1.14574">
        <ele>67</ele>
        <time>2025-04-26T09:38:39Z</time>
      </trkpt>
      <trkpt lat="45.35567" lon="-1.14574">
        <ele>67</ele>
        <time>2025-04-26T09:38:40Z</time>
      </trkpt>
      <trkpt lat="45.35571" lon="-1.14573">
        <ele>67</ele>
        <time>2025-04-26T09:38:41Z</time>
      </trkpt>
      <trkpt lat="45.35575" lon="-1.14573">
        <ele>67</ele>
        <time>2025-04-26T09:38:42Z</time>
      </trkpt>
      <trkpt lat="45.35578" lon="-1.14573">
        <ele>67</ele>
        <time>2025-04-26T09:38:43Z</time>
      </trkpt>
      <trkpt lat="45.35582" lon="-1.14573">
        <ele>67</ele>
        <time>2025-04-26T09:38:44Z</time>
      </trkpt>
      <trkpt lat="45.35587" lon="-1.14573">
        <ele>67</ele>
        <time>2025-04-26T09:38:45Z</time>
      </trkpt>
      <trkpt lat="45.35591" lon="-1.14573">
        <ele>67</ele>
        <time>2025-04-26T09:38:46Z</time>
      </trkpt>
      <trkpt lat="45.35595" lon="-1.14572">
        <ele>67</ele>
        <time>2025-04-26T09:38:47Z</time>
      </trkpt>
      <trkpt lat="45.356" lon="-1.14571">
        <ele>68</ele>
        <time>2025-04-26T09:38:48Z</time>
      </trkpt>
      <trkpt lat="45.35604" lon="-1.14571">
        <ele>67</ele>
        <time>2025-04-26T09:38:49Z</time>
      </trkpt>
      <trkpt lat="45.35608" lon="-1.1457">
        <ele>67</ele>
        <time>2025-04-26T09:38:50Z</time>
      </trkpt>
      <trkpt lat="45.35612" lon="-1.1457">
        <ele>67</ele>
        <time>2025-04-26T09:38:51Z</time>
      </trkpt>
      <trkpt lat="45.35617" lon="-1.1457">
        <ele>67</ele>
        <time>2025-04-26T09:38:52Z</time>
      </trkpt>
      <trkpt lat="45.35622" lon="-1.1457">
        <ele>67</ele>
        <time>2025-04-26T09:38:53Z</time>
      </trkpt>
      <trkpt lat="45.35626" lon="-1.14569">
        <ele>67</ele>
        <time>2025-04-26T09:38:54Z</time>
      </trkpt>
      <trkpt lat="45.3563" lon="-1.14568">
        <ele>67</ele>
        <time>2025-04-26T09:38:55Z</time>
      </trkpt>
      <trkpt lat="45.35635" lon="-1.14569">
        <ele>68</ele>
        <time>2025-04-26T09:38:56Z</time>
      </trkpt>
      <trkpt lat="45.35639" lon="-1.14569">
        <ele>68</ele>
        <time>2025-04-26T09:38:57Z</time>
      </trkpt>
      <trkpt lat="45.35643" lon="-1.14569">
        <ele>68</ele>
        <time>2025-04-26T09:38:58Z</time>
      </trkpt>
      <trkpt lat="45.35647" lon="-1.14568">
        <ele>68</ele>
        <time>2025-04-26T09:38:59Z</time>
      </trkpt>
      <trkpt lat="45.35651" lon="-1.14568">
        <ele>68</ele>
        <time>2025-04-26T09:39:00Z</time>
      </trkpt>
      <trkpt lat="45.35656" lon="-1.14568">
        <ele>68</ele>
        <time>2025-04-26T09:39:01Z</time>
      </trkpt>
      <trkpt lat="45.3566" lon="-1.14567">
        <ele>67</ele>
        <time>2025-04-26T09:39:02Z</time>
      </trkpt>
      <trkpt lat="45.35665" lon="-1.14567">
        <ele>67</ele>
        <time>2025-04-26T09:39:03Z</time>
      </trkpt>
      <trkpt lat="45.35669" lon="-1.14566">
        <ele>67</ele>
        <time>2025-04-26T09:39:04Z</time>
      </trkpt>
      <trkpt lat="45.35674" lon="-1.14566">
        <ele>67</ele>
        <time>2025-04-26T09:39:05Z</time>
      </trkpt>
      <trkpt lat="45.35678" lon="-1.14566">
        <ele>67</ele>
        <time>2025-04-26T09:39:06Z</time>
      </trkpt>
      <trkpt lat="45.35683" lon="-1.14565">
        <ele>68</ele>
        <time>2025-04-26T09:39:07Z</time>
      </trkpt>
      <trkpt lat="45.35687" lon="-1.14565">
        <ele>68</ele>
        <time>2025-04-26T09:39:08Z</time>
      </trkpt>
      <trkpt lat="45.35691" lon="-1.14565">
        <ele>68</ele>
        <time>2025-04-26T09:39:09Z</time>
      </trkpt>
      <trkpt lat="45.35694" lon="-1.14565">
        <ele>69</ele>
        <time>2025-04-26T09:39:10Z</time>
      </trkpt>
      <trkpt lat="45.35699" lon="-1.14565">
        <ele>69</ele>
        <time>2025-04-26T09:39:11Z</time>
      </trkpt>
      <trkpt lat="45.35703" lon="-1.14565">
        <ele>68</ele>
        <time>2025-04-26T09:39:12Z</time>
      </trkpt>
      <trkpt lat="45.35707" lon="-1.14565">
        <ele>67</ele>
        <time>2025-04-26T09:39:13Z</time>
      </trkpt>
      <trkpt lat="45.35712" lon="-1.14564">
        <ele>67</ele>
        <time>2025-04-26T09:39:14Z</time>
      </trkpt>
      <trkpt lat="45.35717" lon="-1.14564">
        <ele>67</ele>
        <time>2025-04-26T09:39:15Z</time>
      </trkpt>
      <trkpt lat="45.35722" lon="-1.14564">
        <ele>66</ele>
        <time>2025-04-26T09:39:16Z</time>
      </trkpt>
      <trkpt lat="45.35726" lon="-1.14564">
        <ele>67</ele>
        <time>2025-04-26T09:39:17Z</time>
      </trkpt>
      <trkpt lat="45.3573" lon="-1.14562">
        <ele>67</ele>
        <time>2025-04-26T09:39:18Z</time>
      </trkpt>
      <trkpt lat="45.35734" lon="-1.14559">
        <ele>67</ele>
        <time>2025-04-26T09:39:19Z</time>
      </trkpt>
      <trkpt lat="45.35737" lon="-1.14555">
        <ele>68</ele>
        <time>2025-04-26T09:39:20Z</time>
      </trkpt>
      <trkpt lat="45.3574" lon="-1.14552">
        <ele>68</ele>
        <time>2025-04-26T09:39:21Z</time>
      </trkpt>
      <trkpt lat="45.35743" lon="-1.14549">
        <ele>69</ele>
        <time>2025-04-26T09:39:22Z</time>
      </trkpt>
      <trkpt lat="45.35746" lon="-1.14547">
        <ele>68</ele>
        <time>2025-04-26T09:39:23Z</time>
      </trkpt>
      <trkpt lat="45.35749" lon="-1.14545">
        <ele>68</ele>
        <time>2025-04-26T09:39:24Z</time>
      </trkpt>
      <trkpt lat="45.35752" lon="-1.14544">
        <ele>68</ele>
        <time>2025-04-26T09:39:25Z</time>
      </trkpt>
      <trkpt lat="45.35755" lon="-1.14543">
        <ele>67</ele>
        <time>2025-04-26T09:39:26Z</time>
      </trkpt>
      <trkpt lat="45.35758" lon="-1.14543">
        <ele>67</ele>
        <time>2025-04-26T09:39:27Z</time>
      </trkpt>
      <trkpt lat="45.35761" lon="-1.14543">
        <ele>66</ele>
        <time>2025-04-26T09:39:28Z</time>
      </trkpt>
      <trkpt lat="45.35764" lon="-1.14543">
        <ele>66</ele>
        <time>2025-04-26T09:39:29Z</time>
      </trkpt>
      <trkpt lat="45.35767" lon="-1.14544">
        <ele>67</ele>
        <time>2025-04-26T09:39:30Z</time>
      </trkpt>
      <trkpt lat="45.3577" lon="-1.14545">
        <ele>67</ele>
        <time>2025-04-26T09:39:31Z</time>
      </trkpt>
      <trkpt lat="45.35773" lon="-1.14547">
        <ele>66</ele>
        <time>2025-04-26T09:39:32Z</time>
      </trkpt>
      <trkpt lat="45.35776" lon="-1.14549">
        <ele>66</ele>
        <time>2025-04-26T09:39:33Z</time>
      </trkpt>
      <trkpt lat="45.35779" lon="-1.14551">
        <ele>66</ele>
        <time>2025-04-26T09:39:34Z</time>
      </trkpt>
      <trkpt lat="45.35781" lon="-1.14554">
        <ele>66</ele>
        <time>2025-04-26T09:39:35Z</time>
      </trkpt>
      <trkpt lat="45.35784" lon="-1.14555">
        <ele>66</ele>
        <time>2025-04-26T09:39:36Z</time>
      </trkpt>
      <trkpt lat="45.35787" lon="-1.14557">
        <ele>66</ele>
        <time>2025-04-26T09:39:37Z</time>
      </trkpt>
      <trkpt lat="45.35791" lon="-1.14557">
        <ele>66</ele>
        <time>2025-04-26T09:39:38Z</time>
      </trkpt>
      <trkpt lat="45.35794" lon="-1.14557">
        <ele>66</ele>
        <time>2025-04-26T09:39:39Z</time>
      </trkpt>
      <trkpt lat="45.35798" lon="-1.14557">
        <ele>67</ele>
        <time>2025-04-26T09:39:40Z</time>
      </trkpt>
      <trkpt lat="45.35802" lon="-1.14557">
        <ele>67</ele>
        <time>2025-04-26T09:39:41Z</time>
      </trkpt>
      <trkpt lat="45.35805" lon="-1.14556">
        <ele>67</ele>
        <time>2025-04-26T09:39:42Z</time>
      </trkpt>
      <trkpt lat="45.35809" lon="-1.14556">
        <ele>68</ele>
        <time>2025-04-26T09:39:43Z</time>
      </trkpt>
      <trkpt lat="45.35813" lon="-1.14556">
        <ele>68</ele>
        <time>2025-04-26T09:39:44Z</time>
      </trkpt>
      <trkpt lat="45.35817" lon="-1.14555">
        <ele>69</ele>
        <time>2025-04-26T09:39:45Z</time>
      </trkpt>
      <trkpt lat="45.3582" lon="-1.14555">
        <ele>69</ele>
        <time>2025-04-26T09:39:46Z</time>
      </trkpt>
      <trkpt lat="45.35824" lon="-1.14555">
        <ele>69</ele>
        <time>2025-04-26T09:39:47Z</time>
      </trkpt>
      <trkpt lat="45.35828" lon="-1.14554">
        <ele>68</ele>
        <time>2025-04-26T09:39:48Z</time>
      </trkpt>
      <trkpt lat="45.35831" lon="-1.14554">
        <ele>69</ele>
        <time>2025-04-26T09:39:49Z</time>
      </trkpt>
      <trkpt lat="45.35836" lon="-1.14553">
        <ele>70</ele>
        <time>2025-04-26T09:39:50Z</time>
      </trkpt>
      <trkpt lat="45.3584" lon="-1.14553">
        <ele>70</ele>
        <time>2025-04-26T09:39:51Z</time>
      </trkpt>
      <trkpt lat="45.35844" lon="-1.14553">
        <ele>70</ele>
        <time>2025-04-26T09:39:52Z</time>
      </trkpt>
      <trkpt lat="45.35848" lon="-1.14553">
        <ele>71</ele>
        <time>2025-04-26T09:39:53Z</time>
      </trkpt>
      <trkpt lat="45.35852" lon="-1.14552">
        <ele>71</ele>
        <time>2025-04-26T09:39:54Z</time>
      </trkpt>
      <trkpt lat="45.35857" lon="-1.14552">
        <ele>70</ele>
        <time>2025-04-26T09:39:55Z</time>
      </trkpt>
      <trkpt lat="45.35861" lon="-1.14552">
        <ele>69</ele>
        <time>2025-04-26T09:39:56Z</time>
      </trkpt>
      <trkpt lat="45.35865" lon="-1.14551">
        <ele>69</ele>
        <time>2025-04-26T09:39:57Z</time>
      </trkpt>
      <trkpt lat="45.35869" lon="-1.14551">
        <ele>68</ele>
        <time>2025-04-26T09:39:58Z</time>
      </trkpt>
      <trkpt lat="45.35873" lon="-1.14552">
        <ele>68</ele>
        <time>2025-04-26T09:39:59Z</time>
      </trkpt>
      <trkpt lat="45.35877" lon="-1.14552">
        <ele>68</ele>
        <time>2025-04-26T09:40:00Z</time>
      </trkpt>
      <trkpt lat="45.35881" lon="-1.14551">
        <ele>68</ele>
        <time>2025-04-26T09:40:01Z</time>
      </trkpt>
      <trkpt lat="45.35885" lon="-1.14551">
        <ele>68</ele>
        <time>2025-04-26T09:40:02Z</time>
      </trkpt>
      <trkpt lat="45.35889" lon="-1.1455">
        <ele>68</ele>
        <time>2025-04-26T09:40:03Z</time>
      </trkpt>
      <trkpt lat="45.35893" lon="-1.1455">
        <ele>68</ele>
        <time>2025-04-26T09:40:04Z</time>
      </trkpt>
      <trkpt lat="45.35898" lon="-1.1455">
        <ele>68</ele>
        <time>2025-04-26T09:40:05Z</time>
      </trkpt>
      <trkpt lat="45.35902" lon="-1.1455">
        <ele>68</ele>
        <time>2025-04-26T09:40:06Z</time>
      </trkpt>
      <trkpt lat="45.35906" lon="-1.14549">
        <ele>68</ele>
        <time>2025-04-26T09:40:07Z</time>
      </trkpt>
      <trkpt lat="45.35911" lon="-1.14548">
        <ele>68</ele>
        <time>2025-04-26T09:40:08Z</time>
      </trkpt>
      <trkpt lat="45.35915" lon="-1.14547">
        <ele>67</ele>
        <time>2025-04-26T09:40:09Z</time>
      </trkpt>
      <trkpt lat="45.3592" lon="-1.14548">
        <ele>67</ele>
        <time>2025-04-26T09:40:10Z</time>
      </trkpt>
      <trkpt lat="45.35924" lon="-1.14547">
        <ele>67</ele>
        <time>2025-04-26T09:40:11Z</time>
      </trkpt>
      <trkpt lat="45.35928" lon="-1.14546">
        <ele>67</ele>
        <time>2025-04-26T09:40:12Z</time>
      </trkpt>
      <trkpt lat="45.35932" lon="-1.14545">
        <ele>67</ele>
        <time>2025-04-26T09:40:13Z</time>
      </trkpt>
      <trkpt lat="45.35936" lon="-1.14545">
        <ele>67</ele>
        <time>2025-04-26T09:40:14Z</time>
      </trkpt>
      <trkpt lat="45.3594" lon="-1.14545">
        <ele>67</ele>
        <time>2025-04-26T09:40:15Z</time>
      </trkpt>
      <trkpt lat="45.35944" lon="-1.14544">
        <ele>68</ele>
        <time>2025-04-26T09:40:16Z</time>
      </trkpt>
      <trkpt lat="45.35948" lon="-1.14544">
        <ele>67</ele>
        <time>2025-04-26T09:40:17Z</time>
      </trkpt>
      <trkpt lat="45.35952" lon="-1.14544">
        <ele>68</ele>
        <time>2025-04-26T09:40:18Z</time>
      </trkpt>
      <trkpt lat="45.35957" lon="-1.14544">
        <ele>68</ele>
        <time>2025-04-26T09:40:19Z</time>
      </trkpt>
      <trkpt lat="45.35961" lon="-1.14544">
        <ele>69</ele>
        <time>2025-04-26T09:40:20Z</time>
      </trkpt>
      <trkpt lat="45.35965" lon="-1.14544">
        <ele>70</ele>
        <time>2025-04-26T09:40:21Z</time>
      </trkpt>
      <trkpt lat="45.35969" lon="-1.14544">
        <ele>70</ele>
        <time>2025-04-26T09:40:22Z</time>
      </trkpt>
      <trkpt lat="45.35974" lon="-1.14544">
        <ele>70</ele>
        <time>2025-04-26T09:40:23Z</time>
      </trkpt>
      <trkpt lat="45.35978" lon="-1.14545">
        <ele>70</ele>
        <time>2025-04-26T09:40:24Z</time>
      </trkpt>
      <trkpt lat="45.35982" lon="-1.14545">
        <ele>71</ele>
        <time>2025-04-26T09:40:25Z</time>
      </trkpt>
      <trkpt lat="45.35986" lon="-1.14544">
        <ele>71</ele>
        <time>2025-04-26T09:40:26Z</time>
      </trkpt>
      <trkpt lat="45.3599" lon="-1.14544">
        <ele>71</ele>
        <time>2025-04-26T09:40:27Z</time>
      </trkpt>
      <trkpt lat="45.35994" lon="-1.14544">
        <ele>71</ele>
        <time>2025-04-26T09:40:28Z</time>
      </trkpt>
      <trkpt lat="45.35998" lon="-1.14544">
        <ele>71</ele>
        <time>2025-04-26T09:40:29Z</time>
      </trkpt>
      <trkpt lat="45.36003" lon="-1.14544">
        <ele>71</ele>
        <time>2025-04-26T09:40:30Z</time>
      </trkpt>
      <trkpt lat="45.36008" lon="-1.14543">
        <ele>72</ele>
        <time>2025-04-26T09:40:31Z</time>
      </trkpt>
      <trkpt lat="45.36013" lon="-1.14543">
        <ele>72</ele>
        <time>2025-04-26T09:40:32Z</time>
      </trkpt>
      <trkpt lat="45.36018" lon="-1.14542">
        <ele>72</ele>
        <time>2025-04-26T09:40:33Z</time>
      </trkpt>
      <trkpt lat="45.36023" lon="-1.1454">
        <ele>72</ele>
        <time>2025-04-26T09:40:34Z</time>
      </trkpt>
      <trkpt lat="45.36027" lon="-1.14536">
        <ele>72</ele>
        <time>2025-04-26T09:40:35Z</time>
      </trkpt>
      <trkpt lat="45.3603" lon="-1.14532">
        <ele>71</ele>
        <time>2025-04-26T09:40:36Z</time>
      </trkpt>
      <trkpt lat="45.36034" lon="-1.14529">
        <ele>71</ele>
        <time>2025-04-26T09:40:37Z</time>
      </trkpt>
      <trkpt lat="45.36038" lon="-1.14527">
        <ele>71</ele>
        <time>2025-04-26T09:40:38Z</time>
      </trkpt>
      <trkpt lat="45.36042" lon="-1.14525">
        <ele>70</ele>
        <time>2025-04-26T09:40:39Z</time>
      </trkpt>
      <trkpt lat="45.36046" lon="-1.14523">
        <ele>70</ele>
        <time>2025-04-26T09:40:40Z</time>
      </trkpt>
      <trkpt lat="45.36049" lon="-1.14523">
        <ele>70</ele>
        <time>2025-04-26T09:40:41Z</time>
      </trkpt>
      <trkpt lat="45.36053" lon="-1.14522">
        <ele>69</ele>
        <time>2025-04-26T09:40:42Z</time>
      </trkpt>
      <trkpt lat="45.36057" lon="-1.14523">
        <ele>69</ele>
        <time>2025-04-26T09:40:43Z</time>
      </trkpt>
      <trkpt lat="45.36061" lon="-1.14524">
        <ele>69</ele>
        <time>2025-04-26T09:40:44Z</time>
      </trkpt>
      <trkpt lat="45.36065" lon="-1.14526">
        <ele>68</ele>
        <time>2025-04-26T09:40:45Z</time>
      </trkpt>
      <trkpt lat="45.36069" lon="-1.14529">
        <ele>68</ele>
        <time>2025-04-26T09:40:46Z</time>
      </trkpt>
      <trkpt lat="45.36072" lon="-1.14531">
        <ele>69</ele>
        <time>2025-04-26T09:40:47Z</time>
      </trkpt>
      <trkpt lat="45.36076" lon="-1.14533">
        <ele>68</ele>
        <time>2025-04-26T09:40:48Z</time>
      </trkpt>
      <trkpt lat="45.3608" lon="-1.14534">
        <ele>68</ele>
        <time>2025-04-26T09:40:49Z</time>
      </trkpt>
      <trkpt lat="45.36084" lon="-1.14534">
        <ele>68</ele>
        <time>2025-04-26T09:40:50Z</time>
      </trkpt>
      <trkpt lat="45.36088" lon="-1.14534">
        <ele>69</ele>
        <time>2025-04-26T09:40:51Z</time>
      </trkpt>
      <trkpt lat="45.36092" lon="-1.14533">
        <ele>68</ele>
        <time>2025-04-26T09:40:52Z</time>
      </trkpt>
      <trkpt lat="45.36095" lon="-1.14534">
        <ele>69</ele>
        <time>2025-04-26T09:40:53Z</time>
      </trkpt>
      <trkpt lat="45.36099" lon="-1.14534">
        <ele>69</ele>
        <time>2025-04-26T09:40:54Z</time>
      </trkpt>
      <trkpt lat="45.36102" lon="-1.14534">
        <ele>69</ele>
        <time>2025-04-26T09:40:55Z</time>
      </trkpt>
      <trkpt lat="45.36107" lon="-1.14535">
        <ele>70</ele>
        <time>2025-04-26T09:40:56Z</time>
      </trkpt>
      <trkpt lat="45.36111" lon="-1.14534">
        <ele>70</ele>
        <time>2025-04-26T09:40:57Z</time>
      </trkpt>
      <trkpt lat="45.36114" lon="-1.14534">
        <ele>71</ele>
        <time>2025-04-26T09:40:58Z</time>
      </trkpt>
      <trkpt lat="45.36118" lon="-1.14534">
        <ele>72</ele>
        <time>2025-04-26T09:40:59Z</time>
      </trkpt>
      <trkpt lat="45.36122" lon="-1.14533">
        <ele>72</ele>
        <time>2025-04-26T09:41:00Z</time>
      </trkpt>
      <trkpt lat="45.36126" lon="-1.14533">
        <ele>72</ele>
        <time>2025-04-26T09:41:01Z</time>
      </trkpt>
      <trkpt lat="45.3613" lon="-1.14533">
        <ele>72</ele>
        <time>2025-04-26T09:41:02Z</time>
      </trkpt>
      <trkpt lat="45.36134" lon="-1.14533">
        <ele>72</ele>
        <time>2025-04-26T09:41:03Z</time>
      </trkpt>
      <trkpt lat="45.36138" lon="-1.14532">
        <ele>71</ele>
        <time>2025-04-26T09:41:04Z</time>
      </trkpt>
      <trkpt lat="45.36142" lon="-1.14532">
        <ele>71</ele>
        <time>2025-04-26T09:41:05Z</time>
      </trkpt>
      <trkpt lat="45.36146" lon="-1.14532">
        <ele>71</ele>
        <time>2025-04-26T09:41:06Z</time>
      </trkpt>
      <trkpt lat="45.36151" lon="-1.14532">
        <ele>72</ele>
        <time>2025-04-26T09:41:07Z</time>
      </trkpt>
      <trkpt lat="45.36155" lon="-1.14531">
        <ele>71</ele>
        <time>2025-04-26T09:41:08Z</time>
      </trkpt>
      <trkpt lat="45.3616" lon="-1.14531">
        <ele>71</ele>
        <time>2025-04-26T09:41:09Z</time>
      </trkpt>
      <trkpt lat="45.36164" lon="-1.14531">
        <ele>71</ele>
        <time>2025-04-26T09:41:10Z</time>
      </trkpt>
      <trkpt lat="45.36169" lon="-1.1453">
        <ele>71</ele>
        <time>2025-04-26T09:41:11Z</time>
      </trkpt>
      <trkpt lat="45.36173" lon="-1.14529">
        <ele>71</ele>
        <time>2025-04-26T09:41:12Z</time>
      </trkpt>
      <trkpt lat="45.36177" lon="-1.14529">
        <ele>70</ele>
        <time>2025-04-26T09:41:13Z</time>
      </trkpt>
      <trkpt lat="45.36181" lon="-1.14529">
        <ele>70</ele>
        <time>2025-04-26T09:41:14Z</time>
      </trkpt>
      <trkpt lat="45.36186" lon="-1.14529">
        <ele>69</ele>
        <time>2025-04-26T09:41:15Z</time>
      </trkpt>
      <trkpt lat="45.36191" lon="-1.14529">
        <ele>69</ele>
        <time>2025-04-26T09:41:16Z</time>
      </trkpt>
      <trkpt lat="45.36195" lon="-1.14528">
        <ele>69</ele>
        <time>2025-04-26T09:41:17Z</time>
      </trkpt>
      <trkpt lat="45.362" lon="-1.14528">
        <ele>69</ele>
        <time>2025-04-26T09:41:18Z</time>
      </trkpt>
      <trkpt lat="45.36204" lon="-1.14528">
        <ele>69</ele>
        <time>2025-04-26T09:41:19Z</time>
      </trkpt>
      <trkpt lat="45.36208" lon="-1.14528">
        <ele>69</ele>
        <time>2025-04-26T09:41:20Z</time>
      </trkpt>
      <trkpt lat="45.36213" lon="-1.14528">
        <ele>68</ele>
        <time>2025-04-26T09:41:21Z</time>
      </trkpt>
      <trkpt lat="45.36217" lon="-1.14527">
        <ele>68</ele>
        <time>2025-04-26T09:41:22Z</time>
      </trkpt>
      <trkpt lat="45.36221" lon="-1.14526">
        <ele>68</ele>
        <time>2025-04-26T09:41:23Z</time>
      </trkpt>
      <trkpt lat="45.36225" lon="-1.14526">
        <ele>67</ele>
        <time>2025-04-26T09:41:24Z</time>
      </trkpt>
      <trkpt lat="45.3623" lon="-1.14525">
        <ele>67</ele>
        <time>2025-04-26T09:41:25Z</time>
      </trkpt>
      <trkpt lat="45.36235" lon="-1.14524">
        <ele>67</ele>
        <time>2025-04-26T09:41:26Z</time>
      </trkpt>
      <trkpt lat="45.36239" lon="-1.14523">
        <ele>67</ele>
        <time>2025-04-26T09:41:27Z</time>
      </trkpt>
      <trkpt lat="45.36244" lon="-1.14523">
        <ele>66</ele>
        <time>2025-04-26T09:41:28Z</time>
      </trkpt>
      <trkpt lat="45.36248" lon="-1.14522">
        <ele>66</ele>
        <time>2025-04-26T09:41:29Z</time>
      </trkpt>
      <trkpt lat="45.36252" lon="-1.14522">
        <ele>66</ele>
        <time>2025-04-26T09:41:30Z</time>
      </trkpt>
      <trkpt lat="45.36256" lon="-1.14521">
        <ele>65</ele>
        <time>2025-04-26T09:41:31Z</time>
      </trkpt>
      <trkpt lat="45.36261" lon="-1.1452">
        <ele>65</ele>
        <time>2025-04-26T09:41:32Z</time>
      </trkpt>
      <trkpt lat="45.36265" lon="-1.1452">
        <ele>64</ele>
        <time>2025-04-26T09:41:33Z</time>
      </trkpt>
      <trkpt lat="45.3627" lon="-1.1452">
        <ele>64</ele>
        <time>2025-04-26T09:41:34Z</time>
      </trkpt>
      <trkpt lat="45.36274" lon="-1.1452">
        <ele>64</ele>
        <time>2025-04-26T09:41:35Z</time>
      </trkpt>
      <trkpt lat="45.36278" lon="-1.1452">
        <ele>63</ele>
        <time>2025-04-26T09:41:36Z</time>
      </trkpt>
      <trkpt lat="45.36282" lon="-1.14519">
        <ele>64</ele>
        <time>2025-04-26T09:41:37Z</time>
      </trkpt>
      <trkpt lat="45.36286" lon="-1.14519">
        <ele>64</ele>
        <time>2025-04-26T09:41:38Z</time>
      </trkpt>
      <trkpt lat="45.36291" lon="-1.14519">
        <ele>64</ele>
        <time>2025-04-26T09:41:39Z</time>
      </trkpt>
      <trkpt lat="45.36295" lon="-1.14519">
        <ele>64</ele>
        <time>2025-04-26T09:41:40Z</time>
      </trkpt>
      <trkpt lat="45.363" lon="-1.14518">
        <ele>65</ele>
        <time>2025-04-26T09:41:41Z</time>
      </trkpt>
      <trkpt lat="45.36304" lon="-1.14517">
        <ele>65</ele>
        <time>2025-04-26T09:41:42Z</time>
      </trkpt>
      <trkpt lat="45.36308" lon="-1.14516">
        <ele>65</ele>
        <time>2025-04-26T09:41:43Z</time>
      </trkpt>
      <trkpt lat="45.36312" lon="-1.14516">
        <ele>66</ele>
        <time>2025-04-26T09:41:44Z</time>
      </trkpt>
      <trkpt lat="45.36316" lon="-1.14514">
        <ele>67</ele>
        <time>2025-04-26T09:41:45Z</time>
      </trkpt>
      <trkpt lat="45.3632" lon="-1.14511">
        <ele>68</ele>
        <time>2025-04-26T09:41:46Z</time>
      </trkpt>
      <trkpt lat="45.36324" lon="-1.14508">
        <ele>68</ele>
        <time>2025-04-26T09:41:47Z</time>
      </trkpt>
      <trkpt lat="45.36327" lon="-1.14504">
        <ele>68</ele>
        <time>2025-04-26T09:41:48Z</time>
      </trkpt>
      <trkpt lat="45.36331" lon="-1.145">
        <ele>68</ele>
        <time>2025-04-26T09:41:49Z</time>
      </trkpt>
      <trkpt lat="45.36335" lon="-1.14497">
        <ele>68</ele>
        <time>2025-04-26T09:41:50Z</time>
      </trkpt>
      <trkpt lat="45.36339" lon="-1.14496">
        <ele>67</ele>
        <time>2025-04-26T09:41:51Z</time>
      </trkpt>
      <trkpt lat="45.36343" lon="-1.14495">
        <ele>67</ele>
        <time>2025-04-26T09:41:52Z</time>
      </trkpt>
      <trkpt lat="45.36347" lon="-1.14495">
        <ele>68</ele>
        <time>2025-04-26T09:41:53Z</time>
      </trkpt>
      <trkpt lat="45.36351" lon="-1.14497">
        <ele>67</ele>
        <time>2025-04-26T09:41:54Z</time>
      </trkpt>
      <trkpt lat="45.36354" lon="-1.14499">
        <ele>67</ele>
        <time>2025-04-26T09:41:55Z</time>
      </trkpt>
      <trkpt lat="45.36358" lon="-1.14503">
        <ele>66</ele>
        <time>2025-04-26T09:41:56Z</time>
      </trkpt>
      <trkpt lat="45.36361" lon="-1.14507">
        <ele>67</ele>
        <time>2025-04-26T09:41:57Z</time>
      </trkpt>
      <trkpt lat="45.36364" lon="-1.14509">
        <ele>66</ele>
        <time>2025-04-26T09:41:58Z</time>
      </trkpt>
      <trkpt lat="45.36368" lon="-1.14511">
        <ele>66</ele>
        <time>2025-04-26T09:41:59Z</time>
      </trkpt>
      <trkpt lat="45.36371" lon="-1.14512">
        <ele>67</ele>
        <time>2025-04-26T09:42:00Z</time>
      </trkpt>
      <trkpt lat="45.36374" lon="-1.14512">
        <ele>67</ele>
        <time>2025-04-26T09:42:01Z</time>
      </trkpt>
      <trkpt lat="45.36377" lon="-1.14512">
        <ele>67</ele>
        <time>2025-04-26T09:42:02Z</time>
      </trkpt>
      <trkpt lat="45.3638" lon="-1.14513">
        <ele>67</ele>
        <time>2025-04-26T09:42:03Z</time>
      </trkpt>
      <trkpt lat="45.36384" lon="-1.14512">
        <ele>68</ele>
        <time>2025-04-26T09:42:04Z</time>
      </trkpt>
      <trkpt lat="45.36388" lon="-1.14511">
        <ele>68</ele>
        <time>2025-04-26T09:42:05Z</time>
      </trkpt>
      <trkpt lat="45.36392" lon="-1.14511">
        <ele>68</ele>
        <time>2025-04-26T09:42:06Z</time>
      </trkpt>
      <trkpt lat="45.36396" lon="-1.14511">
        <ele>68</ele>
        <time>2025-04-26T09:42:07Z</time>
      </trkpt>
      <trkpt lat="45.364" lon="-1.14511">
        <ele>68</ele>
        <time>2025-04-26T09:42:08Z</time>
      </trkpt>
      <trkpt lat="45.36404" lon="-1.1451">
        <ele>68</ele>
        <time>2025-04-26T09:42:09Z</time>
      </trkpt>
      <trkpt lat="45.36409" lon="-1.1451">
        <ele>68</ele>
        <time>2025-04-26T09:42:10Z</time>
      </trkpt>
      <trkpt lat="45.36413" lon="-1.14509">
        <ele>67</ele>
        <time>2025-04-26T09:42:11Z</time>
      </trkpt>
      <trkpt lat="45.36418" lon="-1.14508">
        <ele>67</ele>
        <time>2025-04-26T09:42:12Z</time>
      </trkpt>
      <trkpt lat="45.36422" lon="-1.14508">
        <ele>67</ele>
        <time>2025-04-26T09:42:13Z</time>
      </trkpt>
      <trkpt lat="45.36426" lon="-1.14507">
        <ele>67</ele>
        <time>2025-04-26T09:42:14Z</time>
      </trkpt>
      <trkpt lat="45.36431" lon="-1.14507">
        <ele>67</ele>
        <time>2025-04-26T09:42:15Z</time>
      </trkpt>
      <trkpt lat="45.36434" lon="-1.14507">
        <ele>67</ele>
        <time>2025-04-26T09:42:16Z</time>
      </trkpt>
      <trkpt lat="45.36438" lon="-1.14507">
        <ele>67</ele>
        <time>2025-04-26T09:42:17Z</time>
      </trkpt>
      <trkpt lat="45.36442" lon="-1.14506">
        <ele>68</ele>
        <time>2025-04-26T09:42:18Z</time>
      </trkpt>
      <trkpt lat="45.36446" lon="-1.14506">
        <ele>68</ele>
        <time>2025-04-26T09:42:19Z</time>
      </trkpt>
      <trkpt lat="45.3645" lon="-1.14505">
        <ele>68</ele>
        <time>2025-04-26T09:42:20Z</time>
      </trkpt>
      <trkpt lat="45.36454" lon="-1.14506">
        <ele>68</ele>
        <time>2025-04-26T09:42:21Z</time>
      </trkpt>
      <trkpt lat="45.36458" lon="-1.14506">
        <ele>68</ele>
        <time>2025-04-26T09:42:22Z</time>
      </trkpt>
      <trkpt lat="45.36462" lon="-1.14506">
        <ele>69</ele>
        <time>2025-04-26T09:42:23Z</time>
      </trkpt>
      <trkpt lat="45.36466" lon="-1.14506">
        <ele>69</ele>
        <time>2025-04-26T09:42:24Z</time>
      </trkpt>
      <trkpt lat="45.36472" lon="-1.14505">
        <ele>69</ele>
        <time>2025-04-26T09:42:25Z</time>
      </trkpt>
      <trkpt lat="45.36476" lon="-1.14505">
        <ele>69</ele>
        <time>2025-04-26T09:42:26Z</time>
      </trkpt>
      <trkpt lat="45.36481" lon="-1.14504">
        <ele>69</ele>
        <time>2025-04-26T09:42:27Z</time>
      </trkpt>
      <trkpt lat="45.36485" lon="-1.14503">
        <ele>68</ele>
        <time>2025-04-26T09:42:28Z</time>
      </trkpt>
      <trkpt lat="45.36489" lon="-1.14503">
        <ele>69</ele>
        <time>2025-04-26T09:42:29Z</time>
      </trkpt>
      <trkpt lat="45.36493" lon="-1.14503">
        <ele>70</ele>
        <time>2025-04-26T09:42:30Z</time>
      </trkpt>
      <trkpt lat="45.36497" lon="-1.14503">
        <ele>70</ele>
        <time>2025-04-26T09:42:31Z</time>
      </trkpt>
      <trkpt lat="45.36501" lon="-1.14503">
        <ele>70</ele>
        <time>2025-04-26T09:42:32Z</time>
      </trkpt>
      <trkpt lat="45.36505" lon="-1.14503">
        <ele>71</ele>
        <time>2025-04-26T09:42:33Z</time>
      </trkpt>
      <trkpt lat="45.36508" lon="-1.14502">
        <ele>72</ele>
        <time>2025-04-26T09:42:34Z</time>
      </trkpt>
      <trkpt lat="45.36512" lon="-1.14502">
        <ele>72</ele>
        <time>2025-04-26T09:42:35Z</time>
      </trkpt>
      <trkpt lat="45.36516" lon="-1.14502">
        <ele>72</ele>
        <time>2025-04-26T09:42:36Z</time>
      </trkpt>
      <trkpt lat="45.3652" lon="-1.14502">
        <ele>73</ele>
        <time>2025-04-26T09:42:37Z</time>
      </trkpt>
      <trkpt lat="45.36524" lon="-1.14502">
        <ele>73</ele>
        <time>2025-04-26T09:42:38Z</time>
      </trkpt>
      <trkpt lat="45.36528" lon="-1.14501">
        <ele>74</ele>
        <time>2025-04-26T09:42:39Z</time>
      </trkpt>
      <trkpt lat="45.36533" lon="-1.14501">
        <ele>74</ele>
        <time>2025-04-26T09:42:40Z</time>
      </trkpt>
      <trkpt lat="45.36537" lon="-1.14501">
        <ele>74</ele>
        <time>2025-04-26T09:42:41Z</time>
      </trkpt>
      <trkpt lat="45.36541" lon="-1.14501">
        <ele>74</ele>
        <time>2025-04-26T09:42:42Z</time>
      </trkpt>
      <trkpt lat="45.36546" lon="-1.14501">
        <ele>73</ele>
        <time>2025-04-26T09:42:43Z</time>
      </trkpt>
      <trkpt lat="45.36551" lon="-1.14501">
        <ele>74</ele>
        <time>2025-04-26T09:42:44Z</time>
      </trkpt>
      <trkpt lat="45.36555" lon="-1.145">
        <ele>74</ele>
        <time>2025-04-26T09:42:45Z</time>
      </trkpt>
      <trkpt lat="45.36559" lon="-1.145">
        <ele>74</ele>
        <time>2025-04-26T09:42:46Z</time>
      </trkpt>
      <trkpt lat="45.36563" lon="-1.145">
        <ele>75</ele>
        <time>2025-04-26T09:42:47Z</time>
      </trkpt>
      <trkpt lat="45.36566" lon="-1.145">
        <ele>75</ele>
        <time>2025-04-26T09:42:48Z</time>
      </trkpt>
      <trkpt lat="45.3657" lon="-1.14499">
        <ele>76</ele>
        <time>2025-04-26T09:42:49Z</time>
      </trkpt>
      <trkpt lat="45.36574" lon="-1.14499">
        <ele>75</ele>
        <time>2025-04-26T09:42:50Z</time>
      </trkpt>
      <trkpt lat="45.36578" lon="-1.14499">
        <ele>74</ele>
        <time>2025-04-26T09:42:51Z</time>
      </trkpt>
      <trkpt lat="45.36582" lon="-1.14499">
        <ele>73</ele>
        <time>2025-04-26T09:42:52Z</time>
      </trkpt>
      <trkpt lat="45.36588" lon="-1.14498">
        <ele>72</ele>
        <time>2025-04-26T09:42:53Z</time>
      </trkpt>
      <trkpt lat="45.36594" lon="-1.14496">
        <ele>70</ele>
        <time>2025-04-26T09:42:54Z</time>
      </trkpt>
      <trkpt lat="45.36599" lon="-1.14493">
        <ele>69</ele>
        <time>2025-04-26T09:42:55Z</time>
      </trkpt>
      <trkpt lat="45.36603" lon="-1.14491">
        <ele>68</ele>
        <time>2025-04-26T09:42:56Z</time>
      </trkpt>
      <trkpt lat="45.36607" lon="-1.14487">
        <ele>68</ele>
        <time>2025-04-26T09:42:57Z</time>
      </trkpt>
      <trkpt lat="45.3661" lon="-1.14483">
        <ele>69</ele>
        <time>2025-04-26T09:42:58Z</time>
      </trkpt>
      <trkpt lat="45.36614" lon="-1.14479">
        <ele>69</ele>
        <time>2025-04-26T09:42:59Z</time>
      </trkpt>
      <trkpt lat="45.36617" lon="-1.14476">
        <ele>69</ele>
        <time>2025-04-26T09:43:00Z</time>
      </trkpt>
      <trkpt lat="45.36621" lon="-1.14474">
        <ele>69</ele>
        <time>2025-04-26T09:43:01Z</time>
      </trkpt>
      <trkpt lat="45.36625" lon="-1.14473">
        <ele>69</ele>
        <time>2025-04-26T09:43:02Z</time>
      </trkpt>
      <trkpt lat="45.3663" lon="-1.14472">
        <ele>69</ele>
        <time>2025-04-26T09:43:03Z</time>
      </trkpt>
      <trkpt lat="45.36634" lon="-1.14471">
        <ele>68</ele>
        <time>2025-04-26T09:43:04Z</time>
      </trkpt>
      <trkpt lat="45.36638" lon="-1.14472">
        <ele>68</ele>
        <time>2025-04-26T09:43:05Z</time>
      </trkpt>
      <trkpt lat="45.36641" lon="-1.14473">
        <ele>67</ele>
        <time>2025-04-26T09:43:06Z</time>
      </trkpt>
      <trkpt lat="45.36645" lon="-1.14475">
        <ele>67</ele>
        <time>2025-04-26T09:43:07Z</time>
      </trkpt>
      <trkpt lat="45.36649" lon="-1.14477">
        <ele>66</ele>
        <time>2025-04-26T09:43:08Z</time>
      </trkpt>
      <trkpt lat="45.36653" lon="-1.1448">
        <ele>67</ele>
        <time>2025-04-26T09:43:09Z</time>
      </trkpt>
      <trkpt lat="45.36657" lon="-1.14482">
        <ele>67</ele>
        <time>2025-04-26T09:43:10Z</time>
      </trkpt>
      <trkpt lat="45.36661" lon="-1.14484">
        <ele>66</ele>
        <time>2025-04-26T09:43:11Z</time>
      </trkpt>
      <trkpt lat="45.36665" lon="-1.14485">
        <ele>66</ele>
        <time>2025-04-26T09:43:12Z</time>
      </trkpt>
      <trkpt lat="45.3667" lon="-1.14485">
        <ele>66</ele>
        <time>2025-04-26T09:43:13Z</time>
      </trkpt>
      <trkpt lat="45.36675" lon="-1.14485">
        <ele>66</ele>
        <time>2025-04-26T09:43:14Z</time>
      </trkpt>
      <trkpt lat="45.3668" lon="-1.14484">
        <ele>66</ele>
        <time>2025-04-26T09:43:15Z</time>
      </trkpt>
      <trkpt lat="45.36685" lon="-1.14484">
        <ele>65</ele>
        <time>2025-04-26T09:43:16Z</time>
      </trkpt>
      <trkpt lat="45.36689" lon="-1.14483">
        <ele>65</ele>
        <time>2025-04-26T09:43:17Z</time>
      </trkpt>
      <trkpt lat="45.36694" lon="-1.14483">
        <ele>65</ele>
        <time>2025-04-26T09:43:18Z</time>
      </trkpt>
      <trkpt lat="45.36698" lon="-1.14482">
        <ele>65</ele>
        <time>2025-04-26T09:43:19Z</time>
      </trkpt>
      <trkpt lat="45.36702" lon="-1.14482">
        <ele>65</ele>
        <time>2025-04-26T09:43:20Z</time>
      </trkpt>
      <trkpt lat="45.36707" lon="-1.14482">
        <ele>65</ele>
        <time>2025-04-26T09:43:21Z</time>
      </trkpt>
      <trkpt lat="45.3671" lon="-1.14482">
        <ele>65</ele>
        <time>2025-04-26T09:43:22Z</time>
      </trkpt>
      <trkpt lat="45.36714" lon="-1.14482">
        <ele>65</ele>
        <time>2025-04-26T09:43:23Z</time>
      </trkpt>
      <trkpt lat="45.36718" lon="-1.14481">
        <ele>66</ele>
        <time>2025-04-26T09:43:24Z</time>
      </trkpt>
      <trkpt lat="45.36722" lon="-1.14481">
        <ele>66</ele>
        <time>2025-04-26T09:43:25Z</time>
      </trkpt>
      <trkpt lat="45.36726" lon="-1.1448">
        <ele>67</ele>
        <time>2025-04-26T09:43:26Z</time>
      </trkpt>
      <trkpt lat="45.36731" lon="-1.1448">
        <ele>67</ele>
        <time>2025-04-26T09:43:27Z</time>
      </trkpt>
      <trkpt lat="45.36735" lon="-1.1448">
        <ele>68</ele>
        <time>2025-04-26T09:43:28Z</time>
      </trkpt>
      <trkpt lat="45.36739" lon="-1.14479">
        <ele>68</ele>
        <time>2025-04-26T09:43:29Z</time>
      </trkpt>
      <trkpt lat="45.36744" lon="-1.14478">
        <ele>68</ele>
        <time>2025-04-26T09:43:30Z</time>
      </trkpt>
      <trkpt lat="45.36748" lon="-1.14478">
        <ele>68</ele>
        <time>2025-04-26T09:43:31Z</time>
      </trkpt>
      <trkpt lat="45.36753" lon="-1.14477">
        <ele>68</ele>
        <time>2025-04-26T09:43:32Z</time>
      </trkpt>
      <trkpt lat="45.36757" lon="-1.14476">
        <ele>68</ele>
        <time>2025-04-26T09:43:33Z</time>
      </trkpt>
      <trkpt lat="45.36762" lon="-1.14476">
        <ele>68</ele>
        <time>2025-04-26T09:43:34Z</time>
      </trkpt>
      <trkpt lat="45.36767" lon="-1.14475">
        <ele>68</ele>
        <time>2025-04-26T09:43:35Z</time>
      </trkpt>
      <trkpt lat="45.36772" lon="-1.14475">
        <ele>68</ele>
        <time>2025-04-26T09:43:36Z</time>
      </trkpt>
      <trkpt lat="45.36776" lon="-1.14476">
        <ele>68</ele>
        <time>2025-04-26T09:43:37Z</time>
      </trkpt>
      <trkpt lat="45.3678" lon="-1.14475">
        <ele>68</ele>
        <time>2025-04-26T09:43:38Z</time>
      </trkpt>
      <trkpt lat="45.36784" lon="-1.14475">
        <ele>68</ele>
        <time>2025-04-26T09:43:39Z</time>
      </trkpt>
      <trkpt lat="45.36789" lon="-1.14475">
        <ele>67</ele>
        <time>2025-04-26T09:43:40Z</time>
      </trkpt>
      <trkpt lat="45.36792" lon="-1.14474">
        <ele>67</ele>
        <time>2025-04-26T09:43:41Z</time>
      </trkpt>
      <trkpt lat="45.36796" lon="-1.14473">
        <ele>67</ele>
        <time>2025-04-26T09:43:42Z</time>
      </trkpt>
      <trkpt lat="45.368" lon="-1.14473">
        <ele>67</ele>
        <time>2025-04-26T09:43:43Z</time>
      </trkpt>
      <trkpt lat="45.36804" lon="-1.14472">
        <ele>67</ele>
        <time>2025-04-26T09:43:44Z</time>
      </trkpt>
      <trkpt lat="45.36809" lon="-1.14472">
        <ele>66</ele>
        <time>2025-04-26T09:43:45Z</time>
      </trkpt>
      <trkpt lat="45.36813" lon="-1.14472">
        <ele>66</ele>
        <time>2025-04-26T09:43:46Z</time>
      </trkpt>
      <trkpt lat="45.36817" lon="-1.14471">
        <ele>65</ele>
        <time>2025-04-26T09:43:47Z</time>
      </trkpt>
      <trkpt lat="45.3682" lon="-1.14471">
        <ele>65</ele>
        <time>2025-04-26T09:43:48Z</time>
      </trkpt>
      <trkpt lat="45.36824" lon="-1.14471">
        <ele>65</ele>
        <time>2025-04-26T09:43:49Z</time>
      </trkpt>
      <trkpt lat="45.36828" lon="-1.1447">
        <ele>65</ele>
        <time>2025-04-26T09:43:50Z</time>
      </trkpt>
      <trkpt lat="45.36832" lon="-1.1447">
        <ele>65</ele>
        <time>2025-04-26T09:43:51Z</time>
      </trkpt>
      <trkpt lat="45.36836" lon="-1.1447">
        <ele>65</ele>
        <time>2025-04-26T09:43:52Z</time>
      </trkpt>
      <trkpt lat="45.3684" lon="-1.1447">
        <ele>64</ele>
        <time>2025-04-26T09:43:53Z</time>
      </trkpt>
      <trkpt lat="45.36844" lon="-1.14469">
        <ele>65</ele>
        <time>2025-04-26T09:43:54Z</time>
      </trkpt>
      <trkpt lat="45.36848" lon="-1.14469">
        <ele>65</ele>
        <time>2025-04-26T09:43:55Z</time>
      </trkpt>
      <trkpt lat="45.36853" lon="-1.14468">
        <ele>65</ele>
        <time>2025-04-26T09:43:56Z</time>
      </trkpt>
      <trkpt lat="45.36857" lon="-1.14468">
        <ele>65</ele>
        <time>2025-04-26T09:43:57Z</time>
      </trkpt>
      <trkpt lat="45.36861" lon="-1.14468">
        <ele>65</ele>
        <time>2025-04-26T09:43:58Z</time>
      </trkpt>
      <trkpt lat="45.36865" lon="-1.14468">
        <ele>65</ele>
        <time>2025-04-26T09:43:59Z</time>
      </trkpt>
      <trkpt lat="45.36869" lon="-1.14468">
        <ele>65</ele>
        <time>2025-04-26T09:44:00Z</time>
      </trkpt>
      <trkpt lat="45.36872" lon="-1.14468">
        <ele>65</ele>
        <time>2025-04-26T09:44:01Z</time>
      </trkpt>
      <trkpt lat="45.36876" lon="-1.14468">
        <ele>65</ele>
        <time>2025-04-26T09:44:02Z</time>
      </trkpt>
      <trkpt lat="45.3688" lon="-1.14468">
        <ele>65</ele>
        <time>2025-04-26T09:44:03Z</time>
      </trkpt>
      <trkpt lat="45.36884" lon="-1.14468">
        <ele>65</ele>
        <time>2025-04-26T09:44:04Z</time>
      </trkpt>
      <trkpt lat="45.36887" lon="-1.14468">
        <ele>65</ele>
        <time>2025-04-26T09:44:05Z</time>
      </trkpt>
      <trkpt lat="45.36891" lon="-1.14468">
        <ele>65</ele>
        <time>2025-04-26T09:44:06Z</time>
      </trkpt>
      <trkpt lat="45.36895" lon="-1.14467">
        <ele>65</ele>
        <time>2025-04-26T09:44:07Z</time>
      </trkpt>
      <trkpt lat="45.36899" lon="-1.14466">
        <ele>65</ele>
        <time>2025-04-26T09:44:08Z</time>
      </trkpt>
      <trkpt lat="45.36903" lon="-1.14466">
        <ele>65</ele>
        <time>2025-04-26T09:44:09Z</time>
      </trkpt>
      <trkpt lat="45.36906" lon="-1.14465">
        <ele>65</ele>
        <time>2025-04-26T09:44:10Z</time>
      </trkpt>
      <trkpt lat="45.3691" lon="-1.14465">
        <ele>65</ele>
        <time>2025-04-26T09:44:11Z</time>
      </trkpt>
      <trkpt lat="45.36914" lon="-1.14464">
        <ele>65</ele>
        <time>2025-04-26T09:44:12Z</time>
      </trkpt>
      <trkpt lat="45.36918" lon="-1.14464">
        <ele>65</ele>
        <time>2025-04-26T09:44:13Z</time>
      </trkpt>
      <trkpt lat="45.36921" lon="-1.14464">
        <ele>65</ele>
        <time>2025-04-26T09:44:14Z</time>
      </trkpt>
      <trkpt lat="45.36924" lon="-1.14464">
        <ele>65</ele>
        <time>2025-04-26T09:44:15Z</time>
      </trkpt>
      <trkpt lat="45.36927" lon="-1.14463">
        <ele>65</ele>
        <time>2025-04-26T09:44:16Z</time>
      </trkpt>
      <trkpt lat="45.3693" lon="-1.14463">
        <ele>65</ele>
        <time>2025-04-26T09:44:17Z</time>
      </trkpt>
      <trkpt lat="45.36932" lon="-1.14464">
        <ele>65</ele>
        <time>2025-04-26T09:44:18Z</time>
      </trkpt>
      <trkpt lat="45.36935" lon="-1.14463">
        <ele>65</ele>
        <time>2025-04-26T09:44:19Z</time>
      </trkpt>
      <trkpt lat="45.36937" lon="-1.14464">
        <ele>66</ele>
        <time>2025-04-26T09:44:20Z</time>
      </trkpt>
      <trkpt lat="45.36938" lon="-1.14465">
        <ele>66</ele>
        <time>2025-04-26T09:44:21Z</time>
      </trkpt>
      <trkpt lat="45.36939" lon="-1.14468">
        <ele>66</ele>
        <time>2025-04-26T09:44:22Z</time>
      </trkpt>
      <trkpt lat="45.36939" lon="-1.14471">
        <ele>66</ele>
        <time>2025-04-26T09:44:23Z</time>
      </trkpt>
      <trkpt lat="45.3694" lon="-1.14473">
        <ele>66</ele>
        <time>2025-04-26T09:44:24Z</time>
      </trkpt>
      <trkpt lat="45.36939" lon="-1.14475">
        <ele>66</ele>
        <time>2025-04-26T09:44:25Z</time>
      </trkpt>
      <trkpt lat="45.3694" lon="-1.14476">
        <ele>65</ele>
        <time>2025-04-26T09:44:26Z</time>
      </trkpt>
      <trkpt lat="45.3694" lon="-1.14476">
        <ele>65</ele>
        <time>2025-04-26T09:44:27Z</time>
      </trkpt>
      <trkpt lat="45.3694" lon="-1.14476">
        <ele>65</ele>
        <time>2025-04-26T09:44:28Z</time>
      </trkpt>
      <trkpt lat="45.3694" lon="-1.14476">
        <ele>65</ele>
        <time>2025-04-26T09:44:29Z</time>
      </trkpt>
      <trkpt lat="45.3694" lon="-1.14476">
        <ele>65</ele>
        <time>2025-04-26T09:44:30Z</time>
      </trkpt>
      <trkpt lat="45.3694" lon="-1.14476">
        <ele>65</ele>
        <time>2025-04-26T09:44:31Z</time>
      </trkpt>
      <trkpt lat="45.36941" lon="-1.14482">
        <ele>64</ele>
        <time>2025-04-26T09:44:32Z</time>
      </trkpt>
      <trkpt lat="45.36941" lon="-1.14485">
        <ele>64</ele>
        <time>2025-04-26T09:44:33Z</time>
      </trkpt>
      <trkpt lat="45.36941" lon="-1.14489">
        <ele>64</ele>
        <time>2025-04-26T09:44:34Z</time>
      </trkpt>
      <trkpt lat="45.36942" lon="-1.14493">
        <ele>64</ele>
        <time>2025-04-26T09:44:35Z</time>
      </trkpt>
      <trkpt lat="45.36943" lon="-1.14496">
        <ele>64</ele>
        <time>2025-04-26T09:44:36Z</time>
      </trkpt>
      <trkpt lat="45.36943" lon="-1.145">
        <ele>65</ele>
        <time>2025-04-26T09:44:37Z</time>
      </trkpt>
      <trkpt lat="45.36943" lon="-1.14504">
        <ele>65</ele>
        <time>2025-04-26T09:44:38Z</time>
      </trkpt>
      <trkpt lat="45.36946" lon="-1.14507">
        <ele>65</ele>
        <time>2025-04-26T09:44:39Z</time>
      </trkpt>
      <trkpt lat="45.36949" lon="-1.14508">
        <ele>66</ele>
        <time>2025-04-26T09:44:40Z</time>
      </trkpt>
      <trkpt lat="45.36952" lon="-1.14507">
        <ele>66</ele>
        <time>2025-04-26T09:44:41Z</time>
      </trkpt>
      <trkpt lat="45.36955" lon="-1.14507">
        <ele>65</ele>
        <time>2025-04-26T09:44:42Z</time>
      </trkpt>
      <trkpt lat="45.36958" lon="-1.14506">
        <ele>65</ele>
        <time>2025-04-26T09:44:43Z</time>
      </trkpt>
      <trkpt lat="45.36961" lon="-1.14507">
        <ele>64</ele>
        <time>2025-04-26T09:44:44Z</time>
      </trkpt>
      <trkpt lat="45.36964" lon="-1.14507">
        <ele>64</ele>
        <time>2025-04-26T09:44:45Z</time>
      </trkpt>
      <trkpt lat="45.36968" lon="-1.14507">
        <ele>64</ele>
        <time>2025-04-26T09:44:46Z</time>
      </trkpt>
      <trkpt lat="45.36972" lon="-1.14507">
        <ele>64</ele>
        <time>2025-04-26T09:44:47Z</time>
      </trkpt>
      <trkpt lat="45.36976" lon="-1.14508">
        <ele>64</ele>
        <time>2025-04-26T09:44:48Z</time>
      </trkpt>
      <trkpt lat="45.3698" lon="-1.14507">
        <ele>64</ele>
        <time>2025-04-26T09:44:49Z</time>
      </trkpt>
      <trkpt lat="45.36984" lon="-1.14506">
        <ele>64</ele>
        <time>2025-04-26T09:44:50Z</time>
      </trkpt>
      <trkpt lat="45.36987" lon="-1.14506">
        <ele>65</ele>
        <time>2025-04-26T09:44:51Z</time>
      </trkpt>
      <trkpt lat="45.3699" lon="-1.14506">
        <ele>65</ele>
        <time>2025-04-26T09:44:52Z</time>
      </trkpt>
      <trkpt lat="45.36994" lon="-1.14507">
        <ele>65</ele>
        <time>2025-04-26T09:44:53Z</time>
      </trkpt>
      <trkpt lat="45.36998" lon="-1.14507">
        <ele>66</ele>
        <time>2025-04-26T09:44:54Z</time>
      </trkpt>
      <trkpt lat="45.37002" lon="-1.14508">
        <ele>67</ele>
        <time>2025-04-26T09:44:55Z</time>
      </trkpt>
      <trkpt lat="45.37006" lon="-1.14508">
        <ele>67</ele>
        <time>2025-04-26T09:44:56Z</time>
      </trkpt>
      <trkpt lat="45.37009" lon="-1.14507">
        <ele>68</ele>
        <time>2025-04-26T09:44:57Z</time>
      </trkpt>
      <trkpt lat="45.37013" lon="-1.14507">
        <ele>68</ele>
        <time>2025-04-26T09:44:58Z</time>
      </trkpt>
      <trkpt lat="45.37017" lon="-1.14507">
        <ele>68</ele>
        <time>2025-04-26T09:44:59Z</time>
      </trkpt>
      <trkpt lat="45.37021" lon="-1.14507">
        <ele>68</ele>
        <time>2025-04-26T09:45:00Z</time>
      </trkpt>
      <trkpt lat="45.37024" lon="-1.14506">
        <ele>68</ele>
        <time>2025-04-26T09:45:01Z</time>
      </trkpt>
      <trkpt lat="45.37027" lon="-1.14505">
        <ele>68</ele>
        <time>2025-04-26T09:45:02Z</time>
      </trkpt>
      <trkpt lat="45.37031" lon="-1.14503">
        <ele>68</ele>
        <time>2025-04-26T09:45:03Z</time>
      </trkpt>
      <trkpt lat="45.37035" lon="-1.14503">
        <ele>67</ele>
        <time>2025-04-26T09:45:04Z</time>
      </trkpt>
      <trkpt lat="45.37038" lon="-1.14503">
        <ele>66</ele>
        <time>2025-04-26T09:45:05Z</time>
      </trkpt>
      <trkpt lat="45.37042" lon="-1.14502">
        <ele>66</ele>
        <time>2025-04-26T09:45:06Z</time>
      </trkpt>
      <trkpt lat="45.37045" lon="-1.14502">
        <ele>67</ele>
        <time>2025-04-26T09:45:07Z</time>
      </trkpt>
      <trkpt lat="45.37047" lon="-1.14502">
        <ele>67</ele>
        <time>2025-04-26T09:45:08Z</time>
      </trkpt>
      <trkpt lat="45.37048" lon="-1.14502">
        <ele>67</ele>
        <time>2025-04-26T09:45:09Z</time>
      </trkpt>
      <trkpt lat="45.37049" lon="-1.14502">
        <ele>67</ele>
        <time>2025-04-26T09:45:10Z</time>
      </trkpt>
      <trkpt lat="45.37049" lon="-1.14502">
        <ele>67</ele>
        <time>2025-04-26T09:45:11Z</time>
      </trkpt>
      <trkpt lat="45.37049" lon="-1.14502">
        <ele>67</ele>
        <time>2025-04-26T09:45:12Z</time>
      </trkpt>
      <trkpt lat="45.37049" lon="-1.14502">
        <ele>67</ele>
        <time>2025-04-26T09:45:13Z</time>
      </trkpt>
      <trkpt lat="45.37049" lon="-1.14502">
        <ele>67</ele>
        <time>2025-04-26T09:45:14Z</time>
      </trkpt>
      <trkpt lat="45.37049" lon="-1.14502">
        <ele>67</ele>
        <time>2025-04-26T09:45:15Z</time>
      </trkpt>
      <trkpt lat="45.37049" lon="-1.14502">
        <ele>67</ele>
        <time>2025-04-26T09:45:16Z</time>
      </trkpt>
      <trkpt lat="45.37049" lon="-1.14502">
        <ele>67</ele>
        <time>2025-04-26T09:45:17Z</time>
      </trkpt>
      <trkpt lat="45.37049" lon="-1.14502">
        <ele>67</ele>
        <time>2025-04-26T09:45:18Z</time>
      </trkpt>
      <trkpt lat="45.37049" lon="-1.14502">
        <ele>67</ele>
        <time>2025-04-26T09:45:19Z</time>
      </trkpt>
      <trkpt lat="45.37049" lon="-1.14502">
        <ele>67</ele>
        <time>2025-04-26T09:45:20Z</time>
      </trkpt>
      <trkpt lat="45.37049" lon="-1.14502">
        <ele>67</ele>
        <time>2025-04-26T09:45:21Z</time>
      </trkpt>
      <trkpt lat="45.37049" lon="-1.14502">
        <ele>67</ele>
        <time>2025-04-26T09:45:22Z</time>
      </trkpt>
      <trkpt lat="45.37049" lon="-1.14502">
        <ele>67</ele>
        <time>2025-04-26T09:45:23Z</time>
      </trkpt>
      <trkpt lat="45.37049" lon="-1.14502">
        <ele>67</ele>
        <time>2025-04-26T09:45:24Z</time>
      </trkpt>
      <trkpt lat="45.37049" lon="-1.14502">
        <ele>67</ele>
        <time>2025-04-26T09:45:25Z</time>
      </trkpt>
      <trkpt lat="45.37049" lon="-1.14502">
        <ele>67</ele>
        <time>2025-04-26T09:45:26Z</time>
      </trkpt>
      <trkpt lat="45.37049" lon="-1.14502">
        <ele>67</ele>
        <time>2025-04-26T09:45:27Z</time>
      </trkpt>
      <trkpt lat="45.37049" lon="-1.14502">
        <ele>67</ele>
        <time>2025-04-26T09:45:28Z</time>
      </trkpt>
      <trkpt lat="45.37049" lon="-1.14502">
        <ele>67</ele>
        <time>2025-04-26T09:45:29Z</time>
      </trkpt>
      <trkpt lat="45.37049" lon="-1.14502">
        <ele>67</ele>
        <time>2025-04-26T09:45:30Z</time>
      </trkpt>
      <trkpt lat="45.37049" lon="-1.14502">
        <ele>67</ele>
        <time>2025-04-26T09:45:31Z</time>
      </trkpt>
      <trkpt lat="45.37049" lon="-1.14502">
        <ele>67</ele>
        <time>2025-04-26T09:45:32Z</time>
      </trkpt>
      <trkpt lat="45.37049" lon="-1.14502">
        <ele>67</ele>
        <time>2025-04-26T09:45:33Z</time>
      </trkpt>
      <trkpt lat="45.37049" lon="-1.14502">
        <ele>67</ele>
        <time>2025-04-26T09:45:34Z</time>
      </trkpt>
      <trkpt lat="45.37049" lon="-1.14502">
        <ele>67</ele>
        <time>2025-04-26T09:45:35Z</time>
      </trkpt>
      <trkpt lat="45.37043" lon="-1.14504">
        <ele>68</ele>
        <time>2025-04-26T09:45:36Z</time>
      </trkpt>
      <trkpt lat="45.3704" lon="-1.14504">
        <ele>68</ele>
        <time>2025-04-26T09:45:37Z</time>
      </trkpt>
      <trkpt lat="45.37037" lon="-1.14504">
        <ele>69</ele>
        <time>2025-04-26T09:45:38Z</time>
      </trkpt>
      <trkpt lat="45.37034" lon="-1.14506">
        <ele>68</ele>
        <time>2025-04-26T09:45:39Z</time>
      </trkpt>
      <trkpt lat="45.37031" lon="-1.14507">
        <ele>69</ele>
        <time>2025-04-26T09:45:40Z</time>
      </trkpt>
      <trkpt lat="45.37028" lon="-1.14507">
        <ele>68</ele>
        <time>2025-04-26T09:45:41Z</time>
      </trkpt>
      <trkpt lat="45.37026" lon="-1.14508">
        <ele>68</ele>
        <time>2025-04-26T09:45:42Z</time>
      </trkpt>
      <trkpt lat="45.37023" lon="-1.14508">
        <ele>68</ele>
        <time>2025-04-26T09:45:43Z</time>
      </trkpt>
      <trkpt lat="45.37021" lon="-1.14509">
        <ele>68</ele>
        <time>2025-04-26T09:45:44Z</time>
      </trkpt>
      <trkpt lat="45.37019" lon="-1.14509">
        <ele>67</ele>
        <time>2025-04-26T09:45:45Z</time>
      </trkpt>
      <trkpt lat="45.37017" lon="-1.1451">
        <ele>68</ele>
        <time>2025-04-26T09:45:46Z</time>
      </trkpt>
      <trkpt lat="45.37015" lon="-1.14512">
        <ele>69</ele>
        <time>2025-04-26T09:45:47Z</time>
      </trkpt>
      <trkpt lat="45.37015" lon="-1.14515">
        <ele>70</ele>
        <time>2025-04-26T09:45:48Z</time>
      </trkpt>
      <trkpt lat="45.37015" lon="-1.14518">
        <ele>70</ele>
        <time>2025-04-26T09:45:49Z</time>
      </trkpt>
      <trkpt lat="45.37016" lon="-1.14521">
        <ele>71</ele>
        <time>2025-04-26T09:45:50Z</time>
      </trkpt>
      <trkpt lat="45.37016" lon="-1.14524">
        <ele>71</ele>
        <time>2025-04-26T09:45:51Z</time>
      </trkpt>
      <trkpt lat="45.37017" lon="-1.14528">
        <ele>71</ele>
        <time>2025-04-26T09:45:52Z</time>
      </trkpt>
      <trkpt lat="45.37018" lon="-1.14531">
        <ele>71</ele>
        <time>2025-04-26T09:45:53Z</time>
      </trkpt>
      <trkpt lat="45.37019" lon="-1.14534">
        <ele>71</ele>
        <time>2025-04-26T09:45:54Z</time>
      </trkpt>
      <trkpt lat="45.37019" lon="-1.14538">
        <ele>71</ele>
        <time>2025-04-26T09:45:55Z</time>
      </trkpt>
      <trkpt lat="45.37019" lon="-1.14543">
        <ele>72</ele>
        <time>2025-04-26T09:45:56Z</time>
      </trkpt>
      <trkpt lat="45.37018" lon="-1.14547">
        <ele>72</ele>
        <time>2025-04-26T09:45:57Z</time>
      </trkpt>
      <trkpt lat="45.37018" lon="-1.14552">
        <ele>72</ele>
        <time>2025-04-26T09:45:58Z</time>
      </trkpt>
      <trkpt lat="45.37018" lon="-1.14556">
        <ele>71</ele>
        <time>2025-04-26T09:45:59Z</time>
      </trkpt>
      <trkpt lat="45.37018" lon="-1.1456">
        <ele>71</ele>
        <time>2025-04-26T09:46:00Z</time>
      </trkpt>
      <trkpt lat="45.37018" lon="-1.14565">
        <ele>72</ele>
        <time>2025-04-26T09:46:01Z</time>
      </trkpt>
      <trkpt lat="45.37019" lon="-1.14568">
        <ele>72</ele>
        <time>2025-04-26T09:46:02Z</time>
      </trkpt>
      <trkpt lat="45.3702" lon="-1.14573">
        <ele>71</ele>
        <time>2025-04-26T09:46:03Z</time>
      </trkpt>
      <trkpt lat="45.3702" lon="-1.14577">
        <ele>71</ele>
        <time>2025-04-26T09:46:04Z</time>
      </trkpt>
      <trkpt lat="45.37021" lon="-1.14582">
        <ele>70</ele>
        <time>2025-04-26T09:46:05Z</time>
      </trkpt>
      <trkpt lat="45.37021" lon="-1.14587">
        <ele>70</ele>
        <time>2025-04-26T09:46:06Z</time>
      </trkpt>
      <trkpt lat="45.37022" lon="-1.14591">
        <ele>70</ele>
        <time>2025-04-26T09:46:07Z</time>
      </trkpt>
      <trkpt lat="45.37024" lon="-1.14596">
        <ele>70</ele>
        <time>2025-04-26T09:46:08Z</time>
      </trkpt>
      <trkpt lat="45.37025" lon="-1.146">
        <ele>70</ele>
        <time>2025-04-26T09:46:09Z</time>
      </trkpt>
      <trkpt lat="45.37026" lon="-1.14605">
        <ele>70</ele>
        <time>2025-04-26T09:46:10Z</time>
      </trkpt>
      <trkpt lat="45.37027" lon="-1.1461">
        <ele>70</ele>
        <time>2025-04-26T09:46:11Z</time>
      </trkpt>
      <trkpt lat="45.37028" lon="-1.14615">
        <ele>71</ele>
        <time>2025-04-26T09:46:12Z</time>
      </trkpt>
      <trkpt lat="45.37029" lon="-1.1462">
        <ele>71</ele>
        <time>2025-04-26T09:46:13Z</time>
      </trkpt>
      <trkpt lat="45.3703" lon="-1.14624">
        <ele>71</ele>
        <time>2025-04-26T09:46:14Z</time>
      </trkpt>
      <trkpt lat="45.37031" lon="-1.14629">
        <ele>70</ele>
        <time>2025-04-26T09:46:15Z</time>
      </trkpt>
      <trkpt lat="45.37032" lon="-1.14633">
        <ele>69</ele>
        <time>2025-04-26T09:46:16Z</time>
      </trkpt>
      <trkpt lat="45.37034" lon="-1.14638">
        <ele>69</ele>
        <time>2025-04-26T09:46:17Z</time>
      </trkpt>
      <trkpt lat="45.37035" lon="-1.14642">
        <ele>69</ele>
        <time>2025-04-26T09:46:18Z</time>
      </trkpt>
      <trkpt lat="45.37036" lon="-1.14647">
        <ele>69</ele>
        <time>2025-04-26T09:46:19Z</time>
      </trkpt>
      <trkpt lat="45.37037" lon="-1.14651">
        <ele>70</ele>
        <time>2025-04-26T09:46:20Z</time>
      </trkpt>
      <trkpt lat="45.37038" lon="-1.14656">
        <ele>70</ele>
        <time>2025-04-26T09:46:21Z</time>
      </trkpt>
      <trkpt lat="45.37039" lon="-1.14662">
        <ele>71</ele>
        <time>2025-04-26T09:46:22Z</time>
      </trkpt>
      <trkpt lat="45.37041" lon="-1.14667">
        <ele>71</ele>
        <time>2025-04-26T09:46:23Z</time>
      </trkpt>
      <trkpt lat="45.37042" lon="-1.14671">
        <ele>72</ele>
        <time>2025-04-26T09:46:24Z</time>
      </trkpt>
      <trkpt lat="45.37044" lon="-1.14675">
        <ele>71</ele>
        <time>2025-04-26T09:46:25Z</time>
      </trkpt>
      <trkpt lat="45.37046" lon="-1.1468">
        <ele>71</ele>
        <time>2025-04-26T09:46:26Z</time>
      </trkpt>
      <trkpt lat="45.37047" lon="-1.14684">
        <ele>71</ele>
        <time>2025-04-26T09:46:27Z</time>
      </trkpt>
      <trkpt lat="45.37049" lon="-1.14687">
        <ele>71</ele>
        <time>2025-04-26T09:46:28Z</time>
      </trkpt>
      <trkpt lat="45.37051" lon="-1.14689">
        <ele>70</ele>
        <time>2025-04-26T09:46:29Z</time>
      </trkpt>
      <trkpt lat="45.37053" lon="-1.14692">
        <ele>70</ele>
        <time>2025-04-26T09:46:30Z</time>
      </trkpt>
      <trkpt lat="45.37054" lon="-1.14693">
        <ele>71</ele>
        <time>2025-04-26T09:46:31Z</time>
      </trkpt>
      <trkpt lat="45.37054" lon="-1.14694">
        <ele>72</ele>
        <time>2025-04-26T09:46:32Z</time>
      </trkpt>
      <trkpt lat="45.37055" lon="-1.14695">
        <ele>72</ele>
        <time>2025-04-26T09:46:33Z</time>
      </trkpt>
      <trkpt lat="45.37055" lon="-1.14695">
        <ele>72</ele>
        <time>2025-04-26T09:46:34Z</time>
      </trkpt>
      <trkpt lat="45.37055" lon="-1.14696">
        <ele>72</ele>
        <time>2025-04-26T09:46:35Z</time>
      </trkpt>
      <trkpt lat="45.37055" lon="-1.14696">
        <ele>72</ele>
        <time>2025-04-26T09:46:36Z</time>
      </trkpt>
      <trkpt lat="45.37055" lon="-1.14695">
        <ele>72</ele>
        <time>2025-04-26T09:46:37Z</time>
      </trkpt>
      <trkpt lat="45.37055" lon="-1.14695">
        <ele>72</ele>
        <time>2025-04-26T09:46:38Z</time>
      </trkpt>
      <trkpt lat="45.37055" lon="-1.14695">
        <ele>72</ele>
        <time>2025-04-26T09:46:39Z</time>
      </trkpt>
      <trkpt lat="45.37055" lon="-1.14695">
        <ele>72</ele>
        <time>2025-04-26T09:46:40Z</time>
      </trkpt>
      <trkpt lat="45.37055" lon="-1.14695">
        <ele>72</ele>
        <time>2025-04-26T09:46:41Z</time>
      </trkpt>
      <trkpt lat="45.37055" lon="-1.14695">
        <ele>72</ele>
        <time>2025-04-26T09:46:42Z</time>
      </trkpt>
      <trkpt lat="45.37055" lon="-1.14695">
        <ele>72</ele>
        <time>2025-04-26T09:46:43Z</time>
      </trkpt>
      <trkpt lat="45.37055" lon="-1.14695">
        <ele>72</ele>
        <time>2025-04-26T09:46:44Z</time>
      </trkpt>
      <trkpt lat="45.37055" lon="-1.14695">
        <ele>72</ele>
        <time>2025-04-26T09:46:45Z</time>
      </trkpt>
      <trkpt lat="45.37055" lon="-1.14695">
        <ele>72</ele>
        <time>2025-04-26T09:46:46Z</time>
      </trkpt>
      <trkpt lat="45.37055" lon="-1.14695">
        <ele>72</ele>
        <time>2025-04-26T09:46:47Z</time>
      </trkpt>
      <trkpt lat="45.37055" lon="-1.14695">
        <ele>72</ele>
        <time>2025-04-26T09:46:48Z</time>
      </trkpt>
      <trkpt lat="45.37055" lon="-1.14695">
        <ele>72</ele>
        <time>2025-04-26T09:46:49Z</time>
      </trkpt>
      <trkpt lat="45.37055" lon="-1.14695">
        <ele>72</ele>
        <time>2025-04-26T09:46:50Z</time>
      </trkpt>
      <trkpt lat="45.37055" lon="-1.14695">
        <ele>72</ele>
        <time>2025-04-26T09:46:51Z</time>
      </trkpt>
      <trkpt lat="45.37055" lon="-1.14695">
        <ele>72</ele>
        <time>2025-04-26T09:46:52Z</time>
      </trkpt>
      <trkpt lat="45.37055" lon="-1.14695">
        <ele>72</ele>
        <time>2025-04-26T09:46:53Z</time>
      </trkpt>
      <trkpt lat="45.37055" lon="-1.14695">
        <ele>72</ele>
        <time>2025-04-26T09:46:54Z</time>
      </trkpt>
      <trkpt lat="45.37055" lon="-1.14695">
        <ele>72</ele>
        <time>2025-04-26T09:46:55Z</time>
      </trkpt>
      <trkpt lat="45.37055" lon="-1.14695">
        <ele>72</ele>
        <time>2025-04-26T09:46:56Z</time>
      </trkpt>
      <trkpt lat="45.37055" lon="-1.14695">
        <ele>72</ele>
        <time>2025-04-26T09:46:57Z</time>
      </trkpt>
      <trkpt lat="45.37055" lon="-1.14695">
        <ele>72</ele>
        <time>2025-04-26T09:46:58Z</time>
      </trkpt>
      <trkpt lat="45.37055" lon="-1.14695">
        <ele>72</ele>
        <time>2025-04-26T09:46:59Z</time>
      </trkpt>
      <trkpt lat="45.37055" lon="-1.14695">
        <ele>72</ele>
        <time>2025-04-26T09:47:00Z</time>
      </trkpt>
      <trkpt lat="45.37055" lon="-1.14695">
        <ele>72</ele>
        <time>2025-04-26T09:47:01Z</time>
      </trkpt>
      <trkpt lat="45.37055" lon="-1.14695">
        <ele>72</ele>
        <time>2025-04-26T09:47:02Z</time>
      </trkpt>
      <trkpt lat="45.37055" lon="-1.14695">
        <ele>72</ele>
        <time>2025-04-26T09:47:03Z</time>
      </trkpt>
      <trkpt lat="45.37055" lon="-1.14695">
        <ele>72</ele>
        <time>2025-04-26T09:47:04Z</time>
      </trkpt>
      <trkpt lat="45.37055" lon="-1.14695">
        <ele>72</ele>
        <time>2025-04-26T09:47:05Z</time>
      </trkpt>
      <trkpt lat="45.37055" lon="-1.14695">
        <ele>72</ele>
        <time>2025-04-26T09:47:06Z</time>
      </trkpt>
      <trkpt lat="45.37055" lon="-1.14695">
        <ele>72</ele>
        <time>2025-04-26T09:47:07Z</time>
      </trkpt>
      <trkpt lat="45.37055" lon="-1.14695">
        <ele>72</ele>
        <time>2025-04-26T09:47:08Z</time>
      </trkpt>
      <trkpt lat="45.37055" lon="-1.14695">
        <ele>72</ele>
        <time>2025-04-26T09:47:09Z</time>
      </trkpt>
      <trkpt lat="45.37055" lon="-1.14695">
        <ele>72</ele>
        <time>2025-04-26T09:47:10Z</time>
      </trkpt>
      <trkpt lat="45.37055" lon="-1.14695">
        <ele>72</ele>
        <time>2025-04-26T09:47:11Z</time>
      </trkpt>
      <trkpt lat="45.37055" lon="-1.14695">
        <ele>72</ele>
        <time>2025-04-26T09:47:12Z</time>
      </trkpt>
      <trkpt lat="45.37055" lon="-1.14695">
        <ele>72</ele>
        <time>2025-04-26T09:47:13Z</time>
      </trkpt>
      <trkpt lat="45.37055" lon="-1.14695">
        <ele>72</ele>
        <time>2025-04-26T09:47:14Z</time>
      </trkpt>
      <trkpt lat="45.37055" lon="-1.14695">
        <ele>72</ele>
        <time>2025-04-26T09:47:15Z</time>
      </trkpt>
      <trkpt lat="45.37055" lon="-1.14695">
        <ele>72</ele>
        <time>2025-04-26T09:47:16Z</time>
      </trkpt>
      <trkpt lat="45.37055" lon="-1.14695">
        <ele>72</ele>
        <time>2025-04-26T09:47:17Z</time>
      </trkpt>
      <trkpt lat="45.37055" lon="-1.14695">
        <ele>72</ele>
        <time>2025-04-26T09:47:18Z</time>
      </trkpt>
      <trkpt lat="45.37055" lon="-1.14695">
        <ele>72</ele>
        <time>2025-04-26T09:47:19Z</time>
      </trkpt>
      <trkpt lat="45.37055" lon="-1.14695">
        <ele>72</ele>
        <time>2025-04-26T09:47:20Z</time>
      </trkpt>
      <trkpt lat="45.37055" lon="-1.14695">
        <ele>72</ele>
        <time>2025-04-26T09:47:21Z</time>
      </trkpt>
      <trkpt lat="45.37055" lon="-1.14695">
        <ele>72</ele>
        <time>2025-04-26T09:47:22Z</time>
      </trkpt>
      <trkpt lat="45.37055" lon="-1.14695">
        <ele>72</ele>
        <time>2025-04-26T09:47:23Z</time>
      </trkpt>
      <trkpt lat="45.37055" lon="-1.14695">
        <ele>72</ele>
        <time>2025-04-26T09:47:24Z</time>
      </trkpt>
      <trkpt lat="45.37055" lon="-1.14695">
        <ele>72</ele>
        <time>2025-04-26T09:47:25Z</time>
      </trkpt>
      <trkpt lat="45.37055" lon="-1.14695">
        <ele>72</ele>
        <time>2025-04-26T09:47:26Z</time>
      </trkpt>
      <trkpt lat="45.37055" lon="-1.14695">
        <ele>72</ele>
        <time>2025-04-26T09:47:27Z</time>
      </trkpt>
      <trkpt lat="45.37055" lon="-1.14695">
        <ele>72</ele>
        <time>2025-04-26T09:47:28Z</time>
      </trkpt>
      <trkpt lat="45.37055" lon="-1.14695">
        <ele>72</ele>
        <time>2025-04-26T09:47:29Z</time>
      </trkpt>
      <trkpt lat="45.37055" lon="-1.14695">
        <ele>72</ele>
        <time>2025-04-26T09:47:30Z</time>
      </trkpt>
      <trkpt lat="45.37055" lon="-1.14695">
        <ele>72</ele>
        <time>2025-04-26T09:47:31Z</time>
      </trkpt>
      <trkpt lat="45.37055" lon="-1.14695">
        <ele>72</ele>
        <time>2025-04-26T09:47:32Z</time>
      </trkpt>
      <trkpt lat="45.37055" lon="-1.14695">
        <ele>72</ele>
        <time>2025-04-26T09:47:33Z</time>
      </trkpt>
      <trkpt lat="45.37055" lon="-1.14695">
        <ele>72</ele>
        <time>2025-04-26T09:47:34Z</time>
      </trkpt>
      <trkpt lat="45.37055" lon="-1.14695">
        <ele>72</ele>
        <time>2025-04-26T09:47:35Z</time>
      </trkpt>
      <trkpt lat="45.37055" lon="-1.14695">
        <ele>72</ele>
        <time>2025-04-26T09:47:36Z</time>
      </trkpt>
      <trkpt lat="45.37055" lon="-1.14695">
        <ele>72</ele>
        <time>2025-04-26T09:47:37Z</time>
      </trkpt>
      <trkpt lat="45.37055" lon="-1.14695">
        <ele>72</ele>
        <time>2025-04-26T09:47:38Z</time>
      </trkpt>
      <trkpt lat="45.37055" lon="-1.14695">
        <ele>72</ele>
        <time>2025-04-26T09:47:39Z</time>
      </trkpt>
      <trkpt lat="45.37055" lon="-1.14695">
        <ele>72</ele>
        <time>2025-04-26T09:47:40Z</time>
      </trkpt>
      <trkpt lat="45.37055" lon="-1.14695">
        <ele>72</ele>
        <time>2025-04-26T09:47:41Z</time>
      </trkpt>
      <trkpt lat="45.37055" lon="-1.14695">
        <ele>72</ele>
        <time>2025-04-26T09:47:42Z</time>
      </trkpt>
      <trkpt lat="45.37055" lon="-1.14695">
        <ele>72</ele>
        <time>2025-04-26T09:47:43Z</time>
      </trkpt>
      <trkpt lat="45.37055" lon="-1.14695">
        <ele>72</ele>
        <time>2025-04-26T09:47:44Z</time>
      </trkpt>
      <trkpt lat="45.37055" lon="-1.14695">
        <ele>72</ele>
        <time>2025-04-26T09:47:45Z</time>
      </trkpt>
      <trkpt lat="45.37055" lon="-1.14695">
        <ele>72</ele>
        <time>2025-04-26T09:47:46Z</time>
      </trkpt>
      <trkpt lat="45.37055" lon="-1.14695">
        <ele>72</ele>
        <time>2025-04-26T09:47:47Z</time>
      </trkpt>
      <trkpt lat="45.37055" lon="-1.14695">
        <ele>72</ele>
        <time>2025-04-26T09:47:48Z</time>
      </trkpt>
      <trkpt lat="45.37055" lon="-1.14695">
        <ele>72</ele>
        <time>2025-04-26T09:48:31Z</time>
      </trkpt>
      <trkpt lat="45.37055" lon="-1.14695">
        <ele>72</ele>
        <time>2025-04-26T09:48:32Z</time>
      </trkpt>
      <trkpt lat="45.37055" lon="-1.14695">
        <ele>72</ele>
        <time>2025-04-26T09:48:33Z</time>
      </trkpt>
      <trkpt lat="45.37055" lon="-1.14695">
        <ele>72</ele>
        <time>2025-04-26T09:48:34Z</time>
      </trkpt>
      <trkpt lat="45.37055" lon="-1.14695">
        <ele>72</ele>
        <time>2025-04-26T09:48:35Z</time>
      </trkpt>
      <trkpt lat="45.37055" lon="-1.14695">
        <ele>72</ele>
        <time>2025-04-26T09:48:36Z</time>
      </trkpt>
      <trkpt lat="45.37055" lon="-1.14695">
        <ele>72</ele>
        <time>2025-04-26T09:48:37Z</time>
      </trkpt>
      <trkpt lat="45.37055" lon="-1.14695">
        <ele>72</ele>
        <time>2025-04-26T09:48:38Z</time>
      </trkpt>
      <trkpt lat="45.37055" lon="-1.14695">
        <ele>72</ele>
        <time>2025-04-26T09:48:39Z</time>
      </trkpt>
      <trkpt lat="45.37055" lon="-1.14695">
        <ele>72</ele>
        <time>2025-04-26T09:48:40Z</time>
      </trkpt>
      <trkpt lat="45.37055" lon="-1.14695">
        <ele>72</ele>
        <time>2025-04-26T09:48:41Z</time>
      </trkpt>
      <trkpt lat="45.37055" lon="-1.14695">
        <ele>72</ele>
        <time>2025-04-26T09:48:42Z</time>
      </trkpt>
      <trkpt lat="45.37055" lon="-1.14695">
        <ele>72</ele>
        <time>2025-04-26T09:48:43Z</time>
      </trkpt>
      <trkpt lat="45.37055" lon="-1.14695">
        <ele>72</ele>
        <time>2025-04-26T09:48:44Z</time>
      </trkpt>
      <trkpt lat="45.37057" lon="-1.14704">
        <ele>75</ele>
        <time>2025-04-26T09:48:45Z</time>
      </trkpt>
      <trkpt lat="45.37058" lon="-1.14706">
        <ele>75</ele>
        <time>2025-04-26T09:48:46Z</time>
      </trkpt>
      <trkpt lat="45.3706" lon="-1.1471">
        <ele>75</ele>
        <time>2025-04-26T09:48:47Z</time>
      </trkpt>
      <trkpt lat="45.37061" lon="-1.14713">
        <ele>75</ele>
        <time>2025-04-26T09:48:48Z</time>
      </trkpt>
      <trkpt lat="45.37063" lon="-1.14717">
        <ele>75</ele>
        <time>2025-04-26T09:48:49Z</time>
      </trkpt>
      <trkpt lat="45.37066" lon="-1.14721">
        <ele>75</ele>
        <time>2025-04-26T09:48:50Z</time>
      </trkpt>
      <trkpt lat="45.37067" lon="-1.14724">
        <ele>75</ele>
        <time>2025-04-26T09:48:51Z</time>
      </trkpt>
      <trkpt lat="45.37069" lon="-1.14727">
        <ele>75</ele>
        <time>2025-04-26T09:48:52Z</time>
      </trkpt>
      <trkpt lat="45.37071" lon="-1.1473">
        <ele>75</ele>
        <time>2025-04-26T09:48:53Z</time>
      </trkpt>
      <trkpt lat="45.37073" lon="-1.14734">
        <ele>74</ele>
        <time>2025-04-26T09:48:54Z</time>
      </trkpt>
      <trkpt lat="45.37074" lon="-1.14737">
        <ele>74</ele>
        <time>2025-04-26T09:48:55Z</time>
      </trkpt>
      <trkpt lat="45.37076" lon="-1.14742">
        <ele>73</ele>
        <time>2025-04-26T09:48:56Z</time>
      </trkpt>
      <trkpt lat="45.37078" lon="-1.14747">
        <ele>73</ele>
        <time>2025-04-26T09:48:57Z</time>
      </trkpt>
      <trkpt lat="45.37079" lon="-1.14752">
        <ele>73</ele>
        <time>2025-04-26T09:48:58Z</time>
      </trkpt>
      <trkpt lat="45.3708" lon="-1.14756">
        <ele>72</ele>
        <time>2025-04-26T09:48:59Z</time>
      </trkpt>
      <trkpt lat="45.37081" lon="-1.14761">
        <ele>72</ele>
        <time>2025-04-26T09:49:00Z</time>
      </trkpt>
      <trkpt lat="45.37082" lon="-1.14764">
        <ele>72</ele>
        <time>2025-04-26T09:49:01Z</time>
      </trkpt>
      <trkpt lat="45.37083" lon="-1.14769">
        <ele>72</ele>
        <time>2025-04-26T09:49:02Z</time>
      </trkpt>
      <trkpt lat="45.37083" lon="-1.14773">
        <ele>71</ele>
        <time>2025-04-26T09:49:03Z</time>
      </trkpt>
      <trkpt lat="45.37083" lon="-1.14779">
        <ele>71</ele>
        <time>2025-04-26T09:49:04Z</time>
      </trkpt>
      <trkpt lat="45.37084" lon="-1.14784">
        <ele>71</ele>
        <time>2025-04-26T09:49:05Z</time>
      </trkpt>
      <trkpt lat="45.37084" lon="-1.1479">
        <ele>70</ele>
        <time>2025-04-26T09:49:06Z</time>
      </trkpt>
      <trkpt lat="45.37085" lon="-1.14795">
        <ele>70</ele>
        <time>2025-04-26T09:49:07Z</time>
      </trkpt>
      <trkpt lat="45.37086" lon="-1.148">
        <ele>71</ele>
        <time>2025-04-26T09:49:08Z</time>
      </trkpt>
      <trkpt lat="45.37087" lon="-1.14804">
        <ele>71</ele>
        <time>2025-04-26T09:49:09Z</time>
      </trkpt>
      <trkpt lat="45.37089" lon="-1.14809">
        <ele>71</ele>
        <time>2025-04-26T09:49:10Z</time>
      </trkpt>
      <trkpt lat="45.3709" lon="-1.14815">
        <ele>72</ele>
        <time>2025-04-26T09:49:11Z</time>
      </trkpt>
      <trkpt lat="45.37091" lon="-1.1482">
        <ele>72</ele>
        <time>2025-04-26T09:49:12Z</time>
      </trkpt>
      <trkpt lat="45.37092" lon="-1.14826">
        <ele>72</ele>
        <time>2025-04-26T09:49:13Z</time>
      </trkpt>
      <trkpt lat="45.37093" lon="-1.14831">
        <ele>71</ele>
        <time>2025-04-26T09:49:14Z</time>
      </trkpt>
      <trkpt lat="45.37094" lon="-1.14837">
        <ele>71</ele>
        <time>2025-04-26T09:49:15Z</time>
      </trkpt>
      <trkpt lat="45.37095" lon="-1.14843">
        <ele>71</ele>
        <time>2025-04-26T09:49:16Z</time>
      </trkpt>
      <trkpt lat="45.37096" lon="-1.14848">
        <ele>72</ele>
        <time>2025-04-26T09:49:17Z</time>
      </trkpt>
      <trkpt lat="45.37096" lon="-1.14853">
        <ele>72</ele>
        <time>2025-04-26T09:49:18Z</time>
      </trkpt>
      <trkpt lat="45.37097" lon="-1.14859">
        <ele>72</ele>
        <time>2025-04-26T09:49:19Z</time>
      </trkpt>
      <trkpt lat="45.37098" lon="-1.14863">
        <ele>72</ele>
        <time>2025-04-26T09:49:20Z</time>
      </trkpt>
      <trkpt lat="45.37098" lon="-1.14867">
        <ele>72</ele>
        <time>2025-04-26T09:49:21Z</time>
      </trkpt>
      <trkpt lat="45.37099" lon="-1.14873">
        <ele>72</ele>
        <time>2025-04-26T09:49:22Z</time>
      </trkpt>
      <trkpt lat="45.37101" lon="-1.14878">
        <ele>73</ele>
        <time>2025-04-26T09:49:23Z</time>
      </trkpt>
      <trkpt lat="45.37102" lon="-1.14883">
        <ele>73</ele>
        <time>2025-04-26T09:49:24Z</time>
      </trkpt>
      <trkpt lat="45.37102" lon="-1.14889">
        <ele>72</ele>
        <time>2025-04-26T09:49:25Z</time>
      </trkpt>
      <trkpt lat="45.37102" lon="-1.14895">
        <ele>72</ele>
        <time>2025-04-26T09:49:26Z</time>
      </trkpt>
      <trkpt lat="45.37103" lon="-1.14901">
        <ele>72</ele>
        <time>2025-04-26T09:49:27Z</time>
      </trkpt>
      <trkpt lat="45.37104" lon="-1.14907">
        <ele>71</ele>
        <time>2025-04-26T09:49:28Z</time>
      </trkpt>
      <trkpt lat="45.37104" lon="-1.14913">
        <ele>71</ele>
        <time>2025-04-26T09:49:29Z</time>
      </trkpt>
      <trkpt lat="45.37104" lon="-1.14918">
        <ele>71</ele>
        <time>2025-04-26T09:49:30Z</time>
      </trkpt>
      <trkpt lat="45.37106" lon="-1.14924">
        <ele>71</ele>
        <time>2025-04-26T09:49:31Z</time>
      </trkpt>
      <trkpt lat="45.37107" lon="-1.1493">
        <ele>71</ele>
        <time>2025-04-26T09:49:32Z</time>
      </trkpt>
      <trkpt lat="45.37107" lon="-1.14936">
        <ele>71</ele>
        <time>2025-04-26T09:49:33Z</time>
      </trkpt>
      <trkpt lat="45.37107" lon="-1.14942">
        <ele>71</ele>
        <time>2025-04-26T09:49:34Z</time>
      </trkpt>
      <trkpt lat="45.37107" lon="-1.14948">
        <ele>71</ele>
        <time>2025-04-26T09:49:35Z</time>
      </trkpt>
      <trkpt lat="45.37108" lon="-1.14954">
        <ele>70</ele>
        <time>2025-04-26T09:49:36Z</time>
      </trkpt>
      <trkpt lat="45.37109" lon="-1.1496">
        <ele>70</ele>
        <time>2025-04-26T09:49:37Z</time>
      </trkpt>
      <trkpt lat="45.3711" lon="-1.14966">
        <ele>70</ele>
        <time>2025-04-26T09:49:38Z</time>
      </trkpt>
      <trkpt lat="45.37111" lon="-1.14972">
        <ele>70</ele>
        <time>2025-04-26T09:49:39Z</time>
      </trkpt>
      <trkpt lat="45.37112" lon="-1.14978">
        <ele>70</ele>
        <time>2025-04-26T09:49:40Z</time>
      </trkpt>
      <trkpt lat="45.37113" lon="-1.14984">
        <ele>70</ele>
        <time>2025-04-26T09:49:41Z</time>
      </trkpt>
      <trkpt lat="45.37116" lon="-1.14988">
        <ele>70</ele>
        <time>2025-04-26T09:49:42Z</time>
      </trkpt>
      <trkpt lat="45.37118" lon="-1.14993">
        <ele>70</ele>
        <time>2025-04-26T09:49:43Z</time>
      </trkpt>
      <trkpt lat="45.37119" lon="-1.14997">
        <ele>70</ele>
        <time>2025-04-26T09:49:44Z</time>
      </trkpt>
      <trkpt lat="45.37121" lon="-1.15">
        <ele>70</ele>
        <time>2025-04-26T09:49:45Z</time>
      </trkpt>
      <trkpt lat="45.37123" lon="-1.15003">
        <ele>70</ele>
        <time>2025-04-26T09:49:46Z</time>
      </trkpt>
      <trkpt lat="45.37125" lon="-1.15007">
        <ele>71</ele>
        <time>2025-04-26T09:49:47Z</time>
      </trkpt>
      <trkpt lat="45.37127" lon="-1.15011">
        <ele>71</ele>
        <time>2025-04-26T09:49:48Z</time>
      </trkpt>
      <trkpt lat="45.37129" lon="-1.15015">
        <ele>71</ele>
        <time>2025-04-26T09:49:49Z</time>
      </trkpt>
      <trkpt lat="45.37131" lon="-1.15019">
        <ele>71</ele>
        <time>2025-04-26T09:49:50Z</time>
      </trkpt>
      <trkpt lat="45.37133" lon="-1.15023">
        <ele>71</ele>
        <time>2025-04-26T09:49:51Z</time>
      </trkpt>
      <trkpt lat="45.37134" lon="-1.15028">
        <ele>71</ele>
        <time>2025-04-26T09:49:52Z</time>
      </trkpt>
      <trkpt lat="45.37136" lon="-1.15033">
        <ele>70</ele>
        <time>2025-04-26T09:49:53Z</time>
      </trkpt>
      <trkpt lat="45.37137" lon="-1.15038">
        <ele>70</ele>
        <time>2025-04-26T09:49:54Z</time>
      </trkpt>
      <trkpt lat="45.37138" lon="-1.15043">
        <ele>70</ele>
        <time>2025-04-26T09:49:55Z</time>
      </trkpt>
      <trkpt lat="45.37139" lon="-1.15047">
        <ele>70</ele>
        <time>2025-04-26T09:49:56Z</time>
      </trkpt>
      <trkpt lat="45.3714" lon="-1.15051">
        <ele>70</ele>
        <time>2025-04-26T09:49:57Z</time>
      </trkpt>
      <trkpt lat="45.37141" lon="-1.15056">
        <ele>69</ele>
        <time>2025-04-26T09:49:58Z</time>
      </trkpt>
      <trkpt lat="45.37141" lon="-1.15061">
        <ele>69</ele>
        <time>2025-04-26T09:49:59Z</time>
      </trkpt>
      <trkpt lat="45.37142" lon="-1.15066">
        <ele>69</ele>
        <time>2025-04-26T09:50:00Z</time>
      </trkpt>
      <trkpt lat="45.37143" lon="-1.15071">
        <ele>69</ele>
        <time>2025-04-26T09:50:01Z</time>
      </trkpt>
      <trkpt lat="45.37143" lon="-1.15075">
        <ele>69</ele>
        <time>2025-04-26T09:50:02Z</time>
      </trkpt>
      <trkpt lat="45.37143" lon="-1.1508">
        <ele>69</ele>
        <time>2025-04-26T09:50:03Z</time>
      </trkpt>
      <trkpt lat="45.37144" lon="-1.15085">
        <ele>68</ele>
        <time>2025-04-26T09:50:04Z</time>
      </trkpt>
      <trkpt lat="45.37144" lon="-1.15089">
        <ele>67</ele>
        <time>2025-04-26T09:50:05Z</time>
      </trkpt>
      <trkpt lat="45.37144" lon="-1.15093">
        <ele>67</ele>
        <time>2025-04-26T09:50:06Z</time>
      </trkpt>
      <trkpt lat="45.37144" lon="-1.15098">
        <ele>67</ele>
        <time>2025-04-26T09:50:07Z</time>
      </trkpt>
      <trkpt lat="45.37144" lon="-1.15102">
        <ele>67</ele>
        <time>2025-04-26T09:50:08Z</time>
      </trkpt>
      <trkpt lat="45.37145" lon="-1.15108">
        <ele>67</ele>
        <time>2025-04-26T09:50:09Z</time>
      </trkpt>
      <trkpt lat="45.37146" lon="-1.15112">
        <ele>67</ele>
        <time>2025-04-26T09:50:10Z</time>
      </trkpt>
      <trkpt lat="45.37147" lon="-1.15117">
        <ele>68</ele>
        <time>2025-04-26T09:50:11Z</time>
      </trkpt>
      <trkpt lat="45.37147" lon="-1.15122">
        <ele>68</ele>
        <time>2025-04-26T09:50:12Z</time>
      </trkpt>
      <trkpt lat="45.37147" lon="-1.15128">
        <ele>68</ele>
        <time>2025-04-26T09:50:13Z</time>
      </trkpt>
      <trkpt lat="45.37147" lon="-1.15133">
        <ele>68</ele>
        <time>2025-04-26T09:50:14Z</time>
      </trkpt>
      <trkpt lat="45.37147" lon="-1.15138">
        <ele>68</ele>
        <time>2025-04-26T09:50:15Z</time>
      </trkpt>
      <trkpt lat="45.37147" lon="-1.15143">
        <ele>68</ele>
        <time>2025-04-26T09:50:16Z</time>
      </trkpt>
      <trkpt lat="45.37148" lon="-1.15147">
        <ele>68</ele>
        <time>2025-04-26T09:50:17Z</time>
      </trkpt>
      <trkpt lat="45.37148" lon="-1.15151">
        <ele>68</ele>
        <time>2025-04-26T09:50:18Z</time>
      </trkpt>
      <trkpt lat="45.37148" lon="-1.15154">
        <ele>68</ele>
        <time>2025-04-26T09:50:19Z</time>
      </trkpt>
      <trkpt lat="45.37148" lon="-1.15158">
        <ele>68</ele>
        <time>2025-04-26T09:50:20Z</time>
      </trkpt>
      <trkpt lat="45.37149" lon="-1.15161">
        <ele>68</ele>
        <time>2025-04-26T09:50:21Z</time>
      </trkpt>
      <trkpt lat="45.3715" lon="-1.15163">
        <ele>68</ele>
        <time>2025-04-26T09:50:22Z</time>
      </trkpt>
      <trkpt lat="45.37151" lon="-1.15165">
        <ele>67</ele>
        <time>2025-04-26T09:50:23Z</time>
      </trkpt>
      <trkpt lat="45.37153" lon="-1.15166">
        <ele>67</ele>
        <time>2025-04-26T09:50:24Z</time>
      </trkpt>
      <trkpt lat="45.37155" lon="-1.15167">
        <ele>67</ele>
        <time>2025-04-26T09:50:25Z</time>
      </trkpt>
      <trkpt lat="45.37158" lon="-1.15168">
        <ele>68</ele>
        <time>2025-04-26T09:50:26Z</time>
      </trkpt>
      <trkpt lat="45.3716" lon="-1.1517">
        <ele>68</ele>
        <time>2025-04-26T09:50:27Z</time>
      </trkpt>
      <trkpt lat="45.37162" lon="-1.15172">
        <ele>68</ele>
        <time>2025-04-26T09:50:28Z</time>
      </trkpt>
      <trkpt lat="45.37165" lon="-1.15174">
        <ele>68</ele>
        <time>2025-04-26T09:50:29Z</time>
      </trkpt>
      <trkpt lat="45.37167" lon="-1.15176">
        <ele>68</ele>
        <time>2025-04-26T09:50:30Z</time>
      </trkpt>
      <trkpt lat="45.3717" lon="-1.15178">
        <ele>67</ele>
        <time>2025-04-26T09:50:31Z</time>
      </trkpt>
      <trkpt lat="45.37173" lon="-1.15181">
        <ele>67</ele>
        <time>2025-04-26T09:50:32Z</time>
      </trkpt>
      <trkpt lat="45.37176" lon="-1.15184">
        <ele>67</ele>
        <time>2025-04-26T09:50:33Z</time>
      </trkpt>
      <trkpt lat="45.37179" lon="-1.15186">
        <ele>67</ele>
        <time>2025-04-26T09:50:34Z</time>
      </trkpt>
      <trkpt lat="45.37182" lon="-1.15188">
        <ele>67</ele>
        <time>2025-04-26T09:50:35Z</time>
      </trkpt>
      <trkpt lat="45.37184" lon="-1.15189">
        <ele>66</ele>
        <time>2025-04-26T09:50:36Z</time>
      </trkpt>
      <trkpt lat="45.37186" lon="-1.1519">
        <ele>66</ele>
        <time>2025-04-26T09:50:37Z</time>
      </trkpt>
      <trkpt lat="45.37188" lon="-1.15192">
        <ele>66</ele>
        <time>2025-04-26T09:50:38Z</time>
      </trkpt>
      <trkpt lat="45.3719" lon="-1.15192">
        <ele>66</ele>
        <time>2025-04-26T09:50:39Z</time>
      </trkpt>
      <trkpt lat="45.37192" lon="-1.15193">
        <ele>66</ele>
        <time>2025-04-26T09:50:40Z</time>
      </trkpt>
      <trkpt lat="45.37195" lon="-1.15193">
        <ele>66</ele>
        <time>2025-04-26T09:50:41Z</time>
      </trkpt>
      <trkpt lat="45.37198" lon="-1.15193">
        <ele>66</ele>
        <time>2025-04-26T09:50:42Z</time>
      </trkpt>
      <trkpt lat="45.37201" lon="-1.15192">
        <ele>66</ele>
        <time>2025-04-26T09:50:43Z</time>
      </trkpt>
      <trkpt lat="45.37204" lon="-1.15192">
        <ele>66</ele>
        <time>2025-04-26T09:50:44Z</time>
      </trkpt>
      <trkpt lat="45.37207" lon="-1.15193">
        <ele>66</ele>
        <time>2025-04-26T09:50:45Z</time>
      </trkpt>
      <trkpt lat="45.3721" lon="-1.15193">
        <ele>66</ele>
        <time>2025-04-26T09:50:46Z</time>
      </trkpt>
      <trkpt lat="45.37214" lon="-1.15193">
        <ele>67</ele>
        <time>2025-04-26T09:50:47Z</time>
      </trkpt>
      <trkpt lat="45.37216" lon="-1.15193">
        <ele>67</ele>
        <time>2025-04-26T09:50:48Z</time>
      </trkpt>
      <trkpt lat="45.37219" lon="-1.15195">
        <ele>66</ele>
        <time>2025-04-26T09:50:49Z</time>
      </trkpt>
      <trkpt lat="45.3722" lon="-1.15199">
        <ele>66</ele>
        <time>2025-04-26T09:50:50Z</time>
      </trkpt>
      <trkpt lat="45.37222" lon="-1.15203">
        <ele>67</ele>
        <time>2025-04-26T09:50:51Z</time>
      </trkpt>
      <trkpt lat="45.37224" lon="-1.15207">
        <ele>67</ele>
        <time>2025-04-26T09:50:52Z</time>
      </trkpt>
      <trkpt lat="45.37224" lon="-1.15211">
        <ele>67</ele>
        <time>2025-04-26T09:50:53Z</time>
      </trkpt>
      <trkpt lat="45.37225" lon="-1.15215">
        <ele>67</ele>
        <time>2025-04-26T09:50:54Z</time>
      </trkpt>
      <trkpt lat="45.37225" lon="-1.15219">
        <ele>68</ele>
        <time>2025-04-26T09:50:55Z</time>
      </trkpt>
      <trkpt lat="45.37225" lon="-1.15223">
        <ele>68</ele>
        <time>2025-04-26T09:50:56Z</time>
      </trkpt>
      <trkpt lat="45.37226" lon="-1.15228">
        <ele>69</ele>
        <time>2025-04-26T09:50:57Z</time>
      </trkpt>
      <trkpt lat="45.37226" lon="-1.15232">
        <ele>69</ele>
        <time>2025-04-26T09:50:58Z</time>
      </trkpt>
      <trkpt lat="45.37226" lon="-1.15237">
        <ele>69</ele>
        <time>2025-04-26T09:50:59Z</time>
      </trkpt>
      <trkpt lat="45.37226" lon="-1.15242">
        <ele>68</ele>
        <time>2025-04-26T09:51:00Z</time>
      </trkpt>
      <trkpt lat="45.37226" lon="-1.15246">
        <ele>68</ele>
        <time>2025-04-26T09:51:01Z</time>
      </trkpt>
      <trkpt lat="45.37226" lon="-1.15251">
        <ele>68</ele>
        <time>2025-04-26T09:51:02Z</time>
      </trkpt>
      <trkpt lat="45.37227" lon="-1.15255">
        <ele>67</ele>
        <time>2025-04-26T09:51:03Z</time>
      </trkpt>
      <trkpt lat="45.37227" lon="-1.1526">
        <ele>67</ele>
        <time>2025-04-26T09:51:04Z</time>
      </trkpt>
      <trkpt lat="45.37228" lon="-1.15264">
        <ele>67</ele>
        <time>2025-04-26T09:51:05Z</time>
      </trkpt>
      <trkpt lat="45.3723" lon="-1.15269">
        <ele>67</ele>
        <time>2025-04-26T09:51:06Z</time>
      </trkpt>
      <trkpt lat="45.37231" lon="-1.15273">
        <ele>67</ele>
        <time>2025-04-26T09:51:07Z</time>
      </trkpt>
      <trkpt lat="45.37233" lon="-1.15277">
        <ele>67</ele>
        <time>2025-04-26T09:51:08Z</time>
      </trkpt>
      <trkpt lat="45.37235" lon="-1.1528">
        <ele>67</ele>
        <time>2025-04-26T09:51:09Z</time>
      </trkpt>
      <trkpt lat="45.37237" lon="-1.15284">
        <ele>67</ele>
        <time>2025-04-26T09:51:10Z</time>
      </trkpt>
      <trkpt lat="45.3724" lon="-1.15287">
        <ele>67</ele>
        <time>2025-04-26T09:51:11Z</time>
      </trkpt>
      <trkpt lat="45.37242" lon="-1.1529">
        <ele>68</ele>
        <time>2025-04-26T09:51:12Z</time>
      </trkpt>
      <trkpt lat="45.37245" lon="-1.15293">
        <ele>68</ele>
        <time>2025-04-26T09:51:13Z</time>
      </trkpt>
      <trkpt lat="45.37247" lon="-1.15296">
        <ele>68</ele>
        <time>2025-04-26T09:51:14Z</time>
      </trkpt>
      <trkpt lat="45.3725" lon="-1.15299">
        <ele>68</ele>
        <time>2025-04-26T09:51:15Z</time>
      </trkpt>
      <trkpt lat="45.37252" lon="-1.15302">
        <ele>68</ele>
        <time>2025-04-26T09:51:16Z</time>
      </trkpt>
      <trkpt lat="45.37254" lon="-1.15305">
        <ele>68</ele>
        <time>2025-04-26T09:51:17Z</time>
      </trkpt>
      <trkpt lat="45.37257" lon="-1.15308">
        <ele>68</ele>
        <time>2025-04-26T09:51:18Z</time>
      </trkpt>
      <trkpt lat="45.37259" lon="-1.15311">
        <ele>68</ele>
        <time>2025-04-26T09:51:19Z</time>
      </trkpt>
      <trkpt lat="45.37262" lon="-1.15314">
        <ele>68</ele>
        <time>2025-04-26T09:51:20Z</time>
      </trkpt>
      <trkpt lat="45.37265" lon="-1.15317">
        <ele>67</ele>
        <time>2025-04-26T09:51:21Z</time>
      </trkpt>
      <trkpt lat="45.37268" lon="-1.15321">
        <ele>67</ele>
        <time>2025-04-26T09:51:22Z</time>
      </trkpt>
      <trkpt lat="45.3727" lon="-1.15324">
        <ele>68</ele>
        <time>2025-04-26T09:51:23Z</time>
      </trkpt>
      <trkpt lat="45.37273" lon="-1.15327">
        <ele>67</ele>
        <time>2025-04-26T09:51:24Z</time>
      </trkpt>
      <trkpt lat="45.37276" lon="-1.1533">
        <ele>67</ele>
        <time>2025-04-26T09:51:25Z</time>
      </trkpt>
      <trkpt lat="45.37279" lon="-1.15334">
        <ele>67</ele>
        <time>2025-04-26T09:51:26Z</time>
      </trkpt>
      <trkpt lat="45.37282" lon="-1.15337">
        <ele>67</ele>
        <time>2025-04-26T09:51:27Z</time>
      </trkpt>
      <trkpt lat="45.37284" lon="-1.1534">
        <ele>67</ele>
        <time>2025-04-26T09:51:28Z</time>
      </trkpt>
      <trkpt lat="45.37287" lon="-1.15344">
        <ele>67</ele>
        <time>2025-04-26T09:51:29Z</time>
      </trkpt>
      <trkpt lat="45.3729" lon="-1.15348">
        <ele>67</ele>
        <time>2025-04-26T09:51:30Z</time>
      </trkpt>
      <trkpt lat="45.37293" lon="-1.15352">
        <ele>66</ele>
        <time>2025-04-26T09:51:31Z</time>
      </trkpt>
      <trkpt lat="45.37297" lon="-1.15356">
        <ele>67</ele>
        <time>2025-04-26T09:51:32Z</time>
      </trkpt>
      <trkpt lat="45.373" lon="-1.1536">
        <ele>67</ele>
        <time>2025-04-26T09:51:33Z</time>
      </trkpt>
      <trkpt lat="45.37304" lon="-1.15364">
        <ele>67</ele>
        <time>2025-04-26T09:51:34Z</time>
      </trkpt>
      <trkpt lat="45.37307" lon="-1.15368">
        <ele>66</ele>
        <time>2025-04-26T09:51:35Z</time>
      </trkpt>
      <trkpt lat="45.37311" lon="-1.15372">
        <ele>66</ele>
        <time>2025-04-26T09:51:36Z</time>
      </trkpt>
      <trkpt lat="45.37315" lon="-1.15376">
        <ele>66</ele>
        <time>2025-04-26T09:51:37Z</time>
      </trkpt>
      <trkpt lat="45.37319" lon="-1.1538">
        <ele>66</ele>
        <time>2025-04-26T09:51:38Z</time>
      </trkpt>
      <trkpt lat="45.37322" lon="-1.15385">
        <ele>67</ele>
        <time>2025-04-26T09:51:39Z</time>
      </trkpt>
      <trkpt lat="45.37326" lon="-1.15389">
        <ele>67</ele>
        <time>2025-04-26T09:51:40Z</time>
      </trkpt>
      <trkpt lat="45.37329" lon="-1.15394">
        <ele>67</ele>
        <time>2025-04-26T09:51:41Z</time>
      </trkpt>
      <trkpt lat="45.37333" lon="-1.15398">
        <ele>67</ele>
        <time>2025-04-26T09:51:42Z</time>
      </trkpt>
      <trkpt lat="45.37337" lon="-1.15402">
        <ele>67</ele>
        <time>2025-04-26T09:51:43Z</time>
      </trkpt>
      <trkpt lat="45.37341" lon="-1.15407">
        <ele>67</ele>
        <time>2025-04-26T09:51:44Z</time>
      </trkpt>
      <trkpt lat="45.37345" lon="-1.15412">
        <ele>67</ele>
        <time>2025-04-26T09:51:45Z</time>
      </trkpt>
      <trkpt lat="45.37349" lon="-1.15416">
        <ele>67</ele>
        <time>2025-04-26T09:51:46Z</time>
      </trkpt>
      <trkpt lat="45.37352" lon="-1.15421">
        <ele>66</ele>
        <time>2025-04-26T09:51:47Z</time>
      </trkpt>
      <trkpt lat="45.37356" lon="-1.15426">
        <ele>66</ele>
        <time>2025-04-26T09:51:48Z</time>
      </trkpt>
      <trkpt lat="45.37359" lon="-1.1543">
        <ele>66</ele>
        <time>2025-04-26T09:51:49Z</time>
      </trkpt>
      <trkpt lat="45.37363" lon="-1.15434">
        <ele>65</ele>
        <time>2025-04-26T09:51:50Z</time>
      </trkpt>
      <trkpt lat="45.37367" lon="-1.15438">
        <ele>65</ele>
        <time>2025-04-26T09:51:51Z</time>
      </trkpt>
      <trkpt lat="45.3737" lon="-1.15443">
        <ele>65</ele>
        <time>2025-04-26T09:51:52Z</time>
      </trkpt>
      <trkpt lat="45.37374" lon="-1.15447">
        <ele>65</ele>
        <time>2025-04-26T09:51:53Z</time>
      </trkpt>
      <trkpt lat="45.37377" lon="-1.15451">
        <ele>65</ele>
        <time>2025-04-26T09:51:54Z</time>
      </trkpt>
      <trkpt lat="45.37381" lon="-1.15455">
        <ele>65</ele>
        <time>2025-04-26T09:51:55Z</time>
      </trkpt>
      <trkpt lat="45.37384" lon="-1.15459">
        <ele>65</ele>
        <time>2025-04-26T09:51:56Z</time>
      </trkpt>
      <trkpt lat="45.37388" lon="-1.15463">
        <ele>65</ele>
        <time>2025-04-26T09:51:57Z</time>
      </trkpt>
      <trkpt lat="45.37391" lon="-1.15467">
        <ele>64</ele>
        <time>2025-04-26T09:51:58Z</time>
      </trkpt>
      <trkpt lat="45.37394" lon="-1.15471">
        <ele>64</ele>
        <time>2025-04-26T09:51:59Z</time>
      </trkpt>
      <trkpt lat="45.37397" lon="-1.15475">
        <ele>65</ele>
        <time>2025-04-26T09:52:00Z</time>
      </trkpt>
      <trkpt lat="45.374" lon="-1.15479">
        <ele>65</ele>
        <time>2025-04-26T09:52:01Z</time>
      </trkpt>
      <trkpt lat="45.37404" lon="-1.15482">
        <ele>65</ele>
        <time>2025-04-26T09:52:02Z</time>
      </trkpt>
      <trkpt lat="45.37407" lon="-1.15485">
        <ele>65</ele>
        <time>2025-04-26T09:52:03Z</time>
      </trkpt>
      <trkpt lat="45.37409" lon="-1.15487">
        <ele>65</ele>
        <time>2025-04-26T09:52:04Z</time>
      </trkpt>
      <trkpt lat="45.37413" lon="-1.1549">
        <ele>65</ele>
        <time>2025-04-26T09:52:05Z</time>
      </trkpt>
      <trkpt lat="45.37416" lon="-1.15493">
        <ele>65</ele>
        <time>2025-04-26T09:52:06Z</time>
      </trkpt>
      <trkpt lat="45.37419" lon="-1.15495">
        <ele>65</ele>
        <time>2025-04-26T09:52:07Z</time>
      </trkpt>
      <trkpt lat="45.37423" lon="-1.15498">
        <ele>65</ele>
        <time>2025-04-26T09:52:08Z</time>
      </trkpt>
      <trkpt lat="45.37426" lon="-1.155">
        <ele>65</ele>
        <time>2025-04-26T09:52:09Z</time>
      </trkpt>
      <trkpt lat="45.37429" lon="-1.15503">
        <ele>65</ele>
        <time>2025-04-26T09:52:10Z</time>
      </trkpt>
      <trkpt lat="45.37433" lon="-1.15505">
        <ele>65</ele>
        <time>2025-04-26T09:52:11Z</time>
      </trkpt>
      <trkpt lat="45.37437" lon="-1.15507">
        <ele>65</ele>
        <time>2025-04-26T09:52:12Z</time>
      </trkpt>
      <trkpt lat="45.3744" lon="-1.1551">
        <ele>65</ele>
        <time>2025-04-26T09:52:13Z</time>
      </trkpt>
      <trkpt lat="45.37444" lon="-1.15513">
        <ele>65</ele>
        <time>2025-04-26T09:52:14Z</time>
      </trkpt>
      <trkpt lat="45.37448" lon="-1.15515">
        <ele>65</ele>
        <time>2025-04-26T09:52:15Z</time>
      </trkpt>
      <trkpt lat="45.37453" lon="-1.15517">
        <ele>66</ele>
        <time>2025-04-26T09:52:16Z</time>
      </trkpt>
      <trkpt lat="45.37457" lon="-1.15519">
        <ele>66</ele>
        <time>2025-04-26T09:52:17Z</time>
      </trkpt>
      <trkpt lat="45.3746" lon="-1.1552">
        <ele>67</ele>
        <time>2025-04-26T09:52:18Z</time>
      </trkpt>
      <trkpt lat="45.37464" lon="-1.15521">
        <ele>67</ele>
        <time>2025-04-26T09:52:19Z</time>
      </trkpt>
      <trkpt lat="45.37467" lon="-1.15523">
        <ele>67</ele>
        <time>2025-04-26T09:52:20Z</time>
      </trkpt>
      <trkpt lat="45.37471" lon="-1.15524">
        <ele>67</ele>
        <time>2025-04-26T09:52:21Z</time>
      </trkpt>
      <trkpt lat="45.37475" lon="-1.15525">
        <ele>67</ele>
        <time>2025-04-26T09:52:22Z</time>
      </trkpt>
      <trkpt lat="45.37479" lon="-1.15525">
        <ele>67</ele>
        <time>2025-04-26T09:52:23Z</time>
      </trkpt>
      <trkpt lat="45.37483" lon="-1.15526">
        <ele>68</ele>
        <time>2025-04-26T09:52:24Z</time>
      </trkpt>
      <trkpt lat="45.37486" lon="-1.15527">
        <ele>68</ele>
        <time>2025-04-26T09:52:25Z</time>
      </trkpt>
      <trkpt lat="45.3749" lon="-1.15528">
        <ele>68</ele>
        <time>2025-04-26T09:52:26Z</time>
      </trkpt>
      <trkpt lat="45.37494" lon="-1.15528">
        <ele>69</ele>
        <time>2025-04-26T09:52:27Z</time>
      </trkpt>
      <trkpt lat="45.37497" lon="-1.15529">
        <ele>69</ele>
        <time>2025-04-26T09:52:28Z</time>
      </trkpt>
      <trkpt lat="45.37501" lon="-1.1553">
        <ele>69</ele>
        <time>2025-04-26T09:52:29Z</time>
      </trkpt>
      <trkpt lat="45.37505" lon="-1.15531">
        <ele>68</ele>
        <time>2025-04-26T09:52:30Z</time>
      </trkpt>
      <trkpt lat="45.37509" lon="-1.15532">
        <ele>67</ele>
        <time>2025-04-26T09:52:31Z</time>
      </trkpt>
      <trkpt lat="45.37512" lon="-1.15532">
        <ele>67</ele>
        <time>2025-04-26T09:52:32Z</time>
      </trkpt>
      <trkpt lat="45.37516" lon="-1.15533">
        <ele>66</ele>
        <time>2025-04-26T09:52:33Z</time>
      </trkpt>
      <trkpt lat="45.3752" lon="-1.15534">
        <ele>66</ele>
        <time>2025-04-26T09:52:34Z</time>
      </trkpt>
      <trkpt lat="45.37523" lon="-1.15534">
        <ele>66</ele>
        <time>2025-04-26T09:52:35Z</time>
      </trkpt>
      <trkpt lat="45.37527" lon="-1.15534">
        <ele>65</ele>
        <time>2025-04-26T09:52:36Z</time>
      </trkpt>
      <trkpt lat="45.37531" lon="-1.15534">
        <ele>65</ele>
        <time>2025-04-26T09:52:37Z</time>
      </trkpt>
      <trkpt lat="45.37535" lon="-1.15534">
        <ele>65</ele>
        <time>2025-04-26T09:52:38Z</time>
      </trkpt>
      <trkpt lat="45.37539" lon="-1.15535">
        <ele>65</ele>
        <time>2025-04-26T09:52:39Z</time>
      </trkpt>
      <trkpt lat="45.37543" lon="-1.15535">
        <ele>65</ele>
        <time>2025-04-26T09:52:40Z</time>
      </trkpt>
      <trkpt lat="45.37547" lon="-1.15536">
        <ele>66</ele>
        <time>2025-04-26T09:52:41Z</time>
      </trkpt>
      <trkpt lat="45.37551" lon="-1.15536">
        <ele>66</ele>
        <time>2025-04-26T09:52:42Z</time>
      </trkpt>
      <trkpt lat="45.37554" lon="-1.15537">
        <ele>66</ele>
        <time>2025-04-26T09:52:43Z</time>
      </trkpt>
      <trkpt lat="45.37559" lon="-1.15537">
        <ele>66</ele>
        <time>2025-04-26T09:52:44Z</time>
      </trkpt>
      <trkpt lat="45.37563" lon="-1.15537">
        <ele>66</ele>
        <time>2025-04-26T09:52:45Z</time>
      </trkpt>
      <trkpt lat="45.37567" lon="-1.15538">
        <ele>66</ele>
        <time>2025-04-26T09:52:46Z</time>
      </trkpt>
      <trkpt lat="45.37571" lon="-1.15539">
        <ele>65</ele>
        <time>2025-04-26T09:52:47Z</time>
      </trkpt>
      <trkpt lat="45.37575" lon="-1.15539">
        <ele>65</ele>
        <time>2025-04-26T09:52:48Z</time>
      </trkpt>
      <trkpt lat="45.37579" lon="-1.15539">
        <ele>66</ele>
        <time>2025-04-26T09:52:49Z</time>
      </trkpt>
      <trkpt lat="45.37583" lon="-1.15539">
        <ele>66</ele>
        <time>2025-04-26T09:52:50Z</time>
      </trkpt>
      <trkpt lat="45.37587" lon="-1.1554">
        <ele>66</ele>
        <time>2025-04-26T09:52:51Z</time>
      </trkpt>
      <trkpt lat="45.37591" lon="-1.1554">
        <ele>66</ele>
        <time>2025-04-26T09:52:52Z</time>
      </trkpt>
      <trkpt lat="45.37595" lon="-1.15541">
        <ele>66</ele>
        <time>2025-04-26T09:52:53Z</time>
      </trkpt>
      <trkpt lat="45.37599" lon="-1.15541">
        <ele>66</ele>
        <time>2025-04-26T09:52:54Z</time>
      </trkpt>
      <trkpt lat="45.37603" lon="-1.1554">
        <ele>65</ele>
        <time>2025-04-26T09:52:55Z</time>
      </trkpt>
      <trkpt lat="45.37607" lon="-1.15541">
        <ele>65</ele>
        <time>2025-04-26T09:52:56Z</time>
      </trkpt>
      <trkpt lat="45.37611" lon="-1.15541">
        <ele>65</ele>
        <time>2025-04-26T09:52:57Z</time>
      </trkpt>
      <trkpt lat="45.37614" lon="-1.15543">
        <ele>65</ele>
        <time>2025-04-26T09:52:58Z</time>
      </trkpt>
      <trkpt lat="45.37617" lon="-1.15547">
        <ele>64</ele>
        <time>2025-04-26T09:52:59Z</time>
      </trkpt>
      <trkpt lat="45.37618" lon="-1.15554">
        <ele>64</ele>
        <time>2025-04-26T09:53:00Z</time>
      </trkpt>
      <trkpt lat="45.37618" lon="-1.15561">
        <ele>64</ele>
        <time>2025-04-26T09:53:01Z</time>
      </trkpt>
      <trkpt lat="45.37618" lon="-1.15568">
        <ele>64</ele>
        <time>2025-04-26T09:53:02Z</time>
      </trkpt>
      <trkpt lat="45.37617" lon="-1.15574">
        <ele>64</ele>
        <time>2025-04-26T09:53:03Z</time>
      </trkpt>
      <trkpt lat="45.37617" lon="-1.15581">
        <ele>63</ele>
        <time>2025-04-26T09:53:04Z</time>
      </trkpt>
      <trkpt lat="45.37617" lon="-1.15587">
        <ele>63</ele>
        <time>2025-04-26T09:53:05Z</time>
      </trkpt>
      <trkpt lat="45.37616" lon="-1.15594">
        <ele>63</ele>
        <time>2025-04-26T09:53:06Z</time>
      </trkpt>
      <trkpt lat="45.37616" lon="-1.15601">
        <ele>63</ele>
        <time>2025-04-26T09:53:07Z</time>
      </trkpt>
      <trkpt lat="45.37616" lon="-1.15608">
        <ele>63</ele>
        <time>2025-04-26T09:53:08Z</time>
      </trkpt>
      <trkpt lat="45.37615" lon="-1.15614">
        <ele>63</ele>
        <time>2025-04-26T09:53:09Z</time>
      </trkpt>
      <trkpt lat="45.37615" lon="-1.15621">
        <ele>63</ele>
        <time>2025-04-26T09:53:10Z</time>
      </trkpt>
      <trkpt lat="45.37615" lon="-1.15627">
        <ele>64</ele>
        <time>2025-04-26T09:53:11Z</time>
      </trkpt>
      <trkpt lat="45.37614" lon="-1.15634">
        <ele>64</ele>
        <time>2025-04-26T09:53:12Z</time>
      </trkpt>
      <trkpt lat="45.37614" lon="-1.15641">
        <ele>63</ele>
        <time>2025-04-26T09:53:13Z</time>
      </trkpt>
      <trkpt lat="45.37614" lon="-1.15647">
        <ele>63</ele>
        <time>2025-04-26T09:53:14Z</time>
      </trkpt>
      <trkpt lat="45.37614" lon="-1.15654">
        <ele>63</ele>
        <time>2025-04-26T09:53:15Z</time>
      </trkpt>
      <trkpt lat="45.37614" lon="-1.1566">
        <ele>63</ele>
        <time>2025-04-26T09:53:16Z</time>
      </trkpt>
      <trkpt lat="45.37613" lon="-1.15667">
        <ele>62</ele>
        <time>2025-04-26T09:53:17Z</time>
      </trkpt>
      <trkpt lat="45.37613" lon="-1.15673">
        <ele>63</ele>
        <time>2025-04-26T09:53:18Z</time>
      </trkpt>
      <trkpt lat="45.37613" lon="-1.15679">
        <ele>63</ele>
        <time>2025-04-26T09:53:19Z</time>
      </trkpt>
      <trkpt lat="45.37613" lon="-1.15686">
        <ele>63</ele>
        <time>2025-04-26T09:53:20Z</time>
      </trkpt>
      <trkpt lat="45.37612" lon="-1.15692">
        <ele>63</ele>
        <time>2025-04-26T09:53:21Z</time>
      </trkpt>
      <trkpt lat="45.37612" lon="-1.15698">
        <ele>63</ele>
        <time>2025-04-26T09:53:22Z</time>
      </trkpt>
      <trkpt lat="45.37612" lon="-1.15704">
        <ele>62</ele>
        <time>2025-04-26T09:53:23Z</time>
      </trkpt>
      <trkpt lat="45.37612" lon="-1.15711">
        <ele>62</ele>
        <time>2025-04-26T09:53:24Z</time>
      </trkpt>
      <trkpt lat="45.37611" lon="-1.15717">
        <ele>62</ele>
        <time>2025-04-26T09:53:25Z</time>
      </trkpt>
      <trkpt lat="45.37611" lon="-1.15723">
        <ele>62</ele>
        <time>2025-04-26T09:53:26Z</time>
      </trkpt>
      <trkpt lat="45.37611" lon="-1.15729">
        <ele>62</ele>
        <time>2025-04-26T09:53:27Z</time>
      </trkpt>
      <trkpt lat="45.3761" lon="-1.15735">
        <ele>62</ele>
        <time>2025-04-26T09:53:28Z</time>
      </trkpt>
      <trkpt lat="45.3761" lon="-1.15741">
        <ele>62</ele>
        <time>2025-04-26T09:53:29Z</time>
      </trkpt>
      <trkpt lat="45.3761" lon="-1.15747">
        <ele>62</ele>
        <time>2025-04-26T09:53:30Z</time>
      </trkpt>
      <trkpt lat="45.3761" lon="-1.15753">
        <ele>62</ele>
        <time>2025-04-26T09:53:31Z</time>
      </trkpt>
      <trkpt lat="45.37609" lon="-1.15759">
        <ele>62</ele>
        <time>2025-04-26T09:53:32Z</time>
      </trkpt>
      <trkpt lat="45.37609" lon="-1.15765">
        <ele>62</ele>
        <time>2025-04-26T09:53:33Z</time>
      </trkpt>
      <trkpt lat="45.37609" lon="-1.15769">
        <ele>62</ele>
        <time>2025-04-26T09:53:34Z</time>
      </trkpt>
      <trkpt lat="45.3761" lon="-1.15774">
        <ele>63</ele>
        <time>2025-04-26T09:53:35Z</time>
      </trkpt>
      <trkpt lat="45.37612" lon="-1.15778">
        <ele>63</ele>
        <time>2025-04-26T09:53:36Z</time>
      </trkpt>
      <trkpt lat="45.37614" lon="-1.15781">
        <ele>63</ele>
        <time>2025-04-26T09:53:37Z</time>
      </trkpt>
      <trkpt lat="45.37617" lon="-1.15782">
        <ele>63</ele>
        <time>2025-04-26T09:53:38Z</time>
      </trkpt>
      <trkpt lat="45.3762" lon="-1.15783">
        <ele>63</ele>
        <time>2025-04-26T09:53:39Z</time>
      </trkpt>
      <trkpt lat="45.37622" lon="-1.15783">
        <ele>63</ele>
        <time>2025-04-26T09:53:40Z</time>
      </trkpt>
      <trkpt lat="45.37624" lon="-1.15783">
        <ele>63</ele>
        <time>2025-04-26T09:53:41Z</time>
      </trkpt>
      <trkpt lat="45.37626" lon="-1.15784">
        <ele>63</ele>
        <time>2025-04-26T09:53:42Z</time>
      </trkpt>
      <trkpt lat="45.37628" lon="-1.15785">
        <ele>63</ele>
        <time>2025-04-26T09:53:43Z</time>
      </trkpt>
      <trkpt lat="45.3763" lon="-1.15786">
        <ele>63</ele>
        <time>2025-04-26T09:53:44Z</time>
      </trkpt>
      <trkpt lat="45.37632" lon="-1.15788">
        <ele>63</ele>
        <time>2025-04-26T09:53:45Z</time>
      </trkpt>
      <trkpt lat="45.37633" lon="-1.1579">
        <ele>63</ele>
        <time>2025-04-26T09:53:46Z</time>
      </trkpt>
      <trkpt lat="45.37633" lon="-1.15793">
        <ele>63</ele>
        <time>2025-04-26T09:53:47Z</time>
      </trkpt>
      <trkpt lat="45.37634" lon="-1.15796">
        <ele>64</ele>
        <time>2025-04-26T09:53:48Z</time>
      </trkpt>
      <trkpt lat="45.37634" lon="-1.15799">
        <ele>64</ele>
        <time>2025-04-26T09:53:49Z</time>
      </trkpt>
      <trkpt lat="45.37634" lon="-1.15801">
        <ele>63</ele>
        <time>2025-04-26T09:53:50Z</time>
      </trkpt>
      <trkpt lat="45.37633" lon="-1.15803">
        <ele>63</ele>
        <time>2025-04-26T09:53:51Z</time>
      </trkpt>
      <trkpt lat="45.37633" lon="-1.15805">
        <ele>63</ele>
        <time>2025-04-26T09:53:52Z</time>
      </trkpt>
      <trkpt lat="45.37633" lon="-1.15806">
        <ele>63</ele>
        <time>2025-04-26T09:53:53Z</time>
      </trkpt>
      <trkpt lat="45.37634" lon="-1.15806">
        <ele>63</ele>
        <time>2025-04-26T09:53:54Z</time>
      </trkpt>
      <trkpt lat="45.37634" lon="-1.15806">
        <ele>63</ele>
        <time>2025-04-26T09:53:55Z</time>
      </trkpt>
      <trkpt lat="45.37634" lon="-1.15806">
        <ele>63</ele>
        <time>2025-04-26T09:53:56Z</time>
      </trkpt>
      <trkpt lat="45.37634" lon="-1.15806">
        <ele>63</ele>
        <time>2025-04-26T09:53:57Z</time>
      </trkpt>
      <trkpt lat="45.37634" lon="-1.15806">
        <ele>63</ele>
        <time>2025-04-26T09:53:58Z</time>
      </trkpt>
      <trkpt lat="45.37634" lon="-1.15806">
        <ele>63</ele>
        <time>2025-04-26T09:53:59Z</time>
      </trkpt>
      <trkpt lat="45.37634" lon="-1.15806">
        <ele>63</ele>
        <time>2025-04-26T09:54:00Z</time>
      </trkpt>
      <trkpt lat="45.37634" lon="-1.15806">
        <ele>63</ele>
        <time>2025-04-26T09:54:01Z</time>
      </trkpt>
      <trkpt lat="45.37634" lon="-1.15806">
        <ele>63</ele>
        <time>2025-04-26T09:54:02Z</time>
      </trkpt>
      <trkpt lat="45.37634" lon="-1.15806">
        <ele>63</ele>
        <time>2025-04-26T09:54:03Z</time>
      </trkpt>
      <trkpt lat="45.37634" lon="-1.15806">
        <ele>63</ele>
        <time>2025-04-26T09:54:04Z</time>
      </trkpt>
      <trkpt lat="45.37634" lon="-1.15806">
        <ele>63</ele>
        <time>2025-04-26T09:54:05Z</time>
      </trkpt>
      <trkpt lat="45.37634" lon="-1.15806">
        <ele>63</ele>
        <time>2025-04-26T09:54:06Z</time>
      </trkpt>
      <trkpt lat="45.37634" lon="-1.15806">
        <ele>63</ele>
        <time>2025-04-26T09:54:07Z</time>
      </trkpt>
      <trkpt lat="45.37634" lon="-1.15806">
        <ele>63</ele>
        <time>2025-04-26T09:54:08Z</time>
      </trkpt>
      <trkpt lat="45.37634" lon="-1.15806">
        <ele>63</ele>
        <time>2025-04-26T09:54:09Z</time>
      </trkpt>
      <trkpt lat="45.37634" lon="-1.15806">
        <ele>63</ele>
        <time>2025-04-26T09:54:10Z</time>
      </trkpt>
      <trkpt lat="45.37634" lon="-1.15806">
        <ele>63</ele>
        <time>2025-04-26T09:54:11Z</time>
      </trkpt>
      <trkpt lat="45.37634" lon="-1.15806">
        <ele>63</ele>
        <time>2025-04-26T09:54:12Z</time>
      </trkpt>
      <trkpt lat="45.37634" lon="-1.15806">
        <ele>63</ele>
        <time>2025-04-26T09:54:13Z</time>
      </trkpt>
      <trkpt lat="45.37634" lon="-1.15806">
        <ele>63</ele>
        <time>2025-04-26T09:54:14Z</time>
      </trkpt>
      <trkpt lat="45.37634" lon="-1.15806">
        <ele>63</ele>
        <time>2025-04-26T09:54:15Z</time>
      </trkpt>
      <trkpt lat="45.37634" lon="-1.15806">
        <ele>63</ele>
        <time>2025-04-26T09:54:16Z</time>
      </trkpt>
      <trkpt lat="45.37634" lon="-1.15806">
        <ele>63</ele>
        <time>2025-04-26T09:54:17Z</time>
      </trkpt>
      <trkpt lat="45.37634" lon="-1.15806">
        <ele>63</ele>
        <time>2025-04-26T09:54:18Z</time>
      </trkpt>
      <trkpt lat="45.37634" lon="-1.15806">
        <ele>63</ele>
        <time>2025-04-26T09:54:19Z</time>
      </trkpt>
      <trkpt lat="45.37637" lon="-1.15806">
        <ele>63</ele>
        <time>2025-04-26T09:54:20Z</time>
      </trkpt>
      <trkpt lat="45.37637" lon="-1.15804">
        <ele>63</ele>
        <time>2025-04-26T09:54:21Z</time>
      </trkpt>
      <trkpt lat="45.37636" lon="-1.15802">
        <ele>63</ele>
        <time>2025-04-26T09:54:22Z</time>
      </trkpt>
      <trkpt lat="45.37637" lon="-1.158">
        <ele>63</ele>
        <time>2025-04-26T09:54:23Z</time>
      </trkpt>
      <trkpt lat="45.37639" lon="-1.15798">
        <ele>63</ele>
        <time>2025-04-26T09:54:24Z</time>
      </trkpt>
      <trkpt lat="45.37641" lon="-1.15797">
        <ele>63</ele>
        <time>2025-04-26T09:54:25Z</time>
      </trkpt>
      <trkpt lat="45.37643" lon="-1.15795">
        <ele>64</ele>
        <time>2025-04-26T09:54:26Z</time>
      </trkpt>
      <trkpt lat="45.37646" lon="-1.15795">
        <ele>63</ele>
        <time>2025-04-26T09:54:27Z</time>
      </trkpt>
      <trkpt lat="45.37649" lon="-1.15795">
        <ele>63</ele>
        <time>2025-04-26T09:54:28Z</time>
      </trkpt>
      <trkpt lat="45.37652" lon="-1.15795">
        <ele>63</ele>
        <time>2025-04-26T09:54:29Z</time>
      </trkpt>
      <trkpt lat="45.37654" lon="-1.15796">
        <ele>63</ele>
        <time>2025-04-26T09:54:30Z</time>
      </trkpt>
      <trkpt lat="45.37657" lon="-1.15795">
        <ele>63</ele>
        <time>2025-04-26T09:54:31Z</time>
      </trkpt>
      <trkpt lat="45.3766" lon="-1.15796">
        <ele>63</ele>
        <time>2025-04-26T09:54:32Z</time>
      </trkpt>
      <trkpt lat="45.37663" lon="-1.15796">
        <ele>62</ele>
        <time>2025-04-26T09:54:33Z</time>
      </trkpt>
      <trkpt lat="45.37666" lon="-1.15797">
        <ele>62</ele>
        <time>2025-04-26T09:54:34Z</time>
      </trkpt>
      <trkpt lat="45.37669" lon="-1.15797">
        <ele>63</ele>
        <time>2025-04-26T09:54:35Z</time>
      </trkpt>
      <trkpt lat="45.37673" lon="-1.15797">
        <ele>63</ele>
        <time>2025-04-26T09:54:36Z</time>
      </trkpt>
      <trkpt lat="45.37676" lon="-1.15797">
        <ele>63</ele>
        <time>2025-04-26T09:54:37Z</time>
      </trkpt>
      <trkpt lat="45.37678" lon="-1.15797">
        <ele>63</ele>
        <time>2025-04-26T09:54:38Z</time>
      </trkpt>
      <trkpt lat="45.37681" lon="-1.15798">
        <ele>63</ele>
        <time>2025-04-26T09:54:39Z</time>
      </trkpt>
      <trkpt lat="45.37685" lon="-1.15798">
        <ele>63</ele>
        <time>2025-04-26T09:54:40Z</time>
      </trkpt>
      <trkpt lat="45.37688" lon="-1.15799">
        <ele>63</ele>
        <time>2025-04-26T09:54:41Z</time>
      </trkpt>
      <trkpt lat="45.37691" lon="-1.158">
        <ele>63</ele>
        <time>2025-04-26T09:54:42Z</time>
      </trkpt>
      <trkpt lat="45.37694" lon="-1.15801">
        <ele>63</ele>
        <time>2025-04-26T09:54:43Z</time>
      </trkpt>
      <trkpt lat="45.37698" lon="-1.15801">
        <ele>63</ele>
        <time>2025-04-26T09:54:44Z</time>
      </trkpt>
      <trkpt lat="45.37702" lon="-1.15801">
        <ele>63</ele>
        <time>2025-04-26T09:54:45Z</time>
      </trkpt>
      <trkpt lat="45.37706" lon="-1.15802">
        <ele>63</ele>
        <time>2025-04-26T09:54:46Z</time>
      </trkpt>
      <trkpt lat="45.37709" lon="-1.15802">
        <ele>63</ele>
        <time>2025-04-26T09:54:47Z</time>
      </trkpt>
      <trkpt lat="45.37713" lon="-1.15801">
        <ele>63</ele>
        <time>2025-04-26T09:54:48Z</time>
      </trkpt>
      <trkpt lat="45.37716" lon="-1.15802">
        <ele>62</ele>
        <time>2025-04-26T09:54:49Z</time>
      </trkpt>
      <trkpt lat="45.3772" lon="-1.15802">
        <ele>63</ele>
        <time>2025-04-26T09:54:50Z</time>
      </trkpt>
      <trkpt lat="45.37723" lon="-1.15802">
        <ele>64</ele>
        <time>2025-04-26T09:54:51Z</time>
      </trkpt>
      <trkpt lat="45.37726" lon="-1.15802">
        <ele>64</ele>
        <time>2025-04-26T09:54:52Z</time>
      </trkpt>
      <trkpt lat="45.3773" lon="-1.15802">
        <ele>64</ele>
        <time>2025-04-26T09:54:53Z</time>
      </trkpt>
      <trkpt lat="45.37733" lon="-1.15803">
        <ele>63</ele>
        <time>2025-04-26T09:54:54Z</time>
      </trkpt>
      <trkpt lat="45.37736" lon="-1.15804">
        <ele>64</ele>
        <time>2025-04-26T09:54:55Z</time>
      </trkpt>
      <trkpt lat="45.37739" lon="-1.15805">
        <ele>64</ele>
        <time>2025-04-26T09:54:56Z</time>
      </trkpt>
      <trkpt lat="45.37742" lon="-1.15806">
        <ele>64</ele>
        <time>2025-04-26T09:54:57Z</time>
      </trkpt>
      <trkpt lat="45.37745" lon="-1.15806">
        <ele>64</ele>
        <time>2025-04-26T09:54:58Z</time>
      </trkpt>
      <trkpt lat="45.37747" lon="-1.15807">
        <ele>65</ele>
        <time>2025-04-26T09:54:59Z</time>
      </trkpt>
      <trkpt lat="45.37749" lon="-1.15807">
        <ele>65</ele>
        <time>2025-04-26T09:55:00Z</time>
      </trkpt>
      <trkpt lat="45.37751" lon="-1.15807">
        <ele>65</ele>
        <time>2025-04-26T09:55:01Z</time>
      </trkpt>
      <trkpt lat="45.37752" lon="-1.15807">
        <ele>65</ele>
        <time>2025-04-26T09:55:02Z</time>
      </trkpt>
      <trkpt lat="45.37753" lon="-1.15807">
        <ele>65</ele>
        <time>2025-04-26T09:55:03Z</time>
      </trkpt>
      <trkpt lat="45.37754" lon="-1.15807">
        <ele>65</ele>
        <time>2025-04-26T09:55:04Z</time>
      </trkpt>
      <trkpt lat="45.37756" lon="-1.15808">
        <ele>65</ele>
        <time>2025-04-26T09:55:05Z</time>
      </trkpt>
      <trkpt lat="45.37758" lon="-1.15808">
        <ele>66</ele>
        <time>2025-04-26T09:55:06Z</time>
      </trkpt>
      <trkpt lat="45.3776" lon="-1.15809">
        <ele>66</ele>
        <time>2025-04-26T09:55:07Z</time>
      </trkpt>
      <trkpt lat="45.37762" lon="-1.15809">
        <ele>67</ele>
        <time>2025-04-26T09:55:08Z</time>
      </trkpt>
      <trkpt lat="45.37765" lon="-1.15809">
        <ele>67</ele>
        <time>2025-04-26T09:55:09Z</time>
      </trkpt>
      <trkpt lat="45.37767" lon="-1.1581">
        <ele>67</ele>
        <time>2025-04-26T09:55:10Z</time>
      </trkpt>
      <trkpt lat="45.3777" lon="-1.15809">
        <ele>66</ele>
        <time>2025-04-26T09:55:11Z</time>
      </trkpt>
      <trkpt lat="45.37773" lon="-1.15809">
        <ele>65</ele>
        <time>2025-04-26T09:55:12Z</time>
      </trkpt>
      <trkpt lat="45.37776" lon="-1.15809">
        <ele>65</ele>
        <time>2025-04-26T09:55:13Z</time>
      </trkpt>
      <trkpt lat="45.37779" lon="-1.15811">
        <ele>65</ele>
        <time>2025-04-26T09:55:14Z</time>
      </trkpt>
      <trkpt lat="45.37782" lon="-1.15812">
        <ele>65</ele>
        <time>2025-04-26T09:55:15Z</time>
      </trkpt>
      <trkpt lat="45.37785" lon="-1.15813">
        <ele>65</ele>
        <time>2025-04-26T09:55:16Z</time>
      </trkpt>
      <trkpt lat="45.37788" lon="-1.15814">
        <ele>65</ele>
        <time>2025-04-26T09:55:17Z</time>
      </trkpt>
      <trkpt lat="45.37791" lon="-1.15815">
        <ele>65</ele>
        <time>2025-04-26T09:55:18Z</time>
      </trkpt>
      <trkpt lat="45.37794" lon="-1.15815">
        <ele>65</ele>
        <time>2025-04-26T09:55:19Z</time>
      </trkpt>
      <trkpt lat="45.37796" lon="-1.15815">
        <ele>66</ele>
        <time>2025-04-26T09:55:20Z</time>
      </trkpt>
      <trkpt lat="45.378" lon="-1.15815">
        <ele>65</ele>
        <time>2025-04-26T09:55:21Z</time>
      </trkpt>
      <trkpt lat="45.37802" lon="-1.15814">
        <ele>65</ele>
        <time>2025-04-26T09:55:22Z</time>
      </trkpt>
      <trkpt lat="45.37805" lon="-1.15814">
        <ele>65</ele>
        <time>2025-04-26T09:55:23Z</time>
      </trkpt>
      <trkpt lat="45.37807" lon="-1.15814">
        <ele>65</ele>
        <time>2025-04-26T09:55:24Z</time>
      </trkpt>
      <trkpt lat="45.37809" lon="-1.15814">
        <ele>65</ele>
        <time>2025-04-26T09:55:25Z</time>
      </trkpt>
      <trkpt lat="45.37811" lon="-1.15814">
        <ele>66</ele>
        <time>2025-04-26T09:55:26Z</time>
      </trkpt>
      <trkpt lat="45.37812" lon="-1.15814">
        <ele>66</ele>
        <time>2025-04-26T09:55:27Z</time>
      </trkpt>
      <trkpt lat="45.37813" lon="-1.15814">
        <ele>66</ele>
        <time>2025-04-26T09:55:28Z</time>
      </trkpt>
      <trkpt lat="45.37813" lon="-1.15814">
        <ele>66</ele>
        <time>2025-04-26T09:55:29Z</time>
      </trkpt>
      <trkpt lat="45.37813" lon="-1.15814">
        <ele>66</ele>
        <time>2025-04-26T09:55:30Z</time>
      </trkpt>
      <trkpt lat="45.37813" lon="-1.15814">
        <ele>66</ele>
        <time>2025-04-26T09:55:31Z</time>
      </trkpt>
      <trkpt lat="45.37815" lon="-1.15816">
        <ele>65</ele>
        <time>2025-04-26T09:55:32Z</time>
      </trkpt>
      <trkpt lat="45.37816" lon="-1.15818">
        <ele>64</ele>
        <time>2025-04-26T09:55:33Z</time>
      </trkpt>
      <trkpt lat="45.37816" lon="-1.1582">
        <ele>64</ele>
        <time>2025-04-26T09:55:34Z</time>
      </trkpt>
      <trkpt lat="45.37817" lon="-1.15823">
        <ele>64</ele>
        <time>2025-04-26T09:55:35Z</time>
      </trkpt>
      <trkpt lat="45.37818" lon="-1.15825">
        <ele>64</ele>
        <time>2025-04-26T09:55:36Z</time>
      </trkpt>
      <trkpt lat="45.37819" lon="-1.15828">
        <ele>64</ele>
        <time>2025-04-26T09:55:37Z</time>
      </trkpt>
      <trkpt lat="45.3782" lon="-1.1583">
        <ele>64</ele>
        <time>2025-04-26T09:55:38Z</time>
      </trkpt>
      <trkpt lat="45.37822" lon="-1.15833">
        <ele>64</ele>
        <time>2025-04-26T09:55:39Z</time>
      </trkpt>
      <trkpt lat="45.37824" lon="-1.15836">
        <ele>64</ele>
        <time>2025-04-26T09:55:40Z</time>
      </trkpt>
      <trkpt lat="45.37825" lon="-1.15839">
        <ele>64</ele>
        <time>2025-04-26T09:55:41Z</time>
      </trkpt>
      <trkpt lat="45.37826" lon="-1.15843">
        <ele>64</ele>
        <time>2025-04-26T09:55:42Z</time>
      </trkpt>
      <trkpt lat="45.37827" lon="-1.15846">
        <ele>64</ele>
        <time>2025-04-26T09:55:43Z</time>
      </trkpt>
      <trkpt lat="45.37827" lon="-1.1585">
        <ele>64</ele>
        <time>2025-04-26T09:55:44Z</time>
      </trkpt>
      <trkpt lat="45.37827" lon="-1.15854">
        <ele>65</ele>
        <time>2025-04-26T09:55:45Z</time>
      </trkpt>
      <trkpt lat="45.37828" lon="-1.15858">
        <ele>65</ele>
        <time>2025-04-26T09:55:46Z</time>
      </trkpt>
      <trkpt lat="45.37827" lon="-1.15862">
        <ele>64</ele>
        <time>2025-04-26T09:55:47Z</time>
      </trkpt>
      <trkpt lat="45.37828" lon="-1.15866">
        <ele>64</ele>
        <time>2025-04-26T09:55:48Z</time>
      </trkpt>
      <trkpt lat="45.37828" lon="-1.1587">
        <ele>63</ele>
        <time>2025-04-26T09:55:49Z</time>
      </trkpt>
      <trkpt lat="45.37828" lon="-1.15874">
        <ele>63</ele>
        <time>2025-04-26T09:55:50Z</time>
      </trkpt>
      <trkpt lat="45.37827" lon="-1.15878">
        <ele>62</ele>
        <time>2025-04-26T09:55:51Z</time>
      </trkpt>
      <trkpt lat="45.37827" lon="-1.15882">
        <ele>62</ele>
        <time>2025-04-26T09:55:52Z</time>
      </trkpt>
      <trkpt lat="45.37827" lon="-1.15885">
        <ele>61</ele>
        <time>2025-04-26T09:55:53Z</time>
      </trkpt>
      <trkpt lat="45.37828" lon="-1.15888">
        <ele>61</ele>
        <time>2025-04-26T09:55:54Z</time>
      </trkpt>
      <trkpt lat="45.37827" lon="-1.15891">
        <ele>61</ele>
        <time>2025-04-26T09:55:55Z</time>
      </trkpt>
      <trkpt lat="45.37827" lon="-1.15895">
        <ele>61</ele>
        <time>2025-04-26T09:55:56Z</time>
      </trkpt>
      <trkpt lat="45.37827" lon="-1.15898">
        <ele>61</ele>
        <time>2025-04-26T09:55:57Z</time>
      </trkpt>
      <trkpt lat="45.37827" lon="-1.15902">
        <ele>61</ele>
        <time>2025-04-26T09:55:58Z</time>
      </trkpt>
      <trkpt lat="45.37827" lon="-1.15906">
        <ele>61</ele>
        <time>2025-04-26T09:55:59Z</time>
      </trkpt>
      <trkpt lat="45.37828" lon="-1.15909">
        <ele>61</ele>
        <time>2025-04-26T09:56:00Z</time>
      </trkpt>
      <trkpt lat="45.37828" lon="-1.15911">
        <ele>61</ele>
        <time>2025-04-26T09:56:01Z</time>
      </trkpt>
      <trkpt lat="45.37829" lon="-1.15914">
        <ele>61</ele>
        <time>2025-04-26T09:56:02Z</time>
      </trkpt>
      <trkpt lat="45.37829" lon="-1.15917">
        <ele>61</ele>
        <time>2025-04-26T09:56:03Z</time>
      </trkpt>
      <trkpt lat="45.3783" lon="-1.1592">
        <ele>61</ele>
        <time>2025-04-26T09:56:04Z</time>
      </trkpt>
      <trkpt lat="45.37831" lon="-1.15923">
        <ele>61</ele>
        <time>2025-04-26T09:56:05Z</time>
      </trkpt>
      <trkpt lat="45.37831" lon="-1.15925">
        <ele>61</ele>
        <time>2025-04-26T09:56:06Z</time>
      </trkpt>
      <trkpt lat="45.37831" lon="-1.15927">
        <ele>60</ele>
        <time>2025-04-26T09:56:07Z</time>
      </trkpt>
      <trkpt lat="45.3783" lon="-1.15929">
        <ele>60</ele>
        <time>2025-04-26T09:56:08Z</time>
      </trkpt>
      <trkpt lat="45.3783" lon="-1.15932">
        <ele>60</ele>
        <time>2025-04-26T09:56:09Z</time>
      </trkpt>
      <trkpt lat="45.37829" lon="-1.15933">
        <ele>60</ele>
        <time>2025-04-26T09:56:10Z</time>
      </trkpt>
      <trkpt lat="45.37829" lon="-1.15935">
        <ele>60</ele>
        <time>2025-04-26T09:56:11Z</time>
      </trkpt>
      <trkpt lat="45.37828" lon="-1.15936">
        <ele>60</ele>
        <time>2025-04-26T09:56:12Z</time>
      </trkpt>
      <trkpt lat="45.37826" lon="-1.15937">
        <ele>60</ele>
        <time>2025-04-26T09:56:13Z</time>
      </trkpt>
      <trkpt lat="45.37825" lon="-1.15937">
        <ele>60</ele>
        <time>2025-04-26T09:56:14Z</time>
      </trkpt>
      <trkpt lat="45.37824" lon="-1.15937">
        <ele>60</ele>
        <time>2025-04-26T09:56:15Z</time>
      </trkpt>
      <trkpt lat="45.37823" lon="-1.15937">
        <ele>60</ele>
        <time>2025-04-26T09:56:16Z</time>
      </trkpt>
      <trkpt lat="45.37822" lon="-1.15937">
        <ele>60</ele>
        <time>2025-04-26T09:56:17Z</time>
      </trkpt>
      <trkpt lat="45.37822" lon="-1.15937">
        <ele>60</ele>
        <time>2025-04-26T09:56:18Z</time>
      </trkpt>
      <trkpt lat="45.37822" lon="-1.15937">
        <ele>60</ele>
        <time>2025-04-26T09:56:19Z</time>
      </trkpt>
      <trkpt lat="45.37822" lon="-1.15937">
        <ele>60</ele>
        <time>2025-04-26T09:56:20Z</time>
      </trkpt>
      <trkpt lat="45.37822" lon="-1.15937">
        <ele>60</ele>
        <time>2025-04-26T09:56:21Z</time>
      </trkpt>
      <trkpt lat="45.37822" lon="-1.15937">
        <ele>60</ele>
        <time>2025-04-26T09:56:22Z</time>
      </trkpt>
      <trkpt lat="45.37822" lon="-1.15937">
        <ele>60</ele>
        <time>2025-04-26T09:56:23Z</time>
      </trkpt>
      <trkpt lat="45.37822" lon="-1.15937">
        <ele>60</ele>
        <time>2025-04-26T09:56:24Z</time>
      </trkpt>
      <trkpt lat="45.37822" lon="-1.15937">
        <ele>60</ele>
        <time>2025-04-26T09:56:25Z</time>
      </trkpt>
      <trkpt lat="45.37821" lon="-1.15937">
        <ele>60</ele>
        <time>2025-04-26T09:56:26Z</time>
      </trkpt>
      <trkpt lat="45.3782" lon="-1.15937">
        <ele>60</ele>
        <time>2025-04-26T09:56:27Z</time>
      </trkpt>
      <trkpt lat="45.37818" lon="-1.15936">
        <ele>59</ele>
        <time>2025-04-26T09:56:28Z</time>
      </trkpt>
      <trkpt lat="45.37816" lon="-1.15936">
        <ele>59</ele>
        <time>2025-04-26T09:56:29Z</time>
      </trkpt>
      <trkpt lat="45.37814" lon="-1.15936">
        <ele>60</ele>
        <time>2025-04-26T09:56:30Z</time>
      </trkpt>
      <trkpt lat="45.37812" lon="-1.15935">
        <ele>59</ele>
        <time>2025-04-26T09:56:31Z</time>
      </trkpt>
      <trkpt lat="45.3781" lon="-1.15934">
        <ele>60</ele>
        <time>2025-04-26T09:56:32Z</time>
      </trkpt>
      <trkpt lat="45.37809" lon="-1.15933">
        <ele>60</ele>
        <time>2025-04-26T09:56:33Z</time>
      </trkpt>
      <trkpt lat="45.37809" lon="-1.15931">
        <ele>60</ele>
        <time>2025-04-26T09:56:34Z</time>
      </trkpt>
      <trkpt lat="45.37808" lon="-1.1593">
        <ele>60</ele>
        <time>2025-04-26T09:56:35Z</time>
      </trkpt>
      <trkpt lat="45.37808" lon="-1.15928">
        <ele>60</ele>
        <time>2025-04-26T09:56:36Z</time>
      </trkpt>
      <trkpt lat="45.37808" lon="-1.15927">
        <ele>60</ele>
        <time>2025-04-26T09:56:37Z</time>
      </trkpt>
      <trkpt lat="45.37807" lon="-1.15926">
        <ele>60</ele>
        <time>2025-04-26T09:56:38Z</time>
      </trkpt>
      <trkpt lat="45.37807" lon="-1.15926">
        <ele>60</ele>
        <time>2025-04-26T09:56:39Z</time>
      </trkpt>
      <trkpt lat="45.37807" lon="-1.15926">
        <ele>60</ele>
        <time>2025-04-26T09:56:40Z</time>
      </trkpt>
      <trkpt lat="45.37807" lon="-1.15926">
        <ele>60</ele>
        <time>2025-04-26T09:56:41Z</time>
      </trkpt>
      <trkpt lat="45.37807" lon="-1.15926">
        <ele>60</ele>
        <time>2025-04-26T09:56:42Z</time>
      </trkpt>
      <trkpt lat="45.37807" lon="-1.15926">
        <ele>60</ele>
        <time>2025-04-26T09:56:43Z</time>
      </trkpt>
      <trkpt lat="45.37807" lon="-1.15926">
        <ele>60</ele>
        <time>2025-04-26T09:56:44Z</time>
      </trkpt>
      <trkpt lat="45.37807" lon="-1.15926">
        <ele>60</ele>
        <time>2025-04-26T09:56:45Z</time>
      </trkpt>
      <trkpt lat="45.37807" lon="-1.15926">
        <ele>60</ele>
        <time>2025-04-26T09:56:46Z</time>
      </trkpt>
      <trkpt lat="45.37807" lon="-1.15926">
        <ele>60</ele>
        <time>2025-04-26T09:56:47Z</time>
      </trkpt>
      <trkpt lat="45.37807" lon="-1.15926">
        <ele>60</ele>
        <time>2025-04-26T09:56:48Z</time>
      </trkpt>
      <trkpt lat="45.37807" lon="-1.15926">
        <ele>60</ele>
        <time>2025-04-26T09:56:49Z</time>
      </trkpt>
      <trkpt lat="45.37807" lon="-1.15926">
        <ele>60</ele>
        <time>2025-04-26T09:56:50Z</time>
      </trkpt>
      <trkpt lat="45.37807" lon="-1.15926">
        <ele>60</ele>
        <time>2025-04-26T09:56:51Z</time>
      </trkpt>
      <trkpt lat="45.37807" lon="-1.15926">
        <ele>60</ele>
        <time>2025-04-26T09:56:52Z</time>
      </trkpt>
      <trkpt lat="45.37807" lon="-1.15926">
        <ele>60</ele>
        <time>2025-04-26T09:56:53Z</time>
      </trkpt>
      <trkpt lat="45.37807" lon="-1.15926">
        <ele>60</ele>
        <time>2025-04-26T09:56:54Z</time>
      </trkpt>
      <trkpt lat="45.37807" lon="-1.15926">
        <ele>60</ele>
        <time>2025-04-26T09:56:55Z</time>
      </trkpt>
      <trkpt lat="45.37807" lon="-1.15926">
        <ele>60</ele>
        <time>2025-04-26T09:56:56Z</time>
      </trkpt>
      <trkpt lat="45.37807" lon="-1.15926">
        <ele>60</ele>
        <time>2025-04-26T09:56:57Z</time>
      </trkpt>
      <trkpt lat="45.37807" lon="-1.15926">
        <ele>60</ele>
        <time>2025-04-26T09:56:58Z</time>
      </trkpt>
      <trkpt lat="45.37807" lon="-1.15926">
        <ele>60</ele>
        <time>2025-04-26T09:56:59Z</time>
      </trkpt>
      <trkpt lat="45.37807" lon="-1.15926">
        <ele>60</ele>
        <time>2025-04-26T09:57:00Z</time>
      </trkpt>
      <trkpt lat="45.37807" lon="-1.15926">
        <ele>60</ele>
        <time>2025-04-26T09:57:01Z</time>
      </trkpt>
      <trkpt lat="45.37807" lon="-1.15926">
        <ele>60</ele>
        <time>2025-04-26T09:57:02Z</time>
      </trkpt>
      <trkpt lat="45.37807" lon="-1.15926">
        <ele>60</ele>
        <time>2025-04-26T09:57:03Z</time>
      </trkpt>
      <trkpt lat="45.37807" lon="-1.15926">
        <ele>60</ele>
        <time>2025-04-26T09:57:04Z</time>
      </trkpt>
      <trkpt lat="45.37807" lon="-1.15926">
        <ele>60</ele>
        <time>2025-04-26T09:57:05Z</time>
      </trkpt>
      <trkpt lat="45.37807" lon="-1.15926">
        <ele>60</ele>
        <time>2025-04-26T09:57:06Z</time>
      </trkpt>
      <trkpt lat="45.37807" lon="-1.15926">
        <ele>60</ele>
        <time>2025-04-26T09:57:07Z</time>
      </trkpt>
      <trkpt lat="45.37807" lon="-1.15926">
        <ele>60</ele>
        <time>2025-04-26T09:57:08Z</time>
      </trkpt>
      <trkpt lat="45.37807" lon="-1.15926">
        <ele>60</ele>
        <time>2025-04-26T09:57:09Z</time>
      </trkpt>
      <trkpt lat="45.37807" lon="-1.15926">
        <ele>60</ele>
        <time>2025-04-26T09:57:10Z</time>
      </trkpt>
      <trkpt lat="45.37807" lon="-1.15926">
        <ele>60</ele>
        <time>2025-04-26T09:57:11Z</time>
      </trkpt>
      <trkpt lat="45.37807" lon="-1.15926">
        <ele>60</ele>
        <time>2025-04-26T09:57:12Z</time>
      </trkpt>
      <trkpt lat="45.37807" lon="-1.15926">
        <ele>60</ele>
        <time>2025-04-26T09:57:13Z</time>
      </trkpt>
      <trkpt lat="45.37807" lon="-1.15926">
        <ele>60</ele>
        <time>2025-04-26T09:57:14Z</time>
      </trkpt>
      <trkpt lat="45.37807" lon="-1.15926">
        <ele>60</ele>
        <time>2025-04-26T09:57:15Z</time>
      </trkpt>
      <trkpt lat="45.37807" lon="-1.15926">
        <ele>60</ele>
        <time>2025-04-26T09:57:16Z</time>
      </trkpt>
      <trkpt lat="45.37807" lon="-1.15926">
        <ele>60</ele>
        <time>2025-04-26T09:57:17Z</time>
      </trkpt>
      <trkpt lat="45.37807" lon="-1.15926">
        <ele>60</ele>
        <time>2025-04-26T09:57:18Z</time>
      </trkpt>
      <trkpt lat="45.37807" lon="-1.15926">
        <ele>60</ele>
        <time>2025-04-26T09:57:19Z</time>
      </trkpt>
      <trkpt lat="45.37807" lon="-1.15926">
        <ele>60</ele>
        <time>2025-04-26T10:05:13Z</time>
      </trkpt>
      <trkpt lat="45.37807" lon="-1.15926">
        <ele>60</ele>
        <time>2025-04-26T10:05:14Z</time>
      </trkpt>
      <trkpt lat="45.37807" lon="-1.15926">
        <ele>60</ele>
        <time>2025-04-26T10:05:15Z</time>
      </trkpt>
      <trkpt lat="45.37807" lon="-1.15926">
        <ele>60</ele>
        <time>2025-04-26T10:05:16Z</time>
      </trkpt>
      <trkpt lat="45.37807" lon="-1.15926">
        <ele>60</ele>
        <time>2025-04-26T10:05:17Z</time>
      </trkpt>
      <trkpt lat="45.37807" lon="-1.15926">
        <ele>60</ele>
        <time>2025-04-26T10:05:18Z</time>
      </trkpt>
      <trkpt lat="45.37807" lon="-1.15926">
        <ele>60</ele>
        <time>2025-04-26T10:05:19Z</time>
      </trkpt>
      <trkpt lat="45.37807" lon="-1.15926">
        <ele>60</ele>
        <time>2025-04-26T10:05:20Z</time>
      </trkpt>
      <trkpt lat="45.37807" lon="-1.15926">
        <ele>60</ele>
        <time>2025-04-26T10:05:21Z</time>
      </trkpt>
      <trkpt lat="45.37807" lon="-1.15926">
        <ele>60</ele>
        <time>2025-04-26T10:05:22Z</time>
      </trkpt>
      <trkpt lat="45.37807" lon="-1.15926">
        <ele>60</ele>
        <time>2025-04-26T10:05:23Z</time>
      </trkpt>
      <trkpt lat="45.37807" lon="-1.15926">
        <ele>60</ele>
        <time>2025-04-26T10:05:24Z</time>
      </trkpt>
      <trkpt lat="45.37807" lon="-1.15926">
        <ele>60</ele>
        <time>2025-04-26T10:05:25Z</time>
      </trkpt>
      <trkpt lat="45.37807" lon="-1.15926">
        <ele>60</ele>
        <time>2025-04-26T10:05:26Z</time>
      </trkpt>
      <trkpt lat="45.37808" lon="-1.15926">
        <ele>61</ele>
        <time>2025-04-26T10:05:27Z</time>
      </trkpt>
      <trkpt lat="45.37809" lon="-1.15923">
        <ele>61</ele>
        <time>2025-04-26T10:05:28Z</time>
      </trkpt>
      <trkpt lat="45.37809" lon="-1.1592">
        <ele>61</ele>
        <time>2025-04-26T10:05:29Z</time>
      </trkpt>
      <trkpt lat="45.3781" lon="-1.15917">
        <ele>61</ele>
        <time>2025-04-26T10:05:30Z</time>
      </trkpt>
      <trkpt lat="45.3781" lon="-1.15913">
        <ele>61</ele>
        <time>2025-04-26T10:05:31Z</time>
      </trkpt>
      <trkpt lat="45.37811" lon="-1.15909">
        <ele>61</ele>
        <time>2025-04-26T10:05:32Z</time>
      </trkpt>
      <trkpt lat="45.37811" lon="-1.15905">
        <ele>62</ele>
        <time>2025-04-26T10:05:33Z</time>
      </trkpt>
      <trkpt lat="45.37812" lon="-1.15902">
        <ele>62</ele>
        <time>2025-04-26T10:05:34Z</time>
      </trkpt>
      <trkpt lat="45.37812" lon="-1.15898">
        <ele>62</ele>
        <time>2025-04-26T10:05:35Z</time>
      </trkpt>
      <trkpt lat="45.37811" lon="-1.15895">
        <ele>63</ele>
        <time>2025-04-26T10:05:36Z</time>
      </trkpt>
      <trkpt lat="45.37812" lon="-1.15891">
        <ele>63</ele>
        <time>2025-04-26T10:05:37Z</time>
      </trkpt>
      <trkpt lat="45.37812" lon="-1.15886">
        <ele>62</ele>
        <time>2025-04-26T10:05:38Z</time>
      </trkpt>
      <trkpt lat="45.37812" lon="-1.15881">
        <ele>62</ele>
        <time>2025-04-26T10:05:39Z</time>
      </trkpt>
      <trkpt lat="45.37812" lon="-1.15877">
        <ele>62</ele>
        <time>2025-04-26T10:05:40Z</time>
      </trkpt>
      <trkpt lat="45.37813" lon="-1.15873">
        <ele>63</ele>
        <time>2025-04-26T10:05:41Z</time>
      </trkpt>
      <trkpt lat="45.37814" lon="-1.15868">
        <ele>62</ele>
        <time>2025-04-26T10:05:42Z</time>
      </trkpt>
      <trkpt lat="45.37814" lon="-1.15864">
        <ele>62</ele>
        <time>2025-04-26T10:05:43Z</time>
      </trkpt>
      <trkpt lat="45.37815" lon="-1.15859">
        <ele>62</ele>
        <time>2025-04-26T10:05:44Z</time>
      </trkpt>
      <trkpt lat="45.37815" lon="-1.15854">
        <ele>62</ele>
        <time>2025-04-26T10:05:45Z</time>
      </trkpt>
      <trkpt lat="45.37816" lon="-1.15849">
        <ele>63</ele>
        <time>2025-04-26T10:05:46Z</time>
      </trkpt>
      <trkpt lat="45.37817" lon="-1.15844">
        <ele>63</ele>
        <time>2025-04-26T10:05:47Z</time>
      </trkpt>
      <trkpt lat="45.37817" lon="-1.1584">
        <ele>63</ele>
        <time>2025-04-26T10:05:48Z</time>
      </trkpt>
      <trkpt lat="45.37817" lon="-1.15835">
        <ele>64</ele>
        <time>2025-04-26T10:05:49Z</time>
      </trkpt>
      <trkpt lat="45.37817" lon="-1.15831">
        <ele>63</ele>
        <time>2025-04-26T10:05:50Z</time>
      </trkpt>
      <trkpt lat="45.37818" lon="-1.15826">
        <ele>64</ele>
        <time>2025-04-26T10:05:51Z</time>
      </trkpt>
      <trkpt lat="45.37818" lon="-1.15822">
        <ele>63</ele>
        <time>2025-04-26T10:05:52Z</time>
      </trkpt>
      <trkpt lat="45.37819" lon="-1.15817">
        <ele>63</ele>
        <time>2025-04-26T10:05:53Z</time>
      </trkpt>
      <trkpt lat="45.37819" lon="-1.15812">
        <ele>64</ele>
        <time>2025-04-26T10:05:54Z</time>
      </trkpt>
      <trkpt lat="45.3782" lon="-1.15808">
        <ele>64</ele>
        <time>2025-04-26T10:05:55Z</time>
      </trkpt>
      <trkpt lat="45.3782" lon="-1.15804">
        <ele>63</ele>
        <time>2025-04-26T10:05:56Z</time>
      </trkpt>
      <trkpt lat="45.3782" lon="-1.158">
        <ele>63</ele>
        <time>2025-04-26T10:05:57Z</time>
      </trkpt>
      <trkpt lat="45.3782" lon="-1.15796">
        <ele>63</ele>
        <time>2025-04-26T10:05:58Z</time>
      </trkpt>
      <trkpt lat="45.3782" lon="-1.15792">
        <ele>62</ele>
        <time>2025-04-26T10:05:59Z</time>
      </trkpt>
      <trkpt lat="45.37821" lon="-1.15788">
        <ele>62</ele>
        <time>2025-04-26T10:06:00Z</time>
      </trkpt>
      <trkpt lat="45.37821" lon="-1.15784">
        <ele>62</ele>
        <time>2025-04-26T10:06:01Z</time>
      </trkpt>
      <trkpt lat="45.37822" lon="-1.15781">
        <ele>63</ele>
        <time>2025-04-26T10:06:02Z</time>
      </trkpt>
      <trkpt lat="45.37822" lon="-1.15777">
        <ele>63</ele>
        <time>2025-04-26T10:06:03Z</time>
      </trkpt>
      <trkpt lat="45.37822" lon="-1.15774">
        <ele>62</ele>
        <time>2025-04-26T10:06:04Z</time>
      </trkpt>
      <trkpt lat="45.37822" lon="-1.1577">
        <ele>63</ele>
        <time>2025-04-26T10:06:05Z</time>
      </trkpt>
      <trkpt lat="45.37823" lon="-1.15767">
        <ele>63</ele>
        <time>2025-04-26T10:06:06Z</time>
      </trkpt>
      <trkpt lat="45.37823" lon="-1.15764">
        <ele>63</ele>
        <time>2025-04-26T10:06:07Z</time>
      </trkpt>
      <trkpt lat="45.37823" lon="-1.1576">
        <ele>63</ele>
        <time>2025-04-26T10:06:08Z</time>
      </trkpt>
      <trkpt lat="45.37823" lon="-1.15757">
        <ele>63</ele>
        <time>2025-04-26T10:06:09Z</time>
      </trkpt>
      <trkpt lat="45.37823" lon="-1.15755">
        <ele>64</ele>
        <time>2025-04-26T10:06:10Z</time>
      </trkpt>
      <trkpt lat="45.37823" lon="-1.15752">
        <ele>64</ele>
        <time>2025-04-26T10:06:11Z</time>
      </trkpt>
      <trkpt lat="45.37822" lon="-1.15751">
        <ele>64</ele>
        <time>2025-04-26T10:06:12Z</time>
      </trkpt>
      <trkpt lat="45.37822" lon="-1.1575">
        <ele>64</ele>
        <time>2025-04-26T10:06:13Z</time>
      </trkpt>
      <trkpt lat="45.37822" lon="-1.1575">
        <ele>64</ele>
        <time>2025-04-26T10:06:14Z</time>
      </trkpt>
      <trkpt lat="45.37822" lon="-1.1575">
        <ele>64</ele>
        <time>2025-04-26T10:06:15Z</time>
      </trkpt>
      <trkpt lat="45.37822" lon="-1.1575">
        <ele>64</ele>
        <time>2025-04-26T10:06:16Z</time>
      </trkpt>
      <trkpt lat="45.37822" lon="-1.1575">
        <ele>64</ele>
        <time>2025-04-26T10:06:17Z</time>
      </trkpt>
      <trkpt lat="45.37822" lon="-1.1575">
        <ele>64</ele>
        <time>2025-04-26T10:06:18Z</time>
      </trkpt>
      <trkpt lat="45.37822" lon="-1.1575">
        <ele>64</ele>
        <time>2025-04-26T10:06:19Z</time>
      </trkpt>
      <trkpt lat="45.37822" lon="-1.1575">
        <ele>64</ele>
        <time>2025-04-26T10:06:20Z</time>
      </trkpt>
      <trkpt lat="45.37822" lon="-1.1575">
        <ele>64</ele>
        <time>2025-04-26T10:06:21Z</time>
      </trkpt>
      <trkpt lat="45.37822" lon="-1.1575">
        <ele>64</ele>
        <time>2025-04-26T10:06:22Z</time>
      </trkpt>
      <trkpt lat="45.37822" lon="-1.1575">
        <ele>64</ele>
        <time>2025-04-26T10:06:23Z</time>
      </trkpt>
      <trkpt lat="45.37822" lon="-1.1575">
        <ele>64</ele>
        <time>2025-04-26T10:06:24Z</time>
      </trkpt>
      <trkpt lat="45.37822" lon="-1.1575">
        <ele>64</ele>
        <time>2025-04-26T10:06:25Z</time>
      </trkpt>
      <trkpt lat="45.37822" lon="-1.1575">
        <ele>64</ele>
        <time>2025-04-26T10:06:26Z</time>
      </trkpt>
      <trkpt lat="45.37822" lon="-1.1575">
        <ele>64</ele>
        <time>2025-04-26T10:06:27Z</time>
      </trkpt>
      <trkpt lat="45.37822" lon="-1.1575">
        <ele>64</ele>
        <time>2025-04-26T10:06:28Z</time>
      </trkpt>
      <trkpt lat="45.37822" lon="-1.1575">
        <ele>64</ele>
        <time>2025-04-26T10:06:29Z</time>
      </trkpt>
      <trkpt lat="45.37822" lon="-1.1575">
        <ele>64</ele>
        <time>2025-04-26T10:06:30Z</time>
      </trkpt>
      <trkpt lat="45.37822" lon="-1.1575">
        <ele>64</ele>
        <time>2025-04-26T10:06:31Z</time>
      </trkpt>
      <trkpt lat="45.37822" lon="-1.1575">
        <ele>64</ele>
        <time>2025-04-26T10:06:32Z</time>
      </trkpt>
      <trkpt lat="45.37822" lon="-1.1575">
        <ele>64</ele>
        <time>2025-04-26T10:06:33Z</time>
      </trkpt>
      <trkpt lat="45.37822" lon="-1.1575">
        <ele>64</ele>
        <time>2025-04-26T10:06:34Z</time>
      </trkpt>
      <trkpt lat="45.37822" lon="-1.1575">
        <ele>64</ele>
        <time>2025-04-26T10:06:35Z</time>
      </trkpt>
      <trkpt lat="45.37822" lon="-1.1575">
        <ele>64</ele>
        <time>2025-04-26T10:06:36Z</time>
      </trkpt>
      <trkpt lat="45.37822" lon="-1.1575">
        <ele>64</ele>
        <time>2025-04-26T10:06:37Z</time>
      </trkpt>
      <trkpt lat="45.37822" lon="-1.1575">
        <ele>64</ele>
        <time>2025-04-26T10:06:38Z</time>
      </trkpt>
      <trkpt lat="45.37822" lon="-1.1575">
        <ele>64</ele>
        <time>2025-04-26T10:06:39Z</time>
      </trkpt>
      <trkpt lat="45.37822" lon="-1.1575">
        <ele>64</ele>
        <time>2025-04-26T10:06:40Z</time>
      </trkpt>
      <trkpt lat="45.37822" lon="-1.1575">
        <ele>64</ele>
        <time>2025-04-26T10:06:41Z</time>
      </trkpt>
      <trkpt lat="45.37822" lon="-1.1575">
        <ele>64</ele>
        <time>2025-04-26T10:06:42Z</time>
      </trkpt>
      <trkpt lat="45.37822" lon="-1.1575">
        <ele>64</ele>
        <time>2025-04-26T10:06:43Z</time>
      </trkpt>
      <trkpt lat="45.37822" lon="-1.1575">
        <ele>64</ele>
        <time>2025-04-26T10:06:44Z</time>
      </trkpt>
      <trkpt lat="45.37822" lon="-1.1575">
        <ele>64</ele>
        <time>2025-04-26T10:06:45Z</time>
      </trkpt>
      <trkpt lat="45.37822" lon="-1.1575">
        <ele>64</ele>
        <time>2025-04-26T10:06:46Z</time>
      </trkpt>
      <trkpt lat="45.37822" lon="-1.1575">
        <ele>64</ele>
        <time>2025-04-26T10:06:47Z</time>
      </trkpt>
      <trkpt lat="45.37822" lon="-1.1575">
        <ele>64</ele>
        <time>2025-04-26T10:06:48Z</time>
      </trkpt>
      <trkpt lat="45.37822" lon="-1.1575">
        <ele>64</ele>
        <time>2025-04-26T10:06:49Z</time>
      </trkpt>
      <trkpt lat="45.37822" lon="-1.1575">
        <ele>64</ele>
        <time>2025-04-26T10:06:50Z</time>
      </trkpt>
      <trkpt lat="45.37822" lon="-1.1575">
        <ele>64</ele>
        <time>2025-04-26T10:06:51Z</time>
      </trkpt>
      <trkpt lat="45.37822" lon="-1.1575">
        <ele>64</ele>
        <time>2025-04-26T10:06:52Z</time>
      </trkpt>
      <trkpt lat="45.37822" lon="-1.1575">
        <ele>64</ele>
        <time>2025-04-26T10:06:53Z</time>
      </trkpt>
      <trkpt lat="45.37822" lon="-1.1575">
        <ele>64</ele>
        <time>2025-04-26T10:06:54Z</time>
      </trkpt>
      <trkpt lat="45.37822" lon="-1.1575">
        <ele>64</ele>
        <time>2025-04-26T10:06:55Z</time>
      </trkpt>
      <trkpt lat="45.37822" lon="-1.1575">
        <ele>64</ele>
        <time>2025-04-26T10:06:56Z</time>
      </trkpt>
      <trkpt lat="45.37822" lon="-1.1575">
        <ele>64</ele>
        <time>2025-04-26T10:06:57Z</time>
      </trkpt>
      <trkpt lat="45.37822" lon="-1.1575">
        <ele>64</ele>
        <time>2025-04-26T10:06:58Z</time>
      </trkpt>
      <trkpt lat="45.37822" lon="-1.1575">
        <ele>64</ele>
        <time>2025-04-26T10:06:59Z</time>
      </trkpt>
      <trkpt lat="45.37822" lon="-1.1575">
        <ele>64</ele>
        <time>2025-04-26T10:07:00Z</time>
      </trkpt>
      <trkpt lat="45.37822" lon="-1.1575">
        <ele>64</ele>
        <time>2025-04-26T10:07:01Z</time>
      </trkpt>
      <trkpt lat="45.37822" lon="-1.1575">
        <ele>64</ele>
        <time>2025-04-26T10:07:02Z</time>
      </trkpt>
      <trkpt lat="45.37822" lon="-1.1575">
        <ele>64</ele>
        <time>2025-04-26T10:07:03Z</time>
      </trkpt>
      <trkpt lat="45.37822" lon="-1.1575">
        <ele>64</ele>
        <time>2025-04-26T10:07:04Z</time>
      </trkpt>
      <trkpt lat="45.37822" lon="-1.1575">
        <ele>64</ele>
        <time>2025-04-26T10:07:05Z</time>
      </trkpt>
      <trkpt lat="45.37822" lon="-1.1575">
        <ele>64</ele>
        <time>2025-04-26T10:07:06Z</time>
      </trkpt>
      <trkpt lat="45.37822" lon="-1.1575">
        <ele>64</ele>
        <time>2025-04-26T10:07:07Z</time>
      </trkpt>
      <trkpt lat="45.37822" lon="-1.1575">
        <ele>64</ele>
        <time>2025-04-26T10:07:08Z</time>
      </trkpt>
      <trkpt lat="45.37822" lon="-1.1575">
        <ele>64</ele>
        <time>2025-04-26T10:07:09Z</time>
      </trkpt>
      <trkpt lat="45.37822" lon="-1.1575">
        <ele>64</ele>
        <time>2025-04-26T10:07:10Z</time>
      </trkpt>
      <trkpt lat="45.37822" lon="-1.1575">
        <ele>64</ele>
        <time>2025-04-26T10:07:11Z</time>
      </trkpt>
      <trkpt lat="45.37822" lon="-1.1575">
        <ele>64</ele>
        <time>2025-04-26T10:07:12Z</time>
      </trkpt>
      <trkpt lat="45.37822" lon="-1.1575">
        <ele>64</ele>
        <time>2025-04-26T10:07:13Z</time>
      </trkpt>
      <trkpt lat="45.37822" lon="-1.1575">
        <ele>64</ele>
        <time>2025-04-26T10:07:14Z</time>
      </trkpt>
      <trkpt lat="45.37822" lon="-1.1575">
        <ele>64</ele>
        <time>2025-04-26T10:07:15Z</time>
      </trkpt>
      <trkpt lat="45.37822" lon="-1.1575">
        <ele>64</ele>
        <time>2025-04-26T10:07:16Z</time>
      </trkpt>
      <trkpt lat="45.37822" lon="-1.1575">
        <ele>64</ele>
        <time>2025-04-26T10:07:17Z</time>
      </trkpt>
      <trkpt lat="45.37822" lon="-1.1575">
        <ele>64</ele>
        <time>2025-04-26T10:07:18Z</time>
      </trkpt>
      <trkpt lat="45.37822" lon="-1.1575">
        <ele>64</ele>
        <time>2025-04-26T10:07:19Z</time>
      </trkpt>
      <trkpt lat="45.37822" lon="-1.1575">
        <ele>64</ele>
        <time>2025-04-26T10:07:20Z</time>
      </trkpt>
      <trkpt lat="45.37822" lon="-1.1575">
        <ele>64</ele>
        <time>2025-04-26T10:07:21Z</time>
      </trkpt>
      <trkpt lat="45.37822" lon="-1.1575">
        <ele>64</ele>
        <time>2025-04-26T10:07:22Z</time>
      </trkpt>
      <trkpt lat="45.37822" lon="-1.1575">
        <ele>64</ele>
        <time>2025-04-26T10:07:23Z</time>
      </trkpt>
      <trkpt lat="45.37822" lon="-1.1575">
        <ele>64</ele>
        <time>2025-04-26T10:07:24Z</time>
      </trkpt>
      <trkpt lat="45.37824" lon="-1.15738">
        <ele>59</ele>
        <time>2025-04-26T10:42:05Z</time>
      </trkpt>
      <trkpt lat="45.37824" lon="-1.15738">
        <ele>59</ele>
        <time>2025-04-26T10:42:06Z</time>
      </trkpt>
      <trkpt lat="45.37824" lon="-1.15738">
        <ele>59</ele>
        <time>2025-04-26T10:42:07Z</time>
      </trkpt>
      <trkpt lat="45.37824" lon="-1.15738">
        <ele>59</ele>
        <time>2025-04-26T10:42:08Z</time>
      </trkpt>
      <trkpt lat="45.37824" lon="-1.15738">
        <ele>59</ele>
        <time>2025-04-26T10:42:09Z</time>
      </trkpt>
      <trkpt lat="45.37824" lon="-1.15738">
        <ele>59</ele>
        <time>2025-04-26T10:42:10Z</time>
      </trkpt>
      <trkpt lat="45.37824" lon="-1.15738">
        <ele>59</ele>
        <time>2025-04-26T10:42:11Z</time>
      </trkpt>
      <trkpt lat="45.37824" lon="-1.15738">
        <ele>59</ele>
        <time>2025-04-26T10:42:12Z</time>
      </trkpt>
      <trkpt lat="45.37824" lon="-1.15738">
        <ele>59</ele>
        <time>2025-04-26T10:42:13Z</time>
      </trkpt>
      <trkpt lat="45.37824" lon="-1.15738">
        <ele>59</ele>
        <time>2025-04-26T10:42:14Z</time>
      </trkpt>
      <trkpt lat="45.37824" lon="-1.15738">
        <ele>59</ele>
        <time>2025-04-26T10:42:15Z</time>
      </trkpt>
      <trkpt lat="45.37824" lon="-1.15738">
        <ele>59</ele>
        <time>2025-04-26T10:42:16Z</time>
      </trkpt>
      <trkpt lat="45.37824" lon="-1.15738">
        <ele>59</ele>
        <time>2025-04-26T10:42:17Z</time>
      </trkpt>
      <trkpt lat="45.37824" lon="-1.15738">
        <ele>59</ele>
        <time>2025-04-26T10:42:18Z</time>
      </trkpt>
      <trkpt lat="45.37824" lon="-1.15738">
        <ele>59</ele>
        <time>2025-04-26T10:42:19Z</time>
      </trkpt>
      <trkpt lat="45.37824" lon="-1.15738">
        <ele>59</ele>
        <time>2025-04-26T10:42:20Z</time>
      </trkpt>
      <trkpt lat="45.37824" lon="-1.15738">
        <ele>59</ele>
        <time>2025-04-26T10:42:21Z</time>
      </trkpt>
      <trkpt lat="45.37824" lon="-1.15738">
        <ele>59</ele>
        <time>2025-04-26T10:42:22Z</time>
      </trkpt>
      <trkpt lat="45.37824" lon="-1.15738">
        <ele>59</ele>
        <time>2025-04-26T10:42:23Z</time>
      </trkpt>
      <trkpt lat="45.37824" lon="-1.15738">
        <ele>59</ele>
        <time>2025-04-26T10:42:24Z</time>
      </trkpt>
      <trkpt lat="45.37824" lon="-1.15738">
        <ele>59</ele>
        <time>2025-04-26T10:42:25Z</time>
      </trkpt>
      <trkpt lat="45.37824" lon="-1.15738">
        <ele>59</ele>
        <time>2025-04-26T10:42:26Z</time>
      </trkpt>
      <trkpt lat="45.37824" lon="-1.15738">
        <ele>59</ele>
        <time>2025-04-26T10:42:27Z</time>
      </trkpt>
      <trkpt lat="45.37824" lon="-1.15738">
        <ele>59</ele>
        <time>2025-04-26T10:42:28Z</time>
      </trkpt>
      <trkpt lat="45.37824" lon="-1.15738">
        <ele>59</ele>
        <time>2025-04-26T10:42:29Z</time>
      </trkpt>
      <trkpt lat="45.37824" lon="-1.15738">
        <ele>59</ele>
        <time>2025-04-26T10:42:30Z</time>
      </trkpt>
      <trkpt lat="45.37824" lon="-1.15738">
        <ele>59</ele>
        <time>2025-04-26T10:42:31Z</time>
      </trkpt>
      <trkpt lat="45.37824" lon="-1.15738">
        <ele>59</ele>
        <time>2025-04-26T10:42:32Z</time>
      </trkpt>
      <trkpt lat="45.37824" lon="-1.15738">
        <ele>59</ele>
        <time>2025-04-26T10:42:33Z</time>
      </trkpt>
      <trkpt lat="45.37824" lon="-1.15738">
        <ele>59</ele>
        <time>2025-04-26T10:42:34Z</time>
      </trkpt>
      <trkpt lat="45.37824" lon="-1.15738">
        <ele>59</ele>
        <time>2025-04-26T10:42:35Z</time>
      </trkpt>
      <trkpt lat="45.37824" lon="-1.15738">
        <ele>59</ele>
        <time>2025-04-26T10:42:36Z</time>
      </trkpt>
      <trkpt lat="45.37824" lon="-1.15738">
        <ele>59</ele>
        <time>2025-04-26T10:42:37Z</time>
      </trkpt>
      <trkpt lat="45.37824" lon="-1.15738">
        <ele>59</ele>
        <time>2025-04-26T10:42:38Z</time>
      </trkpt>
      <trkpt lat="45.37824" lon="-1.15738">
        <ele>59</ele>
        <time>2025-04-26T10:42:39Z</time>
      </trkpt>
      <trkpt lat="45.37824" lon="-1.15738">
        <ele>59</ele>
        <time>2025-04-26T10:42:40Z</time>
      </trkpt>
      <trkpt lat="45.37824" lon="-1.15738">
        <ele>59</ele>
        <time>2025-04-26T10:42:41Z</time>
      </trkpt>
      <trkpt lat="45.37824" lon="-1.15738">
        <ele>59</ele>
        <time>2025-04-26T10:42:42Z</time>
      </trkpt>
      <trkpt lat="45.37824" lon="-1.15738">
        <ele>59</ele>
        <time>2025-04-26T10:42:43Z</time>
      </trkpt>
      <trkpt lat="45.37824" lon="-1.15738">
        <ele>59</ele>
        <time>2025-04-26T10:42:44Z</time>
      </trkpt>
      <trkpt lat="45.37824" lon="-1.15738">
        <ele>59</ele>
        <time>2025-04-26T10:42:45Z</time>
      </trkpt>
      <trkpt lat="45.37824" lon="-1.15738">
        <ele>59</ele>
        <time>2025-04-26T10:42:46Z</time>
      </trkpt>
      <trkpt lat="45.37824" lon="-1.15738">
        <ele>59</ele>
        <time>2025-04-26T10:42:47Z</time>
      </trkpt>
      <trkpt lat="45.37824" lon="-1.15738">
        <ele>59</ele>
        <time>2025-04-26T10:42:48Z</time>
      </trkpt>
      <trkpt lat="45.37824" lon="-1.15738">
        <ele>59</ele>
        <time>2025-04-26T10:42:49Z</time>
      </trkpt>
      <trkpt lat="45.37824" lon="-1.15738">
        <ele>59</ele>
        <time>2025-04-26T10:42:50Z</time>
      </trkpt>
      <trkpt lat="45.37824" lon="-1.15738">
        <ele>59</ele>
        <time>2025-04-26T10:42:51Z</time>
      </trkpt>
      <trkpt lat="45.37824" lon="-1.15738">
        <ele>59</ele>
        <time>2025-04-26T10:42:52Z</time>
      </trkpt>
      <trkpt lat="45.37824" lon="-1.15738">
        <ele>59</ele>
        <time>2025-04-26T10:42:53Z</time>
      </trkpt>
      <trkpt lat="45.37824" lon="-1.15738">
        <ele>59</ele>
        <time>2025-04-26T10:42:54Z</time>
      </trkpt>
      <trkpt lat="45.37824" lon="-1.15738">
        <ele>59</ele>
        <time>2025-04-26T10:42:55Z</time>
      </trkpt>
      <trkpt lat="45.37824" lon="-1.15738">
        <ele>59</ele>
        <time>2025-04-26T10:42:56Z</time>
      </trkpt>
      <trkpt lat="45.37824" lon="-1.15738">
        <ele>59</ele>
        <time>2025-04-26T10:42:57Z</time>
      </trkpt>
      <trkpt lat="45.37824" lon="-1.15738">
        <ele>59</ele>
        <time>2025-04-26T10:42:58Z</time>
      </trkpt>
      <trkpt lat="45.37824" lon="-1.15738">
        <ele>59</ele>
        <time>2025-04-26T10:42:59Z</time>
      </trkpt>
      <trkpt lat="45.37824" lon="-1.15738">
        <ele>59</ele>
        <time>2025-04-26T10:43:00Z</time>
      </trkpt>
      <trkpt lat="45.37824" lon="-1.15738">
        <ele>59</ele>
        <time>2025-04-26T10:43:01Z</time>
      </trkpt>
      <trkpt lat="45.37824" lon="-1.15738">
        <ele>59</ele>
        <time>2025-04-26T10:43:02Z</time>
      </trkpt>
      <trkpt lat="45.37824" lon="-1.15738">
        <ele>59</ele>
        <time>2025-04-26T10:43:03Z</time>
      </trkpt>
      <trkpt lat="45.37824" lon="-1.15738">
        <ele>59</ele>
        <time>2025-04-26T10:43:04Z</time>
      </trkpt>
      <trkpt lat="45.37824" lon="-1.15738">
        <ele>59</ele>
        <time>2025-04-26T10:43:05Z</time>
      </trkpt>
      <trkpt lat="45.37824" lon="-1.15738">
        <ele>59</ele>
        <time>2025-04-26T10:43:06Z</time>
      </trkpt>
      <trkpt lat="45.37824" lon="-1.15738">
        <ele>59</ele>
        <time>2025-04-26T10:43:07Z</time>
      </trkpt>
      <trkpt lat="45.37824" lon="-1.15738">
        <ele>59</ele>
        <time>2025-04-26T10:43:08Z</time>
      </trkpt>
      <trkpt lat="45.37824" lon="-1.15738">
        <ele>59</ele>
        <time>2025-04-26T10:43:09Z</time>
      </trkpt>
      <trkpt lat="45.37824" lon="-1.15738">
        <ele>59</ele>
        <time>2025-04-26T10:43:10Z</time>
      </trkpt>
      <trkpt lat="45.37824" lon="-1.15738">
        <ele>59</ele>
        <time>2025-04-26T10:43:11Z</time>
      </trkpt>
      <trkpt lat="45.37824" lon="-1.15738">
        <ele>59</ele>
        <time>2025-04-26T10:43:12Z</time>
      </trkpt>
      <trkpt lat="45.37824" lon="-1.15738">
        <ele>59</ele>
        <time>2025-04-26T10:43:13Z</time>
      </trkpt>
      <trkpt lat="45.37824" lon="-1.15738">
        <ele>59</ele>
        <time>2025-04-26T10:43:14Z</time>
      </trkpt>
      <trkpt lat="45.37824" lon="-1.15738">
        <ele>59</ele>
        <time>2025-04-26T10:43:15Z</time>
      </trkpt>
      <trkpt lat="45.37824" lon="-1.15738">
        <ele>59</ele>
        <time>2025-04-26T10:43:16Z</time>
      </trkpt>
      <trkpt lat="45.37824" lon="-1.15738">
        <ele>59</ele>
        <time>2025-04-26T10:43:17Z</time>
      </trkpt>
      <trkpt lat="45.37824" lon="-1.15738">
        <ele>59</ele>
        <time>2025-04-26T10:43:18Z</time>
      </trkpt>
      <trkpt lat="45.37824" lon="-1.15738">
        <ele>59</ele>
        <time>2025-04-26T10:43:19Z</time>
      </trkpt>
      <trkpt lat="45.37824" lon="-1.15738">
        <ele>59</ele>
        <time>2025-04-26T10:43:20Z</time>
      </trkpt>
      <trkpt lat="45.37824" lon="-1.15738">
        <ele>59</ele>
        <time>2025-04-26T10:43:21Z</time>
      </trkpt>
      <trkpt lat="45.37824" lon="-1.15738">
        <ele>59</ele>
        <time>2025-04-26T10:43:22Z</time>
      </trkpt>
      <trkpt lat="45.37824" lon="-1.15738">
        <ele>59</ele>
        <time>2025-04-26T10:43:23Z</time>
      </trkpt>
      <trkpt lat="45.37824" lon="-1.15738">
        <ele>59</ele>
        <time>2025-04-26T10:43:24Z</time>
      </trkpt>
      <trkpt lat="45.37824" lon="-1.15738">
        <ele>59</ele>
        <time>2025-04-26T10:43:25Z</time>
      </trkpt>
      <trkpt lat="45.37824" lon="-1.15738">
        <ele>59</ele>
        <time>2025-04-26T10:43:26Z</time>
      </trkpt>
      <trkpt lat="45.37825" lon="-1.15731">
        <ele>63</ele>
        <time>2025-04-26T10:43:27Z</time>
      </trkpt>
      <trkpt lat="45.37825" lon="-1.15727">
        <ele>64</ele>
        <time>2025-04-26T10:43:28Z</time>
      </trkpt>
      <trkpt lat="45.37826" lon="-1.15724">
        <ele>64</ele>
        <time>2025-04-26T10:43:29Z</time>
      </trkpt>
      <trkpt lat="45.37826" lon="-1.1572">
        <ele>64</ele>
        <time>2025-04-26T10:43:30Z</time>
      </trkpt>
      <trkpt lat="45.37827" lon="-1.15716">
        <ele>64</ele>
        <time>2025-04-26T10:43:31Z</time>
      </trkpt>
      <trkpt lat="45.37827" lon="-1.15712">
        <ele>65</ele>
        <time>2025-04-26T10:43:32Z</time>
      </trkpt>
      <trkpt lat="45.37828" lon="-1.15707">
        <ele>65</ele>
        <time>2025-04-26T10:43:33Z</time>
      </trkpt>
      <trkpt lat="45.37828" lon="-1.15702">
        <ele>65</ele>
        <time>2025-04-26T10:43:34Z</time>
      </trkpt>
      <trkpt lat="45.37828" lon="-1.15672">
        <ele>68</ele>
        <time>2025-04-26T10:43:40Z</time>
      </trkpt>
      <trkpt lat="45.37829" lon="-1.15667">
        <ele>68</ele>
        <time>2025-04-26T10:43:41Z</time>
      </trkpt>
      <trkpt lat="45.37829" lon="-1.15664">
        <ele>67</ele>
        <time>2025-04-26T10:43:42Z</time>
      </trkpt>
      <trkpt lat="45.37829" lon="-1.15659">
        <ele>68</ele>
        <time>2025-04-26T10:43:43Z</time>
      </trkpt>
      <trkpt lat="45.37828" lon="-1.15654">
        <ele>68</ele>
        <time>2025-04-26T10:43:44Z</time>
      </trkpt>
      <trkpt lat="45.37829" lon="-1.15649">
        <ele>68</ele>
        <time>2025-04-26T10:43:45Z</time>
      </trkpt>
      <trkpt lat="45.37829" lon="-1.15644">
        <ele>68</ele>
        <time>2025-04-26T10:43:46Z</time>
      </trkpt>
      <trkpt lat="45.37829" lon="-1.1564">
        <ele>68</ele>
        <time>2025-04-26T10:43:47Z</time>
      </trkpt>
      <trkpt lat="45.37829" lon="-1.15635">
        <ele>68</ele>
        <time>2025-04-26T10:43:48Z</time>
      </trkpt>
      <trkpt lat="45.37829" lon="-1.1563">
        <ele>68</ele>
        <time>2025-04-26T10:43:49Z</time>
      </trkpt>
      <trkpt lat="45.37829" lon="-1.15625">
        <ele>68</ele>
        <time>2025-04-26T10:43:50Z</time>
      </trkpt>
      <trkpt lat="45.37829" lon="-1.15621">
        <ele>67</ele>
        <time>2025-04-26T10:43:51Z</time>
      </trkpt>
      <trkpt lat="45.37829" lon="-1.15616">
        <ele>67</ele>
        <time>2025-04-26T10:43:52Z</time>
      </trkpt>
      <trkpt lat="45.3783" lon="-1.15612">
        <ele>67</ele>
        <time>2025-04-26T10:43:53Z</time>
      </trkpt>
      <trkpt lat="45.3783" lon="-1.15607">
        <ele>67</ele>
        <time>2025-04-26T10:43:54Z</time>
      </trkpt>
      <trkpt lat="45.3783" lon="-1.15603">
        <ele>67</ele>
        <time>2025-04-26T10:43:55Z</time>
      </trkpt>
      <trkpt lat="45.3783" lon="-1.15598">
        <ele>67</ele>
        <time>2025-04-26T10:43:56Z</time>
      </trkpt>
      <trkpt lat="45.3783" lon="-1.15593">
        <ele>67</ele>
        <time>2025-04-26T10:43:57Z</time>
      </trkpt>
      <trkpt lat="45.3783" lon="-1.15589">
        <ele>66</ele>
        <time>2025-04-26T10:43:58Z</time>
      </trkpt>
      <trkpt lat="45.37831" lon="-1.15584">
        <ele>67</ele>
        <time>2025-04-26T10:43:59Z</time>
      </trkpt>
      <trkpt lat="45.37831" lon="-1.1558">
        <ele>66</ele>
        <time>2025-04-26T10:44:00Z</time>
      </trkpt>
      <trkpt lat="45.37831" lon="-1.15576">
        <ele>66</ele>
        <time>2025-04-26T10:44:01Z</time>
      </trkpt>
      <trkpt lat="45.37832" lon="-1.15571">
        <ele>66</ele>
        <time>2025-04-26T10:44:02Z</time>
      </trkpt>
      <trkpt lat="45.37832" lon="-1.15566">
        <ele>66</ele>
        <time>2025-04-26T10:44:03Z</time>
      </trkpt>
      <trkpt lat="45.37833" lon="-1.15561">
        <ele>66</ele>
        <time>2025-04-26T10:44:04Z</time>
      </trkpt>
      <trkpt lat="45.37833" lon="-1.15556">
        <ele>66</ele>
        <time>2025-04-26T10:44:05Z</time>
      </trkpt>
      <trkpt lat="45.37834" lon="-1.15551">
        <ele>66</ele>
        <time>2025-04-26T10:44:06Z</time>
      </trkpt>
      <trkpt lat="45.37834" lon="-1.15546">
        <ele>66</ele>
        <time>2025-04-26T10:44:07Z</time>
      </trkpt>
      <trkpt lat="45.37835" lon="-1.15541">
        <ele>66</ele>
        <time>2025-04-26T10:44:08Z</time>
      </trkpt>
      <trkpt lat="45.37835" lon="-1.15536">
        <ele>66</ele>
        <time>2025-04-26T10:44:09Z</time>
      </trkpt>
      <trkpt lat="45.37835" lon="-1.15531">
        <ele>65</ele>
        <time>2025-04-26T10:44:10Z</time>
      </trkpt>
      <trkpt lat="45.37836" lon="-1.15526">
        <ele>65</ele>
        <time>2025-04-26T10:44:11Z</time>
      </trkpt>
      <trkpt lat="45.37836" lon="-1.15521">
        <ele>65</ele>
        <time>2025-04-26T10:44:12Z</time>
      </trkpt>
      <trkpt lat="45.37836" lon="-1.15516">
        <ele>65</ele>
        <time>2025-04-26T10:44:13Z</time>
      </trkpt>
      <trkpt lat="45.37836" lon="-1.15511">
        <ele>65</ele>
        <time>2025-04-26T10:44:14Z</time>
      </trkpt>
      <trkpt lat="45.37836" lon="-1.15505">
        <ele>65</ele>
        <time>2025-04-26T10:44:15Z</time>
      </trkpt>
      <trkpt lat="45.37836" lon="-1.155">
        <ele>65</ele>
        <time>2025-04-26T10:44:16Z</time>
      </trkpt>
      <trkpt lat="45.37836" lon="-1.15494">
        <ele>65</ele>
        <time>2025-04-26T10:44:17Z</time>
      </trkpt>
      <trkpt lat="45.37837" lon="-1.15489">
        <ele>65</ele>
        <time>2025-04-26T10:44:18Z</time>
      </trkpt>
      <trkpt lat="45.37837" lon="-1.15483">
        <ele>65</ele>
        <time>2025-04-26T10:44:19Z</time>
      </trkpt>
      <trkpt lat="45.37837" lon="-1.15477">
        <ele>65</ele>
        <time>2025-04-26T10:44:20Z</time>
      </trkpt>
      <trkpt lat="45.37837" lon="-1.15472">
        <ele>65</ele>
        <time>2025-04-26T10:44:21Z</time>
      </trkpt>
      <trkpt lat="45.37837" lon="-1.15466">
        <ele>65</ele>
        <time>2025-04-26T10:44:22Z</time>
      </trkpt>
      <trkpt lat="45.37838" lon="-1.15461">
        <ele>64</ele>
        <time>2025-04-26T10:44:23Z</time>
      </trkpt>
      <trkpt lat="45.37838" lon="-1.15456">
        <ele>64</ele>
        <time>2025-04-26T10:44:24Z</time>
      </trkpt>
      <trkpt lat="45.37838" lon="-1.1545">
        <ele>64</ele>
        <time>2025-04-26T10:44:25Z</time>
      </trkpt>
      <trkpt lat="45.37839" lon="-1.15445">
        <ele>64</ele>
        <time>2025-04-26T10:44:26Z</time>
      </trkpt>
      <trkpt lat="45.37839" lon="-1.15439">
        <ele>65</ele>
        <time>2025-04-26T10:44:27Z</time>
      </trkpt>
      <trkpt lat="45.3784" lon="-1.15433">
        <ele>65</ele>
        <time>2025-04-26T10:44:28Z</time>
      </trkpt>
      <trkpt lat="45.3784" lon="-1.15427">
        <ele>66</ele>
        <time>2025-04-26T10:44:29Z</time>
      </trkpt>
      <trkpt lat="45.37841" lon="-1.15422">
        <ele>65</ele>
        <time>2025-04-26T10:44:30Z</time>
      </trkpt>
      <trkpt lat="45.37841" lon="-1.15416">
        <ele>65</ele>
        <time>2025-04-26T10:44:31Z</time>
      </trkpt>
      <trkpt lat="45.37841" lon="-1.15411">
        <ele>65</ele>
        <time>2025-04-26T10:44:32Z</time>
      </trkpt>
      <trkpt lat="45.37841" lon="-1.15404">
        <ele>65</ele>
        <time>2025-04-26T10:44:33Z</time>
      </trkpt>
      <trkpt lat="45.37842" lon="-1.15399">
        <ele>65</ele>
        <time>2025-04-26T10:44:34Z</time>
      </trkpt>
      <trkpt lat="45.37842" lon="-1.15392">
        <ele>65</ele>
        <time>2025-04-26T10:44:35Z</time>
      </trkpt>
      <trkpt lat="45.37842" lon="-1.15386">
        <ele>66</ele>
        <time>2025-04-26T10:44:36Z</time>
      </trkpt>
      <trkpt lat="45.37842" lon="-1.15381">
        <ele>66</ele>
        <time>2025-04-26T10:44:37Z</time>
      </trkpt>
      <trkpt lat="45.37842" lon="-1.15375">
        <ele>66</ele>
        <time>2025-04-26T10:44:38Z</time>
      </trkpt>
      <trkpt lat="45.37843" lon="-1.1537">
        <ele>66</ele>
        <time>2025-04-26T10:44:39Z</time>
      </trkpt>
      <trkpt lat="45.37843" lon="-1.15364">
        <ele>65</ele>
        <time>2025-04-26T10:44:40Z</time>
      </trkpt>
      <trkpt lat="45.37843" lon="-1.15358">
        <ele>65</ele>
        <time>2025-04-26T10:44:41Z</time>
      </trkpt>
      <trkpt lat="45.37844" lon="-1.15353">
        <ele>65</ele>
        <time>2025-04-26T10:44:42Z</time>
      </trkpt>
      <trkpt lat="45.37844" lon="-1.15347">
        <ele>65</ele>
        <time>2025-04-26T10:44:43Z</time>
      </trkpt>
      <trkpt lat="45.37844" lon="-1.15341">
        <ele>65</ele>
        <time>2025-04-26T10:44:44Z</time>
      </trkpt>
      <trkpt lat="45.37843" lon="-1.15335">
        <ele>65</ele>
        <time>2025-04-26T10:44:45Z</time>
      </trkpt>
      <trkpt lat="45.37843" lon="-1.15329">
        <ele>65</ele>
        <time>2025-04-26T10:44:46Z</time>
      </trkpt>
      <trkpt lat="45.37843" lon="-1.15323">
        <ele>65</ele>
        <time>2025-04-26T10:44:47Z</time>
      </trkpt>
      <trkpt lat="45.37843" lon="-1.15318">
        <ele>65</ele>
        <time>2025-04-26T10:44:48Z</time>
      </trkpt>
      <trkpt lat="45.37844" lon="-1.15313">
        <ele>66</ele>
        <time>2025-04-26T10:44:49Z</time>
      </trkpt>
      <trkpt lat="45.37847" lon="-1.15309">
        <ele>66</ele>
        <time>2025-04-26T10:44:50Z</time>
      </trkpt>
      <trkpt lat="45.3785" lon="-1.15307">
        <ele>65</ele>
        <time>2025-04-26T10:44:51Z</time>
      </trkpt>
      <trkpt lat="45.37854" lon="-1.15305">
        <ele>65</ele>
        <time>2025-04-26T10:44:52Z</time>
      </trkpt>
      <trkpt lat="45.37858" lon="-1.15305">
        <ele>65</ele>
        <time>2025-04-26T10:44:53Z</time>
      </trkpt>
      <trkpt lat="45.37862" lon="-1.15306">
        <ele>64</ele>
        <time>2025-04-26T10:44:54Z</time>
      </trkpt>
      <trkpt lat="45.37866" lon="-1.15307">
        <ele>64</ele>
        <time>2025-04-26T10:44:55Z</time>
      </trkpt>
      <trkpt lat="45.37871" lon="-1.15308">
        <ele>64</ele>
        <time>2025-04-26T10:44:56Z</time>
      </trkpt>
      <trkpt lat="45.37874" lon="-1.15308">
        <ele>64</ele>
        <time>2025-04-26T10:44:57Z</time>
      </trkpt>
      <trkpt lat="45.37878" lon="-1.15308">
        <ele>63</ele>
        <time>2025-04-26T10:44:58Z</time>
      </trkpt>
      <trkpt lat="45.37882" lon="-1.15309">
        <ele>63</ele>
        <time>2025-04-26T10:44:59Z</time>
      </trkpt>
      <trkpt lat="45.37887" lon="-1.1531">
        <ele>63</ele>
        <time>2025-04-26T10:45:00Z</time>
      </trkpt>
      <trkpt lat="45.3789" lon="-1.1531">
        <ele>63</ele>
        <time>2025-04-26T10:45:01Z</time>
      </trkpt>
      <trkpt lat="45.37895" lon="-1.1531">
        <ele>63</ele>
        <time>2025-04-26T10:45:02Z</time>
      </trkpt>
      <trkpt lat="45.37899" lon="-1.1531">
        <ele>63</ele>
        <time>2025-04-26T10:45:03Z</time>
      </trkpt>
      <trkpt lat="45.37903" lon="-1.1531">
        <ele>63</ele>
        <time>2025-04-26T10:45:04Z</time>
      </trkpt>
      <trkpt lat="45.37907" lon="-1.15311">
        <ele>64</ele>
        <time>2025-04-26T10:45:05Z</time>
      </trkpt>
      <trkpt lat="45.37911" lon="-1.15311">
        <ele>64</ele>
        <time>2025-04-26T10:45:06Z</time>
      </trkpt>
      <trkpt lat="45.37915" lon="-1.15312">
        <ele>64</ele>
        <time>2025-04-26T10:45:07Z</time>
      </trkpt>
      <trkpt lat="45.37919" lon="-1.15312">
        <ele>63</ele>
        <time>2025-04-26T10:45:08Z</time>
      </trkpt>
      <trkpt lat="45.37923" lon="-1.15312">
        <ele>63</ele>
        <time>2025-04-26T10:45:09Z</time>
      </trkpt>
      <trkpt lat="45.37928" lon="-1.15313">
        <ele>63</ele>
        <time>2025-04-26T10:45:10Z</time>
      </trkpt>
      <trkpt lat="45.37932" lon="-1.15313">
        <ele>64</ele>
        <time>2025-04-26T10:45:11Z</time>
      </trkpt>
      <trkpt lat="45.37935" lon="-1.15313">
        <ele>64</ele>
        <time>2025-04-26T10:45:12Z</time>
      </trkpt>
      <trkpt lat="45.37938" lon="-1.15312">
        <ele>64</ele>
        <time>2025-04-26T10:45:13Z</time>
      </trkpt>
      <trkpt lat="45.3794" lon="-1.15312">
        <ele>64</ele>
        <time>2025-04-26T10:45:14Z</time>
      </trkpt>
      <trkpt lat="45.37943" lon="-1.15313">
        <ele>63</ele>
        <time>2025-04-26T10:45:15Z</time>
      </trkpt>
      <trkpt lat="45.37946" lon="-1.15313">
        <ele>63</ele>
        <time>2025-04-26T10:45:16Z</time>
      </trkpt>
      <trkpt lat="45.3795" lon="-1.15314">
        <ele>62</ele>
        <time>2025-04-26T10:45:17Z</time>
      </trkpt>
      <trkpt lat="45.37953" lon="-1.15315">
        <ele>62</ele>
        <time>2025-04-26T10:45:18Z</time>
      </trkpt>
      <trkpt lat="45.37957" lon="-1.15315">
        <ele>62</ele>
        <time>2025-04-26T10:45:19Z</time>
      </trkpt>
      <trkpt lat="45.3796" lon="-1.15316">
        <ele>62</ele>
        <time>2025-04-26T10:45:20Z</time>
      </trkpt>
      <trkpt lat="45.37964" lon="-1.15317">
        <ele>62</ele>
        <time>2025-04-26T10:45:21Z</time>
      </trkpt>
      <trkpt lat="45.37968" lon="-1.15317">
        <ele>62</ele>
        <time>2025-04-26T10:45:22Z</time>
      </trkpt>
      <trkpt lat="45.37971" lon="-1.15317">
        <ele>62</ele>
        <time>2025-04-26T10:45:23Z</time>
      </trkpt>
      <trkpt lat="45.37975" lon="-1.15317">
        <ele>62</ele>
        <time>2025-04-26T10:45:24Z</time>
      </trkpt>
      <trkpt lat="45.37979" lon="-1.15317">
        <ele>62</ele>
        <time>2025-04-26T10:45:25Z</time>
      </trkpt>
      <trkpt lat="45.37982" lon="-1.15317">
        <ele>62</ele>
        <time>2025-04-26T10:45:26Z</time>
      </trkpt>
      <trkpt lat="45.37986" lon="-1.15318">
        <ele>62</ele>
        <time>2025-04-26T10:45:27Z</time>
      </trkpt>
      <trkpt lat="45.3799" lon="-1.15318">
        <ele>62</ele>
        <time>2025-04-26T10:45:28Z</time>
      </trkpt>
      <trkpt lat="45.37994" lon="-1.15319">
        <ele>62</ele>
        <time>2025-04-26T10:45:29Z</time>
      </trkpt>
      <trkpt lat="45.37998" lon="-1.1532">
        <ele>62</ele>
        <time>2025-04-26T10:45:30Z</time>
      </trkpt>
      <trkpt lat="45.38001" lon="-1.1532">
        <ele>62</ele>
        <time>2025-04-26T10:45:31Z</time>
      </trkpt>
      <trkpt lat="45.38006" lon="-1.15321">
        <ele>62</ele>
        <time>2025-04-26T10:45:32Z</time>
      </trkpt>
      <trkpt lat="45.3801" lon="-1.15321">
        <ele>62</ele>
        <time>2025-04-26T10:45:33Z</time>
      </trkpt>
      <trkpt lat="45.38013" lon="-1.15322">
        <ele>62</ele>
        <time>2025-04-26T10:45:34Z</time>
      </trkpt>
      <trkpt lat="45.38017" lon="-1.15323">
        <ele>62</ele>
        <time>2025-04-26T10:45:35Z</time>
      </trkpt>
      <trkpt lat="45.38021" lon="-1.15324">
        <ele>62</ele>
        <time>2025-04-26T10:45:36Z</time>
      </trkpt>
      <trkpt lat="45.38024" lon="-1.15324">
        <ele>62</ele>
        <time>2025-04-26T10:45:37Z</time>
      </trkpt>
      <trkpt lat="45.38027" lon="-1.15324">
        <ele>62</ele>
        <time>2025-04-26T10:45:38Z</time>
      </trkpt>
      <trkpt lat="45.38029" lon="-1.15321">
        <ele>62</ele>
        <time>2025-04-26T10:45:39Z</time>
      </trkpt>
      <trkpt lat="45.38031" lon="-1.15318">
        <ele>63</ele>
        <time>2025-04-26T10:45:40Z</time>
      </trkpt>
      <trkpt lat="45.38032" lon="-1.15314">
        <ele>63</ele>
        <time>2025-04-26T10:45:41Z</time>
      </trkpt>
      <trkpt lat="45.38032" lon="-1.15309">
        <ele>63</ele>
        <time>2025-04-26T10:45:42Z</time>
      </trkpt>
      <trkpt lat="45.38032" lon="-1.15304">
        <ele>63</ele>
        <time>2025-04-26T10:45:43Z</time>
      </trkpt>
      <trkpt lat="45.38032" lon="-1.153">
        <ele>63</ele>
        <time>2025-04-26T10:45:44Z</time>
      </trkpt>
      <trkpt lat="45.38032" lon="-1.15295">
        <ele>63</ele>
        <time>2025-04-26T10:45:45Z</time>
      </trkpt>
      <trkpt lat="45.38031" lon="-1.15289">
        <ele>63</ele>
        <time>2025-04-26T10:45:46Z</time>
      </trkpt>
      <trkpt lat="45.38031" lon="-1.15285">
        <ele>63</ele>
        <time>2025-04-26T10:45:47Z</time>
      </trkpt>
      <trkpt lat="45.38032" lon="-1.1528">
        <ele>63</ele>
        <time>2025-04-26T10:45:48Z</time>
      </trkpt>
      <trkpt lat="45.38032" lon="-1.15275">
        <ele>63</ele>
        <time>2025-04-26T10:45:49Z</time>
      </trkpt>
      <trkpt lat="45.38032" lon="-1.1527">
        <ele>63</ele>
        <time>2025-04-26T10:45:50Z</time>
      </trkpt>
      <trkpt lat="45.38032" lon="-1.15265">
        <ele>63</ele>
        <time>2025-04-26T10:45:51Z</time>
      </trkpt>
      <trkpt lat="45.38032" lon="-1.15261">
        <ele>63</ele>
        <time>2025-04-26T10:45:52Z</time>
      </trkpt>
      <trkpt lat="45.38032" lon="-1.15256">
        <ele>63</ele>
        <time>2025-04-26T10:45:53Z</time>
      </trkpt>
      <trkpt lat="45.38033" lon="-1.15251">
        <ele>63</ele>
        <time>2025-04-26T10:45:54Z</time>
      </trkpt>
      <trkpt lat="45.38033" lon="-1.15247">
        <ele>63</ele>
        <time>2025-04-26T10:45:55Z</time>
      </trkpt>
      <trkpt lat="45.38033" lon="-1.15243">
        <ele>63</ele>
        <time>2025-04-26T10:45:56Z</time>
      </trkpt>
      <trkpt lat="45.38034" lon="-1.15239">
        <ele>63</ele>
        <time>2025-04-26T10:45:57Z</time>
      </trkpt>
      <trkpt lat="45.38036" lon="-1.15237">
        <ele>63</ele>
        <time>2025-04-26T10:45:58Z</time>
      </trkpt>
      <trkpt lat="45.38038" lon="-1.15236">
        <ele>62</ele>
        <time>2025-04-26T10:45:59Z</time>
      </trkpt>
      <trkpt lat="45.3804" lon="-1.15237">
        <ele>62</ele>
        <time>2025-04-26T10:46:00Z</time>
      </trkpt>
      <trkpt lat="45.38042" lon="-1.15237">
        <ele>62</ele>
        <time>2025-04-26T10:46:01Z</time>
      </trkpt>
      <trkpt lat="45.38045" lon="-1.15237">
        <ele>62</ele>
        <time>2025-04-26T10:46:02Z</time>
      </trkpt>
      <trkpt lat="45.38048" lon="-1.15237">
        <ele>62</ele>
        <time>2025-04-26T10:46:03Z</time>
      </trkpt>
      <trkpt lat="45.3805" lon="-1.15237">
        <ele>61</ele>
        <time>2025-04-26T10:46:04Z</time>
      </trkpt>
      <trkpt lat="45.38054" lon="-1.15236">
        <ele>62</ele>
        <time>2025-04-26T10:46:05Z</time>
      </trkpt>
      <trkpt lat="45.38056" lon="-1.15233">
        <ele>62</ele>
        <time>2025-04-26T10:46:06Z</time>
      </trkpt>
      <trkpt lat="45.38057" lon="-1.15229">
        <ele>62</ele>
        <time>2025-04-26T10:46:07Z</time>
      </trkpt>
      <trkpt lat="45.38057" lon="-1.15223">
        <ele>62</ele>
        <time>2025-04-26T10:46:08Z</time>
      </trkpt>
      <trkpt lat="45.38059" lon="-1.15219">
        <ele>63</ele>
        <time>2025-04-26T10:46:09Z</time>
      </trkpt>
      <trkpt lat="45.38061" lon="-1.15214">
        <ele>63</ele>
        <time>2025-04-26T10:46:10Z</time>
      </trkpt>
      <trkpt lat="45.38063" lon="-1.1521">
        <ele>63</ele>
        <time>2025-04-26T10:46:11Z</time>
      </trkpt>
      <trkpt lat="45.38066" lon="-1.15206">
        <ele>63</ele>
        <time>2025-04-26T10:46:12Z</time>
      </trkpt>
      <trkpt lat="45.38069" lon="-1.15205">
        <ele>63</ele>
        <time>2025-04-26T10:46:13Z</time>
      </trkpt>
      <trkpt lat="45.38072" lon="-1.15205">
        <ele>63</ele>
        <time>2025-04-26T10:46:14Z</time>
      </trkpt>
      <trkpt lat="45.38075" lon="-1.15205">
        <ele>63</ele>
        <time>2025-04-26T10:46:15Z</time>
      </trkpt>
      <trkpt lat="45.38079" lon="-1.15205">
        <ele>63</ele>
        <time>2025-04-26T10:46:16Z</time>
      </trkpt>
      <trkpt lat="45.38082" lon="-1.15206">
        <ele>62</ele>
        <time>2025-04-26T10:46:17Z</time>
      </trkpt>
      <trkpt lat="45.38086" lon="-1.15206">
        <ele>62</ele>
        <time>2025-04-26T10:46:18Z</time>
      </trkpt>
      <trkpt lat="45.3809" lon="-1.15207">
        <ele>61</ele>
        <time>2025-04-26T10:46:19Z</time>
      </trkpt>
      <trkpt lat="45.38094" lon="-1.15207">
        <ele>61</ele>
        <time>2025-04-26T10:46:20Z</time>
      </trkpt>
      <trkpt lat="45.38098" lon="-1.15208">
        <ele>61</ele>
        <time>2025-04-26T10:46:21Z</time>
      </trkpt>
      <trkpt lat="45.38102" lon="-1.15208">
        <ele>61</ele>
        <time>2025-04-26T10:46:22Z</time>
      </trkpt>
      <trkpt lat="45.38105" lon="-1.15208">
        <ele>61</ele>
        <time>2025-04-26T10:46:23Z</time>
      </trkpt>
      <trkpt lat="45.38109" lon="-1.15209">
        <ele>61</ele>
        <time>2025-04-26T10:46:24Z</time>
      </trkpt>
      <trkpt lat="45.38113" lon="-1.15209">
        <ele>61</ele>
        <time>2025-04-26T10:46:25Z</time>
      </trkpt>
      <trkpt lat="45.38117" lon="-1.15209">
        <ele>62</ele>
        <time>2025-04-26T10:46:26Z</time>
      </trkpt>
      <trkpt lat="45.38121" lon="-1.15209">
        <ele>62</ele>
        <time>2025-04-26T10:46:27Z</time>
      </trkpt>
      <trkpt lat="45.38126" lon="-1.1521">
        <ele>62</ele>
        <time>2025-04-26T10:46:28Z</time>
      </trkpt>
      <trkpt lat="45.38131" lon="-1.15211">
        <ele>62</ele>
        <time>2025-04-26T10:46:29Z</time>
      </trkpt>
      <trkpt lat="45.38135" lon="-1.15212">
        <ele>62</ele>
        <time>2025-04-26T10:46:30Z</time>
      </trkpt>
      <trkpt lat="45.3814" lon="-1.15212">
        <ele>61</ele>
        <time>2025-04-26T10:46:31Z</time>
      </trkpt>
      <trkpt lat="45.38144" lon="-1.15212">
        <ele>61</ele>
        <time>2025-04-26T10:46:32Z</time>
      </trkpt>
      <trkpt lat="45.38149" lon="-1.15212">
        <ele>61</ele>
        <time>2025-04-26T10:46:33Z</time>
      </trkpt>
      <trkpt lat="45.38153" lon="-1.15212">
        <ele>62</ele>
        <time>2025-04-26T10:46:34Z</time>
      </trkpt>
      <trkpt lat="45.38157" lon="-1.15213">
        <ele>62</ele>
        <time>2025-04-26T10:46:35Z</time>
      </trkpt>
      <trkpt lat="45.38161" lon="-1.15213">
        <ele>62</ele>
        <time>2025-04-26T10:46:36Z</time>
      </trkpt>
      <trkpt lat="45.38166" lon="-1.15213">
        <ele>62</ele>
        <time>2025-04-26T10:46:37Z</time>
      </trkpt>
      <trkpt lat="45.3817" lon="-1.15213">
        <ele>62</ele>
        <time>2025-04-26T10:46:38Z</time>
      </trkpt>
      <trkpt lat="45.38174" lon="-1.15214">
        <ele>61</ele>
        <time>2025-04-26T10:46:39Z</time>
      </trkpt>
      <trkpt lat="45.38178" lon="-1.15214">
        <ele>61</ele>
        <time>2025-04-26T10:46:40Z</time>
      </trkpt>
      <trkpt lat="45.38182" lon="-1.15215">
        <ele>61</ele>
        <time>2025-04-26T10:46:41Z</time>
      </trkpt>
      <trkpt lat="45.38186" lon="-1.15215">
        <ele>61</ele>
        <time>2025-04-26T10:46:42Z</time>
      </trkpt>
      <trkpt lat="45.38191" lon="-1.15216">
        <ele>61</ele>
        <time>2025-04-26T10:46:43Z</time>
      </trkpt>
      <trkpt lat="45.38195" lon="-1.15217">
        <ele>62</ele>
        <time>2025-04-26T10:46:44Z</time>
      </trkpt>
      <trkpt lat="45.38199" lon="-1.15217">
        <ele>62</ele>
        <time>2025-04-26T10:46:45Z</time>
      </trkpt>
      <trkpt lat="45.38204" lon="-1.15217">
        <ele>62</ele>
        <time>2025-04-26T10:46:46Z</time>
      </trkpt>
      <trkpt lat="45.38208" lon="-1.15218">
        <ele>61</ele>
        <time>2025-04-26T10:46:47Z</time>
      </trkpt>
      <trkpt lat="45.38212" lon="-1.15218">
        <ele>61</ele>
        <time>2025-04-26T10:46:48Z</time>
      </trkpt>
      <trkpt lat="45.38217" lon="-1.15219">
        <ele>61</ele>
        <time>2025-04-26T10:46:49Z</time>
      </trkpt>
      <trkpt lat="45.38221" lon="-1.1522">
        <ele>60</ele>
        <time>2025-04-26T10:46:50Z</time>
      </trkpt>
      <trkpt lat="45.38225" lon="-1.1522">
        <ele>60</ele>
        <time>2025-04-26T10:46:51Z</time>
      </trkpt>
      <trkpt lat="45.38229" lon="-1.1522">
        <ele>60</ele>
        <time>2025-04-26T10:46:52Z</time>
      </trkpt>
      <trkpt lat="45.38232" lon="-1.1522">
        <ele>60</ele>
        <time>2025-04-26T10:46:53Z</time>
      </trkpt>
      <trkpt lat="45.38236" lon="-1.15221">
        <ele>60</ele>
        <time>2025-04-26T10:46:54Z</time>
      </trkpt>
      <trkpt lat="45.3824" lon="-1.15221">
        <ele>60</ele>
        <time>2025-04-26T10:46:55Z</time>
      </trkpt>
      <trkpt lat="45.38243" lon="-1.15221">
        <ele>60</ele>
        <time>2025-04-26T10:46:56Z</time>
      </trkpt>
      <trkpt lat="45.38247" lon="-1.15221">
        <ele>60</ele>
        <time>2025-04-26T10:46:57Z</time>
      </trkpt>
      <trkpt lat="45.38251" lon="-1.15221">
        <ele>60</ele>
        <time>2025-04-26T10:46:58Z</time>
      </trkpt>
      <trkpt lat="45.38254" lon="-1.15221">
        <ele>60</ele>
        <time>2025-04-26T10:46:59Z</time>
      </trkpt>
      <trkpt lat="45.38258" lon="-1.15222">
        <ele>60</ele>
        <time>2025-04-26T10:47:00Z</time>
      </trkpt>
      <trkpt lat="45.38263" lon="-1.15222">
        <ele>61</ele>
        <time>2025-04-26T10:47:01Z</time>
      </trkpt>
      <trkpt lat="45.38267" lon="-1.15223">
        <ele>61</ele>
        <time>2025-04-26T10:47:02Z</time>
      </trkpt>
      <trkpt lat="45.3827" lon="-1.15224">
        <ele>60</ele>
        <time>2025-04-26T10:47:03Z</time>
      </trkpt>
      <trkpt lat="45.38274" lon="-1.15225">
        <ele>60</ele>
        <time>2025-04-26T10:47:04Z</time>
      </trkpt>
      <trkpt lat="45.38278" lon="-1.15225">
        <ele>61</ele>
        <time>2025-04-26T10:47:05Z</time>
      </trkpt>
      <trkpt lat="45.38281" lon="-1.15225">
        <ele>61</ele>
        <time>2025-04-26T10:47:06Z</time>
      </trkpt>
      <trkpt lat="45.38285" lon="-1.15225">
        <ele>61</ele>
        <time>2025-04-26T10:47:07Z</time>
      </trkpt>
      <trkpt lat="45.38289" lon="-1.15225">
        <ele>61</ele>
        <time>2025-04-26T10:47:08Z</time>
      </trkpt>
      <trkpt lat="45.38293" lon="-1.15225">
        <ele>61</ele>
        <time>2025-04-26T10:47:09Z</time>
      </trkpt>
      <trkpt lat="45.38298" lon="-1.15225">
        <ele>61</ele>
        <time>2025-04-26T10:47:10Z</time>
      </trkpt>
      <trkpt lat="45.38302" lon="-1.15225">
        <ele>61</ele>
        <time>2025-04-26T10:47:11Z</time>
      </trkpt>
      <trkpt lat="45.38306" lon="-1.15226">
        <ele>62</ele>
        <time>2025-04-26T10:47:12Z</time>
      </trkpt>
      <trkpt lat="45.38311" lon="-1.15228">
        <ele>62</ele>
        <time>2025-04-26T10:47:13Z</time>
      </trkpt>
      <trkpt lat="45.38316" lon="-1.15228">
        <ele>62</ele>
        <time>2025-04-26T10:47:14Z</time>
      </trkpt>
      <trkpt lat="45.3832" lon="-1.15229">
        <ele>63</ele>
        <time>2025-04-26T10:47:15Z</time>
      </trkpt>
      <trkpt lat="45.38324" lon="-1.1523">
        <ele>63</ele>
        <time>2025-04-26T10:47:16Z</time>
      </trkpt>
      <trkpt lat="45.38329" lon="-1.1523">
        <ele>63</ele>
        <time>2025-04-26T10:47:17Z</time>
      </trkpt>
      <trkpt lat="45.38333" lon="-1.1523">
        <ele>63</ele>
        <time>2025-04-26T10:47:18Z</time>
      </trkpt>
      <trkpt lat="45.38337" lon="-1.1523">
        <ele>63</ele>
        <time>2025-04-26T10:47:19Z</time>
      </trkpt>
      <trkpt lat="45.38341" lon="-1.1523">
        <ele>63</ele>
        <time>2025-04-26T10:47:20Z</time>
      </trkpt>
      <trkpt lat="45.38345" lon="-1.1523">
        <ele>62</ele>
        <time>2025-04-26T10:47:21Z</time>
      </trkpt>
      <trkpt lat="45.38349" lon="-1.1523">
        <ele>62</ele>
        <time>2025-04-26T10:47:22Z</time>
      </trkpt>
      <trkpt lat="45.38354" lon="-1.15231">
        <ele>62</ele>
        <time>2025-04-26T10:47:23Z</time>
      </trkpt>
      <trkpt lat="45.38358" lon="-1.15231">
        <ele>61</ele>
        <time>2025-04-26T10:47:24Z</time>
      </trkpt>
      <trkpt lat="45.38362" lon="-1.15231">
        <ele>61</ele>
        <time>2025-04-26T10:47:25Z</time>
      </trkpt>
      <trkpt lat="45.38367" lon="-1.15232">
        <ele>61</ele>
        <time>2025-04-26T10:47:26Z</time>
      </trkpt>
      <trkpt lat="45.38371" lon="-1.15232">
        <ele>61</ele>
        <time>2025-04-26T10:47:27Z</time>
      </trkpt>
      <trkpt lat="45.38376" lon="-1.15233">
        <ele>61</ele>
        <time>2025-04-26T10:47:28Z</time>
      </trkpt>
      <trkpt lat="45.3838" lon="-1.15234">
        <ele>61</ele>
        <time>2025-04-26T10:47:29Z</time>
      </trkpt>
      <trkpt lat="45.38384" lon="-1.15234">
        <ele>61</ele>
        <time>2025-04-26T10:47:30Z</time>
      </trkpt>
      <trkpt lat="45.38388" lon="-1.15235">
        <ele>61</ele>
        <time>2025-04-26T10:47:31Z</time>
      </trkpt>
      <trkpt lat="45.38392" lon="-1.15236">
        <ele>61</ele>
        <time>2025-04-26T10:47:32Z</time>
      </trkpt>
      <trkpt lat="45.38397" lon="-1.15236">
        <ele>61</ele>
        <time>2025-04-26T10:47:33Z</time>
      </trkpt>
      <trkpt lat="45.38401" lon="-1.15237">
        <ele>61</ele>
        <time>2025-04-26T10:47:34Z</time>
      </trkpt>
      <trkpt lat="45.38405" lon="-1.15237">
        <ele>61</ele>
        <time>2025-04-26T10:47:35Z</time>
      </trkpt>
      <trkpt lat="45.38409" lon="-1.15237">
        <ele>61</ele>
        <time>2025-04-26T10:47:36Z</time>
      </trkpt>
      <trkpt lat="45.38414" lon="-1.15238">
        <ele>61</ele>
        <time>2025-04-26T10:47:37Z</time>
      </trkpt>
      <trkpt lat="45.38418" lon="-1.15239">
        <ele>61</ele>
        <time>2025-04-26T10:47:38Z</time>
      </trkpt>
      <trkpt lat="45.38422" lon="-1.15239">
        <ele>62</ele>
        <time>2025-04-26T10:47:39Z</time>
      </trkpt>
      <trkpt lat="45.38426" lon="-1.1524">
        <ele>62</ele>
        <time>2025-04-26T10:47:40Z</time>
      </trkpt>
      <trkpt lat="45.38431" lon="-1.1524">
        <ele>61</ele>
        <time>2025-04-26T10:47:41Z</time>
      </trkpt>
      <trkpt lat="45.38435" lon="-1.1524">
        <ele>61</ele>
        <time>2025-04-26T10:47:42Z</time>
      </trkpt>
      <trkpt lat="45.38439" lon="-1.1524">
        <ele>61</ele>
        <time>2025-04-26T10:47:43Z</time>
      </trkpt>
      <trkpt lat="45.38442" lon="-1.15241">
        <ele>61</ele>
        <time>2025-04-26T10:47:44Z</time>
      </trkpt>
      <trkpt lat="45.38446" lon="-1.15241">
        <ele>62</ele>
        <time>2025-04-26T10:47:45Z</time>
      </trkpt>
      <trkpt lat="45.38449" lon="-1.15241">
        <ele>62</ele>
        <time>2025-04-26T10:47:46Z</time>
      </trkpt>
      <trkpt lat="45.38452" lon="-1.15242">
        <ele>62</ele>
        <time>2025-04-26T10:47:47Z</time>
      </trkpt>
      <trkpt lat="45.38456" lon="-1.15242">
        <ele>62</ele>
        <time>2025-04-26T10:47:48Z</time>
      </trkpt>
      <trkpt lat="45.3846" lon="-1.15242">
        <ele>62</ele>
        <time>2025-04-26T10:47:49Z</time>
      </trkpt>
      <trkpt lat="45.38464" lon="-1.15242">
        <ele>62</ele>
        <time>2025-04-26T10:47:50Z</time>
      </trkpt>
      <trkpt lat="45.38468" lon="-1.15243">
        <ele>62</ele>
        <time>2025-04-26T10:47:51Z</time>
      </trkpt>
      <trkpt lat="45.38472" lon="-1.15244">
        <ele>62</ele>
        <time>2025-04-26T10:47:52Z</time>
      </trkpt>
      <trkpt lat="45.38476" lon="-1.15244">
        <ele>62</ele>
        <time>2025-04-26T10:47:53Z</time>
      </trkpt>
      <trkpt lat="45.3848" lon="-1.15245">
        <ele>62</ele>
        <time>2025-04-26T10:47:54Z</time>
      </trkpt>
      <trkpt lat="45.38484" lon="-1.15246">
        <ele>63</ele>
        <time>2025-04-26T10:47:55Z</time>
      </trkpt>
      <trkpt lat="45.38488" lon="-1.15246">
        <ele>63</ele>
        <time>2025-04-26T10:47:56Z</time>
      </trkpt>
      <trkpt lat="45.38491" lon="-1.15246">
        <ele>62</ele>
        <time>2025-04-26T10:47:57Z</time>
      </trkpt>
      <trkpt lat="45.38495" lon="-1.15246">
        <ele>62</ele>
        <time>2025-04-26T10:47:58Z</time>
      </trkpt>
      <trkpt lat="45.38499" lon="-1.15246">
        <ele>62</ele>
        <time>2025-04-26T10:47:59Z</time>
      </trkpt>
      <trkpt lat="45.38503" lon="-1.15247">
        <ele>62</ele>
        <time>2025-04-26T10:48:00Z</time>
      </trkpt>
      <trkpt lat="45.38507" lon="-1.15247">
        <ele>62</ele>
        <time>2025-04-26T10:48:01Z</time>
      </trkpt>
      <trkpt lat="45.38511" lon="-1.15248">
        <ele>63</ele>
        <time>2025-04-26T10:48:02Z</time>
      </trkpt>
      <trkpt lat="45.38514" lon="-1.15248">
        <ele>63</ele>
        <time>2025-04-26T10:48:03Z</time>
      </trkpt>
      <trkpt lat="45.38518" lon="-1.15248">
        <ele>63</ele>
        <time>2025-04-26T10:48:04Z</time>
      </trkpt>
      <trkpt lat="45.38521" lon="-1.15248">
        <ele>63</ele>
        <time>2025-04-26T10:48:05Z</time>
      </trkpt>
      <trkpt lat="45.38525" lon="-1.15247">
        <ele>64</ele>
        <time>2025-04-26T10:48:06Z</time>
      </trkpt>
      <trkpt lat="45.38529" lon="-1.15247">
        <ele>64</ele>
        <time>2025-04-26T10:48:07Z</time>
      </trkpt>
      <trkpt lat="45.38533" lon="-1.15248">
        <ele>64</ele>
        <time>2025-04-26T10:48:08Z</time>
      </trkpt>
      <trkpt lat="45.38538" lon="-1.15249">
        <ele>64</ele>
        <time>2025-04-26T10:48:09Z</time>
      </trkpt>
      <trkpt lat="45.38542" lon="-1.15249">
        <ele>64</ele>
        <time>2025-04-26T10:48:10Z</time>
      </trkpt>
      <trkpt lat="45.38546" lon="-1.1525">
        <ele>64</ele>
        <time>2025-04-26T10:48:11Z</time>
      </trkpt>
      <trkpt lat="45.38551" lon="-1.1525">
        <ele>64</ele>
        <time>2025-04-26T10:48:12Z</time>
      </trkpt>
      <trkpt lat="45.38555" lon="-1.15251">
        <ele>63</ele>
        <time>2025-04-26T10:48:13Z</time>
      </trkpt>
      <trkpt lat="45.38559" lon="-1.15252">
        <ele>63</ele>
        <time>2025-04-26T10:48:14Z</time>
      </trkpt>
      <trkpt lat="45.38564" lon="-1.15252">
        <ele>63</ele>
        <time>2025-04-26T10:48:15Z</time>
      </trkpt>
      <trkpt lat="45.38569" lon="-1.15253">
        <ele>63</ele>
        <time>2025-04-26T10:48:16Z</time>
      </trkpt>
      <trkpt lat="45.38573" lon="-1.15253">
        <ele>62</ele>
        <time>2025-04-26T10:48:17Z</time>
      </trkpt>
      <trkpt lat="45.38577" lon="-1.15254">
        <ele>62</ele>
        <time>2025-04-26T10:48:18Z</time>
      </trkpt>
      <trkpt lat="45.38581" lon="-1.15254">
        <ele>62</ele>
        <time>2025-04-26T10:48:19Z</time>
      </trkpt>
      <trkpt lat="45.38585" lon="-1.15254">
        <ele>61</ele>
        <time>2025-04-26T10:48:20Z</time>
      </trkpt>
      <trkpt lat="45.38589" lon="-1.15255">
        <ele>61</ele>
        <time>2025-04-26T10:48:21Z</time>
      </trkpt>
      <trkpt lat="45.38593" lon="-1.15256">
        <ele>61</ele>
        <time>2025-04-26T10:48:22Z</time>
      </trkpt>
      <trkpt lat="45.38597" lon="-1.15256">
        <ele>61</ele>
        <time>2025-04-26T10:48:23Z</time>
      </trkpt>
      <trkpt lat="45.38601" lon="-1.15257">
        <ele>62</ele>
        <time>2025-04-26T10:48:24Z</time>
      </trkpt>
      <trkpt lat="45.38605" lon="-1.15257">
        <ele>62</ele>
        <time>2025-04-26T10:48:25Z</time>
      </trkpt>
      <trkpt lat="45.38609" lon="-1.15257">
        <ele>62</ele>
        <time>2025-04-26T10:48:26Z</time>
      </trkpt>
      <trkpt lat="45.38614" lon="-1.15258">
        <ele>63</ele>
        <time>2025-04-26T10:48:27Z</time>
      </trkpt>
      <trkpt lat="45.38618" lon="-1.15258">
        <ele>63</ele>
        <time>2025-04-26T10:48:28Z</time>
      </trkpt>
      <trkpt lat="45.38621" lon="-1.15258">
        <ele>64</ele>
        <time>2025-04-26T10:48:29Z</time>
      </trkpt>
      <trkpt lat="45.38625" lon="-1.15258">
        <ele>64</ele>
        <time>2025-04-26T10:48:30Z</time>
      </trkpt>
      <trkpt lat="45.38629" lon="-1.15258">
        <ele>63</ele>
        <time>2025-04-26T10:48:31Z</time>
      </trkpt>
      <trkpt lat="45.38633" lon="-1.15258">
        <ele>63</ele>
        <time>2025-04-26T10:48:32Z</time>
      </trkpt>
      <trkpt lat="45.38637" lon="-1.15258">
        <ele>63</ele>
        <time>2025-04-26T10:48:33Z</time>
      </trkpt>
      <trkpt lat="45.38641" lon="-1.1526">
        <ele>64</ele>
        <time>2025-04-26T10:48:34Z</time>
      </trkpt>
      <trkpt lat="45.38645" lon="-1.1526">
        <ele>63</ele>
        <time>2025-04-26T10:48:35Z</time>
      </trkpt>
      <trkpt lat="45.38649" lon="-1.15261">
        <ele>63</ele>
        <time>2025-04-26T10:48:36Z</time>
      </trkpt>
      <trkpt lat="45.38653" lon="-1.15261">
        <ele>63</ele>
        <time>2025-04-26T10:48:37Z</time>
      </trkpt>
      <trkpt lat="45.38657" lon="-1.15261">
        <ele>63</ele>
        <time>2025-04-26T10:48:38Z</time>
      </trkpt>
      <trkpt lat="45.3866" lon="-1.15261">
        <ele>63</ele>
        <time>2025-04-26T10:48:39Z</time>
      </trkpt>
      <trkpt lat="45.38664" lon="-1.15261">
        <ele>63</ele>
        <time>2025-04-26T10:48:40Z</time>
      </trkpt>
      <trkpt lat="45.38667" lon="-1.15262">
        <ele>63</ele>
        <time>2025-04-26T10:48:41Z</time>
      </trkpt>
      <trkpt lat="45.38671" lon="-1.15262">
        <ele>63</ele>
        <time>2025-04-26T10:48:42Z</time>
      </trkpt>
      <trkpt lat="45.38675" lon="-1.15263">
        <ele>63</ele>
        <time>2025-04-26T10:48:43Z</time>
      </trkpt>
      <trkpt lat="45.38678" lon="-1.15264">
        <ele>62</ele>
        <time>2025-04-26T10:48:44Z</time>
      </trkpt>
      <trkpt lat="45.38682" lon="-1.15263">
        <ele>63</ele>
        <time>2025-04-26T10:48:45Z</time>
      </trkpt>
      <trkpt lat="45.38686" lon="-1.15263">
        <ele>63</ele>
        <time>2025-04-26T10:48:46Z</time>
      </trkpt>
      <trkpt lat="45.38689" lon="-1.15263">
        <ele>63</ele>
        <time>2025-04-26T10:48:47Z</time>
      </trkpt>
      <trkpt lat="45.38693" lon="-1.15264">
        <ele>63</ele>
        <time>2025-04-26T10:48:48Z</time>
      </trkpt>
      <trkpt lat="45.38697" lon="-1.15264">
        <ele>63</ele>
        <time>2025-04-26T10:48:49Z</time>
      </trkpt>
      <trkpt lat="45.387" lon="-1.15264">
        <ele>63</ele>
        <time>2025-04-26T10:48:50Z</time>
      </trkpt>
      <trkpt lat="45.38704" lon="-1.15265">
        <ele>63</ele>
        <time>2025-04-26T10:48:51Z</time>
      </trkpt>
      <trkpt lat="45.38708" lon="-1.15266">
        <ele>63</ele>
        <time>2025-04-26T10:48:52Z</time>
      </trkpt>
      <trkpt lat="45.38712" lon="-1.15266">
        <ele>63</ele>
        <time>2025-04-26T10:48:53Z</time>
      </trkpt>
      <trkpt lat="45.38716" lon="-1.15266">
        <ele>63</ele>
        <time>2025-04-26T10:48:54Z</time>
      </trkpt>
      <trkpt lat="45.3872" lon="-1.15267">
        <ele>63</ele>
        <time>2025-04-26T10:48:55Z</time>
      </trkpt>
      <trkpt lat="45.38724" lon="-1.15268">
        <ele>64</ele>
        <time>2025-04-26T10:48:56Z</time>
      </trkpt>
      <trkpt lat="45.38728" lon="-1.15268">
        <ele>64</ele>
        <time>2025-04-26T10:48:57Z</time>
      </trkpt>
      <trkpt lat="45.38733" lon="-1.15268">
        <ele>64</ele>
        <time>2025-04-26T10:48:58Z</time>
      </trkpt>
      <trkpt lat="45.38737" lon="-1.15268">
        <ele>64</ele>
        <time>2025-04-26T10:48:59Z</time>
      </trkpt>
      <trkpt lat="45.38741" lon="-1.15269">
        <ele>64</ele>
        <time>2025-04-26T10:49:00Z</time>
      </trkpt>
      <trkpt lat="45.38745" lon="-1.1527">
        <ele>64</ele>
        <time>2025-04-26T10:49:01Z</time>
      </trkpt>
      <trkpt lat="45.38749" lon="-1.15271">
        <ele>63</ele>
        <time>2025-04-26T10:49:02Z</time>
      </trkpt>
      <trkpt lat="45.38754" lon="-1.15272">
        <ele>64</ele>
        <time>2025-04-26T10:49:03Z</time>
      </trkpt>
      <trkpt lat="45.38757" lon="-1.15272">
        <ele>63</ele>
        <time>2025-04-26T10:49:04Z</time>
      </trkpt>
      <trkpt lat="45.38761" lon="-1.15273">
        <ele>63</ele>
        <time>2025-04-26T10:49:05Z</time>
      </trkpt>
      <trkpt lat="45.38764" lon="-1.15274">
        <ele>63</ele>
        <time>2025-04-26T10:49:06Z</time>
      </trkpt>
      <trkpt lat="45.38768" lon="-1.15274">
        <ele>63</ele>
        <time>2025-04-26T10:49:07Z</time>
      </trkpt>
      <trkpt lat="45.38771" lon="-1.15274">
        <ele>63</ele>
        <time>2025-04-26T10:49:08Z</time>
      </trkpt>
      <trkpt lat="45.38774" lon="-1.15275">
        <ele>63</ele>
        <time>2025-04-26T10:49:09Z</time>
      </trkpt>
      <trkpt lat="45.38778" lon="-1.15275">
        <ele>63</ele>
        <time>2025-04-26T10:49:10Z</time>
      </trkpt>
      <trkpt lat="45.38782" lon="-1.15275">
        <ele>63</ele>
        <time>2025-04-26T10:49:11Z</time>
      </trkpt>
      <trkpt lat="45.38786" lon="-1.15276">
        <ele>63</ele>
        <time>2025-04-26T10:49:12Z</time>
      </trkpt>
      <trkpt lat="45.3879" lon="-1.15275">
        <ele>63</ele>
        <time>2025-04-26T10:49:13Z</time>
      </trkpt>
      <trkpt lat="45.38794" lon="-1.15275">
        <ele>63</ele>
        <time>2025-04-26T10:49:14Z</time>
      </trkpt>
      <trkpt lat="45.38798" lon="-1.15275">
        <ele>63</ele>
        <time>2025-04-26T10:49:15Z</time>
      </trkpt>
      <trkpt lat="45.38801" lon="-1.15275">
        <ele>63</ele>
        <time>2025-04-26T10:49:16Z</time>
      </trkpt>
      <trkpt lat="45.38805" lon="-1.15275">
        <ele>63</ele>
        <time>2025-04-26T10:49:17Z</time>
      </trkpt>
      <trkpt lat="45.38809" lon="-1.15277">
        <ele>63</ele>
        <time>2025-04-26T10:49:18Z</time>
      </trkpt>
      <trkpt lat="45.38813" lon="-1.15278">
        <ele>63</ele>
        <time>2025-04-26T10:49:19Z</time>
      </trkpt>
      <trkpt lat="45.38817" lon="-1.15279">
        <ele>63</ele>
        <time>2025-04-26T10:49:20Z</time>
      </trkpt>
      <trkpt lat="45.3882" lon="-1.1528">
        <ele>64</ele>
        <time>2025-04-26T10:49:21Z</time>
      </trkpt>
      <trkpt lat="45.38823" lon="-1.1528">
        <ele>64</ele>
        <time>2025-04-26T10:49:22Z</time>
      </trkpt>
      <trkpt lat="45.38827" lon="-1.1528">
        <ele>64</ele>
        <time>2025-04-26T10:49:23Z</time>
      </trkpt>
      <trkpt lat="45.38829" lon="-1.1528">
        <ele>64</ele>
        <time>2025-04-26T10:49:24Z</time>
      </trkpt>
      <trkpt lat="45.38832" lon="-1.1528">
        <ele>64</ele>
        <time>2025-04-26T10:49:25Z</time>
      </trkpt>
      <trkpt lat="45.38835" lon="-1.1528">
        <ele>64</ele>
        <time>2025-04-26T10:49:26Z</time>
      </trkpt>
      <trkpt lat="45.38838" lon="-1.1528">
        <ele>64</ele>
        <time>2025-04-26T10:49:27Z</time>
      </trkpt>
      <trkpt lat="45.3884" lon="-1.15279">
        <ele>64</ele>
        <time>2025-04-26T10:49:28Z</time>
      </trkpt>
      <trkpt lat="45.38843" lon="-1.15279">
        <ele>64</ele>
        <time>2025-04-26T10:49:29Z</time>
      </trkpt>
      <trkpt lat="45.38846" lon="-1.15279">
        <ele>64</ele>
        <time>2025-04-26T10:49:30Z</time>
      </trkpt>
      <trkpt lat="45.38848" lon="-1.15278">
        <ele>64</ele>
        <time>2025-04-26T10:49:31Z</time>
      </trkpt>
      <trkpt lat="45.3885" lon="-1.15277">
        <ele>64</ele>
        <time>2025-04-26T10:49:32Z</time>
      </trkpt>
      <trkpt lat="45.38852" lon="-1.15276">
        <ele>64</ele>
        <time>2025-04-26T10:49:33Z</time>
      </trkpt>
      <trkpt lat="45.38854" lon="-1.15276">
        <ele>64</ele>
        <time>2025-04-26T10:49:34Z</time>
      </trkpt>
      <trkpt lat="45.38856" lon="-1.15275">
        <ele>63</ele>
        <time>2025-04-26T10:49:35Z</time>
      </trkpt>
      <trkpt lat="45.38856" lon="-1.15274">
        <ele>63</ele>
        <time>2025-04-26T10:49:36Z</time>
      </trkpt>
      <trkpt lat="45.38856" lon="-1.15275">
        <ele>63</ele>
        <time>2025-04-26T10:49:37Z</time>
      </trkpt>
      <trkpt lat="45.38856" lon="-1.15275">
        <ele>63</ele>
        <time>2025-04-26T10:49:38Z</time>
      </trkpt>
      <trkpt lat="45.38856" lon="-1.15275">
        <ele>63</ele>
        <time>2025-04-26T10:49:39Z</time>
      </trkpt>
      <trkpt lat="45.38856" lon="-1.15275">
        <ele>63</ele>
        <time>2025-04-26T10:49:40Z</time>
      </trkpt>
      <trkpt lat="45.38856" lon="-1.15275">
        <ele>63</ele>
        <time>2025-04-26T10:49:41Z</time>
      </trkpt>
      <trkpt lat="45.38856" lon="-1.15275">
        <ele>63</ele>
        <time>2025-04-26T10:49:42Z</time>
      </trkpt>
      <trkpt lat="45.38856" lon="-1.15275">
        <ele>63</ele>
        <time>2025-04-26T10:49:43Z</time>
      </trkpt>
      <trkpt lat="45.38856" lon="-1.15275">
        <ele>63</ele>
        <time>2025-04-26T10:49:44Z</time>
      </trkpt>
      <trkpt lat="45.38856" lon="-1.15275">
        <ele>63</ele>
        <time>2025-04-26T10:49:45Z</time>
      </trkpt>
      <trkpt lat="45.38856" lon="-1.15275">
        <ele>63</ele>
        <time>2025-04-26T10:49:46Z</time>
      </trkpt>
      <trkpt lat="45.38856" lon="-1.15275">
        <ele>63</ele>
        <time>2025-04-26T10:49:47Z</time>
      </trkpt>
      <trkpt lat="45.38856" lon="-1.15275">
        <ele>63</ele>
        <time>2025-04-26T10:49:48Z</time>
      </trkpt>
      <trkpt lat="45.38856" lon="-1.15275">
        <ele>63</ele>
        <time>2025-04-26T10:49:49Z</time>
      </trkpt>
      <trkpt lat="45.38856" lon="-1.15275">
        <ele>63</ele>
        <time>2025-04-26T10:49:50Z</time>
      </trkpt>
      <trkpt lat="45.38856" lon="-1.15275">
        <ele>63</ele>
        <time>2025-04-26T10:49:51Z</time>
      </trkpt>
      <trkpt lat="45.38856" lon="-1.15275">
        <ele>63</ele>
        <time>2025-04-26T10:49:52Z</time>
      </trkpt>
      <trkpt lat="45.38856" lon="-1.15275">
        <ele>63</ele>
        <time>2025-04-26T10:49:53Z</time>
      </trkpt>
      <trkpt lat="45.38856" lon="-1.15275">
        <ele>63</ele>
        <time>2025-04-26T10:49:54Z</time>
      </trkpt>
      <trkpt lat="45.38856" lon="-1.15275">
        <ele>63</ele>
        <time>2025-04-26T10:49:55Z</time>
      </trkpt>
      <trkpt lat="45.38856" lon="-1.15275">
        <ele>63</ele>
        <time>2025-04-26T10:49:56Z</time>
      </trkpt>
      <trkpt lat="45.38856" lon="-1.15275">
        <ele>63</ele>
        <time>2025-04-26T10:49:57Z</time>
      </trkpt>
      <trkpt lat="45.38856" lon="-1.15275">
        <ele>63</ele>
        <time>2025-04-26T10:49:58Z</time>
      </trkpt>
      <trkpt lat="45.38856" lon="-1.15275">
        <ele>63</ele>
        <time>2025-04-26T10:49:59Z</time>
      </trkpt>
      <trkpt lat="45.38856" lon="-1.15275">
        <ele>63</ele>
        <time>2025-04-26T10:50:00Z</time>
      </trkpt>
      <trkpt lat="45.38856" lon="-1.15275">
        <ele>63</ele>
        <time>2025-04-26T10:50:01Z</time>
      </trkpt>
      <trkpt lat="45.38856" lon="-1.15275">
        <ele>63</ele>
        <time>2025-04-26T10:50:02Z</time>
      </trkpt>
      <trkpt lat="45.38856" lon="-1.15275">
        <ele>63</ele>
        <time>2025-04-26T10:50:03Z</time>
      </trkpt>
      <trkpt lat="45.38861" lon="-1.15271">
        <ele>63</ele>
        <time>2025-04-26T10:50:04Z</time>
      </trkpt>
      <trkpt lat="45.38863" lon="-1.15271">
        <ele>63</ele>
        <time>2025-04-26T10:50:05Z</time>
      </trkpt>
      <trkpt lat="45.38866" lon="-1.15271">
        <ele>63</ele>
        <time>2025-04-26T10:50:06Z</time>
      </trkpt>
      <trkpt lat="45.38869" lon="-1.15271">
        <ele>63</ele>
        <time>2025-04-26T10:50:07Z</time>
      </trkpt>
      <trkpt lat="45.38871" lon="-1.15271">
        <ele>63</ele>
        <time>2025-04-26T10:50:08Z</time>
      </trkpt>
      <trkpt lat="45.38874" lon="-1.15272">
        <ele>63</ele>
        <time>2025-04-26T10:50:09Z</time>
      </trkpt>
      <trkpt lat="45.38877" lon="-1.15272">
        <ele>63</ele>
        <time>2025-04-26T10:50:10Z</time>
      </trkpt>
      <trkpt lat="45.38879" lon="-1.15272">
        <ele>62</ele>
        <time>2025-04-26T10:50:11Z</time>
      </trkpt>
      <trkpt lat="45.38882" lon="-1.15272">
        <ele>62</ele>
        <time>2025-04-26T10:50:12Z</time>
      </trkpt>
      <trkpt lat="45.38885" lon="-1.15271">
        <ele>62</ele>
        <time>2025-04-26T10:50:13Z</time>
      </trkpt>
      <trkpt lat="45.38887" lon="-1.15268">
        <ele>62</ele>
        <time>2025-04-26T10:50:14Z</time>
      </trkpt>
      <trkpt lat="45.38889" lon="-1.15263">
        <ele>63</ele>
        <time>2025-04-26T10:50:15Z</time>
      </trkpt>
      <trkpt lat="45.38889" lon="-1.15259">
        <ele>63</ele>
        <time>2025-04-26T10:50:16Z</time>
      </trkpt>
      <trkpt lat="45.3889" lon="-1.15254">
        <ele>63</ele>
        <time>2025-04-26T10:50:17Z</time>
      </trkpt>
      <trkpt lat="45.3889" lon="-1.15249">
        <ele>63</ele>
        <time>2025-04-26T10:50:18Z</time>
      </trkpt>
      <trkpt lat="45.3889" lon="-1.15243">
        <ele>63</ele>
        <time>2025-04-26T10:50:19Z</time>
      </trkpt>
      <trkpt lat="45.3889" lon="-1.15238">
        <ele>64</ele>
        <time>2025-04-26T10:50:20Z</time>
      </trkpt>
      <trkpt lat="45.3889" lon="-1.15233">
        <ele>64</ele>
        <time>2025-04-26T10:50:21Z</time>
      </trkpt>
      <trkpt lat="45.3889" lon="-1.15228">
        <ele>63</ele>
        <time>2025-04-26T10:50:22Z</time>
      </trkpt>
      <trkpt lat="45.3889" lon="-1.15222">
        <ele>63</ele>
        <time>2025-04-26T10:50:23Z</time>
      </trkpt>
      <trkpt lat="45.3889" lon="-1.15217">
        <ele>63</ele>
        <time>2025-04-26T10:50:24Z</time>
      </trkpt>
      <trkpt lat="45.3889" lon="-1.15211">
        <ele>63</ele>
        <time>2025-04-26T10:50:25Z</time>
      </trkpt>
      <trkpt lat="45.3889" lon="-1.15205">
        <ele>63</ele>
        <time>2025-04-26T10:50:26Z</time>
      </trkpt>
      <trkpt lat="45.3889" lon="-1.15199">
        <ele>63</ele>
        <time>2025-04-26T10:50:27Z</time>
      </trkpt>
      <trkpt lat="45.3889" lon="-1.15193">
        <ele>63</ele>
        <time>2025-04-26T10:50:28Z</time>
      </trkpt>
      <trkpt lat="45.38889" lon="-1.15188">
        <ele>63</ele>
        <time>2025-04-26T10:50:29Z</time>
      </trkpt>
      <trkpt lat="45.3889" lon="-1.15181">
        <ele>63</ele>
        <time>2025-04-26T10:50:30Z</time>
      </trkpt>
      <trkpt lat="45.3889" lon="-1.15176">
        <ele>63</ele>
        <time>2025-04-26T10:50:31Z</time>
      </trkpt>
      <trkpt lat="45.3889" lon="-1.1517">
        <ele>63</ele>
        <time>2025-04-26T10:50:32Z</time>
      </trkpt>
      <trkpt lat="45.3889" lon="-1.15164">
        <ele>64</ele>
        <time>2025-04-26T10:50:33Z</time>
      </trkpt>
      <trkpt lat="45.3889" lon="-1.15158">
        <ele>64</ele>
        <time>2025-04-26T10:50:34Z</time>
      </trkpt>
      <trkpt lat="45.3889" lon="-1.15152">
        <ele>64</ele>
        <time>2025-04-26T10:50:35Z</time>
      </trkpt>
      <trkpt lat="45.3889" lon="-1.15147">
        <ele>64</ele>
        <time>2025-04-26T10:50:36Z</time>
      </trkpt>
      <trkpt lat="45.3889" lon="-1.1514">
        <ele>64</ele>
        <time>2025-04-26T10:50:37Z</time>
      </trkpt>
      <trkpt lat="45.3889" lon="-1.15134">
        <ele>64</ele>
        <time>2025-04-26T10:50:38Z</time>
      </trkpt>
      <trkpt lat="45.3889" lon="-1.15128">
        <ele>64</ele>
        <time>2025-04-26T10:50:39Z</time>
      </trkpt>
      <trkpt lat="45.3889" lon="-1.15122">
        <ele>64</ele>
        <time>2025-04-26T10:50:40Z</time>
      </trkpt>
      <trkpt lat="45.3889" lon="-1.15116">
        <ele>63</ele>
        <time>2025-04-26T10:50:41Z</time>
      </trkpt>
      <trkpt lat="45.3889" lon="-1.1511">
        <ele>63</ele>
        <time>2025-04-26T10:50:42Z</time>
      </trkpt>
      <trkpt lat="45.38889" lon="-1.15104">
        <ele>63</ele>
        <time>2025-04-26T10:50:43Z</time>
      </trkpt>
      <trkpt lat="45.3889" lon="-1.15097">
        <ele>63</ele>
        <time>2025-04-26T10:50:44Z</time>
      </trkpt>
      <trkpt lat="45.38889" lon="-1.1509">
        <ele>63</ele>
        <time>2025-04-26T10:50:45Z</time>
      </trkpt>
      <trkpt lat="45.38889" lon="-1.15084">
        <ele>63</ele>
        <time>2025-04-26T10:50:46Z</time>
      </trkpt>
      <trkpt lat="45.38889" lon="-1.15077">
        <ele>63</ele>
        <time>2025-04-26T10:50:47Z</time>
      </trkpt>
      <trkpt lat="45.38889" lon="-1.1507">
        <ele>63</ele>
        <time>2025-04-26T10:50:48Z</time>
      </trkpt>
      <trkpt lat="45.38889" lon="-1.15064">
        <ele>63</ele>
        <time>2025-04-26T10:50:49Z</time>
      </trkpt>
      <trkpt lat="45.38889" lon="-1.15057">
        <ele>63</ele>
        <time>2025-04-26T10:50:50Z</time>
      </trkpt>
      <trkpt lat="45.38888" lon="-1.1505">
        <ele>63</ele>
        <time>2025-04-26T10:50:51Z</time>
      </trkpt>
      <trkpt lat="45.38889" lon="-1.15043">
        <ele>64</ele>
        <time>2025-04-26T10:50:52Z</time>
      </trkpt>
      <trkpt lat="45.38889" lon="-1.15037">
        <ele>64</ele>
        <time>2025-04-26T10:50:53Z</time>
      </trkpt>
      <trkpt lat="45.38889" lon="-1.1503">
        <ele>63</ele>
        <time>2025-04-26T10:50:54Z</time>
      </trkpt>
      <trkpt lat="45.38888" lon="-1.15023">
        <ele>63</ele>
        <time>2025-04-26T10:50:55Z</time>
      </trkpt>
      <trkpt lat="45.38888" lon="-1.15017">
        <ele>63</ele>
        <time>2025-04-26T10:50:56Z</time>
      </trkpt>
      <trkpt lat="45.38888" lon="-1.1501">
        <ele>63</ele>
        <time>2025-04-26T10:50:57Z</time>
      </trkpt>
      <trkpt lat="45.38888" lon="-1.15003">
        <ele>63</ele>
        <time>2025-04-26T10:50:58Z</time>
      </trkpt>
      <trkpt lat="45.38888" lon="-1.14997">
        <ele>63</ele>
        <time>2025-04-26T10:50:59Z</time>
      </trkpt>
      <trkpt lat="45.38888" lon="-1.1499">
        <ele>63</ele>
        <time>2025-04-26T10:51:00Z</time>
      </trkpt>
      <trkpt lat="45.38888" lon="-1.14984">
        <ele>62</ele>
        <time>2025-04-26T10:51:01Z</time>
      </trkpt>
      <trkpt lat="45.38887" lon="-1.14978">
        <ele>61</ele>
        <time>2025-04-26T10:51:02Z</time>
      </trkpt>
      <trkpt lat="45.38887" lon="-1.14971">
        <ele>61</ele>
        <time>2025-04-26T10:51:03Z</time>
      </trkpt>
      <trkpt lat="45.38887" lon="-1.14965">
        <ele>62</ele>
        <time>2025-04-26T10:51:04Z</time>
      </trkpt>
      <trkpt lat="45.38887" lon="-1.14958">
        <ele>62</ele>
        <time>2025-04-26T10:51:05Z</time>
      </trkpt>
      <trkpt lat="45.38887" lon="-1.14951">
        <ele>62</ele>
        <time>2025-04-26T10:51:06Z</time>
      </trkpt>
      <trkpt lat="45.38888" lon="-1.14944">
        <ele>62</ele>
        <time>2025-04-26T10:51:07Z</time>
      </trkpt>
      <trkpt lat="45.38888" lon="-1.14938">
        <ele>62</ele>
        <time>2025-04-26T10:51:08Z</time>
      </trkpt>
      <trkpt lat="45.38888" lon="-1.14932">
        <ele>62</ele>
        <time>2025-04-26T10:51:09Z</time>
      </trkpt>
      <trkpt lat="45.38888" lon="-1.14925">
        <ele>62</ele>
        <time>2025-04-26T10:51:10Z</time>
      </trkpt>
      <trkpt lat="45.38888" lon="-1.14919">
        <ele>62</ele>
        <time>2025-04-26T10:51:11Z</time>
      </trkpt>
      <trkpt lat="45.38888" lon="-1.14912">
        <ele>62</ele>
        <time>2025-04-26T10:51:12Z</time>
      </trkpt>
      <trkpt lat="45.38888" lon="-1.14906">
        <ele>62</ele>
        <time>2025-04-26T10:51:13Z</time>
      </trkpt>
      <trkpt lat="45.38888" lon="-1.14899">
        <ele>61</ele>
        <time>2025-04-26T10:51:14Z</time>
      </trkpt>
      <trkpt lat="45.38888" lon="-1.14893">
        <ele>61</ele>
        <time>2025-04-26T10:51:15Z</time>
      </trkpt>
      <trkpt lat="45.38888" lon="-1.14888">
        <ele>61</ele>
        <time>2025-04-26T10:51:16Z</time>
      </trkpt>
      <trkpt lat="45.38888" lon="-1.14881">
        <ele>62</ele>
        <time>2025-04-26T10:51:17Z</time>
      </trkpt>
      <trkpt lat="45.38888" lon="-1.14875">
        <ele>62</ele>
        <time>2025-04-26T10:51:18Z</time>
      </trkpt>
      <trkpt lat="45.38887" lon="-1.14868">
        <ele>62</ele>
        <time>2025-04-26T10:51:19Z</time>
      </trkpt>
      <trkpt lat="45.38887" lon="-1.14861">
        <ele>62</ele>
        <time>2025-04-26T10:51:20Z</time>
      </trkpt>
      <trkpt lat="45.38887" lon="-1.14854">
        <ele>62</ele>
        <time>2025-04-26T10:51:21Z</time>
      </trkpt>
      <trkpt lat="45.38887" lon="-1.14848">
        <ele>62</ele>
        <time>2025-04-26T10:51:22Z</time>
      </trkpt>
      <trkpt lat="45.38887" lon="-1.14841">
        <ele>62</ele>
        <time>2025-04-26T10:51:23Z</time>
      </trkpt>
      <trkpt lat="45.38887" lon="-1.14835">
        <ele>62</ele>
        <time>2025-04-26T10:51:24Z</time>
      </trkpt>
      <trkpt lat="45.38887" lon="-1.14828">
        <ele>63</ele>
        <time>2025-04-26T10:51:25Z</time>
      </trkpt>
      <trkpt lat="45.38887" lon="-1.14822">
        <ele>63</ele>
        <time>2025-04-26T10:51:26Z</time>
      </trkpt>
      <trkpt lat="45.38887" lon="-1.14815">
        <ele>63</ele>
        <time>2025-04-26T10:51:27Z</time>
      </trkpt>
      <trkpt lat="45.38887" lon="-1.14809">
        <ele>63</ele>
        <time>2025-04-26T10:51:28Z</time>
      </trkpt>
      <trkpt lat="45.38887" lon="-1.14802">
        <ele>63</ele>
        <time>2025-04-26T10:51:29Z</time>
      </trkpt>
      <trkpt lat="45.38888" lon="-1.14795">
        <ele>64</ele>
        <time>2025-04-26T10:51:30Z</time>
      </trkpt>
      <trkpt lat="45.38887" lon="-1.14788">
        <ele>64</ele>
        <time>2025-04-26T10:51:31Z</time>
      </trkpt>
      <trkpt lat="45.38887" lon="-1.14782">
        <ele>64</ele>
        <time>2025-04-26T10:51:32Z</time>
      </trkpt>
      <trkpt lat="45.38887" lon="-1.14776">
        <ele>64</ele>
        <time>2025-04-26T10:51:33Z</time>
      </trkpt>
      <trkpt lat="45.38887" lon="-1.14769">
        <ele>65</ele>
        <time>2025-04-26T10:51:34Z</time>
      </trkpt>
      <trkpt lat="45.38887" lon="-1.14763">
        <ele>65</ele>
        <time>2025-04-26T10:51:35Z</time>
      </trkpt>
      <trkpt lat="45.38887" lon="-1.14757">
        <ele>65</ele>
        <time>2025-04-26T10:51:36Z</time>
      </trkpt>
      <trkpt lat="45.38887" lon="-1.1475">
        <ele>65</ele>
        <time>2025-04-26T10:51:37Z</time>
      </trkpt>
      <trkpt lat="45.38887" lon="-1.14744">
        <ele>65</ele>
        <time>2025-04-26T10:51:38Z</time>
      </trkpt>
      <trkpt lat="45.38887" lon="-1.14738">
        <ele>64</ele>
        <time>2025-04-26T10:51:39Z</time>
      </trkpt>
      <trkpt lat="45.38886" lon="-1.14732">
        <ele>64</ele>
        <time>2025-04-26T10:51:40Z</time>
      </trkpt>
      <trkpt lat="45.38886" lon="-1.14726">
        <ele>64</ele>
        <time>2025-04-26T10:51:41Z</time>
      </trkpt>
      <trkpt lat="45.38887" lon="-1.14719">
        <ele>64</ele>
        <time>2025-04-26T10:51:42Z</time>
      </trkpt>
      <trkpt lat="45.38887" lon="-1.14713">
        <ele>64</ele>
        <time>2025-04-26T10:51:43Z</time>
      </trkpt>
      <trkpt lat="45.38887" lon="-1.14708">
        <ele>64</ele>
        <time>2025-04-26T10:51:44Z</time>
      </trkpt>
      <trkpt lat="45.38887" lon="-1.14702">
        <ele>64</ele>
        <time>2025-04-26T10:51:45Z</time>
      </trkpt>
      <trkpt lat="45.38887" lon="-1.14696">
        <ele>64</ele>
        <time>2025-04-26T10:51:46Z</time>
      </trkpt>
      <trkpt lat="45.38887" lon="-1.1469">
        <ele>64</ele>
        <time>2025-04-26T10:51:47Z</time>
      </trkpt>
      <trkpt lat="45.38886" lon="-1.14683">
        <ele>64</ele>
        <time>2025-04-26T10:51:48Z</time>
      </trkpt>
      <trkpt lat="45.38886" lon="-1.14677">
        <ele>64</ele>
        <time>2025-04-26T10:51:49Z</time>
      </trkpt>
      <trkpt lat="45.38886" lon="-1.14671">
        <ele>64</ele>
        <time>2025-04-26T10:51:50Z</time>
      </trkpt>
      <trkpt lat="45.38886" lon="-1.14665">
        <ele>64</ele>
        <time>2025-04-26T10:51:51Z</time>
      </trkpt>
      <trkpt lat="45.38886" lon="-1.14659">
        <ele>64</ele>
        <time>2025-04-26T10:51:52Z</time>
      </trkpt>
      <trkpt lat="45.38886" lon="-1.14653">
        <ele>64</ele>
        <time>2025-04-26T10:51:53Z</time>
      </trkpt>
      <trkpt lat="45.38886" lon="-1.14647">
        <ele>64</ele>
        <time>2025-04-26T10:51:54Z</time>
      </trkpt>
      <trkpt lat="45.38886" lon="-1.14641">
        <ele>64</ele>
        <time>2025-04-26T10:51:55Z</time>
      </trkpt>
      <trkpt lat="45.38886" lon="-1.14635">
        <ele>65</ele>
        <time>2025-04-26T10:51:56Z</time>
      </trkpt>
      <trkpt lat="45.38886" lon="-1.14628">
        <ele>65</ele>
        <time>2025-04-26T10:51:57Z</time>
      </trkpt>
      <trkpt lat="45.38886" lon="-1.14622">
        <ele>65</ele>
        <time>2025-04-26T10:51:58Z</time>
      </trkpt>
      <trkpt lat="45.38886" lon="-1.14616">
        <ele>65</ele>
        <time>2025-04-26T10:51:59Z</time>
      </trkpt>
      <trkpt lat="45.38886" lon="-1.1461">
        <ele>64</ele>
        <time>2025-04-26T10:52:00Z</time>
      </trkpt>
      <trkpt lat="45.38886" lon="-1.14604">
        <ele>65</ele>
        <time>2025-04-26T10:52:01Z</time>
      </trkpt>
      <trkpt lat="45.38886" lon="-1.14598">
        <ele>65</ele>
        <time>2025-04-26T10:52:02Z</time>
      </trkpt>
      <trkpt lat="45.38886" lon="-1.14592">
        <ele>65</ele>
        <time>2025-04-26T10:52:03Z</time>
      </trkpt>
      <trkpt lat="45.38886" lon="-1.14586">
        <ele>64</ele>
        <time>2025-04-26T10:52:04Z</time>
      </trkpt>
      <trkpt lat="45.38886" lon="-1.1458">
        <ele>65</ele>
        <time>2025-04-26T10:52:05Z</time>
      </trkpt>
      <trkpt lat="45.38886" lon="-1.14574">
        <ele>65</ele>
        <time>2025-04-26T10:52:06Z</time>
      </trkpt>
      <trkpt lat="45.38886" lon="-1.14567">
        <ele>65</ele>
        <time>2025-04-26T10:52:07Z</time>
      </trkpt>
      <trkpt lat="45.38886" lon="-1.14561">
        <ele>65</ele>
        <time>2025-04-26T10:52:08Z</time>
      </trkpt>
      <trkpt lat="45.38886" lon="-1.14555">
        <ele>65</ele>
        <time>2025-04-26T10:52:09Z</time>
      </trkpt>
      <trkpt lat="45.38886" lon="-1.14548">
        <ele>65</ele>
        <time>2025-04-26T10:52:10Z</time>
      </trkpt>
      <trkpt lat="45.38886" lon="-1.14542">
        <ele>65</ele>
        <time>2025-04-26T10:52:11Z</time>
      </trkpt>
      <trkpt lat="45.38886" lon="-1.14536">
        <ele>65</ele>
        <time>2025-04-26T10:52:12Z</time>
      </trkpt>
      <trkpt lat="45.38886" lon="-1.14529">
        <ele>64</ele>
        <time>2025-04-26T10:52:13Z</time>
      </trkpt>
      <trkpt lat="45.38886" lon="-1.14523">
        <ele>64</ele>
        <time>2025-04-26T10:52:14Z</time>
      </trkpt>
      <trkpt lat="45.38886" lon="-1.14517">
        <ele>64</ele>
        <time>2025-04-26T10:52:15Z</time>
      </trkpt>
      <trkpt lat="45.38886" lon="-1.14511">
        <ele>64</ele>
        <time>2025-04-26T10:52:16Z</time>
      </trkpt>
      <trkpt lat="45.38886" lon="-1.14504">
        <ele>64</ele>
        <time>2025-04-26T10:52:17Z</time>
      </trkpt>
      <trkpt lat="45.38885" lon="-1.14498">
        <ele>64</ele>
        <time>2025-04-26T10:52:18Z</time>
      </trkpt>
      <trkpt lat="45.38885" lon="-1.14492">
        <ele>64</ele>
        <time>2025-04-26T10:52:19Z</time>
      </trkpt>
      <trkpt lat="45.38885" lon="-1.14486">
        <ele>64</ele>
        <time>2025-04-26T10:52:20Z</time>
      </trkpt>
      <trkpt lat="45.38885" lon="-1.14479">
        <ele>64</ele>
        <time>2025-04-26T10:52:21Z</time>
      </trkpt>
      <trkpt lat="45.38885" lon="-1.14473">
        <ele>64</ele>
        <time>2025-04-26T10:52:22Z</time>
      </trkpt>
      <trkpt lat="45.38885" lon="-1.14467">
        <ele>64</ele>
        <time>2025-04-26T10:52:23Z</time>
      </trkpt>
      <trkpt lat="45.38885" lon="-1.1446">
        <ele>65</ele>
        <time>2025-04-26T10:52:24Z</time>
      </trkpt>
      <trkpt lat="45.38885" lon="-1.14454">
        <ele>64</ele>
        <time>2025-04-26T10:52:25Z</time>
      </trkpt>
      <trkpt lat="45.38885" lon="-1.14448">
        <ele>64</ele>
        <time>2025-04-26T10:52:26Z</time>
      </trkpt>
      <trkpt lat="45.38885" lon="-1.14441">
        <ele>65</ele>
        <time>2025-04-26T10:52:27Z</time>
      </trkpt>
      <trkpt lat="45.38885" lon="-1.14435">
        <ele>65</ele>
        <time>2025-04-26T10:52:28Z</time>
      </trkpt>
      <trkpt lat="45.38885" lon="-1.14429">
        <ele>65</ele>
        <time>2025-04-26T10:52:29Z</time>
      </trkpt>
      <trkpt lat="45.38885" lon="-1.14423">
        <ele>65</ele>
        <time>2025-04-26T10:52:30Z</time>
      </trkpt>
      <trkpt lat="45.38885" lon="-1.14417">
        <ele>65</ele>
        <time>2025-04-26T10:52:31Z</time>
      </trkpt>
      <trkpt lat="45.38885" lon="-1.14411">
        <ele>65</ele>
        <time>2025-04-26T10:52:32Z</time>
      </trkpt>
      <trkpt lat="45.38884" lon="-1.14404">
        <ele>65</ele>
        <time>2025-04-26T10:52:33Z</time>
      </trkpt>
      <trkpt lat="45.38885" lon="-1.14399">
        <ele>65</ele>
        <time>2025-04-26T10:52:34Z</time>
      </trkpt>
      <trkpt lat="45.38885" lon="-1.14393">
        <ele>65</ele>
        <time>2025-04-26T10:52:35Z</time>
      </trkpt>
      <trkpt lat="45.38885" lon="-1.14386">
        <ele>65</ele>
        <time>2025-04-26T10:52:36Z</time>
      </trkpt>
      <trkpt lat="45.38884" lon="-1.1438">
        <ele>65</ele>
        <time>2025-04-26T10:52:37Z</time>
      </trkpt>
      <trkpt lat="45.38884" lon="-1.14373">
        <ele>66</ele>
        <time>2025-04-26T10:52:38Z</time>
      </trkpt>
      <trkpt lat="45.38884" lon="-1.14367">
        <ele>66</ele>
        <time>2025-04-26T10:52:39Z</time>
      </trkpt>
      <trkpt lat="45.38884" lon="-1.14361">
        <ele>66</ele>
        <time>2025-04-26T10:52:40Z</time>
      </trkpt>
      <trkpt lat="45.38884" lon="-1.14355">
        <ele>67</ele>
        <time>2025-04-26T10:52:41Z</time>
      </trkpt>
      <trkpt lat="45.38884" lon="-1.14349">
        <ele>67</ele>
        <time>2025-04-26T10:52:42Z</time>
      </trkpt>
      <trkpt lat="45.38884" lon="-1.14343">
        <ele>67</ele>
        <time>2025-04-26T10:52:43Z</time>
      </trkpt>
      <trkpt lat="45.38884" lon="-1.14337">
        <ele>67</ele>
        <time>2025-04-26T10:52:44Z</time>
      </trkpt>
      <trkpt lat="45.38884" lon="-1.14331">
        <ele>67</ele>
        <time>2025-04-26T10:52:45Z</time>
      </trkpt>
      <trkpt lat="45.38884" lon="-1.14325">
        <ele>67</ele>
        <time>2025-04-26T10:52:46Z</time>
      </trkpt>
      <trkpt lat="45.38884" lon="-1.14318">
        <ele>66</ele>
        <time>2025-04-26T10:52:47Z</time>
      </trkpt>
      <trkpt lat="45.38884" lon="-1.14312">
        <ele>66</ele>
        <time>2025-04-26T10:52:48Z</time>
      </trkpt>
      <trkpt lat="45.38884" lon="-1.14306">
        <ele>66</ele>
        <time>2025-04-26T10:52:49Z</time>
      </trkpt>
      <trkpt lat="45.38884" lon="-1.14299">
        <ele>66</ele>
        <time>2025-04-26T10:52:50Z</time>
      </trkpt>
      <trkpt lat="45.38884" lon="-1.14293">
        <ele>66</ele>
        <time>2025-04-26T10:52:51Z</time>
      </trkpt>
      <trkpt lat="45.38884" lon="-1.14286">
        <ele>66</ele>
        <time>2025-04-26T10:52:52Z</time>
      </trkpt>
      <trkpt lat="45.38884" lon="-1.1428">
        <ele>66</ele>
        <time>2025-04-26T10:52:53Z</time>
      </trkpt>
      <trkpt lat="45.38884" lon="-1.14274">
        <ele>66</ele>
        <time>2025-04-26T10:52:54Z</time>
      </trkpt>
      <trkpt lat="45.38884" lon="-1.14268">
        <ele>66</ele>
        <time>2025-04-26T10:52:55Z</time>
      </trkpt>
      <trkpt lat="45.38884" lon="-1.14261">
        <ele>66</ele>
        <time>2025-04-26T10:52:56Z</time>
      </trkpt>
      <trkpt lat="45.38884" lon="-1.14255">
        <ele>66</ele>
        <time>2025-04-26T10:52:57Z</time>
      </trkpt>
      <trkpt lat="45.38883" lon="-1.14249">
        <ele>66</ele>
        <time>2025-04-26T10:52:58Z</time>
      </trkpt>
      <trkpt lat="45.38883" lon="-1.14242">
        <ele>66</ele>
        <time>2025-04-26T10:52:59Z</time>
      </trkpt>
      <trkpt lat="45.38883" lon="-1.14236">
        <ele>66</ele>
        <time>2025-04-26T10:53:00Z</time>
      </trkpt>
      <trkpt lat="45.38883" lon="-1.1423">
        <ele>66</ele>
        <time>2025-04-26T10:53:01Z</time>
      </trkpt>
      <trkpt lat="45.38883" lon="-1.14223">
        <ele>66</ele>
        <time>2025-04-26T10:53:02Z</time>
      </trkpt>
      <trkpt lat="45.38882" lon="-1.14217">
        <ele>66</ele>
        <time>2025-04-26T10:53:03Z</time>
      </trkpt>
      <trkpt lat="45.38882" lon="-1.14211">
        <ele>66</ele>
        <time>2025-04-26T10:53:04Z</time>
      </trkpt>
      <trkpt lat="45.38882" lon="-1.14204">
        <ele>65</ele>
        <time>2025-04-26T10:53:05Z</time>
      </trkpt>
      <trkpt lat="45.38882" lon="-1.14197">
        <ele>65</ele>
        <time>2025-04-26T10:53:06Z</time>
      </trkpt>
      <trkpt lat="45.38883" lon="-1.14191">
        <ele>66</ele>
        <time>2025-04-26T10:53:07Z</time>
      </trkpt>
      <trkpt lat="45.38883" lon="-1.14185">
        <ele>66</ele>
        <time>2025-04-26T10:53:08Z</time>
      </trkpt>
      <trkpt lat="45.38883" lon="-1.14178">
        <ele>66</ele>
        <time>2025-04-26T10:53:09Z</time>
      </trkpt>
      <trkpt lat="45.38882" lon="-1.14172">
        <ele>65</ele>
        <time>2025-04-26T10:53:10Z</time>
      </trkpt>
      <trkpt lat="45.38883" lon="-1.14166">
        <ele>66</ele>
        <time>2025-04-26T10:53:11Z</time>
      </trkpt>
      <trkpt lat="45.38883" lon="-1.1416">
        <ele>66</ele>
        <time>2025-04-26T10:53:12Z</time>
      </trkpt>
      <trkpt lat="45.38883" lon="-1.14153">
        <ele>66</ele>
        <time>2025-04-26T10:53:13Z</time>
      </trkpt>
      <trkpt lat="45.38883" lon="-1.14147">
        <ele>66</ele>
        <time>2025-04-26T10:53:14Z</time>
      </trkpt>
      <trkpt lat="45.38883" lon="-1.14141">
        <ele>65</ele>
        <time>2025-04-26T10:53:15Z</time>
      </trkpt>
      <trkpt lat="45.38882" lon="-1.14134">
        <ele>65</ele>
        <time>2025-04-26T10:53:16Z</time>
      </trkpt>
      <trkpt lat="45.38882" lon="-1.14128">
        <ele>66</ele>
        <time>2025-04-26T10:53:17Z</time>
      </trkpt>
      <trkpt lat="45.38882" lon="-1.14121">
        <ele>67</ele>
        <time>2025-04-26T10:53:18Z</time>
      </trkpt>
      <trkpt lat="45.38883" lon="-1.14115">
        <ele>67</ele>
        <time>2025-04-26T10:53:19Z</time>
      </trkpt>
      <trkpt lat="45.38883" lon="-1.14109">
        <ele>67</ele>
        <time>2025-04-26T10:53:20Z</time>
      </trkpt>
      <trkpt lat="45.38882" lon="-1.14103">
        <ele>67</ele>
        <time>2025-04-26T10:53:21Z</time>
      </trkpt>
      <trkpt lat="45.38882" lon="-1.14096">
        <ele>66</ele>
        <time>2025-04-26T10:53:22Z</time>
      </trkpt>
      <trkpt lat="45.38882" lon="-1.1409">
        <ele>66</ele>
        <time>2025-04-26T10:53:23Z</time>
      </trkpt>
      <trkpt lat="45.38882" lon="-1.14084">
        <ele>67</ele>
        <time>2025-04-26T10:53:24Z</time>
      </trkpt>
      <trkpt lat="45.38882" lon="-1.14077">
        <ele>67</ele>
        <time>2025-04-26T10:53:25Z</time>
      </trkpt>
      <trkpt lat="45.38882" lon="-1.14071">
        <ele>67</ele>
        <time>2025-04-26T10:53:26Z</time>
      </trkpt>
      <trkpt lat="45.38882" lon="-1.14065">
        <ele>67</ele>
        <time>2025-04-26T10:53:27Z</time>
      </trkpt>
      <trkpt lat="45.38881" lon="-1.14059">
        <ele>66</ele>
        <time>2025-04-26T10:53:28Z</time>
      </trkpt>
      <trkpt lat="45.38882" lon="-1.14052">
        <ele>66</ele>
        <time>2025-04-26T10:53:29Z</time>
      </trkpt>
      <trkpt lat="45.38882" lon="-1.14045">
        <ele>66</ele>
        <time>2025-04-26T10:53:30Z</time>
      </trkpt>
      <trkpt lat="45.38882" lon="-1.14039">
        <ele>67</ele>
        <time>2025-04-26T10:53:31Z</time>
      </trkpt>
      <trkpt lat="45.38882" lon="-1.14033">
        <ele>67</ele>
        <time>2025-04-26T10:53:32Z</time>
      </trkpt>
      <trkpt lat="45.38882" lon="-1.14027">
        <ele>66</ele>
        <time>2025-04-26T10:53:33Z</time>
      </trkpt>
      <trkpt lat="45.38882" lon="-1.14021">
        <ele>66</ele>
        <time>2025-04-26T10:53:34Z</time>
      </trkpt>
      <trkpt lat="45.38882" lon="-1.14015">
        <ele>66</ele>
        <time>2025-04-26T10:53:35Z</time>
      </trkpt>
      <trkpt lat="45.38882" lon="-1.14009">
        <ele>66</ele>
        <time>2025-04-26T10:53:36Z</time>
      </trkpt>
      <trkpt lat="45.38882" lon="-1.14002">
        <ele>66</ele>
        <time>2025-04-26T10:53:37Z</time>
      </trkpt>
      <trkpt lat="45.38882" lon="-1.13996">
        <ele>67</ele>
        <time>2025-04-26T10:53:38Z</time>
      </trkpt>
      <trkpt lat="45.38882" lon="-1.1399">
        <ele>67</ele>
        <time>2025-04-26T10:53:39Z</time>
      </trkpt>
      <trkpt lat="45.38882" lon="-1.13984">
        <ele>67</ele>
        <time>2025-04-26T10:53:40Z</time>
      </trkpt>
      <trkpt lat="45.38882" lon="-1.13978">
        <ele>67</ele>
        <time>2025-04-26T10:53:41Z</time>
      </trkpt>
      <trkpt lat="45.38883" lon="-1.13972">
        <ele>67</ele>
        <time>2025-04-26T10:53:42Z</time>
      </trkpt>
      <trkpt lat="45.38883" lon="-1.13965">
        <ele>67</ele>
        <time>2025-04-26T10:53:43Z</time>
      </trkpt>
      <trkpt lat="45.38883" lon="-1.13959">
        <ele>67</ele>
        <time>2025-04-26T10:53:44Z</time>
      </trkpt>
      <trkpt lat="45.38883" lon="-1.13952">
        <ele>67</ele>
        <time>2025-04-26T10:53:45Z</time>
      </trkpt>
      <trkpt lat="45.38883" lon="-1.13946">
        <ele>67</ele>
        <time>2025-04-26T10:53:46Z</time>
      </trkpt>
      <trkpt lat="45.38883" lon="-1.1394">
        <ele>67</ele>
        <time>2025-04-26T10:53:47Z</time>
      </trkpt>
      <trkpt lat="45.38883" lon="-1.13934">
        <ele>67</ele>
        <time>2025-04-26T10:53:48Z</time>
      </trkpt>
      <trkpt lat="45.38882" lon="-1.13928">
        <ele>67</ele>
        <time>2025-04-26T10:53:49Z</time>
      </trkpt>
      <trkpt lat="45.38882" lon="-1.13921">
        <ele>67</ele>
        <time>2025-04-26T10:53:50Z</time>
      </trkpt>
      <trkpt lat="45.38882" lon="-1.13914">
        <ele>67</ele>
        <time>2025-04-26T10:53:51Z</time>
      </trkpt>
      <trkpt lat="45.38882" lon="-1.13908">
        <ele>66</ele>
        <time>2025-04-26T10:53:52Z</time>
      </trkpt>
      <trkpt lat="45.38881" lon="-1.13902">
        <ele>66</ele>
        <time>2025-04-26T10:53:53Z</time>
      </trkpt>
      <trkpt lat="45.38881" lon="-1.13896">
        <ele>66</ele>
        <time>2025-04-26T10:53:54Z</time>
      </trkpt>
      <trkpt lat="45.38881" lon="-1.13889">
        <ele>66</ele>
        <time>2025-04-26T10:53:55Z</time>
      </trkpt>
      <trkpt lat="45.38881" lon="-1.13883">
        <ele>66</ele>
        <time>2025-04-26T10:53:56Z</time>
      </trkpt>
      <trkpt lat="45.38881" lon="-1.13877">
        <ele>66</ele>
        <time>2025-04-26T10:53:57Z</time>
      </trkpt>
      <trkpt lat="45.38881" lon="-1.1387">
        <ele>66</ele>
        <time>2025-04-26T10:53:58Z</time>
      </trkpt>
      <trkpt lat="45.38881" lon="-1.13864">
        <ele>66</ele>
        <time>2025-04-26T10:53:59Z</time>
      </trkpt>
      <trkpt lat="45.38881" lon="-1.13857">
        <ele>66</ele>
        <time>2025-04-26T10:54:00Z</time>
      </trkpt>
      <trkpt lat="45.38881" lon="-1.13851">
        <ele>66</ele>
        <time>2025-04-26T10:54:01Z</time>
      </trkpt>
      <trkpt lat="45.38881" lon="-1.13844">
        <ele>67</ele>
        <time>2025-04-26T10:54:02Z</time>
      </trkpt>
      <trkpt lat="45.38881" lon="-1.13837">
        <ele>67</ele>
        <time>2025-04-26T10:54:03Z</time>
      </trkpt>
      <trkpt lat="45.38881" lon="-1.1383">
        <ele>67</ele>
        <time>2025-04-26T10:54:04Z</time>
      </trkpt>
      <trkpt lat="45.38881" lon="-1.13823">
        <ele>67</ele>
        <time>2025-04-26T10:54:05Z</time>
      </trkpt>
      <trkpt lat="45.38881" lon="-1.13817">
        <ele>67</ele>
        <time>2025-04-26T10:54:06Z</time>
      </trkpt>
      <trkpt lat="45.38881" lon="-1.13811">
        <ele>67</ele>
        <time>2025-04-26T10:54:07Z</time>
      </trkpt>
      <trkpt lat="45.38881" lon="-1.13804">
        <ele>68</ele>
        <time>2025-04-26T10:54:08Z</time>
      </trkpt>
      <trkpt lat="45.38881" lon="-1.13797">
        <ele>68</ele>
        <time>2025-04-26T10:54:09Z</time>
      </trkpt>
      <trkpt lat="45.38881" lon="-1.13789">
        <ele>68</ele>
        <time>2025-04-26T10:54:10Z</time>
      </trkpt>
      <trkpt lat="45.38881" lon="-1.13782">
        <ele>68</ele>
        <time>2025-04-26T10:54:11Z</time>
      </trkpt>
      <trkpt lat="45.38881" lon="-1.13775">
        <ele>68</ele>
        <time>2025-04-26T10:54:12Z</time>
      </trkpt>
      <trkpt lat="45.3888" lon="-1.13769">
        <ele>67</ele>
        <time>2025-04-26T10:54:13Z</time>
      </trkpt>
      <trkpt lat="45.3888" lon="-1.13762">
        <ele>67</ele>
        <time>2025-04-26T10:54:14Z</time>
      </trkpt>
      <trkpt lat="45.3888" lon="-1.13755">
        <ele>67</ele>
        <time>2025-04-26T10:54:15Z</time>
      </trkpt>
      <trkpt lat="45.38879" lon="-1.13749">
        <ele>67</ele>
        <time>2025-04-26T10:54:16Z</time>
      </trkpt>
      <trkpt lat="45.38879" lon="-1.13742">
        <ele>67</ele>
        <time>2025-04-26T10:54:17Z</time>
      </trkpt>
      <trkpt lat="45.38879" lon="-1.13736">
        <ele>67</ele>
        <time>2025-04-26T10:54:18Z</time>
      </trkpt>
      <trkpt lat="45.38879" lon="-1.13729">
        <ele>67</ele>
        <time>2025-04-26T10:54:19Z</time>
      </trkpt>
      <trkpt lat="45.38879" lon="-1.13723">
        <ele>68</ele>
        <time>2025-04-26T10:54:20Z</time>
      </trkpt>
      <trkpt lat="45.38879" lon="-1.13717">
        <ele>67</ele>
        <time>2025-04-26T10:54:21Z</time>
      </trkpt>
      <trkpt lat="45.38879" lon="-1.13711">
        <ele>67</ele>
        <time>2025-04-26T10:54:22Z</time>
      </trkpt>
      <trkpt lat="45.38878" lon="-1.13705">
        <ele>67</ele>
        <time>2025-04-26T10:54:23Z</time>
      </trkpt>
      <trkpt lat="45.38878" lon="-1.13699">
        <ele>66</ele>
        <time>2025-04-26T10:54:24Z</time>
      </trkpt>
      <trkpt lat="45.38878" lon="-1.13692">
        <ele>66</ele>
        <time>2025-04-26T10:54:25Z</time>
      </trkpt>
      <trkpt lat="45.38878" lon="-1.13686">
        <ele>65</ele>
        <time>2025-04-26T10:54:26Z</time>
      </trkpt>
      <trkpt lat="45.38878" lon="-1.1368">
        <ele>65</ele>
        <time>2025-04-26T10:54:27Z</time>
      </trkpt>
      <trkpt lat="45.38878" lon="-1.13673">
        <ele>66</ele>
        <time>2025-04-26T10:54:28Z</time>
      </trkpt>
      <trkpt lat="45.38878" lon="-1.13667">
        <ele>66</ele>
        <time>2025-04-26T10:54:29Z</time>
      </trkpt>
      <trkpt lat="45.38878" lon="-1.13661">
        <ele>67</ele>
        <time>2025-04-26T10:54:30Z</time>
      </trkpt>
      <trkpt lat="45.38878" lon="-1.13654">
        <ele>67</ele>
        <time>2025-04-26T10:54:31Z</time>
      </trkpt>
      <trkpt lat="45.38878" lon="-1.13648">
        <ele>67</ele>
        <time>2025-04-26T10:54:32Z</time>
      </trkpt>
      <trkpt lat="45.38878" lon="-1.13642">
        <ele>67</ele>
        <time>2025-04-26T10:54:33Z</time>
      </trkpt>
      <trkpt lat="45.38878" lon="-1.13636">
        <ele>67</ele>
        <time>2025-04-26T10:54:34Z</time>
      </trkpt>
      <trkpt lat="45.38878" lon="-1.13629">
        <ele>66</ele>
        <time>2025-04-26T10:54:35Z</time>
      </trkpt>
      <trkpt lat="45.38878" lon="-1.13623">
        <ele>66</ele>
        <time>2025-04-26T10:54:36Z</time>
      </trkpt>
      <trkpt lat="45.38878" lon="-1.13617">
        <ele>66</ele>
        <time>2025-04-26T10:54:37Z</time>
      </trkpt>
      <trkpt lat="45.38878" lon="-1.13611">
        <ele>66</ele>
        <time>2025-04-26T10:54:38Z</time>
      </trkpt>
      <trkpt lat="45.38878" lon="-1.13605">
        <ele>67</ele>
        <time>2025-04-26T10:54:39Z</time>
      </trkpt>
      <trkpt lat="45.38878" lon="-1.13599">
        <ele>67</ele>
        <time>2025-04-26T10:54:40Z</time>
      </trkpt>
      <trkpt lat="45.38878" lon="-1.13592">
        <ele>66</ele>
        <time>2025-04-26T10:54:41Z</time>
      </trkpt>
      <trkpt lat="45.38877" lon="-1.13586">
        <ele>66</ele>
        <time>2025-04-26T10:54:42Z</time>
      </trkpt>
      <trkpt lat="45.38877" lon="-1.1358">
        <ele>67</ele>
        <time>2025-04-26T10:54:43Z</time>
      </trkpt>
      <trkpt lat="45.38877" lon="-1.13574">
        <ele>67</ele>
        <time>2025-04-26T10:54:44Z</time>
      </trkpt>
      <trkpt lat="45.38878" lon="-1.13567">
        <ele>67</ele>
        <time>2025-04-26T10:54:45Z</time>
      </trkpt>
      <trkpt lat="45.38877" lon="-1.13561">
        <ele>67</ele>
        <time>2025-04-26T10:54:46Z</time>
      </trkpt>
      <trkpt lat="45.38877" lon="-1.13555">
        <ele>66</ele>
        <time>2025-04-26T10:54:47Z</time>
      </trkpt>
      <trkpt lat="45.38877" lon="-1.1355">
        <ele>66</ele>
        <time>2025-04-26T10:54:48Z</time>
      </trkpt>
      <trkpt lat="45.38877" lon="-1.13544">
        <ele>66</ele>
        <time>2025-04-26T10:54:49Z</time>
      </trkpt>
      <trkpt lat="45.38877" lon="-1.13538">
        <ele>66</ele>
        <time>2025-04-26T10:54:50Z</time>
      </trkpt>
      <trkpt lat="45.38877" lon="-1.13532">
        <ele>66</ele>
        <time>2025-04-26T10:54:51Z</time>
      </trkpt>
      <trkpt lat="45.38877" lon="-1.13526">
        <ele>65</ele>
        <time>2025-04-26T10:54:52Z</time>
      </trkpt>
      <trkpt lat="45.38877" lon="-1.1352">
        <ele>65</ele>
        <time>2025-04-26T10:54:53Z</time>
      </trkpt>
      <trkpt lat="45.38877" lon="-1.13514">
        <ele>65</ele>
        <time>2025-04-26T10:54:54Z</time>
      </trkpt>
      <trkpt lat="45.38877" lon="-1.13507">
        <ele>65</ele>
        <time>2025-04-26T10:54:55Z</time>
      </trkpt>
      <trkpt lat="45.38877" lon="-1.13501">
        <ele>65</ele>
        <time>2025-04-26T10:54:56Z</time>
      </trkpt>
      <trkpt lat="45.38877" lon="-1.13495">
        <ele>65</ele>
        <time>2025-04-26T10:54:57Z</time>
      </trkpt>
      <trkpt lat="45.38877" lon="-1.13488">
        <ele>65</ele>
        <time>2025-04-26T10:54:58Z</time>
      </trkpt>
      <trkpt lat="45.38877" lon="-1.13481">
        <ele>65</ele>
        <time>2025-04-26T10:54:59Z</time>
      </trkpt>
      <trkpt lat="45.38878" lon="-1.13474">
        <ele>65</ele>
        <time>2025-04-26T10:55:00Z</time>
      </trkpt>
      <trkpt lat="45.38878" lon="-1.13468">
        <ele>65</ele>
        <time>2025-04-26T10:55:01Z</time>
      </trkpt>
      <trkpt lat="45.38878" lon="-1.13462">
        <ele>65</ele>
        <time>2025-04-26T10:55:02Z</time>
      </trkpt>
      <trkpt lat="45.38878" lon="-1.13456">
        <ele>65</ele>
        <time>2025-04-26T10:55:03Z</time>
      </trkpt>
      <trkpt lat="45.38878" lon="-1.1345">
        <ele>65</ele>
        <time>2025-04-26T10:55:04Z</time>
      </trkpt>
      <trkpt lat="45.38878" lon="-1.13444">
        <ele>65</ele>
        <time>2025-04-26T10:55:05Z</time>
      </trkpt>
      <trkpt lat="45.38877" lon="-1.13438">
        <ele>64</ele>
        <time>2025-04-26T10:55:06Z</time>
      </trkpt>
      <trkpt lat="45.38878" lon="-1.13432">
        <ele>64</ele>
        <time>2025-04-26T10:55:07Z</time>
      </trkpt>
      <trkpt lat="45.38877" lon="-1.13425">
        <ele>64</ele>
        <time>2025-04-26T10:55:08Z</time>
      </trkpt>
      <trkpt lat="45.38877" lon="-1.13419">
        <ele>64</ele>
        <time>2025-04-26T10:55:09Z</time>
      </trkpt>
      <trkpt lat="45.38877" lon="-1.13413">
        <ele>64</ele>
        <time>2025-04-26T10:55:10Z</time>
      </trkpt>
      <trkpt lat="45.38877" lon="-1.13407">
        <ele>64</ele>
        <time>2025-04-26T10:55:11Z</time>
      </trkpt>
      <trkpt lat="45.38877" lon="-1.13401">
        <ele>64</ele>
        <time>2025-04-26T10:55:12Z</time>
      </trkpt>
      <trkpt lat="45.38877" lon="-1.13395">
        <ele>64</ele>
        <time>2025-04-26T10:55:13Z</time>
      </trkpt>
      <trkpt lat="45.38877" lon="-1.13388">
        <ele>64</ele>
        <time>2025-04-26T10:55:14Z</time>
      </trkpt>
      <trkpt lat="45.38877" lon="-1.13382">
        <ele>64</ele>
        <time>2025-04-26T10:55:15Z</time>
      </trkpt>
      <trkpt lat="45.38877" lon="-1.13376">
        <ele>64</ele>
        <time>2025-04-26T10:55:16Z</time>
      </trkpt>
      <trkpt lat="45.38877" lon="-1.13369">
        <ele>64</ele>
        <time>2025-04-26T10:55:17Z</time>
      </trkpt>
      <trkpt lat="45.38876" lon="-1.13363">
        <ele>64</ele>
        <time>2025-04-26T10:55:18Z</time>
      </trkpt>
      <trkpt lat="45.38876" lon="-1.13357">
        <ele>64</ele>
        <time>2025-04-26T10:55:19Z</time>
      </trkpt>
      <trkpt lat="45.38876" lon="-1.13351">
        <ele>64</ele>
        <time>2025-04-26T10:55:20Z</time>
      </trkpt>
      <trkpt lat="45.38876" lon="-1.13345">
        <ele>64</ele>
        <time>2025-04-26T10:55:21Z</time>
      </trkpt>
      <trkpt lat="45.38876" lon="-1.13339">
        <ele>63</ele>
        <time>2025-04-26T10:55:22Z</time>
      </trkpt>
      <trkpt lat="45.38876" lon="-1.13333">
        <ele>63</ele>
        <time>2025-04-26T10:55:23Z</time>
      </trkpt>
      <trkpt lat="45.38875" lon="-1.13326">
        <ele>62</ele>
        <time>2025-04-26T10:55:24Z</time>
      </trkpt>
      <trkpt lat="45.38875" lon="-1.1332">
        <ele>62</ele>
        <time>2025-04-26T10:55:25Z</time>
      </trkpt>
      <trkpt lat="45.38875" lon="-1.13313">
        <ele>62</ele>
        <time>2025-04-26T10:55:26Z</time>
      </trkpt>
      <trkpt lat="45.38875" lon="-1.13307">
        <ele>62</ele>
        <time>2025-04-26T10:55:27Z</time>
      </trkpt>
      <trkpt lat="45.38875" lon="-1.13301">
        <ele>62</ele>
        <time>2025-04-26T10:55:28Z</time>
      </trkpt>
      <trkpt lat="45.38874" lon="-1.13295">
        <ele>63</ele>
        <time>2025-04-26T10:55:29Z</time>
      </trkpt>
      <trkpt lat="45.38874" lon="-1.13289">
        <ele>63</ele>
        <time>2025-04-26T10:55:30Z</time>
      </trkpt>
      <trkpt lat="45.38874" lon="-1.13284">
        <ele>63</ele>
        <time>2025-04-26T10:55:31Z</time>
      </trkpt>
      <trkpt lat="45.38874" lon="-1.13278">
        <ele>63</ele>
        <time>2025-04-26T10:55:32Z</time>
      </trkpt>
      <trkpt lat="45.38874" lon="-1.13272">
        <ele>63</ele>
        <time>2025-04-26T10:55:33Z</time>
      </trkpt>
      <trkpt lat="45.38874" lon="-1.13265">
        <ele>63</ele>
        <time>2025-04-26T10:55:34Z</time>
      </trkpt>
      <trkpt lat="45.38874" lon="-1.13259">
        <ele>63</ele>
        <time>2025-04-26T10:55:35Z</time>
      </trkpt>
      <trkpt lat="45.38874" lon="-1.13254">
        <ele>63</ele>
        <time>2025-04-26T10:55:36Z</time>
      </trkpt>
      <trkpt lat="45.38874" lon="-1.13247">
        <ele>63</ele>
        <time>2025-04-26T10:55:37Z</time>
      </trkpt>
      <trkpt lat="45.38874" lon="-1.13241">
        <ele>63</ele>
        <time>2025-04-26T10:55:38Z</time>
      </trkpt>
      <trkpt lat="45.38874" lon="-1.13234">
        <ele>63</ele>
        <time>2025-04-26T10:55:39Z</time>
      </trkpt>
      <trkpt lat="45.38873" lon="-1.13229">
        <ele>63</ele>
        <time>2025-04-26T10:55:40Z</time>
      </trkpt>
      <trkpt lat="45.38874" lon="-1.13223">
        <ele>64</ele>
        <time>2025-04-26T10:55:41Z</time>
      </trkpt>
      <trkpt lat="45.38874" lon="-1.13218">
        <ele>64</ele>
        <time>2025-04-26T10:55:42Z</time>
      </trkpt>
      <trkpt lat="45.38874" lon="-1.13212">
        <ele>64</ele>
        <time>2025-04-26T10:55:43Z</time>
      </trkpt>
      <trkpt lat="45.38874" lon="-1.13207">
        <ele>64</ele>
        <time>2025-04-26T10:55:44Z</time>
      </trkpt>
      <trkpt lat="45.38874" lon="-1.13202">
        <ele>64</ele>
        <time>2025-04-26T10:55:45Z</time>
      </trkpt>
      <trkpt lat="45.38874" lon="-1.13196">
        <ele>64</ele>
        <time>2025-04-26T10:55:46Z</time>
      </trkpt>
      <trkpt lat="45.38874" lon="-1.13191">
        <ele>64</ele>
        <time>2025-04-26T10:55:47Z</time>
      </trkpt>
      <trkpt lat="45.38874" lon="-1.13186">
        <ele>65</ele>
        <time>2025-04-26T10:55:48Z</time>
      </trkpt>
      <trkpt lat="45.38874" lon="-1.1318">
        <ele>65</ele>
        <time>2025-04-26T10:55:49Z</time>
      </trkpt>
      <trkpt lat="45.38874" lon="-1.13176">
        <ele>65</ele>
        <time>2025-04-26T10:55:50Z</time>
      </trkpt>
      <trkpt lat="45.38874" lon="-1.13172">
        <ele>65</ele>
        <time>2025-04-26T10:55:51Z</time>
      </trkpt>
      <trkpt lat="45.38874" lon="-1.13167">
        <ele>65</ele>
        <time>2025-04-26T10:55:52Z</time>
      </trkpt>
      <trkpt lat="45.38875" lon="-1.13163">
        <ele>65</ele>
        <time>2025-04-26T10:55:53Z</time>
      </trkpt>
      <trkpt lat="45.38875" lon="-1.13158">
        <ele>65</ele>
        <time>2025-04-26T10:55:54Z</time>
      </trkpt>
      <trkpt lat="45.38878" lon="-1.13155">
        <ele>65</ele>
        <time>2025-04-26T10:55:55Z</time>
      </trkpt>
      <trkpt lat="45.38881" lon="-1.13153">
        <ele>64</ele>
        <time>2025-04-26T10:55:56Z</time>
      </trkpt>
      <trkpt lat="45.38884" lon="-1.13152">
        <ele>64</ele>
        <time>2025-04-26T10:55:57Z</time>
      </trkpt>
      <trkpt lat="45.38888" lon="-1.13153">
        <ele>64</ele>
        <time>2025-04-26T10:55:58Z</time>
      </trkpt>
      <trkpt lat="45.38891" lon="-1.13153">
        <ele>64</ele>
        <time>2025-04-26T10:55:59Z</time>
      </trkpt>
      <trkpt lat="45.38894" lon="-1.13153">
        <ele>65</ele>
        <time>2025-04-26T10:56:00Z</time>
      </trkpt>
      <trkpt lat="45.38898" lon="-1.13153">
        <ele>65</ele>
        <time>2025-04-26T10:56:01Z</time>
      </trkpt>
      <trkpt lat="45.38901" lon="-1.13153">
        <ele>65</ele>
        <time>2025-04-26T10:56:02Z</time>
      </trkpt>
      <trkpt lat="45.38904" lon="-1.13153">
        <ele>65</ele>
        <time>2025-04-26T10:56:03Z</time>
      </trkpt>
      <trkpt lat="45.38907" lon="-1.13153">
        <ele>66</ele>
        <time>2025-04-26T10:56:04Z</time>
      </trkpt>
      <trkpt lat="45.3891" lon="-1.13153">
        <ele>67</ele>
        <time>2025-04-26T10:56:05Z</time>
      </trkpt>
      <trkpt lat="45.38913" lon="-1.13153">
        <ele>67</ele>
        <time>2025-04-26T10:56:06Z</time>
      </trkpt>
      <trkpt lat="45.38916" lon="-1.13153">
        <ele>67</ele>
        <time>2025-04-26T10:56:07Z</time>
      </trkpt>
      <trkpt lat="45.38919" lon="-1.13152">
        <ele>67</ele>
        <time>2025-04-26T10:56:08Z</time>
      </trkpt>
      <trkpt lat="45.38922" lon="-1.13152">
        <ele>67</ele>
        <time>2025-04-26T10:56:09Z</time>
      </trkpt>
      <trkpt lat="45.38926" lon="-1.13151">
        <ele>67</ele>
        <time>2025-04-26T10:56:10Z</time>
      </trkpt>
      <trkpt lat="45.38929" lon="-1.13151">
        <ele>67</ele>
        <time>2025-04-26T10:56:11Z</time>
      </trkpt>
      <trkpt lat="45.38933" lon="-1.1315">
        <ele>67</ele>
        <time>2025-04-26T10:56:12Z</time>
      </trkpt>
      <trkpt lat="45.38936" lon="-1.1315">
        <ele>67</ele>
        <time>2025-04-26T10:56:13Z</time>
      </trkpt>
      <trkpt lat="45.3894" lon="-1.1315">
        <ele>67</ele>
        <time>2025-04-26T10:56:14Z</time>
      </trkpt>
      <trkpt lat="45.38944" lon="-1.1315">
        <ele>67</ele>
        <time>2025-04-26T10:56:15Z</time>
      </trkpt>
      <trkpt lat="45.38948" lon="-1.13149">
        <ele>67</ele>
        <time>2025-04-26T10:56:16Z</time>
      </trkpt>
      <trkpt lat="45.38952" lon="-1.13149">
        <ele>68</ele>
        <time>2025-04-26T10:56:17Z</time>
      </trkpt>
      <trkpt lat="45.38957" lon="-1.13148">
        <ele>68</ele>
        <time>2025-04-26T10:56:18Z</time>
      </trkpt>
      <trkpt lat="45.38961" lon="-1.13148">
        <ele>67</ele>
        <time>2025-04-26T10:56:19Z</time>
      </trkpt>
      <trkpt lat="45.38965" lon="-1.13148">
        <ele>68</ele>
        <time>2025-04-26T10:56:20Z</time>
      </trkpt>
      <trkpt lat="45.38969" lon="-1.13148">
        <ele>68</ele>
        <time>2025-04-26T10:56:21Z</time>
      </trkpt>
      <trkpt lat="45.38973" lon="-1.13147">
        <ele>67</ele>
        <time>2025-04-26T10:56:22Z</time>
      </trkpt>
      <trkpt lat="45.38977" lon="-1.13147">
        <ele>68</ele>
        <time>2025-04-26T10:56:23Z</time>
      </trkpt>
      <trkpt lat="45.38981" lon="-1.13146">
        <ele>68</ele>
        <time>2025-04-26T10:56:24Z</time>
      </trkpt>
      <trkpt lat="45.38985" lon="-1.13146">
        <ele>68</ele>
        <time>2025-04-26T10:56:25Z</time>
      </trkpt>
      <trkpt lat="45.38989" lon="-1.13146">
        <ele>68</ele>
        <time>2025-04-26T10:56:26Z</time>
      </trkpt>
      <trkpt lat="45.38993" lon="-1.13145">
        <ele>68</ele>
        <time>2025-04-26T10:56:27Z</time>
      </trkpt>
      <trkpt lat="45.38997" lon="-1.13145">
        <ele>68</ele>
        <time>2025-04-26T10:56:28Z</time>
      </trkpt>
      <trkpt lat="45.39001" lon="-1.13144">
        <ele>67</ele>
        <time>2025-04-26T10:56:29Z</time>
      </trkpt>
      <trkpt lat="45.39006" lon="-1.13144">
        <ele>67</ele>
        <time>2025-04-26T10:56:30Z</time>
      </trkpt>
      <trkpt lat="45.3901" lon="-1.13144">
        <ele>67</ele>
        <time>2025-04-26T10:56:31Z</time>
      </trkpt>
      <trkpt lat="45.39014" lon="-1.13144">
        <ele>66</ele>
        <time>2025-04-26T10:56:32Z</time>
      </trkpt>
      <trkpt lat="45.39018" lon="-1.13144">
        <ele>66</ele>
        <time>2025-04-26T10:56:33Z</time>
      </trkpt>
      <trkpt lat="45.39023" lon="-1.13144">
        <ele>66</ele>
        <time>2025-04-26T10:56:34Z</time>
      </trkpt>
      <trkpt lat="45.39027" lon="-1.13144">
        <ele>66</ele>
        <time>2025-04-26T10:56:35Z</time>
      </trkpt>
      <trkpt lat="45.39032" lon="-1.13142">
        <ele>66</ele>
        <time>2025-04-26T10:56:36Z</time>
      </trkpt>
      <trkpt lat="45.39035" lon="-1.13142">
        <ele>66</ele>
        <time>2025-04-26T10:56:37Z</time>
      </trkpt>
      <trkpt lat="45.39039" lon="-1.13141">
        <ele>66</ele>
        <time>2025-04-26T10:56:38Z</time>
      </trkpt>
      <trkpt lat="45.39042" lon="-1.1314">
        <ele>66</ele>
        <time>2025-04-26T10:56:39Z</time>
      </trkpt>
      <trkpt lat="45.39045" lon="-1.1314">
        <ele>67</ele>
        <time>2025-04-26T10:56:40Z</time>
      </trkpt>
      <trkpt lat="45.39046" lon="-1.1314">
        <ele>67</ele>
        <time>2025-04-26T10:56:41Z</time>
      </trkpt>
      <trkpt lat="45.39047" lon="-1.1314">
        <ele>67</ele>
        <time>2025-04-26T10:56:42Z</time>
      </trkpt>
      <trkpt lat="45.39047" lon="-1.1314">
        <ele>67</ele>
        <time>2025-04-26T10:56:43Z</time>
      </trkpt>
      <trkpt lat="45.39047" lon="-1.1314">
        <ele>68</ele>
        <time>2025-04-26T10:56:44Z</time>
      </trkpt>
      <trkpt lat="45.39047" lon="-1.1314">
        <ele>68</ele>
        <time>2025-04-26T10:56:45Z</time>
      </trkpt>
      <trkpt lat="45.39047" lon="-1.1314">
        <ele>68</ele>
        <time>2025-04-26T10:56:46Z</time>
      </trkpt>
      <trkpt lat="45.39047" lon="-1.1314">
        <ele>68</ele>
        <time>2025-04-26T10:56:47Z</time>
      </trkpt>
      <trkpt lat="45.39047" lon="-1.1314">
        <ele>68</ele>
        <time>2025-04-26T10:56:48Z</time>
      </trkpt>
      <trkpt lat="45.39047" lon="-1.1314">
        <ele>68</ele>
        <time>2025-04-26T10:56:49Z</time>
      </trkpt>
      <trkpt lat="45.39047" lon="-1.1314">
        <ele>68</ele>
        <time>2025-04-26T10:56:50Z</time>
      </trkpt>
      <trkpt lat="45.39047" lon="-1.1314">
        <ele>68</ele>
        <time>2025-04-26T10:56:51Z</time>
      </trkpt>
      <trkpt lat="45.39047" lon="-1.1314">
        <ele>68</ele>
        <time>2025-04-26T10:56:52Z</time>
      </trkpt>
      <trkpt lat="45.39047" lon="-1.1314">
        <ele>68</ele>
        <time>2025-04-26T10:56:53Z</time>
      </trkpt>
      <trkpt lat="45.39047" lon="-1.1314">
        <ele>68</ele>
        <time>2025-04-26T10:56:54Z</time>
      </trkpt>
      <trkpt lat="45.39047" lon="-1.1314">
        <ele>68</ele>
        <time>2025-04-26T10:56:55Z</time>
      </trkpt>
      <trkpt lat="45.39047" lon="-1.1314">
        <ele>68</ele>
        <time>2025-04-26T10:56:56Z</time>
      </trkpt>
      <trkpt lat="45.39047" lon="-1.1314">
        <ele>68</ele>
        <time>2025-04-26T10:56:57Z</time>
      </trkpt>
      <trkpt lat="45.39047" lon="-1.1314">
        <ele>68</ele>
        <time>2025-04-26T10:56:58Z</time>
      </trkpt>
      <trkpt lat="45.39047" lon="-1.1314">
        <ele>68</ele>
        <time>2025-04-26T10:56:59Z</time>
      </trkpt>
      <trkpt lat="45.39047" lon="-1.1314">
        <ele>68</ele>
        <time>2025-04-26T10:57:00Z</time>
      </trkpt>
      <trkpt lat="45.39047" lon="-1.1314">
        <ele>68</ele>
        <time>2025-04-26T10:57:01Z</time>
      </trkpt>
      <trkpt lat="45.39047" lon="-1.1314">
        <ele>68</ele>
        <time>2025-04-26T10:57:02Z</time>
      </trkpt>
      <trkpt lat="45.39047" lon="-1.1314">
        <ele>68</ele>
        <time>2025-04-26T10:57:03Z</time>
      </trkpt>
      <trkpt lat="45.39047" lon="-1.1314">
        <ele>68</ele>
        <time>2025-04-26T10:57:04Z</time>
      </trkpt>
      <trkpt lat="45.39047" lon="-1.1314">
        <ele>68</ele>
        <time>2025-04-26T10:57:05Z</time>
      </trkpt>
      <trkpt lat="45.39047" lon="-1.1314">
        <ele>68</ele>
        <time>2025-04-26T10:57:06Z</time>
      </trkpt>
      <trkpt lat="45.39047" lon="-1.1314">
        <ele>68</ele>
        <time>2025-04-26T10:57:07Z</time>
      </trkpt>
      <trkpt lat="45.39047" lon="-1.1314">
        <ele>68</ele>
        <time>2025-04-26T10:57:08Z</time>
      </trkpt>
      <trkpt lat="45.39047" lon="-1.1314">
        <ele>68</ele>
        <time>2025-04-26T10:57:09Z</time>
      </trkpt>
      <trkpt lat="45.39047" lon="-1.1314">
        <ele>68</ele>
        <time>2025-04-26T10:57:10Z</time>
      </trkpt>
      <trkpt lat="45.39047" lon="-1.1314">
        <ele>68</ele>
        <time>2025-04-26T10:57:11Z</time>
      </trkpt>
      <trkpt lat="45.39047" lon="-1.1314">
        <ele>68</ele>
        <time>2025-04-26T10:57:12Z</time>
      </trkpt>
      <trkpt lat="45.39047" lon="-1.1314">
        <ele>68</ele>
        <time>2025-04-26T10:57:13Z</time>
      </trkpt>
      <trkpt lat="45.39047" lon="-1.1314">
        <ele>68</ele>
        <time>2025-04-26T10:57:14Z</time>
      </trkpt>
      <trkpt lat="45.39047" lon="-1.1314">
        <ele>68</ele>
        <time>2025-04-26T10:57:15Z</time>
      </trkpt>
      <trkpt lat="45.39047" lon="-1.1314">
        <ele>68</ele>
        <time>2025-04-26T10:57:16Z</time>
      </trkpt>
      <trkpt lat="45.39047" lon="-1.1314">
        <ele>68</ele>
        <time>2025-04-26T10:57:17Z</time>
      </trkpt>
      <trkpt lat="45.39047" lon="-1.1314">
        <ele>68</ele>
        <time>2025-04-26T10:57:18Z</time>
      </trkpt>
      <trkpt lat="45.39047" lon="-1.1314">
        <ele>68</ele>
        <time>2025-04-26T10:57:19Z</time>
      </trkpt>
      <trkpt lat="45.39047" lon="-1.1314">
        <ele>68</ele>
        <time>2025-04-26T10:57:20Z</time>
      </trkpt>
      <trkpt lat="45.39047" lon="-1.1314">
        <ele>68</ele>
        <time>2025-04-26T10:57:21Z</time>
      </trkpt>
      <trkpt lat="45.39047" lon="-1.1314">
        <ele>68</ele>
        <time>2025-04-26T10:57:22Z</time>
      </trkpt>
      <trkpt lat="45.39047" lon="-1.1314">
        <ele>68</ele>
        <time>2025-04-26T10:57:23Z</time>
      </trkpt>
      <trkpt lat="45.39047" lon="-1.1314">
        <ele>68</ele>
        <time>2025-04-26T10:57:24Z</time>
      </trkpt>
      <trkpt lat="45.39047" lon="-1.1314">
        <ele>68</ele>
        <time>2025-04-26T10:57:25Z</time>
      </trkpt>
      <trkpt lat="45.39047" lon="-1.1314">
        <ele>68</ele>
        <time>2025-04-26T10:57:26Z</time>
      </trkpt>
      <trkpt lat="45.39047" lon="-1.1314">
        <ele>68</ele>
        <time>2025-04-26T10:57:27Z</time>
      </trkpt>
      <trkpt lat="45.39047" lon="-1.1314">
        <ele>68</ele>
        <time>2025-04-26T10:57:28Z</time>
      </trkpt>
      <trkpt lat="45.39047" lon="-1.1314">
        <ele>68</ele>
        <time>2025-04-26T10:57:29Z</time>
      </trkpt>
      <trkpt lat="45.39047" lon="-1.1314">
        <ele>68</ele>
        <time>2025-04-26T10:57:30Z</time>
      </trkpt>
      <trkpt lat="45.39048" lon="-1.13141">
        <ele>69</ele>
        <time>2025-04-26T10:57:31Z</time>
      </trkpt>
      <trkpt lat="45.3905" lon="-1.13141">
        <ele>70</ele>
        <time>2025-04-26T10:57:32Z</time>
      </trkpt>
      <trkpt lat="45.39053" lon="-1.13141">
        <ele>70</ele>
        <time>2025-04-26T10:57:33Z</time>
      </trkpt>
      <trkpt lat="45.39056" lon="-1.13141">
        <ele>71</ele>
        <time>2025-04-26T10:57:34Z</time>
      </trkpt>
      <trkpt lat="45.39059" lon="-1.13141">
        <ele>71</ele>
        <time>2025-04-26T10:57:35Z</time>
      </trkpt>
      <trkpt lat="45.39062" lon="-1.1314">
        <ele>71</ele>
        <time>2025-04-26T10:57:36Z</time>
      </trkpt>
      <trkpt lat="45.39065" lon="-1.13139">
        <ele>71</ele>
        <time>2025-04-26T10:57:37Z</time>
      </trkpt>
      <trkpt lat="45.39068" lon="-1.13139">
        <ele>72</ele>
        <time>2025-04-26T10:57:38Z</time>
      </trkpt>
      <trkpt lat="45.39072" lon="-1.13138">
        <ele>71</ele>
        <time>2025-04-26T10:57:39Z</time>
      </trkpt>
      <trkpt lat="45.39075" lon="-1.13137">
        <ele>72</ele>
        <time>2025-04-26T10:57:40Z</time>
      </trkpt>
      <trkpt lat="45.39079" lon="-1.13136">
        <ele>72</ele>
        <time>2025-04-26T10:57:41Z</time>
      </trkpt>
      <trkpt lat="45.39082" lon="-1.13136">
        <ele>72</ele>
        <time>2025-04-26T10:57:42Z</time>
      </trkpt>
      <trkpt lat="45.39086" lon="-1.13135">
        <ele>73</ele>
        <time>2025-04-26T10:57:43Z</time>
      </trkpt>
      <trkpt lat="45.39089" lon="-1.13135">
        <ele>73</ele>
        <time>2025-04-26T10:57:44Z</time>
      </trkpt>
      <trkpt lat="45.39093" lon="-1.13136">
        <ele>73</ele>
        <time>2025-04-26T10:57:45Z</time>
      </trkpt>
      <trkpt lat="45.39097" lon="-1.13135">
        <ele>73</ele>
        <time>2025-04-26T10:57:46Z</time>
      </trkpt>
      <trkpt lat="45.39101" lon="-1.13134">
        <ele>73</ele>
        <time>2025-04-26T10:57:47Z</time>
      </trkpt>
      <trkpt lat="45.39105" lon="-1.13134">
        <ele>73</ele>
        <time>2025-04-26T10:57:48Z</time>
      </trkpt>
      <trkpt lat="45.39109" lon="-1.13134">
        <ele>73</ele>
        <time>2025-04-26T10:57:49Z</time>
      </trkpt>
      <trkpt lat="45.39113" lon="-1.13133">
        <ele>72</ele>
        <time>2025-04-26T10:57:50Z</time>
      </trkpt>
      <trkpt lat="45.39117" lon="-1.13133">
        <ele>72</ele>
        <time>2025-04-26T10:57:51Z</time>
      </trkpt>
      <trkpt lat="45.3912" lon="-1.13133">
        <ele>71</ele>
        <time>2025-04-26T10:57:52Z</time>
      </trkpt>
      <trkpt lat="45.39124" lon="-1.13133">
        <ele>70</ele>
        <time>2025-04-26T10:57:53Z</time>
      </trkpt>
      <trkpt lat="45.39128" lon="-1.13133">
        <ele>69</ele>
        <time>2025-04-26T10:57:54Z</time>
      </trkpt>
      <trkpt lat="45.39132" lon="-1.13133">
        <ele>69</ele>
        <time>2025-04-26T10:57:55Z</time>
      </trkpt>
      <trkpt lat="45.39136" lon="-1.13133">
        <ele>68</ele>
        <time>2025-04-26T10:57:56Z</time>
      </trkpt>
      <trkpt lat="45.3914" lon="-1.13132">
        <ele>68</ele>
        <time>2025-04-26T10:57:57Z</time>
      </trkpt>
      <trkpt lat="45.39144" lon="-1.13132">
        <ele>68</ele>
        <time>2025-04-26T10:57:58Z</time>
      </trkpt>
      <trkpt lat="45.39148" lon="-1.13131">
        <ele>67</ele>
        <time>2025-04-26T10:57:59Z</time>
      </trkpt>
      <trkpt lat="45.39153" lon="-1.13132">
        <ele>66</ele>
        <time>2025-04-26T10:58:00Z</time>
      </trkpt>
      <trkpt lat="45.39157" lon="-1.13131">
        <ele>65</ele>
        <time>2025-04-26T10:58:01Z</time>
      </trkpt>
      <trkpt lat="45.39161" lon="-1.13131">
        <ele>65</ele>
        <time>2025-04-26T10:58:02Z</time>
      </trkpt>
      <trkpt lat="45.39166" lon="-1.13131">
        <ele>65</ele>
        <time>2025-04-26T10:58:03Z</time>
      </trkpt>
      <trkpt lat="45.3917" lon="-1.1313">
        <ele>65</ele>
        <time>2025-04-26T10:58:04Z</time>
      </trkpt>
      <trkpt lat="45.39174" lon="-1.1313">
        <ele>65</ele>
        <time>2025-04-26T10:58:05Z</time>
      </trkpt>
      <trkpt lat="45.39179" lon="-1.1313">
        <ele>64</ele>
        <time>2025-04-26T10:58:06Z</time>
      </trkpt>
      <trkpt lat="45.39183" lon="-1.13129">
        <ele>64</ele>
        <time>2025-04-26T10:58:07Z</time>
      </trkpt>
      <trkpt lat="45.39187" lon="-1.13129">
        <ele>64</ele>
        <time>2025-04-26T10:58:08Z</time>
      </trkpt>
      <trkpt lat="45.39192" lon="-1.13128">
        <ele>64</ele>
        <time>2025-04-26T10:58:09Z</time>
      </trkpt>
      <trkpt lat="45.39196" lon="-1.13128">
        <ele>64</ele>
        <time>2025-04-26T10:58:10Z</time>
      </trkpt>
      <trkpt lat="45.392" lon="-1.13128">
        <ele>64</ele>
        <time>2025-04-26T10:58:11Z</time>
      </trkpt>
      <trkpt lat="45.39205" lon="-1.13128">
        <ele>64</ele>
        <time>2025-04-26T10:58:12Z</time>
      </trkpt>
      <trkpt lat="45.39209" lon="-1.13127">
        <ele>64</ele>
        <time>2025-04-26T10:58:13Z</time>
      </trkpt>
      <trkpt lat="45.39214" lon="-1.13127">
        <ele>64</ele>
        <time>2025-04-26T10:58:14Z</time>
      </trkpt>
      <trkpt lat="45.39218" lon="-1.13127">
        <ele>65</ele>
        <time>2025-04-26T10:58:15Z</time>
      </trkpt>
      <trkpt lat="45.39223" lon="-1.13126">
        <ele>65</ele>
        <time>2025-04-26T10:58:16Z</time>
      </trkpt>
      <trkpt lat="45.39228" lon="-1.13126">
        <ele>65</ele>
        <time>2025-04-26T10:58:17Z</time>
      </trkpt>
      <trkpt lat="45.39232" lon="-1.13126">
        <ele>66</ele>
        <time>2025-04-26T10:58:18Z</time>
      </trkpt>
      <trkpt lat="45.39236" lon="-1.13126">
        <ele>65</ele>
        <time>2025-04-26T10:58:19Z</time>
      </trkpt>
      <trkpt lat="45.39241" lon="-1.13126">
        <ele>66</ele>
        <time>2025-04-26T10:58:20Z</time>
      </trkpt>
      <trkpt lat="45.39245" lon="-1.13126">
        <ele>66</ele>
        <time>2025-04-26T10:58:21Z</time>
      </trkpt>
      <trkpt lat="45.39249" lon="-1.13125">
        <ele>66</ele>
        <time>2025-04-26T10:58:22Z</time>
      </trkpt>
      <trkpt lat="45.39253" lon="-1.13125">
        <ele>66</ele>
        <time>2025-04-26T10:58:23Z</time>
      </trkpt>
      <trkpt lat="45.39257" lon="-1.13125">
        <ele>66</ele>
        <time>2025-04-26T10:58:24Z</time>
      </trkpt>
      <trkpt lat="45.39261" lon="-1.13125">
        <ele>67</ele>
        <time>2025-04-26T10:58:25Z</time>
      </trkpt>
      <trkpt lat="45.39266" lon="-1.13125">
        <ele>67</ele>
        <time>2025-04-26T10:58:26Z</time>
      </trkpt>
      <trkpt lat="45.3927" lon="-1.13125">
        <ele>68</ele>
        <time>2025-04-26T10:58:27Z</time>
      </trkpt>
      <trkpt lat="45.39275" lon="-1.13125">
        <ele>68</ele>
        <time>2025-04-26T10:58:28Z</time>
      </trkpt>
      <trkpt lat="45.39279" lon="-1.13125">
        <ele>68</ele>
        <time>2025-04-26T10:58:29Z</time>
      </trkpt>
      <trkpt lat="45.39284" lon="-1.13125">
        <ele>68</ele>
        <time>2025-04-26T10:58:30Z</time>
      </trkpt>
      <trkpt lat="45.39288" lon="-1.13124">
        <ele>68</ele>
        <time>2025-04-26T10:58:31Z</time>
      </trkpt>
      <trkpt lat="45.39292" lon="-1.13124">
        <ele>68</ele>
        <time>2025-04-26T10:58:32Z</time>
      </trkpt>
      <trkpt lat="45.39296" lon="-1.13124">
        <ele>68</ele>
        <time>2025-04-26T10:58:33Z</time>
      </trkpt>
      <trkpt lat="45.39301" lon="-1.13123">
        <ele>68</ele>
        <time>2025-04-26T10:58:34Z</time>
      </trkpt>
      <trkpt lat="45.39305" lon="-1.13123">
        <ele>68</ele>
        <time>2025-04-26T10:58:35Z</time>
      </trkpt>
      <trkpt lat="45.39309" lon="-1.13123">
        <ele>68</ele>
        <time>2025-04-26T10:58:36Z</time>
      </trkpt>
      <trkpt lat="45.39313" lon="-1.13122">
        <ele>68</ele>
        <time>2025-04-26T10:58:37Z</time>
      </trkpt>
      <trkpt lat="45.39318" lon="-1.13121">
        <ele>67</ele>
        <time>2025-04-26T10:58:38Z</time>
      </trkpt>
      <trkpt lat="45.39322" lon="-1.13121">
        <ele>67</ele>
        <time>2025-04-26T10:58:39Z</time>
      </trkpt>
      <trkpt lat="45.39326" lon="-1.13121">
        <ele>66</ele>
        <time>2025-04-26T10:58:40Z</time>
      </trkpt>
      <trkpt lat="45.3933" lon="-1.1312">
        <ele>65</ele>
        <time>2025-04-26T10:58:41Z</time>
      </trkpt>
      <trkpt lat="45.39334" lon="-1.1312">
        <ele>65</ele>
        <time>2025-04-26T10:58:42Z</time>
      </trkpt>
      <trkpt lat="45.39339" lon="-1.13119">
        <ele>65</ele>
        <time>2025-04-26T10:58:43Z</time>
      </trkpt>
      <trkpt lat="45.39343" lon="-1.13119">
        <ele>65</ele>
        <time>2025-04-26T10:58:44Z</time>
      </trkpt>
      <trkpt lat="45.39347" lon="-1.13118">
        <ele>65</ele>
        <time>2025-04-26T10:58:45Z</time>
      </trkpt>
      <trkpt lat="45.39352" lon="-1.13117">
        <ele>65</ele>
        <time>2025-04-26T10:58:46Z</time>
      </trkpt>
      <trkpt lat="45.39356" lon="-1.13116">
        <ele>65</ele>
        <time>2025-04-26T10:58:47Z</time>
      </trkpt>
      <trkpt lat="45.3936" lon="-1.13116">
        <ele>65</ele>
        <time>2025-04-26T10:58:48Z</time>
      </trkpt>
      <trkpt lat="45.39365" lon="-1.13116">
        <ele>65</ele>
        <time>2025-04-26T10:58:49Z</time>
      </trkpt>
      <trkpt lat="45.39369" lon="-1.13115">
        <ele>65</ele>
        <time>2025-04-26T10:58:50Z</time>
      </trkpt>
      <trkpt lat="45.39373" lon="-1.13115">
        <ele>65</ele>
        <time>2025-04-26T10:58:51Z</time>
      </trkpt>
      <trkpt lat="45.39378" lon="-1.13115">
        <ele>65</ele>
        <time>2025-04-26T10:58:52Z</time>
      </trkpt>
      <trkpt lat="45.39382" lon="-1.13114">
        <ele>65</ele>
        <time>2025-04-26T10:58:53Z</time>
      </trkpt>
      <trkpt lat="45.39386" lon="-1.13114">
        <ele>65</ele>
        <time>2025-04-26T10:58:54Z</time>
      </trkpt>
      <trkpt lat="45.3939" lon="-1.13114">
        <ele>65</ele>
        <time>2025-04-26T10:58:55Z</time>
      </trkpt>
      <trkpt lat="45.39394" lon="-1.13113">
        <ele>65</ele>
        <time>2025-04-26T10:58:56Z</time>
      </trkpt>
      <trkpt lat="45.39398" lon="-1.13113">
        <ele>65</ele>
        <time>2025-04-26T10:58:57Z</time>
      </trkpt>
      <trkpt lat="45.39402" lon="-1.13113">
        <ele>65</ele>
        <time>2025-04-26T10:58:58Z</time>
      </trkpt>
      <trkpt lat="45.39407" lon="-1.13113">
        <ele>64</ele>
        <time>2025-04-26T10:58:59Z</time>
      </trkpt>
      <trkpt lat="45.39411" lon="-1.13113">
        <ele>64</ele>
        <time>2025-04-26T10:59:00Z</time>
      </trkpt>
      <trkpt lat="45.39415" lon="-1.13113">
        <ele>63</ele>
        <time>2025-04-26T10:59:01Z</time>
      </trkpt>
      <trkpt lat="45.39419" lon="-1.13113">
        <ele>63</ele>
        <time>2025-04-26T10:59:02Z</time>
      </trkpt>
      <trkpt lat="45.39424" lon="-1.13112">
        <ele>63</ele>
        <time>2025-04-26T10:59:03Z</time>
      </trkpt>
      <trkpt lat="45.39428" lon="-1.13112">
        <ele>63</ele>
        <time>2025-04-26T10:59:04Z</time>
      </trkpt>
      <trkpt lat="45.39433" lon="-1.13112">
        <ele>62</ele>
        <time>2025-04-26T10:59:05Z</time>
      </trkpt>
      <trkpt lat="45.39437" lon="-1.13112">
        <ele>63</ele>
        <time>2025-04-26T10:59:06Z</time>
      </trkpt>
      <trkpt lat="45.39441" lon="-1.13112">
        <ele>63</ele>
        <time>2025-04-26T10:59:07Z</time>
      </trkpt>
      <trkpt lat="45.39446" lon="-1.13112">
        <ele>64</ele>
        <time>2025-04-26T10:59:08Z</time>
      </trkpt>
      <trkpt lat="45.39451" lon="-1.13111">
        <ele>64</ele>
        <time>2025-04-26T10:59:09Z</time>
      </trkpt>
      <trkpt lat="45.39455" lon="-1.1311">
        <ele>64</ele>
        <time>2025-04-26T10:59:10Z</time>
      </trkpt>
      <trkpt lat="45.3946" lon="-1.13109">
        <ele>64</ele>
        <time>2025-04-26T10:59:11Z</time>
      </trkpt>
      <trkpt lat="45.39464" lon="-1.13109">
        <ele>64</ele>
        <time>2025-04-26T10:59:12Z</time>
      </trkpt>
      <trkpt lat="45.39467" lon="-1.13109">
        <ele>64</ele>
        <time>2025-04-26T10:59:13Z</time>
      </trkpt>
      <trkpt lat="45.39472" lon="-1.13108">
        <ele>64</ele>
        <time>2025-04-26T10:59:14Z</time>
      </trkpt>
      <trkpt lat="45.39476" lon="-1.13108">
        <ele>63</ele>
        <time>2025-04-26T10:59:15Z</time>
      </trkpt>
      <trkpt lat="45.3948" lon="-1.13107">
        <ele>63</ele>
        <time>2025-04-26T10:59:16Z</time>
      </trkpt>
      <trkpt lat="45.39485" lon="-1.13107">
        <ele>64</ele>
        <time>2025-04-26T10:59:17Z</time>
      </trkpt>
      <trkpt lat="45.39489" lon="-1.13108">
        <ele>64</ele>
        <time>2025-04-26T10:59:18Z</time>
      </trkpt>
      <trkpt lat="45.39494" lon="-1.13107">
        <ele>64</ele>
        <time>2025-04-26T10:59:19Z</time>
      </trkpt>
      <trkpt lat="45.39498" lon="-1.13107">
        <ele>65</ele>
        <time>2025-04-26T10:59:20Z</time>
      </trkpt>
      <trkpt lat="45.39502" lon="-1.13106">
        <ele>65</ele>
        <time>2025-04-26T10:59:21Z</time>
      </trkpt>
      <trkpt lat="45.39507" lon="-1.13106">
        <ele>65</ele>
        <time>2025-04-26T10:59:22Z</time>
      </trkpt>
      <trkpt lat="45.39511" lon="-1.13106">
        <ele>65</ele>
        <time>2025-04-26T10:59:23Z</time>
      </trkpt>
      <trkpt lat="45.39515" lon="-1.13105">
        <ele>65</ele>
        <time>2025-04-26T10:59:24Z</time>
      </trkpt>
      <trkpt lat="45.39519" lon="-1.13104">
        <ele>64</ele>
        <time>2025-04-26T10:59:25Z</time>
      </trkpt>
      <trkpt lat="45.39523" lon="-1.13104">
        <ele>64</ele>
        <time>2025-04-26T10:59:26Z</time>
      </trkpt>
      <trkpt lat="45.39527" lon="-1.13104">
        <ele>64</ele>
        <time>2025-04-26T10:59:27Z</time>
      </trkpt>
      <trkpt lat="45.39532" lon="-1.13104">
        <ele>65</ele>
        <time>2025-04-26T10:59:28Z</time>
      </trkpt>
      <trkpt lat="45.39536" lon="-1.13104">
        <ele>65</ele>
        <time>2025-04-26T10:59:29Z</time>
      </trkpt>
      <trkpt lat="45.3954" lon="-1.13104">
        <ele>65</ele>
        <time>2025-04-26T10:59:30Z</time>
      </trkpt>
      <trkpt lat="45.39544" lon="-1.13103">
        <ele>65</ele>
        <time>2025-04-26T10:59:31Z</time>
      </trkpt>
      <trkpt lat="45.39548" lon="-1.13103">
        <ele>66</ele>
        <time>2025-04-26T10:59:32Z</time>
      </trkpt>
      <trkpt lat="45.39552" lon="-1.13102">
        <ele>66</ele>
        <time>2025-04-26T10:59:33Z</time>
      </trkpt>
      <trkpt lat="45.39557" lon="-1.13102">
        <ele>66</ele>
        <time>2025-04-26T10:59:34Z</time>
      </trkpt>
      <trkpt lat="45.39561" lon="-1.13101">
        <ele>66</ele>
        <time>2025-04-26T10:59:35Z</time>
      </trkpt>
      <trkpt lat="45.39565" lon="-1.131">
        <ele>66</ele>
        <time>2025-04-26T10:59:36Z</time>
      </trkpt>
      <trkpt lat="45.39569" lon="-1.131">
        <ele>66</ele>
        <time>2025-04-26T10:59:37Z</time>
      </trkpt>
      <trkpt lat="45.39574" lon="-1.13099">
        <ele>66</ele>
        <time>2025-04-26T10:59:38Z</time>
      </trkpt>
      <trkpt lat="45.39578" lon="-1.13099">
        <ele>67</ele>
        <time>2025-04-26T10:59:39Z</time>
      </trkpt>
      <trkpt lat="45.39582" lon="-1.13099">
        <ele>67</ele>
        <time>2025-04-26T10:59:40Z</time>
      </trkpt>
      <trkpt lat="45.39587" lon="-1.13099">
        <ele>66</ele>
        <time>2025-04-26T10:59:41Z</time>
      </trkpt>
      <trkpt lat="45.39591" lon="-1.13098">
        <ele>66</ele>
        <time>2025-04-26T10:59:42Z</time>
      </trkpt>
      <trkpt lat="45.39595" lon="-1.13098">
        <ele>66</ele>
        <time>2025-04-26T10:59:43Z</time>
      </trkpt>
      <trkpt lat="45.39599" lon="-1.13097">
        <ele>65</ele>
        <time>2025-04-26T10:59:44Z</time>
      </trkpt>
      <trkpt lat="45.39604" lon="-1.13097">
        <ele>65</ele>
        <time>2025-04-26T10:59:45Z</time>
      </trkpt>
      <trkpt lat="45.39608" lon="-1.13097">
        <ele>65</ele>
        <time>2025-04-26T10:59:46Z</time>
      </trkpt>
      <trkpt lat="45.39613" lon="-1.13096">
        <ele>65</ele>
        <time>2025-04-26T10:59:47Z</time>
      </trkpt>
      <trkpt lat="45.39617" lon="-1.13096">
        <ele>65</ele>
        <time>2025-04-26T10:59:48Z</time>
      </trkpt>
      <trkpt lat="45.39621" lon="-1.13096">
        <ele>65</ele>
        <time>2025-04-26T10:59:49Z</time>
      </trkpt>
      <trkpt lat="45.39626" lon="-1.13096">
        <ele>65</ele>
        <time>2025-04-26T10:59:50Z</time>
      </trkpt>
      <trkpt lat="45.3963" lon="-1.13095">
        <ele>65</ele>
        <time>2025-04-26T10:59:51Z</time>
      </trkpt>
      <trkpt lat="45.39634" lon="-1.13095">
        <ele>64</ele>
        <time>2025-04-26T10:59:52Z</time>
      </trkpt>
      <trkpt lat="45.39638" lon="-1.13094">
        <ele>63</ele>
        <time>2025-04-26T10:59:53Z</time>
      </trkpt>
      <trkpt lat="45.39642" lon="-1.13094">
        <ele>63</ele>
        <time>2025-04-26T10:59:54Z</time>
      </trkpt>
      <trkpt lat="45.39646" lon="-1.13093">
        <ele>63</ele>
        <time>2025-04-26T10:59:55Z</time>
      </trkpt>
      <trkpt lat="45.39651" lon="-1.13093">
        <ele>63</ele>
        <time>2025-04-26T10:59:56Z</time>
      </trkpt>
      <trkpt lat="45.39656" lon="-1.13093">
        <ele>63</ele>
        <time>2025-04-26T10:59:57Z</time>
      </trkpt>
      <trkpt lat="45.3966" lon="-1.13094">
        <ele>64</ele>
        <time>2025-04-26T10:59:58Z</time>
      </trkpt>
      <trkpt lat="45.39664" lon="-1.13094">
        <ele>64</ele>
        <time>2025-04-26T10:59:59Z</time>
      </trkpt>
      <trkpt lat="45.39669" lon="-1.13094">
        <ele>63</ele>
        <time>2025-04-26T11:00:00Z</time>
      </trkpt>
      <trkpt lat="45.39673" lon="-1.13093">
        <ele>64</ele>
        <time>2025-04-26T11:00:01Z</time>
      </trkpt>
      <trkpt lat="45.39677" lon="-1.13092">
        <ele>65</ele>
        <time>2025-04-26T11:00:02Z</time>
      </trkpt>
      <trkpt lat="45.39681" lon="-1.13092">
        <ele>65</ele>
        <time>2025-04-26T11:00:03Z</time>
      </trkpt>
      <trkpt lat="45.39685" lon="-1.13092">
        <ele>65</ele>
        <time>2025-04-26T11:00:04Z</time>
      </trkpt>
      <trkpt lat="45.39689" lon="-1.13092">
        <ele>66</ele>
        <time>2025-04-26T11:00:05Z</time>
      </trkpt>
      <trkpt lat="45.39693" lon="-1.13092">
        <ele>66</ele>
        <time>2025-04-26T11:00:06Z</time>
      </trkpt>
      <trkpt lat="45.39697" lon="-1.13091">
        <ele>66</ele>
        <time>2025-04-26T11:00:07Z</time>
      </trkpt>
      <trkpt lat="45.397" lon="-1.13091">
        <ele>67</ele>
        <time>2025-04-26T11:00:08Z</time>
      </trkpt>
      <trkpt lat="45.39704" lon="-1.13091">
        <ele>67</ele>
        <time>2025-04-26T11:00:09Z</time>
      </trkpt>
      <trkpt lat="45.39707" lon="-1.13091">
        <ele>67</ele>
        <time>2025-04-26T11:00:10Z</time>
      </trkpt>
      <trkpt lat="45.39711" lon="-1.13091">
        <ele>67</ele>
        <time>2025-04-26T11:00:11Z</time>
      </trkpt>
      <trkpt lat="45.39715" lon="-1.13091">
        <ele>68</ele>
        <time>2025-04-26T11:00:12Z</time>
      </trkpt>
      <trkpt lat="45.39718" lon="-1.13091">
        <ele>68</ele>
        <time>2025-04-26T11:00:13Z</time>
      </trkpt>
      <trkpt lat="45.39722" lon="-1.1309">
        <ele>68</ele>
        <time>2025-04-26T11:00:14Z</time>
      </trkpt>
      <trkpt lat="45.39725" lon="-1.1309">
        <ele>67</ele>
        <time>2025-04-26T11:00:15Z</time>
      </trkpt>
      <trkpt lat="45.39729" lon="-1.13089">
        <ele>68</ele>
        <time>2025-04-26T11:00:16Z</time>
      </trkpt>
      <trkpt lat="45.39732" lon="-1.13089">
        <ele>67</ele>
        <time>2025-04-26T11:00:17Z</time>
      </trkpt>
      <trkpt lat="45.39736" lon="-1.13089">
        <ele>67</ele>
        <time>2025-04-26T11:00:18Z</time>
      </trkpt>
      <trkpt lat="45.39739" lon="-1.13088">
        <ele>68</ele>
        <time>2025-04-26T11:00:19Z</time>
      </trkpt>
      <trkpt lat="45.39743" lon="-1.13088">
        <ele>67</ele>
        <time>2025-04-26T11:00:20Z</time>
      </trkpt>
      <trkpt lat="45.39748" lon="-1.13088">
        <ele>68</ele>
        <time>2025-04-26T11:00:21Z</time>
      </trkpt>
      <trkpt lat="45.39752" lon="-1.13088">
        <ele>68</ele>
        <time>2025-04-26T11:00:22Z</time>
      </trkpt>
      <trkpt lat="45.39756" lon="-1.13088">
        <ele>68</ele>
        <time>2025-04-26T11:00:23Z</time>
      </trkpt>
      <trkpt lat="45.3976" lon="-1.13087">
        <ele>69</ele>
        <time>2025-04-26T11:00:24Z</time>
      </trkpt>
      <trkpt lat="45.39764" lon="-1.13087">
        <ele>69</ele>
        <time>2025-04-26T11:00:25Z</time>
      </trkpt>
      <trkpt lat="45.39768" lon="-1.13086">
        <ele>69</ele>
        <time>2025-04-26T11:00:26Z</time>
      </trkpt>
      <trkpt lat="45.39772" lon="-1.13086">
        <ele>70</ele>
        <time>2025-04-26T11:00:27Z</time>
      </trkpt>
      <trkpt lat="45.39777" lon="-1.13086">
        <ele>70</ele>
        <time>2025-04-26T11:00:28Z</time>
      </trkpt>
      <trkpt lat="45.39781" lon="-1.13086">
        <ele>70</ele>
        <time>2025-04-26T11:00:29Z</time>
      </trkpt>
      <trkpt lat="45.39785" lon="-1.13085">
        <ele>70</ele>
        <time>2025-04-26T11:00:30Z</time>
      </trkpt>
      <trkpt lat="45.39789" lon="-1.13085">
        <ele>70</ele>
        <time>2025-04-26T11:00:31Z</time>
      </trkpt>
      <trkpt lat="45.39792" lon="-1.13085">
        <ele>70</ele>
        <time>2025-04-26T11:00:32Z</time>
      </trkpt>
      <trkpt lat="45.39796" lon="-1.13084">
        <ele>70</ele>
        <time>2025-04-26T11:00:33Z</time>
      </trkpt>
      <trkpt lat="45.398" lon="-1.13084">
        <ele>70</ele>
        <time>2025-04-26T11:00:34Z</time>
      </trkpt>
      <trkpt lat="45.39803" lon="-1.13083">
        <ele>70</ele>
        <time>2025-04-26T11:00:35Z</time>
      </trkpt>
      <trkpt lat="45.39807" lon="-1.13083">
        <ele>69</ele>
        <time>2025-04-26T11:00:36Z</time>
      </trkpt>
      <trkpt lat="45.39811" lon="-1.13083">
        <ele>69</ele>
        <time>2025-04-26T11:00:37Z</time>
      </trkpt>
      <trkpt lat="45.39814" lon="-1.13083">
        <ele>69</ele>
        <time>2025-04-26T11:00:38Z</time>
      </trkpt>
      <trkpt lat="45.39818" lon="-1.13083">
        <ele>69</ele>
        <time>2025-04-26T11:00:39Z</time>
      </trkpt>
      <trkpt lat="45.39822" lon="-1.13082">
        <ele>69</ele>
        <time>2025-04-26T11:00:40Z</time>
      </trkpt>
      <trkpt lat="45.39825" lon="-1.13082">
        <ele>69</ele>
        <time>2025-04-26T11:00:41Z</time>
      </trkpt>
      <trkpt lat="45.39829" lon="-1.13082">
        <ele>69</ele>
        <time>2025-04-26T11:00:42Z</time>
      </trkpt>
      <trkpt lat="45.39832" lon="-1.13081">
        <ele>68</ele>
        <time>2025-04-26T11:00:43Z</time>
      </trkpt>
      <trkpt lat="45.39836" lon="-1.13081">
        <ele>68</ele>
        <time>2025-04-26T11:00:44Z</time>
      </trkpt>
      <trkpt lat="45.39839" lon="-1.1308">
        <ele>67</ele>
        <time>2025-04-26T11:00:45Z</time>
      </trkpt>
      <trkpt lat="45.39843" lon="-1.1308">
        <ele>67</ele>
        <time>2025-04-26T11:00:46Z</time>
      </trkpt>
      <trkpt lat="45.39846" lon="-1.1308">
        <ele>67</ele>
        <time>2025-04-26T11:00:47Z</time>
      </trkpt>
      <trkpt lat="45.3985" lon="-1.13079">
        <ele>67</ele>
        <time>2025-04-26T11:00:48Z</time>
      </trkpt>
      <trkpt lat="45.39854" lon="-1.13079">
        <ele>67</ele>
        <time>2025-04-26T11:00:49Z</time>
      </trkpt>
      <trkpt lat="45.39858" lon="-1.13078">
        <ele>67</ele>
        <time>2025-04-26T11:00:50Z</time>
      </trkpt>
      <trkpt lat="45.39861" lon="-1.13077">
        <ele>67</ele>
        <time>2025-04-26T11:00:51Z</time>
      </trkpt>
      <trkpt lat="45.39865" lon="-1.13077">
        <ele>67</ele>
        <time>2025-04-26T11:00:52Z</time>
      </trkpt>
      <trkpt lat="45.39869" lon="-1.13077">
        <ele>67</ele>
        <time>2025-04-26T11:00:53Z</time>
      </trkpt>
      <trkpt lat="45.39873" lon="-1.13077">
        <ele>67</ele>
        <time>2025-04-26T11:00:54Z</time>
      </trkpt>
      <trkpt lat="45.39877" lon="-1.13077">
        <ele>66</ele>
        <time>2025-04-26T11:00:55Z</time>
      </trkpt>
      <trkpt lat="45.39881" lon="-1.13077">
        <ele>67</ele>
        <time>2025-04-26T11:00:56Z</time>
      </trkpt>
      <trkpt lat="45.39885" lon="-1.13076">
        <ele>66</ele>
        <time>2025-04-26T11:00:57Z</time>
      </trkpt>
      <trkpt lat="45.39889" lon="-1.13076">
        <ele>66</ele>
        <time>2025-04-26T11:00:58Z</time>
      </trkpt>
      <trkpt lat="45.39893" lon="-1.13076">
        <ele>66</ele>
        <time>2025-04-26T11:00:59Z</time>
      </trkpt>
      <trkpt lat="45.39896" lon="-1.13075">
        <ele>66</ele>
        <time>2025-04-26T11:01:00Z</time>
      </trkpt>
      <trkpt lat="45.399" lon="-1.13075">
        <ele>66</ele>
        <time>2025-04-26T11:01:01Z</time>
      </trkpt>
      <trkpt lat="45.39904" lon="-1.13075">
        <ele>66</ele>
        <time>2025-04-26T11:01:02Z</time>
      </trkpt>
      <trkpt lat="45.39908" lon="-1.13074">
        <ele>67</ele>
        <time>2025-04-26T11:01:03Z</time>
      </trkpt>
      <trkpt lat="45.39912" lon="-1.13074">
        <ele>67</ele>
        <time>2025-04-26T11:01:04Z</time>
      </trkpt>
      <trkpt lat="45.39916" lon="-1.13074">
        <ele>67</ele>
        <time>2025-04-26T11:01:05Z</time>
      </trkpt>
      <trkpt lat="45.3992" lon="-1.13073">
        <ele>67</ele>
        <time>2025-04-26T11:01:06Z</time>
      </trkpt>
      <trkpt lat="45.39925" lon="-1.13073">
        <ele>68</ele>
        <time>2025-04-26T11:01:07Z</time>
      </trkpt>
      <trkpt lat="45.39929" lon="-1.13073">
        <ele>68</ele>
        <time>2025-04-26T11:01:08Z</time>
      </trkpt>
      <trkpt lat="45.39933" lon="-1.13072">
        <ele>68</ele>
        <time>2025-04-26T11:01:09Z</time>
      </trkpt>
      <trkpt lat="45.39937" lon="-1.13072">
        <ele>68</ele>
        <time>2025-04-26T11:01:10Z</time>
      </trkpt>
      <trkpt lat="45.39941" lon="-1.13071">
        <ele>68</ele>
        <time>2025-04-26T11:01:11Z</time>
      </trkpt>
      <trkpt lat="45.39945" lon="-1.13071">
        <ele>68</ele>
        <time>2025-04-26T11:01:12Z</time>
      </trkpt>
      <trkpt lat="45.39949" lon="-1.1307">
        <ele>67</ele>
        <time>2025-04-26T11:01:13Z</time>
      </trkpt>
      <trkpt lat="45.39953" lon="-1.1307">
        <ele>67</ele>
        <time>2025-04-26T11:01:14Z</time>
      </trkpt>
      <trkpt lat="45.39957" lon="-1.13069">
        <ele>67</ele>
        <time>2025-04-26T11:01:15Z</time>
      </trkpt>
      <trkpt lat="45.39961" lon="-1.13069">
        <ele>67</ele>
        <time>2025-04-26T11:01:16Z</time>
      </trkpt>
      <trkpt lat="45.39965" lon="-1.13068">
        <ele>67</ele>
        <time>2025-04-26T11:01:17Z</time>
      </trkpt>
      <trkpt lat="45.3997" lon="-1.13068">
        <ele>67</ele>
        <time>2025-04-26T11:01:18Z</time>
      </trkpt>
      <trkpt lat="45.39974" lon="-1.13068">
        <ele>67</ele>
        <time>2025-04-26T11:01:19Z</time>
      </trkpt>
      <trkpt lat="45.39978" lon="-1.13068">
        <ele>67</ele>
        <time>2025-04-26T11:01:20Z</time>
      </trkpt>
      <trkpt lat="45.39982" lon="-1.13067">
        <ele>67</ele>
        <time>2025-04-26T11:01:21Z</time>
      </trkpt>
      <trkpt lat="45.39986" lon="-1.13067">
        <ele>67</ele>
        <time>2025-04-26T11:01:22Z</time>
      </trkpt>
      <trkpt lat="45.3999" lon="-1.13066">
        <ele>67</ele>
        <time>2025-04-26T11:01:23Z</time>
      </trkpt>
      <trkpt lat="45.39995" lon="-1.13067">
        <ele>66</ele>
        <time>2025-04-26T11:01:24Z</time>
      </trkpt>
      <trkpt lat="45.39999" lon="-1.13067">
        <ele>66</ele>
        <time>2025-04-26T11:01:25Z</time>
      </trkpt>
      <trkpt lat="45.40004" lon="-1.13067">
        <ele>67</ele>
        <time>2025-04-26T11:01:26Z</time>
      </trkpt>
      <trkpt lat="45.40009" lon="-1.13067">
        <ele>68</ele>
        <time>2025-04-26T11:01:27Z</time>
      </trkpt>
      <trkpt lat="45.40013" lon="-1.13066">
        <ele>68</ele>
        <time>2025-04-26T11:01:28Z</time>
      </trkpt>
      <trkpt lat="45.40018" lon="-1.13066">
        <ele>68</ele>
        <time>2025-04-26T11:01:29Z</time>
      </trkpt>
      <trkpt lat="45.40022" lon="-1.13065">
        <ele>68</ele>
        <time>2025-04-26T11:01:30Z</time>
      </trkpt>
      <trkpt lat="45.40027" lon="-1.13065">
        <ele>68</ele>
        <time>2025-04-26T11:01:31Z</time>
      </trkpt>
      <trkpt lat="45.40031" lon="-1.13065">
        <ele>69</ele>
        <time>2025-04-26T11:01:32Z</time>
      </trkpt>
      <trkpt lat="45.40036" lon="-1.13065">
        <ele>69</ele>
        <time>2025-04-26T11:01:33Z</time>
      </trkpt>
      <trkpt lat="45.4004" lon="-1.13065">
        <ele>69</ele>
        <time>2025-04-26T11:01:34Z</time>
      </trkpt>
      <trkpt lat="45.40044" lon="-1.13065">
        <ele>69</ele>
        <time>2025-04-26T11:01:35Z</time>
      </trkpt>
      <trkpt lat="45.40049" lon="-1.13065">
        <ele>69</ele>
        <time>2025-04-26T11:01:36Z</time>
      </trkpt>
      <trkpt lat="45.40053" lon="-1.13064">
        <ele>69</ele>
        <time>2025-04-26T11:01:37Z</time>
      </trkpt>
      <trkpt lat="45.40058" lon="-1.13064">
        <ele>69</ele>
        <time>2025-04-26T11:01:38Z</time>
      </trkpt>
      <trkpt lat="45.40062" lon="-1.13063">
        <ele>69</ele>
        <time>2025-04-26T11:01:39Z</time>
      </trkpt>
      <trkpt lat="45.40067" lon="-1.13063">
        <ele>69</ele>
        <time>2025-04-26T11:01:40Z</time>
      </trkpt>
      <trkpt lat="45.40071" lon="-1.13063">
        <ele>69</ele>
        <time>2025-04-26T11:01:41Z</time>
      </trkpt>
      <trkpt lat="45.40076" lon="-1.13062">
        <ele>69</ele>
        <time>2025-04-26T11:01:42Z</time>
      </trkpt>
      <trkpt lat="45.4008" lon="-1.13062">
        <ele>69</ele>
        <time>2025-04-26T11:01:43Z</time>
      </trkpt>
      <trkpt lat="45.40084" lon="-1.13061">
        <ele>69</ele>
        <time>2025-04-26T11:01:44Z</time>
      </trkpt>
      <trkpt lat="45.40088" lon="-1.13061">
        <ele>69</ele>
        <time>2025-04-26T11:01:45Z</time>
      </trkpt>
      <trkpt lat="45.40093" lon="-1.1306">
        <ele>69</ele>
        <time>2025-04-26T11:01:46Z</time>
      </trkpt>
      <trkpt lat="45.40097" lon="-1.1306">
        <ele>70</ele>
        <time>2025-04-26T11:01:47Z</time>
      </trkpt>
      <trkpt lat="45.40101" lon="-1.1306">
        <ele>69</ele>
        <time>2025-04-26T11:01:48Z</time>
      </trkpt>
      <trkpt lat="45.40106" lon="-1.13059">
        <ele>69</ele>
        <time>2025-04-26T11:01:49Z</time>
      </trkpt>
      <trkpt lat="45.4011" lon="-1.13059">
        <ele>69</ele>
        <time>2025-04-26T11:01:50Z</time>
      </trkpt>
      <trkpt lat="45.40115" lon="-1.13058">
        <ele>68</ele>
        <time>2025-04-26T11:01:51Z</time>
      </trkpt>
      <trkpt lat="45.40119" lon="-1.13058">
        <ele>68</ele>
        <time>2025-04-26T11:01:52Z</time>
      </trkpt>
      <trkpt lat="45.40123" lon="-1.13058">
        <ele>67</ele>
        <time>2025-04-26T11:01:53Z</time>
      </trkpt>
      <trkpt lat="45.40127" lon="-1.13057">
        <ele>67</ele>
        <time>2025-04-26T11:01:54Z</time>
      </trkpt>
      <trkpt lat="45.40131" lon="-1.13056">
        <ele>66</ele>
        <time>2025-04-26T11:01:55Z</time>
      </trkpt>
      <trkpt lat="45.40136" lon="-1.13056">
        <ele>66</ele>
        <time>2025-04-26T11:01:56Z</time>
      </trkpt>
      <trkpt lat="45.4014" lon="-1.13056">
        <ele>66</ele>
        <time>2025-04-26T11:01:57Z</time>
      </trkpt>
      <trkpt lat="45.40144" lon="-1.13056">
        <ele>66</ele>
        <time>2025-04-26T11:01:58Z</time>
      </trkpt>
      <trkpt lat="45.40148" lon="-1.13056">
        <ele>66</ele>
        <time>2025-04-26T11:01:59Z</time>
      </trkpt>
      <trkpt lat="45.40152" lon="-1.13055">
        <ele>65</ele>
        <time>2025-04-26T11:02:00Z</time>
      </trkpt>
      <trkpt lat="45.40157" lon="-1.13055">
        <ele>66</ele>
        <time>2025-04-26T11:02:01Z</time>
      </trkpt>
      <trkpt lat="45.40161" lon="-1.13054">
        <ele>66</ele>
        <time>2025-04-26T11:02:02Z</time>
      </trkpt>
      <trkpt lat="45.40166" lon="-1.13054">
        <ele>66</ele>
        <time>2025-04-26T11:02:03Z</time>
      </trkpt>
      <trkpt lat="45.4017" lon="-1.13053">
        <ele>66</ele>
        <time>2025-04-26T11:02:04Z</time>
      </trkpt>
      <trkpt lat="45.40175" lon="-1.13053">
        <ele>67</ele>
        <time>2025-04-26T11:02:05Z</time>
      </trkpt>
      <trkpt lat="45.4018" lon="-1.13053">
        <ele>67</ele>
        <time>2025-04-26T11:02:06Z</time>
      </trkpt>
      <trkpt lat="45.40184" lon="-1.13053">
        <ele>67</ele>
        <time>2025-04-26T11:02:07Z</time>
      </trkpt>
      <trkpt lat="45.40189" lon="-1.13053">
        <ele>67</ele>
        <time>2025-04-26T11:02:08Z</time>
      </trkpt>
      <trkpt lat="45.40194" lon="-1.13053">
        <ele>67</ele>
        <time>2025-04-26T11:02:09Z</time>
      </trkpt>
      <trkpt lat="45.40198" lon="-1.13052">
        <ele>67</ele>
        <time>2025-04-26T11:02:10Z</time>
      </trkpt>
      <trkpt lat="45.40202" lon="-1.13052">
        <ele>67</ele>
        <time>2025-04-26T11:02:11Z</time>
      </trkpt>
      <trkpt lat="45.40207" lon="-1.13051">
        <ele>68</ele>
        <time>2025-04-26T11:02:12Z</time>
      </trkpt>
      <trkpt lat="45.40211" lon="-1.13051">
        <ele>68</ele>
        <time>2025-04-26T11:02:13Z</time>
      </trkpt>
      <trkpt lat="45.40216" lon="-1.13051">
        <ele>68</ele>
        <time>2025-04-26T11:02:14Z</time>
      </trkpt>
      <trkpt lat="45.40221" lon="-1.1305">
        <ele>69</ele>
        <time>2025-04-26T11:02:15Z</time>
      </trkpt>
      <trkpt lat="45.40225" lon="-1.1305">
        <ele>68</ele>
        <time>2025-04-26T11:02:16Z</time>
      </trkpt>
      <trkpt lat="45.40229" lon="-1.13049">
        <ele>68</ele>
        <time>2025-04-26T11:02:17Z</time>
      </trkpt>
      <trkpt lat="45.40234" lon="-1.13049">
        <ele>68</ele>
        <time>2025-04-26T11:02:18Z</time>
      </trkpt>
      <trkpt lat="45.40238" lon="-1.13049">
        <ele>69</ele>
        <time>2025-04-26T11:02:19Z</time>
      </trkpt>
      <trkpt lat="45.40243" lon="-1.13048">
        <ele>69</ele>
        <time>2025-04-26T11:02:20Z</time>
      </trkpt>
      <trkpt lat="45.40247" lon="-1.13048">
        <ele>69</ele>
        <time>2025-04-26T11:02:21Z</time>
      </trkpt>
      <trkpt lat="45.40252" lon="-1.13047">
        <ele>69</ele>
        <time>2025-04-26T11:02:22Z</time>
      </trkpt>
      <trkpt lat="45.40256" lon="-1.13047">
        <ele>70</ele>
        <time>2025-04-26T11:02:23Z</time>
      </trkpt>
      <trkpt lat="45.4026" lon="-1.13047">
        <ele>70</ele>
        <time>2025-04-26T11:02:24Z</time>
      </trkpt>
      <trkpt lat="45.40265" lon="-1.13047">
        <ele>70</ele>
        <time>2025-04-26T11:02:25Z</time>
      </trkpt>
      <trkpt lat="45.40269" lon="-1.13047">
        <ele>71</ele>
        <time>2025-04-26T11:02:26Z</time>
      </trkpt>
      <trkpt lat="45.40273" lon="-1.13046">
        <ele>70</ele>
        <time>2025-04-26T11:02:27Z</time>
      </trkpt>
      <trkpt lat="45.40277" lon="-1.13046">
        <ele>70</ele>
        <time>2025-04-26T11:02:28Z</time>
      </trkpt>
      <trkpt lat="45.40281" lon="-1.13045">
        <ele>70</ele>
        <time>2025-04-26T11:02:29Z</time>
      </trkpt>
      <trkpt lat="45.40285" lon="-1.13045">
        <ele>70</ele>
        <time>2025-04-26T11:02:30Z</time>
      </trkpt>
      <trkpt lat="45.4029" lon="-1.13045">
        <ele>70</ele>
        <time>2025-04-26T11:02:31Z</time>
      </trkpt>
      <trkpt lat="45.40294" lon="-1.13045">
        <ele>70</ele>
        <time>2025-04-26T11:02:32Z</time>
      </trkpt>
      <trkpt lat="45.40298" lon="-1.13045">
        <ele>70</ele>
        <time>2025-04-26T11:02:33Z</time>
      </trkpt>
      <trkpt lat="45.40302" lon="-1.13045">
        <ele>70</ele>
        <time>2025-04-26T11:02:34Z</time>
      </trkpt>
      <trkpt lat="45.40306" lon="-1.13044">
        <ele>70</ele>
        <time>2025-04-26T11:02:35Z</time>
      </trkpt>
      <trkpt lat="45.40311" lon="-1.13044">
        <ele>70</ele>
        <time>2025-04-26T11:02:36Z</time>
      </trkpt>
      <trkpt lat="45.40315" lon="-1.13044">
        <ele>69</ele>
        <time>2025-04-26T11:02:37Z</time>
      </trkpt>
      <trkpt lat="45.4032" lon="-1.13044">
        <ele>69</ele>
        <time>2025-04-26T11:02:38Z</time>
      </trkpt>
      <trkpt lat="45.40324" lon="-1.13044">
        <ele>69</ele>
        <time>2025-04-26T11:02:39Z</time>
      </trkpt>
      <trkpt lat="45.40329" lon="-1.13043">
        <ele>69</ele>
        <time>2025-04-26T11:02:40Z</time>
      </trkpt>
      <trkpt lat="45.40333" lon="-1.13042">
        <ele>69</ele>
        <time>2025-04-26T11:02:41Z</time>
      </trkpt>
      <trkpt lat="45.40338" lon="-1.13042">
        <ele>69</ele>
        <time>2025-04-26T11:02:42Z</time>
      </trkpt>
      <trkpt lat="45.40342" lon="-1.13041">
        <ele>69</ele>
        <time>2025-04-26T11:02:43Z</time>
      </trkpt>
      <trkpt lat="45.40347" lon="-1.13041">
        <ele>69</ele>
        <time>2025-04-26T11:02:44Z</time>
      </trkpt>
      <trkpt lat="45.40351" lon="-1.13041">
        <ele>68</ele>
        <time>2025-04-26T11:02:45Z</time>
      </trkpt>
      <trkpt lat="45.40356" lon="-1.1304">
        <ele>68</ele>
        <time>2025-04-26T11:02:46Z</time>
      </trkpt>
      <trkpt lat="45.4036" lon="-1.1304">
        <ele>68</ele>
        <time>2025-04-26T11:02:47Z</time>
      </trkpt>
      <trkpt lat="45.40365" lon="-1.1304">
        <ele>68</ele>
        <time>2025-04-26T11:02:48Z</time>
      </trkpt>
      <trkpt lat="45.4037" lon="-1.1304">
        <ele>68</ele>
        <time>2025-04-26T11:02:49Z</time>
      </trkpt>
      <trkpt lat="45.40375" lon="-1.13039">
        <ele>68</ele>
        <time>2025-04-26T11:02:50Z</time>
      </trkpt>
      <trkpt lat="45.4038" lon="-1.13039">
        <ele>68</ele>
        <time>2025-04-26T11:02:51Z</time>
      </trkpt>
      <trkpt lat="45.40384" lon="-1.13039">
        <ele>68</ele>
        <time>2025-04-26T11:02:52Z</time>
      </trkpt>
      <trkpt lat="45.40389" lon="-1.13038">
        <ele>68</ele>
        <time>2025-04-26T11:02:53Z</time>
      </trkpt>
      <trkpt lat="45.40393" lon="-1.13038">
        <ele>67</ele>
        <time>2025-04-26T11:02:54Z</time>
      </trkpt>
      <trkpt lat="45.40397" lon="-1.13038">
        <ele>67</ele>
        <time>2025-04-26T11:02:55Z</time>
      </trkpt>
      <trkpt lat="45.40401" lon="-1.13037">
        <ele>67</ele>
        <time>2025-04-26T11:02:56Z</time>
      </trkpt>
      <trkpt lat="45.40406" lon="-1.13036">
        <ele>66</ele>
        <time>2025-04-26T11:02:57Z</time>
      </trkpt>
      <trkpt lat="45.4041" lon="-1.13036">
        <ele>67</ele>
        <time>2025-04-26T11:02:58Z</time>
      </trkpt>
      <trkpt lat="45.40415" lon="-1.13036">
        <ele>67</ele>
        <time>2025-04-26T11:02:59Z</time>
      </trkpt>
      <trkpt lat="45.40419" lon="-1.13035">
        <ele>66</ele>
        <time>2025-04-26T11:03:00Z</time>
      </trkpt>
      <trkpt lat="45.40424" lon="-1.13035">
        <ele>66</ele>
        <time>2025-04-26T11:03:01Z</time>
      </trkpt>
      <trkpt lat="45.40429" lon="-1.13035">
        <ele>66</ele>
        <time>2025-04-26T11:03:02Z</time>
      </trkpt>
      <trkpt lat="45.40434" lon="-1.13034">
        <ele>66</ele>
        <time>2025-04-26T11:03:03Z</time>
      </trkpt>
      <trkpt lat="45.40438" lon="-1.13034">
        <ele>66</ele>
        <time>2025-04-26T11:03:04Z</time>
      </trkpt>
      <trkpt lat="45.40443" lon="-1.13033">
        <ele>66</ele>
        <time>2025-04-26T11:03:05Z</time>
      </trkpt>
      <trkpt lat="45.40447" lon="-1.13033">
        <ele>66</ele>
        <time>2025-04-26T11:03:06Z</time>
      </trkpt>
      <trkpt lat="45.40451" lon="-1.13033">
        <ele>67</ele>
        <time>2025-04-26T11:03:07Z</time>
      </trkpt>
      <trkpt lat="45.40455" lon="-1.13032">
        <ele>67</ele>
        <time>2025-04-26T11:03:08Z</time>
      </trkpt>
      <trkpt lat="45.40459" lon="-1.13032">
        <ele>67</ele>
        <time>2025-04-26T11:03:09Z</time>
      </trkpt>
      <trkpt lat="45.40463" lon="-1.13032">
        <ele>67</ele>
        <time>2025-04-26T11:03:10Z</time>
      </trkpt>
      <trkpt lat="45.40468" lon="-1.13032">
        <ele>67</ele>
        <time>2025-04-26T11:03:11Z</time>
      </trkpt>
      <trkpt lat="45.40472" lon="-1.13032">
        <ele>68</ele>
        <time>2025-04-26T11:03:12Z</time>
      </trkpt>
      <trkpt lat="45.40477" lon="-1.13031">
        <ele>68</ele>
        <time>2025-04-26T11:03:13Z</time>
      </trkpt>
      <trkpt lat="45.40481" lon="-1.13031">
        <ele>68</ele>
        <time>2025-04-26T11:03:14Z</time>
      </trkpt>
      <trkpt lat="45.40485" lon="-1.1303">
        <ele>68</ele>
        <time>2025-04-26T11:03:15Z</time>
      </trkpt>
      <trkpt lat="45.4049" lon="-1.13029">
        <ele>67</ele>
        <time>2025-04-26T11:03:16Z</time>
      </trkpt>
      <trkpt lat="45.40494" lon="-1.13029">
        <ele>66</ele>
        <time>2025-04-26T11:03:17Z</time>
      </trkpt>
      <trkpt lat="45.40499" lon="-1.13028">
        <ele>66</ele>
        <time>2025-04-26T11:03:18Z</time>
      </trkpt>
      <trkpt lat="45.40504" lon="-1.13028">
        <ele>66</ele>
        <time>2025-04-26T11:03:19Z</time>
      </trkpt>
      <trkpt lat="45.40509" lon="-1.13028">
        <ele>65</ele>
        <time>2025-04-26T11:03:20Z</time>
      </trkpt>
      <trkpt lat="45.40513" lon="-1.13028">
        <ele>65</ele>
        <time>2025-04-26T11:03:21Z</time>
      </trkpt>
      <trkpt lat="45.40518" lon="-1.13027">
        <ele>65</ele>
        <time>2025-04-26T11:03:22Z</time>
      </trkpt>
      <trkpt lat="45.40523" lon="-1.13027">
        <ele>65</ele>
        <time>2025-04-26T11:03:23Z</time>
      </trkpt>
      <trkpt lat="45.40528" lon="-1.13027">
        <ele>65</ele>
        <time>2025-04-26T11:03:24Z</time>
      </trkpt>
      <trkpt lat="45.40532" lon="-1.13027">
        <ele>64</ele>
        <time>2025-04-26T11:03:25Z</time>
      </trkpt>
      <trkpt lat="45.40537" lon="-1.13027">
        <ele>64</ele>
        <time>2025-04-26T11:03:26Z</time>
      </trkpt>
      <trkpt lat="45.40541" lon="-1.13027">
        <ele>64</ele>
        <time>2025-04-26T11:03:27Z</time>
      </trkpt>
      <trkpt lat="45.40546" lon="-1.13026">
        <ele>64</ele>
        <time>2025-04-26T11:03:28Z</time>
      </trkpt>
      <trkpt lat="45.40551" lon="-1.13025">
        <ele>64</ele>
        <time>2025-04-26T11:03:29Z</time>
      </trkpt>
      <trkpt lat="45.40555" lon="-1.13024">
        <ele>64</ele>
        <time>2025-04-26T11:03:30Z</time>
      </trkpt>
      <trkpt lat="45.4056" lon="-1.13024">
        <ele>65</ele>
        <time>2025-04-26T11:03:31Z</time>
      </trkpt>
      <trkpt lat="45.40565" lon="-1.13024">
        <ele>65</ele>
        <time>2025-04-26T11:03:32Z</time>
      </trkpt>
      <trkpt lat="45.4057" lon="-1.13023">
        <ele>65</ele>
        <time>2025-04-26T11:03:33Z</time>
      </trkpt>
      <trkpt lat="45.40574" lon="-1.13022">
        <ele>65</ele>
        <time>2025-04-26T11:03:34Z</time>
      </trkpt>
      <trkpt lat="45.40578" lon="-1.13022">
        <ele>64</ele>
        <time>2025-04-26T11:03:35Z</time>
      </trkpt>
      <trkpt lat="45.40583" lon="-1.13022">
        <ele>64</ele>
        <time>2025-04-26T11:03:36Z</time>
      </trkpt>
      <trkpt lat="45.40587" lon="-1.13021">
        <ele>63</ele>
        <time>2025-04-26T11:03:37Z</time>
      </trkpt>
      <trkpt lat="45.40592" lon="-1.13021">
        <ele>63</ele>
        <time>2025-04-26T11:03:38Z</time>
      </trkpt>
      <trkpt lat="45.40596" lon="-1.13021">
        <ele>63</ele>
        <time>2025-04-26T11:03:39Z</time>
      </trkpt>
      <trkpt lat="45.40601" lon="-1.1302">
        <ele>63</ele>
        <time>2025-04-26T11:03:40Z</time>
      </trkpt>
      <trkpt lat="45.40605" lon="-1.1302">
        <ele>63</ele>
        <time>2025-04-26T11:03:41Z</time>
      </trkpt>
      <trkpt lat="45.40609" lon="-1.1302">
        <ele>63</ele>
        <time>2025-04-26T11:03:42Z</time>
      </trkpt>
      <trkpt lat="45.40614" lon="-1.13019">
        <ele>63</ele>
        <time>2025-04-26T11:03:43Z</time>
      </trkpt>
      <trkpt lat="45.40618" lon="-1.13019">
        <ele>63</ele>
        <time>2025-04-26T11:03:44Z</time>
      </trkpt>
      <trkpt lat="45.40623" lon="-1.13019">
        <ele>63</ele>
        <time>2025-04-26T11:03:45Z</time>
      </trkpt>
      <trkpt lat="45.40627" lon="-1.13018">
        <ele>63</ele>
        <time>2025-04-26T11:03:46Z</time>
      </trkpt>
      <trkpt lat="45.40632" lon="-1.13018">
        <ele>63</ele>
        <time>2025-04-26T11:03:47Z</time>
      </trkpt>
      <trkpt lat="45.40636" lon="-1.13018">
        <ele>63</ele>
        <time>2025-04-26T11:03:48Z</time>
      </trkpt>
      <trkpt lat="45.40641" lon="-1.13018">
        <ele>63</ele>
        <time>2025-04-26T11:03:49Z</time>
      </trkpt>
      <trkpt lat="45.40645" lon="-1.13018">
        <ele>64</ele>
        <time>2025-04-26T11:03:50Z</time>
      </trkpt>
      <trkpt lat="45.40649" lon="-1.13018">
        <ele>64</ele>
        <time>2025-04-26T11:03:51Z</time>
      </trkpt>
      <trkpt lat="45.40654" lon="-1.13018">
        <ele>64</ele>
        <time>2025-04-26T11:03:52Z</time>
      </trkpt>
      <trkpt lat="45.40658" lon="-1.13017">
        <ele>65</ele>
        <time>2025-04-26T11:03:53Z</time>
      </trkpt>
      <trkpt lat="45.40662" lon="-1.13017">
        <ele>65</ele>
        <time>2025-04-26T11:03:54Z</time>
      </trkpt>
      <trkpt lat="45.40667" lon="-1.13017">
        <ele>66</ele>
        <time>2025-04-26T11:03:55Z</time>
      </trkpt>
      <trkpt lat="45.40671" lon="-1.13017">
        <ele>66</ele>
        <time>2025-04-26T11:03:56Z</time>
      </trkpt>
      <trkpt lat="45.40676" lon="-1.13016">
        <ele>67</ele>
        <time>2025-04-26T11:03:57Z</time>
      </trkpt>
      <trkpt lat="45.4068" lon="-1.13015">
        <ele>68</ele>
        <time>2025-04-26T11:03:58Z</time>
      </trkpt>
      <trkpt lat="45.40684" lon="-1.13015">
        <ele>68</ele>
        <time>2025-04-26T11:03:59Z</time>
      </trkpt>
      <trkpt lat="45.40689" lon="-1.13015">
        <ele>68</ele>
        <time>2025-04-26T11:04:00Z</time>
      </trkpt>
      <trkpt lat="45.40694" lon="-1.13015">
        <ele>69</ele>
        <time>2025-04-26T11:04:01Z</time>
      </trkpt>
      <trkpt lat="45.40698" lon="-1.13014">
        <ele>70</ele>
        <time>2025-04-26T11:04:02Z</time>
      </trkpt>
      <trkpt lat="45.40702" lon="-1.13014">
        <ele>70</ele>
        <time>2025-04-26T11:04:03Z</time>
      </trkpt>
      <trkpt lat="45.40706" lon="-1.13013">
        <ele>71</ele>
        <time>2025-04-26T11:04:04Z</time>
      </trkpt>
      <trkpt lat="45.4071" lon="-1.13012">
        <ele>71</ele>
        <time>2025-04-26T11:04:05Z</time>
      </trkpt>
      <trkpt lat="45.40714" lon="-1.13011">
        <ele>71</ele>
        <time>2025-04-26T11:04:06Z</time>
      </trkpt>
      <trkpt lat="45.40718" lon="-1.13012">
        <ele>72</ele>
        <time>2025-04-26T11:04:07Z</time>
      </trkpt>
      <trkpt lat="45.40723" lon="-1.13012">
        <ele>73</ele>
        <time>2025-04-26T11:04:08Z</time>
      </trkpt>
      <trkpt lat="45.40728" lon="-1.13011">
        <ele>73</ele>
        <time>2025-04-26T11:04:09Z</time>
      </trkpt>
      <trkpt lat="45.40732" lon="-1.13011">
        <ele>72</ele>
        <time>2025-04-26T11:04:10Z</time>
      </trkpt>
      <trkpt lat="45.40737" lon="-1.1301">
        <ele>72</ele>
        <time>2025-04-26T11:04:11Z</time>
      </trkpt>
      <trkpt lat="45.40741" lon="-1.1301">
        <ele>71</ele>
        <time>2025-04-26T11:04:12Z</time>
      </trkpt>
      <trkpt lat="45.40746" lon="-1.13009">
        <ele>71</ele>
        <time>2025-04-26T11:04:13Z</time>
      </trkpt>
      <trkpt lat="45.4075" lon="-1.13008">
        <ele>70</ele>
        <time>2025-04-26T11:04:14Z</time>
      </trkpt>
      <trkpt lat="45.40754" lon="-1.13007">
        <ele>69</ele>
        <time>2025-04-26T11:04:15Z</time>
      </trkpt>
      <trkpt lat="45.40758" lon="-1.13007">
        <ele>69</ele>
        <time>2025-04-26T11:04:16Z</time>
      </trkpt>
      <trkpt lat="45.40762" lon="-1.13006">
        <ele>68</ele>
        <time>2025-04-26T11:04:17Z</time>
      </trkpt>
      <trkpt lat="45.40766" lon="-1.13006">
        <ele>68</ele>
        <time>2025-04-26T11:04:18Z</time>
      </trkpt>
      <trkpt lat="45.40771" lon="-1.13005">
        <ele>68</ele>
        <time>2025-04-26T11:04:19Z</time>
      </trkpt>
      <trkpt lat="45.40775" lon="-1.13005">
        <ele>67</ele>
        <time>2025-04-26T11:04:20Z</time>
      </trkpt>
      <trkpt lat="45.4078" lon="-1.13005">
        <ele>67</ele>
        <time>2025-04-26T11:04:21Z</time>
      </trkpt>
      <trkpt lat="45.40785" lon="-1.13005">
        <ele>67</ele>
        <time>2025-04-26T11:04:22Z</time>
      </trkpt>
      <trkpt lat="45.40789" lon="-1.13004">
        <ele>68</ele>
        <time>2025-04-26T11:04:23Z</time>
      </trkpt>
      <trkpt lat="45.40794" lon="-1.13004">
        <ele>68</ele>
        <time>2025-04-26T11:04:24Z</time>
      </trkpt>
      <trkpt lat="45.40799" lon="-1.13004">
        <ele>68</ele>
        <time>2025-04-26T11:04:25Z</time>
      </trkpt>
      <trkpt lat="45.40804" lon="-1.13003">
        <ele>68</ele>
        <time>2025-04-26T11:04:26Z</time>
      </trkpt>
      <trkpt lat="45.40808" lon="-1.13003">
        <ele>67</ele>
        <time>2025-04-26T11:04:27Z</time>
      </trkpt>
      <trkpt lat="45.40813" lon="-1.13003">
        <ele>67</ele>
        <time>2025-04-26T11:04:28Z</time>
      </trkpt>
      <trkpt lat="45.40817" lon="-1.13002">
        <ele>67</ele>
        <time>2025-04-26T11:04:29Z</time>
      </trkpt>
      <trkpt lat="45.40822" lon="-1.13001">
        <ele>66</ele>
        <time>2025-04-26T11:04:30Z</time>
      </trkpt>
      <trkpt lat="45.40826" lon="-1.13001">
        <ele>66</ele>
        <time>2025-04-26T11:04:31Z</time>
      </trkpt>
      <trkpt lat="45.4083" lon="-1.13001">
        <ele>66</ele>
        <time>2025-04-26T11:04:32Z</time>
      </trkpt>
      <trkpt lat="45.40835" lon="-1.13">
        <ele>66</ele>
        <time>2025-04-26T11:04:33Z</time>
      </trkpt>
      <trkpt lat="45.40839" lon="-1.13">
        <ele>66</ele>
        <time>2025-04-26T11:04:34Z</time>
      </trkpt>
      <trkpt lat="45.40844" lon="-1.13">
        <ele>66</ele>
        <time>2025-04-26T11:04:35Z</time>
      </trkpt>
      <trkpt lat="45.40849" lon="-1.13">
        <ele>66</ele>
        <time>2025-04-26T11:04:36Z</time>
      </trkpt>
      <trkpt lat="45.40853" lon="-1.13">
        <ele>66</ele>
        <time>2025-04-26T11:04:37Z</time>
      </trkpt>
      <trkpt lat="45.40858" lon="-1.12999">
        <ele>66</ele>
        <time>2025-04-26T11:04:38Z</time>
      </trkpt>
      <trkpt lat="45.40862" lon="-1.12999">
        <ele>66</ele>
        <time>2025-04-26T11:04:39Z</time>
      </trkpt>
      <trkpt lat="45.40866" lon="-1.12998">
        <ele>65</ele>
        <time>2025-04-26T11:04:40Z</time>
      </trkpt>
      <trkpt lat="45.4087" lon="-1.12998">
        <ele>65</ele>
        <time>2025-04-26T11:04:41Z</time>
      </trkpt>
      <trkpt lat="45.40875" lon="-1.12998">
        <ele>65</ele>
        <time>2025-04-26T11:04:42Z</time>
      </trkpt>
      <trkpt lat="45.40879" lon="-1.12998">
        <ele>66</ele>
        <time>2025-04-26T11:04:43Z</time>
      </trkpt>
      <trkpt lat="45.40883" lon="-1.12998">
        <ele>66</ele>
        <time>2025-04-26T11:04:44Z</time>
      </trkpt>
      <trkpt lat="45.40888" lon="-1.12997">
        <ele>66</ele>
        <time>2025-04-26T11:04:45Z</time>
      </trkpt>
      <trkpt lat="45.40892" lon="-1.12996">
        <ele>66</ele>
        <time>2025-04-26T11:04:46Z</time>
      </trkpt>
      <trkpt lat="45.40896" lon="-1.12996">
        <ele>66</ele>
        <time>2025-04-26T11:04:47Z</time>
      </trkpt>
      <trkpt lat="45.409" lon="-1.12996">
        <ele>67</ele>
        <time>2025-04-26T11:04:48Z</time>
      </trkpt>
      <trkpt lat="45.40904" lon="-1.12995">
        <ele>66</ele>
        <time>2025-04-26T11:04:49Z</time>
      </trkpt>
      <trkpt lat="45.40908" lon="-1.12995">
        <ele>66</ele>
        <time>2025-04-26T11:04:50Z</time>
      </trkpt>
      <trkpt lat="45.40912" lon="-1.12996">
        <ele>67</ele>
        <time>2025-04-26T11:04:51Z</time>
      </trkpt>
      <trkpt lat="45.40917" lon="-1.12995">
        <ele>67</ele>
        <time>2025-04-26T11:04:52Z</time>
      </trkpt>
      <trkpt lat="45.40921" lon="-1.12995">
        <ele>67</ele>
        <time>2025-04-26T11:04:53Z</time>
      </trkpt>
      <trkpt lat="45.40925" lon="-1.12995">
        <ele>67</ele>
        <time>2025-04-26T11:04:54Z</time>
      </trkpt>
      <trkpt lat="45.40929" lon="-1.12995">
        <ele>67</ele>
        <time>2025-04-26T11:04:55Z</time>
      </trkpt>
      <trkpt lat="45.40933" lon="-1.12995">
        <ele>67</ele>
        <time>2025-04-26T11:04:56Z</time>
      </trkpt>
      <trkpt lat="45.40937" lon="-1.12995">
        <ele>68</ele>
        <time>2025-04-26T11:04:57Z</time>
      </trkpt>
      <trkpt lat="45.40941" lon="-1.12994">
        <ele>69</ele>
        <time>2025-04-26T11:04:58Z</time>
      </trkpt>
      <trkpt lat="45.40945" lon="-1.12994">
        <ele>69</ele>
        <time>2025-04-26T11:04:59Z</time>
      </trkpt>
      <trkpt lat="45.40948" lon="-1.12994">
        <ele>70</ele>
        <time>2025-04-26T11:05:00Z</time>
      </trkpt>
      <trkpt lat="45.40952" lon="-1.12993">
        <ele>70</ele>
        <time>2025-04-26T11:05:01Z</time>
      </trkpt>
      <trkpt lat="45.40956" lon="-1.12993">
        <ele>70</ele>
        <time>2025-04-26T11:05:02Z</time>
      </trkpt>
      <trkpt lat="45.40959" lon="-1.12993">
        <ele>70</ele>
        <time>2025-04-26T11:05:03Z</time>
      </trkpt>
      <trkpt lat="45.40963" lon="-1.12992">
        <ele>70</ele>
        <time>2025-04-26T11:05:04Z</time>
      </trkpt>
      <trkpt lat="45.40966" lon="-1.12992">
        <ele>70</ele>
        <time>2025-04-26T11:05:05Z</time>
      </trkpt>
      <trkpt lat="45.40969" lon="-1.12991">
        <ele>70</ele>
        <time>2025-04-26T11:05:06Z</time>
      </trkpt>
      <trkpt lat="45.40972" lon="-1.12991">
        <ele>69</ele>
        <time>2025-04-26T11:05:07Z</time>
      </trkpt>
      <trkpt lat="45.40975" lon="-1.12991">
        <ele>69</ele>
        <time>2025-04-26T11:05:08Z</time>
      </trkpt>
      <trkpt lat="45.40978" lon="-1.12991">
        <ele>69</ele>
        <time>2025-04-26T11:05:09Z</time>
      </trkpt>
      <trkpt lat="45.40981" lon="-1.12991">
        <ele>69</ele>
        <time>2025-04-26T11:05:10Z</time>
      </trkpt>
      <trkpt lat="45.40983" lon="-1.12991">
        <ele>69</ele>
        <time>2025-04-26T11:05:11Z</time>
      </trkpt>
      <trkpt lat="45.40986" lon="-1.1299">
        <ele>69</ele>
        <time>2025-04-26T11:05:12Z</time>
      </trkpt>
      <trkpt lat="45.40989" lon="-1.12989">
        <ele>68</ele>
        <time>2025-04-26T11:05:13Z</time>
      </trkpt>
      <trkpt lat="45.40991" lon="-1.12989">
        <ele>69</ele>
        <time>2025-04-26T11:05:14Z</time>
      </trkpt>
      <trkpt lat="45.40994" lon="-1.12991">
        <ele>68</ele>
        <time>2025-04-26T11:05:15Z</time>
      </trkpt>
      <trkpt lat="45.40996" lon="-1.12993">
        <ele>68</ele>
        <time>2025-04-26T11:05:16Z</time>
      </trkpt>
      <trkpt lat="45.40998" lon="-1.12996">
        <ele>68</ele>
        <time>2025-04-26T11:05:17Z</time>
      </trkpt>
      <trkpt lat="45.40999" lon="-1.13">
        <ele>68</ele>
        <time>2025-04-26T11:05:18Z</time>
      </trkpt>
      <trkpt lat="45.41" lon="-1.13004">
        <ele>67</ele>
        <time>2025-04-26T11:05:19Z</time>
      </trkpt>
      <trkpt lat="45.41002" lon="-1.13008">
        <ele>67</ele>
        <time>2025-04-26T11:05:20Z</time>
      </trkpt>
      <trkpt lat="45.41003" lon="-1.13012">
        <ele>67</ele>
        <time>2025-04-26T11:05:21Z</time>
      </trkpt>
      <trkpt lat="45.41004" lon="-1.13016">
        <ele>67</ele>
        <time>2025-04-26T11:05:22Z</time>
      </trkpt>
      <trkpt lat="45.41004" lon="-1.1302">
        <ele>67</ele>
        <time>2025-04-26T11:05:23Z</time>
      </trkpt>
      <trkpt lat="45.41004" lon="-1.13024">
        <ele>67</ele>
        <time>2025-04-26T11:05:24Z</time>
      </trkpt>
      <trkpt lat="45.41003" lon="-1.13028">
        <ele>67</ele>
        <time>2025-04-26T11:05:25Z</time>
      </trkpt>
      <trkpt lat="45.41002" lon="-1.13032">
        <ele>67</ele>
        <time>2025-04-26T11:05:26Z</time>
      </trkpt>
      <trkpt lat="45.41002" lon="-1.13036">
        <ele>67</ele>
        <time>2025-04-26T11:05:27Z</time>
      </trkpt>
      <trkpt lat="45.41001" lon="-1.1304">
        <ele>68</ele>
        <time>2025-04-26T11:05:28Z</time>
      </trkpt>
      <trkpt lat="45.41001" lon="-1.13044">
        <ele>68</ele>
        <time>2025-04-26T11:05:29Z</time>
      </trkpt>
      <trkpt lat="45.41001" lon="-1.13049">
        <ele>67</ele>
        <time>2025-04-26T11:05:30Z</time>
      </trkpt>
      <trkpt lat="45.41" lon="-1.13053">
        <ele>68</ele>
        <time>2025-04-26T11:05:31Z</time>
      </trkpt>
      <trkpt lat="45.40999" lon="-1.13058">
        <ele>68</ele>
        <time>2025-04-26T11:05:32Z</time>
      </trkpt>
      <trkpt lat="45.40999" lon="-1.13062">
        <ele>69</ele>
        <time>2025-04-26T11:05:33Z</time>
      </trkpt>
      <trkpt lat="45.40998" lon="-1.13066">
        <ele>69</ele>
        <time>2025-04-26T11:05:34Z</time>
      </trkpt>
      <trkpt lat="45.40997" lon="-1.1307">
        <ele>69</ele>
        <time>2025-04-26T11:05:35Z</time>
      </trkpt>
      <trkpt lat="45.40997" lon="-1.13074">
        <ele>70</ele>
        <time>2025-04-26T11:05:36Z</time>
      </trkpt>
      <trkpt lat="45.40997" lon="-1.13077">
        <ele>70</ele>
        <time>2025-04-26T11:05:37Z</time>
      </trkpt>
      <trkpt lat="45.40998" lon="-1.1308">
        <ele>71</ele>
        <time>2025-04-26T11:05:38Z</time>
      </trkpt>
      <trkpt lat="45.40999" lon="-1.1308">
        <ele>71</ele>
        <time>2025-04-26T11:05:39Z</time>
      </trkpt>
      <trkpt lat="45.41001" lon="-1.1308">
        <ele>72</ele>
        <time>2025-04-26T11:05:40Z</time>
      </trkpt>
      <trkpt lat="45.41004" lon="-1.1308">
        <ele>72</ele>
        <time>2025-04-26T11:05:41Z</time>
      </trkpt>
      <trkpt lat="45.41006" lon="-1.13081">
        <ele>72</ele>
        <time>2025-04-26T11:05:42Z</time>
      </trkpt>
      <trkpt lat="45.41009" lon="-1.13081">
        <ele>71</ele>
        <time>2025-04-26T11:05:43Z</time>
      </trkpt>
      <trkpt lat="45.41012" lon="-1.13079">
        <ele>71</ele>
        <time>2025-04-26T11:05:44Z</time>
      </trkpt>
      <trkpt lat="45.41014" lon="-1.13075">
        <ele>71</ele>
        <time>2025-04-26T11:05:45Z</time>
      </trkpt>
      <trkpt lat="45.41015" lon="-1.1307">
        <ele>71</ele>
        <time>2025-04-26T11:05:46Z</time>
      </trkpt>
      <trkpt lat="45.41016" lon="-1.13064">
        <ele>70</ele>
        <time>2025-04-26T11:05:47Z</time>
      </trkpt>
      <trkpt lat="45.41016" lon="-1.13059">
        <ele>70</ele>
        <time>2025-04-26T11:05:48Z</time>
      </trkpt>
      <trkpt lat="45.41017" lon="-1.13054">
        <ele>69</ele>
        <time>2025-04-26T11:05:49Z</time>
      </trkpt>
      <trkpt lat="45.41018" lon="-1.13049">
        <ele>69</ele>
        <time>2025-04-26T11:05:50Z</time>
      </trkpt>
      <trkpt lat="45.4102" lon="-1.13045">
        <ele>69</ele>
        <time>2025-04-26T11:05:51Z</time>
      </trkpt>
      <trkpt lat="45.41023" lon="-1.13042">
        <ele>69</ele>
        <time>2025-04-26T11:05:52Z</time>
      </trkpt>
      <trkpt lat="45.41026" lon="-1.13039">
        <ele>69</ele>
        <time>2025-04-26T11:05:53Z</time>
      </trkpt>
      <trkpt lat="45.41029" lon="-1.13036">
        <ele>69</ele>
        <time>2025-04-26T11:05:54Z</time>
      </trkpt>
      <trkpt lat="45.41033" lon="-1.13035">
        <ele>69</ele>
        <time>2025-04-26T11:05:55Z</time>
      </trkpt>
      <trkpt lat="45.41036" lon="-1.13034">
        <ele>68</ele>
        <time>2025-04-26T11:05:56Z</time>
      </trkpt>
      <trkpt lat="45.41039" lon="-1.13032">
        <ele>68</ele>
        <time>2025-04-26T11:05:57Z</time>
      </trkpt>
      <trkpt lat="45.41043" lon="-1.1303">
        <ele>68</ele>
        <time>2025-04-26T11:05:58Z</time>
      </trkpt>
      <trkpt lat="45.41046" lon="-1.13029">
        <ele>68</ele>
        <time>2025-04-26T11:05:59Z</time>
      </trkpt>
      <trkpt lat="45.4105" lon="-1.13027">
        <ele>68</ele>
        <time>2025-04-26T11:06:00Z</time>
      </trkpt>
      <trkpt lat="45.41053" lon="-1.13026">
        <ele>67</ele>
        <time>2025-04-26T11:06:01Z</time>
      </trkpt>
      <trkpt lat="45.41057" lon="-1.13025">
        <ele>67</ele>
        <time>2025-04-26T11:06:02Z</time>
      </trkpt>
      <trkpt lat="45.4106" lon="-1.13024">
        <ele>67</ele>
        <time>2025-04-26T11:06:03Z</time>
      </trkpt>
      <trkpt lat="45.41063" lon="-1.13023">
        <ele>67</ele>
        <time>2025-04-26T11:06:04Z</time>
      </trkpt>
      <trkpt lat="45.41067" lon="-1.13022">
        <ele>67</ele>
        <time>2025-04-26T11:06:05Z</time>
      </trkpt>
      <trkpt lat="45.41071" lon="-1.1302">
        <ele>67</ele>
        <time>2025-04-26T11:06:06Z</time>
      </trkpt>
      <trkpt lat="45.41074" lon="-1.1302">
        <ele>67</ele>
        <time>2025-04-26T11:06:07Z</time>
      </trkpt>
      <trkpt lat="45.41078" lon="-1.13019">
        <ele>66</ele>
        <time>2025-04-26T11:06:08Z</time>
      </trkpt>
      <trkpt lat="45.41082" lon="-1.13018">
        <ele>66</ele>
        <time>2025-04-26T11:06:09Z</time>
      </trkpt>
      <trkpt lat="45.41086" lon="-1.13017">
        <ele>66</ele>
        <time>2025-04-26T11:06:10Z</time>
      </trkpt>
      <trkpt lat="45.41089" lon="-1.13016">
        <ele>65</ele>
        <time>2025-04-26T11:06:11Z</time>
      </trkpt>
      <trkpt lat="45.41093" lon="-1.13014">
        <ele>65</ele>
        <time>2025-04-26T11:06:12Z</time>
      </trkpt>
      <trkpt lat="45.41097" lon="-1.13013">
        <ele>65</ele>
        <time>2025-04-26T11:06:13Z</time>
      </trkpt>
      <trkpt lat="45.41102" lon="-1.13012">
        <ele>66</ele>
        <time>2025-04-26T11:06:14Z</time>
      </trkpt>
      <trkpt lat="45.41106" lon="-1.13011">
        <ele>66</ele>
        <time>2025-04-26T11:06:15Z</time>
      </trkpt>
      <trkpt lat="45.4111" lon="-1.1301">
        <ele>66</ele>
        <time>2025-04-26T11:06:16Z</time>
      </trkpt>
      <trkpt lat="45.41114" lon="-1.1301">
        <ele>66</ele>
        <time>2025-04-26T11:06:17Z</time>
      </trkpt>
      <trkpt lat="45.41119" lon="-1.13009">
        <ele>65</ele>
        <time>2025-04-26T11:06:18Z</time>
      </trkpt>
      <trkpt lat="45.41124" lon="-1.13009">
        <ele>66</ele>
        <time>2025-04-26T11:06:19Z</time>
      </trkpt>
      <trkpt lat="45.41128" lon="-1.13008">
        <ele>67</ele>
        <time>2025-04-26T11:06:20Z</time>
      </trkpt>
      <trkpt lat="45.41133" lon="-1.13008">
        <ele>67</ele>
        <time>2025-04-26T11:06:21Z</time>
      </trkpt>
      <trkpt lat="45.41137" lon="-1.13007">
        <ele>66</ele>
        <time>2025-04-26T11:06:22Z</time>
      </trkpt>
      <trkpt lat="45.41141" lon="-1.13007">
        <ele>66</ele>
        <time>2025-04-26T11:06:23Z</time>
      </trkpt>
      <trkpt lat="45.41145" lon="-1.13007">
        <ele>66</ele>
        <time>2025-04-26T11:06:24Z</time>
      </trkpt>
      <trkpt lat="45.41149" lon="-1.13007">
        <ele>65</ele>
        <time>2025-04-26T11:06:25Z</time>
      </trkpt>
      <trkpt lat="45.41153" lon="-1.13007">
        <ele>65</ele>
        <time>2025-04-26T11:06:26Z</time>
      </trkpt>
      <trkpt lat="45.41158" lon="-1.13006">
        <ele>65</ele>
        <time>2025-04-26T11:06:27Z</time>
      </trkpt>
      <trkpt lat="45.41162" lon="-1.13006">
        <ele>65</ele>
        <time>2025-04-26T11:06:28Z</time>
      </trkpt>
      <trkpt lat="45.41166" lon="-1.13005">
        <ele>65</ele>
        <time>2025-04-26T11:06:29Z</time>
      </trkpt>
      <trkpt lat="45.41171" lon="-1.13005">
        <ele>66</ele>
        <time>2025-04-26T11:06:30Z</time>
      </trkpt>
      <trkpt lat="45.41175" lon="-1.13005">
        <ele>66</ele>
        <time>2025-04-26T11:06:31Z</time>
      </trkpt>
      <trkpt lat="45.41179" lon="-1.13004">
        <ele>66</ele>
        <time>2025-04-26T11:06:32Z</time>
      </trkpt>
      <trkpt lat="45.41184" lon="-1.13003">
        <ele>66</ele>
        <time>2025-04-26T11:06:33Z</time>
      </trkpt>
      <trkpt lat="45.41188" lon="-1.13003">
        <ele>65</ele>
        <time>2025-04-26T11:06:34Z</time>
      </trkpt>
      <trkpt lat="45.41192" lon="-1.13003">
        <ele>65</ele>
        <time>2025-04-26T11:06:35Z</time>
      </trkpt>
      <trkpt lat="45.41196" lon="-1.13002">
        <ele>65</ele>
        <time>2025-04-26T11:06:36Z</time>
      </trkpt>
      <trkpt lat="45.41201" lon="-1.13002">
        <ele>65</ele>
        <time>2025-04-26T11:06:37Z</time>
      </trkpt>
      <trkpt lat="45.41206" lon="-1.13002">
        <ele>66</ele>
        <time>2025-04-26T11:06:38Z</time>
      </trkpt>
      <trkpt lat="45.4121" lon="-1.13002">
        <ele>65</ele>
        <time>2025-04-26T11:06:39Z</time>
      </trkpt>
      <trkpt lat="45.41215" lon="-1.13001">
        <ele>66</ele>
        <time>2025-04-26T11:06:40Z</time>
      </trkpt>
      <trkpt lat="45.41219" lon="-1.13001">
        <ele>66</ele>
        <time>2025-04-26T11:06:41Z</time>
      </trkpt>
      <trkpt lat="45.41223" lon="-1.13">
        <ele>66</ele>
        <time>2025-04-26T11:06:42Z</time>
      </trkpt>
      <trkpt lat="45.41228" lon="-1.13">
        <ele>66</ele>
        <time>2025-04-26T11:06:43Z</time>
      </trkpt>
      <trkpt lat="45.41232" lon="-1.13">
        <ele>66</ele>
        <time>2025-04-26T11:06:44Z</time>
      </trkpt>
      <trkpt lat="45.41237" lon="-1.13">
        <ele>66</ele>
        <time>2025-04-26T11:06:45Z</time>
      </trkpt>
      <trkpt lat="45.41241" lon="-1.13">
        <ele>66</ele>
        <time>2025-04-26T11:06:46Z</time>
      </trkpt>
      <trkpt lat="45.41246" lon="-1.12999">
        <ele>66</ele>
        <time>2025-04-26T11:06:47Z</time>
      </trkpt>
      <trkpt lat="45.4125" lon="-1.12998">
        <ele>66</ele>
        <time>2025-04-26T11:06:48Z</time>
      </trkpt>
      <trkpt lat="45.41255" lon="-1.12998">
        <ele>66</ele>
        <time>2025-04-26T11:06:49Z</time>
      </trkpt>
      <trkpt lat="45.41259" lon="-1.12998">
        <ele>66</ele>
        <time>2025-04-26T11:06:50Z</time>
      </trkpt>
      <trkpt lat="45.41263" lon="-1.12998">
        <ele>65</ele>
        <time>2025-04-26T11:06:51Z</time>
      </trkpt>
      <trkpt lat="45.41268" lon="-1.12997">
        <ele>65</ele>
        <time>2025-04-26T11:06:52Z</time>
      </trkpt>
      <trkpt lat="45.41273" lon="-1.12997">
        <ele>66</ele>
        <time>2025-04-26T11:06:53Z</time>
      </trkpt>
      <trkpt lat="45.41277" lon="-1.12996">
        <ele>66</ele>
        <time>2025-04-26T11:06:54Z</time>
      </trkpt>
      <trkpt lat="45.41281" lon="-1.12997">
        <ele>66</ele>
        <time>2025-04-26T11:06:55Z</time>
      </trkpt>
      <trkpt lat="45.41285" lon="-1.12997">
        <ele>65</ele>
        <time>2025-04-26T11:06:56Z</time>
      </trkpt>
      <trkpt lat="45.4129" lon="-1.12997">
        <ele>65</ele>
        <time>2025-04-26T11:06:57Z</time>
      </trkpt>
      <trkpt lat="45.41295" lon="-1.12997">
        <ele>65</ele>
        <time>2025-04-26T11:06:58Z</time>
      </trkpt>
      <trkpt lat="45.413" lon="-1.12997">
        <ele>64</ele>
        <time>2025-04-26T11:06:59Z</time>
      </trkpt>
      <trkpt lat="45.41305" lon="-1.12998">
        <ele>64</ele>
        <time>2025-04-26T11:07:00Z</time>
      </trkpt>
      <trkpt lat="45.4131" lon="-1.13">
        <ele>64</ele>
        <time>2025-04-26T11:07:01Z</time>
      </trkpt>
      <trkpt lat="45.41314" lon="-1.13003">
        <ele>64</ele>
        <time>2025-04-26T11:07:02Z</time>
      </trkpt>
      <trkpt lat="45.41318" lon="-1.13008">
        <ele>63</ele>
        <time>2025-04-26T11:07:03Z</time>
      </trkpt>
      <trkpt lat="45.41322" lon="-1.13012">
        <ele>63</ele>
        <time>2025-04-26T11:07:04Z</time>
      </trkpt>
      <trkpt lat="45.41325" lon="-1.13017">
        <ele>63</ele>
        <time>2025-04-26T11:07:05Z</time>
      </trkpt>
      <trkpt lat="45.41329" lon="-1.1302">
        <ele>64</ele>
        <time>2025-04-26T11:07:06Z</time>
      </trkpt>
      <trkpt lat="45.41334" lon="-1.13022">
        <ele>65</ele>
        <time>2025-04-26T11:07:07Z</time>
      </trkpt>
      <trkpt lat="45.41339" lon="-1.13022">
        <ele>65</ele>
        <time>2025-04-26T11:07:08Z</time>
      </trkpt>
      <trkpt lat="45.41343" lon="-1.13022">
        <ele>65</ele>
        <time>2025-04-26T11:07:09Z</time>
      </trkpt>
      <trkpt lat="45.41348" lon="-1.1302">
        <ele>65</ele>
        <time>2025-04-26T11:07:10Z</time>
      </trkpt>
      <trkpt lat="45.41352" lon="-1.13019">
        <ele>65</ele>
        <time>2025-04-26T11:07:11Z</time>
      </trkpt>
      <trkpt lat="45.41356" lon="-1.13018">
        <ele>65</ele>
        <time>2025-04-26T11:07:12Z</time>
      </trkpt>
      <trkpt lat="45.4136" lon="-1.13018">
        <ele>65</ele>
        <time>2025-04-26T11:07:13Z</time>
      </trkpt>
      <trkpt lat="45.41363" lon="-1.13017">
        <ele>66</ele>
        <time>2025-04-26T11:07:14Z</time>
      </trkpt>
      <trkpt lat="45.41368" lon="-1.13016">
        <ele>66</ele>
        <time>2025-04-26T11:07:15Z</time>
      </trkpt>
      <trkpt lat="45.41372" lon="-1.13015">
        <ele>67</ele>
        <time>2025-04-26T11:07:16Z</time>
      </trkpt>
      <trkpt lat="45.41377" lon="-1.13013">
        <ele>67</ele>
        <time>2025-04-26T11:07:17Z</time>
      </trkpt>
      <trkpt lat="45.4138" lon="-1.13011">
        <ele>67</ele>
        <time>2025-04-26T11:07:18Z</time>
      </trkpt>
      <trkpt lat="45.41384" lon="-1.13008">
        <ele>67</ele>
        <time>2025-04-26T11:07:19Z</time>
      </trkpt>
      <trkpt lat="45.41387" lon="-1.13005">
        <ele>67</ele>
        <time>2025-04-26T11:07:20Z</time>
      </trkpt>
      <trkpt lat="45.41391" lon="-1.13">
        <ele>67</ele>
        <time>2025-04-26T11:07:21Z</time>
      </trkpt>
      <trkpt lat="45.41394" lon="-1.12995">
        <ele>67</ele>
        <time>2025-04-26T11:07:22Z</time>
      </trkpt>
      <trkpt lat="45.41397" lon="-1.12992">
        <ele>67</ele>
        <time>2025-04-26T11:07:23Z</time>
      </trkpt>
      <trkpt lat="45.41401" lon="-1.12989">
        <ele>67</ele>
        <time>2025-04-26T11:07:24Z</time>
      </trkpt>
      <trkpt lat="45.41405" lon="-1.12987">
        <ele>67</ele>
        <time>2025-04-26T11:07:25Z</time>
      </trkpt>
      <trkpt lat="45.4141" lon="-1.12986">
        <ele>67</ele>
        <time>2025-04-26T11:07:26Z</time>
      </trkpt>
      <trkpt lat="45.41414" lon="-1.12986">
        <ele>66</ele>
        <time>2025-04-26T11:07:27Z</time>
      </trkpt>
      <trkpt lat="45.41418" lon="-1.12986">
        <ele>66</ele>
        <time>2025-04-26T11:07:28Z</time>
      </trkpt>
      <trkpt lat="45.41423" lon="-1.12986">
        <ele>65</ele>
        <time>2025-04-26T11:07:29Z</time>
      </trkpt>
      <trkpt lat="45.41428" lon="-1.12986">
        <ele>65</ele>
        <time>2025-04-26T11:07:30Z</time>
      </trkpt>
      <trkpt lat="45.41432" lon="-1.12985">
        <ele>65</ele>
        <time>2025-04-26T11:07:31Z</time>
      </trkpt>
      <trkpt lat="45.41436" lon="-1.12985">
        <ele>65</ele>
        <time>2025-04-26T11:07:32Z</time>
      </trkpt>
      <trkpt lat="45.41441" lon="-1.12985">
        <ele>66</ele>
        <time>2025-04-26T11:07:33Z</time>
      </trkpt>
      <trkpt lat="45.41445" lon="-1.12984">
        <ele>66</ele>
        <time>2025-04-26T11:07:34Z</time>
      </trkpt>
      <trkpt lat="45.4145" lon="-1.12984">
        <ele>65</ele>
        <time>2025-04-26T11:07:35Z</time>
      </trkpt>
      <trkpt lat="45.41454" lon="-1.12984">
        <ele>65</ele>
        <time>2025-04-26T11:07:36Z</time>
      </trkpt>
      <trkpt lat="45.41459" lon="-1.12984">
        <ele>65</ele>
        <time>2025-04-26T11:07:37Z</time>
      </trkpt>
      <trkpt lat="45.41463" lon="-1.12984">
        <ele>65</ele>
        <time>2025-04-26T11:07:38Z</time>
      </trkpt>
      <trkpt lat="45.41468" lon="-1.12984">
        <ele>65</ele>
        <time>2025-04-26T11:07:39Z</time>
      </trkpt>
      <trkpt lat="45.41473" lon="-1.12984">
        <ele>64</ele>
        <time>2025-04-26T11:07:40Z</time>
      </trkpt>
      <trkpt lat="45.41477" lon="-1.12984">
        <ele>65</ele>
        <time>2025-04-26T11:07:41Z</time>
      </trkpt>
      <trkpt lat="45.41481" lon="-1.12983">
        <ele>65</ele>
        <time>2025-04-26T11:07:42Z</time>
      </trkpt>
      <trkpt lat="45.41485" lon="-1.12983">
        <ele>64</ele>
        <time>2025-04-26T11:07:43Z</time>
      </trkpt>
      <trkpt lat="45.41489" lon="-1.12983">
        <ele>64</ele>
        <time>2025-04-26T11:07:44Z</time>
      </trkpt>
      <trkpt lat="45.41493" lon="-1.12983">
        <ele>64</ele>
        <time>2025-04-26T11:07:45Z</time>
      </trkpt>
      <trkpt lat="45.41497" lon="-1.12982">
        <ele>64</ele>
        <time>2025-04-26T11:07:46Z</time>
      </trkpt>
      <trkpt lat="45.41501" lon="-1.12982">
        <ele>64</ele>
        <time>2025-04-26T11:07:47Z</time>
      </trkpt>
      <trkpt lat="45.41505" lon="-1.12981">
        <ele>65</ele>
        <time>2025-04-26T11:07:48Z</time>
      </trkpt>
      <trkpt lat="45.4151" lon="-1.12981">
        <ele>65</ele>
        <time>2025-04-26T11:07:49Z</time>
      </trkpt>
      <trkpt lat="45.41514" lon="-1.1298">
        <ele>65</ele>
        <time>2025-04-26T11:07:50Z</time>
      </trkpt>
      <trkpt lat="45.41518" lon="-1.1298">
        <ele>65</ele>
        <time>2025-04-26T11:07:51Z</time>
      </trkpt>
      <trkpt lat="45.41522" lon="-1.1298">
        <ele>65</ele>
        <time>2025-04-26T11:07:52Z</time>
      </trkpt>
      <trkpt lat="45.41525" lon="-1.12979">
        <ele>65</ele>
        <time>2025-04-26T11:07:53Z</time>
      </trkpt>
      <trkpt lat="45.4153" lon="-1.12979">
        <ele>66</ele>
        <time>2025-04-26T11:07:54Z</time>
      </trkpt>
      <trkpt lat="45.41534" lon="-1.12979">
        <ele>66</ele>
        <time>2025-04-26T11:07:55Z</time>
      </trkpt>
      <trkpt lat="45.41538" lon="-1.12978">
        <ele>66</ele>
        <time>2025-04-26T11:07:56Z</time>
      </trkpt>
      <trkpt lat="45.41543" lon="-1.12977">
        <ele>66</ele>
        <time>2025-04-26T11:07:57Z</time>
      </trkpt>
      <trkpt lat="45.41547" lon="-1.12976">
        <ele>67</ele>
        <time>2025-04-26T11:07:58Z</time>
      </trkpt>
      <trkpt lat="45.41552" lon="-1.12976">
        <ele>67</ele>
        <time>2025-04-26T11:07:59Z</time>
      </trkpt>
      <trkpt lat="45.41556" lon="-1.12974">
        <ele>66</ele>
        <time>2025-04-26T11:08:00Z</time>
      </trkpt>
      <trkpt lat="45.4156" lon="-1.12973">
        <ele>66</ele>
        <time>2025-04-26T11:08:01Z</time>
      </trkpt>
      <trkpt lat="45.41564" lon="-1.12973">
        <ele>67</ele>
        <time>2025-04-26T11:08:02Z</time>
      </trkpt>
      <trkpt lat="45.41568" lon="-1.12973">
        <ele>66</ele>
        <time>2025-04-26T11:08:03Z</time>
      </trkpt>
      <trkpt lat="45.41572" lon="-1.12974">
        <ele>66</ele>
        <time>2025-04-26T11:08:04Z</time>
      </trkpt>
      <trkpt lat="45.41576" lon="-1.12975">
        <ele>67</ele>
        <time>2025-04-26T11:08:05Z</time>
      </trkpt>
      <trkpt lat="45.41581" lon="-1.12976">
        <ele>67</ele>
        <time>2025-04-26T11:08:06Z</time>
      </trkpt>
      <trkpt lat="45.41584" lon="-1.12979">
        <ele>67</ele>
        <time>2025-04-26T11:08:07Z</time>
      </trkpt>
      <trkpt lat="45.41588" lon="-1.12982">
        <ele>67</ele>
        <time>2025-04-26T11:08:08Z</time>
      </trkpt>
      <trkpt lat="45.41592" lon="-1.12985">
        <ele>66</ele>
        <time>2025-04-26T11:08:09Z</time>
      </trkpt>
      <trkpt lat="45.41596" lon="-1.12988">
        <ele>67</ele>
        <time>2025-04-26T11:08:10Z</time>
      </trkpt>
      <trkpt lat="45.41599" lon="-1.12991">
        <ele>67</ele>
        <time>2025-04-26T11:08:11Z</time>
      </trkpt>
      <trkpt lat="45.41603" lon="-1.12993">
        <ele>67</ele>
        <time>2025-04-26T11:08:12Z</time>
      </trkpt>
      <trkpt lat="45.41606" lon="-1.12995">
        <ele>67</ele>
        <time>2025-04-26T11:08:13Z</time>
      </trkpt>
      <trkpt lat="45.4161" lon="-1.12996">
        <ele>67</ele>
        <time>2025-04-26T11:08:14Z</time>
      </trkpt>
      <trkpt lat="45.41614" lon="-1.12996">
        <ele>68</ele>
        <time>2025-04-26T11:08:15Z</time>
      </trkpt>
      <trkpt lat="45.41617" lon="-1.12996">
        <ele>67</ele>
        <time>2025-04-26T11:08:16Z</time>
      </trkpt>
      <trkpt lat="45.4162" lon="-1.12995">
        <ele>67</ele>
        <time>2025-04-26T11:08:17Z</time>
      </trkpt>
      <trkpt lat="45.41623" lon="-1.12995">
        <ele>67</ele>
        <time>2025-04-26T11:08:18Z</time>
      </trkpt>
      <trkpt lat="45.41625" lon="-1.12995">
        <ele>67</ele>
        <time>2025-04-26T11:08:19Z</time>
      </trkpt>
      <trkpt lat="45.41628" lon="-1.12996">
        <ele>67</ele>
        <time>2025-04-26T11:08:20Z</time>
      </trkpt>
      <trkpt lat="45.41632" lon="-1.12996">
        <ele>66</ele>
        <time>2025-04-26T11:08:21Z</time>
      </trkpt>
      <trkpt lat="45.41635" lon="-1.12995">
        <ele>67</ele>
        <time>2025-04-26T11:08:22Z</time>
      </trkpt>
      <trkpt lat="45.41638" lon="-1.12994">
        <ele>67</ele>
        <time>2025-04-26T11:08:23Z</time>
      </trkpt>
      <trkpt lat="45.41641" lon="-1.12991">
        <ele>67</ele>
        <time>2025-04-26T11:08:24Z</time>
      </trkpt>
      <trkpt lat="45.41644" lon="-1.12989">
        <ele>67</ele>
        <time>2025-04-26T11:08:25Z</time>
      </trkpt>
      <trkpt lat="45.41647" lon="-1.12986">
        <ele>67</ele>
        <time>2025-04-26T11:08:26Z</time>
      </trkpt>
      <trkpt lat="45.41651" lon="-1.12982">
        <ele>67</ele>
        <time>2025-04-26T11:08:27Z</time>
      </trkpt>
      <trkpt lat="45.41653" lon="-1.1298">
        <ele>67</ele>
        <time>2025-04-26T11:08:28Z</time>
      </trkpt>
      <trkpt lat="45.41657" lon="-1.12977">
        <ele>67</ele>
        <time>2025-04-26T11:08:29Z</time>
      </trkpt>
      <trkpt lat="45.4166" lon="-1.12975">
        <ele>67</ele>
        <time>2025-04-26T11:08:30Z</time>
      </trkpt>
      <trkpt lat="45.41662" lon="-1.12972">
        <ele>67</ele>
        <time>2025-04-26T11:08:31Z</time>
      </trkpt>
      <trkpt lat="45.41666" lon="-1.12969">
        <ele>67</ele>
        <time>2025-04-26T11:08:32Z</time>
      </trkpt>
      <trkpt lat="45.4167" lon="-1.12968">
        <ele>67</ele>
        <time>2025-04-26T11:08:33Z</time>
      </trkpt>
      <trkpt lat="45.41674" lon="-1.12968">
        <ele>68</ele>
        <time>2025-04-26T11:08:34Z</time>
      </trkpt>
      <trkpt lat="45.41677" lon="-1.12968">
        <ele>68</ele>
        <time>2025-04-26T11:08:35Z</time>
      </trkpt>
      <trkpt lat="45.41681" lon="-1.12967">
        <ele>68</ele>
        <time>2025-04-26T11:08:36Z</time>
      </trkpt>
      <trkpt lat="45.41685" lon="-1.12967">
        <ele>68</ele>
        <time>2025-04-26T11:08:37Z</time>
      </trkpt>
      <trkpt lat="45.41689" lon="-1.12967">
        <ele>68</ele>
        <time>2025-04-26T11:08:38Z</time>
      </trkpt>
      <trkpt lat="45.41693" lon="-1.12967">
        <ele>68</ele>
        <time>2025-04-26T11:08:39Z</time>
      </trkpt>
      <trkpt lat="45.41697" lon="-1.12967">
        <ele>68</ele>
        <time>2025-04-26T11:08:40Z</time>
      </trkpt>
      <trkpt lat="45.417" lon="-1.12967">
        <ele>68</ele>
        <time>2025-04-26T11:08:41Z</time>
      </trkpt>
      <trkpt lat="45.41704" lon="-1.12966">
        <ele>68</ele>
        <time>2025-04-26T11:08:42Z</time>
      </trkpt>
      <trkpt lat="45.41708" lon="-1.12966">
        <ele>68</ele>
        <time>2025-04-26T11:08:43Z</time>
      </trkpt>
      <trkpt lat="45.41712" lon="-1.12966">
        <ele>67</ele>
        <time>2025-04-26T11:08:44Z</time>
      </trkpt>
      <trkpt lat="45.41716" lon="-1.12965">
        <ele>67</ele>
        <time>2025-04-26T11:08:45Z</time>
      </trkpt>
      <trkpt lat="45.4172" lon="-1.12965">
        <ele>66</ele>
        <time>2025-04-26T11:08:46Z</time>
      </trkpt>
      <trkpt lat="45.41724" lon="-1.12964">
        <ele>67</ele>
        <time>2025-04-26T11:08:47Z</time>
      </trkpt>
      <trkpt lat="45.41728" lon="-1.12964">
        <ele>67</ele>
        <time>2025-04-26T11:08:48Z</time>
      </trkpt>
      <trkpt lat="45.41732" lon="-1.12964">
        <ele>67</ele>
        <time>2025-04-26T11:08:49Z</time>
      </trkpt>
      <trkpt lat="45.41736" lon="-1.12964">
        <ele>67</ele>
        <time>2025-04-26T11:08:50Z</time>
      </trkpt>
      <trkpt lat="45.4174" lon="-1.12963">
        <ele>67</ele>
        <time>2025-04-26T11:08:51Z</time>
      </trkpt>
      <trkpt lat="45.41744" lon="-1.12963">
        <ele>67</ele>
        <time>2025-04-26T11:08:52Z</time>
      </trkpt>
      <trkpt lat="45.41747" lon="-1.12963">
        <ele>67</ele>
        <time>2025-04-26T11:08:53Z</time>
      </trkpt>
      <trkpt lat="45.41751" lon="-1.12962">
        <ele>67</ele>
        <time>2025-04-26T11:08:54Z</time>
      </trkpt>
      <trkpt lat="45.41755" lon="-1.12961">
        <ele>67</ele>
        <time>2025-04-26T11:08:55Z</time>
      </trkpt>
      <trkpt lat="45.41758" lon="-1.1296">
        <ele>68</ele>
        <time>2025-04-26T11:08:56Z</time>
      </trkpt>
      <trkpt lat="45.41762" lon="-1.1296">
        <ele>68</ele>
        <time>2025-04-26T11:08:57Z</time>
      </trkpt>
      <trkpt lat="45.41766" lon="-1.1296">
        <ele>67</ele>
        <time>2025-04-26T11:08:58Z</time>
      </trkpt>
      <trkpt lat="45.41771" lon="-1.1296">
        <ele>67</ele>
        <time>2025-04-26T11:08:59Z</time>
      </trkpt>
      <trkpt lat="45.41775" lon="-1.12959">
        <ele>67</ele>
        <time>2025-04-26T11:09:00Z</time>
      </trkpt>
      <trkpt lat="45.41779" lon="-1.12959">
        <ele>67</ele>
        <time>2025-04-26T11:09:01Z</time>
      </trkpt>
      <trkpt lat="45.41783" lon="-1.12958">
        <ele>67</ele>
        <time>2025-04-26T11:09:02Z</time>
      </trkpt>
      <trkpt lat="45.41786" lon="-1.12957">
        <ele>67</ele>
        <time>2025-04-26T11:09:03Z</time>
      </trkpt>
      <trkpt lat="45.4179" lon="-1.12957">
        <ele>67</ele>
        <time>2025-04-26T11:09:04Z</time>
      </trkpt>
      <trkpt lat="45.41794" lon="-1.12957">
        <ele>68</ele>
        <time>2025-04-26T11:09:05Z</time>
      </trkpt>
      <trkpt lat="45.41798" lon="-1.12956">
        <ele>68</ele>
        <time>2025-04-26T11:09:06Z</time>
      </trkpt>
      <trkpt lat="45.41803" lon="-1.12956">
        <ele>68</ele>
        <time>2025-04-26T11:09:07Z</time>
      </trkpt>
      <trkpt lat="45.41807" lon="-1.12956">
        <ele>68</ele>
        <time>2025-04-26T11:09:08Z</time>
      </trkpt>
      <trkpt lat="45.4181" lon="-1.12956">
        <ele>68</ele>
        <time>2025-04-26T11:09:09Z</time>
      </trkpt>
      <trkpt lat="45.41814" lon="-1.12955">
        <ele>69</ele>
        <time>2025-04-26T11:09:10Z</time>
      </trkpt>
      <trkpt lat="45.41817" lon="-1.12955">
        <ele>69</ele>
        <time>2025-04-26T11:09:11Z</time>
      </trkpt>
      <trkpt lat="45.41821" lon="-1.12955">
        <ele>69</ele>
        <time>2025-04-26T11:09:12Z</time>
      </trkpt>
      <trkpt lat="45.41824" lon="-1.12954">
        <ele>69</ele>
        <time>2025-04-26T11:09:13Z</time>
      </trkpt>
      <trkpt lat="45.41827" lon="-1.12954">
        <ele>70</ele>
        <time>2025-04-26T11:09:14Z</time>
      </trkpt>
      <trkpt lat="45.41831" lon="-1.12953">
        <ele>70</ele>
        <time>2025-04-26T11:09:15Z</time>
      </trkpt>
      <trkpt lat="45.41834" lon="-1.12953">
        <ele>70</ele>
        <time>2025-04-26T11:09:16Z</time>
      </trkpt>
      <trkpt lat="45.41838" lon="-1.12952">
        <ele>70</ele>
        <time>2025-04-26T11:09:17Z</time>
      </trkpt>
      <trkpt lat="45.41841" lon="-1.12952">
        <ele>70</ele>
        <time>2025-04-26T11:09:18Z</time>
      </trkpt>
      <trkpt lat="45.41845" lon="-1.12952">
        <ele>69</ele>
        <time>2025-04-26T11:09:19Z</time>
      </trkpt>
      <trkpt lat="45.41849" lon="-1.12952">
        <ele>69</ele>
        <time>2025-04-26T11:09:20Z</time>
      </trkpt>
      <trkpt lat="45.41853" lon="-1.12952">
        <ele>69</ele>
        <time>2025-04-26T11:09:21Z</time>
      </trkpt>
      <trkpt lat="45.41857" lon="-1.12952">
        <ele>69</ele>
        <time>2025-04-26T11:09:22Z</time>
      </trkpt>
      <trkpt lat="45.41861" lon="-1.12952">
        <ele>69</ele>
        <time>2025-04-26T11:09:23Z</time>
      </trkpt>
      <trkpt lat="45.41864" lon="-1.12951">
        <ele>68</ele>
        <time>2025-04-26T11:09:24Z</time>
      </trkpt>
      <trkpt lat="45.41869" lon="-1.12951">
        <ele>68</ele>
        <time>2025-04-26T11:09:25Z</time>
      </trkpt>
      <trkpt lat="45.41873" lon="-1.12951">
        <ele>68</ele>
        <time>2025-04-26T11:09:26Z</time>
      </trkpt>
      <trkpt lat="45.41877" lon="-1.12951">
        <ele>68</ele>
        <time>2025-04-26T11:09:27Z</time>
      </trkpt>
      <trkpt lat="45.41881" lon="-1.1295">
        <ele>68</ele>
        <time>2025-04-26T11:09:28Z</time>
      </trkpt>
      <trkpt lat="45.41886" lon="-1.1295">
        <ele>69</ele>
        <time>2025-04-26T11:09:29Z</time>
      </trkpt>
      <trkpt lat="45.4189" lon="-1.1295">
        <ele>69</ele>
        <time>2025-04-26T11:09:30Z</time>
      </trkpt>
      <trkpt lat="45.41895" lon="-1.1295">
        <ele>69</ele>
        <time>2025-04-26T11:09:31Z</time>
      </trkpt>
      <trkpt lat="45.41899" lon="-1.12949">
        <ele>70</ele>
        <time>2025-04-26T11:09:32Z</time>
      </trkpt>
      <trkpt lat="45.41903" lon="-1.12949">
        <ele>69</ele>
        <time>2025-04-26T11:09:33Z</time>
      </trkpt>
      <trkpt lat="45.41907" lon="-1.12949">
        <ele>69</ele>
        <time>2025-04-26T11:09:34Z</time>
      </trkpt>
      <trkpt lat="45.41911" lon="-1.12948">
        <ele>70</ele>
        <time>2025-04-26T11:09:35Z</time>
      </trkpt>
      <trkpt lat="45.41915" lon="-1.12947">
        <ele>70</ele>
        <time>2025-04-26T11:09:36Z</time>
      </trkpt>
      <trkpt lat="45.4192" lon="-1.12947">
        <ele>69</ele>
        <time>2025-04-26T11:09:37Z</time>
      </trkpt>
      <trkpt lat="45.41924" lon="-1.12947">
        <ele>69</ele>
        <time>2025-04-26T11:09:38Z</time>
      </trkpt>
      <trkpt lat="45.41928" lon="-1.12947">
        <ele>69</ele>
        <time>2025-04-26T11:09:39Z</time>
      </trkpt>
      <trkpt lat="45.41933" lon="-1.12947">
        <ele>69</ele>
        <time>2025-04-26T11:09:40Z</time>
      </trkpt>
      <trkpt lat="45.41937" lon="-1.12946">
        <ele>68</ele>
        <time>2025-04-26T11:09:41Z</time>
      </trkpt>
      <trkpt lat="45.41941" lon="-1.12946">
        <ele>68</ele>
        <time>2025-04-26T11:09:42Z</time>
      </trkpt>
      <trkpt lat="45.41946" lon="-1.12946">
        <ele>68</ele>
        <time>2025-04-26T11:09:43Z</time>
      </trkpt>
      <trkpt lat="45.4195" lon="-1.12946">
        <ele>68</ele>
        <time>2025-04-26T11:09:44Z</time>
      </trkpt>
      <trkpt lat="45.41954" lon="-1.12946">
        <ele>68</ele>
        <time>2025-04-26T11:09:45Z</time>
      </trkpt>
      <trkpt lat="45.41959" lon="-1.12945">
        <ele>68</ele>
        <time>2025-04-26T11:09:46Z</time>
      </trkpt>
      <trkpt lat="45.41963" lon="-1.12946">
        <ele>68</ele>
        <time>2025-04-26T11:09:47Z</time>
      </trkpt>
      <trkpt lat="45.41968" lon="-1.12945">
        <ele>67</ele>
        <time>2025-04-26T11:09:48Z</time>
      </trkpt>
      <trkpt lat="45.41973" lon="-1.12945">
        <ele>67</ele>
        <time>2025-04-26T11:09:49Z</time>
      </trkpt>
      <trkpt lat="45.41977" lon="-1.12944">
        <ele>67</ele>
        <time>2025-04-26T11:09:50Z</time>
      </trkpt>
      <trkpt lat="45.41982" lon="-1.12944">
        <ele>67</ele>
        <time>2025-04-26T11:09:51Z</time>
      </trkpt>
      <trkpt lat="45.41986" lon="-1.12943">
        <ele>67</ele>
        <time>2025-04-26T11:09:52Z</time>
      </trkpt>
      <trkpt lat="45.4199" lon="-1.12943">
        <ele>66</ele>
        <time>2025-04-26T11:09:53Z</time>
      </trkpt>
      <trkpt lat="45.41995" lon="-1.12943">
        <ele>66</ele>
        <time>2025-04-26T11:09:54Z</time>
      </trkpt>
      <trkpt lat="45.42" lon="-1.12943">
        <ele>66</ele>
        <time>2025-04-26T11:09:55Z</time>
      </trkpt>
      <trkpt lat="45.42005" lon="-1.12942">
        <ele>65</ele>
        <time>2025-04-26T11:09:56Z</time>
      </trkpt>
      <trkpt lat="45.4201" lon="-1.12942">
        <ele>65</ele>
        <time>2025-04-26T11:09:57Z</time>
      </trkpt>
      <trkpt lat="45.42014" lon="-1.12941">
        <ele>65</ele>
        <time>2025-04-26T11:09:58Z</time>
      </trkpt>
      <trkpt lat="45.42019" lon="-1.12941">
        <ele>65</ele>
        <time>2025-04-26T11:09:59Z</time>
      </trkpt>
      <trkpt lat="45.42023" lon="-1.12941">
        <ele>65</ele>
        <time>2025-04-26T11:10:00Z</time>
      </trkpt>
      <trkpt lat="45.42028" lon="-1.1294">
        <ele>65</ele>
        <time>2025-04-26T11:10:01Z</time>
      </trkpt>
      <trkpt lat="45.42032" lon="-1.1294">
        <ele>65</ele>
        <time>2025-04-26T11:10:02Z</time>
      </trkpt>
      <trkpt lat="45.42036" lon="-1.1294">
        <ele>65</ele>
        <time>2025-04-26T11:10:03Z</time>
      </trkpt>
      <trkpt lat="45.4204" lon="-1.1294">
        <ele>65</ele>
        <time>2025-04-26T11:10:04Z</time>
      </trkpt>
      <trkpt lat="45.42044" lon="-1.12939">
        <ele>65</ele>
        <time>2025-04-26T11:10:05Z</time>
      </trkpt>
      <trkpt lat="45.42049" lon="-1.12938">
        <ele>65</ele>
        <time>2025-04-26T11:10:06Z</time>
      </trkpt>
      <trkpt lat="45.42054" lon="-1.12938">
        <ele>65</ele>
        <time>2025-04-26T11:10:07Z</time>
      </trkpt>
      <trkpt lat="45.42058" lon="-1.12937">
        <ele>66</ele>
        <time>2025-04-26T11:10:08Z</time>
      </trkpt>
      <trkpt lat="45.42063" lon="-1.12937">
        <ele>66</ele>
        <time>2025-04-26T11:10:09Z</time>
      </trkpt>
      <trkpt lat="45.42067" lon="-1.12937">
        <ele>66</ele>
        <time>2025-04-26T11:10:10Z</time>
      </trkpt>
      <trkpt lat="45.42071" lon="-1.12936">
        <ele>65</ele>
        <time>2025-04-26T11:10:11Z</time>
      </trkpt>
      <trkpt lat="45.42075" lon="-1.12936">
        <ele>65</ele>
        <time>2025-04-26T11:10:12Z</time>
      </trkpt>
      <trkpt lat="45.4208" lon="-1.12936">
        <ele>65</ele>
        <time>2025-04-26T11:10:13Z</time>
      </trkpt>
      <trkpt lat="45.42084" lon="-1.12936">
        <ele>65</ele>
        <time>2025-04-26T11:10:14Z</time>
      </trkpt>
      <trkpt lat="45.42088" lon="-1.12935">
        <ele>65</ele>
        <time>2025-04-26T11:10:15Z</time>
      </trkpt>
      <trkpt lat="45.42093" lon="-1.12935">
        <ele>65</ele>
        <time>2025-04-26T11:10:16Z</time>
      </trkpt>
      <trkpt lat="45.42097" lon="-1.12935">
        <ele>65</ele>
        <time>2025-04-26T11:10:17Z</time>
      </trkpt>
      <trkpt lat="45.42101" lon="-1.12935">
        <ele>65</ele>
        <time>2025-04-26T11:10:18Z</time>
      </trkpt>
      <trkpt lat="45.42106" lon="-1.12935">
        <ele>65</ele>
        <time>2025-04-26T11:10:19Z</time>
      </trkpt>
      <trkpt lat="45.4211" lon="-1.12935">
        <ele>66</ele>
        <time>2025-04-26T11:10:20Z</time>
      </trkpt>
      <trkpt lat="45.42114" lon="-1.12934">
        <ele>66</ele>
        <time>2025-04-26T11:10:21Z</time>
      </trkpt>
      <trkpt lat="45.42118" lon="-1.12933">
        <ele>66</ele>
        <time>2025-04-26T11:10:22Z</time>
      </trkpt>
      <trkpt lat="45.42122" lon="-1.12932">
        <ele>66</ele>
        <time>2025-04-26T11:10:23Z</time>
      </trkpt>
      <trkpt lat="45.42126" lon="-1.1293">
        <ele>66</ele>
        <time>2025-04-26T11:10:24Z</time>
      </trkpt>
      <trkpt lat="45.4213" lon="-1.12929">
        <ele>66</ele>
        <time>2025-04-26T11:10:25Z</time>
      </trkpt>
      <trkpt lat="45.42135" lon="-1.12928">
        <ele>66</ele>
        <time>2025-04-26T11:10:26Z</time>
      </trkpt>
      <trkpt lat="45.42139" lon="-1.12927">
        <ele>67</ele>
        <time>2025-04-26T11:10:27Z</time>
      </trkpt>
      <trkpt lat="45.42143" lon="-1.12926">
        <ele>67</ele>
        <time>2025-04-26T11:10:28Z</time>
      </trkpt>
      <trkpt lat="45.42147" lon="-1.12925">
        <ele>68</ele>
        <time>2025-04-26T11:10:29Z</time>
      </trkpt>
      <trkpt lat="45.42151" lon="-1.12925">
        <ele>68</ele>
        <time>2025-04-26T11:10:30Z</time>
      </trkpt>
      <trkpt lat="45.42155" lon="-1.12924">
        <ele>69</ele>
        <time>2025-04-26T11:10:31Z</time>
      </trkpt>
      <trkpt lat="45.4216" lon="-1.12925">
        <ele>70</ele>
        <time>2025-04-26T11:10:32Z</time>
      </trkpt>
      <trkpt lat="45.42164" lon="-1.12925">
        <ele>70</ele>
        <time>2025-04-26T11:10:33Z</time>
      </trkpt>
      <trkpt lat="45.42168" lon="-1.12924">
        <ele>71</ele>
        <time>2025-04-26T11:10:34Z</time>
      </trkpt>
      <trkpt lat="45.42172" lon="-1.12924">
        <ele>72</ele>
        <time>2025-04-26T11:10:35Z</time>
      </trkpt>
      <trkpt lat="45.42177" lon="-1.12924">
        <ele>71</ele>
        <time>2025-04-26T11:10:36Z</time>
      </trkpt>
      <trkpt lat="45.42182" lon="-1.12924">
        <ele>71</ele>
        <time>2025-04-26T11:10:37Z</time>
      </trkpt>
      <trkpt lat="45.42186" lon="-1.12924">
        <ele>71</ele>
        <time>2025-04-26T11:10:38Z</time>
      </trkpt>
      <trkpt lat="45.42191" lon="-1.12924">
        <ele>71</ele>
        <time>2025-04-26T11:10:39Z</time>
      </trkpt>
      <trkpt lat="45.42195" lon="-1.12924">
        <ele>70</ele>
        <time>2025-04-26T11:10:40Z</time>
      </trkpt>
      <trkpt lat="45.42199" lon="-1.12923">
        <ele>70</ele>
        <time>2025-04-26T11:10:41Z</time>
      </trkpt>
      <trkpt lat="45.42204" lon="-1.12923">
        <ele>70</ele>
        <time>2025-04-26T11:10:42Z</time>
      </trkpt>
      <trkpt lat="45.42208" lon="-1.12922">
        <ele>69</ele>
        <time>2025-04-26T11:10:43Z</time>
      </trkpt>
      <trkpt lat="45.42212" lon="-1.12922">
        <ele>69</ele>
        <time>2025-04-26T11:10:44Z</time>
      </trkpt>
      <trkpt lat="45.42216" lon="-1.12922">
        <ele>68</ele>
        <time>2025-04-26T11:10:45Z</time>
      </trkpt>
      <trkpt lat="45.4222" lon="-1.12921">
        <ele>68</ele>
        <time>2025-04-26T11:10:46Z</time>
      </trkpt>
      <trkpt lat="45.42224" lon="-1.1292">
        <ele>68</ele>
        <time>2025-04-26T11:10:47Z</time>
      </trkpt>
      <trkpt lat="45.42228" lon="-1.12919">
        <ele>68</ele>
        <time>2025-04-26T11:10:48Z</time>
      </trkpt>
      <trkpt lat="45.42232" lon="-1.12918">
        <ele>67</ele>
        <time>2025-04-26T11:10:49Z</time>
      </trkpt>
      <trkpt lat="45.42236" lon="-1.12918">
        <ele>67</ele>
        <time>2025-04-26T11:10:50Z</time>
      </trkpt>
      <trkpt lat="45.42241" lon="-1.12918">
        <ele>66</ele>
        <time>2025-04-26T11:10:51Z</time>
      </trkpt>
      <trkpt lat="45.42245" lon="-1.12918">
        <ele>66</ele>
        <time>2025-04-26T11:10:52Z</time>
      </trkpt>
      <trkpt lat="45.42249" lon="-1.12917">
        <ele>66</ele>
        <time>2025-04-26T11:10:53Z</time>
      </trkpt>
      <trkpt lat="45.42254" lon="-1.12917">
        <ele>65</ele>
        <time>2025-04-26T11:10:54Z</time>
      </trkpt>
      <trkpt lat="45.42258" lon="-1.12917">
        <ele>66</ele>
        <time>2025-04-26T11:10:55Z</time>
      </trkpt>
      <trkpt lat="45.42262" lon="-1.12917">
        <ele>66</ele>
        <time>2025-04-26T11:10:56Z</time>
      </trkpt>
      <trkpt lat="45.42266" lon="-1.12916">
        <ele>66</ele>
        <time>2025-04-26T11:10:57Z</time>
      </trkpt>
      <trkpt lat="45.4227" lon="-1.12916">
        <ele>66</ele>
        <time>2025-04-26T11:10:58Z</time>
      </trkpt>
      <trkpt lat="45.42274" lon="-1.12916">
        <ele>66</ele>
        <time>2025-04-26T11:10:59Z</time>
      </trkpt>
      <trkpt lat="45.42278" lon="-1.12916">
        <ele>66</ele>
        <time>2025-04-26T11:11:00Z</time>
      </trkpt>
      <trkpt lat="45.42281" lon="-1.12915">
        <ele>66</ele>
        <time>2025-04-26T11:11:01Z</time>
      </trkpt>
      <trkpt lat="45.42285" lon="-1.12915">
        <ele>66</ele>
        <time>2025-04-26T11:11:02Z</time>
      </trkpt>
      <trkpt lat="45.42288" lon="-1.12915">
        <ele>66</ele>
        <time>2025-04-26T11:11:03Z</time>
      </trkpt>
      <trkpt lat="45.4229" lon="-1.12915">
        <ele>66</ele>
        <time>2025-04-26T11:11:04Z</time>
      </trkpt>
      <trkpt lat="45.42293" lon="-1.12915">
        <ele>66</ele>
        <time>2025-04-26T11:11:05Z</time>
      </trkpt>
      <trkpt lat="45.42295" lon="-1.12914">
        <ele>67</ele>
        <time>2025-04-26T11:11:06Z</time>
      </trkpt>
      <trkpt lat="45.42298" lon="-1.12914">
        <ele>68</ele>
        <time>2025-04-26T11:11:07Z</time>
      </trkpt>
      <trkpt lat="45.42301" lon="-1.12914">
        <ele>68</ele>
        <time>2025-04-26T11:11:08Z</time>
      </trkpt>
      <trkpt lat="45.42304" lon="-1.12913">
        <ele>68</ele>
        <time>2025-04-26T11:11:09Z</time>
      </trkpt>
      <trkpt lat="45.42307" lon="-1.12913">
        <ele>68</ele>
        <time>2025-04-26T11:11:10Z</time>
      </trkpt>
      <trkpt lat="45.4231" lon="-1.12913">
        <ele>68</ele>
        <time>2025-04-26T11:11:11Z</time>
      </trkpt>
      <trkpt lat="45.42313" lon="-1.12913">
        <ele>68</ele>
        <time>2025-04-26T11:11:12Z</time>
      </trkpt>
      <trkpt lat="45.42317" lon="-1.12912">
        <ele>68</ele>
        <time>2025-04-26T11:11:13Z</time>
      </trkpt>
      <trkpt lat="45.4232" lon="-1.12912">
        <ele>68</ele>
        <time>2025-04-26T11:11:14Z</time>
      </trkpt>
      <trkpt lat="45.42323" lon="-1.12912">
        <ele>67</ele>
        <time>2025-04-26T11:11:15Z</time>
      </trkpt>
      <trkpt lat="45.42326" lon="-1.12912">
        <ele>67</ele>
        <time>2025-04-26T11:11:16Z</time>
      </trkpt>
      <trkpt lat="45.42329" lon="-1.12912">
        <ele>67</ele>
        <time>2025-04-26T11:11:17Z</time>
      </trkpt>
      <trkpt lat="45.42333" lon="-1.12911">
        <ele>67</ele>
        <time>2025-04-26T11:11:18Z</time>
      </trkpt>
      <trkpt lat="45.42336" lon="-1.12911">
        <ele>67</ele>
        <time>2025-04-26T11:11:19Z</time>
      </trkpt>
      <trkpt lat="45.4234" lon="-1.1291">
        <ele>67</ele>
        <time>2025-04-26T11:11:20Z</time>
      </trkpt>
      <trkpt lat="45.42344" lon="-1.1291">
        <ele>66</ele>
        <time>2025-04-26T11:11:21Z</time>
      </trkpt>
      <trkpt lat="45.42348" lon="-1.1291">
        <ele>66</ele>
        <time>2025-04-26T11:11:22Z</time>
      </trkpt>
      <trkpt lat="45.42351" lon="-1.12909">
        <ele>65</ele>
        <time>2025-04-26T11:11:23Z</time>
      </trkpt>
      <trkpt lat="45.42355" lon="-1.12908">
        <ele>65</ele>
        <time>2025-04-26T11:11:24Z</time>
      </trkpt>
      <trkpt lat="45.42359" lon="-1.12908">
        <ele>65</ele>
        <time>2025-04-26T11:11:25Z</time>
      </trkpt>
      <trkpt lat="45.42363" lon="-1.12908">
        <ele>65</ele>
        <time>2025-04-26T11:11:26Z</time>
      </trkpt>
      <trkpt lat="45.42367" lon="-1.12908">
        <ele>65</ele>
        <time>2025-04-26T11:11:27Z</time>
      </trkpt>
      <trkpt lat="45.42371" lon="-1.12908">
        <ele>66</ele>
        <time>2025-04-26T11:11:28Z</time>
      </trkpt>
      <trkpt lat="45.42375" lon="-1.12908">
        <ele>66</ele>
        <time>2025-04-26T11:11:29Z</time>
      </trkpt>
      <trkpt lat="45.42379" lon="-1.12908">
        <ele>66</ele>
        <time>2025-04-26T11:11:30Z</time>
      </trkpt>
      <trkpt lat="45.42382" lon="-1.12909">
        <ele>66</ele>
        <time>2025-04-26T11:11:31Z</time>
      </trkpt>
      <trkpt lat="45.42385" lon="-1.1291">
        <ele>67</ele>
        <time>2025-04-26T11:11:32Z</time>
      </trkpt>
      <trkpt lat="45.42388" lon="-1.12912">
        <ele>67</ele>
        <time>2025-04-26T11:11:33Z</time>
      </trkpt>
      <trkpt lat="45.42391" lon="-1.12913">
        <ele>68</ele>
        <time>2025-04-26T11:11:34Z</time>
      </trkpt>
      <trkpt lat="45.42395" lon="-1.12915">
        <ele>68</ele>
        <time>2025-04-26T11:11:35Z</time>
      </trkpt>
      <trkpt lat="45.424" lon="-1.12915">
        <ele>68</ele>
        <time>2025-04-26T11:11:36Z</time>
      </trkpt>
      <trkpt lat="45.42404" lon="-1.12916">
        <ele>69</ele>
        <time>2025-04-26T11:11:37Z</time>
      </trkpt>
      <trkpt lat="45.42408" lon="-1.12917">
        <ele>69</ele>
        <time>2025-04-26T11:11:38Z</time>
      </trkpt>
      <trkpt lat="45.42411" lon="-1.12917">
        <ele>69</ele>
        <time>2025-04-26T11:11:39Z</time>
      </trkpt>
      <trkpt lat="45.42415" lon="-1.12915">
        <ele>68</ele>
        <time>2025-04-26T11:11:40Z</time>
      </trkpt>
      <trkpt lat="45.42418" lon="-1.12912">
        <ele>68</ele>
        <time>2025-04-26T11:11:41Z</time>
      </trkpt>
      <trkpt lat="45.42421" lon="-1.12908">
        <ele>68</ele>
        <time>2025-04-26T11:11:42Z</time>
      </trkpt>
      <trkpt lat="45.42424" lon="-1.12905">
        <ele>67</ele>
        <time>2025-04-26T11:11:43Z</time>
      </trkpt>
      <trkpt lat="45.42427" lon="-1.12902">
        <ele>67</ele>
        <time>2025-04-26T11:11:44Z</time>
      </trkpt>
      <trkpt lat="45.42431" lon="-1.12901">
        <ele>67</ele>
        <time>2025-04-26T11:11:45Z</time>
      </trkpt>
      <trkpt lat="45.42435" lon="-1.12901">
        <ele>67</ele>
        <time>2025-04-26T11:11:46Z</time>
      </trkpt>
      <trkpt lat="45.42439" lon="-1.129">
        <ele>66</ele>
        <time>2025-04-26T11:11:47Z</time>
      </trkpt>
      <trkpt lat="45.42443" lon="-1.129">
        <ele>66</ele>
        <time>2025-04-26T11:11:48Z</time>
      </trkpt>
      <trkpt lat="45.42446" lon="-1.129">
        <ele>66</ele>
        <time>2025-04-26T11:11:49Z</time>
      </trkpt>
      <trkpt lat="45.4245" lon="-1.129">
        <ele>66</ele>
        <time>2025-04-26T11:11:50Z</time>
      </trkpt>
      <trkpt lat="45.42454" lon="-1.129">
        <ele>66</ele>
        <time>2025-04-26T11:11:51Z</time>
      </trkpt>
      <trkpt lat="45.42459" lon="-1.129">
        <ele>66</ele>
        <time>2025-04-26T11:11:52Z</time>
      </trkpt>
      <trkpt lat="45.42463" lon="-1.129">
        <ele>66</ele>
        <time>2025-04-26T11:11:53Z</time>
      </trkpt>
      <trkpt lat="45.42466" lon="-1.129">
        <ele>66</ele>
        <time>2025-04-26T11:11:54Z</time>
      </trkpt>
      <trkpt lat="45.4247" lon="-1.129">
        <ele>66</ele>
        <time>2025-04-26T11:11:55Z</time>
      </trkpt>
      <trkpt lat="45.42474" lon="-1.129">
        <ele>66</ele>
        <time>2025-04-26T11:11:56Z</time>
      </trkpt>
      <trkpt lat="45.42478" lon="-1.129">
        <ele>65</ele>
        <time>2025-04-26T11:11:57Z</time>
      </trkpt>
      <trkpt lat="45.42482" lon="-1.129">
        <ele>66</ele>
        <time>2025-04-26T11:11:58Z</time>
      </trkpt>
      <trkpt lat="45.42486" lon="-1.129">
        <ele>66</ele>
        <time>2025-04-26T11:11:59Z</time>
      </trkpt>
      <trkpt lat="45.4249" lon="-1.129">
        <ele>66</ele>
        <time>2025-04-26T11:12:00Z</time>
      </trkpt>
      <trkpt lat="45.42494" lon="-1.129">
        <ele>65</ele>
        <time>2025-04-26T11:12:01Z</time>
      </trkpt>
      <trkpt lat="45.42498" lon="-1.12899">
        <ele>66</ele>
        <time>2025-04-26T11:12:02Z</time>
      </trkpt>
      <trkpt lat="45.42503" lon="-1.12899">
        <ele>66</ele>
        <time>2025-04-26T11:12:03Z</time>
      </trkpt>
      <trkpt lat="45.42506" lon="-1.129">
        <ele>66</ele>
        <time>2025-04-26T11:12:04Z</time>
      </trkpt>
      <trkpt lat="45.42511" lon="-1.129">
        <ele>66</ele>
        <time>2025-04-26T11:12:05Z</time>
      </trkpt>
      <trkpt lat="45.42514" lon="-1.129">
        <ele>66</ele>
        <time>2025-04-26T11:12:06Z</time>
      </trkpt>
      <trkpt lat="45.42518" lon="-1.12899">
        <ele>66</ele>
        <time>2025-04-26T11:12:07Z</time>
      </trkpt>
      <trkpt lat="45.42522" lon="-1.12899">
        <ele>66</ele>
        <time>2025-04-26T11:12:08Z</time>
      </trkpt>
      <trkpt lat="45.42526" lon="-1.12899">
        <ele>66</ele>
        <time>2025-04-26T11:12:09Z</time>
      </trkpt>
      <trkpt lat="45.42529" lon="-1.12899">
        <ele>66</ele>
        <time>2025-04-26T11:12:10Z</time>
      </trkpt>
      <trkpt lat="45.42533" lon="-1.12899">
        <ele>66</ele>
        <time>2025-04-26T11:12:11Z</time>
      </trkpt>
      <trkpt lat="45.42537" lon="-1.12899">
        <ele>66</ele>
        <time>2025-04-26T11:12:12Z</time>
      </trkpt>
      <trkpt lat="45.42541" lon="-1.12899">
        <ele>66</ele>
        <time>2025-04-26T11:12:13Z</time>
      </trkpt>
      <trkpt lat="45.42545" lon="-1.12899">
        <ele>66</ele>
        <time>2025-04-26T11:12:14Z</time>
      </trkpt>
      <trkpt lat="45.42548" lon="-1.12899">
        <ele>65</ele>
        <time>2025-04-26T11:12:15Z</time>
      </trkpt>
      <trkpt lat="45.42552" lon="-1.12899">
        <ele>65</ele>
        <time>2025-04-26T11:12:16Z</time>
      </trkpt>
      <trkpt lat="45.42556" lon="-1.12899">
        <ele>65</ele>
        <time>2025-04-26T11:12:17Z</time>
      </trkpt>
      <trkpt lat="45.4256" lon="-1.12899">
        <ele>65</ele>
        <time>2025-04-26T11:12:18Z</time>
      </trkpt>
      <trkpt lat="45.42563" lon="-1.12899">
        <ele>65</ele>
        <time>2025-04-26T11:12:19Z</time>
      </trkpt>
      <trkpt lat="45.42567" lon="-1.12899">
        <ele>65</ele>
        <time>2025-04-26T11:12:20Z</time>
      </trkpt>
      <trkpt lat="45.42571" lon="-1.12898">
        <ele>64</ele>
        <time>2025-04-26T11:12:21Z</time>
      </trkpt>
      <trkpt lat="45.42575" lon="-1.12899">
        <ele>64</ele>
        <time>2025-04-26T11:12:22Z</time>
      </trkpt>
      <trkpt lat="45.42579" lon="-1.12899">
        <ele>64</ele>
        <time>2025-04-26T11:12:23Z</time>
      </trkpt>
      <trkpt lat="45.42582" lon="-1.12899">
        <ele>65</ele>
        <time>2025-04-26T11:12:24Z</time>
      </trkpt>
      <trkpt lat="45.42586" lon="-1.12899">
        <ele>65</ele>
        <time>2025-04-26T11:12:25Z</time>
      </trkpt>
      <trkpt lat="45.42589" lon="-1.12899">
        <ele>65</ele>
        <time>2025-04-26T11:12:26Z</time>
      </trkpt>
      <trkpt lat="45.42593" lon="-1.12899">
        <ele>64</ele>
        <time>2025-04-26T11:12:27Z</time>
      </trkpt>
      <trkpt lat="45.42597" lon="-1.12899">
        <ele>64</ele>
        <time>2025-04-26T11:12:28Z</time>
      </trkpt>
      <trkpt lat="45.42601" lon="-1.12899">
        <ele>64</ele>
        <time>2025-04-26T11:12:29Z</time>
      </trkpt>
      <trkpt lat="45.42605" lon="-1.12899">
        <ele>64</ele>
        <time>2025-04-26T11:12:30Z</time>
      </trkpt>
      <trkpt lat="45.42609" lon="-1.129">
        <ele>64</ele>
        <time>2025-04-26T11:12:31Z</time>
      </trkpt>
      <trkpt lat="45.42613" lon="-1.129">
        <ele>64</ele>
        <time>2025-04-26T11:12:32Z</time>
      </trkpt>
      <trkpt lat="45.42617" lon="-1.12899">
        <ele>64</ele>
        <time>2025-04-26T11:12:33Z</time>
      </trkpt>
      <trkpt lat="45.42621" lon="-1.12899">
        <ele>63</ele>
        <time>2025-04-26T11:12:34Z</time>
      </trkpt>
      <trkpt lat="45.42625" lon="-1.12899">
        <ele>64</ele>
        <time>2025-04-26T11:12:35Z</time>
      </trkpt>
      <trkpt lat="45.42628" lon="-1.12899">
        <ele>63</ele>
        <time>2025-04-26T11:12:36Z</time>
      </trkpt>
      <trkpt lat="45.42632" lon="-1.12899">
        <ele>63</ele>
        <time>2025-04-26T11:12:37Z</time>
      </trkpt>
      <trkpt lat="45.42636" lon="-1.129">
        <ele>63</ele>
        <time>2025-04-26T11:12:38Z</time>
      </trkpt>
      <trkpt lat="45.4264" lon="-1.129">
        <ele>63</ele>
        <time>2025-04-26T11:12:39Z</time>
      </trkpt>
      <trkpt lat="45.42643" lon="-1.129">
        <ele>63</ele>
        <time>2025-04-26T11:12:40Z</time>
      </trkpt>
      <trkpt lat="45.42647" lon="-1.12899">
        <ele>63</ele>
        <time>2025-04-26T11:12:41Z</time>
      </trkpt>
      <trkpt lat="45.42651" lon="-1.12899">
        <ele>64</ele>
        <time>2025-04-26T11:12:42Z</time>
      </trkpt>
      <trkpt lat="45.42655" lon="-1.12899">
        <ele>64</ele>
        <time>2025-04-26T11:12:43Z</time>
      </trkpt>
      <trkpt lat="45.42659" lon="-1.12899">
        <ele>64</ele>
        <time>2025-04-26T11:12:44Z</time>
      </trkpt>
      <trkpt lat="45.42663" lon="-1.12898">
        <ele>64</ele>
        <time>2025-04-26T11:12:45Z</time>
      </trkpt>
      <trkpt lat="45.42667" lon="-1.12899">
        <ele>65</ele>
        <time>2025-04-26T11:12:46Z</time>
      </trkpt>
      <trkpt lat="45.42671" lon="-1.12899">
        <ele>65</ele>
        <time>2025-04-26T11:12:47Z</time>
      </trkpt>
      <trkpt lat="45.42675" lon="-1.12899">
        <ele>65</ele>
        <time>2025-04-26T11:12:48Z</time>
      </trkpt>
      <trkpt lat="45.42679" lon="-1.12899">
        <ele>65</ele>
        <time>2025-04-26T11:12:49Z</time>
      </trkpt>
      <trkpt lat="45.42683" lon="-1.12899">
        <ele>65</ele>
        <time>2025-04-26T11:12:50Z</time>
      </trkpt>
      <trkpt lat="45.42687" lon="-1.12899">
        <ele>64</ele>
        <time>2025-04-26T11:12:51Z</time>
      </trkpt>
      <trkpt lat="45.42692" lon="-1.12899">
        <ele>64</ele>
        <time>2025-04-26T11:12:52Z</time>
      </trkpt>
      <trkpt lat="45.42696" lon="-1.12899">
        <ele>65</ele>
        <time>2025-04-26T11:12:53Z</time>
      </trkpt>
      <trkpt lat="45.427" lon="-1.12899">
        <ele>65</ele>
        <time>2025-04-26T11:12:54Z</time>
      </trkpt>
      <trkpt lat="45.42704" lon="-1.129">
        <ele>64</ele>
        <time>2025-04-26T11:12:55Z</time>
      </trkpt>
      <trkpt lat="45.42708" lon="-1.129">
        <ele>64</ele>
        <time>2025-04-26T11:12:56Z</time>
      </trkpt>
      <trkpt lat="45.42712" lon="-1.129">
        <ele>64</ele>
        <time>2025-04-26T11:12:57Z</time>
      </trkpt>
      <trkpt lat="45.42716" lon="-1.129">
        <ele>65</ele>
        <time>2025-04-26T11:12:58Z</time>
      </trkpt>
      <trkpt lat="45.4272" lon="-1.12901">
        <ele>65</ele>
        <time>2025-04-26T11:12:59Z</time>
      </trkpt>
      <trkpt lat="45.42724" lon="-1.129">
        <ele>65</ele>
        <time>2025-04-26T11:13:00Z</time>
      </trkpt>
      <trkpt lat="45.42728" lon="-1.129">
        <ele>65</ele>
        <time>2025-04-26T11:13:01Z</time>
      </trkpt>
      <trkpt lat="45.42731" lon="-1.129">
        <ele>65</ele>
        <time>2025-04-26T11:13:02Z</time>
      </trkpt>
      <trkpt lat="45.42735" lon="-1.129">
        <ele>64</ele>
        <time>2025-04-26T11:13:03Z</time>
      </trkpt>
      <trkpt lat="45.42738" lon="-1.12899">
        <ele>64</ele>
        <time>2025-04-26T11:13:04Z</time>
      </trkpt>
      <trkpt lat="45.42742" lon="-1.12901">
        <ele>64</ele>
        <time>2025-04-26T11:13:05Z</time>
      </trkpt>
      <trkpt lat="45.42745" lon="-1.12903">
        <ele>64</ele>
        <time>2025-04-26T11:13:06Z</time>
      </trkpt>
      <trkpt lat="45.42748" lon="-1.12905">
        <ele>64</ele>
        <time>2025-04-26T11:13:07Z</time>
      </trkpt>
      <trkpt lat="45.42751" lon="-1.12908">
        <ele>65</ele>
        <time>2025-04-26T11:13:08Z</time>
      </trkpt>
      <trkpt lat="45.42754" lon="-1.12911">
        <ele>64</ele>
        <time>2025-04-26T11:13:09Z</time>
      </trkpt>
      <trkpt lat="45.42758" lon="-1.12913">
        <ele>65</ele>
        <time>2025-04-26T11:13:10Z</time>
      </trkpt>
      <trkpt lat="45.42762" lon="-1.12915">
        <ele>65</ele>
        <time>2025-04-26T11:13:11Z</time>
      </trkpt>
      <trkpt lat="45.42766" lon="-1.12916">
        <ele>66</ele>
        <time>2025-04-26T11:13:12Z</time>
      </trkpt>
      <trkpt lat="45.4277" lon="-1.12916">
        <ele>66</ele>
        <time>2025-04-26T11:13:13Z</time>
      </trkpt>
      <trkpt lat="45.42775" lon="-1.12916">
        <ele>66</ele>
        <time>2025-04-26T11:13:14Z</time>
      </trkpt>
      <trkpt lat="45.42778" lon="-1.12916">
        <ele>66</ele>
        <time>2025-04-26T11:13:15Z</time>
      </trkpt>
      <trkpt lat="45.42782" lon="-1.12916">
        <ele>65</ele>
        <time>2025-04-26T11:13:16Z</time>
      </trkpt>
      <trkpt lat="45.42786" lon="-1.12916">
        <ele>65</ele>
        <time>2025-04-26T11:13:17Z</time>
      </trkpt>
      <trkpt lat="45.4279" lon="-1.12915">
        <ele>65</ele>
        <time>2025-04-26T11:13:18Z</time>
      </trkpt>
      <trkpt lat="45.42793" lon="-1.12914">
        <ele>65</ele>
        <time>2025-04-26T11:13:19Z</time>
      </trkpt>
      <trkpt lat="45.42797" lon="-1.12913">
        <ele>65</ele>
        <time>2025-04-26T11:13:20Z</time>
      </trkpt>
      <trkpt lat="45.42801" lon="-1.12911">
        <ele>65</ele>
        <time>2025-04-26T11:13:21Z</time>
      </trkpt>
      <trkpt lat="45.42804" lon="-1.12908">
        <ele>65</ele>
        <time>2025-04-26T11:13:22Z</time>
      </trkpt>
      <trkpt lat="45.42808" lon="-1.12904">
        <ele>65</ele>
        <time>2025-04-26T11:13:23Z</time>
      </trkpt>
      <trkpt lat="45.42812" lon="-1.12901">
        <ele>65</ele>
        <time>2025-04-26T11:13:24Z</time>
      </trkpt>
      <trkpt lat="45.42816" lon="-1.12899">
        <ele>66</ele>
        <time>2025-04-26T11:13:25Z</time>
      </trkpt>
      <trkpt lat="45.42819" lon="-1.12898">
        <ele>66</ele>
        <time>2025-04-26T11:13:26Z</time>
      </trkpt>
      <trkpt lat="45.42823" lon="-1.12897">
        <ele>67</ele>
        <time>2025-04-26T11:13:27Z</time>
      </trkpt>
      <trkpt lat="45.42828" lon="-1.12897">
        <ele>67</ele>
        <time>2025-04-26T11:13:28Z</time>
      </trkpt>
      <trkpt lat="45.42832" lon="-1.12897">
        <ele>67</ele>
        <time>2025-04-26T11:13:29Z</time>
      </trkpt>
      <trkpt lat="45.42836" lon="-1.12897">
        <ele>67</ele>
        <time>2025-04-26T11:13:30Z</time>
      </trkpt>
      <trkpt lat="45.4284" lon="-1.12896">
        <ele>67</ele>
        <time>2025-04-26T11:13:31Z</time>
      </trkpt>
      <trkpt lat="45.42844" lon="-1.12896">
        <ele>68</ele>
        <time>2025-04-26T11:13:32Z</time>
      </trkpt>
      <trkpt lat="45.42848" lon="-1.12896">
        <ele>68</ele>
        <time>2025-04-26T11:13:33Z</time>
      </trkpt>
      <trkpt lat="45.42852" lon="-1.12896">
        <ele>68</ele>
        <time>2025-04-26T11:13:34Z</time>
      </trkpt>
      <trkpt lat="45.42855" lon="-1.12896">
        <ele>68</ele>
        <time>2025-04-26T11:13:35Z</time>
      </trkpt>
      <trkpt lat="45.42859" lon="-1.12897">
        <ele>68</ele>
        <time>2025-04-26T11:13:36Z</time>
      </trkpt>
      <trkpt lat="45.42863" lon="-1.12897">
        <ele>67</ele>
        <time>2025-04-26T11:13:37Z</time>
      </trkpt>
      <trkpt lat="45.42867" lon="-1.12898">
        <ele>67</ele>
        <time>2025-04-26T11:13:38Z</time>
      </trkpt>
      <trkpt lat="45.42871" lon="-1.12898">
        <ele>66</ele>
        <time>2025-04-26T11:13:39Z</time>
      </trkpt>
      <trkpt lat="45.42875" lon="-1.12898">
        <ele>66</ele>
        <time>2025-04-26T11:13:40Z</time>
      </trkpt>
      <trkpt lat="45.42879" lon="-1.12898">
        <ele>66</ele>
        <time>2025-04-26T11:13:41Z</time>
      </trkpt>
      <trkpt lat="45.42884" lon="-1.12898">
        <ele>66</ele>
        <time>2025-04-26T11:13:42Z</time>
      </trkpt>
      <trkpt lat="45.42888" lon="-1.12899">
        <ele>66</ele>
        <time>2025-04-26T11:13:43Z</time>
      </trkpt>
      <trkpt lat="45.42891" lon="-1.12899">
        <ele>66</ele>
        <time>2025-04-26T11:13:44Z</time>
      </trkpt>
      <trkpt lat="45.42895" lon="-1.12899">
        <ele>66</ele>
        <time>2025-04-26T11:13:45Z</time>
      </trkpt>
      <trkpt lat="45.42899" lon="-1.12899">
        <ele>66</ele>
        <time>2025-04-26T11:13:46Z</time>
      </trkpt>
      <trkpt lat="45.42903" lon="-1.12899">
        <ele>66</ele>
        <time>2025-04-26T11:13:47Z</time>
      </trkpt>
      <trkpt lat="45.42907" lon="-1.12899">
        <ele>66</ele>
        <time>2025-04-26T11:13:48Z</time>
      </trkpt>
      <trkpt lat="45.42912" lon="-1.12899">
        <ele>66</ele>
        <time>2025-04-26T11:13:49Z</time>
      </trkpt>
      <trkpt lat="45.42916" lon="-1.12899">
        <ele>65</ele>
        <time>2025-04-26T11:13:50Z</time>
      </trkpt>
      <trkpt lat="45.4292" lon="-1.12899">
        <ele>65</ele>
        <time>2025-04-26T11:13:51Z</time>
      </trkpt>
      <trkpt lat="45.42925" lon="-1.12899">
        <ele>65</ele>
        <time>2025-04-26T11:13:52Z</time>
      </trkpt>
      <trkpt lat="45.42929" lon="-1.129">
        <ele>65</ele>
        <time>2025-04-26T11:13:53Z</time>
      </trkpt>
      <trkpt lat="45.42933" lon="-1.129">
        <ele>65</ele>
        <time>2025-04-26T11:13:54Z</time>
      </trkpt>
      <trkpt lat="45.42937" lon="-1.129">
        <ele>64</ele>
        <time>2025-04-26T11:13:55Z</time>
      </trkpt>
      <trkpt lat="45.42941" lon="-1.129">
        <ele>64</ele>
        <time>2025-04-26T11:13:56Z</time>
      </trkpt>
      <trkpt lat="45.42946" lon="-1.129">
        <ele>64</ele>
        <time>2025-04-26T11:13:57Z</time>
      </trkpt>
      <trkpt lat="45.4295" lon="-1.129">
        <ele>64</ele>
        <time>2025-04-26T11:13:58Z</time>
      </trkpt>
      <trkpt lat="45.42954" lon="-1.129">
        <ele>64</ele>
        <time>2025-04-26T11:13:59Z</time>
      </trkpt>
      <trkpt lat="45.42958" lon="-1.12901">
        <ele>64</ele>
        <time>2025-04-26T11:14:00Z</time>
      </trkpt>
      <trkpt lat="45.42962" lon="-1.12901">
        <ele>64</ele>
        <time>2025-04-26T11:14:01Z</time>
      </trkpt>
      <trkpt lat="45.42965" lon="-1.12901">
        <ele>64</ele>
        <time>2025-04-26T11:14:02Z</time>
      </trkpt>
      <trkpt lat="45.42969" lon="-1.12901">
        <ele>64</ele>
        <time>2025-04-26T11:14:03Z</time>
      </trkpt>
      <trkpt lat="45.42973" lon="-1.12901">
        <ele>64</ele>
        <time>2025-04-26T11:14:04Z</time>
      </trkpt>
      <trkpt lat="45.42977" lon="-1.129">
        <ele>64</ele>
        <time>2025-04-26T11:14:05Z</time>
      </trkpt>
      <trkpt lat="45.42981" lon="-1.12899">
        <ele>64</ele>
        <time>2025-04-26T11:14:06Z</time>
      </trkpt>
      <trkpt lat="45.42984" lon="-1.12899">
        <ele>64</ele>
        <time>2025-04-26T11:14:07Z</time>
      </trkpt>
      <trkpt lat="45.42988" lon="-1.12899">
        <ele>64</ele>
        <time>2025-04-26T11:14:08Z</time>
      </trkpt>
      <trkpt lat="45.42992" lon="-1.12899">
        <ele>64</ele>
        <time>2025-04-26T11:14:09Z</time>
      </trkpt>
      <trkpt lat="45.42996" lon="-1.12899">
        <ele>64</ele>
        <time>2025-04-26T11:14:10Z</time>
      </trkpt>
      <trkpt lat="45.43" lon="-1.12899">
        <ele>64</ele>
        <time>2025-04-26T11:14:11Z</time>
      </trkpt>
      <trkpt lat="45.43004" lon="-1.12899">
        <ele>64</ele>
        <time>2025-04-26T11:14:12Z</time>
      </trkpt>
      <trkpt lat="45.43008" lon="-1.12899">
        <ele>64</ele>
        <time>2025-04-26T11:14:13Z</time>
      </trkpt>
      <trkpt lat="45.43012" lon="-1.12899">
        <ele>64</ele>
        <time>2025-04-26T11:14:14Z</time>
      </trkpt>
      <trkpt lat="45.43017" lon="-1.12899">
        <ele>64</ele>
        <time>2025-04-26T11:14:15Z</time>
      </trkpt>
      <trkpt lat="45.43021" lon="-1.12902">
        <ele>64</ele>
        <time>2025-04-26T11:14:16Z</time>
      </trkpt>
      <trkpt lat="45.43024" lon="-1.12905">
        <ele>63</ele>
        <time>2025-04-26T11:14:17Z</time>
      </trkpt>
      <trkpt lat="45.43027" lon="-1.12909">
        <ele>64</ele>
        <time>2025-04-26T11:14:18Z</time>
      </trkpt>
      <trkpt lat="45.4303" lon="-1.12913">
        <ele>65</ele>
        <time>2025-04-26T11:14:19Z</time>
      </trkpt>
      <trkpt lat="45.43033" lon="-1.12917">
        <ele>65</ele>
        <time>2025-04-26T11:14:20Z</time>
      </trkpt>
      <trkpt lat="45.43036" lon="-1.12922">
        <ele>65</ele>
        <time>2025-04-26T11:14:21Z</time>
      </trkpt>
      <trkpt lat="45.43039" lon="-1.12926">
        <ele>65</ele>
        <time>2025-04-26T11:14:22Z</time>
      </trkpt>
      <trkpt lat="45.43043" lon="-1.12931">
        <ele>65</ele>
        <time>2025-04-26T11:14:23Z</time>
      </trkpt>
      <trkpt lat="45.43046" lon="-1.12935">
        <ele>64</ele>
        <time>2025-04-26T11:14:24Z</time>
      </trkpt>
      <trkpt lat="45.43049" lon="-1.12939">
        <ele>64</ele>
        <time>2025-04-26T11:14:25Z</time>
      </trkpt>
      <trkpt lat="45.43051" lon="-1.12943">
        <ele>64</ele>
        <time>2025-04-26T11:14:26Z</time>
      </trkpt>
      <trkpt lat="45.43054" lon="-1.12947">
        <ele>64</ele>
        <time>2025-04-26T11:14:27Z</time>
      </trkpt>
      <trkpt lat="45.43057" lon="-1.12952">
        <ele>63</ele>
        <time>2025-04-26T11:14:28Z</time>
      </trkpt>
      <trkpt lat="45.4306" lon="-1.12955">
        <ele>63</ele>
        <time>2025-04-26T11:14:29Z</time>
      </trkpt>
      <trkpt lat="45.43063" lon="-1.12959">
        <ele>63</ele>
        <time>2025-04-26T11:14:30Z</time>
      </trkpt>
      <trkpt lat="45.43065" lon="-1.12962">
        <ele>63</ele>
        <time>2025-04-26T11:14:31Z</time>
      </trkpt>
      <trkpt lat="45.43068" lon="-1.12967">
        <ele>63</ele>
        <time>2025-04-26T11:14:32Z</time>
      </trkpt>
      <trkpt lat="45.4307" lon="-1.1297">
        <ele>63</ele>
        <time>2025-04-26T11:14:33Z</time>
      </trkpt>
      <trkpt lat="45.43072" lon="-1.12974">
        <ele>64</ele>
        <time>2025-04-26T11:14:34Z</time>
      </trkpt>
      <trkpt lat="45.43073" lon="-1.12978">
        <ele>64</ele>
        <time>2025-04-26T11:14:35Z</time>
      </trkpt>
      <trkpt lat="45.43074" lon="-1.12983">
        <ele>65</ele>
        <time>2025-04-26T11:14:36Z</time>
      </trkpt>
      <trkpt lat="45.43075" lon="-1.12988">
        <ele>66</ele>
        <time>2025-04-26T11:14:37Z</time>
      </trkpt>
      <trkpt lat="45.43076" lon="-1.12993">
        <ele>66</ele>
        <time>2025-04-26T11:14:38Z</time>
      </trkpt>
      <trkpt lat="45.43078" lon="-1.12998">
        <ele>67</ele>
        <time>2025-04-26T11:14:39Z</time>
      </trkpt>
      <trkpt lat="45.43079" lon="-1.13003">
        <ele>67</ele>
        <time>2025-04-26T11:14:40Z</time>
      </trkpt>
      <trkpt lat="45.43081" lon="-1.13009">
        <ele>67</ele>
        <time>2025-04-26T11:14:41Z</time>
      </trkpt>
      <trkpt lat="45.43082" lon="-1.13014">
        <ele>67</ele>
        <time>2025-04-26T11:14:42Z</time>
      </trkpt>
      <trkpt lat="45.43083" lon="-1.13019">
        <ele>67</ele>
        <time>2025-04-26T11:14:43Z</time>
      </trkpt>
      <trkpt lat="45.43084" lon="-1.13024">
        <ele>67</ele>
        <time>2025-04-26T11:14:44Z</time>
      </trkpt>
      <trkpt lat="45.43084" lon="-1.13029">
        <ele>67</ele>
        <time>2025-04-26T11:14:45Z</time>
      </trkpt>
      <trkpt lat="45.43085" lon="-1.13034">
        <ele>67</ele>
        <time>2025-04-26T11:14:46Z</time>
      </trkpt>
      <trkpt lat="45.43085" lon="-1.13039">
        <ele>67</ele>
        <time>2025-04-26T11:14:47Z</time>
      </trkpt>
      <trkpt lat="45.43087" lon="-1.13045">
        <ele>67</ele>
        <time>2025-04-26T11:14:48Z</time>
      </trkpt>
      <trkpt lat="45.43087" lon="-1.1305">
        <ele>67</ele>
        <time>2025-04-26T11:14:49Z</time>
      </trkpt>
      <trkpt lat="45.43088" lon="-1.13055">
        <ele>67</ele>
        <time>2025-04-26T11:14:50Z</time>
      </trkpt>
      <trkpt lat="45.43088" lon="-1.13061">
        <ele>67</ele>
        <time>2025-04-26T11:14:51Z</time>
      </trkpt>
      <trkpt lat="45.43089" lon="-1.13067">
        <ele>66</ele>
        <time>2025-04-26T11:14:52Z</time>
      </trkpt>
      <trkpt lat="45.43091" lon="-1.13072">
        <ele>66</ele>
        <time>2025-04-26T11:14:53Z</time>
      </trkpt>
      <trkpt lat="45.43092" lon="-1.13078">
        <ele>66</ele>
        <time>2025-04-26T11:14:54Z</time>
      </trkpt>
      <trkpt lat="45.43093" lon="-1.13084">
        <ele>67</ele>
        <time>2025-04-26T11:14:55Z</time>
      </trkpt>
      <trkpt lat="45.43094" lon="-1.1309">
        <ele>67</ele>
        <time>2025-04-26T11:14:56Z</time>
      </trkpt>
      <trkpt lat="45.43095" lon="-1.13096">
        <ele>66</ele>
        <time>2025-04-26T11:14:57Z</time>
      </trkpt>
      <trkpt lat="45.43096" lon="-1.13102">
        <ele>66</ele>
        <time>2025-04-26T11:14:58Z</time>
      </trkpt>
      <trkpt lat="45.43097" lon="-1.13107">
        <ele>65</ele>
        <time>2025-04-26T11:14:59Z</time>
      </trkpt>
      <trkpt lat="45.43098" lon="-1.13113">
        <ele>64</ele>
        <time>2025-04-26T11:15:00Z</time>
      </trkpt>
      <trkpt lat="45.43098" lon="-1.13118">
        <ele>65</ele>
        <time>2025-04-26T11:15:01Z</time>
      </trkpt>
      <trkpt lat="45.43099" lon="-1.13123">
        <ele>65</ele>
        <time>2025-04-26T11:15:02Z</time>
      </trkpt>
      <trkpt lat="45.43099" lon="-1.13129">
        <ele>65</ele>
        <time>2025-04-26T11:15:03Z</time>
      </trkpt>
      <trkpt lat="45.431" lon="-1.13135">
        <ele>65</ele>
        <time>2025-04-26T11:15:04Z</time>
      </trkpt>
      <trkpt lat="45.43101" lon="-1.1314">
        <ele>65</ele>
        <time>2025-04-26T11:15:05Z</time>
      </trkpt>
      <trkpt lat="45.43102" lon="-1.13146">
        <ele>66</ele>
        <time>2025-04-26T11:15:06Z</time>
      </trkpt>
      <trkpt lat="45.43103" lon="-1.13152">
        <ele>66</ele>
        <time>2025-04-26T11:15:07Z</time>
      </trkpt>
      <trkpt lat="45.43104" lon="-1.13157">
        <ele>67</ele>
        <time>2025-04-26T11:15:08Z</time>
      </trkpt>
      <trkpt lat="45.43105" lon="-1.13162">
        <ele>67</ele>
        <time>2025-04-26T11:15:09Z</time>
      </trkpt>
      <trkpt lat="45.43107" lon="-1.13168">
        <ele>67</ele>
        <time>2025-04-26T11:15:10Z</time>
      </trkpt>
      <trkpt lat="45.43108" lon="-1.13173">
        <ele>67</ele>
        <time>2025-04-26T11:15:11Z</time>
      </trkpt>
      <trkpt lat="45.43108" lon="-1.13179">
        <ele>68</ele>
        <time>2025-04-26T11:15:12Z</time>
      </trkpt>
      <trkpt lat="45.43109" lon="-1.13184">
        <ele>67</ele>
        <time>2025-04-26T11:15:13Z</time>
      </trkpt>
      <trkpt lat="45.4311" lon="-1.13189">
        <ele>67</ele>
        <time>2025-04-26T11:15:14Z</time>
      </trkpt>
      <trkpt lat="45.43111" lon="-1.13195">
        <ele>67</ele>
        <time>2025-04-26T11:15:15Z</time>
      </trkpt>
      <trkpt lat="45.43112" lon="-1.132">
        <ele>67</ele>
        <time>2025-04-26T11:15:16Z</time>
      </trkpt>
      <trkpt lat="45.43113" lon="-1.13205">
        <ele>67</ele>
        <time>2025-04-26T11:15:17Z</time>
      </trkpt>
      <trkpt lat="45.43114" lon="-1.13209">
        <ele>67</ele>
        <time>2025-04-26T11:15:18Z</time>
      </trkpt>
      <trkpt lat="45.43114" lon="-1.13214">
        <ele>67</ele>
        <time>2025-04-26T11:15:19Z</time>
      </trkpt>
      <trkpt lat="45.43115" lon="-1.1322">
        <ele>67</ele>
        <time>2025-04-26T11:15:20Z</time>
      </trkpt>
      <trkpt lat="45.43116" lon="-1.13225">
        <ele>66</ele>
        <time>2025-04-26T11:15:21Z</time>
      </trkpt>
      <trkpt lat="45.43117" lon="-1.1323">
        <ele>67</ele>
        <time>2025-04-26T11:15:22Z</time>
      </trkpt>
      <trkpt lat="45.43118" lon="-1.13234">
        <ele>67</ele>
        <time>2025-04-26T11:15:23Z</time>
      </trkpt>
      <trkpt lat="45.43119" lon="-1.13239">
        <ele>68</ele>
        <time>2025-04-26T11:15:24Z</time>
      </trkpt>
      <trkpt lat="45.43119" lon="-1.13244">
        <ele>68</ele>
        <time>2025-04-26T11:15:25Z</time>
      </trkpt>
      <trkpt lat="45.4312" lon="-1.13249">
        <ele>68</ele>
        <time>2025-04-26T11:15:26Z</time>
      </trkpt>
      <trkpt lat="45.43121" lon="-1.13254">
        <ele>68</ele>
        <time>2025-04-26T11:15:27Z</time>
      </trkpt>
      <trkpt lat="45.43122" lon="-1.13259">
        <ele>68</ele>
        <time>2025-04-26T11:15:28Z</time>
      </trkpt>
      <trkpt lat="45.43122" lon="-1.13265">
        <ele>68</ele>
        <time>2025-04-26T11:15:29Z</time>
      </trkpt>
      <trkpt lat="45.43123" lon="-1.13269">
        <ele>68</ele>
        <time>2025-04-26T11:15:30Z</time>
      </trkpt>
      <trkpt lat="45.43124" lon="-1.13274">
        <ele>68</ele>
        <time>2025-04-26T11:15:31Z</time>
      </trkpt>
      <trkpt lat="45.43125" lon="-1.1328">
        <ele>69</ele>
        <time>2025-04-26T11:15:32Z</time>
      </trkpt>
      <trkpt lat="45.43126" lon="-1.13285">
        <ele>69</ele>
        <time>2025-04-26T11:15:33Z</time>
      </trkpt>
      <trkpt lat="45.43126" lon="-1.1329">
        <ele>69</ele>
        <time>2025-04-26T11:15:34Z</time>
      </trkpt>
      <trkpt lat="45.43127" lon="-1.13295">
        <ele>69</ele>
        <time>2025-04-26T11:15:35Z</time>
      </trkpt>
      <trkpt lat="45.43128" lon="-1.13301">
        <ele>69</ele>
        <time>2025-04-26T11:15:36Z</time>
      </trkpt>
      <trkpt lat="45.43129" lon="-1.13306">
        <ele>68</ele>
        <time>2025-04-26T11:15:37Z</time>
      </trkpt>
      <trkpt lat="45.4313" lon="-1.13312">
        <ele>68</ele>
        <time>2025-04-26T11:15:38Z</time>
      </trkpt>
      <trkpt lat="45.43131" lon="-1.13317">
        <ele>68</ele>
        <time>2025-04-26T11:15:39Z</time>
      </trkpt>
      <trkpt lat="45.43132" lon="-1.13323">
        <ele>68</ele>
        <time>2025-04-26T11:15:40Z</time>
      </trkpt>
      <trkpt lat="45.43133" lon="-1.13328">
        <ele>68</ele>
        <time>2025-04-26T11:15:41Z</time>
      </trkpt>
      <trkpt lat="45.43134" lon="-1.13334">
        <ele>68</ele>
        <time>2025-04-26T11:15:42Z</time>
      </trkpt>
      <trkpt lat="45.43135" lon="-1.13339">
        <ele>68</ele>
        <time>2025-04-26T11:15:43Z</time>
      </trkpt>
      <trkpt lat="45.43136" lon="-1.13344">
        <ele>68</ele>
        <time>2025-04-26T11:15:44Z</time>
      </trkpt>
      <trkpt lat="45.43137" lon="-1.1335">
        <ele>68</ele>
        <time>2025-04-26T11:15:45Z</time>
      </trkpt>
      <trkpt lat="45.43138" lon="-1.13355">
        <ele>68</ele>
        <time>2025-04-26T11:15:46Z</time>
      </trkpt>
      <trkpt lat="45.43139" lon="-1.1336">
        <ele>68</ele>
        <time>2025-04-26T11:15:47Z</time>
      </trkpt>
      <trkpt lat="45.43139" lon="-1.13365">
        <ele>67</ele>
        <time>2025-04-26T11:15:48Z</time>
      </trkpt>
      <trkpt lat="45.4314" lon="-1.1337">
        <ele>67</ele>
        <time>2025-04-26T11:15:49Z</time>
      </trkpt>
      <trkpt lat="45.43141" lon="-1.13376">
        <ele>68</ele>
        <time>2025-04-26T11:15:50Z</time>
      </trkpt>
      <trkpt lat="45.43142" lon="-1.1338">
        <ele>67</ele>
        <time>2025-04-26T11:15:51Z</time>
      </trkpt>
      <trkpt lat="45.43143" lon="-1.13385">
        <ele>68</ele>
        <time>2025-04-26T11:15:52Z</time>
      </trkpt>
      <trkpt lat="45.43144" lon="-1.13391">
        <ele>68</ele>
        <time>2025-04-26T11:15:53Z</time>
      </trkpt>
      <trkpt lat="45.43145" lon="-1.13396">
        <ele>68</ele>
        <time>2025-04-26T11:15:54Z</time>
      </trkpt>
      <trkpt lat="45.43146" lon="-1.13401">
        <ele>68</ele>
        <time>2025-04-26T11:15:55Z</time>
      </trkpt>
      <trkpt lat="45.43147" lon="-1.13406">
        <ele>68</ele>
        <time>2025-04-26T11:15:56Z</time>
      </trkpt>
      <trkpt lat="45.43148" lon="-1.13412">
        <ele>68</ele>
        <time>2025-04-26T11:15:57Z</time>
      </trkpt>
      <trkpt lat="45.43148" lon="-1.13417">
        <ele>68</ele>
        <time>2025-04-26T11:15:58Z</time>
      </trkpt>
      <trkpt lat="45.43149" lon="-1.13423">
        <ele>67</ele>
        <time>2025-04-26T11:15:59Z</time>
      </trkpt>
      <trkpt lat="45.4315" lon="-1.13428">
        <ele>67</ele>
        <time>2025-04-26T11:16:00Z</time>
      </trkpt>
      <trkpt lat="45.43151" lon="-1.13433">
        <ele>67</ele>
        <time>2025-04-26T11:16:01Z</time>
      </trkpt>
      <trkpt lat="45.43151" lon="-1.13438">
        <ele>67</ele>
        <time>2025-04-26T11:16:02Z</time>
      </trkpt>
      <trkpt lat="45.43152" lon="-1.13444">
        <ele>67</ele>
        <time>2025-04-26T11:16:03Z</time>
      </trkpt>
      <trkpt lat="45.43153" lon="-1.13449">
        <ele>66</ele>
        <time>2025-04-26T11:16:04Z</time>
      </trkpt>
      <trkpt lat="45.43155" lon="-1.13454">
        <ele>67</ele>
        <time>2025-04-26T11:16:05Z</time>
      </trkpt>
      <trkpt lat="45.43155" lon="-1.13459">
        <ele>67</ele>
        <time>2025-04-26T11:16:06Z</time>
      </trkpt>
      <trkpt lat="45.43156" lon="-1.13465">
        <ele>66</ele>
        <time>2025-04-26T11:16:07Z</time>
      </trkpt>
      <trkpt lat="45.43157" lon="-1.1347">
        <ele>66</ele>
        <time>2025-04-26T11:16:08Z</time>
      </trkpt>
      <trkpt lat="45.43158" lon="-1.13476">
        <ele>66</ele>
        <time>2025-04-26T11:16:09Z</time>
      </trkpt>
      <trkpt lat="45.43159" lon="-1.13482">
        <ele>66</ele>
        <time>2025-04-26T11:16:10Z</time>
      </trkpt>
      <trkpt lat="45.4316" lon="-1.13488">
        <ele>66</ele>
        <time>2025-04-26T11:16:11Z</time>
      </trkpt>
      <trkpt lat="45.43161" lon="-1.13494">
        <ele>66</ele>
        <time>2025-04-26T11:16:12Z</time>
      </trkpt>
      <trkpt lat="45.43162" lon="-1.135">
        <ele>66</ele>
        <time>2025-04-26T11:16:13Z</time>
      </trkpt>
      <trkpt lat="45.43163" lon="-1.13506">
        <ele>66</ele>
        <time>2025-04-26T11:16:14Z</time>
      </trkpt>
      <trkpt lat="45.43164" lon="-1.13511">
        <ele>66</ele>
        <time>2025-04-26T11:16:15Z</time>
      </trkpt>
      <trkpt lat="45.43166" lon="-1.13517">
        <ele>66</ele>
        <time>2025-04-26T11:16:16Z</time>
      </trkpt>
      <trkpt lat="45.43167" lon="-1.13523">
        <ele>66</ele>
        <time>2025-04-26T11:16:17Z</time>
      </trkpt>
      <trkpt lat="45.43167" lon="-1.13529">
        <ele>66</ele>
        <time>2025-04-26T11:16:18Z</time>
      </trkpt>
      <trkpt lat="45.43168" lon="-1.13535">
        <ele>66</ele>
        <time>2025-04-26T11:16:19Z</time>
      </trkpt>
      <trkpt lat="45.43169" lon="-1.13541">
        <ele>66</ele>
        <time>2025-04-26T11:16:20Z</time>
      </trkpt>
      <trkpt lat="45.4317" lon="-1.13546">
        <ele>66</ele>
        <time>2025-04-26T11:16:21Z</time>
      </trkpt>
      <trkpt lat="45.43172" lon="-1.13551">
        <ele>67</ele>
        <time>2025-04-26T11:16:22Z</time>
      </trkpt>
      <trkpt lat="45.43173" lon="-1.13556">
        <ele>67</ele>
        <time>2025-04-26T11:16:23Z</time>
      </trkpt>
      <trkpt lat="45.43173" lon="-1.13562">
        <ele>67</ele>
        <time>2025-04-26T11:16:24Z</time>
      </trkpt>
      <trkpt lat="45.43174" lon="-1.13567">
        <ele>67</ele>
        <time>2025-04-26T11:16:25Z</time>
      </trkpt>
      <trkpt lat="45.43175" lon="-1.13573">
        <ele>67</ele>
        <time>2025-04-26T11:16:26Z</time>
      </trkpt>
      <trkpt lat="45.43176" lon="-1.13579">
        <ele>67</ele>
        <time>2025-04-26T11:16:27Z</time>
      </trkpt>
      <trkpt lat="45.43177" lon="-1.13585">
        <ele>66</ele>
        <time>2025-04-26T11:16:28Z</time>
      </trkpt>
      <trkpt lat="45.43178" lon="-1.1359">
        <ele>66</ele>
        <time>2025-04-26T11:16:29Z</time>
      </trkpt>
      <trkpt lat="45.43179" lon="-1.13596">
        <ele>66</ele>
        <time>2025-04-26T11:16:30Z</time>
      </trkpt>
      <trkpt lat="45.4318" lon="-1.13602">
        <ele>66</ele>
        <time>2025-04-26T11:16:31Z</time>
      </trkpt>
      <trkpt lat="45.43181" lon="-1.13608">
        <ele>66</ele>
        <time>2025-04-26T11:16:32Z</time>
      </trkpt>
      <trkpt lat="45.43182" lon="-1.13615">
        <ele>66</ele>
        <time>2025-04-26T11:16:33Z</time>
      </trkpt>
      <trkpt lat="45.43183" lon="-1.13621">
        <ele>66</ele>
        <time>2025-04-26T11:16:34Z</time>
      </trkpt>
      <trkpt lat="45.43184" lon="-1.13626">
        <ele>65</ele>
        <time>2025-04-26T11:16:35Z</time>
      </trkpt>
      <trkpt lat="45.43185" lon="-1.13632">
        <ele>65</ele>
        <time>2025-04-26T11:16:36Z</time>
      </trkpt>
      <trkpt lat="45.43186" lon="-1.13638">
        <ele>65</ele>
        <time>2025-04-26T11:16:37Z</time>
      </trkpt>
      <trkpt lat="45.43187" lon="-1.13644">
        <ele>66</ele>
        <time>2025-04-26T11:16:38Z</time>
      </trkpt>
      <trkpt lat="45.43188" lon="-1.1365">
        <ele>66</ele>
        <time>2025-04-26T11:16:39Z</time>
      </trkpt>
      <trkpt lat="45.43189" lon="-1.13655">
        <ele>66</ele>
        <time>2025-04-26T11:16:40Z</time>
      </trkpt>
      <trkpt lat="45.4319" lon="-1.1366">
        <ele>66</ele>
        <time>2025-04-26T11:16:41Z</time>
      </trkpt>
      <trkpt lat="45.4319" lon="-1.13666">
        <ele>66</ele>
        <time>2025-04-26T11:16:42Z</time>
      </trkpt>
      <trkpt lat="45.43191" lon="-1.13671">
        <ele>66</ele>
        <time>2025-04-26T11:16:43Z</time>
      </trkpt>
      <trkpt lat="45.43192" lon="-1.13676">
        <ele>66</ele>
        <time>2025-04-26T11:16:44Z</time>
      </trkpt>
      <trkpt lat="45.43193" lon="-1.13682">
        <ele>66</ele>
        <time>2025-04-26T11:16:45Z</time>
      </trkpt>
      <trkpt lat="45.43194" lon="-1.13687">
        <ele>66</ele>
        <time>2025-04-26T11:16:46Z</time>
      </trkpt>
      <trkpt lat="45.43194" lon="-1.13692">
        <ele>66</ele>
        <time>2025-04-26T11:16:47Z</time>
      </trkpt>
      <trkpt lat="45.43195" lon="-1.13698">
        <ele>66</ele>
        <time>2025-04-26T11:16:48Z</time>
      </trkpt>
      <trkpt lat="45.43196" lon="-1.13703">
        <ele>67</ele>
        <time>2025-04-26T11:16:49Z</time>
      </trkpt>
      <trkpt lat="45.43197" lon="-1.13709">
        <ele>67</ele>
        <time>2025-04-26T11:16:50Z</time>
      </trkpt>
      <trkpt lat="45.43198" lon="-1.13714">
        <ele>67</ele>
        <time>2025-04-26T11:16:51Z</time>
      </trkpt>
      <trkpt lat="45.43199" lon="-1.13719">
        <ele>67</ele>
        <time>2025-04-26T11:16:52Z</time>
      </trkpt>
      <trkpt lat="45.432" lon="-1.13724">
        <ele>67</ele>
        <time>2025-04-26T11:16:53Z</time>
      </trkpt>
      <trkpt lat="45.43201" lon="-1.13729">
        <ele>67</ele>
        <time>2025-04-26T11:16:54Z</time>
      </trkpt>
      <trkpt lat="45.43202" lon="-1.13734">
        <ele>67</ele>
        <time>2025-04-26T11:16:55Z</time>
      </trkpt>
      <trkpt lat="45.43202" lon="-1.13738">
        <ele>67</ele>
        <time>2025-04-26T11:16:56Z</time>
      </trkpt>
      <trkpt lat="45.43204" lon="-1.13744">
        <ele>67</ele>
        <time>2025-04-26T11:16:57Z</time>
      </trkpt>
      <trkpt lat="45.43204" lon="-1.13749">
        <ele>67</ele>
        <time>2025-04-26T11:16:58Z</time>
      </trkpt>
      <trkpt lat="45.43205" lon="-1.13754">
        <ele>67</ele>
        <time>2025-04-26T11:16:59Z</time>
      </trkpt>
      <trkpt lat="45.43206" lon="-1.13759">
        <ele>68</ele>
        <time>2025-04-26T11:17:00Z</time>
      </trkpt>
      <trkpt lat="45.43207" lon="-1.13764">
        <ele>68</ele>
        <time>2025-04-26T11:17:01Z</time>
      </trkpt>
      <trkpt lat="45.43208" lon="-1.1377">
        <ele>68</ele>
        <time>2025-04-26T11:17:02Z</time>
      </trkpt>
      <trkpt lat="45.43209" lon="-1.13775">
        <ele>68</ele>
        <time>2025-04-26T11:17:03Z</time>
      </trkpt>
      <trkpt lat="45.4321" lon="-1.1378">
        <ele>68</ele>
        <time>2025-04-26T11:17:04Z</time>
      </trkpt>
      <trkpt lat="45.43211" lon="-1.13785">
        <ele>68</ele>
        <time>2025-04-26T11:17:05Z</time>
      </trkpt>
      <trkpt lat="45.43212" lon="-1.1379">
        <ele>68</ele>
        <time>2025-04-26T11:17:06Z</time>
      </trkpt>
      <trkpt lat="45.43213" lon="-1.13795">
        <ele>67</ele>
        <time>2025-04-26T11:17:07Z</time>
      </trkpt>
      <trkpt lat="45.43214" lon="-1.138">
        <ele>68</ele>
        <time>2025-04-26T11:17:08Z</time>
      </trkpt>
      <trkpt lat="45.43215" lon="-1.13806">
        <ele>68</ele>
        <time>2025-04-26T11:17:09Z</time>
      </trkpt>
      <trkpt lat="45.43216" lon="-1.13811">
        <ele>68</ele>
        <time>2025-04-26T11:17:10Z</time>
      </trkpt>
      <trkpt lat="45.43217" lon="-1.13816">
        <ele>68</ele>
        <time>2025-04-26T11:17:11Z</time>
      </trkpt>
      <trkpt lat="45.43217" lon="-1.13822">
        <ele>68</ele>
        <time>2025-04-26T11:17:12Z</time>
      </trkpt>
      <trkpt lat="45.43218" lon="-1.13826">
        <ele>68</ele>
        <time>2025-04-26T11:17:13Z</time>
      </trkpt>
      <trkpt lat="45.43219" lon="-1.13831">
        <ele>67</ele>
        <time>2025-04-26T11:17:14Z</time>
      </trkpt>
      <trkpt lat="45.4322" lon="-1.13836">
        <ele>67</ele>
        <time>2025-04-26T11:17:15Z</time>
      </trkpt>
      <trkpt lat="45.43221" lon="-1.1384">
        <ele>67</ele>
        <time>2025-04-26T11:17:16Z</time>
      </trkpt>
      <trkpt lat="45.43222" lon="-1.13845">
        <ele>66</ele>
        <time>2025-04-26T11:17:17Z</time>
      </trkpt>
      <trkpt lat="45.43222" lon="-1.13851">
        <ele>66</ele>
        <time>2025-04-26T11:17:18Z</time>
      </trkpt>
      <trkpt lat="45.43223" lon="-1.13855">
        <ele>66</ele>
        <time>2025-04-26T11:17:19Z</time>
      </trkpt>
      <trkpt lat="45.43224" lon="-1.1386">
        <ele>66</ele>
        <time>2025-04-26T11:17:20Z</time>
      </trkpt>
      <trkpt lat="45.43224" lon="-1.13864">
        <ele>66</ele>
        <time>2025-04-26T11:17:21Z</time>
      </trkpt>
      <trkpt lat="45.43225" lon="-1.13869">
        <ele>66</ele>
        <time>2025-04-26T11:17:22Z</time>
      </trkpt>
      <trkpt lat="45.43226" lon="-1.13873">
        <ele>67</ele>
        <time>2025-04-26T11:17:23Z</time>
      </trkpt>
      <trkpt lat="45.43226" lon="-1.13877">
        <ele>67</ele>
        <time>2025-04-26T11:17:24Z</time>
      </trkpt>
      <trkpt lat="45.43227" lon="-1.13881">
        <ele>67</ele>
        <time>2025-04-26T11:17:25Z</time>
      </trkpt>
      <trkpt lat="45.43227" lon="-1.13885">
        <ele>66</ele>
        <time>2025-04-26T11:17:26Z</time>
      </trkpt>
      <trkpt lat="45.43228" lon="-1.13888">
        <ele>66</ele>
        <time>2025-04-26T11:17:27Z</time>
      </trkpt>
      <trkpt lat="45.43229" lon="-1.13892">
        <ele>66</ele>
        <time>2025-04-26T11:17:28Z</time>
      </trkpt>
      <trkpt lat="45.4323" lon="-1.13895">
        <ele>66</ele>
        <time>2025-04-26T11:17:29Z</time>
      </trkpt>
      <trkpt lat="45.43231" lon="-1.139">
        <ele>66</ele>
        <time>2025-04-26T11:17:30Z</time>
      </trkpt>
      <trkpt lat="45.43231" lon="-1.13904">
        <ele>66</ele>
        <time>2025-04-26T11:17:31Z</time>
      </trkpt>
      <trkpt lat="45.43232" lon="-1.13908">
        <ele>66</ele>
        <time>2025-04-26T11:17:32Z</time>
      </trkpt>
      <trkpt lat="45.43233" lon="-1.13913">
        <ele>66</ele>
        <time>2025-04-26T11:17:33Z</time>
      </trkpt>
      <trkpt lat="45.43233" lon="-1.13917">
        <ele>66</ele>
        <time>2025-04-26T11:17:34Z</time>
      </trkpt>
      <trkpt lat="45.43234" lon="-1.13921">
        <ele>66</ele>
        <time>2025-04-26T11:17:35Z</time>
      </trkpt>
      <trkpt lat="45.43235" lon="-1.13925">
        <ele>66</ele>
        <time>2025-04-26T11:17:36Z</time>
      </trkpt>
      <trkpt lat="45.43236" lon="-1.13928">
        <ele>67</ele>
        <time>2025-04-26T11:17:37Z</time>
      </trkpt>
      <trkpt lat="45.43237" lon="-1.13931">
        <ele>67</ele>
        <time>2025-04-26T11:17:38Z</time>
      </trkpt>
      <trkpt lat="45.43238" lon="-1.13933">
        <ele>67</ele>
        <time>2025-04-26T11:17:39Z</time>
      </trkpt>
      <trkpt lat="45.4324" lon="-1.13934">
        <ele>67</ele>
        <time>2025-04-26T11:17:40Z</time>
      </trkpt>
      <trkpt lat="45.43242" lon="-1.13934">
        <ele>68</ele>
        <time>2025-04-26T11:17:41Z</time>
      </trkpt>
      <trkpt lat="45.43245" lon="-1.13934">
        <ele>67</ele>
        <time>2025-04-26T11:17:42Z</time>
      </trkpt>
      <trkpt lat="45.43247" lon="-1.13933">
        <ele>67</ele>
        <time>2025-04-26T11:17:43Z</time>
      </trkpt>
      <trkpt lat="45.4325" lon="-1.13932">
        <ele>67</ele>
        <time>2025-04-26T11:17:44Z</time>
      </trkpt>
      <trkpt lat="45.43252" lon="-1.13931">
        <ele>67</ele>
        <time>2025-04-26T11:17:45Z</time>
      </trkpt>
      <trkpt lat="45.43254" lon="-1.1393">
        <ele>67</ele>
        <time>2025-04-26T11:17:46Z</time>
      </trkpt>
      <trkpt lat="45.43256" lon="-1.13929">
        <ele>67</ele>
        <time>2025-04-26T11:17:47Z</time>
      </trkpt>
      <trkpt lat="45.43259" lon="-1.13928">
        <ele>68</ele>
        <time>2025-04-26T11:17:48Z</time>
      </trkpt>
      <trkpt lat="45.43262" lon="-1.13926">
        <ele>68</ele>
        <time>2025-04-26T11:17:49Z</time>
      </trkpt>
      <trkpt lat="45.43266" lon="-1.13925">
        <ele>68</ele>
        <time>2025-04-26T11:17:50Z</time>
      </trkpt>
      <trkpt lat="45.43269" lon="-1.13923">
        <ele>68</ele>
        <time>2025-04-26T11:17:51Z</time>
      </trkpt>
      <trkpt lat="45.43272" lon="-1.13922">
        <ele>68</ele>
        <time>2025-04-26T11:17:52Z</time>
      </trkpt>
      <trkpt lat="45.43275" lon="-1.1392">
        <ele>68</ele>
        <time>2025-04-26T11:17:53Z</time>
      </trkpt>
      <trkpt lat="45.43278" lon="-1.13918">
        <ele>68</ele>
        <time>2025-04-26T11:17:54Z</time>
      </trkpt>
      <trkpt lat="45.43281" lon="-1.13916">
        <ele>69</ele>
        <time>2025-04-26T11:17:55Z</time>
      </trkpt>
      <trkpt lat="45.43285" lon="-1.13914">
        <ele>69</ele>
        <time>2025-04-26T11:17:56Z</time>
      </trkpt>
      <trkpt lat="45.43288" lon="-1.13912">
        <ele>69</ele>
        <time>2025-04-26T11:17:57Z</time>
      </trkpt>
      <trkpt lat="45.4329" lon="-1.1391">
        <ele>69</ele>
        <time>2025-04-26T11:17:58Z</time>
      </trkpt>
      <trkpt lat="45.43293" lon="-1.13908">
        <ele>70</ele>
        <time>2025-04-26T11:17:59Z</time>
      </trkpt>
      <trkpt lat="45.43297" lon="-1.13907">
        <ele>69</ele>
        <time>2025-04-26T11:18:00Z</time>
      </trkpt>
      <trkpt lat="45.433" lon="-1.13905">
        <ele>69</ele>
        <time>2025-04-26T11:18:01Z</time>
      </trkpt>
      <trkpt lat="45.43303" lon="-1.13903">
        <ele>69</ele>
        <time>2025-04-26T11:18:02Z</time>
      </trkpt>
      <trkpt lat="45.43307" lon="-1.13901">
        <ele>69</ele>
        <time>2025-04-26T11:18:03Z</time>
      </trkpt>
      <trkpt lat="45.4331" lon="-1.13899">
        <ele>69</ele>
        <time>2025-04-26T11:18:04Z</time>
      </trkpt>
      <trkpt lat="45.43313" lon="-1.13897">
        <ele>69</ele>
        <time>2025-04-26T11:18:05Z</time>
      </trkpt>
      <trkpt lat="45.43316" lon="-1.13895">
        <ele>69</ele>
        <time>2025-04-26T11:18:06Z</time>
      </trkpt>
      <trkpt lat="45.4332" lon="-1.13893">
        <ele>69</ele>
        <time>2025-04-26T11:18:07Z</time>
      </trkpt>
      <trkpt lat="45.43323" lon="-1.13891">
        <ele>69</ele>
        <time>2025-04-26T11:18:08Z</time>
      </trkpt>
      <trkpt lat="45.43327" lon="-1.13889">
        <ele>69</ele>
        <time>2025-04-26T11:18:09Z</time>
      </trkpt>
      <trkpt lat="45.43331" lon="-1.13887">
        <ele>70</ele>
        <time>2025-04-26T11:18:10Z</time>
      </trkpt>
      <trkpt lat="45.43334" lon="-1.13885">
        <ele>69</ele>
        <time>2025-04-26T11:18:11Z</time>
      </trkpt>
      <trkpt lat="45.43338" lon="-1.13883">
        <ele>69</ele>
        <time>2025-04-26T11:18:12Z</time>
      </trkpt>
      <trkpt lat="45.43341" lon="-1.13881">
        <ele>69</ele>
        <time>2025-04-26T11:18:13Z</time>
      </trkpt>
      <trkpt lat="45.43345" lon="-1.13879">
        <ele>69</ele>
        <time>2025-04-26T11:18:14Z</time>
      </trkpt>
      <trkpt lat="45.43348" lon="-1.13878">
        <ele>70</ele>
        <time>2025-04-26T11:18:15Z</time>
      </trkpt>
      <trkpt lat="45.43352" lon="-1.13876">
        <ele>69</ele>
        <time>2025-04-26T11:18:16Z</time>
      </trkpt>
      <trkpt lat="45.43355" lon="-1.13874">
        <ele>69</ele>
        <time>2025-04-26T11:18:17Z</time>
      </trkpt>
      <trkpt lat="45.43359" lon="-1.13872">
        <ele>68</ele>
        <time>2025-04-26T11:18:18Z</time>
      </trkpt>
      <trkpt lat="45.43362" lon="-1.1387">
        <ele>68</ele>
        <time>2025-04-26T11:18:19Z</time>
      </trkpt>
      <trkpt lat="45.43366" lon="-1.13867">
        <ele>67</ele>
        <time>2025-04-26T11:18:20Z</time>
      </trkpt>
      <trkpt lat="45.43369" lon="-1.13865">
        <ele>67</ele>
        <time>2025-04-26T11:18:21Z</time>
      </trkpt>
      <trkpt lat="45.43374" lon="-1.13863">
        <ele>67</ele>
        <time>2025-04-26T11:18:22Z</time>
      </trkpt>
      <trkpt lat="45.43377" lon="-1.1386">
        <ele>68</ele>
        <time>2025-04-26T11:18:23Z</time>
      </trkpt>
      <trkpt lat="45.43381" lon="-1.13858">
        <ele>68</ele>
        <time>2025-04-26T11:18:24Z</time>
      </trkpt>
      <trkpt lat="45.43386" lon="-1.13856">
        <ele>69</ele>
        <time>2025-04-26T11:18:25Z</time>
      </trkpt>
      <trkpt lat="45.4339" lon="-1.13853">
        <ele>69</ele>
        <time>2025-04-26T11:18:26Z</time>
      </trkpt>
      <trkpt lat="45.43394" lon="-1.13851">
        <ele>69</ele>
        <time>2025-04-26T11:18:27Z</time>
      </trkpt>
      <trkpt lat="45.43398" lon="-1.13849">
        <ele>69</ele>
        <time>2025-04-26T11:18:28Z</time>
      </trkpt>
      <trkpt lat="45.43402" lon="-1.13847">
        <ele>69</ele>
        <time>2025-04-26T11:18:29Z</time>
      </trkpt>
      <trkpt lat="45.43406" lon="-1.13845">
        <ele>69</ele>
        <time>2025-04-26T11:18:30Z</time>
      </trkpt>
      <trkpt lat="45.43409" lon="-1.13842">
        <ele>68</ele>
        <time>2025-04-26T11:18:31Z</time>
      </trkpt>
      <trkpt lat="45.43413" lon="-1.1384">
        <ele>68</ele>
        <time>2025-04-26T11:18:32Z</time>
      </trkpt>
      <trkpt lat="45.43417" lon="-1.13838">
        <ele>67</ele>
        <time>2025-04-26T11:18:33Z</time>
      </trkpt>
      <trkpt lat="45.43421" lon="-1.13836">
        <ele>68</ele>
        <time>2025-04-26T11:18:34Z</time>
      </trkpt>
      <trkpt lat="45.43425" lon="-1.13834">
        <ele>68</ele>
        <time>2025-04-26T11:18:35Z</time>
      </trkpt>
      <trkpt lat="45.43429" lon="-1.13831">
        <ele>67</ele>
        <time>2025-04-26T11:18:36Z</time>
      </trkpt>
      <trkpt lat="45.43433" lon="-1.13829">
        <ele>68</ele>
        <time>2025-04-26T11:18:37Z</time>
      </trkpt>
      <trkpt lat="45.43437" lon="-1.13826">
        <ele>68</ele>
        <time>2025-04-26T11:18:38Z</time>
      </trkpt>
      <trkpt lat="45.43441" lon="-1.13824">
        <ele>67</ele>
        <time>2025-04-26T11:18:39Z</time>
      </trkpt>
      <trkpt lat="45.43445" lon="-1.13821">
        <ele>67</ele>
        <time>2025-04-26T11:18:40Z</time>
      </trkpt>
      <trkpt lat="45.43449" lon="-1.13819">
        <ele>67</ele>
        <time>2025-04-26T11:18:41Z</time>
      </trkpt>
      <trkpt lat="45.43453" lon="-1.13817">
        <ele>67</ele>
        <time>2025-04-26T11:18:42Z</time>
      </trkpt>
      <trkpt lat="45.43457" lon="-1.13815">
        <ele>67</ele>
        <time>2025-04-26T11:18:43Z</time>
      </trkpt>
      <trkpt lat="45.43461" lon="-1.13813">
        <ele>67</ele>
        <time>2025-04-26T11:18:44Z</time>
      </trkpt>
      <trkpt lat="45.43465" lon="-1.13811">
        <ele>67</ele>
        <time>2025-04-26T11:18:45Z</time>
      </trkpt>
      <trkpt lat="45.43469" lon="-1.13808">
        <ele>67</ele>
        <time>2025-04-26T11:18:46Z</time>
      </trkpt>
      <trkpt lat="45.43472" lon="-1.13806">
        <ele>67</ele>
        <time>2025-04-26T11:18:47Z</time>
      </trkpt>
      <trkpt lat="45.43476" lon="-1.13804">
        <ele>67</ele>
        <time>2025-04-26T11:18:48Z</time>
      </trkpt>
      <trkpt lat="45.4348" lon="-1.13802">
        <ele>67</ele>
        <time>2025-04-26T11:18:49Z</time>
      </trkpt>
      <trkpt lat="45.43484" lon="-1.138">
        <ele>67</ele>
        <time>2025-04-26T11:18:50Z</time>
      </trkpt>
      <trkpt lat="45.43488" lon="-1.13798">
        <ele>67</ele>
        <time>2025-04-26T11:18:51Z</time>
      </trkpt>
      <trkpt lat="45.43492" lon="-1.13796">
        <ele>67</ele>
        <time>2025-04-26T11:18:52Z</time>
      </trkpt>
      <trkpt lat="45.43496" lon="-1.13794">
        <ele>66</ele>
        <time>2025-04-26T11:18:53Z</time>
      </trkpt>
      <trkpt lat="45.43499" lon="-1.13792">
        <ele>66</ele>
        <time>2025-04-26T11:18:54Z</time>
      </trkpt>
      <trkpt lat="45.43503" lon="-1.13789">
        <ele>66</ele>
        <time>2025-04-26T11:18:55Z</time>
      </trkpt>
      <trkpt lat="45.43507" lon="-1.13787">
        <ele>66</ele>
        <time>2025-04-26T11:18:56Z</time>
      </trkpt>
      <trkpt lat="45.43511" lon="-1.13785">
        <ele>65</ele>
        <time>2025-04-26T11:18:57Z</time>
      </trkpt>
      <trkpt lat="45.43514" lon="-1.13783">
        <ele>65</ele>
        <time>2025-04-26T11:18:58Z</time>
      </trkpt>
      <trkpt lat="45.43518" lon="-1.13781">
        <ele>65</ele>
        <time>2025-04-26T11:18:59Z</time>
      </trkpt>
      <trkpt lat="45.43523" lon="-1.13778">
        <ele>66</ele>
        <time>2025-04-26T11:19:00Z</time>
      </trkpt>
      <trkpt lat="45.43527" lon="-1.13775">
        <ele>66</ele>
        <time>2025-04-26T11:19:01Z</time>
      </trkpt>
      <trkpt lat="45.43531" lon="-1.13774">
        <ele>67</ele>
        <time>2025-04-26T11:19:02Z</time>
      </trkpt>
      <trkpt lat="45.43535" lon="-1.13771">
        <ele>68</ele>
        <time>2025-04-26T11:19:03Z</time>
      </trkpt>
      <trkpt lat="45.43539" lon="-1.13769">
        <ele>69</ele>
        <time>2025-04-26T11:19:04Z</time>
      </trkpt>
      <trkpt lat="45.43543" lon="-1.13767">
        <ele>68</ele>
        <time>2025-04-26T11:19:05Z</time>
      </trkpt>
      <trkpt lat="45.43547" lon="-1.13765">
        <ele>68</ele>
        <time>2025-04-26T11:19:06Z</time>
      </trkpt>
      <trkpt lat="45.43551" lon="-1.13763">
        <ele>68</ele>
        <time>2025-04-26T11:19:07Z</time>
      </trkpt>
      <trkpt lat="45.43555" lon="-1.13761">
        <ele>69</ele>
        <time>2025-04-26T11:19:08Z</time>
      </trkpt>
      <trkpt lat="45.4356" lon="-1.13758">
        <ele>69</ele>
        <time>2025-04-26T11:19:09Z</time>
      </trkpt>
      <trkpt lat="45.43564" lon="-1.13756">
        <ele>69</ele>
        <time>2025-04-26T11:19:10Z</time>
      </trkpt>
      <trkpt lat="45.43567" lon="-1.13754">
        <ele>69</ele>
        <time>2025-04-26T11:19:11Z</time>
      </trkpt>
      <trkpt lat="45.43571" lon="-1.13752">
        <ele>68</ele>
        <time>2025-04-26T11:19:12Z</time>
      </trkpt>
      <trkpt lat="45.43575" lon="-1.1375">
        <ele>68</ele>
        <time>2025-04-26T11:19:13Z</time>
      </trkpt>
      <trkpt lat="45.43579" lon="-1.13748">
        <ele>67</ele>
        <time>2025-04-26T11:19:14Z</time>
      </trkpt>
      <trkpt lat="45.43582" lon="-1.13745">
        <ele>67</ele>
        <time>2025-04-26T11:19:15Z</time>
      </trkpt>
      <trkpt lat="45.43586" lon="-1.13743">
        <ele>67</ele>
        <time>2025-04-26T11:19:16Z</time>
      </trkpt>
      <trkpt lat="45.4359" lon="-1.13741">
        <ele>67</ele>
        <time>2025-04-26T11:19:17Z</time>
      </trkpt>
      <trkpt lat="45.43594" lon="-1.13739">
        <ele>67</ele>
        <time>2025-04-26T11:19:18Z</time>
      </trkpt>
      <trkpt lat="45.43598" lon="-1.13736">
        <ele>67</ele>
        <time>2025-04-26T11:19:19Z</time>
      </trkpt>
      <trkpt lat="45.43602" lon="-1.13734">
        <ele>67</ele>
        <time>2025-04-26T11:19:20Z</time>
      </trkpt>
      <trkpt lat="45.43606" lon="-1.13732">
        <ele>67</ele>
        <time>2025-04-26T11:19:21Z</time>
      </trkpt>
      <trkpt lat="45.4361" lon="-1.1373">
        <ele>67</ele>
        <time>2025-04-26T11:19:22Z</time>
      </trkpt>
      <trkpt lat="45.43615" lon="-1.13728">
        <ele>68</ele>
        <time>2025-04-26T11:19:23Z</time>
      </trkpt>
      <trkpt lat="45.43618" lon="-1.13725">
        <ele>68</ele>
        <time>2025-04-26T11:19:24Z</time>
      </trkpt>
      <trkpt lat="45.43622" lon="-1.13722">
        <ele>68</ele>
        <time>2025-04-26T11:19:25Z</time>
      </trkpt>
      <trkpt lat="45.43625" lon="-1.13719">
        <ele>67</ele>
        <time>2025-04-26T11:19:26Z</time>
      </trkpt>
      <trkpt lat="45.43629" lon="-1.13717">
        <ele>68</ele>
        <time>2025-04-26T11:19:27Z</time>
      </trkpt>
      <trkpt lat="45.43633" lon="-1.13715">
        <ele>68</ele>
        <time>2025-04-26T11:19:28Z</time>
      </trkpt>
      <trkpt lat="45.43637" lon="-1.13714">
        <ele>68</ele>
        <time>2025-04-26T11:19:29Z</time>
      </trkpt>
      <trkpt lat="45.43641" lon="-1.13712">
        <ele>67</ele>
        <time>2025-04-26T11:19:30Z</time>
      </trkpt>
      <trkpt lat="45.43644" lon="-1.1371">
        <ele>67</ele>
        <time>2025-04-26T11:19:31Z</time>
      </trkpt>
      <trkpt lat="45.43648" lon="-1.13708">
        <ele>67</ele>
        <time>2025-04-26T11:19:32Z</time>
      </trkpt>
      <trkpt lat="45.43652" lon="-1.13706">
        <ele>67</ele>
        <time>2025-04-26T11:19:33Z</time>
      </trkpt>
      <trkpt lat="45.43656" lon="-1.13704">
        <ele>67</ele>
        <time>2025-04-26T11:19:34Z</time>
      </trkpt>
      <trkpt lat="45.4366" lon="-1.13701">
        <ele>66</ele>
        <time>2025-04-26T11:19:35Z</time>
      </trkpt>
      <trkpt lat="45.43664" lon="-1.13699">
        <ele>66</ele>
        <time>2025-04-26T11:19:36Z</time>
      </trkpt>
      <trkpt lat="45.43667" lon="-1.13697">
        <ele>66</ele>
        <time>2025-04-26T11:19:37Z</time>
      </trkpt>
      <trkpt lat="45.43672" lon="-1.13695">
        <ele>66</ele>
        <time>2025-04-26T11:19:38Z</time>
      </trkpt>
      <trkpt lat="45.43676" lon="-1.13693">
        <ele>65</ele>
        <time>2025-04-26T11:19:39Z</time>
      </trkpt>
      <trkpt lat="45.43679" lon="-1.13691">
        <ele>65</ele>
        <time>2025-04-26T11:19:40Z</time>
      </trkpt>
      <trkpt lat="45.43683" lon="-1.13688">
        <ele>65</ele>
        <time>2025-04-26T11:19:41Z</time>
      </trkpt>
      <trkpt lat="45.43687" lon="-1.13686">
        <ele>64</ele>
        <time>2025-04-26T11:19:42Z</time>
      </trkpt>
      <trkpt lat="45.4369" lon="-1.13684">
        <ele>64</ele>
        <time>2025-04-26T11:19:43Z</time>
      </trkpt>
      <trkpt lat="45.43694" lon="-1.13682">
        <ele>63</ele>
        <time>2025-04-26T11:19:44Z</time>
      </trkpt>
      <trkpt lat="45.43698" lon="-1.13679">
        <ele>63</ele>
        <time>2025-04-26T11:19:45Z</time>
      </trkpt>
      <trkpt lat="45.43702" lon="-1.13677">
        <ele>63</ele>
        <time>2025-04-26T11:19:46Z</time>
      </trkpt>
      <trkpt lat="45.43705" lon="-1.13675">
        <ele>63</ele>
        <time>2025-04-26T11:19:47Z</time>
      </trkpt>
      <trkpt lat="45.43709" lon="-1.13673">
        <ele>63</ele>
        <time>2025-04-26T11:19:48Z</time>
      </trkpt>
      <trkpt lat="45.43712" lon="-1.13671">
        <ele>63</ele>
        <time>2025-04-26T11:19:49Z</time>
      </trkpt>
      <trkpt lat="45.43715" lon="-1.1367">
        <ele>63</ele>
        <time>2025-04-26T11:19:50Z</time>
      </trkpt>
      <trkpt lat="45.43719" lon="-1.13672">
        <ele>63</ele>
        <time>2025-04-26T11:19:51Z</time>
      </trkpt>
      <trkpt lat="45.4372" lon="-1.13675">
        <ele>63</ele>
        <time>2025-04-26T11:19:52Z</time>
      </trkpt>
      <trkpt lat="45.43721" lon="-1.13679">
        <ele>63</ele>
        <time>2025-04-26T11:19:53Z</time>
      </trkpt>
      <trkpt lat="45.43722" lon="-1.13683">
        <ele>63</ele>
        <time>2025-04-26T11:19:54Z</time>
      </trkpt>
      <trkpt lat="45.43722" lon="-1.13688">
        <ele>63</ele>
        <time>2025-04-26T11:19:55Z</time>
      </trkpt>
      <trkpt lat="45.43724" lon="-1.13691">
        <ele>63</ele>
        <time>2025-04-26T11:19:56Z</time>
      </trkpt>
      <trkpt lat="45.43725" lon="-1.13695">
        <ele>64</ele>
        <time>2025-04-26T11:19:57Z</time>
      </trkpt>
      <trkpt lat="45.43726" lon="-1.13698">
        <ele>64</ele>
        <time>2025-04-26T11:19:58Z</time>
      </trkpt>
      <trkpt lat="45.43727" lon="-1.13702">
        <ele>65</ele>
        <time>2025-04-26T11:19:59Z</time>
      </trkpt>
      <trkpt lat="45.43727" lon="-1.13707">
        <ele>65</ele>
        <time>2025-04-26T11:20:00Z</time>
      </trkpt>
      <trkpt lat="45.43728" lon="-1.13711">
        <ele>64</ele>
        <time>2025-04-26T11:20:01Z</time>
      </trkpt>
      <trkpt lat="45.4373" lon="-1.13716">
        <ele>64</ele>
        <time>2025-04-26T11:20:02Z</time>
      </trkpt>
      <trkpt lat="45.43731" lon="-1.13721">
        <ele>64</ele>
        <time>2025-04-26T11:20:03Z</time>
      </trkpt>
      <trkpt lat="45.43731" lon="-1.13725">
        <ele>64</ele>
        <time>2025-04-26T11:20:04Z</time>
      </trkpt>
      <trkpt lat="45.43732" lon="-1.13729">
        <ele>65</ele>
        <time>2025-04-26T11:20:05Z</time>
      </trkpt>
      <trkpt lat="45.43733" lon="-1.13734">
        <ele>64</ele>
        <time>2025-04-26T11:20:06Z</time>
      </trkpt>
      <trkpt lat="45.43734" lon="-1.13738">
        <ele>64</ele>
        <time>2025-04-26T11:20:07Z</time>
      </trkpt>
      <trkpt lat="45.43734" lon="-1.13743">
        <ele>64</ele>
        <time>2025-04-26T11:20:08Z</time>
      </trkpt>
      <trkpt lat="45.43735" lon="-1.13747">
        <ele>64</ele>
        <time>2025-04-26T11:20:09Z</time>
      </trkpt>
      <trkpt lat="45.43735" lon="-1.13752">
        <ele>64</ele>
        <time>2025-04-26T11:20:10Z</time>
      </trkpt>
      <trkpt lat="45.43736" lon="-1.13757">
        <ele>63</ele>
        <time>2025-04-26T11:20:11Z</time>
      </trkpt>
      <trkpt lat="45.43737" lon="-1.13761">
        <ele>63</ele>
        <time>2025-04-26T11:20:12Z</time>
      </trkpt>
      <trkpt lat="45.43739" lon="-1.13765">
        <ele>63</ele>
        <time>2025-04-26T11:20:13Z</time>
      </trkpt>
      <trkpt lat="45.4374" lon="-1.1377">
        <ele>63</ele>
        <time>2025-04-26T11:20:14Z</time>
      </trkpt>
      <trkpt lat="45.43741" lon="-1.13774">
        <ele>63</ele>
        <time>2025-04-26T11:20:15Z</time>
      </trkpt>
      <trkpt lat="45.43742" lon="-1.13778">
        <ele>63</ele>
        <time>2025-04-26T11:20:16Z</time>
      </trkpt>
      <trkpt lat="45.43743" lon="-1.13783">
        <ele>63</ele>
        <time>2025-04-26T11:20:17Z</time>
      </trkpt>
      <trkpt lat="45.43744" lon="-1.13787">
        <ele>64</ele>
        <time>2025-04-26T11:20:18Z</time>
      </trkpt>
      <trkpt lat="45.43745" lon="-1.13791">
        <ele>64</ele>
        <time>2025-04-26T11:20:19Z</time>
      </trkpt>
      <trkpt lat="45.43746" lon="-1.13796">
        <ele>64</ele>
        <time>2025-04-26T11:20:20Z</time>
      </trkpt>
      <trkpt lat="45.43747" lon="-1.13801">
        <ele>65</ele>
        <time>2025-04-26T11:20:21Z</time>
      </trkpt>
      <trkpt lat="45.43748" lon="-1.13805">
        <ele>65</ele>
        <time>2025-04-26T11:20:22Z</time>
      </trkpt>
      <trkpt lat="45.43749" lon="-1.1381">
        <ele>65</ele>
        <time>2025-04-26T11:20:23Z</time>
      </trkpt>
      <trkpt lat="45.4375" lon="-1.13814">
        <ele>66</ele>
        <time>2025-04-26T11:20:24Z</time>
      </trkpt>
      <trkpt lat="45.43751" lon="-1.13818">
        <ele>66</ele>
        <time>2025-04-26T11:20:25Z</time>
      </trkpt>
      <trkpt lat="45.43752" lon="-1.13823">
        <ele>66</ele>
        <time>2025-04-26T11:20:26Z</time>
      </trkpt>
      <trkpt lat="45.43753" lon="-1.13827">
        <ele>66</ele>
        <time>2025-04-26T11:20:27Z</time>
      </trkpt>
      <trkpt lat="45.43754" lon="-1.13832">
        <ele>66</ele>
        <time>2025-04-26T11:20:28Z</time>
      </trkpt>
      <trkpt lat="45.43755" lon="-1.13837">
        <ele>66</ele>
        <time>2025-04-26T11:20:29Z</time>
      </trkpt>
      <trkpt lat="45.43756" lon="-1.13842">
        <ele>66</ele>
        <time>2025-04-26T11:20:30Z</time>
      </trkpt>
      <trkpt lat="45.43757" lon="-1.13846">
        <ele>66</ele>
        <time>2025-04-26T11:20:31Z</time>
      </trkpt>
      <trkpt lat="45.43758" lon="-1.1385">
        <ele>66</ele>
        <time>2025-04-26T11:20:32Z</time>
      </trkpt>
      <trkpt lat="45.43759" lon="-1.13855">
        <ele>66</ele>
        <time>2025-04-26T11:20:33Z</time>
      </trkpt>
      <trkpt lat="45.4376" lon="-1.13859">
        <ele>66</ele>
        <time>2025-04-26T11:20:34Z</time>
      </trkpt>
      <trkpt lat="45.43761" lon="-1.13863">
        <ele>66</ele>
        <time>2025-04-26T11:20:35Z</time>
      </trkpt>
      <trkpt lat="45.43762" lon="-1.13867">
        <ele>66</ele>
        <time>2025-04-26T11:20:36Z</time>
      </trkpt>
      <trkpt lat="45.43763" lon="-1.13872">
        <ele>66</ele>
        <time>2025-04-26T11:20:37Z</time>
      </trkpt>
      <trkpt lat="45.43764" lon="-1.13877">
        <ele>65</ele>
        <time>2025-04-26T11:20:38Z</time>
      </trkpt>
      <trkpt lat="45.43764" lon="-1.13882">
        <ele>65</ele>
        <time>2025-04-26T11:20:39Z</time>
      </trkpt>
      <trkpt lat="45.43765" lon="-1.13885">
        <ele>65</ele>
        <time>2025-04-26T11:20:40Z</time>
      </trkpt>
      <trkpt lat="45.43766" lon="-1.1389">
        <ele>65</ele>
        <time>2025-04-26T11:20:41Z</time>
      </trkpt>
      <trkpt lat="45.43768" lon="-1.13893">
        <ele>65</ele>
        <time>2025-04-26T11:20:42Z</time>
      </trkpt>
      <trkpt lat="45.4377" lon="-1.13896">
        <ele>64</ele>
        <time>2025-04-26T11:20:43Z</time>
      </trkpt>
      <trkpt lat="45.43772" lon="-1.13898">
        <ele>64</ele>
        <time>2025-04-26T11:20:44Z</time>
      </trkpt>
      <trkpt lat="45.43775" lon="-1.13899">
        <ele>64</ele>
        <time>2025-04-26T11:20:45Z</time>
      </trkpt>
      <trkpt lat="45.43778" lon="-1.13899">
        <ele>64</ele>
        <time>2025-04-26T11:20:46Z</time>
      </trkpt>
      <trkpt lat="45.4378" lon="-1.13899">
        <ele>64</ele>
        <time>2025-04-26T11:20:47Z</time>
      </trkpt>
      <trkpt lat="45.43782" lon="-1.139">
        <ele>63</ele>
        <time>2025-04-26T11:20:48Z</time>
      </trkpt>
      <trkpt lat="45.43784" lon="-1.13899">
        <ele>63</ele>
        <time>2025-04-26T11:20:49Z</time>
      </trkpt>
      <trkpt lat="45.43786" lon="-1.13899">
        <ele>63</ele>
        <time>2025-04-26T11:20:50Z</time>
      </trkpt>
      <trkpt lat="45.43788" lon="-1.13898">
        <ele>63</ele>
        <time>2025-04-26T11:20:51Z</time>
      </trkpt>
      <trkpt lat="45.4379" lon="-1.13898">
        <ele>64</ele>
        <time>2025-04-26T11:20:52Z</time>
      </trkpt>
      <trkpt lat="45.43792" lon="-1.13898">
        <ele>64</ele>
        <time>2025-04-26T11:20:53Z</time>
      </trkpt>
      <trkpt lat="45.43794" lon="-1.13897">
        <ele>64</ele>
        <time>2025-04-26T11:20:54Z</time>
      </trkpt>
      <trkpt lat="45.43796" lon="-1.13897">
        <ele>64</ele>
        <time>2025-04-26T11:20:55Z</time>
      </trkpt>
      <trkpt lat="45.43799" lon="-1.13896">
        <ele>64</ele>
        <time>2025-04-26T11:20:56Z</time>
      </trkpt>
      <trkpt lat="45.43801" lon="-1.13896">
        <ele>64</ele>
        <time>2025-04-26T11:20:57Z</time>
      </trkpt>
      <trkpt lat="45.43803" lon="-1.13896">
        <ele>64</ele>
        <time>2025-04-26T11:20:58Z</time>
      </trkpt>
      <trkpt lat="45.43806" lon="-1.13896">
        <ele>64</ele>
        <time>2025-04-26T11:20:59Z</time>
      </trkpt>
      <trkpt lat="45.43809" lon="-1.13895">
        <ele>64</ele>
        <time>2025-04-26T11:21:00Z</time>
      </trkpt>
      <trkpt lat="45.43811" lon="-1.13894">
        <ele>64</ele>
        <time>2025-04-26T11:21:01Z</time>
      </trkpt>
      <trkpt lat="45.43814" lon="-1.13895">
        <ele>64</ele>
        <time>2025-04-26T11:21:02Z</time>
      </trkpt>
      <trkpt lat="45.43816" lon="-1.13895">
        <ele>64</ele>
        <time>2025-04-26T11:21:03Z</time>
      </trkpt>
      <trkpt lat="45.43819" lon="-1.13894">
        <ele>64</ele>
        <time>2025-04-26T11:21:04Z</time>
      </trkpt>
      <trkpt lat="45.43821" lon="-1.13893">
        <ele>65</ele>
        <time>2025-04-26T11:21:05Z</time>
      </trkpt>
      <trkpt lat="45.43824" lon="-1.13893">
        <ele>65</ele>
        <time>2025-04-26T11:21:06Z</time>
      </trkpt>
      <trkpt lat="45.43827" lon="-1.13893">
        <ele>65</ele>
        <time>2025-04-26T11:21:07Z</time>
      </trkpt>
      <trkpt lat="45.4383" lon="-1.13892">
        <ele>66</ele>
        <time>2025-04-26T11:21:08Z</time>
      </trkpt>
      <trkpt lat="45.43833" lon="-1.13891">
        <ele>65</ele>
        <time>2025-04-26T11:21:09Z</time>
      </trkpt>
      <trkpt lat="45.43836" lon="-1.13891">
        <ele>65</ele>
        <time>2025-04-26T11:21:10Z</time>
      </trkpt>
      <trkpt lat="45.43838" lon="-1.1389">
        <ele>65</ele>
        <time>2025-04-26T11:21:11Z</time>
      </trkpt>
      <trkpt lat="45.43841" lon="-1.1389">
        <ele>64</ele>
        <time>2025-04-26T11:21:12Z</time>
      </trkpt>
      <trkpt lat="45.43843" lon="-1.1389">
        <ele>64</ele>
        <time>2025-04-26T11:21:13Z</time>
      </trkpt>
      <trkpt lat="45.43845" lon="-1.13891">
        <ele>63</ele>
        <time>2025-04-26T11:21:14Z</time>
      </trkpt>
      <trkpt lat="45.43848" lon="-1.13891">
        <ele>63</ele>
        <time>2025-04-26T11:21:15Z</time>
      </trkpt>
      <trkpt lat="45.4385" lon="-1.13892">
        <ele>63</ele>
        <time>2025-04-26T11:21:16Z</time>
      </trkpt>
      <trkpt lat="45.43852" lon="-1.13892">
        <ele>63</ele>
        <time>2025-04-26T11:21:17Z</time>
      </trkpt>
      <trkpt lat="45.43854" lon="-1.13892">
        <ele>62</ele>
        <time>2025-04-26T11:21:18Z</time>
      </trkpt>
      <trkpt lat="45.43856" lon="-1.13891">
        <ele>62</ele>
        <time>2025-04-26T11:21:19Z</time>
      </trkpt>
      <trkpt lat="45.43857" lon="-1.1389">
        <ele>63</ele>
        <time>2025-04-26T11:21:20Z</time>
      </trkpt>
      <trkpt lat="45.43858" lon="-1.1389">
        <ele>63</ele>
        <time>2025-04-26T11:21:21Z</time>
      </trkpt>
      <trkpt lat="45.43858" lon="-1.1389">
        <ele>64</ele>
        <time>2025-04-26T11:21:22Z</time>
      </trkpt>
      <trkpt lat="45.43858" lon="-1.1389">
        <ele>64</ele>
        <time>2025-04-26T11:21:23Z</time>
      </trkpt>
      <trkpt lat="45.43858" lon="-1.1389">
        <ele>64</ele>
        <time>2025-04-26T11:21:24Z</time>
      </trkpt>
      <trkpt lat="45.43858" lon="-1.1389">
        <ele>64</ele>
        <time>2025-04-26T11:21:25Z</time>
      </trkpt>
      <trkpt lat="45.43858" lon="-1.1389">
        <ele>64</ele>
        <time>2025-04-26T11:21:26Z</time>
      </trkpt>
      <trkpt lat="45.43858" lon="-1.1389">
        <ele>64</ele>
        <time>2025-04-26T11:21:27Z</time>
      </trkpt>
      <trkpt lat="45.43858" lon="-1.1389">
        <ele>64</ele>
        <time>2025-04-26T11:21:28Z</time>
      </trkpt>
      <trkpt lat="45.43858" lon="-1.1389">
        <ele>64</ele>
        <time>2025-04-26T11:21:29Z</time>
      </trkpt>
      <trkpt lat="45.43858" lon="-1.1389">
        <ele>64</ele>
        <time>2025-04-26T11:21:30Z</time>
      </trkpt>
      <trkpt lat="45.43858" lon="-1.1389">
        <ele>64</ele>
        <time>2025-04-26T11:21:31Z</time>
      </trkpt>
      <trkpt lat="45.43858" lon="-1.1389">
        <ele>64</ele>
        <time>2025-04-26T11:21:32Z</time>
      </trkpt>
      <trkpt lat="45.43858" lon="-1.1389">
        <ele>64</ele>
        <time>2025-04-26T11:21:33Z</time>
      </trkpt>
      <trkpt lat="45.43858" lon="-1.1389">
        <ele>64</ele>
        <time>2025-04-26T11:21:34Z</time>
      </trkpt>
      <trkpt lat="45.43858" lon="-1.1389">
        <ele>64</ele>
        <time>2025-04-26T11:21:35Z</time>
      </trkpt>
      <trkpt lat="45.43858" lon="-1.1389">
        <ele>64</ele>
        <time>2025-04-26T11:21:36Z</time>
      </trkpt>
      <trkpt lat="45.43858" lon="-1.1389">
        <ele>64</ele>
        <time>2025-04-26T11:21:37Z</time>
      </trkpt>
      <trkpt lat="45.43858" lon="-1.1389">
        <ele>64</ele>
        <time>2025-04-26T11:21:38Z</time>
      </trkpt>
      <trkpt lat="45.43858" lon="-1.1389">
        <ele>64</ele>
        <time>2025-04-26T11:21:39Z</time>
      </trkpt>
      <trkpt lat="45.43858" lon="-1.1389">
        <ele>64</ele>
        <time>2025-04-26T11:21:40Z</time>
      </trkpt>
      <trkpt lat="45.43858" lon="-1.1389">
        <ele>64</ele>
        <time>2025-04-26T11:21:41Z</time>
      </trkpt>
      <trkpt lat="45.43858" lon="-1.1389">
        <ele>64</ele>
        <time>2025-04-26T11:21:42Z</time>
      </trkpt>
      <trkpt lat="45.43858" lon="-1.1389">
        <ele>64</ele>
        <time>2025-04-26T11:21:43Z</time>
      </trkpt>
      <trkpt lat="45.43858" lon="-1.1389">
        <ele>64</ele>
        <time>2025-04-26T11:21:44Z</time>
      </trkpt>
      <trkpt lat="45.43858" lon="-1.1389">
        <ele>64</ele>
        <time>2025-04-26T11:21:45Z</time>
      </trkpt>
      <trkpt lat="45.43858" lon="-1.1389">
        <ele>64</ele>
        <time>2025-04-26T11:21:46Z</time>
      </trkpt>
      <trkpt lat="45.43858" lon="-1.1389">
        <ele>64</ele>
        <time>2025-04-26T11:21:47Z</time>
      </trkpt>
      <trkpt lat="45.43858" lon="-1.1389">
        <ele>64</ele>
        <time>2025-04-26T11:21:48Z</time>
      </trkpt>
      <trkpt lat="45.43858" lon="-1.1389">
        <ele>64</ele>
        <time>2025-04-26T11:21:49Z</time>
      </trkpt>
      <trkpt lat="45.43858" lon="-1.1389">
        <ele>64</ele>
        <time>2025-04-26T11:21:50Z</time>
      </trkpt>
      <trkpt lat="45.43858" lon="-1.1389">
        <ele>64</ele>
        <time>2025-04-26T11:21:51Z</time>
      </trkpt>
      <trkpt lat="45.43858" lon="-1.1389">
        <ele>64</ele>
        <time>2025-04-26T11:21:52Z</time>
      </trkpt>
      <trkpt lat="45.43858" lon="-1.1389">
        <ele>64</ele>
        <time>2025-04-26T11:21:53Z</time>
      </trkpt>
      <trkpt lat="45.43858" lon="-1.1389">
        <ele>64</ele>
        <time>2025-04-26T11:21:54Z</time>
      </trkpt>
      <trkpt lat="45.43858" lon="-1.1389">
        <ele>64</ele>
        <time>2025-04-26T11:21:55Z</time>
      </trkpt>
      <trkpt lat="45.43858" lon="-1.1389">
        <ele>64</ele>
        <time>2025-04-26T11:21:56Z</time>
      </trkpt>
      <trkpt lat="45.43858" lon="-1.1389">
        <ele>64</ele>
        <time>2025-04-26T11:21:57Z</time>
      </trkpt>
      <trkpt lat="45.43858" lon="-1.1389">
        <ele>64</ele>
        <time>2025-04-26T11:21:58Z</time>
      </trkpt>
      <trkpt lat="45.43858" lon="-1.1389">
        <ele>64</ele>
        <time>2025-04-26T11:21:59Z</time>
      </trkpt>
      <trkpt lat="45.43858" lon="-1.1389">
        <ele>64</ele>
        <time>2025-04-26T11:22:00Z</time>
      </trkpt>
      <trkpt lat="45.43858" lon="-1.1389">
        <ele>64</ele>
        <time>2025-04-26T11:22:01Z</time>
      </trkpt>
      <trkpt lat="45.43858" lon="-1.1389">
        <ele>64</ele>
        <time>2025-04-26T11:22:02Z</time>
      </trkpt>
      <trkpt lat="45.43858" lon="-1.1389">
        <ele>64</ele>
        <time>2025-04-26T11:22:03Z</time>
      </trkpt>
      <trkpt lat="45.43858" lon="-1.1389">
        <ele>64</ele>
        <time>2025-04-26T11:22:04Z</time>
      </trkpt>
      <trkpt lat="45.43858" lon="-1.1389">
        <ele>64</ele>
        <time>2025-04-26T11:22:05Z</time>
      </trkpt>
      <trkpt lat="45.43858" lon="-1.1389">
        <ele>64</ele>
        <time>2025-04-26T11:22:06Z</time>
      </trkpt>
      <trkpt lat="45.43858" lon="-1.1389">
        <ele>64</ele>
        <time>2025-04-26T11:22:07Z</time>
      </trkpt>
      <trkpt lat="45.43858" lon="-1.1389">
        <ele>64</ele>
        <time>2025-04-26T11:22:08Z</time>
      </trkpt>
      <trkpt lat="45.43858" lon="-1.1389">
        <ele>64</ele>
        <time>2025-04-26T11:22:09Z</time>
      </trkpt>
      <trkpt lat="45.43858" lon="-1.1389">
        <ele>64</ele>
        <time>2025-04-26T11:22:10Z</time>
      </trkpt>
      <trkpt lat="45.43858" lon="-1.1389">
        <ele>64</ele>
        <time>2025-04-26T11:22:11Z</time>
      </trkpt>
      <trkpt lat="45.43858" lon="-1.1389">
        <ele>64</ele>
        <time>2025-04-26T11:22:12Z</time>
      </trkpt>
      <trkpt lat="45.43858" lon="-1.1389">
        <ele>64</ele>
        <time>2025-04-26T11:22:13Z</time>
      </trkpt>
      <trkpt lat="45.43858" lon="-1.1389">
        <ele>64</ele>
        <time>2025-04-26T11:22:14Z</time>
      </trkpt>
      <trkpt lat="45.43858" lon="-1.1389">
        <ele>64</ele>
        <time>2025-04-26T11:22:15Z</time>
      </trkpt>
      <trkpt lat="45.43858" lon="-1.1389">
        <ele>64</ele>
        <time>2025-04-26T11:22:16Z</time>
      </trkpt>
      <trkpt lat="45.43858" lon="-1.1389">
        <ele>64</ele>
        <time>2025-04-26T11:22:17Z</time>
      </trkpt>
      <trkpt lat="45.43858" lon="-1.1389">
        <ele>64</ele>
        <time>2025-04-26T11:22:18Z</time>
      </trkpt>
      <trkpt lat="45.43858" lon="-1.1389">
        <ele>64</ele>
        <time>2025-04-26T11:22:19Z</time>
      </trkpt>
      <trkpt lat="45.43858" lon="-1.1389">
        <ele>64</ele>
        <time>2025-04-26T11:22:20Z</time>
      </trkpt>
      <trkpt lat="45.43858" lon="-1.1389">
        <ele>64</ele>
        <time>2025-04-26T11:22:21Z</time>
      </trkpt>
      <trkpt lat="45.43858" lon="-1.1389">
        <ele>64</ele>
        <time>2025-04-26T11:22:22Z</time>
      </trkpt>
      <trkpt lat="45.43858" lon="-1.1389">
        <ele>64</ele>
        <time>2025-04-26T11:22:23Z</time>
      </trkpt>
      <trkpt lat="45.43858" lon="-1.1389">
        <ele>64</ele>
        <time>2025-04-26T11:22:24Z</time>
      </trkpt>
      <trkpt lat="45.43858" lon="-1.1389">
        <ele>64</ele>
        <time>2025-04-26T11:22:25Z</time>
      </trkpt>
      <trkpt lat="45.43858" lon="-1.1389">
        <ele>64</ele>
        <time>2025-04-26T11:22:26Z</time>
      </trkpt>
      <trkpt lat="45.43858" lon="-1.1389">
        <ele>64</ele>
        <time>2025-04-26T11:22:27Z</time>
      </trkpt>
      <trkpt lat="45.43858" lon="-1.1389">
        <ele>64</ele>
        <time>2025-04-26T11:22:28Z</time>
      </trkpt>
      <trkpt lat="45.43858" lon="-1.1389">
        <ele>64</ele>
        <time>2025-04-26T11:22:29Z</time>
      </trkpt>
      <trkpt lat="45.43858" lon="-1.1389">
        <ele>64</ele>
        <time>2025-04-26T11:22:30Z</time>
      </trkpt>
      <trkpt lat="45.43858" lon="-1.1389">
        <ele>64</ele>
        <time>2025-04-26T11:22:31Z</time>
      </trkpt>
      <trkpt lat="45.43858" lon="-1.1389">
        <ele>64</ele>
        <time>2025-04-26T11:22:32Z</time>
      </trkpt>
      <trkpt lat="45.43858" lon="-1.1389">
        <ele>64</ele>
        <time>2025-04-26T11:26:48Z</time>
      </trkpt>
      <trkpt lat="45.43858" lon="-1.1389">
        <ele>64</ele>
        <time>2025-04-26T11:26:49Z</time>
      </trkpt>
      <trkpt lat="45.43858" lon="-1.1389">
        <ele>64</ele>
        <time>2025-04-26T11:26:50Z</time>
      </trkpt>
      <trkpt lat="45.43858" lon="-1.1389">
        <ele>64</ele>
        <time>2025-04-26T11:26:51Z</time>
      </trkpt>
      <trkpt lat="45.43858" lon="-1.1389">
        <ele>64</ele>
        <time>2025-04-26T11:26:52Z</time>
      </trkpt>
      <trkpt lat="45.43858" lon="-1.1389">
        <ele>64</ele>
        <time>2025-04-26T11:26:53Z</time>
      </trkpt>
      <trkpt lat="45.43858" lon="-1.1389">
        <ele>64</ele>
        <time>2025-04-26T11:26:54Z</time>
      </trkpt>
      <trkpt lat="45.43858" lon="-1.1389">
        <ele>64</ele>
        <time>2025-04-26T11:26:55Z</time>
      </trkpt>
      <trkpt lat="45.43858" lon="-1.1389">
        <ele>64</ele>
        <time>2025-04-26T11:26:56Z</time>
      </trkpt>
      <trkpt lat="45.43861" lon="-1.13887">
        <ele>67</ele>
        <time>2025-04-26T11:26:57Z</time>
      </trkpt>
      <trkpt lat="45.43862" lon="-1.13886">
        <ele>67</ele>
        <time>2025-04-26T11:26:58Z</time>
      </trkpt>
      <trkpt lat="45.43864" lon="-1.13885">
        <ele>67</ele>
        <time>2025-04-26T11:26:59Z</time>
      </trkpt>
      <trkpt lat="45.43865" lon="-1.13884">
        <ele>67</ele>
        <time>2025-04-26T11:27:00Z</time>
      </trkpt>
      <trkpt lat="45.43868" lon="-1.13884">
        <ele>68</ele>
        <time>2025-04-26T11:27:01Z</time>
      </trkpt>
      <trkpt lat="45.4387" lon="-1.13884">
        <ele>67</ele>
        <time>2025-04-26T11:27:02Z</time>
      </trkpt>
      <trkpt lat="45.43873" lon="-1.13883">
        <ele>67</ele>
        <time>2025-04-26T11:27:03Z</time>
      </trkpt>
      <trkpt lat="45.43876" lon="-1.13883">
        <ele>67</ele>
        <time>2025-04-26T11:27:04Z</time>
      </trkpt>
      <trkpt lat="45.43879" lon="-1.13883">
        <ele>67</ele>
        <time>2025-04-26T11:27:05Z</time>
      </trkpt>
      <trkpt lat="45.43882" lon="-1.13882">
        <ele>67</ele>
        <time>2025-04-26T11:27:06Z</time>
      </trkpt>
      <trkpt lat="45.43886" lon="-1.13882">
        <ele>68</ele>
        <time>2025-04-26T11:27:07Z</time>
      </trkpt>
      <trkpt lat="45.43889" lon="-1.13881">
        <ele>68</ele>
        <time>2025-04-26T11:27:08Z</time>
      </trkpt>
      <trkpt lat="45.43893" lon="-1.1388">
        <ele>68</ele>
        <time>2025-04-26T11:27:09Z</time>
      </trkpt>
      <trkpt lat="45.43897" lon="-1.1388">
        <ele>67</ele>
        <time>2025-04-26T11:27:10Z</time>
      </trkpt>
      <trkpt lat="45.43901" lon="-1.13879">
        <ele>67</ele>
        <time>2025-04-26T11:27:11Z</time>
      </trkpt>
      <trkpt lat="45.43905" lon="-1.13879">
        <ele>66</ele>
        <time>2025-04-26T11:27:12Z</time>
      </trkpt>
      <trkpt lat="45.4391" lon="-1.13878">
        <ele>66</ele>
        <time>2025-04-26T11:27:13Z</time>
      </trkpt>
      <trkpt lat="45.43914" lon="-1.13877">
        <ele>66</ele>
        <time>2025-04-26T11:27:14Z</time>
      </trkpt>
      <trkpt lat="45.43918" lon="-1.13877">
        <ele>65</ele>
        <time>2025-04-26T11:27:15Z</time>
      </trkpt>
      <trkpt lat="45.43923" lon="-1.13877">
        <ele>64</ele>
        <time>2025-04-26T11:27:16Z</time>
      </trkpt>
      <trkpt lat="45.43927" lon="-1.13876">
        <ele>64</ele>
        <time>2025-04-26T11:27:17Z</time>
      </trkpt>
      <trkpt lat="45.43931" lon="-1.13876">
        <ele>63</ele>
        <time>2025-04-26T11:27:18Z</time>
      </trkpt>
      <trkpt lat="45.43936" lon="-1.13875">
        <ele>63</ele>
        <time>2025-04-26T11:27:19Z</time>
      </trkpt>
      <trkpt lat="45.4394" lon="-1.13874">
        <ele>63</ele>
        <time>2025-04-26T11:27:20Z</time>
      </trkpt>
      <trkpt lat="45.43944" lon="-1.13873">
        <ele>64</ele>
        <time>2025-04-26T11:27:21Z</time>
      </trkpt>
      <trkpt lat="45.43949" lon="-1.13872">
        <ele>64</ele>
        <time>2025-04-26T11:27:22Z</time>
      </trkpt>
      <trkpt lat="45.43953" lon="-1.13871">
        <ele>64</ele>
        <time>2025-04-26T11:27:23Z</time>
      </trkpt>
      <trkpt lat="45.43958" lon="-1.13871">
        <ele>64</ele>
        <time>2025-04-26T11:27:24Z</time>
      </trkpt>
      <trkpt lat="45.43962" lon="-1.1387">
        <ele>64</ele>
        <time>2025-04-26T11:27:25Z</time>
      </trkpt>
      <trkpt lat="45.43967" lon="-1.1387">
        <ele>64</ele>
        <time>2025-04-26T11:27:26Z</time>
      </trkpt>
      <trkpt lat="45.43971" lon="-1.13869">
        <ele>64</ele>
        <time>2025-04-26T11:27:27Z</time>
      </trkpt>
      <trkpt lat="45.43975" lon="-1.13868">
        <ele>64</ele>
        <time>2025-04-26T11:27:28Z</time>
      </trkpt>
      <trkpt lat="45.43979" lon="-1.13867">
        <ele>64</ele>
        <time>2025-04-26T11:27:29Z</time>
      </trkpt>
      <trkpt lat="45.43983" lon="-1.13867">
        <ele>64</ele>
        <time>2025-04-26T11:27:30Z</time>
      </trkpt>
      <trkpt lat="45.43988" lon="-1.13866">
        <ele>64</ele>
        <time>2025-04-26T11:27:31Z</time>
      </trkpt>
      <trkpt lat="45.43992" lon="-1.13865">
        <ele>64</ele>
        <time>2025-04-26T11:27:32Z</time>
      </trkpt>
      <trkpt lat="45.43996" lon="-1.13865">
        <ele>64</ele>
        <time>2025-04-26T11:27:33Z</time>
      </trkpt>
      <trkpt lat="45.44" lon="-1.13864">
        <ele>64</ele>
        <time>2025-04-26T11:27:34Z</time>
      </trkpt>
      <trkpt lat="45.44004" lon="-1.13863">
        <ele>64</ele>
        <time>2025-04-26T11:27:35Z</time>
      </trkpt>
      <trkpt lat="45.44009" lon="-1.13862">
        <ele>64</ele>
        <time>2025-04-26T11:27:36Z</time>
      </trkpt>
      <trkpt lat="45.44013" lon="-1.13862">
        <ele>64</ele>
        <time>2025-04-26T11:27:37Z</time>
      </trkpt>
      <trkpt lat="45.44017" lon="-1.13861">
        <ele>63</ele>
        <time>2025-04-26T11:27:38Z</time>
      </trkpt>
      <trkpt lat="45.44022" lon="-1.1386">
        <ele>64</ele>
        <time>2025-04-26T11:27:39Z</time>
      </trkpt>
      <trkpt lat="45.44026" lon="-1.1386">
        <ele>63</ele>
        <time>2025-04-26T11:27:40Z</time>
      </trkpt>
      <trkpt lat="45.4403" lon="-1.1386">
        <ele>63</ele>
        <time>2025-04-26T11:27:41Z</time>
      </trkpt>
      <trkpt lat="45.44034" lon="-1.13859">
        <ele>63</ele>
        <time>2025-04-26T11:27:42Z</time>
      </trkpt>
      <trkpt lat="45.44038" lon="-1.13858">
        <ele>64</ele>
        <time>2025-04-26T11:27:43Z</time>
      </trkpt>
      <trkpt lat="45.44042" lon="-1.13857">
        <ele>64</ele>
        <time>2025-04-26T11:27:44Z</time>
      </trkpt>
      <trkpt lat="45.44046" lon="-1.13856">
        <ele>65</ele>
        <time>2025-04-26T11:27:45Z</time>
      </trkpt>
      <trkpt lat="45.4405" lon="-1.13855">
        <ele>65</ele>
        <time>2025-04-26T11:27:46Z</time>
      </trkpt>
      <trkpt lat="45.44054" lon="-1.13855">
        <ele>65</ele>
        <time>2025-04-26T11:27:47Z</time>
      </trkpt>
      <trkpt lat="45.44058" lon="-1.13854">
        <ele>64</ele>
        <time>2025-04-26T11:27:48Z</time>
      </trkpt>
      <trkpt lat="45.44062" lon="-1.13855">
        <ele>64</ele>
        <time>2025-04-26T11:27:49Z</time>
      </trkpt>
      <trkpt lat="45.44066" lon="-1.13854">
        <ele>63</ele>
        <time>2025-04-26T11:27:50Z</time>
      </trkpt>
      <trkpt lat="45.4407" lon="-1.13854">
        <ele>63</ele>
        <time>2025-04-26T11:27:51Z</time>
      </trkpt>
      <trkpt lat="45.44074" lon="-1.13853">
        <ele>64</ele>
        <time>2025-04-26T11:27:52Z</time>
      </trkpt>
      <trkpt lat="45.44078" lon="-1.13852">
        <ele>64</ele>
        <time>2025-04-26T11:27:53Z</time>
      </trkpt>
      <trkpt lat="45.44082" lon="-1.13851">
        <ele>63</ele>
        <time>2025-04-26T11:27:54Z</time>
      </trkpt>
      <trkpt lat="45.44086" lon="-1.13851">
        <ele>64</ele>
        <time>2025-04-26T11:27:55Z</time>
      </trkpt>
      <trkpt lat="45.44091" lon="-1.1385">
        <ele>64</ele>
        <time>2025-04-26T11:27:56Z</time>
      </trkpt>
      <trkpt lat="45.44095" lon="-1.1385">
        <ele>64</ele>
        <time>2025-04-26T11:27:57Z</time>
      </trkpt>
      <trkpt lat="45.44099" lon="-1.13849">
        <ele>64</ele>
        <time>2025-04-26T11:27:58Z</time>
      </trkpt>
      <trkpt lat="45.44103" lon="-1.13848">
        <ele>64</ele>
        <time>2025-04-26T11:27:59Z</time>
      </trkpt>
      <trkpt lat="45.44107" lon="-1.13847">
        <ele>64</ele>
        <time>2025-04-26T11:28:00Z</time>
      </trkpt>
      <trkpt lat="45.44112" lon="-1.13847">
        <ele>64</ele>
        <time>2025-04-26T11:28:01Z</time>
      </trkpt>
      <trkpt lat="45.44116" lon="-1.13846">
        <ele>64</ele>
        <time>2025-04-26T11:28:02Z</time>
      </trkpt>
      <trkpt lat="45.4412" lon="-1.13845">
        <ele>64</ele>
        <time>2025-04-26T11:28:03Z</time>
      </trkpt>
      <trkpt lat="45.44125" lon="-1.13845">
        <ele>64</ele>
        <time>2025-04-26T11:28:04Z</time>
      </trkpt>
      <trkpt lat="45.44129" lon="-1.13844">
        <ele>64</ele>
        <time>2025-04-26T11:28:05Z</time>
      </trkpt>
      <trkpt lat="45.44133" lon="-1.13843">
        <ele>64</ele>
        <time>2025-04-26T11:28:06Z</time>
      </trkpt>
      <trkpt lat="45.44137" lon="-1.13842">
        <ele>65</ele>
        <time>2025-04-26T11:28:07Z</time>
      </trkpt>
      <trkpt lat="45.44142" lon="-1.13841">
        <ele>65</ele>
        <time>2025-04-26T11:28:08Z</time>
      </trkpt>
      <trkpt lat="45.44146" lon="-1.1384">
        <ele>65</ele>
        <time>2025-04-26T11:28:09Z</time>
      </trkpt>
      <trkpt lat="45.44151" lon="-1.1384">
        <ele>65</ele>
        <time>2025-04-26T11:28:10Z</time>
      </trkpt>
      <trkpt lat="45.44155" lon="-1.13839">
        <ele>65</ele>
        <time>2025-04-26T11:28:11Z</time>
      </trkpt>
      <trkpt lat="45.4416" lon="-1.13839">
        <ele>65</ele>
        <time>2025-04-26T11:28:12Z</time>
      </trkpt>
      <trkpt lat="45.44164" lon="-1.13838">
        <ele>65</ele>
        <time>2025-04-26T11:28:13Z</time>
      </trkpt>
      <trkpt lat="45.44169" lon="-1.13837">
        <ele>66</ele>
        <time>2025-04-26T11:28:14Z</time>
      </trkpt>
      <trkpt lat="45.44173" lon="-1.13837">
        <ele>65</ele>
        <time>2025-04-26T11:28:15Z</time>
      </trkpt>
      <trkpt lat="45.44178" lon="-1.13836">
        <ele>65</ele>
        <time>2025-04-26T11:28:16Z</time>
      </trkpt>
      <trkpt lat="45.44183" lon="-1.13835">
        <ele>65</ele>
        <time>2025-04-26T11:28:17Z</time>
      </trkpt>
      <trkpt lat="45.44188" lon="-1.13834">
        <ele>65</ele>
        <time>2025-04-26T11:28:18Z</time>
      </trkpt>
      <trkpt lat="45.44193" lon="-1.13834">
        <ele>65</ele>
        <time>2025-04-26T11:28:19Z</time>
      </trkpt>
      <trkpt lat="45.44198" lon="-1.13833">
        <ele>64</ele>
        <time>2025-04-26T11:28:20Z</time>
      </trkpt>
      <trkpt lat="45.44202" lon="-1.13832">
        <ele>64</ele>
        <time>2025-04-26T11:28:21Z</time>
      </trkpt>
      <trkpt lat="45.44207" lon="-1.13831">
        <ele>64</ele>
        <time>2025-04-26T11:28:22Z</time>
      </trkpt>
      <trkpt lat="45.44212" lon="-1.13831">
        <ele>63</ele>
        <time>2025-04-26T11:28:23Z</time>
      </trkpt>
      <trkpt lat="45.44216" lon="-1.13832">
        <ele>62</ele>
        <time>2025-04-26T11:28:24Z</time>
      </trkpt>
      <trkpt lat="45.44221" lon="-1.13831">
        <ele>62</ele>
        <time>2025-04-26T11:28:25Z</time>
      </trkpt>
      <trkpt lat="45.44226" lon="-1.1383">
        <ele>62</ele>
        <time>2025-04-26T11:28:26Z</time>
      </trkpt>
      <trkpt lat="45.44231" lon="-1.13829">
        <ele>63</ele>
        <time>2025-04-26T11:28:27Z</time>
      </trkpt>
      <trkpt lat="45.44235" lon="-1.1383">
        <ele>62</ele>
        <time>2025-04-26T11:28:28Z</time>
      </trkpt>
      <trkpt lat="45.4424" lon="-1.13829">
        <ele>62</ele>
        <time>2025-04-26T11:28:29Z</time>
      </trkpt>
      <trkpt lat="45.44245" lon="-1.13828">
        <ele>62</ele>
        <time>2025-04-26T11:28:30Z</time>
      </trkpt>
      <trkpt lat="45.44249" lon="-1.13827">
        <ele>62</ele>
        <time>2025-04-26T11:28:31Z</time>
      </trkpt>
      <trkpt lat="45.44254" lon="-1.13827">
        <ele>62</ele>
        <time>2025-04-26T11:28:32Z</time>
      </trkpt>
      <trkpt lat="45.44258" lon="-1.13826">
        <ele>62</ele>
        <time>2025-04-26T11:28:33Z</time>
      </trkpt>
      <trkpt lat="45.44263" lon="-1.13826">
        <ele>62</ele>
        <time>2025-04-26T11:28:34Z</time>
      </trkpt>
      <trkpt lat="45.44268" lon="-1.13825">
        <ele>62</ele>
        <time>2025-04-26T11:28:35Z</time>
      </trkpt>
      <trkpt lat="45.44272" lon="-1.13824">
        <ele>62</ele>
        <time>2025-04-26T11:28:36Z</time>
      </trkpt>
      <trkpt lat="45.44276" lon="-1.13823">
        <ele>62</ele>
        <time>2025-04-26T11:28:37Z</time>
      </trkpt>
      <trkpt lat="45.4428" lon="-1.13823">
        <ele>63</ele>
        <time>2025-04-26T11:28:38Z</time>
      </trkpt>
      <trkpt lat="45.44285" lon="-1.13823">
        <ele>62</ele>
        <time>2025-04-26T11:28:39Z</time>
      </trkpt>
      <trkpt lat="45.44289" lon="-1.13822">
        <ele>63</ele>
        <time>2025-04-26T11:28:40Z</time>
      </trkpt>
      <trkpt lat="45.44294" lon="-1.13821">
        <ele>63</ele>
        <time>2025-04-26T11:28:41Z</time>
      </trkpt>
      <trkpt lat="45.44299" lon="-1.1382">
        <ele>63</ele>
        <time>2025-04-26T11:28:42Z</time>
      </trkpt>
      <trkpt lat="45.44304" lon="-1.13819">
        <ele>62</ele>
        <time>2025-04-26T11:28:43Z</time>
      </trkpt>
      <trkpt lat="45.44309" lon="-1.13819">
        <ele>62</ele>
        <time>2025-04-26T11:28:44Z</time>
      </trkpt>
      <trkpt lat="45.44313" lon="-1.13818">
        <ele>62</ele>
        <time>2025-04-26T11:28:45Z</time>
      </trkpt>
      <trkpt lat="45.44318" lon="-1.13817">
        <ele>62</ele>
        <time>2025-04-26T11:28:46Z</time>
      </trkpt>
      <trkpt lat="45.44323" lon="-1.13817">
        <ele>62</ele>
        <time>2025-04-26T11:28:47Z</time>
      </trkpt>
      <trkpt lat="45.44328" lon="-1.13816">
        <ele>62</ele>
        <time>2025-04-26T11:28:48Z</time>
      </trkpt>
      <trkpt lat="45.44333" lon="-1.13815">
        <ele>62</ele>
        <time>2025-04-26T11:28:49Z</time>
      </trkpt>
      <trkpt lat="45.44337" lon="-1.13815">
        <ele>61</ele>
        <time>2025-04-26T11:28:50Z</time>
      </trkpt>
      <trkpt lat="45.44342" lon="-1.13815">
        <ele>61</ele>
        <time>2025-04-26T11:28:51Z</time>
      </trkpt>
      <trkpt lat="45.44347" lon="-1.13814">
        <ele>61</ele>
        <time>2025-04-26T11:28:52Z</time>
      </trkpt>
      <trkpt lat="45.44351" lon="-1.13813">
        <ele>61</ele>
        <time>2025-04-26T11:28:53Z</time>
      </trkpt>
      <trkpt lat="45.44355" lon="-1.13812">
        <ele>61</ele>
        <time>2025-04-26T11:28:54Z</time>
      </trkpt>
      <trkpt lat="45.4436" lon="-1.13812">
        <ele>61</ele>
        <time>2025-04-26T11:28:55Z</time>
      </trkpt>
      <trkpt lat="45.44364" lon="-1.13812">
        <ele>61</ele>
        <time>2025-04-26T11:28:56Z</time>
      </trkpt>
      <trkpt lat="45.44369" lon="-1.13811">
        <ele>62</ele>
        <time>2025-04-26T11:28:57Z</time>
      </trkpt>
      <trkpt lat="45.44373" lon="-1.13811">
        <ele>62</ele>
        <time>2025-04-26T11:28:58Z</time>
      </trkpt>
      <trkpt lat="45.44377" lon="-1.13811">
        <ele>61</ele>
        <time>2025-04-26T11:28:59Z</time>
      </trkpt>
      <trkpt lat="45.44381" lon="-1.1381">
        <ele>62</ele>
        <time>2025-04-26T11:29:00Z</time>
      </trkpt>
      <trkpt lat="45.44386" lon="-1.13809">
        <ele>63</ele>
        <time>2025-04-26T11:29:01Z</time>
      </trkpt>
      <trkpt lat="45.4439" lon="-1.13809">
        <ele>63</ele>
        <time>2025-04-26T11:29:02Z</time>
      </trkpt>
      <trkpt lat="45.44394" lon="-1.13809">
        <ele>63</ele>
        <time>2025-04-26T11:29:03Z</time>
      </trkpt>
      <trkpt lat="45.44397" lon="-1.13808">
        <ele>64</ele>
        <time>2025-04-26T11:29:04Z</time>
      </trkpt>
      <trkpt lat="45.44401" lon="-1.13807">
        <ele>64</ele>
        <time>2025-04-26T11:29:05Z</time>
      </trkpt>
      <trkpt lat="45.44405" lon="-1.13806">
        <ele>65</ele>
        <time>2025-04-26T11:29:06Z</time>
      </trkpt>
      <trkpt lat="45.44409" lon="-1.13806">
        <ele>65</ele>
        <time>2025-04-26T11:29:07Z</time>
      </trkpt>
      <trkpt lat="45.44413" lon="-1.13805">
        <ele>66</ele>
        <time>2025-04-26T11:29:08Z</time>
      </trkpt>
      <trkpt lat="45.44418" lon="-1.13805">
        <ele>66</ele>
        <time>2025-04-26T11:29:09Z</time>
      </trkpt>
      <trkpt lat="45.44421" lon="-1.13804">
        <ele>66</ele>
        <time>2025-04-26T11:29:10Z</time>
      </trkpt>
      <trkpt lat="45.44425" lon="-1.13804">
        <ele>67</ele>
        <time>2025-04-26T11:29:11Z</time>
      </trkpt>
      <trkpt lat="45.44429" lon="-1.13804">
        <ele>66</ele>
        <time>2025-04-26T11:29:12Z</time>
      </trkpt>
      <trkpt lat="45.44433" lon="-1.13804">
        <ele>66</ele>
        <time>2025-04-26T11:29:13Z</time>
      </trkpt>
      <trkpt lat="45.44437" lon="-1.13803">
        <ele>68</ele>
        <time>2025-04-26T11:29:14Z</time>
      </trkpt>
      <trkpt lat="45.4444" lon="-1.13802">
        <ele>69</ele>
        <time>2025-04-26T11:29:15Z</time>
      </trkpt>
      <trkpt lat="45.44444" lon="-1.13801">
        <ele>70</ele>
        <time>2025-04-26T11:29:16Z</time>
      </trkpt>
      <trkpt lat="45.44449" lon="-1.13801">
        <ele>71</ele>
        <time>2025-04-26T11:29:17Z</time>
      </trkpt>
      <trkpt lat="45.44453" lon="-1.13801">
        <ele>70</ele>
        <time>2025-04-26T11:29:18Z</time>
      </trkpt>
      <trkpt lat="45.44458" lon="-1.13801">
        <ele>69</ele>
        <time>2025-04-26T11:29:19Z</time>
      </trkpt>
      <trkpt lat="45.44462" lon="-1.13801">
        <ele>67</ele>
        <time>2025-04-26T11:29:20Z</time>
      </trkpt>
      <trkpt lat="45.44466" lon="-1.138">
        <ele>68</ele>
        <time>2025-04-26T11:29:21Z</time>
      </trkpt>
      <trkpt lat="45.44471" lon="-1.13799">
        <ele>68</ele>
        <time>2025-04-26T11:29:22Z</time>
      </trkpt>
      <trkpt lat="45.44476" lon="-1.13798">
        <ele>67</ele>
        <time>2025-04-26T11:29:23Z</time>
      </trkpt>
      <trkpt lat="45.4448" lon="-1.13799">
        <ele>65</ele>
        <time>2025-04-26T11:29:24Z</time>
      </trkpt>
      <trkpt lat="45.44484" lon="-1.13797">
        <ele>65</ele>
        <time>2025-04-26T11:29:25Z</time>
      </trkpt>
      <trkpt lat="45.44489" lon="-1.13797">
        <ele>64</ele>
        <time>2025-04-26T11:29:26Z</time>
      </trkpt>
      <trkpt lat="45.44493" lon="-1.13795">
        <ele>64</ele>
        <time>2025-04-26T11:29:27Z</time>
      </trkpt>
      <trkpt lat="45.44498" lon="-1.13795">
        <ele>64</ele>
        <time>2025-04-26T11:29:28Z</time>
      </trkpt>
      <trkpt lat="45.44503" lon="-1.13795">
        <ele>64</ele>
        <time>2025-04-26T11:29:29Z</time>
      </trkpt>
      <trkpt lat="45.44507" lon="-1.13794">
        <ele>63</ele>
        <time>2025-04-26T11:29:30Z</time>
      </trkpt>
      <trkpt lat="45.44512" lon="-1.13793">
        <ele>63</ele>
        <time>2025-04-26T11:29:31Z</time>
      </trkpt>
      <trkpt lat="45.44517" lon="-1.13793">
        <ele>63</ele>
        <time>2025-04-26T11:29:32Z</time>
      </trkpt>
      <trkpt lat="45.44521" lon="-1.13792">
        <ele>62</ele>
        <time>2025-04-26T11:29:33Z</time>
      </trkpt>
      <trkpt lat="45.44526" lon="-1.13792">
        <ele>62</ele>
        <time>2025-04-26T11:29:34Z</time>
      </trkpt>
      <trkpt lat="45.4453" lon="-1.13791">
        <ele>63</ele>
        <time>2025-04-26T11:29:35Z</time>
      </trkpt>
      <trkpt lat="45.44534" lon="-1.1379">
        <ele>63</ele>
        <time>2025-04-26T11:29:36Z</time>
      </trkpt>
      <trkpt lat="45.44538" lon="-1.13789">
        <ele>63</ele>
        <time>2025-04-26T11:29:37Z</time>
      </trkpt>
      <trkpt lat="45.44542" lon="-1.13789">
        <ele>63</ele>
        <time>2025-04-26T11:29:38Z</time>
      </trkpt>
      <trkpt lat="45.44546" lon="-1.13787">
        <ele>64</ele>
        <time>2025-04-26T11:29:39Z</time>
      </trkpt>
      <trkpt lat="45.4455" lon="-1.13787">
        <ele>64</ele>
        <time>2025-04-26T11:29:40Z</time>
      </trkpt>
      <trkpt lat="45.44555" lon="-1.13786">
        <ele>64</ele>
        <time>2025-04-26T11:29:41Z</time>
      </trkpt>
      <trkpt lat="45.44559" lon="-1.13786">
        <ele>64</ele>
        <time>2025-04-26T11:29:42Z</time>
      </trkpt>
      <trkpt lat="45.44564" lon="-1.13786">
        <ele>63</ele>
        <time>2025-04-26T11:29:43Z</time>
      </trkpt>
      <trkpt lat="45.44569" lon="-1.13785">
        <ele>64</ele>
        <time>2025-04-26T11:29:44Z</time>
      </trkpt>
      <trkpt lat="45.44573" lon="-1.13784">
        <ele>64</ele>
        <time>2025-04-26T11:29:45Z</time>
      </trkpt>
      <trkpt lat="45.44578" lon="-1.13784">
        <ele>64</ele>
        <time>2025-04-26T11:29:46Z</time>
      </trkpt>
      <trkpt lat="45.44583" lon="-1.13783">
        <ele>64</ele>
        <time>2025-04-26T11:29:47Z</time>
      </trkpt>
      <trkpt lat="45.44587" lon="-1.13783">
        <ele>64</ele>
        <time>2025-04-26T11:29:48Z</time>
      </trkpt>
      <trkpt lat="45.44592" lon="-1.13782">
        <ele>63</ele>
        <time>2025-04-26T11:29:49Z</time>
      </trkpt>
      <trkpt lat="45.44596" lon="-1.13782">
        <ele>63</ele>
        <time>2025-04-26T11:29:50Z</time>
      </trkpt>
      <trkpt lat="45.44601" lon="-1.13781">
        <ele>63</ele>
        <time>2025-04-26T11:29:51Z</time>
      </trkpt>
      <trkpt lat="45.44605" lon="-1.13781">
        <ele>63</ele>
        <time>2025-04-26T11:29:52Z</time>
      </trkpt>
      <trkpt lat="45.4461" lon="-1.1378">
        <ele>63</ele>
        <time>2025-04-26T11:29:53Z</time>
      </trkpt>
      <trkpt lat="45.44614" lon="-1.13779">
        <ele>63</ele>
        <time>2025-04-26T11:29:54Z</time>
      </trkpt>
      <trkpt lat="45.44619" lon="-1.13778">
        <ele>63</ele>
        <time>2025-04-26T11:29:55Z</time>
      </trkpt>
      <trkpt lat="45.44624" lon="-1.13778">
        <ele>63</ele>
        <time>2025-04-26T11:29:56Z</time>
      </trkpt>
      <trkpt lat="45.44628" lon="-1.13778">
        <ele>63</ele>
        <time>2025-04-26T11:29:57Z</time>
      </trkpt>
      <trkpt lat="45.44632" lon="-1.13777">
        <ele>63</ele>
        <time>2025-04-26T11:29:58Z</time>
      </trkpt>
      <trkpt lat="45.44637" lon="-1.13776">
        <ele>63</ele>
        <time>2025-04-26T11:29:59Z</time>
      </trkpt>
      <trkpt lat="45.44642" lon="-1.13776">
        <ele>63</ele>
        <time>2025-04-26T11:30:00Z</time>
      </trkpt>
      <trkpt lat="45.44646" lon="-1.13777">
        <ele>62</ele>
        <time>2025-04-26T11:30:01Z</time>
      </trkpt>
      <trkpt lat="45.44651" lon="-1.13776">
        <ele>62</ele>
        <time>2025-04-26T11:30:02Z</time>
      </trkpt>
      <trkpt lat="45.44656" lon="-1.13775">
        <ele>62</ele>
        <time>2025-04-26T11:30:03Z</time>
      </trkpt>
      <trkpt lat="45.4466" lon="-1.13774">
        <ele>62</ele>
        <time>2025-04-26T11:30:04Z</time>
      </trkpt>
      <trkpt lat="45.44665" lon="-1.13773">
        <ele>62</ele>
        <time>2025-04-26T11:30:05Z</time>
      </trkpt>
      <trkpt lat="45.4467" lon="-1.13772">
        <ele>62</ele>
        <time>2025-04-26T11:30:06Z</time>
      </trkpt>
      <trkpt lat="45.44675" lon="-1.13772">
        <ele>62</ele>
        <time>2025-04-26T11:30:07Z</time>
      </trkpt>
      <trkpt lat="45.44679" lon="-1.13771">
        <ele>62</ele>
        <time>2025-04-26T11:30:08Z</time>
      </trkpt>
      <trkpt lat="45.44684" lon="-1.13771">
        <ele>62</ele>
        <time>2025-04-26T11:30:09Z</time>
      </trkpt>
      <trkpt lat="45.44688" lon="-1.13771">
        <ele>62</ele>
        <time>2025-04-26T11:30:10Z</time>
      </trkpt>
      <trkpt lat="45.44692" lon="-1.1377">
        <ele>61</ele>
        <time>2025-04-26T11:30:11Z</time>
      </trkpt>
      <trkpt lat="45.44697" lon="-1.1377">
        <ele>62</ele>
        <time>2025-04-26T11:30:12Z</time>
      </trkpt>
      <trkpt lat="45.44701" lon="-1.13769">
        <ele>61</ele>
        <time>2025-04-26T11:30:13Z</time>
      </trkpt>
      <trkpt lat="45.44706" lon="-1.13768">
        <ele>62</ele>
        <time>2025-04-26T11:30:14Z</time>
      </trkpt>
      <trkpt lat="45.4471" lon="-1.13767">
        <ele>62</ele>
        <time>2025-04-26T11:30:15Z</time>
      </trkpt>
      <trkpt lat="45.44715" lon="-1.13767">
        <ele>62</ele>
        <time>2025-04-26T11:30:16Z</time>
      </trkpt>
      <trkpt lat="45.44719" lon="-1.13766">
        <ele>62</ele>
        <time>2025-04-26T11:30:17Z</time>
      </trkpt>
      <trkpt lat="45.44724" lon="-1.13765">
        <ele>62</ele>
        <time>2025-04-26T11:30:18Z</time>
      </trkpt>
      <trkpt lat="45.44728" lon="-1.13765">
        <ele>63</ele>
        <time>2025-04-26T11:30:19Z</time>
      </trkpt>
      <trkpt lat="45.44733" lon="-1.13764">
        <ele>63</ele>
        <time>2025-04-26T11:30:20Z</time>
      </trkpt>
      <trkpt lat="45.44737" lon="-1.13764">
        <ele>63</ele>
        <time>2025-04-26T11:30:21Z</time>
      </trkpt>
      <trkpt lat="45.44741" lon="-1.13764">
        <ele>63</ele>
        <time>2025-04-26T11:30:22Z</time>
      </trkpt>
      <trkpt lat="45.44746" lon="-1.13763">
        <ele>63</ele>
        <time>2025-04-26T11:30:23Z</time>
      </trkpt>
      <trkpt lat="45.4475" lon="-1.13763">
        <ele>63</ele>
        <time>2025-04-26T11:30:24Z</time>
      </trkpt>
      <trkpt lat="45.44754" lon="-1.13762">
        <ele>63</ele>
        <time>2025-04-26T11:30:25Z</time>
      </trkpt>
      <trkpt lat="45.44758" lon="-1.13761">
        <ele>62</ele>
        <time>2025-04-26T11:30:26Z</time>
      </trkpt>
      <trkpt lat="45.44763" lon="-1.1376">
        <ele>63</ele>
        <time>2025-04-26T11:30:27Z</time>
      </trkpt>
      <trkpt lat="45.44767" lon="-1.13759">
        <ele>63</ele>
        <time>2025-04-26T11:30:28Z</time>
      </trkpt>
      <trkpt lat="45.44772" lon="-1.13759">
        <ele>62</ele>
        <time>2025-04-26T11:30:29Z</time>
      </trkpt>
      <trkpt lat="45.44776" lon="-1.13758">
        <ele>62</ele>
        <time>2025-04-26T11:30:30Z</time>
      </trkpt>
      <trkpt lat="45.4478" lon="-1.13757">
        <ele>62</ele>
        <time>2025-04-26T11:30:31Z</time>
      </trkpt>
      <trkpt lat="45.44785" lon="-1.13756">
        <ele>63</ele>
        <time>2025-04-26T11:30:32Z</time>
      </trkpt>
      <trkpt lat="45.4479" lon="-1.13755">
        <ele>64</ele>
        <time>2025-04-26T11:30:33Z</time>
      </trkpt>
      <trkpt lat="45.44794" lon="-1.13755">
        <ele>64</ele>
        <time>2025-04-26T11:30:34Z</time>
      </trkpt>
      <trkpt lat="45.44799" lon="-1.13754">
        <ele>65</ele>
        <time>2025-04-26T11:30:35Z</time>
      </trkpt>
      <trkpt lat="45.44803" lon="-1.13754">
        <ele>65</ele>
        <time>2025-04-26T11:30:36Z</time>
      </trkpt>
      <trkpt lat="45.44808" lon="-1.13753">
        <ele>66</ele>
        <time>2025-04-26T11:30:37Z</time>
      </trkpt>
      <trkpt lat="45.44812" lon="-1.13752">
        <ele>66</ele>
        <time>2025-04-26T11:30:38Z</time>
      </trkpt>
      <trkpt lat="45.44817" lon="-1.13751">
        <ele>67</ele>
        <time>2025-04-26T11:30:39Z</time>
      </trkpt>
      <trkpt lat="45.44821" lon="-1.13749">
        <ele>67</ele>
        <time>2025-04-26T11:30:40Z</time>
      </trkpt>
      <trkpt lat="45.44825" lon="-1.13749">
        <ele>68</ele>
        <time>2025-04-26T11:30:41Z</time>
      </trkpt>
      <trkpt lat="45.44829" lon="-1.13748">
        <ele>69</ele>
        <time>2025-04-26T11:30:42Z</time>
      </trkpt>
      <trkpt lat="45.44833" lon="-1.13748">
        <ele>69</ele>
        <time>2025-04-26T11:30:43Z</time>
      </trkpt>
      <trkpt lat="45.44838" lon="-1.13747">
        <ele>69</ele>
        <time>2025-04-26T11:30:44Z</time>
      </trkpt>
      <trkpt lat="45.44842" lon="-1.13747">
        <ele>69</ele>
        <time>2025-04-26T11:30:45Z</time>
      </trkpt>
      <trkpt lat="45.44846" lon="-1.13747">
        <ele>69</ele>
        <time>2025-04-26T11:30:46Z</time>
      </trkpt>
      <trkpt lat="45.44851" lon="-1.13747">
        <ele>69</ele>
        <time>2025-04-26T11:30:47Z</time>
      </trkpt>
      <trkpt lat="45.44855" lon="-1.13747">
        <ele>69</ele>
        <time>2025-04-26T11:30:48Z</time>
      </trkpt>
      <trkpt lat="45.44859" lon="-1.13747">
        <ele>70</ele>
        <time>2025-04-26T11:30:49Z</time>
      </trkpt>
      <trkpt lat="45.44863" lon="-1.13747">
        <ele>70</ele>
        <time>2025-04-26T11:30:50Z</time>
      </trkpt>
      <trkpt lat="45.44868" lon="-1.13747">
        <ele>71</ele>
        <time>2025-04-26T11:30:51Z</time>
      </trkpt>
      <trkpt lat="45.44873" lon="-1.13747">
        <ele>71</ele>
        <time>2025-04-26T11:30:52Z</time>
      </trkpt>
      <trkpt lat="45.44878" lon="-1.13747">
        <ele>71</ele>
        <time>2025-04-26T11:30:53Z</time>
      </trkpt>
      <trkpt lat="45.44883" lon="-1.13746">
        <ele>71</ele>
        <time>2025-04-26T11:30:54Z</time>
      </trkpt>
      <trkpt lat="45.44888" lon="-1.13745">
        <ele>72</ele>
        <time>2025-04-26T11:30:55Z</time>
      </trkpt>
      <trkpt lat="45.44892" lon="-1.13744">
        <ele>74</ele>
        <time>2025-04-26T11:30:56Z</time>
      </trkpt>
      <trkpt lat="45.44896" lon="-1.13743">
        <ele>75</ele>
        <time>2025-04-26T11:30:57Z</time>
      </trkpt>
      <trkpt lat="45.44901" lon="-1.13743">
        <ele>74</ele>
        <time>2025-04-26T11:30:58Z</time>
      </trkpt>
      <trkpt lat="45.44905" lon="-1.13742">
        <ele>74</ele>
        <time>2025-04-26T11:30:59Z</time>
      </trkpt>
      <trkpt lat="45.44909" lon="-1.13741">
        <ele>74</ele>
        <time>2025-04-26T11:31:00Z</time>
      </trkpt>
      <trkpt lat="45.44914" lon="-1.1374">
        <ele>74</ele>
        <time>2025-04-26T11:31:01Z</time>
      </trkpt>
      <trkpt lat="45.44918" lon="-1.1374">
        <ele>74</ele>
        <time>2025-04-26T11:31:02Z</time>
      </trkpt>
      <trkpt lat="45.44922" lon="-1.13739">
        <ele>75</ele>
        <time>2025-04-26T11:31:03Z</time>
      </trkpt>
      <trkpt lat="45.44926" lon="-1.13738">
        <ele>75</ele>
        <time>2025-04-26T11:31:04Z</time>
      </trkpt>
      <trkpt lat="45.44931" lon="-1.13738">
        <ele>75</ele>
        <time>2025-04-26T11:31:05Z</time>
      </trkpt>
      <trkpt lat="45.44935" lon="-1.13737">
        <ele>76</ele>
        <time>2025-04-26T11:31:06Z</time>
      </trkpt>
      <trkpt lat="45.4494" lon="-1.13736">
        <ele>76</ele>
        <time>2025-04-26T11:31:07Z</time>
      </trkpt>
      <trkpt lat="45.44944" lon="-1.13736">
        <ele>77</ele>
        <time>2025-04-26T11:31:08Z</time>
      </trkpt>
      <trkpt lat="45.44949" lon="-1.13736">
        <ele>77</ele>
        <time>2025-04-26T11:31:09Z</time>
      </trkpt>
      <trkpt lat="45.44953" lon="-1.13735">
        <ele>78</ele>
        <time>2025-04-26T11:31:10Z</time>
      </trkpt>
      <trkpt lat="45.44957" lon="-1.13734">
        <ele>80</ele>
        <time>2025-04-26T11:31:11Z</time>
      </trkpt>
      <trkpt lat="45.44962" lon="-1.13733">
        <ele>80</ele>
        <time>2025-04-26T11:31:12Z</time>
      </trkpt>
      <trkpt lat="45.44967" lon="-1.13733">
        <ele>80</ele>
        <time>2025-04-26T11:31:13Z</time>
      </trkpt>
      <trkpt lat="45.44971" lon="-1.13733">
        <ele>78</ele>
        <time>2025-04-26T11:31:14Z</time>
      </trkpt>
      <trkpt lat="45.44976" lon="-1.13732">
        <ele>78</ele>
        <time>2025-04-26T11:31:15Z</time>
      </trkpt>
      <trkpt lat="45.44982" lon="-1.13731">
        <ele>77</ele>
        <time>2025-04-26T11:31:16Z</time>
      </trkpt>
      <trkpt lat="45.44987" lon="-1.1373">
        <ele>76</ele>
        <time>2025-04-26T11:31:17Z</time>
      </trkpt>
      <trkpt lat="45.44991" lon="-1.13728">
        <ele>75</ele>
        <time>2025-04-26T11:31:18Z</time>
      </trkpt>
      <trkpt lat="45.44996" lon="-1.13727">
        <ele>74</ele>
        <time>2025-04-26T11:31:19Z</time>
      </trkpt>
      <trkpt lat="45.45002" lon="-1.13726">
        <ele>73</ele>
        <time>2025-04-26T11:31:20Z</time>
      </trkpt>
      <trkpt lat="45.45007" lon="-1.13726">
        <ele>71</ele>
        <time>2025-04-26T11:31:21Z</time>
      </trkpt>
      <trkpt lat="45.45011" lon="-1.13726">
        <ele>70</ele>
        <time>2025-04-26T11:31:22Z</time>
      </trkpt>
      <trkpt lat="45.45016" lon="-1.13725">
        <ele>71</ele>
        <time>2025-04-26T11:31:23Z</time>
      </trkpt>
      <trkpt lat="45.4502" lon="-1.13724">
        <ele>71</ele>
        <time>2025-04-26T11:31:24Z</time>
      </trkpt>
      <trkpt lat="45.45024" lon="-1.13723">
        <ele>70</ele>
        <time>2025-04-26T11:31:25Z</time>
      </trkpt>
      <trkpt lat="45.45028" lon="-1.13723">
        <ele>69</ele>
        <time>2025-04-26T11:31:26Z</time>
      </trkpt>
      <trkpt lat="45.45033" lon="-1.13724">
        <ele>68</ele>
        <time>2025-04-26T11:31:27Z</time>
      </trkpt>
      <trkpt lat="45.45037" lon="-1.13724">
        <ele>68</ele>
        <time>2025-04-26T11:31:28Z</time>
      </trkpt>
      <trkpt lat="45.45041" lon="-1.13722">
        <ele>69</ele>
        <time>2025-04-26T11:31:29Z</time>
      </trkpt>
      <trkpt lat="45.45046" lon="-1.13721">
        <ele>69</ele>
        <time>2025-04-26T11:31:30Z</time>
      </trkpt>
      <trkpt lat="45.4505" lon="-1.1372">
        <ele>70</ele>
        <time>2025-04-26T11:31:31Z</time>
      </trkpt>
      <trkpt lat="45.45054" lon="-1.13721">
        <ele>69</ele>
        <time>2025-04-26T11:31:32Z</time>
      </trkpt>
      <trkpt lat="45.45059" lon="-1.1372">
        <ele>70</ele>
        <time>2025-04-26T11:31:33Z</time>
      </trkpt>
      <trkpt lat="45.45063" lon="-1.13719">
        <ele>71</ele>
        <time>2025-04-26T11:31:34Z</time>
      </trkpt>
      <trkpt lat="45.45068" lon="-1.13719">
        <ele>71</ele>
        <time>2025-04-26T11:31:35Z</time>
      </trkpt>
      <trkpt lat="45.45073" lon="-1.1372">
        <ele>72</ele>
        <time>2025-04-26T11:31:36Z</time>
      </trkpt>
      <trkpt lat="45.45077" lon="-1.13719">
        <ele>72</ele>
        <time>2025-04-26T11:31:37Z</time>
      </trkpt>
      <trkpt lat="45.45081" lon="-1.13719">
        <ele>73</ele>
        <time>2025-04-26T11:31:38Z</time>
      </trkpt>
      <trkpt lat="45.45085" lon="-1.13718">
        <ele>73</ele>
        <time>2025-04-26T11:31:39Z</time>
      </trkpt>
      <trkpt lat="45.45089" lon="-1.13718">
        <ele>72</ele>
        <time>2025-04-26T11:31:40Z</time>
      </trkpt>
      <trkpt lat="45.45093" lon="-1.13718">
        <ele>72</ele>
        <time>2025-04-26T11:31:41Z</time>
      </trkpt>
      <trkpt lat="45.45097" lon="-1.13718">
        <ele>71</ele>
        <time>2025-04-26T11:31:42Z</time>
      </trkpt>
      <trkpt lat="45.45101" lon="-1.13716">
        <ele>71</ele>
        <time>2025-04-26T11:31:43Z</time>
      </trkpt>
      <trkpt lat="45.45105" lon="-1.13715">
        <ele>72</ele>
        <time>2025-04-26T11:31:44Z</time>
      </trkpt>
      <trkpt lat="45.4511" lon="-1.13715">
        <ele>71</ele>
        <time>2025-04-26T11:31:45Z</time>
      </trkpt>
      <trkpt lat="45.45114" lon="-1.13714">
        <ele>71</ele>
        <time>2025-04-26T11:31:46Z</time>
      </trkpt>
      <trkpt lat="45.45118" lon="-1.13713">
        <ele>70</ele>
        <time>2025-04-26T11:31:47Z</time>
      </trkpt>
      <trkpt lat="45.45122" lon="-1.13713">
        <ele>70</ele>
        <time>2025-04-26T11:31:48Z</time>
      </trkpt>
      <trkpt lat="45.45126" lon="-1.13712">
        <ele>70</ele>
        <time>2025-04-26T11:31:49Z</time>
      </trkpt>
      <trkpt lat="45.45131" lon="-1.13711">
        <ele>70</ele>
        <time>2025-04-26T11:31:50Z</time>
      </trkpt>
      <trkpt lat="45.45135" lon="-1.13712">
        <ele>70</ele>
        <time>2025-04-26T11:31:51Z</time>
      </trkpt>
      <trkpt lat="45.45139" lon="-1.13711">
        <ele>69</ele>
        <time>2025-04-26T11:31:52Z</time>
      </trkpt>
      <trkpt lat="45.45144" lon="-1.1371">
        <ele>70</ele>
        <time>2025-04-26T11:31:53Z</time>
      </trkpt>
      <trkpt lat="45.45148" lon="-1.1371">
        <ele>69</ele>
        <time>2025-04-26T11:31:54Z</time>
      </trkpt>
      <trkpt lat="45.45152" lon="-1.13709">
        <ele>70</ele>
        <time>2025-04-26T11:31:55Z</time>
      </trkpt>
      <trkpt lat="45.45156" lon="-1.13709">
        <ele>69</ele>
        <time>2025-04-26T11:31:56Z</time>
      </trkpt>
      <trkpt lat="45.4516" lon="-1.13709">
        <ele>69</ele>
        <time>2025-04-26T11:31:57Z</time>
      </trkpt>
      <trkpt lat="45.45164" lon="-1.13708">
        <ele>70</ele>
        <time>2025-04-26T11:31:58Z</time>
      </trkpt>
      <trkpt lat="45.45168" lon="-1.13706">
        <ele>70</ele>
        <time>2025-04-26T11:31:59Z</time>
      </trkpt>
      <trkpt lat="45.45173" lon="-1.13706">
        <ele>70</ele>
        <time>2025-04-26T11:32:00Z</time>
      </trkpt>
      <trkpt lat="45.45177" lon="-1.13705">
        <ele>70</ele>
        <time>2025-04-26T11:32:01Z</time>
      </trkpt>
      <trkpt lat="45.45181" lon="-1.13704">
        <ele>70</ele>
        <time>2025-04-26T11:32:02Z</time>
      </trkpt>
      <trkpt lat="45.45185" lon="-1.13704">
        <ele>70</ele>
        <time>2025-04-26T11:32:03Z</time>
      </trkpt>
      <trkpt lat="45.45189" lon="-1.13703">
        <ele>71</ele>
        <time>2025-04-26T11:32:04Z</time>
      </trkpt>
      <trkpt lat="45.45192" lon="-1.13704">
        <ele>70</ele>
        <time>2025-04-26T11:32:05Z</time>
      </trkpt>
      <trkpt lat="45.45196" lon="-1.13703">
        <ele>70</ele>
        <time>2025-04-26T11:32:06Z</time>
      </trkpt>
      <trkpt lat="45.452" lon="-1.13702">
        <ele>70</ele>
        <time>2025-04-26T11:32:07Z</time>
      </trkpt>
      <trkpt lat="45.45204" lon="-1.13702">
        <ele>70</ele>
        <time>2025-04-26T11:32:08Z</time>
      </trkpt>
      <trkpt lat="45.45208" lon="-1.13702">
        <ele>70</ele>
        <time>2025-04-26T11:32:09Z</time>
      </trkpt>
      <trkpt lat="45.45212" lon="-1.13702">
        <ele>70</ele>
        <time>2025-04-26T11:32:10Z</time>
      </trkpt>
      <trkpt lat="45.45216" lon="-1.13701">
        <ele>70</ele>
        <time>2025-04-26T11:32:11Z</time>
      </trkpt>
      <trkpt lat="45.4522" lon="-1.13701">
        <ele>70</ele>
        <time>2025-04-26T11:32:12Z</time>
      </trkpt>
      <trkpt lat="45.45224" lon="-1.137">
        <ele>69</ele>
        <time>2025-04-26T11:32:13Z</time>
      </trkpt>
      <trkpt lat="45.45228" lon="-1.13699">
        <ele>69</ele>
        <time>2025-04-26T11:32:14Z</time>
      </trkpt>
      <trkpt lat="45.45233" lon="-1.13699">
        <ele>69</ele>
        <time>2025-04-26T11:32:15Z</time>
      </trkpt>
      <trkpt lat="45.45237" lon="-1.13698">
        <ele>68</ele>
        <time>2025-04-26T11:32:16Z</time>
      </trkpt>
      <trkpt lat="45.45242" lon="-1.13698">
        <ele>68</ele>
        <time>2025-04-26T11:32:17Z</time>
      </trkpt>
      <trkpt lat="45.45247" lon="-1.13698">
        <ele>67</ele>
        <time>2025-04-26T11:32:18Z</time>
      </trkpt>
      <trkpt lat="45.45252" lon="-1.13697">
        <ele>67</ele>
        <time>2025-04-26T11:32:19Z</time>
      </trkpt>
      <trkpt lat="45.45256" lon="-1.13696">
        <ele>67</ele>
        <time>2025-04-26T11:32:20Z</time>
      </trkpt>
      <trkpt lat="45.45261" lon="-1.13695">
        <ele>67</ele>
        <time>2025-04-26T11:32:21Z</time>
      </trkpt>
      <trkpt lat="45.45265" lon="-1.13694">
        <ele>68</ele>
        <time>2025-04-26T11:32:22Z</time>
      </trkpt>
      <trkpt lat="45.45269" lon="-1.13694">
        <ele>68</ele>
        <time>2025-04-26T11:32:23Z</time>
      </trkpt>
      <trkpt lat="45.45273" lon="-1.13694">
        <ele>68</ele>
        <time>2025-04-26T11:32:24Z</time>
      </trkpt>
      <trkpt lat="45.45278" lon="-1.13694">
        <ele>67</ele>
        <time>2025-04-26T11:32:25Z</time>
      </trkpt>
      <trkpt lat="45.45282" lon="-1.13693">
        <ele>67</ele>
        <time>2025-04-26T11:32:26Z</time>
      </trkpt>
      <trkpt lat="45.45288" lon="-1.13693">
        <ele>67</ele>
        <time>2025-04-26T11:32:27Z</time>
      </trkpt>
      <trkpt lat="45.45292" lon="-1.13692">
        <ele>67</ele>
        <time>2025-04-26T11:32:28Z</time>
      </trkpt>
      <trkpt lat="45.45296" lon="-1.13691">
        <ele>68</ele>
        <time>2025-04-26T11:32:29Z</time>
      </trkpt>
      <trkpt lat="45.453" lon="-1.13691">
        <ele>67</ele>
        <time>2025-04-26T11:32:30Z</time>
      </trkpt>
      <trkpt lat="45.45304" lon="-1.1369">
        <ele>67</ele>
        <time>2025-04-26T11:32:31Z</time>
      </trkpt>
      <trkpt lat="45.45309" lon="-1.13689">
        <ele>67</ele>
        <time>2025-04-26T11:32:32Z</time>
      </trkpt>
      <trkpt lat="45.45313" lon="-1.13689">
        <ele>66</ele>
        <time>2025-04-26T11:32:33Z</time>
      </trkpt>
      <trkpt lat="45.45317" lon="-1.13688">
        <ele>66</ele>
        <time>2025-04-26T11:32:34Z</time>
      </trkpt>
      <trkpt lat="45.45321" lon="-1.13688">
        <ele>66</ele>
        <time>2025-04-26T11:32:35Z</time>
      </trkpt>
      <trkpt lat="45.45326" lon="-1.13686">
        <ele>66</ele>
        <time>2025-04-26T11:32:36Z</time>
      </trkpt>
      <trkpt lat="45.4533" lon="-1.13686">
        <ele>66</ele>
        <time>2025-04-26T11:32:37Z</time>
      </trkpt>
      <trkpt lat="45.45334" lon="-1.13685">
        <ele>66</ele>
        <time>2025-04-26T11:32:38Z</time>
      </trkpt>
      <trkpt lat="45.45339" lon="-1.13685">
        <ele>65</ele>
        <time>2025-04-26T11:32:39Z</time>
      </trkpt>
      <trkpt lat="45.45343" lon="-1.13684">
        <ele>65</ele>
        <time>2025-04-26T11:32:40Z</time>
      </trkpt>
      <trkpt lat="45.45347" lon="-1.13684">
        <ele>65</ele>
        <time>2025-04-26T11:32:41Z</time>
      </trkpt>
      <trkpt lat="45.45352" lon="-1.13683">
        <ele>66</ele>
        <time>2025-04-26T11:32:42Z</time>
      </trkpt>
      <trkpt lat="45.45356" lon="-1.13682">
        <ele>66</ele>
        <time>2025-04-26T11:32:43Z</time>
      </trkpt>
      <trkpt lat="45.4536" lon="-1.13682">
        <ele>66</ele>
        <time>2025-04-26T11:32:44Z</time>
      </trkpt>
      <trkpt lat="45.45364" lon="-1.13682">
        <ele>65</ele>
        <time>2025-04-26T11:32:45Z</time>
      </trkpt>
      <trkpt lat="45.45369" lon="-1.13681">
        <ele>65</ele>
        <time>2025-04-26T11:32:46Z</time>
      </trkpt>
      <trkpt lat="45.45373" lon="-1.1368">
        <ele>65</ele>
        <time>2025-04-26T11:32:47Z</time>
      </trkpt>
      <trkpt lat="45.45377" lon="-1.13679">
        <ele>65</ele>
        <time>2025-04-26T11:32:48Z</time>
      </trkpt>
      <trkpt lat="45.45381" lon="-1.13679">
        <ele>65</ele>
        <time>2025-04-26T11:32:49Z</time>
      </trkpt>
      <trkpt lat="45.45385" lon="-1.13679">
        <ele>64</ele>
        <time>2025-04-26T11:32:50Z</time>
      </trkpt>
      <trkpt lat="45.45388" lon="-1.13678">
        <ele>64</ele>
        <time>2025-04-26T11:32:51Z</time>
      </trkpt>
      <trkpt lat="45.45392" lon="-1.13677">
        <ele>65</ele>
        <time>2025-04-26T11:32:52Z</time>
      </trkpt>
      <trkpt lat="45.45396" lon="-1.13677">
        <ele>64</ele>
        <time>2025-04-26T11:32:53Z</time>
      </trkpt>
      <trkpt lat="45.45399" lon="-1.13676">
        <ele>64</ele>
        <time>2025-04-26T11:32:54Z</time>
      </trkpt>
      <trkpt lat="45.45404" lon="-1.13676">
        <ele>64</ele>
        <time>2025-04-26T11:32:55Z</time>
      </trkpt>
      <trkpt lat="45.45408" lon="-1.13675">
        <ele>65</ele>
        <time>2025-04-26T11:32:56Z</time>
      </trkpt>
      <trkpt lat="45.45412" lon="-1.13675">
        <ele>65</ele>
        <time>2025-04-26T11:32:57Z</time>
      </trkpt>
      <trkpt lat="45.45416" lon="-1.13675">
        <ele>65</ele>
        <time>2025-04-26T11:32:58Z</time>
      </trkpt>
      <trkpt lat="45.4542" lon="-1.13674">
        <ele>65</ele>
        <time>2025-04-26T11:32:59Z</time>
      </trkpt>
      <trkpt lat="45.45424" lon="-1.13675">
        <ele>64</ele>
        <time>2025-04-26T11:33:00Z</time>
      </trkpt>
      <trkpt lat="45.45428" lon="-1.13674">
        <ele>64</ele>
        <time>2025-04-26T11:33:01Z</time>
      </trkpt>
      <trkpt lat="45.45432" lon="-1.13672">
        <ele>64</ele>
        <time>2025-04-26T11:33:02Z</time>
      </trkpt>
      <trkpt lat="45.45437" lon="-1.13672">
        <ele>64</ele>
        <time>2025-04-26T11:33:03Z</time>
      </trkpt>
      <trkpt lat="45.45441" lon="-1.13672">
        <ele>64</ele>
        <time>2025-04-26T11:33:04Z</time>
      </trkpt>
      <trkpt lat="45.45445" lon="-1.13671">
        <ele>64</ele>
        <time>2025-04-26T11:33:05Z</time>
      </trkpt>
      <trkpt lat="45.45449" lon="-1.13672">
        <ele>63</ele>
        <time>2025-04-26T11:33:06Z</time>
      </trkpt>
      <trkpt lat="45.45454" lon="-1.13671">
        <ele>63</ele>
        <time>2025-04-26T11:33:07Z</time>
      </trkpt>
      <trkpt lat="45.45458" lon="-1.13671">
        <ele>63</ele>
        <time>2025-04-26T11:33:08Z</time>
      </trkpt>
      <trkpt lat="45.45462" lon="-1.13671">
        <ele>62</ele>
        <time>2025-04-26T11:33:09Z</time>
      </trkpt>
      <trkpt lat="45.45466" lon="-1.1367">
        <ele>63</ele>
        <time>2025-04-26T11:33:10Z</time>
      </trkpt>
      <trkpt lat="45.45469" lon="-1.13669">
        <ele>63</ele>
        <time>2025-04-26T11:33:11Z</time>
      </trkpt>
      <trkpt lat="45.45474" lon="-1.13669">
        <ele>63</ele>
        <time>2025-04-26T11:33:12Z</time>
      </trkpt>
      <trkpt lat="45.45478" lon="-1.13668">
        <ele>63</ele>
        <time>2025-04-26T11:33:13Z</time>
      </trkpt>
      <trkpt lat="45.45482" lon="-1.13668">
        <ele>64</ele>
        <time>2025-04-26T11:33:14Z</time>
      </trkpt>
      <trkpt lat="45.45486" lon="-1.13666">
        <ele>64</ele>
        <time>2025-04-26T11:33:15Z</time>
      </trkpt>
      <trkpt lat="45.4549" lon="-1.13666">
        <ele>64</ele>
        <time>2025-04-26T11:33:16Z</time>
      </trkpt>
      <trkpt lat="45.45495" lon="-1.13666">
        <ele>64</ele>
        <time>2025-04-26T11:33:17Z</time>
      </trkpt>
      <trkpt lat="45.45499" lon="-1.13665">
        <ele>64</ele>
        <time>2025-04-26T11:33:18Z</time>
      </trkpt>
      <trkpt lat="45.45503" lon="-1.13666">
        <ele>63</ele>
        <time>2025-04-26T11:33:19Z</time>
      </trkpt>
      <trkpt lat="45.45508" lon="-1.13664">
        <ele>63</ele>
        <time>2025-04-26T11:33:20Z</time>
      </trkpt>
      <trkpt lat="45.45512" lon="-1.13663">
        <ele>64</ele>
        <time>2025-04-26T11:33:21Z</time>
      </trkpt>
      <trkpt lat="45.45516" lon="-1.13663">
        <ele>64</ele>
        <time>2025-04-26T11:33:22Z</time>
      </trkpt>
      <trkpt lat="45.45521" lon="-1.13664">
        <ele>63</ele>
        <time>2025-04-26T11:33:23Z</time>
      </trkpt>
      <trkpt lat="45.45524" lon="-1.13662">
        <ele>64</ele>
        <time>2025-04-26T11:33:24Z</time>
      </trkpt>
      <trkpt lat="45.45528" lon="-1.13662">
        <ele>65</ele>
        <time>2025-04-26T11:33:25Z</time>
      </trkpt>
      <trkpt lat="45.45532" lon="-1.13661">
        <ele>65</ele>
        <time>2025-04-26T11:33:26Z</time>
      </trkpt>
      <trkpt lat="45.45536" lon="-1.1366">
        <ele>66</ele>
        <time>2025-04-26T11:33:27Z</time>
      </trkpt>
      <trkpt lat="45.4554" lon="-1.1366">
        <ele>67</ele>
        <time>2025-04-26T11:33:28Z</time>
      </trkpt>
      <trkpt lat="45.45544" lon="-1.1366">
        <ele>66</ele>
        <time>2025-04-26T11:33:29Z</time>
      </trkpt>
      <trkpt lat="45.45548" lon="-1.13658">
        <ele>67</ele>
        <time>2025-04-26T11:33:30Z</time>
      </trkpt>
      <trkpt lat="45.45552" lon="-1.13657">
        <ele>67</ele>
        <time>2025-04-26T11:33:31Z</time>
      </trkpt>
      <trkpt lat="45.45556" lon="-1.13657">
        <ele>69</ele>
        <time>2025-04-26T11:33:32Z</time>
      </trkpt>
      <trkpt lat="45.45559" lon="-1.13657">
        <ele>69</ele>
        <time>2025-04-26T11:33:33Z</time>
      </trkpt>
      <trkpt lat="45.45564" lon="-1.13656">
        <ele>70</ele>
        <time>2025-04-26T11:33:34Z</time>
      </trkpt>
      <trkpt lat="45.45567" lon="-1.13656">
        <ele>71</ele>
        <time>2025-04-26T11:33:35Z</time>
      </trkpt>
      <trkpt lat="45.45571" lon="-1.13657">
        <ele>72</ele>
        <time>2025-04-26T11:33:36Z</time>
      </trkpt>
      <trkpt lat="45.45575" lon="-1.13656">
        <ele>73</ele>
        <time>2025-04-26T11:33:37Z</time>
      </trkpt>
      <trkpt lat="45.45579" lon="-1.13655">
        <ele>73</ele>
        <time>2025-04-26T11:33:38Z</time>
      </trkpt>
      <trkpt lat="45.45583" lon="-1.13654">
        <ele>73</ele>
        <time>2025-04-26T11:33:39Z</time>
      </trkpt>
      <trkpt lat="45.45586" lon="-1.13654">
        <ele>72</ele>
        <time>2025-04-26T11:33:40Z</time>
      </trkpt>
      <trkpt lat="45.4559" lon="-1.13654">
        <ele>72</ele>
        <time>2025-04-26T11:33:41Z</time>
      </trkpt>
      <trkpt lat="45.45595" lon="-1.13653">
        <ele>72</ele>
        <time>2025-04-26T11:33:42Z</time>
      </trkpt>
      <trkpt lat="45.45599" lon="-1.13653">
        <ele>72</ele>
        <time>2025-04-26T11:33:43Z</time>
      </trkpt>
      <trkpt lat="45.45604" lon="-1.13652">
        <ele>72</ele>
        <time>2025-04-26T11:33:44Z</time>
      </trkpt>
      <trkpt lat="45.45607" lon="-1.13651">
        <ele>72</ele>
        <time>2025-04-26T11:33:45Z</time>
      </trkpt>
      <trkpt lat="45.4561" lon="-1.13651">
        <ele>71</ele>
        <time>2025-04-26T11:33:46Z</time>
      </trkpt>
      <trkpt lat="45.45614" lon="-1.13649">
        <ele>71</ele>
        <time>2025-04-26T11:33:47Z</time>
      </trkpt>
      <trkpt lat="45.45618" lon="-1.13648">
        <ele>71</ele>
        <time>2025-04-26T11:33:48Z</time>
      </trkpt>
      <trkpt lat="45.45622" lon="-1.13649">
        <ele>70</ele>
        <time>2025-04-26T11:33:49Z</time>
      </trkpt>
      <trkpt lat="45.45626" lon="-1.13649">
        <ele>70</ele>
        <time>2025-04-26T11:33:50Z</time>
      </trkpt>
      <trkpt lat="45.45631" lon="-1.13649">
        <ele>70</ele>
        <time>2025-04-26T11:33:51Z</time>
      </trkpt>
      <trkpt lat="45.45635" lon="-1.13651">
        <ele>69</ele>
        <time>2025-04-26T11:33:52Z</time>
      </trkpt>
      <trkpt lat="45.45639" lon="-1.1365">
        <ele>69</ele>
        <time>2025-04-26T11:33:53Z</time>
      </trkpt>
      <trkpt lat="45.45643" lon="-1.13648">
        <ele>69</ele>
        <time>2025-04-26T11:33:54Z</time>
      </trkpt>
      <trkpt lat="45.45647" lon="-1.13647">
        <ele>69</ele>
        <time>2025-04-26T11:33:55Z</time>
      </trkpt>
      <trkpt lat="45.45651" lon="-1.13646">
        <ele>70</ele>
        <time>2025-04-26T11:33:56Z</time>
      </trkpt>
      <trkpt lat="45.45655" lon="-1.13647">
        <ele>69</ele>
        <time>2025-04-26T11:33:57Z</time>
      </trkpt>
      <trkpt lat="45.45659" lon="-1.13647">
        <ele>68</ele>
        <time>2025-04-26T11:33:58Z</time>
      </trkpt>
      <trkpt lat="45.45664" lon="-1.13646">
        <ele>69</ele>
        <time>2025-04-26T11:33:59Z</time>
      </trkpt>
      <trkpt lat="45.45668" lon="-1.13645">
        <ele>69</ele>
        <time>2025-04-26T11:34:00Z</time>
      </trkpt>
      <trkpt lat="45.45673" lon="-1.13646">
        <ele>69</ele>
        <time>2025-04-26T11:34:01Z</time>
      </trkpt>
      <trkpt lat="45.45678" lon="-1.13646">
        <ele>69</ele>
        <time>2025-04-26T11:34:02Z</time>
      </trkpt>
      <trkpt lat="45.45682" lon="-1.13645">
        <ele>68</ele>
        <time>2025-04-26T11:34:03Z</time>
      </trkpt>
      <trkpt lat="45.45687" lon="-1.13644">
        <ele>68</ele>
        <time>2025-04-26T11:34:04Z</time>
      </trkpt>
      <trkpt lat="45.45691" lon="-1.13643">
        <ele>68</ele>
        <time>2025-04-26T11:34:05Z</time>
      </trkpt>
      <trkpt lat="45.45695" lon="-1.13641">
        <ele>68</ele>
        <time>2025-04-26T11:34:06Z</time>
      </trkpt>
      <trkpt lat="45.457" lon="-1.13641">
        <ele>68</ele>
        <time>2025-04-26T11:34:07Z</time>
      </trkpt>
      <trkpt lat="45.45704" lon="-1.1364">
        <ele>68</ele>
        <time>2025-04-26T11:34:08Z</time>
      </trkpt>
      <trkpt lat="45.45709" lon="-1.13639">
        <ele>69</ele>
        <time>2025-04-26T11:34:09Z</time>
      </trkpt>
      <trkpt lat="45.45714" lon="-1.13638">
        <ele>69</ele>
        <time>2025-04-26T11:34:10Z</time>
      </trkpt>
      <trkpt lat="45.45719" lon="-1.13638">
        <ele>68</ele>
        <time>2025-04-26T11:34:11Z</time>
      </trkpt>
      <trkpt lat="45.45725" lon="-1.13639">
        <ele>67</ele>
        <time>2025-04-26T11:34:12Z</time>
      </trkpt>
      <trkpt lat="45.4573" lon="-1.13638">
        <ele>66</ele>
        <time>2025-04-26T11:34:13Z</time>
      </trkpt>
      <trkpt lat="45.45736" lon="-1.13638">
        <ele>66</ele>
        <time>2025-04-26T11:34:14Z</time>
      </trkpt>
      <trkpt lat="45.45741" lon="-1.13637">
        <ele>66</ele>
        <time>2025-04-26T11:34:15Z</time>
      </trkpt>
      <trkpt lat="45.45746" lon="-1.13637">
        <ele>66</ele>
        <time>2025-04-26T11:34:16Z</time>
      </trkpt>
      <trkpt lat="45.45752" lon="-1.13635">
        <ele>66</ele>
        <time>2025-04-26T11:34:17Z</time>
      </trkpt>
      <trkpt lat="45.45757" lon="-1.13635">
        <ele>66</ele>
        <time>2025-04-26T11:34:18Z</time>
      </trkpt>
      <trkpt lat="45.45763" lon="-1.13634">
        <ele>67</ele>
        <time>2025-04-26T11:34:19Z</time>
      </trkpt>
      <trkpt lat="45.45768" lon="-1.13633">
        <ele>67</ele>
        <time>2025-04-26T11:34:20Z</time>
      </trkpt>
      <trkpt lat="45.45773" lon="-1.13633">
        <ele>66</ele>
        <time>2025-04-26T11:34:21Z</time>
      </trkpt>
      <trkpt lat="45.45779" lon="-1.13632">
        <ele>66</ele>
        <time>2025-04-26T11:34:22Z</time>
      </trkpt>
      <trkpt lat="45.45783" lon="-1.13632">
        <ele>66</ele>
        <time>2025-04-26T11:34:23Z</time>
      </trkpt>
      <trkpt lat="45.45788" lon="-1.13631">
        <ele>66</ele>
        <time>2025-04-26T11:34:24Z</time>
      </trkpt>
      <trkpt lat="45.45793" lon="-1.1363">
        <ele>66</ele>
        <time>2025-04-26T11:34:25Z</time>
      </trkpt>
      <trkpt lat="45.45798" lon="-1.13629">
        <ele>66</ele>
        <time>2025-04-26T11:34:26Z</time>
      </trkpt>
      <trkpt lat="45.45804" lon="-1.13628">
        <ele>66</ele>
        <time>2025-04-26T11:34:27Z</time>
      </trkpt>
      <trkpt lat="45.45808" lon="-1.13627">
        <ele>66</ele>
        <time>2025-04-26T11:34:28Z</time>
      </trkpt>
      <trkpt lat="45.45813" lon="-1.13626">
        <ele>66</ele>
        <time>2025-04-26T11:34:29Z</time>
      </trkpt>
      <trkpt lat="45.45819" lon="-1.13626">
        <ele>66</ele>
        <time>2025-04-26T11:34:30Z</time>
      </trkpt>
      <trkpt lat="45.45823" lon="-1.13626">
        <ele>66</ele>
        <time>2025-04-26T11:34:31Z</time>
      </trkpt>
      <trkpt lat="45.45828" lon="-1.13626">
        <ele>66</ele>
        <time>2025-04-26T11:34:32Z</time>
      </trkpt>
      <trkpt lat="45.45832" lon="-1.13626">
        <ele>66</ele>
        <time>2025-04-26T11:34:33Z</time>
      </trkpt>
      <trkpt lat="45.45837" lon="-1.13625">
        <ele>67</ele>
        <time>2025-04-26T11:34:34Z</time>
      </trkpt>
      <trkpt lat="45.45841" lon="-1.13625">
        <ele>67</ele>
        <time>2025-04-26T11:34:35Z</time>
      </trkpt>
      <trkpt lat="45.45846" lon="-1.13624">
        <ele>68</ele>
        <time>2025-04-26T11:34:36Z</time>
      </trkpt>
      <trkpt lat="45.45851" lon="-1.13624">
        <ele>68</ele>
        <time>2025-04-26T11:34:37Z</time>
      </trkpt>
      <trkpt lat="45.45855" lon="-1.13623">
        <ele>68</ele>
        <time>2025-04-26T11:34:38Z</time>
      </trkpt>
      <trkpt lat="45.4586" lon="-1.13623">
        <ele>69</ele>
        <time>2025-04-26T11:34:39Z</time>
      </trkpt>
      <trkpt lat="45.45864" lon="-1.13623">
        <ele>69</ele>
        <time>2025-04-26T11:34:40Z</time>
      </trkpt>
      <trkpt lat="45.45868" lon="-1.13622">
        <ele>70</ele>
        <time>2025-04-26T11:34:41Z</time>
      </trkpt>
      <trkpt lat="45.45872" lon="-1.1362">
        <ele>70</ele>
        <time>2025-04-26T11:34:42Z</time>
      </trkpt>
      <trkpt lat="45.45876" lon="-1.13619">
        <ele>71</ele>
        <time>2025-04-26T11:34:43Z</time>
      </trkpt>
      <trkpt lat="45.4588" lon="-1.13618">
        <ele>71</ele>
        <time>2025-04-26T11:34:44Z</time>
      </trkpt>
      <trkpt lat="45.45884" lon="-1.1362">
        <ele>70</ele>
        <time>2025-04-26T11:34:45Z</time>
      </trkpt>
      <trkpt lat="45.45889" lon="-1.1362">
        <ele>70</ele>
        <time>2025-04-26T11:34:46Z</time>
      </trkpt>
      <trkpt lat="45.45893" lon="-1.13619">
        <ele>71</ele>
        <time>2025-04-26T11:34:47Z</time>
      </trkpt>
      <trkpt lat="45.45898" lon="-1.13619">
        <ele>70</ele>
        <time>2025-04-26T11:34:48Z</time>
      </trkpt>
      <trkpt lat="45.45902" lon="-1.13618">
        <ele>71</ele>
        <time>2025-04-26T11:34:49Z</time>
      </trkpt>
      <trkpt lat="45.45907" lon="-1.13617">
        <ele>71</ele>
        <time>2025-04-26T11:34:50Z</time>
      </trkpt>
      <trkpt lat="45.45912" lon="-1.13616">
        <ele>71</ele>
        <time>2025-04-26T11:34:51Z</time>
      </trkpt>
      <trkpt lat="45.45916" lon="-1.13617">
        <ele>71</ele>
        <time>2025-04-26T11:34:52Z</time>
      </trkpt>
      <trkpt lat="45.45921" lon="-1.13617">
        <ele>71</ele>
        <time>2025-04-26T11:34:53Z</time>
      </trkpt>
      <trkpt lat="45.45925" lon="-1.13616">
        <ele>73</ele>
        <time>2025-04-26T11:34:54Z</time>
      </trkpt>
      <trkpt lat="45.45929" lon="-1.13616">
        <ele>72</ele>
        <time>2025-04-26T11:34:55Z</time>
      </trkpt>
      <trkpt lat="45.45933" lon="-1.13615">
        <ele>72</ele>
        <time>2025-04-26T11:34:56Z</time>
      </trkpt>
      <trkpt lat="45.45937" lon="-1.13615">
        <ele>71</ele>
        <time>2025-04-26T11:34:57Z</time>
      </trkpt>
      <trkpt lat="45.45941" lon="-1.13613">
        <ele>72</ele>
        <time>2025-04-26T11:34:58Z</time>
      </trkpt>
      <trkpt lat="45.45946" lon="-1.13611">
        <ele>72</ele>
        <time>2025-04-26T11:34:59Z</time>
      </trkpt>
      <trkpt lat="45.45949" lon="-1.1361">
        <ele>71</ele>
        <time>2025-04-26T11:35:00Z</time>
      </trkpt>
      <trkpt lat="45.45953" lon="-1.1361">
        <ele>71</ele>
        <time>2025-04-26T11:35:01Z</time>
      </trkpt>
      <trkpt lat="45.45957" lon="-1.13609">
        <ele>70</ele>
        <time>2025-04-26T11:35:02Z</time>
      </trkpt>
      <trkpt lat="45.45961" lon="-1.13611">
        <ele>69</ele>
        <time>2025-04-26T11:35:03Z</time>
      </trkpt>
      <trkpt lat="45.45966" lon="-1.1361">
        <ele>70</ele>
        <time>2025-04-26T11:35:04Z</time>
      </trkpt>
      <trkpt lat="45.45971" lon="-1.13609">
        <ele>70</ele>
        <time>2025-04-26T11:35:05Z</time>
      </trkpt>
      <trkpt lat="45.45976" lon="-1.13608">
        <ele>70</ele>
        <time>2025-04-26T11:35:06Z</time>
      </trkpt>
      <trkpt lat="45.4598" lon="-1.13608">
        <ele>70</ele>
        <time>2025-04-26T11:35:07Z</time>
      </trkpt>
      <trkpt lat="45.45983" lon="-1.13607">
        <ele>70</ele>
        <time>2025-04-26T11:35:08Z</time>
      </trkpt>
      <trkpt lat="45.45987" lon="-1.13606">
        <ele>69</ele>
        <time>2025-04-26T11:35:09Z</time>
      </trkpt>
      <trkpt lat="45.45992" lon="-1.13605">
        <ele>69</ele>
        <time>2025-04-26T11:35:10Z</time>
      </trkpt>
      <trkpt lat="45.45996" lon="-1.13605">
        <ele>68</ele>
        <time>2025-04-26T11:35:11Z</time>
      </trkpt>
      <trkpt lat="45.46001" lon="-1.13604">
        <ele>68</ele>
        <time>2025-04-26T11:35:12Z</time>
      </trkpt>
      <trkpt lat="45.46006" lon="-1.13603">
        <ele>68</ele>
        <time>2025-04-26T11:35:13Z</time>
      </trkpt>
      <trkpt lat="45.4601" lon="-1.13603">
        <ele>67</ele>
        <time>2025-04-26T11:35:14Z</time>
      </trkpt>
      <trkpt lat="45.46015" lon="-1.13604">
        <ele>66</ele>
        <time>2025-04-26T11:35:15Z</time>
      </trkpt>
      <trkpt lat="45.46019" lon="-1.13604">
        <ele>67</ele>
        <time>2025-04-26T11:35:16Z</time>
      </trkpt>
      <trkpt lat="45.46023" lon="-1.13602">
        <ele>67</ele>
        <time>2025-04-26T11:35:17Z</time>
      </trkpt>
      <trkpt lat="45.46026" lon="-1.13602">
        <ele>66</ele>
        <time>2025-04-26T11:35:18Z</time>
      </trkpt>
      <trkpt lat="45.4603" lon="-1.13602">
        <ele>66</ele>
        <time>2025-04-26T11:35:19Z</time>
      </trkpt>
      <trkpt lat="45.46034" lon="-1.13601">
        <ele>66</ele>
        <time>2025-04-26T11:35:20Z</time>
      </trkpt>
      <trkpt lat="45.46037" lon="-1.13601">
        <ele>66</ele>
        <time>2025-04-26T11:35:21Z</time>
      </trkpt>
      <trkpt lat="45.46041" lon="-1.136">
        <ele>66</ele>
        <time>2025-04-26T11:35:22Z</time>
      </trkpt>
      <trkpt lat="45.46045" lon="-1.136">
        <ele>66</ele>
        <time>2025-04-26T11:35:23Z</time>
      </trkpt>
      <trkpt lat="45.46049" lon="-1.13599">
        <ele>66</ele>
        <time>2025-04-26T11:35:24Z</time>
      </trkpt>
      <trkpt lat="45.46053" lon="-1.13598">
        <ele>66</ele>
        <time>2025-04-26T11:35:25Z</time>
      </trkpt>
      <trkpt lat="45.46057" lon="-1.13599">
        <ele>65</ele>
        <time>2025-04-26T11:35:26Z</time>
      </trkpt>
      <trkpt lat="45.46061" lon="-1.13598">
        <ele>66</ele>
        <time>2025-04-26T11:35:27Z</time>
      </trkpt>
      <trkpt lat="45.46064" lon="-1.13597">
        <ele>66</ele>
        <time>2025-04-26T11:35:28Z</time>
      </trkpt>
      <trkpt lat="45.46068" lon="-1.13597">
        <ele>66</ele>
        <time>2025-04-26T11:35:29Z</time>
      </trkpt>
      <trkpt lat="45.46072" lon="-1.13597">
        <ele>66</ele>
        <time>2025-04-26T11:35:30Z</time>
      </trkpt>
      <trkpt lat="45.46077" lon="-1.13596">
        <ele>66</ele>
        <time>2025-04-26T11:35:31Z</time>
      </trkpt>
      <trkpt lat="45.46081" lon="-1.13596">
        <ele>66</ele>
        <time>2025-04-26T11:35:32Z</time>
      </trkpt>
      <trkpt lat="45.46086" lon="-1.13595">
        <ele>66</ele>
        <time>2025-04-26T11:35:33Z</time>
      </trkpt>
      <trkpt lat="45.4609" lon="-1.13595">
        <ele>65</ele>
        <time>2025-04-26T11:35:34Z</time>
      </trkpt>
      <trkpt lat="45.46094" lon="-1.13594">
        <ele>66</ele>
        <time>2025-04-26T11:35:35Z</time>
      </trkpt>
      <trkpt lat="45.46098" lon="-1.13593">
        <ele>66</ele>
        <time>2025-04-26T11:35:36Z</time>
      </trkpt>
      <trkpt lat="45.46102" lon="-1.13591">
        <ele>66</ele>
        <time>2025-04-26T11:35:37Z</time>
      </trkpt>
      <trkpt lat="45.46106" lon="-1.13591">
        <ele>65</ele>
        <time>2025-04-26T11:35:38Z</time>
      </trkpt>
      <trkpt lat="45.46111" lon="-1.1359">
        <ele>65</ele>
        <time>2025-04-26T11:35:39Z</time>
      </trkpt>
      <trkpt lat="45.46115" lon="-1.1359">
        <ele>66</ele>
        <time>2025-04-26T11:35:40Z</time>
      </trkpt>
      <trkpt lat="45.4612" lon="-1.1359">
        <ele>66</ele>
        <time>2025-04-26T11:35:41Z</time>
      </trkpt>
      <trkpt lat="45.46125" lon="-1.13589">
        <ele>66</ele>
        <time>2025-04-26T11:35:42Z</time>
      </trkpt>
      <trkpt lat="45.46129" lon="-1.13589">
        <ele>66</ele>
        <time>2025-04-26T11:35:43Z</time>
      </trkpt>
      <trkpt lat="45.46133" lon="-1.13589">
        <ele>66</ele>
        <time>2025-04-26T11:35:44Z</time>
      </trkpt>
      <trkpt lat="45.46138" lon="-1.13589">
        <ele>66</ele>
        <time>2025-04-26T11:35:45Z</time>
      </trkpt>
      <trkpt lat="45.46143" lon="-1.13588">
        <ele>67</ele>
        <time>2025-04-26T11:35:46Z</time>
      </trkpt>
      <trkpt lat="45.46148" lon="-1.13588">
        <ele>67</ele>
        <time>2025-04-26T11:35:47Z</time>
      </trkpt>
      <trkpt lat="45.46152" lon="-1.13587">
        <ele>67</ele>
        <time>2025-04-26T11:35:48Z</time>
      </trkpt>
      <trkpt lat="45.46156" lon="-1.13586">
        <ele>66</ele>
        <time>2025-04-26T11:35:49Z</time>
      </trkpt>
      <trkpt lat="45.4616" lon="-1.13585">
        <ele>66</ele>
        <time>2025-04-26T11:35:50Z</time>
      </trkpt>
      <trkpt lat="45.46164" lon="-1.13585">
        <ele>66</ele>
        <time>2025-04-26T11:35:51Z</time>
      </trkpt>
      <trkpt lat="45.46168" lon="-1.13585">
        <ele>66</ele>
        <time>2025-04-26T11:35:52Z</time>
      </trkpt>
      <trkpt lat="45.46173" lon="-1.13584">
        <ele>66</ele>
        <time>2025-04-26T11:35:53Z</time>
      </trkpt>
      <trkpt lat="45.46176" lon="-1.13583">
        <ele>66</ele>
        <time>2025-04-26T11:35:54Z</time>
      </trkpt>
      <trkpt lat="45.46181" lon="-1.13583">
        <ele>66</ele>
        <time>2025-04-26T11:35:55Z</time>
      </trkpt>
      <trkpt lat="45.46185" lon="-1.13583">
        <ele>66</ele>
        <time>2025-04-26T11:35:56Z</time>
      </trkpt>
      <trkpt lat="45.46189" lon="-1.13582">
        <ele>66</ele>
        <time>2025-04-26T11:35:57Z</time>
      </trkpt>
      <trkpt lat="45.46193" lon="-1.13581">
        <ele>66</ele>
        <time>2025-04-26T11:35:58Z</time>
      </trkpt>
      <trkpt lat="45.46198" lon="-1.13581">
        <ele>66</ele>
        <time>2025-04-26T11:35:59Z</time>
      </trkpt>
      <trkpt lat="45.46201" lon="-1.1358">
        <ele>67</ele>
        <time>2025-04-26T11:36:00Z</time>
      </trkpt>
      <trkpt lat="45.46205" lon="-1.1358">
        <ele>67</ele>
        <time>2025-04-26T11:36:01Z</time>
      </trkpt>
      <trkpt lat="45.46209" lon="-1.13579">
        <ele>68</ele>
        <time>2025-04-26T11:36:02Z</time>
      </trkpt>
      <trkpt lat="45.46213" lon="-1.13578">
        <ele>68</ele>
        <time>2025-04-26T11:36:03Z</time>
      </trkpt>
      <trkpt lat="45.46218" lon="-1.13577">
        <ele>68</ele>
        <time>2025-04-26T11:36:04Z</time>
      </trkpt>
      <trkpt lat="45.46222" lon="-1.13577">
        <ele>68</ele>
        <time>2025-04-26T11:36:05Z</time>
      </trkpt>
      <trkpt lat="45.46226" lon="-1.13577">
        <ele>68</ele>
        <time>2025-04-26T11:36:06Z</time>
      </trkpt>
      <trkpt lat="45.4623" lon="-1.13577">
        <ele>68</ele>
        <time>2025-04-26T11:36:07Z</time>
      </trkpt>
      <trkpt lat="45.46234" lon="-1.13576">
        <ele>69</ele>
        <time>2025-04-26T11:36:08Z</time>
      </trkpt>
      <trkpt lat="45.46238" lon="-1.13575">
        <ele>69</ele>
        <time>2025-04-26T11:36:09Z</time>
      </trkpt>
      <trkpt lat="45.46243" lon="-1.13575">
        <ele>68</ele>
        <time>2025-04-26T11:36:10Z</time>
      </trkpt>
      <trkpt lat="45.46247" lon="-1.13574">
        <ele>68</ele>
        <time>2025-04-26T11:36:11Z</time>
      </trkpt>
      <trkpt lat="45.46252" lon="-1.13573">
        <ele>68</ele>
        <time>2025-04-26T11:36:12Z</time>
      </trkpt>
      <trkpt lat="45.46256" lon="-1.13572">
        <ele>67</ele>
        <time>2025-04-26T11:36:13Z</time>
      </trkpt>
      <trkpt lat="45.4626" lon="-1.13572">
        <ele>67</ele>
        <time>2025-04-26T11:36:14Z</time>
      </trkpt>
      <trkpt lat="45.46264" lon="-1.13571">
        <ele>67</ele>
        <time>2025-04-26T11:36:15Z</time>
      </trkpt>
      <trkpt lat="45.46268" lon="-1.1357">
        <ele>67</ele>
        <time>2025-04-26T11:36:16Z</time>
      </trkpt>
      <trkpt lat="45.46273" lon="-1.1357">
        <ele>68</ele>
        <time>2025-04-26T11:36:17Z</time>
      </trkpt>
      <trkpt lat="45.46277" lon="-1.1357">
        <ele>68</ele>
        <time>2025-04-26T11:36:18Z</time>
      </trkpt>
      <trkpt lat="45.46281" lon="-1.1357">
        <ele>68</ele>
        <time>2025-04-26T11:36:19Z</time>
      </trkpt>
      <trkpt lat="45.46286" lon="-1.13569">
        <ele>68</ele>
        <time>2025-04-26T11:36:20Z</time>
      </trkpt>
      <trkpt lat="45.4629" lon="-1.13569">
        <ele>68</ele>
        <time>2025-04-26T11:36:21Z</time>
      </trkpt>
      <trkpt lat="45.46295" lon="-1.13568">
        <ele>68</ele>
        <time>2025-04-26T11:36:22Z</time>
      </trkpt>
      <trkpt lat="45.46299" lon="-1.13567">
        <ele>68</ele>
        <time>2025-04-26T11:36:23Z</time>
      </trkpt>
      <trkpt lat="45.46303" lon="-1.13567">
        <ele>68</ele>
        <time>2025-04-26T11:36:24Z</time>
      </trkpt>
      <trkpt lat="45.46308" lon="-1.13567">
        <ele>68</ele>
        <time>2025-04-26T11:36:25Z</time>
      </trkpt>
      <trkpt lat="45.46312" lon="-1.13567">
        <ele>68</ele>
        <time>2025-04-26T11:36:26Z</time>
      </trkpt>
      <trkpt lat="45.46316" lon="-1.13566">
        <ele>68</ele>
        <time>2025-04-26T11:36:27Z</time>
      </trkpt>
      <trkpt lat="45.4632" lon="-1.13566">
        <ele>68</ele>
        <time>2025-04-26T11:36:28Z</time>
      </trkpt>
      <trkpt lat="45.46324" lon="-1.13566">
        <ele>68</ele>
        <time>2025-04-26T11:36:29Z</time>
      </trkpt>
      <trkpt lat="45.46328" lon="-1.13565">
        <ele>68</ele>
        <time>2025-04-26T11:36:30Z</time>
      </trkpt>
      <trkpt lat="45.46331" lon="-1.13564">
        <ele>68</ele>
        <time>2025-04-26T11:36:31Z</time>
      </trkpt>
      <trkpt lat="45.46336" lon="-1.13564">
        <ele>68</ele>
        <time>2025-04-26T11:36:32Z</time>
      </trkpt>
      <trkpt lat="45.4634" lon="-1.13563">
        <ele>69</ele>
        <time>2025-04-26T11:36:33Z</time>
      </trkpt>
      <trkpt lat="45.46344" lon="-1.13563">
        <ele>68</ele>
        <time>2025-04-26T11:36:34Z</time>
      </trkpt>
      <trkpt lat="45.46348" lon="-1.13563">
        <ele>68</ele>
        <time>2025-04-26T11:36:35Z</time>
      </trkpt>
      <trkpt lat="45.46352" lon="-1.13562">
        <ele>69</ele>
        <time>2025-04-26T11:36:36Z</time>
      </trkpt>
      <trkpt lat="45.46355" lon="-1.13562">
        <ele>69</ele>
        <time>2025-04-26T11:36:37Z</time>
      </trkpt>
      <trkpt lat="45.46359" lon="-1.13561">
        <ele>69</ele>
        <time>2025-04-26T11:36:38Z</time>
      </trkpt>
      <trkpt lat="45.46364" lon="-1.13561">
        <ele>69</ele>
        <time>2025-04-26T11:36:39Z</time>
      </trkpt>
      <trkpt lat="45.46368" lon="-1.1356">
        <ele>69</ele>
        <time>2025-04-26T11:36:40Z</time>
      </trkpt>
      <trkpt lat="45.46373" lon="-1.1356">
        <ele>69</ele>
        <time>2025-04-26T11:36:41Z</time>
      </trkpt>
      <trkpt lat="45.46377" lon="-1.13559">
        <ele>69</ele>
        <time>2025-04-26T11:36:42Z</time>
      </trkpt>
      <trkpt lat="45.46381" lon="-1.13558">
        <ele>69</ele>
        <time>2025-04-26T11:36:43Z</time>
      </trkpt>
      <trkpt lat="45.46386" lon="-1.13557">
        <ele>69</ele>
        <time>2025-04-26T11:36:44Z</time>
      </trkpt>
      <trkpt lat="45.46391" lon="-1.13557">
        <ele>69</ele>
        <time>2025-04-26T11:36:45Z</time>
      </trkpt>
      <trkpt lat="45.46395" lon="-1.13557">
        <ele>68</ele>
        <time>2025-04-26T11:36:46Z</time>
      </trkpt>
      <trkpt lat="45.464" lon="-1.13556">
        <ele>67</ele>
        <time>2025-04-26T11:36:47Z</time>
      </trkpt>
      <trkpt lat="45.46404" lon="-1.13555">
        <ele>67</ele>
        <time>2025-04-26T11:36:48Z</time>
      </trkpt>
      <trkpt lat="45.46408" lon="-1.13555">
        <ele>67</ele>
        <time>2025-04-26T11:36:49Z</time>
      </trkpt>
      <trkpt lat="45.46412" lon="-1.13555">
        <ele>68</ele>
        <time>2025-04-26T11:36:50Z</time>
      </trkpt>
      <trkpt lat="45.46416" lon="-1.13554">
        <ele>68</ele>
        <time>2025-04-26T11:36:51Z</time>
      </trkpt>
      <trkpt lat="45.4642" lon="-1.13554">
        <ele>67</ele>
        <time>2025-04-26T11:36:52Z</time>
      </trkpt>
      <trkpt lat="45.46424" lon="-1.13554">
        <ele>67</ele>
        <time>2025-04-26T11:36:53Z</time>
      </trkpt>
      <trkpt lat="45.46428" lon="-1.13553">
        <ele>67</ele>
        <time>2025-04-26T11:36:54Z</time>
      </trkpt>
      <trkpt lat="45.46432" lon="-1.13553">
        <ele>67</ele>
        <time>2025-04-26T11:36:55Z</time>
      </trkpt>
      <trkpt lat="45.46436" lon="-1.13552">
        <ele>68</ele>
        <time>2025-04-26T11:36:56Z</time>
      </trkpt>
      <trkpt lat="45.4644" lon="-1.13552">
        <ele>68</ele>
        <time>2025-04-26T11:36:57Z</time>
      </trkpt>
      <trkpt lat="45.46444" lon="-1.13552">
        <ele>68</ele>
        <time>2025-04-26T11:36:58Z</time>
      </trkpt>
      <trkpt lat="45.46448" lon="-1.13551">
        <ele>68</ele>
        <time>2025-04-26T11:36:59Z</time>
      </trkpt>
      <trkpt lat="45.46452" lon="-1.13551">
        <ele>68</ele>
        <time>2025-04-26T11:37:00Z</time>
      </trkpt>
      <trkpt lat="45.46456" lon="-1.1355">
        <ele>67</ele>
        <time>2025-04-26T11:37:01Z</time>
      </trkpt>
      <trkpt lat="45.4646" lon="-1.1355">
        <ele>67</ele>
        <time>2025-04-26T11:37:02Z</time>
      </trkpt>
      <trkpt lat="45.46464" lon="-1.1355">
        <ele>66</ele>
        <time>2025-04-26T11:37:03Z</time>
      </trkpt>
      <trkpt lat="45.46468" lon="-1.13549">
        <ele>66</ele>
        <time>2025-04-26T11:37:04Z</time>
      </trkpt>
      <trkpt lat="45.46471" lon="-1.13549">
        <ele>66</ele>
        <time>2025-04-26T11:37:05Z</time>
      </trkpt>
      <trkpt lat="45.46475" lon="-1.13548">
        <ele>65</ele>
        <time>2025-04-26T11:37:06Z</time>
      </trkpt>
      <trkpt lat="45.46479" lon="-1.13548">
        <ele>65</ele>
        <time>2025-04-26T11:37:07Z</time>
      </trkpt>
      <trkpt lat="45.46483" lon="-1.13547">
        <ele>65</ele>
        <time>2025-04-26T11:37:08Z</time>
      </trkpt>
      <trkpt lat="45.46487" lon="-1.13547">
        <ele>66</ele>
        <time>2025-04-26T11:37:09Z</time>
      </trkpt>
      <trkpt lat="45.46491" lon="-1.13546">
        <ele>66</ele>
        <time>2025-04-26T11:37:10Z</time>
      </trkpt>
      <trkpt lat="45.46495" lon="-1.13546">
        <ele>66</ele>
        <time>2025-04-26T11:37:11Z</time>
      </trkpt>
      <trkpt lat="45.46499" lon="-1.13545">
        <ele>67</ele>
        <time>2025-04-26T11:37:12Z</time>
      </trkpt>
      <trkpt lat="45.46504" lon="-1.13544">
        <ele>67</ele>
        <time>2025-04-26T11:37:13Z</time>
      </trkpt>
      <trkpt lat="45.46508" lon="-1.13544">
        <ele>68</ele>
        <time>2025-04-26T11:37:14Z</time>
      </trkpt>
      <trkpt lat="45.46513" lon="-1.13544">
        <ele>68</ele>
        <time>2025-04-26T11:37:15Z</time>
      </trkpt>
      <trkpt lat="45.46517" lon="-1.13543">
        <ele>68</ele>
        <time>2025-04-26T11:37:16Z</time>
      </trkpt>
      <trkpt lat="45.46521" lon="-1.13543">
        <ele>68</ele>
        <time>2025-04-26T11:37:17Z</time>
      </trkpt>
      <trkpt lat="45.46525" lon="-1.13543">
        <ele>68</ele>
        <time>2025-04-26T11:37:18Z</time>
      </trkpt>
      <trkpt lat="45.46529" lon="-1.13544">
        <ele>68</ele>
        <time>2025-04-26T11:37:19Z</time>
      </trkpt>
      <trkpt lat="45.46533" lon="-1.13542">
        <ele>68</ele>
        <time>2025-04-26T11:37:20Z</time>
      </trkpt>
      <trkpt lat="45.46537" lon="-1.13542">
        <ele>68</ele>
        <time>2025-04-26T11:37:21Z</time>
      </trkpt>
      <trkpt lat="45.46542" lon="-1.13541">
        <ele>69</ele>
        <time>2025-04-26T11:37:22Z</time>
      </trkpt>
      <trkpt lat="45.46546" lon="-1.13541">
        <ele>69</ele>
        <time>2025-04-26T11:37:23Z</time>
      </trkpt>
      <trkpt lat="45.4655" lon="-1.1354">
        <ele>69</ele>
        <time>2025-04-26T11:37:24Z</time>
      </trkpt>
      <trkpt lat="45.46554" lon="-1.1354">
        <ele>69</ele>
        <time>2025-04-26T11:37:25Z</time>
      </trkpt>
      <trkpt lat="45.46559" lon="-1.1354">
        <ele>69</ele>
        <time>2025-04-26T11:37:26Z</time>
      </trkpt>
      <trkpt lat="45.46563" lon="-1.1354">
        <ele>69</ele>
        <time>2025-04-26T11:37:27Z</time>
      </trkpt>
      <trkpt lat="45.46567" lon="-1.13539">
        <ele>69</ele>
        <time>2025-04-26T11:37:28Z</time>
      </trkpt>
      <trkpt lat="45.46571" lon="-1.13538">
        <ele>70</ele>
        <time>2025-04-26T11:37:29Z</time>
      </trkpt>
      <trkpt lat="45.46575" lon="-1.13537">
        <ele>70</ele>
        <time>2025-04-26T11:37:30Z</time>
      </trkpt>
      <trkpt lat="45.46579" lon="-1.13538">
        <ele>69</ele>
        <time>2025-04-26T11:37:31Z</time>
      </trkpt>
      <trkpt lat="45.46583" lon="-1.13538">
        <ele>68</ele>
        <time>2025-04-26T11:37:32Z</time>
      </trkpt>
      <trkpt lat="45.46587" lon="-1.13537">
        <ele>68</ele>
        <time>2025-04-26T11:37:33Z</time>
      </trkpt>
      <trkpt lat="45.4659" lon="-1.13536">
        <ele>68</ele>
        <time>2025-04-26T11:37:34Z</time>
      </trkpt>
      <trkpt lat="45.46594" lon="-1.13536">
        <ele>68</ele>
        <time>2025-04-26T11:37:35Z</time>
      </trkpt>
      <trkpt lat="45.46598" lon="-1.13539">
        <ele>67</ele>
        <time>2025-04-26T11:37:36Z</time>
      </trkpt>
      <trkpt lat="45.466" lon="-1.13544">
        <ele>67</ele>
        <time>2025-04-26T11:37:37Z</time>
      </trkpt>
      <trkpt lat="45.46601" lon="-1.1355">
        <ele>66</ele>
        <time>2025-04-26T11:37:38Z</time>
      </trkpt>
      <trkpt lat="45.46602" lon="-1.13556">
        <ele>66</ele>
        <time>2025-04-26T11:37:39Z</time>
      </trkpt>
      <trkpt lat="45.46602" lon="-1.13562">
        <ele>65</ele>
        <time>2025-04-26T11:37:40Z</time>
      </trkpt>
      <trkpt lat="45.46603" lon="-1.13568">
        <ele>66</ele>
        <time>2025-04-26T11:37:41Z</time>
      </trkpt>
      <trkpt lat="45.46604" lon="-1.13575">
        <ele>66</ele>
        <time>2025-04-26T11:37:42Z</time>
      </trkpt>
      <trkpt lat="45.46604" lon="-1.1358">
        <ele>67</ele>
        <time>2025-04-26T11:37:43Z</time>
      </trkpt>
      <trkpt lat="45.46605" lon="-1.13587">
        <ele>67</ele>
        <time>2025-04-26T11:37:44Z</time>
      </trkpt>
      <trkpt lat="45.46605" lon="-1.13593">
        <ele>67</ele>
        <time>2025-04-26T11:37:45Z</time>
      </trkpt>
      <trkpt lat="45.46606" lon="-1.136">
        <ele>67</ele>
        <time>2025-04-26T11:37:46Z</time>
      </trkpt>
      <trkpt lat="45.46607" lon="-1.13606">
        <ele>66</ele>
        <time>2025-04-26T11:37:47Z</time>
      </trkpt>
      <trkpt lat="45.46607" lon="-1.13613">
        <ele>66</ele>
        <time>2025-04-26T11:37:48Z</time>
      </trkpt>
      <trkpt lat="45.46608" lon="-1.13619">
        <ele>66</ele>
        <time>2025-04-26T11:37:49Z</time>
      </trkpt>
      <trkpt lat="45.46609" lon="-1.13626">
        <ele>66</ele>
        <time>2025-04-26T11:37:50Z</time>
      </trkpt>
      <trkpt lat="45.4661" lon="-1.13632">
        <ele>66</ele>
        <time>2025-04-26T11:37:51Z</time>
      </trkpt>
      <trkpt lat="45.46611" lon="-1.13638">
        <ele>65</ele>
        <time>2025-04-26T11:37:52Z</time>
      </trkpt>
      <trkpt lat="45.46611" lon="-1.13644">
        <ele>64</ele>
        <time>2025-04-26T11:37:53Z</time>
      </trkpt>
      <trkpt lat="45.46611" lon="-1.1365">
        <ele>64</ele>
        <time>2025-04-26T11:37:54Z</time>
      </trkpt>
      <trkpt lat="45.46612" lon="-1.13657">
        <ele>63</ele>
        <time>2025-04-26T11:37:55Z</time>
      </trkpt>
      <trkpt lat="45.46612" lon="-1.13663">
        <ele>63</ele>
        <time>2025-04-26T11:37:56Z</time>
      </trkpt>
      <trkpt lat="45.46613" lon="-1.13668">
        <ele>63</ele>
        <time>2025-04-26T11:37:57Z</time>
      </trkpt>
      <trkpt lat="45.46613" lon="-1.13674">
        <ele>63</ele>
        <time>2025-04-26T11:37:58Z</time>
      </trkpt>
      <trkpt lat="45.46614" lon="-1.1368">
        <ele>62</ele>
        <time>2025-04-26T11:37:59Z</time>
      </trkpt>
      <trkpt lat="45.46614" lon="-1.13686">
        <ele>62</ele>
        <time>2025-04-26T11:38:00Z</time>
      </trkpt>
      <trkpt lat="45.46615" lon="-1.13691">
        <ele>63</ele>
        <time>2025-04-26T11:38:01Z</time>
      </trkpt>
      <trkpt lat="45.46615" lon="-1.13697">
        <ele>63</ele>
        <time>2025-04-26T11:38:02Z</time>
      </trkpt>
      <trkpt lat="45.46616" lon="-1.13702">
        <ele>63</ele>
        <time>2025-04-26T11:38:03Z</time>
      </trkpt>
      <trkpt lat="45.46616" lon="-1.13709">
        <ele>63</ele>
        <time>2025-04-26T11:38:04Z</time>
      </trkpt>
      <trkpt lat="45.46616" lon="-1.13714">
        <ele>63</ele>
        <time>2025-04-26T11:38:05Z</time>
      </trkpt>
      <trkpt lat="45.46617" lon="-1.1372">
        <ele>64</ele>
        <time>2025-04-26T11:38:06Z</time>
      </trkpt>
      <trkpt lat="45.46617" lon="-1.13725">
        <ele>64</ele>
        <time>2025-04-26T11:38:07Z</time>
      </trkpt>
      <trkpt lat="45.46618" lon="-1.13731">
        <ele>64</ele>
        <time>2025-04-26T11:38:08Z</time>
      </trkpt>
      <trkpt lat="45.46618" lon="-1.13737">
        <ele>64</ele>
        <time>2025-04-26T11:38:09Z</time>
      </trkpt>
      <trkpt lat="45.46618" lon="-1.13742">
        <ele>64</ele>
        <time>2025-04-26T11:38:10Z</time>
      </trkpt>
      <trkpt lat="45.46619" lon="-1.13747">
        <ele>64</ele>
        <time>2025-04-26T11:38:11Z</time>
      </trkpt>
      <trkpt lat="45.4662" lon="-1.13753">
        <ele>64</ele>
        <time>2025-04-26T11:38:12Z</time>
      </trkpt>
      <trkpt lat="45.4662" lon="-1.13759">
        <ele>64</ele>
        <time>2025-04-26T11:38:13Z</time>
      </trkpt>
      <trkpt lat="45.4662" lon="-1.13764">
        <ele>63</ele>
        <time>2025-04-26T11:38:14Z</time>
      </trkpt>
      <trkpt lat="45.46621" lon="-1.1377">
        <ele>62</ele>
        <time>2025-04-26T11:38:15Z</time>
      </trkpt>
      <trkpt lat="45.46621" lon="-1.13776">
        <ele>62</ele>
        <time>2025-04-26T11:38:16Z</time>
      </trkpt>
      <trkpt lat="45.46622" lon="-1.13781">
        <ele>62</ele>
        <time>2025-04-26T11:38:17Z</time>
      </trkpt>
      <trkpt lat="45.46622" lon="-1.13787">
        <ele>62</ele>
        <time>2025-04-26T11:38:18Z</time>
      </trkpt>
      <trkpt lat="45.46622" lon="-1.13792">
        <ele>62</ele>
        <time>2025-04-26T11:38:19Z</time>
      </trkpt>
      <trkpt lat="45.46623" lon="-1.13797">
        <ele>62</ele>
        <time>2025-04-26T11:38:20Z</time>
      </trkpt>
      <trkpt lat="45.46623" lon="-1.13804">
        <ele>62</ele>
        <time>2025-04-26T11:38:21Z</time>
      </trkpt>
      <trkpt lat="45.46624" lon="-1.13809">
        <ele>62</ele>
        <time>2025-04-26T11:38:22Z</time>
      </trkpt>
      <trkpt lat="45.46625" lon="-1.13814">
        <ele>62</ele>
        <time>2025-04-26T11:38:23Z</time>
      </trkpt>
      <trkpt lat="45.46625" lon="-1.13818">
        <ele>63</ele>
        <time>2025-04-26T11:38:24Z</time>
      </trkpt>
      <trkpt lat="45.46626" lon="-1.13823">
        <ele>63</ele>
        <time>2025-04-26T11:38:25Z</time>
      </trkpt>
      <trkpt lat="45.46627" lon="-1.13829">
        <ele>62</ele>
        <time>2025-04-26T11:38:26Z</time>
      </trkpt>
      <trkpt lat="45.46627" lon="-1.13835">
        <ele>62</ele>
        <time>2025-04-26T11:38:27Z</time>
      </trkpt>
      <trkpt lat="45.46627" lon="-1.1384">
        <ele>63</ele>
        <time>2025-04-26T11:38:28Z</time>
      </trkpt>
      <trkpt lat="45.46627" lon="-1.13847">
        <ele>63</ele>
        <time>2025-04-26T11:38:29Z</time>
      </trkpt>
      <trkpt lat="45.46628" lon="-1.13852">
        <ele>63</ele>
        <time>2025-04-26T11:38:30Z</time>
      </trkpt>
      <trkpt lat="45.46628" lon="-1.13857">
        <ele>63</ele>
        <time>2025-04-26T11:38:31Z</time>
      </trkpt>
      <trkpt lat="45.46628" lon="-1.13863">
        <ele>63</ele>
        <time>2025-04-26T11:38:32Z</time>
      </trkpt>
      <trkpt lat="45.46629" lon="-1.13869">
        <ele>63</ele>
        <time>2025-04-26T11:38:33Z</time>
      </trkpt>
      <trkpt lat="45.46629" lon="-1.13874">
        <ele>64</ele>
        <time>2025-04-26T11:38:34Z</time>
      </trkpt>
      <trkpt lat="45.4663" lon="-1.13879">
        <ele>64</ele>
        <time>2025-04-26T11:38:35Z</time>
      </trkpt>
      <trkpt lat="45.4663" lon="-1.13885">
        <ele>64</ele>
        <time>2025-04-26T11:38:36Z</time>
      </trkpt>
      <trkpt lat="45.46631" lon="-1.13891">
        <ele>63</ele>
        <time>2025-04-26T11:38:37Z</time>
      </trkpt>
      <trkpt lat="45.46632" lon="-1.13897">
        <ele>63</ele>
        <time>2025-04-26T11:38:38Z</time>
      </trkpt>
      <trkpt lat="45.46632" lon="-1.13903">
        <ele>63</ele>
        <time>2025-04-26T11:38:39Z</time>
      </trkpt>
      <trkpt lat="45.46633" lon="-1.13909">
        <ele>63</ele>
        <time>2025-04-26T11:38:40Z</time>
      </trkpt>
      <trkpt lat="45.46633" lon="-1.13914">
        <ele>64</ele>
        <time>2025-04-26T11:38:41Z</time>
      </trkpt>
      <trkpt lat="45.46634" lon="-1.1392">
        <ele>63</ele>
        <time>2025-04-26T11:38:42Z</time>
      </trkpt>
      <trkpt lat="45.46634" lon="-1.13925">
        <ele>63</ele>
        <time>2025-04-26T11:38:43Z</time>
      </trkpt>
      <trkpt lat="45.46634" lon="-1.13931">
        <ele>64</ele>
        <time>2025-04-26T11:38:44Z</time>
      </trkpt>
      <trkpt lat="45.46635" lon="-1.13936">
        <ele>64</ele>
        <time>2025-04-26T11:38:45Z</time>
      </trkpt>
      <trkpt lat="45.46635" lon="-1.13941">
        <ele>64</ele>
        <time>2025-04-26T11:38:46Z</time>
      </trkpt>
      <trkpt lat="45.46636" lon="-1.13947">
        <ele>64</ele>
        <time>2025-04-26T11:38:47Z</time>
      </trkpt>
      <trkpt lat="45.46636" lon="-1.13952">
        <ele>64</ele>
        <time>2025-04-26T11:38:48Z</time>
      </trkpt>
      <trkpt lat="45.46637" lon="-1.13957">
        <ele>64</ele>
        <time>2025-04-26T11:38:49Z</time>
      </trkpt>
      <trkpt lat="45.46637" lon="-1.13963">
        <ele>63</ele>
        <time>2025-04-26T11:38:50Z</time>
      </trkpt>
      <trkpt lat="45.46638" lon="-1.13969">
        <ele>63</ele>
        <time>2025-04-26T11:38:51Z</time>
      </trkpt>
      <trkpt lat="45.46639" lon="-1.13974">
        <ele>63</ele>
        <time>2025-04-26T11:38:52Z</time>
      </trkpt>
      <trkpt lat="45.46639" lon="-1.1398">
        <ele>63</ele>
        <time>2025-04-26T11:38:53Z</time>
      </trkpt>
      <trkpt lat="45.46639" lon="-1.13987">
        <ele>63</ele>
        <time>2025-04-26T11:38:54Z</time>
      </trkpt>
      <trkpt lat="45.4664" lon="-1.13993">
        <ele>64</ele>
        <time>2025-04-26T11:38:55Z</time>
      </trkpt>
      <trkpt lat="45.4664" lon="-1.14">
        <ele>64</ele>
        <time>2025-04-26T11:38:56Z</time>
      </trkpt>
      <trkpt lat="45.46641" lon="-1.14006">
        <ele>64</ele>
        <time>2025-04-26T11:38:57Z</time>
      </trkpt>
      <trkpt lat="45.46642" lon="-1.14013">
        <ele>64</ele>
        <time>2025-04-26T11:38:58Z</time>
      </trkpt>
      <trkpt lat="45.46643" lon="-1.14019">
        <ele>64</ele>
        <time>2025-04-26T11:38:59Z</time>
      </trkpt>
      <trkpt lat="45.46643" lon="-1.14026">
        <ele>64</ele>
        <time>2025-04-26T11:39:00Z</time>
      </trkpt>
      <trkpt lat="45.46644" lon="-1.14032">
        <ele>63</ele>
        <time>2025-04-26T11:39:01Z</time>
      </trkpt>
      <trkpt lat="45.46644" lon="-1.14039">
        <ele>64</ele>
        <time>2025-04-26T11:39:02Z</time>
      </trkpt>
      <trkpt lat="45.46645" lon="-1.14046">
        <ele>63</ele>
        <time>2025-04-26T11:39:03Z</time>
      </trkpt>
      <trkpt lat="45.46645" lon="-1.14053">
        <ele>63</ele>
        <time>2025-04-26T11:39:04Z</time>
      </trkpt>
      <trkpt lat="45.46646" lon="-1.1406">
        <ele>63</ele>
        <time>2025-04-26T11:39:05Z</time>
      </trkpt>
      <trkpt lat="45.46646" lon="-1.14066">
        <ele>63</ele>
        <time>2025-04-26T11:39:06Z</time>
      </trkpt>
      <trkpt lat="45.46647" lon="-1.14073">
        <ele>63</ele>
        <time>2025-04-26T11:39:07Z</time>
      </trkpt>
      <trkpt lat="45.46648" lon="-1.1408">
        <ele>62</ele>
        <time>2025-04-26T11:39:08Z</time>
      </trkpt>
      <trkpt lat="45.46649" lon="-1.14087">
        <ele>63</ele>
        <time>2025-04-26T11:39:09Z</time>
      </trkpt>
      <trkpt lat="45.46649" lon="-1.14094">
        <ele>63</ele>
        <time>2025-04-26T11:39:10Z</time>
      </trkpt>
      <trkpt lat="45.46649" lon="-1.141">
        <ele>64</ele>
        <time>2025-04-26T11:39:11Z</time>
      </trkpt>
      <trkpt lat="45.4665" lon="-1.14107">
        <ele>63</ele>
        <time>2025-04-26T11:39:12Z</time>
      </trkpt>
      <trkpt lat="45.46651" lon="-1.14113">
        <ele>63</ele>
        <time>2025-04-26T11:39:13Z</time>
      </trkpt>
      <trkpt lat="45.46651" lon="-1.14121">
        <ele>62</ele>
        <time>2025-04-26T11:39:14Z</time>
      </trkpt>
      <trkpt lat="45.46651" lon="-1.14129">
        <ele>62</ele>
        <time>2025-04-26T11:39:15Z</time>
      </trkpt>
      <trkpt lat="45.46652" lon="-1.14137">
        <ele>62</ele>
        <time>2025-04-26T11:39:16Z</time>
      </trkpt>
      <trkpt lat="45.46653" lon="-1.14144">
        <ele>62</ele>
        <time>2025-04-26T11:39:17Z</time>
      </trkpt>
      <trkpt lat="45.46654" lon="-1.1415">
        <ele>62</ele>
        <time>2025-04-26T11:39:18Z</time>
      </trkpt>
      <trkpt lat="45.46654" lon="-1.14158">
        <ele>62</ele>
        <time>2025-04-26T11:39:19Z</time>
      </trkpt>
      <trkpt lat="45.46655" lon="-1.14164">
        <ele>62</ele>
        <time>2025-04-26T11:39:20Z</time>
      </trkpt>
      <trkpt lat="45.46655" lon="-1.14172">
        <ele>62</ele>
        <time>2025-04-26T11:39:21Z</time>
      </trkpt>
      <trkpt lat="45.46656" lon="-1.14179">
        <ele>62</ele>
        <time>2025-04-26T11:39:22Z</time>
      </trkpt>
      <trkpt lat="45.46657" lon="-1.14185">
        <ele>62</ele>
        <time>2025-04-26T11:39:23Z</time>
      </trkpt>
      <trkpt lat="45.46658" lon="-1.14192">
        <ele>62</ele>
        <time>2025-04-26T11:39:24Z</time>
      </trkpt>
      <trkpt lat="45.46659" lon="-1.14199">
        <ele>62</ele>
        <time>2025-04-26T11:39:25Z</time>
      </trkpt>
      <trkpt lat="45.4666" lon="-1.14205">
        <ele>62</ele>
        <time>2025-04-26T11:39:26Z</time>
      </trkpt>
      <trkpt lat="45.4666" lon="-1.14212">
        <ele>62</ele>
        <time>2025-04-26T11:39:27Z</time>
      </trkpt>
      <trkpt lat="45.46661" lon="-1.14219">
        <ele>62</ele>
        <time>2025-04-26T11:39:28Z</time>
      </trkpt>
      <trkpt lat="45.46661" lon="-1.14226">
        <ele>63</ele>
        <time>2025-04-26T11:39:29Z</time>
      </trkpt>
      <trkpt lat="45.46662" lon="-1.14233">
        <ele>62</ele>
        <time>2025-04-26T11:39:30Z</time>
      </trkpt>
      <trkpt lat="45.46662" lon="-1.14239">
        <ele>63</ele>
        <time>2025-04-26T11:39:31Z</time>
      </trkpt>
      <trkpt lat="45.46663" lon="-1.14244">
        <ele>63</ele>
        <time>2025-04-26T11:39:32Z</time>
      </trkpt>
      <trkpt lat="45.46663" lon="-1.1425">
        <ele>64</ele>
        <time>2025-04-26T11:39:33Z</time>
      </trkpt>
      <trkpt lat="45.46664" lon="-1.14256">
        <ele>64</ele>
        <time>2025-04-26T11:39:34Z</time>
      </trkpt>
      <trkpt lat="45.46664" lon="-1.14263">
        <ele>64</ele>
        <time>2025-04-26T11:39:35Z</time>
      </trkpt>
      <trkpt lat="45.46664" lon="-1.14269">
        <ele>63</ele>
        <time>2025-04-26T11:39:36Z</time>
      </trkpt>
      <trkpt lat="45.46665" lon="-1.14275">
        <ele>63</ele>
        <time>2025-04-26T11:39:37Z</time>
      </trkpt>
      <trkpt lat="45.46665" lon="-1.14281">
        <ele>64</ele>
        <time>2025-04-26T11:39:38Z</time>
      </trkpt>
      <trkpt lat="45.46666" lon="-1.14287">
        <ele>64</ele>
        <time>2025-04-26T11:39:39Z</time>
      </trkpt>
      <trkpt lat="45.46667" lon="-1.14293">
        <ele>65</ele>
        <time>2025-04-26T11:39:40Z</time>
      </trkpt>
      <trkpt lat="45.46667" lon="-1.14299">
        <ele>66</ele>
        <time>2025-04-26T11:39:41Z</time>
      </trkpt>
      <trkpt lat="45.46667" lon="-1.14305">
        <ele>66</ele>
        <time>2025-04-26T11:39:42Z</time>
      </trkpt>
      <trkpt lat="45.46668" lon="-1.14311">
        <ele>65</ele>
        <time>2025-04-26T11:39:43Z</time>
      </trkpt>
      <trkpt lat="45.46669" lon="-1.14317">
        <ele>65</ele>
        <time>2025-04-26T11:39:44Z</time>
      </trkpt>
      <trkpt lat="45.46669" lon="-1.14324">
        <ele>65</ele>
        <time>2025-04-26T11:39:45Z</time>
      </trkpt>
      <trkpt lat="45.46669" lon="-1.1433">
        <ele>65</ele>
        <time>2025-04-26T11:39:46Z</time>
      </trkpt>
      <trkpt lat="45.4667" lon="-1.14336">
        <ele>65</ele>
        <time>2025-04-26T11:39:47Z</time>
      </trkpt>
      <trkpt lat="45.4667" lon="-1.14343">
        <ele>64</ele>
        <time>2025-04-26T11:39:48Z</time>
      </trkpt>
      <trkpt lat="45.46671" lon="-1.14349">
        <ele>65</ele>
        <time>2025-04-26T11:39:49Z</time>
      </trkpt>
      <trkpt lat="45.46672" lon="-1.14355">
        <ele>65</ele>
        <time>2025-04-26T11:39:50Z</time>
      </trkpt>
      <trkpt lat="45.46672" lon="-1.14361">
        <ele>65</ele>
        <time>2025-04-26T11:39:51Z</time>
      </trkpt>
      <trkpt lat="45.46673" lon="-1.14368">
        <ele>65</ele>
        <time>2025-04-26T11:39:52Z</time>
      </trkpt>
      <trkpt lat="45.46673" lon="-1.14374">
        <ele>66</ele>
        <time>2025-04-26T11:39:53Z</time>
      </trkpt>
      <trkpt lat="45.46674" lon="-1.1438">
        <ele>66</ele>
        <time>2025-04-26T11:39:54Z</time>
      </trkpt>
      <trkpt lat="45.46674" lon="-1.14387">
        <ele>65</ele>
        <time>2025-04-26T11:39:55Z</time>
      </trkpt>
      <trkpt lat="45.46675" lon="-1.14393">
        <ele>65</ele>
        <time>2025-04-26T11:39:56Z</time>
      </trkpt>
      <trkpt lat="45.46675" lon="-1.144">
        <ele>65</ele>
        <time>2025-04-26T11:39:57Z</time>
      </trkpt>
      <trkpt lat="45.46676" lon="-1.14406">
        <ele>65</ele>
        <time>2025-04-26T11:39:58Z</time>
      </trkpt>
      <trkpt lat="45.46676" lon="-1.14411">
        <ele>65</ele>
        <time>2025-04-26T11:39:59Z</time>
      </trkpt>
      <trkpt lat="45.46677" lon="-1.14417">
        <ele>65</ele>
        <time>2025-04-26T11:40:00Z</time>
      </trkpt>
      <trkpt lat="45.46678" lon="-1.14424">
        <ele>65</ele>
        <time>2025-04-26T11:40:01Z</time>
      </trkpt>
      <trkpt lat="45.46678" lon="-1.14431">
        <ele>65</ele>
        <time>2025-04-26T11:40:02Z</time>
      </trkpt>
      <trkpt lat="45.46678" lon="-1.14437">
        <ele>65</ele>
        <time>2025-04-26T11:40:03Z</time>
      </trkpt>
      <trkpt lat="45.46679" lon="-1.14444">
        <ele>64</ele>
        <time>2025-04-26T11:40:04Z</time>
      </trkpt>
      <trkpt lat="45.46679" lon="-1.14451">
        <ele>65</ele>
        <time>2025-04-26T11:40:05Z</time>
      </trkpt>
      <trkpt lat="45.4668" lon="-1.14457">
        <ele>65</ele>
        <time>2025-04-26T11:40:06Z</time>
      </trkpt>
      <trkpt lat="45.46681" lon="-1.14464">
        <ele>65</ele>
        <time>2025-04-26T11:40:07Z</time>
      </trkpt>
      <trkpt lat="45.46681" lon="-1.14471">
        <ele>65</ele>
        <time>2025-04-26T11:40:08Z</time>
      </trkpt>
      <trkpt lat="45.46681" lon="-1.14479">
        <ele>65</ele>
        <time>2025-04-26T11:40:09Z</time>
      </trkpt>
      <trkpt lat="45.46682" lon="-1.14485">
        <ele>64</ele>
        <time>2025-04-26T11:40:10Z</time>
      </trkpt>
      <trkpt lat="45.46682" lon="-1.14492">
        <ele>64</ele>
        <time>2025-04-26T11:40:11Z</time>
      </trkpt>
      <trkpt lat="45.46683" lon="-1.14499">
        <ele>64</ele>
        <time>2025-04-26T11:40:12Z</time>
      </trkpt>
      <trkpt lat="45.46684" lon="-1.14506">
        <ele>64</ele>
        <time>2025-04-26T11:40:13Z</time>
      </trkpt>
      <trkpt lat="45.46685" lon="-1.14512">
        <ele>64</ele>
        <time>2025-04-26T11:40:14Z</time>
      </trkpt>
      <trkpt lat="45.46685" lon="-1.14518">
        <ele>65</ele>
        <time>2025-04-26T11:40:15Z</time>
      </trkpt>
      <trkpt lat="45.46686" lon="-1.14524">
        <ele>65</ele>
        <time>2025-04-26T11:40:16Z</time>
      </trkpt>
      <trkpt lat="45.46686" lon="-1.14531">
        <ele>66</ele>
        <time>2025-04-26T11:40:17Z</time>
      </trkpt>
      <trkpt lat="45.46687" lon="-1.14538">
        <ele>66</ele>
        <time>2025-04-26T11:40:18Z</time>
      </trkpt>
      <trkpt lat="45.46687" lon="-1.14544">
        <ele>66</ele>
        <time>2025-04-26T11:40:19Z</time>
      </trkpt>
      <trkpt lat="45.46688" lon="-1.14551">
        <ele>66</ele>
        <time>2025-04-26T11:40:20Z</time>
      </trkpt>
      <trkpt lat="45.46689" lon="-1.14557">
        <ele>66</ele>
        <time>2025-04-26T11:40:21Z</time>
      </trkpt>
      <trkpt lat="45.46689" lon="-1.14564">
        <ele>65</ele>
        <time>2025-04-26T11:40:22Z</time>
      </trkpt>
      <trkpt lat="45.4669" lon="-1.1457">
        <ele>66</ele>
        <time>2025-04-26T11:40:23Z</time>
      </trkpt>
      <trkpt lat="45.4669" lon="-1.14575">
        <ele>66</ele>
        <time>2025-04-26T11:40:24Z</time>
      </trkpt>
      <trkpt lat="45.4669" lon="-1.14581">
        <ele>66</ele>
        <time>2025-04-26T11:40:25Z</time>
      </trkpt>
      <trkpt lat="45.46691" lon="-1.14586">
        <ele>65</ele>
        <time>2025-04-26T11:40:26Z</time>
      </trkpt>
      <trkpt lat="45.46692" lon="-1.14591">
        <ele>65</ele>
        <time>2025-04-26T11:40:27Z</time>
      </trkpt>
      <trkpt lat="45.46692" lon="-1.14598">
        <ele>64</ele>
        <time>2025-04-26T11:40:28Z</time>
      </trkpt>
      <trkpt lat="45.46693" lon="-1.14605">
        <ele>64</ele>
        <time>2025-04-26T11:40:29Z</time>
      </trkpt>
      <trkpt lat="45.46693" lon="-1.14611">
        <ele>64</ele>
        <time>2025-04-26T11:40:30Z</time>
      </trkpt>
      <trkpt lat="45.46693" lon="-1.14618">
        <ele>64</ele>
        <time>2025-04-26T11:40:31Z</time>
      </trkpt>
      <trkpt lat="45.46694" lon="-1.14626">
        <ele>63</ele>
        <time>2025-04-26T11:40:32Z</time>
      </trkpt>
      <trkpt lat="45.46695" lon="-1.14632">
        <ele>63</ele>
        <time>2025-04-26T11:40:33Z</time>
      </trkpt>
      <trkpt lat="45.46696" lon="-1.14638">
        <ele>63</ele>
        <time>2025-04-26T11:40:34Z</time>
      </trkpt>
      <trkpt lat="45.46696" lon="-1.14645">
        <ele>63</ele>
        <time>2025-04-26T11:40:35Z</time>
      </trkpt>
      <trkpt lat="45.46697" lon="-1.14651">
        <ele>63</ele>
        <time>2025-04-26T11:40:36Z</time>
      </trkpt>
      <trkpt lat="45.46697" lon="-1.14658">
        <ele>62</ele>
        <time>2025-04-26T11:40:37Z</time>
      </trkpt>
      <trkpt lat="45.46698" lon="-1.14665">
        <ele>62</ele>
        <time>2025-04-26T11:40:38Z</time>
      </trkpt>
      <trkpt lat="45.46698" lon="-1.14672">
        <ele>63</ele>
        <time>2025-04-26T11:40:39Z</time>
      </trkpt>
      <trkpt lat="45.46699" lon="-1.14679">
        <ele>62</ele>
        <time>2025-04-26T11:40:40Z</time>
      </trkpt>
      <trkpt lat="45.46699" lon="-1.14686">
        <ele>62</ele>
        <time>2025-04-26T11:40:41Z</time>
      </trkpt>
      <trkpt lat="45.467" lon="-1.14693">
        <ele>62</ele>
        <time>2025-04-26T11:40:42Z</time>
      </trkpt>
      <trkpt lat="45.46701" lon="-1.147">
        <ele>62</ele>
        <time>2025-04-26T11:40:43Z</time>
      </trkpt>
      <trkpt lat="45.46701" lon="-1.14706">
        <ele>63</ele>
        <time>2025-04-26T11:40:44Z</time>
      </trkpt>
      <trkpt lat="45.46702" lon="-1.14713">
        <ele>62</ele>
        <time>2025-04-26T11:40:45Z</time>
      </trkpt>
      <trkpt lat="45.46702" lon="-1.1472">
        <ele>63</ele>
        <time>2025-04-26T11:40:46Z</time>
      </trkpt>
      <trkpt lat="45.46703" lon="-1.14726">
        <ele>64</ele>
        <time>2025-04-26T11:40:47Z</time>
      </trkpt>
      <trkpt lat="45.46704" lon="-1.14732">
        <ele>63</ele>
        <time>2025-04-26T11:40:48Z</time>
      </trkpt>
      <trkpt lat="45.46704" lon="-1.14738">
        <ele>63</ele>
        <time>2025-04-26T11:40:49Z</time>
      </trkpt>
      <trkpt lat="45.46705" lon="-1.14744">
        <ele>63</ele>
        <time>2025-04-26T11:40:50Z</time>
      </trkpt>
      <trkpt lat="45.46706" lon="-1.1475">
        <ele>64</ele>
        <time>2025-04-26T11:40:51Z</time>
      </trkpt>
      <trkpt lat="45.46706" lon="-1.14757">
        <ele>65</ele>
        <time>2025-04-26T11:40:52Z</time>
      </trkpt>
      <trkpt lat="45.46707" lon="-1.14764">
        <ele>65</ele>
        <time>2025-04-26T11:40:53Z</time>
      </trkpt>
      <trkpt lat="45.46707" lon="-1.1477">
        <ele>65</ele>
        <time>2025-04-26T11:40:54Z</time>
      </trkpt>
      <trkpt lat="45.46708" lon="-1.14777">
        <ele>65</ele>
        <time>2025-04-26T11:40:55Z</time>
      </trkpt>
      <trkpt lat="45.46708" lon="-1.14783">
        <ele>65</ele>
        <time>2025-04-26T11:40:56Z</time>
      </trkpt>
      <trkpt lat="45.46709" lon="-1.1479">
        <ele>64</ele>
        <time>2025-04-26T11:40:57Z</time>
      </trkpt>
      <trkpt lat="45.46709" lon="-1.14796">
        <ele>64</ele>
        <time>2025-04-26T11:40:58Z</time>
      </trkpt>
      <trkpt lat="45.4671" lon="-1.14802">
        <ele>64</ele>
        <time>2025-04-26T11:40:59Z</time>
      </trkpt>
      <trkpt lat="45.46711" lon="-1.14808">
        <ele>63</ele>
        <time>2025-04-26T11:41:00Z</time>
      </trkpt>
      <trkpt lat="45.46711" lon="-1.14813">
        <ele>63</ele>
        <time>2025-04-26T11:41:01Z</time>
      </trkpt>
      <trkpt lat="45.46712" lon="-1.14819">
        <ele>63</ele>
        <time>2025-04-26T11:41:02Z</time>
      </trkpt>
      <trkpt lat="45.46712" lon="-1.14825">
        <ele>63</ele>
        <time>2025-04-26T11:41:03Z</time>
      </trkpt>
      <trkpt lat="45.46713" lon="-1.14832">
        <ele>63</ele>
        <time>2025-04-26T11:41:04Z</time>
      </trkpt>
      <trkpt lat="45.46713" lon="-1.14837">
        <ele>63</ele>
        <time>2025-04-26T11:41:05Z</time>
      </trkpt>
      <trkpt lat="45.46713" lon="-1.14843">
        <ele>63</ele>
        <time>2025-04-26T11:41:06Z</time>
      </trkpt>
      <trkpt lat="45.46714" lon="-1.14849">
        <ele>63</ele>
        <time>2025-04-26T11:41:07Z</time>
      </trkpt>
      <trkpt lat="45.46714" lon="-1.14855">
        <ele>64</ele>
        <time>2025-04-26T11:41:08Z</time>
      </trkpt>
      <trkpt lat="45.46715" lon="-1.14861">
        <ele>64</ele>
        <time>2025-04-26T11:41:09Z</time>
      </trkpt>
      <trkpt lat="45.46715" lon="-1.14867">
        <ele>64</ele>
        <time>2025-04-26T11:41:10Z</time>
      </trkpt>
      <trkpt lat="45.46716" lon="-1.14872">
        <ele>64</ele>
        <time>2025-04-26T11:41:11Z</time>
      </trkpt>
      <trkpt lat="45.46716" lon="-1.14878">
        <ele>64</ele>
        <time>2025-04-26T11:41:12Z</time>
      </trkpt>
      <trkpt lat="45.46717" lon="-1.14884">
        <ele>64</ele>
        <time>2025-04-26T11:41:13Z</time>
      </trkpt>
      <trkpt lat="45.46717" lon="-1.14889">
        <ele>64</ele>
        <time>2025-04-26T11:41:14Z</time>
      </trkpt>
      <trkpt lat="45.46718" lon="-1.14895">
        <ele>64</ele>
        <time>2025-04-26T11:41:15Z</time>
      </trkpt>
      <trkpt lat="45.46718" lon="-1.14901">
        <ele>64</ele>
        <time>2025-04-26T11:41:16Z</time>
      </trkpt>
      <trkpt lat="45.46718" lon="-1.14907">
        <ele>64</ele>
        <time>2025-04-26T11:41:17Z</time>
      </trkpt>
      <trkpt lat="45.46719" lon="-1.14913">
        <ele>65</ele>
        <time>2025-04-26T11:41:18Z</time>
      </trkpt>
      <trkpt lat="45.46719" lon="-1.14919">
        <ele>65</ele>
        <time>2025-04-26T11:41:19Z</time>
      </trkpt>
      <trkpt lat="45.46719" lon="-1.14925">
        <ele>65</ele>
        <time>2025-04-26T11:41:20Z</time>
      </trkpt>
      <trkpt lat="45.4672" lon="-1.14931">
        <ele>65</ele>
        <time>2025-04-26T11:41:21Z</time>
      </trkpt>
      <trkpt lat="45.4672" lon="-1.14936">
        <ele>65</ele>
        <time>2025-04-26T11:41:22Z</time>
      </trkpt>
      <trkpt lat="45.46721" lon="-1.14942">
        <ele>65</ele>
        <time>2025-04-26T11:41:23Z</time>
      </trkpt>
      <trkpt lat="45.46722" lon="-1.14947">
        <ele>65</ele>
        <time>2025-04-26T11:41:24Z</time>
      </trkpt>
      <trkpt lat="45.46723" lon="-1.14953">
        <ele>65</ele>
        <time>2025-04-26T11:41:25Z</time>
      </trkpt>
      <trkpt lat="45.46723" lon="-1.14959">
        <ele>64</ele>
        <time>2025-04-26T11:41:26Z</time>
      </trkpt>
      <trkpt lat="45.46724" lon="-1.14966">
        <ele>64</ele>
        <time>2025-04-26T11:41:27Z</time>
      </trkpt>
      <trkpt lat="45.46724" lon="-1.14972">
        <ele>64</ele>
        <time>2025-04-26T11:41:28Z</time>
      </trkpt>
      <trkpt lat="45.46725" lon="-1.14977">
        <ele>64</ele>
        <time>2025-04-26T11:41:29Z</time>
      </trkpt>
      <trkpt lat="45.46725" lon="-1.14984">
        <ele>64</ele>
        <time>2025-04-26T11:41:30Z</time>
      </trkpt>
      <trkpt lat="45.46726" lon="-1.1499">
        <ele>63</ele>
        <time>2025-04-26T11:41:31Z</time>
      </trkpt>
      <trkpt lat="45.46726" lon="-1.14995">
        <ele>63</ele>
        <time>2025-04-26T11:41:32Z</time>
      </trkpt>
      <trkpt lat="45.46727" lon="-1.15002">
        <ele>63</ele>
        <time>2025-04-26T11:41:33Z</time>
      </trkpt>
      <trkpt lat="45.46727" lon="-1.15007">
        <ele>63</ele>
        <time>2025-04-26T11:41:34Z</time>
      </trkpt>
      <trkpt lat="45.46728" lon="-1.15013">
        <ele>63</ele>
        <time>2025-04-26T11:41:35Z</time>
      </trkpt>
      <trkpt lat="45.46729" lon="-1.15018">
        <ele>62</ele>
        <time>2025-04-26T11:41:36Z</time>
      </trkpt>
      <trkpt lat="45.46729" lon="-1.15024">
        <ele>61</ele>
        <time>2025-04-26T11:41:37Z</time>
      </trkpt>
      <trkpt lat="45.4673" lon="-1.1503">
        <ele>61</ele>
        <time>2025-04-26T11:41:38Z</time>
      </trkpt>
      <trkpt lat="45.46731" lon="-1.15036">
        <ele>61</ele>
        <time>2025-04-26T11:41:39Z</time>
      </trkpt>
      <trkpt lat="45.46731" lon="-1.15041">
        <ele>61</ele>
        <time>2025-04-26T11:41:40Z</time>
      </trkpt>
      <trkpt lat="45.46731" lon="-1.15047">
        <ele>61</ele>
        <time>2025-04-26T11:41:41Z</time>
      </trkpt>
      <trkpt lat="45.46731" lon="-1.15052">
        <ele>60</ele>
        <time>2025-04-26T11:41:42Z</time>
      </trkpt>
      <trkpt lat="45.46732" lon="-1.15057">
        <ele>61</ele>
        <time>2025-04-26T11:41:43Z</time>
      </trkpt>
      <trkpt lat="45.46732" lon="-1.15062">
        <ele>62</ele>
        <time>2025-04-26T11:41:44Z</time>
      </trkpt>
      <trkpt lat="45.46733" lon="-1.15068">
        <ele>62</ele>
        <time>2025-04-26T11:41:45Z</time>
      </trkpt>
      <trkpt lat="45.46733" lon="-1.15074">
        <ele>63</ele>
        <time>2025-04-26T11:41:46Z</time>
      </trkpt>
      <trkpt lat="45.46733" lon="-1.1508">
        <ele>63</ele>
        <time>2025-04-26T11:41:47Z</time>
      </trkpt>
      <trkpt lat="45.46734" lon="-1.15086">
        <ele>64</ele>
        <time>2025-04-26T11:41:48Z</time>
      </trkpt>
      <trkpt lat="45.46734" lon="-1.15092">
        <ele>65</ele>
        <time>2025-04-26T11:41:49Z</time>
      </trkpt>
      <trkpt lat="45.46735" lon="-1.15097">
        <ele>65</ele>
        <time>2025-04-26T11:41:50Z</time>
      </trkpt>
      <trkpt lat="45.46735" lon="-1.15103">
        <ele>64</ele>
        <time>2025-04-26T11:41:51Z</time>
      </trkpt>
      <trkpt lat="45.46736" lon="-1.15108">
        <ele>64</ele>
        <time>2025-04-26T11:41:52Z</time>
      </trkpt>
      <trkpt lat="45.46736" lon="-1.15113">
        <ele>64</ele>
        <time>2025-04-26T11:41:53Z</time>
      </trkpt>
      <trkpt lat="45.46737" lon="-1.15119">
        <ele>65</ele>
        <time>2025-04-26T11:41:54Z</time>
      </trkpt>
      <trkpt lat="45.46737" lon="-1.15125">
        <ele>64</ele>
        <time>2025-04-26T11:41:55Z</time>
      </trkpt>
      <trkpt lat="45.46738" lon="-1.1513">
        <ele>65</ele>
        <time>2025-04-26T11:41:56Z</time>
      </trkpt>
      <trkpt lat="45.46738" lon="-1.15136">
        <ele>64</ele>
        <time>2025-04-26T11:41:57Z</time>
      </trkpt>
      <trkpt lat="45.46738" lon="-1.15141">
        <ele>65</ele>
        <time>2025-04-26T11:41:58Z</time>
      </trkpt>
      <trkpt lat="45.46739" lon="-1.15146">
        <ele>65</ele>
        <time>2025-04-26T11:41:59Z</time>
      </trkpt>
      <trkpt lat="45.4674" lon="-1.15151">
        <ele>65</ele>
        <time>2025-04-26T11:42:00Z</time>
      </trkpt>
      <trkpt lat="45.4674" lon="-1.15157">
        <ele>65</ele>
        <time>2025-04-26T11:42:01Z</time>
      </trkpt>
      <trkpt lat="45.46741" lon="-1.15162">
        <ele>66</ele>
        <time>2025-04-26T11:42:02Z</time>
      </trkpt>
      <trkpt lat="45.46742" lon="-1.15168">
        <ele>66</ele>
        <time>2025-04-26T11:42:03Z</time>
      </trkpt>
      <trkpt lat="45.46743" lon="-1.15173">
        <ele>66</ele>
        <time>2025-04-26T11:42:04Z</time>
      </trkpt>
      <trkpt lat="45.46743" lon="-1.15178">
        <ele>66</ele>
        <time>2025-04-26T11:42:05Z</time>
      </trkpt>
      <trkpt lat="45.46743" lon="-1.15184">
        <ele>66</ele>
        <time>2025-04-26T11:42:06Z</time>
      </trkpt>
      <trkpt lat="45.46744" lon="-1.1519">
        <ele>66</ele>
        <time>2025-04-26T11:42:07Z</time>
      </trkpt>
      <trkpt lat="45.46744" lon="-1.15196">
        <ele>65</ele>
        <time>2025-04-26T11:42:08Z</time>
      </trkpt>
      <trkpt lat="45.46745" lon="-1.15201">
        <ele>65</ele>
        <time>2025-04-26T11:42:09Z</time>
      </trkpt>
      <trkpt lat="45.46745" lon="-1.15205">
        <ele>66</ele>
        <time>2025-04-26T11:42:10Z</time>
      </trkpt>
      <trkpt lat="45.46746" lon="-1.1521">
        <ele>66</ele>
        <time>2025-04-26T11:42:11Z</time>
      </trkpt>
      <trkpt lat="45.46746" lon="-1.15214">
        <ele>66</ele>
        <time>2025-04-26T11:42:12Z</time>
      </trkpt>
      <trkpt lat="45.46746" lon="-1.15219">
        <ele>66</ele>
        <time>2025-04-26T11:42:13Z</time>
      </trkpt>
      <trkpt lat="45.46746" lon="-1.15225">
        <ele>65</ele>
        <time>2025-04-26T11:42:14Z</time>
      </trkpt>
      <trkpt lat="45.46746" lon="-1.1523">
        <ele>65</ele>
        <time>2025-04-26T11:42:15Z</time>
      </trkpt>
      <trkpt lat="45.46747" lon="-1.15235">
        <ele>65</ele>
        <time>2025-04-26T11:42:16Z</time>
      </trkpt>
      <trkpt lat="45.46747" lon="-1.1524">
        <ele>65</ele>
        <time>2025-04-26T11:42:17Z</time>
      </trkpt>
      <trkpt lat="45.46747" lon="-1.15246">
        <ele>65</ele>
        <time>2025-04-26T11:42:18Z</time>
      </trkpt>
      <trkpt lat="45.46747" lon="-1.15251">
        <ele>64</ele>
        <time>2025-04-26T11:42:19Z</time>
      </trkpt>
      <trkpt lat="45.46748" lon="-1.15255">
        <ele>64</ele>
        <time>2025-04-26T11:42:20Z</time>
      </trkpt>
      <trkpt lat="45.46749" lon="-1.15259">
        <ele>64</ele>
        <time>2025-04-26T11:42:21Z</time>
      </trkpt>
      <trkpt lat="45.46749" lon="-1.15263">
        <ele>64</ele>
        <time>2025-04-26T11:42:22Z</time>
      </trkpt>
      <trkpt lat="45.46749" lon="-1.15268">
        <ele>64</ele>
        <time>2025-04-26T11:42:23Z</time>
      </trkpt>
      <trkpt lat="45.4675" lon="-1.15272">
        <ele>64</ele>
        <time>2025-04-26T11:42:24Z</time>
      </trkpt>
      <trkpt lat="45.4675" lon="-1.15276">
        <ele>64</ele>
        <time>2025-04-26T11:42:25Z</time>
      </trkpt>
      <trkpt lat="45.46751" lon="-1.1528">
        <ele>64</ele>
        <time>2025-04-26T11:42:26Z</time>
      </trkpt>
      <trkpt lat="45.46751" lon="-1.15284">
        <ele>64</ele>
        <time>2025-04-26T11:42:27Z</time>
      </trkpt>
      <trkpt lat="45.46751" lon="-1.15289">
        <ele>64</ele>
        <time>2025-04-26T11:42:28Z</time>
      </trkpt>
      <trkpt lat="45.46752" lon="-1.15293">
        <ele>64</ele>
        <time>2025-04-26T11:42:29Z</time>
      </trkpt>
      <trkpt lat="45.46753" lon="-1.15296">
        <ele>63</ele>
        <time>2025-04-26T11:42:30Z</time>
      </trkpt>
      <trkpt lat="45.46755" lon="-1.15299">
        <ele>63</ele>
        <time>2025-04-26T11:42:31Z</time>
      </trkpt>
      <trkpt lat="45.46757" lon="-1.153">
        <ele>63</ele>
        <time>2025-04-26T11:42:32Z</time>
      </trkpt>
      <trkpt lat="45.4676" lon="-1.15301">
        <ele>64</ele>
        <time>2025-04-26T11:42:33Z</time>
      </trkpt>
      <trkpt lat="45.46763" lon="-1.153">
        <ele>64</ele>
        <time>2025-04-26T11:42:34Z</time>
      </trkpt>
      <trkpt lat="45.46765" lon="-1.15298">
        <ele>64</ele>
        <time>2025-04-26T11:42:35Z</time>
      </trkpt>
      <trkpt lat="45.46767" lon="-1.15295">
        <ele>63</ele>
        <time>2025-04-26T11:42:36Z</time>
      </trkpt>
      <trkpt lat="45.4677" lon="-1.15292">
        <ele>63</ele>
        <time>2025-04-26T11:42:37Z</time>
      </trkpt>
      <trkpt lat="45.46772" lon="-1.15289">
        <ele>63</ele>
        <time>2025-04-26T11:42:38Z</time>
      </trkpt>
      <trkpt lat="45.46774" lon="-1.15286">
        <ele>63</ele>
        <time>2025-04-26T11:42:39Z</time>
      </trkpt>
      <trkpt lat="45.46776" lon="-1.15284">
        <ele>63</ele>
        <time>2025-04-26T11:42:40Z</time>
      </trkpt>
      <trkpt lat="45.46778" lon="-1.15281">
        <ele>63</ele>
        <time>2025-04-26T11:42:41Z</time>
      </trkpt>
      <trkpt lat="45.46781" lon="-1.15278">
        <ele>63</ele>
        <time>2025-04-26T11:42:42Z</time>
      </trkpt>
      <trkpt lat="45.46783" lon="-1.15275">
        <ele>63</ele>
        <time>2025-04-26T11:42:43Z</time>
      </trkpt>
      <trkpt lat="45.46786" lon="-1.15272">
        <ele>63</ele>
        <time>2025-04-26T11:42:44Z</time>
      </trkpt>
      <trkpt lat="45.46789" lon="-1.15269">
        <ele>63</ele>
        <time>2025-04-26T11:42:45Z</time>
      </trkpt>
      <trkpt lat="45.46791" lon="-1.15265">
        <ele>63</ele>
        <time>2025-04-26T11:42:46Z</time>
      </trkpt>
      <trkpt lat="45.46794" lon="-1.15262">
        <ele>64</ele>
        <time>2025-04-26T11:42:47Z</time>
      </trkpt>
      <trkpt lat="45.46796" lon="-1.15259">
        <ele>64</ele>
        <time>2025-04-26T11:42:48Z</time>
      </trkpt>
      <trkpt lat="45.46799" lon="-1.15256">
        <ele>64</ele>
        <time>2025-04-26T11:42:49Z</time>
      </trkpt>
      <trkpt lat="45.46802" lon="-1.15253">
        <ele>64</ele>
        <time>2025-04-26T11:42:50Z</time>
      </trkpt>
      <trkpt lat="45.46805" lon="-1.1525">
        <ele>64</ele>
        <time>2025-04-26T11:42:51Z</time>
      </trkpt>
      <trkpt lat="45.46807" lon="-1.15247">
        <ele>63</ele>
        <time>2025-04-26T11:42:52Z</time>
      </trkpt>
      <trkpt lat="45.4681" lon="-1.15243">
        <ele>63</ele>
        <time>2025-04-26T11:42:53Z</time>
      </trkpt>
      <trkpt lat="45.46814" lon="-1.1524">
        <ele>63</ele>
        <time>2025-04-26T11:42:54Z</time>
      </trkpt>
      <trkpt lat="45.46817" lon="-1.15237">
        <ele>63</ele>
        <time>2025-04-26T11:42:55Z</time>
      </trkpt>
      <trkpt lat="45.4682" lon="-1.15233">
        <ele>63</ele>
        <time>2025-04-26T11:42:56Z</time>
      </trkpt>
      <trkpt lat="45.46823" lon="-1.15229">
        <ele>63</ele>
        <time>2025-04-26T11:42:57Z</time>
      </trkpt>
      <trkpt lat="45.46826" lon="-1.15225">
        <ele>63</ele>
        <time>2025-04-26T11:42:58Z</time>
      </trkpt>
      <trkpt lat="45.46829" lon="-1.15222">
        <ele>63</ele>
        <time>2025-04-26T11:42:59Z</time>
      </trkpt>
      <trkpt lat="45.46833" lon="-1.15219">
        <ele>63</ele>
        <time>2025-04-26T11:43:00Z</time>
      </trkpt>
      <trkpt lat="45.46836" lon="-1.15216">
        <ele>63</ele>
        <time>2025-04-26T11:43:01Z</time>
      </trkpt>
      <trkpt lat="45.4684" lon="-1.15212">
        <ele>63</ele>
        <time>2025-04-26T11:43:02Z</time>
      </trkpt>
      <trkpt lat="45.46842" lon="-1.15209">
        <ele>64</ele>
        <time>2025-04-26T11:43:03Z</time>
      </trkpt>
      <trkpt lat="45.46845" lon="-1.15205">
        <ele>65</ele>
        <time>2025-04-26T11:43:04Z</time>
      </trkpt>
      <trkpt lat="45.46848" lon="-1.15202">
        <ele>64</ele>
        <time>2025-04-26T11:43:05Z</time>
      </trkpt>
      <trkpt lat="45.46851" lon="-1.15199">
        <ele>64</ele>
        <time>2025-04-26T11:43:06Z</time>
      </trkpt>
      <trkpt lat="45.46854" lon="-1.15195">
        <ele>64</ele>
        <time>2025-04-26T11:43:07Z</time>
      </trkpt>
      <trkpt lat="45.46857" lon="-1.15191">
        <ele>64</ele>
        <time>2025-04-26T11:43:08Z</time>
      </trkpt>
      <trkpt lat="45.4686" lon="-1.15188">
        <ele>64</ele>
        <time>2025-04-26T11:43:09Z</time>
      </trkpt>
      <trkpt lat="45.46863" lon="-1.15184">
        <ele>63</ele>
        <time>2025-04-26T11:43:10Z</time>
      </trkpt>
      <trkpt lat="45.46866" lon="-1.15181">
        <ele>63</ele>
        <time>2025-04-26T11:43:11Z</time>
      </trkpt>
      <trkpt lat="45.4687" lon="-1.15177">
        <ele>62</ele>
        <time>2025-04-26T11:43:12Z</time>
      </trkpt>
      <trkpt lat="45.46873" lon="-1.15174">
        <ele>63</ele>
        <time>2025-04-26T11:43:13Z</time>
      </trkpt>
      <trkpt lat="45.46876" lon="-1.1517">
        <ele>63</ele>
        <time>2025-04-26T11:43:14Z</time>
      </trkpt>
      <trkpt lat="45.46879" lon="-1.15167">
        <ele>63</ele>
        <time>2025-04-26T11:43:15Z</time>
      </trkpt>
      <trkpt lat="45.46882" lon="-1.15163">
        <ele>63</ele>
        <time>2025-04-26T11:43:16Z</time>
      </trkpt>
      <trkpt lat="45.46885" lon="-1.15159">
        <ele>63</ele>
        <time>2025-04-26T11:43:17Z</time>
      </trkpt>
      <trkpt lat="45.46888" lon="-1.15155">
        <ele>63</ele>
        <time>2025-04-26T11:43:18Z</time>
      </trkpt>
      <trkpt lat="45.46892" lon="-1.15151">
        <ele>63</ele>
        <time>2025-04-26T11:43:19Z</time>
      </trkpt>
      <trkpt lat="45.46895" lon="-1.15147">
        <ele>64</ele>
        <time>2025-04-26T11:43:20Z</time>
      </trkpt>
      <trkpt lat="45.46899" lon="-1.15143">
        <ele>63</ele>
        <time>2025-04-26T11:43:21Z</time>
      </trkpt>
      <trkpt lat="45.46902" lon="-1.15139">
        <ele>63</ele>
        <time>2025-04-26T11:43:22Z</time>
      </trkpt>
      <trkpt lat="45.46906" lon="-1.15136">
        <ele>63</ele>
        <time>2025-04-26T11:43:23Z</time>
      </trkpt>
      <trkpt lat="45.46909" lon="-1.15132">
        <ele>64</ele>
        <time>2025-04-26T11:43:24Z</time>
      </trkpt>
      <trkpt lat="45.46912" lon="-1.15129">
        <ele>63</ele>
        <time>2025-04-26T11:43:25Z</time>
      </trkpt>
      <trkpt lat="45.46916" lon="-1.15125">
        <ele>63</ele>
        <time>2025-04-26T11:43:26Z</time>
      </trkpt>
      <trkpt lat="45.46919" lon="-1.15122">
        <ele>63</ele>
        <time>2025-04-26T11:43:27Z</time>
      </trkpt>
      <trkpt lat="45.46923" lon="-1.15118">
        <ele>63</ele>
        <time>2025-04-26T11:43:28Z</time>
      </trkpt>
      <trkpt lat="45.46926" lon="-1.15115">
        <ele>63</ele>
        <time>2025-04-26T11:43:29Z</time>
      </trkpt>
      <trkpt lat="45.46929" lon="-1.1511">
        <ele>63</ele>
        <time>2025-04-26T11:43:30Z</time>
      </trkpt>
      <trkpt lat="45.46932" lon="-1.15106">
        <ele>64</ele>
        <time>2025-04-26T11:43:31Z</time>
      </trkpt>
      <trkpt lat="45.46936" lon="-1.15102">
        <ele>64</ele>
        <time>2025-04-26T11:43:32Z</time>
      </trkpt>
      <trkpt lat="45.4694" lon="-1.15099">
        <ele>64</ele>
        <time>2025-04-26T11:43:33Z</time>
      </trkpt>
      <trkpt lat="45.46944" lon="-1.15095">
        <ele>65</ele>
        <time>2025-04-26T11:43:34Z</time>
      </trkpt>
      <trkpt lat="45.46947" lon="-1.15093">
        <ele>64</ele>
        <time>2025-04-26T11:43:35Z</time>
      </trkpt>
      <trkpt lat="45.46951" lon="-1.15089">
        <ele>65</ele>
        <time>2025-04-26T11:43:36Z</time>
      </trkpt>
      <trkpt lat="45.46955" lon="-1.15085">
        <ele>65</ele>
        <time>2025-04-26T11:43:37Z</time>
      </trkpt>
      <trkpt lat="45.46959" lon="-1.15082">
        <ele>64</ele>
        <time>2025-04-26T11:43:38Z</time>
      </trkpt>
      <trkpt lat="45.46963" lon="-1.1508">
        <ele>64</ele>
        <time>2025-04-26T11:43:39Z</time>
      </trkpt>
      <trkpt lat="45.46967" lon="-1.15078">
        <ele>64</ele>
        <time>2025-04-26T11:43:40Z</time>
      </trkpt>
      <trkpt lat="45.46971" lon="-1.15076">
        <ele>63</ele>
        <time>2025-04-26T11:43:41Z</time>
      </trkpt>
      <trkpt lat="45.46975" lon="-1.15075">
        <ele>63</ele>
        <time>2025-04-26T11:43:42Z</time>
      </trkpt>
      <trkpt lat="45.46979" lon="-1.15072">
        <ele>63</ele>
        <time>2025-04-26T11:43:43Z</time>
      </trkpt>
      <trkpt lat="45.46984" lon="-1.15069">
        <ele>62</ele>
        <time>2025-04-26T11:43:44Z</time>
      </trkpt>
      <trkpt lat="45.46989" lon="-1.15068">
        <ele>62</ele>
        <time>2025-04-26T11:43:45Z</time>
      </trkpt>
      <trkpt lat="45.46993" lon="-1.15065">
        <ele>62</ele>
        <time>2025-04-26T11:43:46Z</time>
      </trkpt>
      <trkpt lat="45.46998" lon="-1.15062">
        <ele>63</ele>
        <time>2025-04-26T11:43:47Z</time>
      </trkpt>
      <trkpt lat="45.47002" lon="-1.1506">
        <ele>62</ele>
        <time>2025-04-26T11:43:48Z</time>
      </trkpt>
      <trkpt lat="45.47006" lon="-1.15058">
        <ele>62</ele>
        <time>2025-04-26T11:43:49Z</time>
      </trkpt>
      <trkpt lat="45.47011" lon="-1.15056">
        <ele>62</ele>
        <time>2025-04-26T11:43:50Z</time>
      </trkpt>
      <trkpt lat="45.47015" lon="-1.15053">
        <ele>62</ele>
        <time>2025-04-26T11:43:51Z</time>
      </trkpt>
      <trkpt lat="45.4702" lon="-1.15051">
        <ele>63</ele>
        <time>2025-04-26T11:43:52Z</time>
      </trkpt>
      <trkpt lat="45.47024" lon="-1.15048">
        <ele>64</ele>
        <time>2025-04-26T11:43:53Z</time>
      </trkpt>
      <trkpt lat="45.47028" lon="-1.15046">
        <ele>64</ele>
        <time>2025-04-26T11:43:54Z</time>
      </trkpt>
      <trkpt lat="45.47032" lon="-1.15044">
        <ele>63</ele>
        <time>2025-04-26T11:43:55Z</time>
      </trkpt>
      <trkpt lat="45.47036" lon="-1.15042">
        <ele>64</ele>
        <time>2025-04-26T11:43:56Z</time>
      </trkpt>
      <trkpt lat="45.47041" lon="-1.15039">
        <ele>64</ele>
        <time>2025-04-26T11:43:57Z</time>
      </trkpt>
      <trkpt lat="45.47045" lon="-1.15037">
        <ele>64</ele>
        <time>2025-04-26T11:43:58Z</time>
      </trkpt>
      <trkpt lat="45.47049" lon="-1.15035">
        <ele>64</ele>
        <time>2025-04-26T11:43:59Z</time>
      </trkpt>
      <trkpt lat="45.47053" lon="-1.15033">
        <ele>64</ele>
        <time>2025-04-26T11:44:00Z</time>
      </trkpt>
      <trkpt lat="45.47058" lon="-1.15031">
        <ele>65</ele>
        <time>2025-04-26T11:44:01Z</time>
      </trkpt>
      <trkpt lat="45.47062" lon="-1.15029">
        <ele>65</ele>
        <time>2025-04-26T11:44:02Z</time>
      </trkpt>
      <trkpt lat="45.47066" lon="-1.15027">
        <ele>65</ele>
        <time>2025-04-26T11:44:03Z</time>
      </trkpt>
      <trkpt lat="45.4707" lon="-1.15025">
        <ele>65</ele>
        <time>2025-04-26T11:44:04Z</time>
      </trkpt>
      <trkpt lat="45.47073" lon="-1.15023">
        <ele>65</ele>
        <time>2025-04-26T11:44:05Z</time>
      </trkpt>
      <trkpt lat="45.47077" lon="-1.15021">
        <ele>65</ele>
        <time>2025-04-26T11:44:06Z</time>
      </trkpt>
      <trkpt lat="45.4708" lon="-1.1502">
        <ele>64</ele>
        <time>2025-04-26T11:44:07Z</time>
      </trkpt>
      <trkpt lat="45.47084" lon="-1.15018">
        <ele>65</ele>
        <time>2025-04-26T11:44:08Z</time>
      </trkpt>
      <trkpt lat="45.47089" lon="-1.15016">
        <ele>65</ele>
        <time>2025-04-26T11:44:09Z</time>
      </trkpt>
      <trkpt lat="45.47092" lon="-1.15015">
        <ele>65</ele>
        <time>2025-04-26T11:44:10Z</time>
      </trkpt>
      <trkpt lat="45.47096" lon="-1.15013">
        <ele>65</ele>
        <time>2025-04-26T11:44:11Z</time>
      </trkpt>
      <trkpt lat="45.471" lon="-1.1501">
        <ele>64</ele>
        <time>2025-04-26T11:44:12Z</time>
      </trkpt>
      <trkpt lat="45.47104" lon="-1.15008">
        <ele>64</ele>
        <time>2025-04-26T11:44:13Z</time>
      </trkpt>
      <trkpt lat="45.47108" lon="-1.15006">
        <ele>64</ele>
        <time>2025-04-26T11:44:14Z</time>
      </trkpt>
      <trkpt lat="45.47112" lon="-1.15004">
        <ele>64</ele>
        <time>2025-04-26T11:44:15Z</time>
      </trkpt>
      <trkpt lat="45.47117" lon="-1.15003">
        <ele>64</ele>
        <time>2025-04-26T11:44:16Z</time>
      </trkpt>
      <trkpt lat="45.47121" lon="-1.15001">
        <ele>64</ele>
        <time>2025-04-26T11:44:17Z</time>
      </trkpt>
      <trkpt lat="45.47125" lon="-1.14998">
        <ele>65</ele>
        <time>2025-04-26T11:44:18Z</time>
      </trkpt>
      <trkpt lat="45.47129" lon="-1.14995">
        <ele>65</ele>
        <time>2025-04-26T11:44:19Z</time>
      </trkpt>
      <trkpt lat="45.47133" lon="-1.14992">
        <ele>65</ele>
        <time>2025-04-26T11:44:20Z</time>
      </trkpt>
      <trkpt lat="45.47138" lon="-1.14989">
        <ele>65</ele>
        <time>2025-04-26T11:44:21Z</time>
      </trkpt>
      <trkpt lat="45.47142" lon="-1.14987">
        <ele>66</ele>
        <time>2025-04-26T11:44:22Z</time>
      </trkpt>
      <trkpt lat="45.47147" lon="-1.14985">
        <ele>66</ele>
        <time>2025-04-26T11:44:23Z</time>
      </trkpt>
      <trkpt lat="45.47151" lon="-1.14984">
        <ele>65</ele>
        <time>2025-04-26T11:44:24Z</time>
      </trkpt>
      <trkpt lat="45.47155" lon="-1.14982">
        <ele>65</ele>
        <time>2025-04-26T11:44:25Z</time>
      </trkpt>
      <trkpt lat="45.47159" lon="-1.14979">
        <ele>65</ele>
        <time>2025-04-26T11:44:26Z</time>
      </trkpt>
      <trkpt lat="45.47164" lon="-1.14977">
        <ele>64</ele>
        <time>2025-04-26T11:44:27Z</time>
      </trkpt>
      <trkpt lat="45.47168" lon="-1.14975">
        <ele>64</ele>
        <time>2025-04-26T11:44:28Z</time>
      </trkpt>
      <trkpt lat="45.47172" lon="-1.14973">
        <ele>64</ele>
        <time>2025-04-26T11:44:29Z</time>
      </trkpt>
      <trkpt lat="45.47176" lon="-1.14971">
        <ele>63</ele>
        <time>2025-04-26T11:44:30Z</time>
      </trkpt>
      <trkpt lat="45.4718" lon="-1.1497">
        <ele>63</ele>
        <time>2025-04-26T11:44:31Z</time>
      </trkpt>
      <trkpt lat="45.47184" lon="-1.14969">
        <ele>62</ele>
        <time>2025-04-26T11:44:32Z</time>
      </trkpt>
      <trkpt lat="45.47188" lon="-1.14966">
        <ele>62</ele>
        <time>2025-04-26T11:44:33Z</time>
      </trkpt>
      <trkpt lat="45.47192" lon="-1.14963">
        <ele>62</ele>
        <time>2025-04-26T11:44:34Z</time>
      </trkpt>
      <trkpt lat="45.47197" lon="-1.14961">
        <ele>63</ele>
        <time>2025-04-26T11:44:35Z</time>
      </trkpt>
      <trkpt lat="45.47201" lon="-1.14958">
        <ele>63</ele>
        <time>2025-04-26T11:44:36Z</time>
      </trkpt>
      <trkpt lat="45.47205" lon="-1.14955">
        <ele>63</ele>
        <time>2025-04-26T11:44:37Z</time>
      </trkpt>
      <trkpt lat="45.47209" lon="-1.14953">
        <ele>63</ele>
        <time>2025-04-26T11:44:38Z</time>
      </trkpt>
      <trkpt lat="45.47213" lon="-1.14952">
        <ele>62</ele>
        <time>2025-04-26T11:44:39Z</time>
      </trkpt>
      <trkpt lat="45.47217" lon="-1.1495">
        <ele>61</ele>
        <time>2025-04-26T11:44:40Z</time>
      </trkpt>
      <trkpt lat="45.47221" lon="-1.14948">
        <ele>62</ele>
        <time>2025-04-26T11:44:41Z</time>
      </trkpt>
      <trkpt lat="45.47225" lon="-1.14947">
        <ele>61</ele>
        <time>2025-04-26T11:44:42Z</time>
      </trkpt>
      <trkpt lat="45.47229" lon="-1.14944">
        <ele>62</ele>
        <time>2025-04-26T11:44:43Z</time>
      </trkpt>
      <trkpt lat="45.47232" lon="-1.14943">
        <ele>62</ele>
        <time>2025-04-26T11:44:44Z</time>
      </trkpt>
      <trkpt lat="45.47237" lon="-1.1494">
        <ele>63</ele>
        <time>2025-04-26T11:44:45Z</time>
      </trkpt>
      <trkpt lat="45.47241" lon="-1.14938">
        <ele>63</ele>
        <time>2025-04-26T11:44:46Z</time>
      </trkpt>
      <trkpt lat="45.47246" lon="-1.14936">
        <ele>63</ele>
        <time>2025-04-26T11:44:47Z</time>
      </trkpt>
      <trkpt lat="45.4725" lon="-1.14935">
        <ele>63</ele>
        <time>2025-04-26T11:44:48Z</time>
      </trkpt>
      <trkpt lat="45.47254" lon="-1.14932">
        <ele>63</ele>
        <time>2025-04-26T11:44:49Z</time>
      </trkpt>
      <trkpt lat="45.47258" lon="-1.14931">
        <ele>63</ele>
        <time>2025-04-26T11:44:50Z</time>
      </trkpt>
      <trkpt lat="45.47262" lon="-1.14929">
        <ele>63</ele>
        <time>2025-04-26T11:44:51Z</time>
      </trkpt>
      <trkpt lat="45.47266" lon="-1.14925">
        <ele>63</ele>
        <time>2025-04-26T11:44:52Z</time>
      </trkpt>
      <trkpt lat="45.4727" lon="-1.14923">
        <ele>63</ele>
        <time>2025-04-26T11:44:53Z</time>
      </trkpt>
      <trkpt lat="45.47274" lon="-1.1492">
        <ele>63</ele>
        <time>2025-04-26T11:44:54Z</time>
      </trkpt>
      <trkpt lat="45.47278" lon="-1.14918">
        <ele>63</ele>
        <time>2025-04-26T11:44:55Z</time>
      </trkpt>
      <trkpt lat="45.47282" lon="-1.14917">
        <ele>62</ele>
        <time>2025-04-26T11:44:56Z</time>
      </trkpt>
      <trkpt lat="45.47286" lon="-1.14915">
        <ele>61</ele>
        <time>2025-04-26T11:44:57Z</time>
      </trkpt>
      <trkpt lat="45.4729" lon="-1.14913">
        <ele>61</ele>
        <time>2025-04-26T11:44:58Z</time>
      </trkpt>
      <trkpt lat="45.47294" lon="-1.14911">
        <ele>61</ele>
        <time>2025-04-26T11:44:59Z</time>
      </trkpt>
      <trkpt lat="45.47298" lon="-1.14909">
        <ele>61</ele>
        <time>2025-04-26T11:45:00Z</time>
      </trkpt>
      <trkpt lat="45.47303" lon="-1.14905">
        <ele>62</ele>
        <time>2025-04-26T11:45:01Z</time>
      </trkpt>
      <trkpt lat="45.47307" lon="-1.14904">
        <ele>62</ele>
        <time>2025-04-26T11:45:02Z</time>
      </trkpt>
      <trkpt lat="45.47311" lon="-1.14902">
        <ele>61</ele>
        <time>2025-04-26T11:45:03Z</time>
      </trkpt>
      <trkpt lat="45.47315" lon="-1.14899">
        <ele>61</ele>
        <time>2025-04-26T11:45:04Z</time>
      </trkpt>
      <trkpt lat="45.47319" lon="-1.14896">
        <ele>62</ele>
        <time>2025-04-26T11:45:05Z</time>
      </trkpt>
      <trkpt lat="45.47323" lon="-1.14895">
        <ele>63</ele>
        <time>2025-04-26T11:45:06Z</time>
      </trkpt>
      <trkpt lat="45.47328" lon="-1.14892">
        <ele>63</ele>
        <time>2025-04-26T11:45:07Z</time>
      </trkpt>
      <trkpt lat="45.47332" lon="-1.1489">
        <ele>63</ele>
        <time>2025-04-26T11:45:08Z</time>
      </trkpt>
      <trkpt lat="45.47336" lon="-1.14888">
        <ele>63</ele>
        <time>2025-04-26T11:45:09Z</time>
      </trkpt>
      <trkpt lat="45.4734" lon="-1.14887">
        <ele>63</ele>
        <time>2025-04-26T11:45:10Z</time>
      </trkpt>
      <trkpt lat="45.47344" lon="-1.14884">
        <ele>64</ele>
        <time>2025-04-26T11:45:11Z</time>
      </trkpt>
      <trkpt lat="45.47349" lon="-1.14881">
        <ele>65</ele>
        <time>2025-04-26T11:45:12Z</time>
      </trkpt>
      <trkpt lat="45.47353" lon="-1.1488">
        <ele>65</ele>
        <time>2025-04-26T11:45:13Z</time>
      </trkpt>
      <trkpt lat="45.47357" lon="-1.14878">
        <ele>65</ele>
        <time>2025-04-26T11:45:14Z</time>
      </trkpt>
      <trkpt lat="45.47361" lon="-1.14877">
        <ele>65</ele>
        <time>2025-04-26T11:45:15Z</time>
      </trkpt>
      <trkpt lat="45.47365" lon="-1.14875">
        <ele>65</ele>
        <time>2025-04-26T11:45:16Z</time>
      </trkpt>
      <trkpt lat="45.47369" lon="-1.14873">
        <ele>65</ele>
        <time>2025-04-26T11:45:17Z</time>
      </trkpt>
      <trkpt lat="45.47372" lon="-1.1487">
        <ele>66</ele>
        <time>2025-04-26T11:45:18Z</time>
      </trkpt>
      <trkpt lat="45.47376" lon="-1.14869">
        <ele>65</ele>
        <time>2025-04-26T11:45:19Z</time>
      </trkpt>
      <trkpt lat="45.4738" lon="-1.14867">
        <ele>64</ele>
        <time>2025-04-26T11:45:20Z</time>
      </trkpt>
      <trkpt lat="45.47383" lon="-1.14865">
        <ele>64</ele>
        <time>2025-04-26T11:45:21Z</time>
      </trkpt>
      <trkpt lat="45.47387" lon="-1.14863">
        <ele>64</ele>
        <time>2025-04-26T11:45:22Z</time>
      </trkpt>
      <trkpt lat="45.47391" lon="-1.14861">
        <ele>63</ele>
        <time>2025-04-26T11:45:23Z</time>
      </trkpt>
      <trkpt lat="45.47394" lon="-1.14859">
        <ele>63</ele>
        <time>2025-04-26T11:45:24Z</time>
      </trkpt>
      <trkpt lat="45.47398" lon="-1.14858">
        <ele>62</ele>
        <time>2025-04-26T11:45:25Z</time>
      </trkpt>
      <trkpt lat="45.47401" lon="-1.14857">
        <ele>62</ele>
        <time>2025-04-26T11:45:26Z</time>
      </trkpt>
      <trkpt lat="45.47405" lon="-1.14855">
        <ele>61</ele>
        <time>2025-04-26T11:45:27Z</time>
      </trkpt>
      <trkpt lat="45.47408" lon="-1.14852">
        <ele>62</ele>
        <time>2025-04-26T11:45:28Z</time>
      </trkpt>
      <trkpt lat="45.47411" lon="-1.1485">
        <ele>62</ele>
        <time>2025-04-26T11:45:29Z</time>
      </trkpt>
      <trkpt lat="45.47415" lon="-1.14848">
        <ele>63</ele>
        <time>2025-04-26T11:45:30Z</time>
      </trkpt>
      <trkpt lat="45.47418" lon="-1.14846">
        <ele>62</ele>
        <time>2025-04-26T11:45:31Z</time>
      </trkpt>
      <trkpt lat="45.47422" lon="-1.14845">
        <ele>62</ele>
        <time>2025-04-26T11:45:32Z</time>
      </trkpt>
      <trkpt lat="45.47426" lon="-1.14842">
        <ele>62</ele>
        <time>2025-04-26T11:45:33Z</time>
      </trkpt>
      <trkpt lat="45.4743" lon="-1.14839">
        <ele>62</ele>
        <time>2025-04-26T11:45:34Z</time>
      </trkpt>
      <trkpt lat="45.47435" lon="-1.14837">
        <ele>63</ele>
        <time>2025-04-26T11:45:35Z</time>
      </trkpt>
      <trkpt lat="45.47439" lon="-1.14835">
        <ele>63</ele>
        <time>2025-04-26T11:45:36Z</time>
      </trkpt>
      <trkpt lat="45.47443" lon="-1.14832">
        <ele>63</ele>
        <time>2025-04-26T11:45:37Z</time>
      </trkpt>
      <trkpt lat="45.47447" lon="-1.14831">
        <ele>62</ele>
        <time>2025-04-26T11:45:38Z</time>
      </trkpt>
      <trkpt lat="45.47451" lon="-1.14828">
        <ele>62</ele>
        <time>2025-04-26T11:45:39Z</time>
      </trkpt>
      <trkpt lat="45.47455" lon="-1.14827">
        <ele>62</ele>
        <time>2025-04-26T11:45:40Z</time>
      </trkpt>
      <trkpt lat="45.4746" lon="-1.14824">
        <ele>62</ele>
        <time>2025-04-26T11:45:41Z</time>
      </trkpt>
      <trkpt lat="45.47464" lon="-1.14822">
        <ele>62</ele>
        <time>2025-04-26T11:45:42Z</time>
      </trkpt>
      <trkpt lat="45.47468" lon="-1.14819">
        <ele>62</ele>
        <time>2025-04-26T11:45:43Z</time>
      </trkpt>
      <trkpt lat="45.47472" lon="-1.14818">
        <ele>62</ele>
        <time>2025-04-26T11:45:44Z</time>
      </trkpt>
      <trkpt lat="45.47476" lon="-1.14816">
        <ele>62</ele>
        <time>2025-04-26T11:45:45Z</time>
      </trkpt>
      <trkpt lat="45.4748" lon="-1.14814">
        <ele>63</ele>
        <time>2025-04-26T11:45:46Z</time>
      </trkpt>
      <trkpt lat="45.47485" lon="-1.14812">
        <ele>63</ele>
        <time>2025-04-26T11:45:47Z</time>
      </trkpt>
      <trkpt lat="45.47489" lon="-1.14809">
        <ele>63</ele>
        <time>2025-04-26T11:45:48Z</time>
      </trkpt>
      <trkpt lat="45.47493" lon="-1.14807">
        <ele>63</ele>
        <time>2025-04-26T11:45:49Z</time>
      </trkpt>
      <trkpt lat="45.47497" lon="-1.14806">
        <ele>63</ele>
        <time>2025-04-26T11:45:50Z</time>
      </trkpt>
      <trkpt lat="45.47501" lon="-1.14804">
        <ele>63</ele>
        <time>2025-04-26T11:45:51Z</time>
      </trkpt>
      <trkpt lat="45.47504" lon="-1.14802">
        <ele>63</ele>
        <time>2025-04-26T11:45:52Z</time>
      </trkpt>
      <trkpt lat="45.47508" lon="-1.14801">
        <ele>62</ele>
        <time>2025-04-26T11:45:53Z</time>
      </trkpt>
      <trkpt lat="45.47512" lon="-1.14798">
        <ele>62</ele>
        <time>2025-04-26T11:45:54Z</time>
      </trkpt>
      <trkpt lat="45.47516" lon="-1.14796">
        <ele>62</ele>
        <time>2025-04-26T11:45:55Z</time>
      </trkpt>
      <trkpt lat="45.4752" lon="-1.14794">
        <ele>62</ele>
        <time>2025-04-26T11:45:56Z</time>
      </trkpt>
      <trkpt lat="45.47524" lon="-1.14793">
        <ele>61</ele>
        <time>2025-04-26T11:45:57Z</time>
      </trkpt>
      <trkpt lat="45.47528" lon="-1.14791">
        <ele>61</ele>
        <time>2025-04-26T11:45:58Z</time>
      </trkpt>
      <trkpt lat="45.47532" lon="-1.14789">
        <ele>61</ele>
        <time>2025-04-26T11:45:59Z</time>
      </trkpt>
      <trkpt lat="45.47536" lon="-1.14787">
        <ele>61</ele>
        <time>2025-04-26T11:46:00Z</time>
      </trkpt>
      <trkpt lat="45.47541" lon="-1.14784">
        <ele>62</ele>
        <time>2025-04-26T11:46:01Z</time>
      </trkpt>
      <trkpt lat="45.47546" lon="-1.14781">
        <ele>63</ele>
        <time>2025-04-26T11:46:02Z</time>
      </trkpt>
      <trkpt lat="45.4755" lon="-1.14779">
        <ele>63</ele>
        <time>2025-04-26T11:46:03Z</time>
      </trkpt>
      <trkpt lat="45.47554" lon="-1.14777">
        <ele>64</ele>
        <time>2025-04-26T11:46:04Z</time>
      </trkpt>
      <trkpt lat="45.47558" lon="-1.14775">
        <ele>64</ele>
        <time>2025-04-26T11:46:05Z</time>
      </trkpt>
      <trkpt lat="45.47562" lon="-1.14773">
        <ele>64</ele>
        <time>2025-04-26T11:46:06Z</time>
      </trkpt>
      <trkpt lat="45.47566" lon="-1.14771">
        <ele>63</ele>
        <time>2025-04-26T11:46:07Z</time>
      </trkpt>
      <trkpt lat="45.4757" lon="-1.14769">
        <ele>63</ele>
        <time>2025-04-26T11:46:08Z</time>
      </trkpt>
      <trkpt lat="45.47574" lon="-1.14767">
        <ele>63</ele>
        <time>2025-04-26T11:46:09Z</time>
      </trkpt>
      <trkpt lat="45.47578" lon="-1.14764">
        <ele>63</ele>
        <time>2025-04-26T11:46:10Z</time>
      </trkpt>
      <trkpt lat="45.47583" lon="-1.14762">
        <ele>63</ele>
        <time>2025-04-26T11:46:11Z</time>
      </trkpt>
      <trkpt lat="45.47587" lon="-1.1476">
        <ele>63</ele>
        <time>2025-04-26T11:46:12Z</time>
      </trkpt>
      <trkpt lat="45.47591" lon="-1.14758">
        <ele>62</ele>
        <time>2025-04-26T11:46:13Z</time>
      </trkpt>
      <trkpt lat="45.47595" lon="-1.14757">
        <ele>62</ele>
        <time>2025-04-26T11:46:14Z</time>
      </trkpt>
      <trkpt lat="45.476" lon="-1.14755">
        <ele>62</ele>
        <time>2025-04-26T11:46:15Z</time>
      </trkpt>
      <trkpt lat="45.47604" lon="-1.14753">
        <ele>62</ele>
        <time>2025-04-26T11:46:16Z</time>
      </trkpt>
      <trkpt lat="45.47609" lon="-1.1475">
        <ele>62</ele>
        <time>2025-04-26T11:46:17Z</time>
      </trkpt>
      <trkpt lat="45.47613" lon="-1.14747">
        <ele>63</ele>
        <time>2025-04-26T11:46:18Z</time>
      </trkpt>
      <trkpt lat="45.47618" lon="-1.14745">
        <ele>63</ele>
        <time>2025-04-26T11:46:19Z</time>
      </trkpt>
      <trkpt lat="45.47622" lon="-1.14743">
        <ele>64</ele>
        <time>2025-04-26T11:46:20Z</time>
      </trkpt>
      <trkpt lat="45.47626" lon="-1.1474">
        <ele>63</ele>
        <time>2025-04-26T11:46:21Z</time>
      </trkpt>
      <trkpt lat="45.4763" lon="-1.14737">
        <ele>63</ele>
        <time>2025-04-26T11:46:22Z</time>
      </trkpt>
      <trkpt lat="45.47634" lon="-1.14735">
        <ele>63</ele>
        <time>2025-04-26T11:46:23Z</time>
      </trkpt>
      <trkpt lat="45.47638" lon="-1.14733">
        <ele>63</ele>
        <time>2025-04-26T11:46:24Z</time>
      </trkpt>
      <trkpt lat="45.47642" lon="-1.1473">
        <ele>63</ele>
        <time>2025-04-26T11:46:25Z</time>
      </trkpt>
      <trkpt lat="45.47646" lon="-1.14728">
        <ele>63</ele>
        <time>2025-04-26T11:46:26Z</time>
      </trkpt>
      <trkpt lat="45.4765" lon="-1.14726">
        <ele>64</ele>
        <time>2025-04-26T11:46:27Z</time>
      </trkpt>
      <trkpt lat="45.47654" lon="-1.14724">
        <ele>64</ele>
        <time>2025-04-26T11:46:28Z</time>
      </trkpt>
      <trkpt lat="45.47657" lon="-1.14722">
        <ele>64</ele>
        <time>2025-04-26T11:46:29Z</time>
      </trkpt>
      <trkpt lat="45.47661" lon="-1.1472">
        <ele>65</ele>
        <time>2025-04-26T11:46:30Z</time>
      </trkpt>
      <trkpt lat="45.47665" lon="-1.14718">
        <ele>65</ele>
        <time>2025-04-26T11:46:31Z</time>
      </trkpt>
      <trkpt lat="45.47669" lon="-1.14716">
        <ele>65</ele>
        <time>2025-04-26T11:46:32Z</time>
      </trkpt>
      <trkpt lat="45.47673" lon="-1.14715">
        <ele>65</ele>
        <time>2025-04-26T11:46:33Z</time>
      </trkpt>
      <trkpt lat="45.47677" lon="-1.14713">
        <ele>65</ele>
        <time>2025-04-26T11:46:34Z</time>
      </trkpt>
      <trkpt lat="45.47682" lon="-1.1471">
        <ele>65</ele>
        <time>2025-04-26T11:46:35Z</time>
      </trkpt>
      <trkpt lat="45.47686" lon="-1.1471">
        <ele>65</ele>
        <time>2025-04-26T11:46:36Z</time>
      </trkpt>
      <trkpt lat="45.4769" lon="-1.14707">
        <ele>66</ele>
        <time>2025-04-26T11:46:37Z</time>
      </trkpt>
      <trkpt lat="45.47695" lon="-1.14705">
        <ele>66</ele>
        <time>2025-04-26T11:46:38Z</time>
      </trkpt>
      <trkpt lat="45.47699" lon="-1.14703">
        <ele>66</ele>
        <time>2025-04-26T11:46:39Z</time>
      </trkpt>
      <trkpt lat="45.47703" lon="-1.14701">
        <ele>66</ele>
        <time>2025-04-26T11:46:40Z</time>
      </trkpt>
      <trkpt lat="45.47707" lon="-1.147">
        <ele>66</ele>
        <time>2025-04-26T11:46:41Z</time>
      </trkpt>
      <trkpt lat="45.4771" lon="-1.14698">
        <ele>65</ele>
        <time>2025-04-26T11:46:42Z</time>
      </trkpt>
      <trkpt lat="45.47714" lon="-1.14697">
        <ele>65</ele>
        <time>2025-04-26T11:46:43Z</time>
      </trkpt>
      <trkpt lat="45.47719" lon="-1.14695">
        <ele>65</ele>
        <time>2025-04-26T11:46:44Z</time>
      </trkpt>
      <trkpt lat="45.47723" lon="-1.14692">
        <ele>65</ele>
        <time>2025-04-26T11:46:45Z</time>
      </trkpt>
      <trkpt lat="45.47727" lon="-1.14689">
        <ele>65</ele>
        <time>2025-04-26T11:46:46Z</time>
      </trkpt>
      <trkpt lat="45.47732" lon="-1.14688">
        <ele>64</ele>
        <time>2025-04-26T11:46:47Z</time>
      </trkpt>
      <trkpt lat="45.47736" lon="-1.14686">
        <ele>64</ele>
        <time>2025-04-26T11:46:48Z</time>
      </trkpt>
      <trkpt lat="45.4774" lon="-1.14683">
        <ele>64</ele>
        <time>2025-04-26T11:46:49Z</time>
      </trkpt>
      <trkpt lat="45.47744" lon="-1.14681">
        <ele>64</ele>
        <time>2025-04-26T11:46:50Z</time>
      </trkpt>
      <trkpt lat="45.47748" lon="-1.14678">
        <ele>64</ele>
        <time>2025-04-26T11:46:51Z</time>
      </trkpt>
      <trkpt lat="45.47752" lon="-1.14677">
        <ele>63</ele>
        <time>2025-04-26T11:46:52Z</time>
      </trkpt>
      <trkpt lat="45.47756" lon="-1.14675">
        <ele>63</ele>
        <time>2025-04-26T11:46:53Z</time>
      </trkpt>
      <trkpt lat="45.4776" lon="-1.14673">
        <ele>63</ele>
        <time>2025-04-26T11:46:54Z</time>
      </trkpt>
      <trkpt lat="45.47764" lon="-1.1467">
        <ele>63</ele>
        <time>2025-04-26T11:46:55Z</time>
      </trkpt>
      <trkpt lat="45.47768" lon="-1.14668">
        <ele>63</ele>
        <time>2025-04-26T11:46:56Z</time>
      </trkpt>
      <trkpt lat="45.47771" lon="-1.14665">
        <ele>62</ele>
        <time>2025-04-26T11:46:57Z</time>
      </trkpt>
      <trkpt lat="45.47775" lon="-1.14663">
        <ele>62</ele>
        <time>2025-04-26T11:46:58Z</time>
      </trkpt>
      <trkpt lat="45.47779" lon="-1.14661">
        <ele>63</ele>
        <time>2025-04-26T11:46:59Z</time>
      </trkpt>
      <trkpt lat="45.47783" lon="-1.1466">
        <ele>62</ele>
        <time>2025-04-26T11:47:00Z</time>
      </trkpt>
      <trkpt lat="45.47786" lon="-1.14659">
        <ele>61</ele>
        <time>2025-04-26T11:47:01Z</time>
      </trkpt>
      <trkpt lat="45.4779" lon="-1.14657">
        <ele>61</ele>
        <time>2025-04-26T11:47:02Z</time>
      </trkpt>
      <trkpt lat="45.47793" lon="-1.14654">
        <ele>61</ele>
        <time>2025-04-26T11:47:03Z</time>
      </trkpt>
      <trkpt lat="45.47798" lon="-1.14652">
        <ele>61</ele>
        <time>2025-04-26T11:47:04Z</time>
      </trkpt>
      <trkpt lat="45.47802" lon="-1.14649">
        <ele>61</ele>
        <time>2025-04-26T11:47:05Z</time>
      </trkpt>
      <trkpt lat="45.47806" lon="-1.14646">
        <ele>62</ele>
        <time>2025-04-26T11:47:06Z</time>
      </trkpt>
      <trkpt lat="45.4781" lon="-1.14644">
        <ele>62</ele>
        <time>2025-04-26T11:47:07Z</time>
      </trkpt>
      <trkpt lat="45.47814" lon="-1.14642">
        <ele>62</ele>
        <time>2025-04-26T11:47:08Z</time>
      </trkpt>
      <trkpt lat="45.47819" lon="-1.1464">
        <ele>62</ele>
        <time>2025-04-26T11:47:09Z</time>
      </trkpt>
      <trkpt lat="45.47823" lon="-1.14638">
        <ele>62</ele>
        <time>2025-04-26T11:47:10Z</time>
      </trkpt>
      <trkpt lat="45.47827" lon="-1.14636">
        <ele>62</ele>
        <time>2025-04-26T11:47:11Z</time>
      </trkpt>
      <trkpt lat="45.47831" lon="-1.14634">
        <ele>62</ele>
        <time>2025-04-26T11:47:12Z</time>
      </trkpt>
      <trkpt lat="45.47835" lon="-1.14633">
        <ele>61</ele>
        <time>2025-04-26T11:47:13Z</time>
      </trkpt>
      <trkpt lat="45.47839" lon="-1.1463">
        <ele>61</ele>
        <time>2025-04-26T11:47:14Z</time>
      </trkpt>
      <trkpt lat="45.47843" lon="-1.14628">
        <ele>62</ele>
        <time>2025-04-26T11:47:15Z</time>
      </trkpt>
      <trkpt lat="45.47847" lon="-1.14625">
        <ele>62</ele>
        <time>2025-04-26T11:47:16Z</time>
      </trkpt>
      <trkpt lat="45.47851" lon="-1.14623">
        <ele>62</ele>
        <time>2025-04-26T11:47:17Z</time>
      </trkpt>
      <trkpt lat="45.47855" lon="-1.14622">
        <ele>62</ele>
        <time>2025-04-26T11:47:18Z</time>
      </trkpt>
      <trkpt lat="45.47859" lon="-1.1462">
        <ele>62</ele>
        <time>2025-04-26T11:47:19Z</time>
      </trkpt>
      <trkpt lat="45.47863" lon="-1.14618">
        <ele>62</ele>
        <time>2025-04-26T11:47:20Z</time>
      </trkpt>
      <trkpt lat="45.47867" lon="-1.14616">
        <ele>63</ele>
        <time>2025-04-26T11:47:21Z</time>
      </trkpt>
      <trkpt lat="45.47871" lon="-1.14614">
        <ele>63</ele>
        <time>2025-04-26T11:47:22Z</time>
      </trkpt>
      <trkpt lat="45.47874" lon="-1.14612">
        <ele>64</ele>
        <time>2025-04-26T11:47:23Z</time>
      </trkpt>
      <trkpt lat="45.47878" lon="-1.1461">
        <ele>64</ele>
        <time>2025-04-26T11:47:24Z</time>
      </trkpt>
      <trkpt lat="45.47882" lon="-1.14609">
        <ele>64</ele>
        <time>2025-04-26T11:47:25Z</time>
      </trkpt>
      <trkpt lat="45.47886" lon="-1.14606">
        <ele>65</ele>
        <time>2025-04-26T11:47:26Z</time>
      </trkpt>
      <trkpt lat="45.4789" lon="-1.14604">
        <ele>66</ele>
        <time>2025-04-26T11:47:27Z</time>
      </trkpt>
      <trkpt lat="45.47894" lon="-1.14601">
        <ele>65</ele>
        <time>2025-04-26T11:47:28Z</time>
      </trkpt>
      <trkpt lat="45.47898" lon="-1.14599">
        <ele>65</ele>
        <time>2025-04-26T11:47:29Z</time>
      </trkpt>
      <trkpt lat="45.47901" lon="-1.14597">
        <ele>65</ele>
        <time>2025-04-26T11:47:30Z</time>
      </trkpt>
      <trkpt lat="45.47906" lon="-1.14596">
        <ele>65</ele>
        <time>2025-04-26T11:47:31Z</time>
      </trkpt>
      <trkpt lat="45.4791" lon="-1.14594">
        <ele>65</ele>
        <time>2025-04-26T11:47:32Z</time>
      </trkpt>
      <trkpt lat="45.47913" lon="-1.14591">
        <ele>64</ele>
        <time>2025-04-26T11:47:33Z</time>
      </trkpt>
      <trkpt lat="45.47917" lon="-1.14589">
        <ele>64</ele>
        <time>2025-04-26T11:47:34Z</time>
      </trkpt>
      <trkpt lat="45.47921" lon="-1.14587">
        <ele>64</ele>
        <time>2025-04-26T11:47:35Z</time>
      </trkpt>
      <trkpt lat="45.47925" lon="-1.14585">
        <ele>64</ele>
        <time>2025-04-26T11:47:36Z</time>
      </trkpt>
      <trkpt lat="45.47928" lon="-1.14583">
        <ele>65</ele>
        <time>2025-04-26T11:47:37Z</time>
      </trkpt>
      <trkpt lat="45.47932" lon="-1.14582">
        <ele>64</ele>
        <time>2025-04-26T11:47:38Z</time>
      </trkpt>
      <trkpt lat="45.47936" lon="-1.1458">
        <ele>64</ele>
        <time>2025-04-26T11:47:39Z</time>
      </trkpt>
      <trkpt lat="45.47939" lon="-1.14578">
        <ele>64</ele>
        <time>2025-04-26T11:47:40Z</time>
      </trkpt>
      <trkpt lat="45.47943" lon="-1.14575">
        <ele>65</ele>
        <time>2025-04-26T11:47:41Z</time>
      </trkpt>
      <trkpt lat="45.47947" lon="-1.14574">
        <ele>65</ele>
        <time>2025-04-26T11:47:42Z</time>
      </trkpt>
      <trkpt lat="45.47951" lon="-1.14572">
        <ele>65</ele>
        <time>2025-04-26T11:47:43Z</time>
      </trkpt>
      <trkpt lat="45.47955" lon="-1.1457">
        <ele>64</ele>
        <time>2025-04-26T11:47:44Z</time>
      </trkpt>
      <trkpt lat="45.47959" lon="-1.14568">
        <ele>65</ele>
        <time>2025-04-26T11:47:45Z</time>
      </trkpt>
      <trkpt lat="45.47964" lon="-1.14565">
        <ele>65</ele>
        <time>2025-04-26T11:47:46Z</time>
      </trkpt>
      <trkpt lat="45.47968" lon="-1.14564">
        <ele>65</ele>
        <time>2025-04-26T11:47:47Z</time>
      </trkpt>
      <trkpt lat="45.47972" lon="-1.14562">
        <ele>65</ele>
        <time>2025-04-26T11:47:48Z</time>
      </trkpt>
      <trkpt lat="45.47976" lon="-1.1456">
        <ele>64</ele>
        <time>2025-04-26T11:47:49Z</time>
      </trkpt>
      <trkpt lat="45.4798" lon="-1.14557">
        <ele>65</ele>
        <time>2025-04-26T11:47:50Z</time>
      </trkpt>
      <trkpt lat="45.47984" lon="-1.14554">
        <ele>66</ele>
        <time>2025-04-26T11:47:51Z</time>
      </trkpt>
      <trkpt lat="45.47988" lon="-1.14552">
        <ele>67</ele>
        <time>2025-04-26T11:47:52Z</time>
      </trkpt>
      <trkpt lat="45.47991" lon="-1.1455">
        <ele>66</ele>
        <time>2025-04-26T11:47:53Z</time>
      </trkpt>
      <trkpt lat="45.47995" lon="-1.14547">
        <ele>66</ele>
        <time>2025-04-26T11:47:54Z</time>
      </trkpt>
      <trkpt lat="45.47998" lon="-1.14545">
        <ele>66</ele>
        <time>2025-04-26T11:47:55Z</time>
      </trkpt>
      <trkpt lat="45.48002" lon="-1.14543">
        <ele>66</ele>
        <time>2025-04-26T11:47:56Z</time>
      </trkpt>
      <trkpt lat="45.48006" lon="-1.14541">
        <ele>67</ele>
        <time>2025-04-26T11:47:57Z</time>
      </trkpt>
      <trkpt lat="45.48011" lon="-1.14539">
        <ele>66</ele>
        <time>2025-04-26T11:47:58Z</time>
      </trkpt>
      <trkpt lat="45.48014" lon="-1.14538">
        <ele>66</ele>
        <time>2025-04-26T11:47:59Z</time>
      </trkpt>
      <trkpt lat="45.48018" lon="-1.14536">
        <ele>66</ele>
        <time>2025-04-26T11:48:00Z</time>
      </trkpt>
      <trkpt lat="45.48023" lon="-1.14534">
        <ele>66</ele>
        <time>2025-04-26T11:48:01Z</time>
      </trkpt>
      <trkpt lat="45.48027" lon="-1.14533">
        <ele>66</ele>
        <time>2025-04-26T11:48:02Z</time>
      </trkpt>
      <trkpt lat="45.48031" lon="-1.14531">
        <ele>66</ele>
        <time>2025-04-26T11:48:03Z</time>
      </trkpt>
      <trkpt lat="45.48035" lon="-1.14529">
        <ele>66</ele>
        <time>2025-04-26T11:48:04Z</time>
      </trkpt>
      <trkpt lat="45.48039" lon="-1.14527">
        <ele>66</ele>
        <time>2025-04-26T11:48:05Z</time>
      </trkpt>
      <trkpt lat="45.48043" lon="-1.14526">
        <ele>66</ele>
        <time>2025-04-26T11:48:06Z</time>
      </trkpt>
      <trkpt lat="45.48046" lon="-1.14523">
        <ele>66</ele>
        <time>2025-04-26T11:48:07Z</time>
      </trkpt>
      <trkpt lat="45.4805" lon="-1.14521">
        <ele>65</ele>
        <time>2025-04-26T11:48:08Z</time>
      </trkpt>
      <trkpt lat="45.48054" lon="-1.14519">
        <ele>66</ele>
        <time>2025-04-26T11:48:09Z</time>
      </trkpt>
      <trkpt lat="45.48058" lon="-1.14516">
        <ele>66</ele>
        <time>2025-04-26T11:48:10Z</time>
      </trkpt>
      <trkpt lat="45.48062" lon="-1.14515">
        <ele>66</ele>
        <time>2025-04-26T11:48:11Z</time>
      </trkpt>
      <trkpt lat="45.48066" lon="-1.14513">
        <ele>66</ele>
        <time>2025-04-26T11:48:12Z</time>
      </trkpt>
      <trkpt lat="45.4807" lon="-1.14511">
        <ele>65</ele>
        <time>2025-04-26T11:48:13Z</time>
      </trkpt>
      <trkpt lat="45.48074" lon="-1.14508">
        <ele>65</ele>
        <time>2025-04-26T11:48:14Z</time>
      </trkpt>
      <trkpt lat="45.48078" lon="-1.14506">
        <ele>65</ele>
        <time>2025-04-26T11:48:15Z</time>
      </trkpt>
      <trkpt lat="45.48082" lon="-1.14504">
        <ele>65</ele>
        <time>2025-04-26T11:48:16Z</time>
      </trkpt>
      <trkpt lat="45.48086" lon="-1.14503">
        <ele>65</ele>
        <time>2025-04-26T11:48:17Z</time>
      </trkpt>
      <trkpt lat="45.4809" lon="-1.14501">
        <ele>65</ele>
        <time>2025-04-26T11:48:18Z</time>
      </trkpt>
      <trkpt lat="45.48094" lon="-1.14499">
        <ele>65</ele>
        <time>2025-04-26T11:48:19Z</time>
      </trkpt>
      <trkpt lat="45.48098" lon="-1.14497">
        <ele>65</ele>
        <time>2025-04-26T11:48:20Z</time>
      </trkpt>
      <trkpt lat="45.48102" lon="-1.14494">
        <ele>65</ele>
        <time>2025-04-26T11:48:21Z</time>
      </trkpt>
      <trkpt lat="45.48106" lon="-1.14492">
        <ele>65</ele>
        <time>2025-04-26T11:48:22Z</time>
      </trkpt>
      <trkpt lat="45.48109" lon="-1.14489">
        <ele>66</ele>
        <time>2025-04-26T11:48:23Z</time>
      </trkpt>
      <trkpt lat="45.48114" lon="-1.14487">
        <ele>66</ele>
        <time>2025-04-26T11:48:24Z</time>
      </trkpt>
      <trkpt lat="45.48117" lon="-1.14485">
        <ele>67</ele>
        <time>2025-04-26T11:48:25Z</time>
      </trkpt>
      <trkpt lat="45.48121" lon="-1.14483">
        <ele>67</ele>
        <time>2025-04-26T11:48:26Z</time>
      </trkpt>
      <trkpt lat="45.48125" lon="-1.14481">
        <ele>67</ele>
        <time>2025-04-26T11:48:27Z</time>
      </trkpt>
      <trkpt lat="45.48129" lon="-1.14479">
        <ele>67</ele>
        <time>2025-04-26T11:48:28Z</time>
      </trkpt>
      <trkpt lat="45.48133" lon="-1.14478">
        <ele>67</ele>
        <time>2025-04-26T11:48:29Z</time>
      </trkpt>
      <trkpt lat="45.48136" lon="-1.14475">
        <ele>67</ele>
        <time>2025-04-26T11:48:30Z</time>
      </trkpt>
      <trkpt lat="45.48141" lon="-1.14474">
        <ele>67</ele>
        <time>2025-04-26T11:48:31Z</time>
      </trkpt>
      <trkpt lat="45.48145" lon="-1.14472">
        <ele>66</ele>
        <time>2025-04-26T11:48:32Z</time>
      </trkpt>
      <trkpt lat="45.48148" lon="-1.1447">
        <ele>66</ele>
        <time>2025-04-26T11:48:33Z</time>
      </trkpt>
      <trkpt lat="45.48152" lon="-1.14468">
        <ele>65</ele>
        <time>2025-04-26T11:48:34Z</time>
      </trkpt>
      <trkpt lat="45.48157" lon="-1.14467">
        <ele>65</ele>
        <time>2025-04-26T11:48:35Z</time>
      </trkpt>
      <trkpt lat="45.48161" lon="-1.14464">
        <ele>64</ele>
        <time>2025-04-26T11:48:36Z</time>
      </trkpt>
      <trkpt lat="45.48165" lon="-1.14463">
        <ele>64</ele>
        <time>2025-04-26T11:48:37Z</time>
      </trkpt>
      <trkpt lat="45.48168" lon="-1.1446">
        <ele>63</ele>
        <time>2025-04-26T11:48:38Z</time>
      </trkpt>
      <trkpt lat="45.48172" lon="-1.14457">
        <ele>63</ele>
        <time>2025-04-26T11:48:39Z</time>
      </trkpt>
      <trkpt lat="45.48176" lon="-1.14455">
        <ele>63</ele>
        <time>2025-04-26T11:48:40Z</time>
      </trkpt>
      <trkpt lat="45.48179" lon="-1.14454">
        <ele>63</ele>
        <time>2025-04-26T11:48:41Z</time>
      </trkpt>
      <trkpt lat="45.48183" lon="-1.14451">
        <ele>64</ele>
        <time>2025-04-26T11:48:42Z</time>
      </trkpt>
      <trkpt lat="45.48188" lon="-1.1445">
        <ele>64</ele>
        <time>2025-04-26T11:48:43Z</time>
      </trkpt>
      <trkpt lat="45.48191" lon="-1.14448">
        <ele>64</ele>
        <time>2025-04-26T11:48:44Z</time>
      </trkpt>
      <trkpt lat="45.48195" lon="-1.14447">
        <ele>64</ele>
        <time>2025-04-26T11:48:45Z</time>
      </trkpt>
      <trkpt lat="45.48199" lon="-1.14445">
        <ele>64</ele>
        <time>2025-04-26T11:48:46Z</time>
      </trkpt>
      <trkpt lat="45.48203" lon="-1.14444">
        <ele>65</ele>
        <time>2025-04-26T11:48:47Z</time>
      </trkpt>
      <trkpt lat="45.48206" lon="-1.14441">
        <ele>64</ele>
        <time>2025-04-26T11:48:48Z</time>
      </trkpt>
      <trkpt lat="45.4821" lon="-1.14439">
        <ele>64</ele>
        <time>2025-04-26T11:48:49Z</time>
      </trkpt>
      <trkpt lat="45.48214" lon="-1.14438">
        <ele>64</ele>
        <time>2025-04-26T11:48:50Z</time>
      </trkpt>
      <trkpt lat="45.48218" lon="-1.14436">
        <ele>64</ele>
        <time>2025-04-26T11:48:51Z</time>
      </trkpt>
      <trkpt lat="45.48222" lon="-1.14434">
        <ele>63</ele>
        <time>2025-04-26T11:48:52Z</time>
      </trkpt>
      <trkpt lat="45.48226" lon="-1.14433">
        <ele>63</ele>
        <time>2025-04-26T11:48:53Z</time>
      </trkpt>
      <trkpt lat="45.4823" lon="-1.14431">
        <ele>63</ele>
        <time>2025-04-26T11:48:54Z</time>
      </trkpt>
      <trkpt lat="45.48234" lon="-1.14428">
        <ele>63</ele>
        <time>2025-04-26T11:48:55Z</time>
      </trkpt>
      <trkpt lat="45.48238" lon="-1.14426">
        <ele>63</ele>
        <time>2025-04-26T11:48:56Z</time>
      </trkpt>
      <trkpt lat="45.48242" lon="-1.14424">
        <ele>63</ele>
        <time>2025-04-26T11:48:57Z</time>
      </trkpt>
      <trkpt lat="45.48246" lon="-1.14422">
        <ele>63</ele>
        <time>2025-04-26T11:48:58Z</time>
      </trkpt>
      <trkpt lat="45.4825" lon="-1.1442">
        <ele>63</ele>
        <time>2025-04-26T11:48:59Z</time>
      </trkpt>
      <trkpt lat="45.48253" lon="-1.14418">
        <ele>63</ele>
        <time>2025-04-26T11:49:00Z</time>
      </trkpt>
      <trkpt lat="45.48258" lon="-1.14416">
        <ele>64</ele>
        <time>2025-04-26T11:49:01Z</time>
      </trkpt>
      <trkpt lat="45.48262" lon="-1.14414">
        <ele>63</ele>
        <time>2025-04-26T11:49:02Z</time>
      </trkpt>
      <trkpt lat="45.48266" lon="-1.14412">
        <ele>64</ele>
        <time>2025-04-26T11:49:03Z</time>
      </trkpt>
      <trkpt lat="45.48269" lon="-1.1441">
        <ele>64</ele>
        <time>2025-04-26T11:49:04Z</time>
      </trkpt>
      <trkpt lat="45.48273" lon="-1.14407">
        <ele>64</ele>
        <time>2025-04-26T11:49:05Z</time>
      </trkpt>
      <trkpt lat="45.48277" lon="-1.14405">
        <ele>64</ele>
        <time>2025-04-26T11:49:06Z</time>
      </trkpt>
      <trkpt lat="45.48281" lon="-1.14403">
        <ele>64</ele>
        <time>2025-04-26T11:49:07Z</time>
      </trkpt>
      <trkpt lat="45.48285" lon="-1.14401">
        <ele>65</ele>
        <time>2025-04-26T11:49:08Z</time>
      </trkpt>
      <trkpt lat="45.48289" lon="-1.14399">
        <ele>65</ele>
        <time>2025-04-26T11:49:09Z</time>
      </trkpt>
      <trkpt lat="45.48293" lon="-1.14398">
        <ele>65</ele>
        <time>2025-04-26T11:49:10Z</time>
      </trkpt>
      <trkpt lat="45.48296" lon="-1.14396">
        <ele>65</ele>
        <time>2025-04-26T11:49:11Z</time>
      </trkpt>
      <trkpt lat="45.483" lon="-1.14394">
        <ele>65</ele>
        <time>2025-04-26T11:49:12Z</time>
      </trkpt>
      <trkpt lat="45.48304" lon="-1.14392">
        <ele>65</ele>
        <time>2025-04-26T11:49:13Z</time>
      </trkpt>
      <trkpt lat="45.48307" lon="-1.14391">
        <ele>64</ele>
        <time>2025-04-26T11:49:14Z</time>
      </trkpt>
      <trkpt lat="45.48311" lon="-1.14389">
        <ele>64</ele>
        <time>2025-04-26T11:49:15Z</time>
      </trkpt>
      <trkpt lat="45.48314" lon="-1.14387">
        <ele>64</ele>
        <time>2025-04-26T11:49:16Z</time>
      </trkpt>
      <trkpt lat="45.48318" lon="-1.14385">
        <ele>63</ele>
        <time>2025-04-26T11:49:17Z</time>
      </trkpt>
      <trkpt lat="45.48322" lon="-1.14383">
        <ele>63</ele>
        <time>2025-04-26T11:49:18Z</time>
      </trkpt>
      <trkpt lat="45.48325" lon="-1.14381">
        <ele>63</ele>
        <time>2025-04-26T11:49:19Z</time>
      </trkpt>
      <trkpt lat="45.48329" lon="-1.1438">
        <ele>63</ele>
        <time>2025-04-26T11:49:20Z</time>
      </trkpt>
      <trkpt lat="45.48332" lon="-1.14378">
        <ele>63</ele>
        <time>2025-04-26T11:49:21Z</time>
      </trkpt>
      <trkpt lat="45.48336" lon="-1.14376">
        <ele>62</ele>
        <time>2025-04-26T11:49:22Z</time>
      </trkpt>
      <trkpt lat="45.48339" lon="-1.14374">
        <ele>62</ele>
        <time>2025-04-26T11:49:23Z</time>
      </trkpt>
      <trkpt lat="45.48342" lon="-1.14372">
        <ele>62</ele>
        <time>2025-04-26T11:49:24Z</time>
      </trkpt>
      <trkpt lat="45.48346" lon="-1.1437">
        <ele>62</ele>
        <time>2025-04-26T11:49:25Z</time>
      </trkpt>
      <trkpt lat="45.48349" lon="-1.14369">
        <ele>62</ele>
        <time>2025-04-26T11:49:26Z</time>
      </trkpt>
      <trkpt lat="45.48353" lon="-1.14368">
        <ele>63</ele>
        <time>2025-04-26T11:49:27Z</time>
      </trkpt>
      <trkpt lat="45.48356" lon="-1.14366">
        <ele>63</ele>
        <time>2025-04-26T11:49:28Z</time>
      </trkpt>
      <trkpt lat="45.48359" lon="-1.14364">
        <ele>63</ele>
        <time>2025-04-26T11:49:29Z</time>
      </trkpt>
      <trkpt lat="45.48362" lon="-1.14364">
        <ele>63</ele>
        <time>2025-04-26T11:49:30Z</time>
      </trkpt>
      <trkpt lat="45.48365" lon="-1.14362">
        <ele>63</ele>
        <time>2025-04-26T11:49:31Z</time>
      </trkpt>
      <trkpt lat="45.48367" lon="-1.14361">
        <ele>63</ele>
        <time>2025-04-26T11:49:32Z</time>
      </trkpt>
      <trkpt lat="45.4837" lon="-1.1436">
        <ele>64</ele>
        <time>2025-04-26T11:49:33Z</time>
      </trkpt>
      <trkpt lat="45.48373" lon="-1.14358">
        <ele>64</ele>
        <time>2025-04-26T11:49:34Z</time>
      </trkpt>
      <trkpt lat="45.48375" lon="-1.14357">
        <ele>64</ele>
        <time>2025-04-26T11:49:35Z</time>
      </trkpt>
      <trkpt lat="45.48378" lon="-1.14356">
        <ele>64</ele>
        <time>2025-04-26T11:49:36Z</time>
      </trkpt>
      <trkpt lat="45.48381" lon="-1.14354">
        <ele>64</ele>
        <time>2025-04-26T11:49:37Z</time>
      </trkpt>
      <trkpt lat="45.48384" lon="-1.14352">
        <ele>64</ele>
        <time>2025-04-26T11:49:38Z</time>
      </trkpt>
      <trkpt lat="45.48386" lon="-1.1435">
        <ele>64</ele>
        <time>2025-04-26T11:49:39Z</time>
      </trkpt>
      <trkpt lat="45.48388" lon="-1.1435">
        <ele>63</ele>
        <time>2025-04-26T11:49:40Z</time>
      </trkpt>
      <trkpt lat="45.48391" lon="-1.14349">
        <ele>64</ele>
        <time>2025-04-26T11:49:41Z</time>
      </trkpt>
      <trkpt lat="45.48392" lon="-1.14348">
        <ele>64</ele>
        <time>2025-04-26T11:49:42Z</time>
      </trkpt>
      <trkpt lat="45.48394" lon="-1.14346">
        <ele>64</ele>
        <time>2025-04-26T11:49:43Z</time>
      </trkpt>
      <trkpt lat="45.48396" lon="-1.14344">
        <ele>64</ele>
        <time>2025-04-26T11:49:44Z</time>
      </trkpt>
      <trkpt lat="45.48397" lon="-1.14344">
        <ele>64</ele>
        <time>2025-04-26T11:49:45Z</time>
      </trkpt>
      <trkpt lat="45.48398" lon="-1.14343">
        <ele>64</ele>
        <time>2025-04-26T11:49:46Z</time>
      </trkpt>
      <trkpt lat="45.48398" lon="-1.14343">
        <ele>64</ele>
        <time>2025-04-26T11:49:47Z</time>
      </trkpt>
      <trkpt lat="45.48398" lon="-1.14343">
        <ele>64</ele>
        <time>2025-04-26T11:49:48Z</time>
      </trkpt>
      <trkpt lat="45.48398" lon="-1.14343">
        <ele>64</ele>
        <time>2025-04-26T11:49:49Z</time>
      </trkpt>
      <trkpt lat="45.48398" lon="-1.14343">
        <ele>64</ele>
        <time>2025-04-26T11:49:50Z</time>
      </trkpt>
      <trkpt lat="45.48398" lon="-1.14343">
        <ele>64</ele>
        <time>2025-04-26T11:49:51Z</time>
      </trkpt>
      <trkpt lat="45.48398" lon="-1.14343">
        <ele>64</ele>
        <time>2025-04-26T11:49:52Z</time>
      </trkpt>
      <trkpt lat="45.48398" lon="-1.14343">
        <ele>64</ele>
        <time>2025-04-26T11:49:53Z</time>
      </trkpt>
      <trkpt lat="45.48398" lon="-1.14343">
        <ele>64</ele>
        <time>2025-04-26T11:49:54Z</time>
      </trkpt>
      <trkpt lat="45.48398" lon="-1.14343">
        <ele>64</ele>
        <time>2025-04-26T11:49:55Z</time>
      </trkpt>
      <trkpt lat="45.48402" lon="-1.14343">
        <ele>64</ele>
        <time>2025-04-26T11:49:56Z</time>
      </trkpt>
      <trkpt lat="45.48404" lon="-1.14344">
        <ele>64</ele>
        <time>2025-04-26T11:49:57Z</time>
      </trkpt>
      <trkpt lat="45.48406" lon="-1.14346">
        <ele>65</ele>
        <time>2025-04-26T11:49:58Z</time>
      </trkpt>
      <trkpt lat="45.48408" lon="-1.14348">
        <ele>66</ele>
        <time>2025-04-26T11:49:59Z</time>
      </trkpt>
      <trkpt lat="45.48408" lon="-1.14351">
        <ele>66</ele>
        <time>2025-04-26T11:50:00Z</time>
      </trkpt>
      <trkpt lat="45.48408" lon="-1.14355">
        <ele>66</ele>
        <time>2025-04-26T11:50:01Z</time>
      </trkpt>
      <trkpt lat="45.48409" lon="-1.14359">
        <ele>66</ele>
        <time>2025-04-26T11:50:02Z</time>
      </trkpt>
      <trkpt lat="45.48409" lon="-1.14363">
        <ele>67</ele>
        <time>2025-04-26T11:50:03Z</time>
      </trkpt>
      <trkpt lat="45.4841" lon="-1.14367">
        <ele>67</ele>
        <time>2025-04-26T11:50:04Z</time>
      </trkpt>
      <trkpt lat="45.48411" lon="-1.14372">
        <ele>67</ele>
        <time>2025-04-26T11:50:05Z</time>
      </trkpt>
      <trkpt lat="45.48412" lon="-1.14376">
        <ele>67</ele>
        <time>2025-04-26T11:50:06Z</time>
      </trkpt>
      <trkpt lat="45.48412" lon="-1.1438">
        <ele>68</ele>
        <time>2025-04-26T11:50:07Z</time>
      </trkpt>
      <trkpt lat="45.48413" lon="-1.14385">
        <ele>68</ele>
        <time>2025-04-26T11:50:08Z</time>
      </trkpt>
      <trkpt lat="45.48414" lon="-1.14389">
        <ele>68</ele>
        <time>2025-04-26T11:50:09Z</time>
      </trkpt>
      <trkpt lat="45.48415" lon="-1.14392">
        <ele>69</ele>
        <time>2025-04-26T11:50:10Z</time>
      </trkpt>
      <trkpt lat="45.48417" lon="-1.14398">
        <ele>68</ele>
        <time>2025-04-26T11:50:11Z</time>
      </trkpt>
      <trkpt lat="45.48417" lon="-1.14402">
        <ele>68</ele>
        <time>2025-04-26T11:50:12Z</time>
      </trkpt>
      <trkpt lat="45.48418" lon="-1.14407">
        <ele>68</ele>
        <time>2025-04-26T11:50:13Z</time>
      </trkpt>
      <trkpt lat="45.48419" lon="-1.14411">
        <ele>68</ele>
        <time>2025-04-26T11:50:14Z</time>
      </trkpt>
      <trkpt lat="45.4842" lon="-1.14415">
        <ele>68</ele>
        <time>2025-04-26T11:50:15Z</time>
      </trkpt>
      <trkpt lat="45.48421" lon="-1.1442">
        <ele>67</ele>
        <time>2025-04-26T11:50:16Z</time>
      </trkpt>
      <trkpt lat="45.48422" lon="-1.14425">
        <ele>67</ele>
        <time>2025-04-26T11:50:17Z</time>
      </trkpt>
      <trkpt lat="45.48423" lon="-1.14431">
        <ele>67</ele>
        <time>2025-04-26T11:50:18Z</time>
      </trkpt>
      <trkpt lat="45.48425" lon="-1.14435">
        <ele>66</ele>
        <time>2025-04-26T11:50:19Z</time>
      </trkpt>
      <trkpt lat="45.48426" lon="-1.1444">
        <ele>66</ele>
        <time>2025-04-26T11:50:20Z</time>
      </trkpt>
      <trkpt lat="45.48427" lon="-1.14446">
        <ele>65</ele>
        <time>2025-04-26T11:50:21Z</time>
      </trkpt>
      <trkpt lat="45.48428" lon="-1.14452">
        <ele>65</ele>
        <time>2025-04-26T11:50:22Z</time>
      </trkpt>
      <trkpt lat="45.48429" lon="-1.14456">
        <ele>64</ele>
        <time>2025-04-26T11:50:23Z</time>
      </trkpt>
      <trkpt lat="45.48431" lon="-1.14461">
        <ele>64</ele>
        <time>2025-04-26T11:50:24Z</time>
      </trkpt>
      <trkpt lat="45.48431" lon="-1.14465">
        <ele>64</ele>
        <time>2025-04-26T11:50:25Z</time>
      </trkpt>
      <trkpt lat="45.48432" lon="-1.1447">
        <ele>65</ele>
        <time>2025-04-26T11:50:26Z</time>
      </trkpt>
      <trkpt lat="45.48433" lon="-1.14478">
        <ele>65</ele>
        <time>2025-04-26T11:50:27Z</time>
      </trkpt>
      <trkpt lat="45.48434" lon="-1.14485">
        <ele>65</ele>
        <time>2025-04-26T11:50:28Z</time>
      </trkpt>
      <trkpt lat="45.48436" lon="-1.14491">
        <ele>65</ele>
        <time>2025-04-26T11:50:29Z</time>
      </trkpt>
      <trkpt lat="45.48437" lon="-1.14497">
        <ele>65</ele>
        <time>2025-04-26T11:50:30Z</time>
      </trkpt>
      <trkpt lat="45.48438" lon="-1.14503">
        <ele>65</ele>
        <time>2025-04-26T11:50:31Z</time>
      </trkpt>
      <trkpt lat="45.4844" lon="-1.14508">
        <ele>65</ele>
        <time>2025-04-26T11:50:32Z</time>
      </trkpt>
      <trkpt lat="45.48441" lon="-1.14514">
        <ele>65</ele>
        <time>2025-04-26T11:50:33Z</time>
      </trkpt>
      <trkpt lat="45.48442" lon="-1.1452">
        <ele>65</ele>
        <time>2025-04-26T11:50:34Z</time>
      </trkpt>
      <trkpt lat="45.48443" lon="-1.14526">
        <ele>65</ele>
        <time>2025-04-26T11:50:35Z</time>
      </trkpt>
      <trkpt lat="45.48445" lon="-1.14531">
        <ele>64</ele>
        <time>2025-04-26T11:50:36Z</time>
      </trkpt>
      <trkpt lat="45.48446" lon="-1.14536">
        <ele>64</ele>
        <time>2025-04-26T11:50:37Z</time>
      </trkpt>
      <trkpt lat="45.48447" lon="-1.14542">
        <ele>64</ele>
        <time>2025-04-26T11:50:38Z</time>
      </trkpt>
      <trkpt lat="45.48448" lon="-1.14549">
        <ele>64</ele>
        <time>2025-04-26T11:50:39Z</time>
      </trkpt>
      <trkpt lat="45.48449" lon="-1.14555">
        <ele>63</ele>
        <time>2025-04-26T11:50:40Z</time>
      </trkpt>
      <trkpt lat="45.48451" lon="-1.14561">
        <ele>64</ele>
        <time>2025-04-26T11:50:41Z</time>
      </trkpt>
      <trkpt lat="45.48451" lon="-1.14567">
        <ele>63</ele>
        <time>2025-04-26T11:50:42Z</time>
      </trkpt>
      <trkpt lat="45.48452" lon="-1.14573">
        <ele>63</ele>
        <time>2025-04-26T11:50:43Z</time>
      </trkpt>
      <trkpt lat="45.48453" lon="-1.14578">
        <ele>63</ele>
        <time>2025-04-26T11:50:44Z</time>
      </trkpt>
      <trkpt lat="45.48454" lon="-1.14583">
        <ele>63</ele>
        <time>2025-04-26T11:50:45Z</time>
      </trkpt>
      <trkpt lat="45.48456" lon="-1.14589">
        <ele>63</ele>
        <time>2025-04-26T11:50:46Z</time>
      </trkpt>
      <trkpt lat="45.48457" lon="-1.14595">
        <ele>63</ele>
        <time>2025-04-26T11:50:47Z</time>
      </trkpt>
      <trkpt lat="45.48458" lon="-1.14602">
        <ele>62</ele>
        <time>2025-04-26T11:50:48Z</time>
      </trkpt>
      <trkpt lat="45.48459" lon="-1.14608">
        <ele>62</ele>
        <time>2025-04-26T11:50:49Z</time>
      </trkpt>
      <trkpt lat="45.4846" lon="-1.14614">
        <ele>62</ele>
        <time>2025-04-26T11:50:50Z</time>
      </trkpt>
      <trkpt lat="45.48462" lon="-1.1462">
        <ele>62</ele>
        <time>2025-04-26T11:50:51Z</time>
      </trkpt>
      <trkpt lat="45.48463" lon="-1.14626">
        <ele>62</ele>
        <time>2025-04-26T11:50:52Z</time>
      </trkpt>
      <trkpt lat="45.48464" lon="-1.14632">
        <ele>62</ele>
        <time>2025-04-26T11:50:53Z</time>
      </trkpt>
      <trkpt lat="45.48465" lon="-1.14638">
        <ele>62</ele>
        <time>2025-04-26T11:50:54Z</time>
      </trkpt>
      <trkpt lat="45.48467" lon="-1.14644">
        <ele>62</ele>
        <time>2025-04-26T11:50:55Z</time>
      </trkpt>
      <trkpt lat="45.48469" lon="-1.14651">
        <ele>62</ele>
        <time>2025-04-26T11:50:56Z</time>
      </trkpt>
      <trkpt lat="45.48471" lon="-1.14657">
        <ele>62</ele>
        <time>2025-04-26T11:50:57Z</time>
      </trkpt>
      <trkpt lat="45.48472" lon="-1.14663">
        <ele>62</ele>
        <time>2025-04-26T11:50:58Z</time>
      </trkpt>
      <trkpt lat="45.48473" lon="-1.1467">
        <ele>61</ele>
        <time>2025-04-26T11:50:59Z</time>
      </trkpt>
      <trkpt lat="45.48475" lon="-1.14676">
        <ele>61</ele>
        <time>2025-04-26T11:51:00Z</time>
      </trkpt>
      <trkpt lat="45.48476" lon="-1.14681">
        <ele>61</ele>
        <time>2025-04-26T11:51:01Z</time>
      </trkpt>
      <trkpt lat="45.48477" lon="-1.14688">
        <ele>61</ele>
        <time>2025-04-26T11:51:02Z</time>
      </trkpt>
      <trkpt lat="45.48478" lon="-1.14694">
        <ele>60</ele>
        <time>2025-04-26T11:51:03Z</time>
      </trkpt>
      <trkpt lat="45.4848" lon="-1.14699">
        <ele>60</ele>
        <time>2025-04-26T11:51:04Z</time>
      </trkpt>
      <trkpt lat="45.48481" lon="-1.14705">
        <ele>60</ele>
        <time>2025-04-26T11:51:05Z</time>
      </trkpt>
      <trkpt lat="45.48482" lon="-1.14711">
        <ele>60</ele>
        <time>2025-04-26T11:51:06Z</time>
      </trkpt>
      <trkpt lat="45.48483" lon="-1.14717">
        <ele>61</ele>
        <time>2025-04-26T11:51:07Z</time>
      </trkpt>
      <trkpt lat="45.48484" lon="-1.14724">
        <ele>60</ele>
        <time>2025-04-26T11:51:08Z</time>
      </trkpt>
      <trkpt lat="45.48486" lon="-1.1473">
        <ele>60</ele>
        <time>2025-04-26T11:51:09Z</time>
      </trkpt>
      <trkpt lat="45.48487" lon="-1.14736">
        <ele>61</ele>
        <time>2025-04-26T11:51:10Z</time>
      </trkpt>
      <trkpt lat="45.48489" lon="-1.14742">
        <ele>61</ele>
        <time>2025-04-26T11:51:11Z</time>
      </trkpt>
      <trkpt lat="45.4849" lon="-1.14748">
        <ele>61</ele>
        <time>2025-04-26T11:51:12Z</time>
      </trkpt>
      <trkpt lat="45.48491" lon="-1.14754">
        <ele>62</ele>
        <time>2025-04-26T11:51:13Z</time>
      </trkpt>
      <trkpt lat="45.48492" lon="-1.14761">
        <ele>62</ele>
        <time>2025-04-26T11:51:14Z</time>
      </trkpt>
      <trkpt lat="45.48493" lon="-1.14766">
        <ele>63</ele>
        <time>2025-04-26T11:51:15Z</time>
      </trkpt>
      <trkpt lat="45.48495" lon="-1.14772">
        <ele>64</ele>
        <time>2025-04-26T11:51:16Z</time>
      </trkpt>
      <trkpt lat="45.48496" lon="-1.14779">
        <ele>63</ele>
        <time>2025-04-26T11:51:17Z</time>
      </trkpt>
      <trkpt lat="45.48497" lon="-1.14784">
        <ele>63</ele>
        <time>2025-04-26T11:51:18Z</time>
      </trkpt>
      <trkpt lat="45.48498" lon="-1.14789">
        <ele>63</ele>
        <time>2025-04-26T11:51:19Z</time>
      </trkpt>
      <trkpt lat="45.48499" lon="-1.14795">
        <ele>64</ele>
        <time>2025-04-26T11:51:20Z</time>
      </trkpt>
      <trkpt lat="45.485" lon="-1.148">
        <ele>64</ele>
        <time>2025-04-26T11:51:21Z</time>
      </trkpt>
      <trkpt lat="45.48502" lon="-1.14805">
        <ele>64</ele>
        <time>2025-04-26T11:51:22Z</time>
      </trkpt>
      <trkpt lat="45.48504" lon="-1.14811">
        <ele>64</ele>
        <time>2025-04-26T11:51:23Z</time>
      </trkpt>
      <trkpt lat="45.48505" lon="-1.14816">
        <ele>64</ele>
        <time>2025-04-26T11:51:24Z</time>
      </trkpt>
      <trkpt lat="45.48507" lon="-1.1482">
        <ele>65</ele>
        <time>2025-04-26T11:51:25Z</time>
      </trkpt>
      <trkpt lat="45.48508" lon="-1.14826">
        <ele>64</ele>
        <time>2025-04-26T11:51:26Z</time>
      </trkpt>
      <trkpt lat="45.4851" lon="-1.14831">
        <ele>64</ele>
        <time>2025-04-26T11:51:27Z</time>
      </trkpt>
      <trkpt lat="45.48511" lon="-1.14835">
        <ele>64</ele>
        <time>2025-04-26T11:51:28Z</time>
      </trkpt>
      <trkpt lat="45.48513" lon="-1.1484">
        <ele>64</ele>
        <time>2025-04-26T11:51:29Z</time>
      </trkpt>
      <trkpt lat="45.48515" lon="-1.14844">
        <ele>64</ele>
        <time>2025-04-26T11:51:30Z</time>
      </trkpt>
      <trkpt lat="45.48516" lon="-1.14849">
        <ele>64</ele>
        <time>2025-04-26T11:51:31Z</time>
      </trkpt>
      <trkpt lat="45.48517" lon="-1.14852">
        <ele>64</ele>
        <time>2025-04-26T11:51:32Z</time>
      </trkpt>
      <trkpt lat="45.48519" lon="-1.14855">
        <ele>64</ele>
        <time>2025-04-26T11:51:33Z</time>
      </trkpt>
      <trkpt lat="45.48521" lon="-1.14857">
        <ele>64</ele>
        <time>2025-04-26T11:51:34Z</time>
      </trkpt>
      <trkpt lat="45.48523" lon="-1.1486">
        <ele>64</ele>
        <time>2025-04-26T11:51:35Z</time>
      </trkpt>
      <trkpt lat="45.48525" lon="-1.14863">
        <ele>63</ele>
        <time>2025-04-26T11:51:36Z</time>
      </trkpt>
      <trkpt lat="45.48528" lon="-1.14864">
        <ele>63</ele>
        <time>2025-04-26T11:51:37Z</time>
      </trkpt>
      <trkpt lat="45.4853" lon="-1.14863">
        <ele>63</ele>
        <time>2025-04-26T11:51:38Z</time>
      </trkpt>
      <trkpt lat="45.48533" lon="-1.14862">
        <ele>63</ele>
        <time>2025-04-26T11:51:39Z</time>
      </trkpt>
      <trkpt lat="45.48535" lon="-1.14859">
        <ele>64</ele>
        <time>2025-04-26T11:51:40Z</time>
      </trkpt>
      <trkpt lat="45.48538" lon="-1.14857">
        <ele>64</ele>
        <time>2025-04-26T11:51:41Z</time>
      </trkpt>
      <trkpt lat="45.48541" lon="-1.14854">
        <ele>64</ele>
        <time>2025-04-26T11:51:42Z</time>
      </trkpt>
      <trkpt lat="45.48544" lon="-1.14852">
        <ele>65</ele>
        <time>2025-04-26T11:51:43Z</time>
      </trkpt>
      <trkpt lat="45.48547" lon="-1.1485">
        <ele>65</ele>
        <time>2025-04-26T11:51:44Z</time>
      </trkpt>
      <trkpt lat="45.4855" lon="-1.14848">
        <ele>64</ele>
        <time>2025-04-26T11:51:45Z</time>
      </trkpt>
      <trkpt lat="45.48553" lon="-1.14846">
        <ele>63</ele>
        <time>2025-04-26T11:51:46Z</time>
      </trkpt>
      <trkpt lat="45.48556" lon="-1.14843">
        <ele>63</ele>
        <time>2025-04-26T11:51:47Z</time>
      </trkpt>
      <trkpt lat="45.48559" lon="-1.14841">
        <ele>64</ele>
        <time>2025-04-26T11:51:48Z</time>
      </trkpt>
      <trkpt lat="45.48562" lon="-1.1484">
        <ele>63</ele>
        <time>2025-04-26T11:51:49Z</time>
      </trkpt>
      <trkpt lat="45.48565" lon="-1.14837">
        <ele>63</ele>
        <time>2025-04-26T11:51:50Z</time>
      </trkpt>
      <trkpt lat="45.48568" lon="-1.14834">
        <ele>62</ele>
        <time>2025-04-26T11:51:51Z</time>
      </trkpt>
      <trkpt lat="45.48571" lon="-1.14832">
        <ele>62</ele>
        <time>2025-04-26T11:51:52Z</time>
      </trkpt>
      <trkpt lat="45.48574" lon="-1.1483">
        <ele>62</ele>
        <time>2025-04-26T11:51:53Z</time>
      </trkpt>
      <trkpt lat="45.48577" lon="-1.14828">
        <ele>61</ele>
        <time>2025-04-26T11:51:54Z</time>
      </trkpt>
      <trkpt lat="45.48581" lon="-1.14826">
        <ele>62</ele>
        <time>2025-04-26T11:51:55Z</time>
      </trkpt>
      <trkpt lat="45.48584" lon="-1.14824">
        <ele>61</ele>
        <time>2025-04-26T11:51:56Z</time>
      </trkpt>
      <trkpt lat="45.48587" lon="-1.14821">
        <ele>61</ele>
        <time>2025-04-26T11:51:57Z</time>
      </trkpt>
      <trkpt lat="45.4859" lon="-1.14818">
        <ele>61</ele>
        <time>2025-04-26T11:51:58Z</time>
      </trkpt>
      <trkpt lat="45.48593" lon="-1.14815">
        <ele>61</ele>
        <time>2025-04-26T11:51:59Z</time>
      </trkpt>
      <trkpt lat="45.48596" lon="-1.14812">
        <ele>62</ele>
        <time>2025-04-26T11:52:00Z</time>
      </trkpt>
      <trkpt lat="45.486" lon="-1.1481">
        <ele>62</ele>
        <time>2025-04-26T11:52:01Z</time>
      </trkpt>
      <trkpt lat="45.48603" lon="-1.14807">
        <ele>63</ele>
        <time>2025-04-26T11:52:02Z</time>
      </trkpt>
      <trkpt lat="45.48606" lon="-1.14804">
        <ele>63</ele>
        <time>2025-04-26T11:52:03Z</time>
      </trkpt>
      <trkpt lat="45.48609" lon="-1.14803">
        <ele>62</ele>
        <time>2025-04-26T11:52:04Z</time>
      </trkpt>
      <trkpt lat="45.48612" lon="-1.148">
        <ele>62</ele>
        <time>2025-04-26T11:52:05Z</time>
      </trkpt>
      <trkpt lat="45.48616" lon="-1.14797">
        <ele>62</ele>
        <time>2025-04-26T11:52:06Z</time>
      </trkpt>
      <trkpt lat="45.48619" lon="-1.14796">
        <ele>62</ele>
        <time>2025-04-26T11:52:07Z</time>
      </trkpt>
      <trkpt lat="45.48621" lon="-1.14793">
        <ele>62</ele>
        <time>2025-04-26T11:52:08Z</time>
      </trkpt>
      <trkpt lat="45.48624" lon="-1.14791">
        <ele>62</ele>
        <time>2025-04-26T11:52:09Z</time>
      </trkpt>
      <trkpt lat="45.48627" lon="-1.14788">
        <ele>63</ele>
        <time>2025-04-26T11:52:10Z</time>
      </trkpt>
      <trkpt lat="45.4863" lon="-1.14784">
        <ele>63</ele>
        <time>2025-04-26T11:52:11Z</time>
      </trkpt>
      <trkpt lat="45.48632" lon="-1.14781">
        <ele>63</ele>
        <time>2025-04-26T11:52:12Z</time>
      </trkpt>
      <trkpt lat="45.48635" lon="-1.14778">
        <ele>63</ele>
        <time>2025-04-26T11:52:13Z</time>
      </trkpt>
      <trkpt lat="45.48638" lon="-1.14776">
        <ele>63</ele>
        <time>2025-04-26T11:52:14Z</time>
      </trkpt>
      <trkpt lat="45.48641" lon="-1.14773">
        <ele>62</ele>
        <time>2025-04-26T11:52:15Z</time>
      </trkpt>
      <trkpt lat="45.48644" lon="-1.14771">
        <ele>63</ele>
        <time>2025-04-26T11:52:16Z</time>
      </trkpt>
      <trkpt lat="45.48647" lon="-1.1477">
        <ele>62</ele>
        <time>2025-04-26T11:52:17Z</time>
      </trkpt>
      <trkpt lat="45.4865" lon="-1.14769">
        <ele>62</ele>
        <time>2025-04-26T11:52:18Z</time>
      </trkpt>
      <trkpt lat="45.48653" lon="-1.14767">
        <ele>62</ele>
        <time>2025-04-26T11:52:19Z</time>
      </trkpt>
      <trkpt lat="45.48656" lon="-1.14765">
        <ele>62</ele>
        <time>2025-04-26T11:52:20Z</time>
      </trkpt>
      <trkpt lat="45.48658" lon="-1.14763">
        <ele>62</ele>
        <time>2025-04-26T11:52:21Z</time>
      </trkpt>
      <trkpt lat="45.48661" lon="-1.1476">
        <ele>62</ele>
        <time>2025-04-26T11:52:22Z</time>
      </trkpt>
      <trkpt lat="45.48665" lon="-1.14757">
        <ele>63</ele>
        <time>2025-04-26T11:52:23Z</time>
      </trkpt>
      <trkpt lat="45.48668" lon="-1.14754">
        <ele>64</ele>
        <time>2025-04-26T11:52:24Z</time>
      </trkpt>
      <trkpt lat="45.48671" lon="-1.14751">
        <ele>65</ele>
        <time>2025-04-26T11:52:25Z</time>
      </trkpt>
      <trkpt lat="45.48674" lon="-1.14748">
        <ele>66</ele>
        <time>2025-04-26T11:52:26Z</time>
      </trkpt>
      <trkpt lat="45.48677" lon="-1.14746">
        <ele>66</ele>
        <time>2025-04-26T11:52:27Z</time>
      </trkpt>
      <trkpt lat="45.4868" lon="-1.14743">
        <ele>66</ele>
        <time>2025-04-26T11:52:28Z</time>
      </trkpt>
      <trkpt lat="45.48683" lon="-1.1474">
        <ele>67</ele>
        <time>2025-04-26T11:52:29Z</time>
      </trkpt>
      <trkpt lat="45.48687" lon="-1.14738">
        <ele>67</ele>
        <time>2025-04-26T11:52:30Z</time>
      </trkpt>
      <trkpt lat="45.4869" lon="-1.14735">
        <ele>67</ele>
        <time>2025-04-26T11:52:31Z</time>
      </trkpt>
      <trkpt lat="45.48693" lon="-1.14733">
        <ele>67</ele>
        <time>2025-04-26T11:52:32Z</time>
      </trkpt>
      <trkpt lat="45.48696" lon="-1.1473">
        <ele>67</ele>
        <time>2025-04-26T11:52:33Z</time>
      </trkpt>
      <trkpt lat="45.48699" lon="-1.14728">
        <ele>68</ele>
        <time>2025-04-26T11:52:34Z</time>
      </trkpt>
      <trkpt lat="45.48702" lon="-1.14725">
        <ele>68</ele>
        <time>2025-04-26T11:52:35Z</time>
      </trkpt>
      <trkpt lat="45.48705" lon="-1.14722">
        <ele>67</ele>
        <time>2025-04-26T11:52:36Z</time>
      </trkpt>
      <trkpt lat="45.48707" lon="-1.1472">
        <ele>67</ele>
        <time>2025-04-26T11:52:37Z</time>
      </trkpt>
      <trkpt lat="45.4871" lon="-1.14718">
        <ele>67</ele>
        <time>2025-04-26T11:52:38Z</time>
      </trkpt>
      <trkpt lat="45.48713" lon="-1.14715">
        <ele>67</ele>
        <time>2025-04-26T11:52:39Z</time>
      </trkpt>
      <trkpt lat="45.48717" lon="-1.14712">
        <ele>67</ele>
        <time>2025-04-26T11:52:40Z</time>
      </trkpt>
      <trkpt lat="45.4872" lon="-1.14709">
        <ele>67</ele>
        <time>2025-04-26T11:52:41Z</time>
      </trkpt>
      <trkpt lat="45.48723" lon="-1.14706">
        <ele>67</ele>
        <time>2025-04-26T11:52:42Z</time>
      </trkpt>
      <trkpt lat="45.48726" lon="-1.14705">
        <ele>66</ele>
        <time>2025-04-26T11:52:43Z</time>
      </trkpt>
      <trkpt lat="45.48729" lon="-1.14703">
        <ele>66</ele>
        <time>2025-04-26T11:52:44Z</time>
      </trkpt>
      <trkpt lat="45.48732" lon="-1.14701">
        <ele>66</ele>
        <time>2025-04-26T11:52:45Z</time>
      </trkpt>
      <trkpt lat="45.48735" lon="-1.14699">
        <ele>66</ele>
        <time>2025-04-26T11:52:46Z</time>
      </trkpt>
      <trkpt lat="45.48738" lon="-1.14696">
        <ele>66</ele>
        <time>2025-04-26T11:52:47Z</time>
      </trkpt>
      <trkpt lat="45.48741" lon="-1.14693">
        <ele>67</ele>
        <time>2025-04-26T11:52:48Z</time>
      </trkpt>
      <trkpt lat="45.48744" lon="-1.1469">
        <ele>67</ele>
        <time>2025-04-26T11:52:49Z</time>
      </trkpt>
      <trkpt lat="45.48747" lon="-1.14688">
        <ele>67</ele>
        <time>2025-04-26T11:52:50Z</time>
      </trkpt>
      <trkpt lat="45.4875" lon="-1.14686">
        <ele>66</ele>
        <time>2025-04-26T11:52:51Z</time>
      </trkpt>
      <trkpt lat="45.48753" lon="-1.14683">
        <ele>67</ele>
        <time>2025-04-26T11:52:52Z</time>
      </trkpt>
      <trkpt lat="45.48757" lon="-1.14681">
        <ele>66</ele>
        <time>2025-04-26T11:52:53Z</time>
      </trkpt>
      <trkpt lat="45.48761" lon="-1.14678">
        <ele>66</ele>
        <time>2025-04-26T11:52:54Z</time>
      </trkpt>
      <trkpt lat="45.48764" lon="-1.14675">
        <ele>67</ele>
        <time>2025-04-26T11:52:55Z</time>
      </trkpt>
      <trkpt lat="45.48767" lon="-1.14673">
        <ele>65</ele>
        <time>2025-04-26T11:52:56Z</time>
      </trkpt>
      <trkpt lat="45.48771" lon="-1.1467">
        <ele>65</ele>
        <time>2025-04-26T11:52:57Z</time>
      </trkpt>
      <trkpt lat="45.48774" lon="-1.14667">
        <ele>64</ele>
        <time>2025-04-26T11:52:58Z</time>
      </trkpt>
      <trkpt lat="45.48778" lon="-1.14665">
        <ele>64</ele>
        <time>2025-04-26T11:52:59Z</time>
      </trkpt>
      <trkpt lat="45.48782" lon="-1.14662">
        <ele>63</ele>
        <time>2025-04-26T11:53:00Z</time>
      </trkpt>
      <trkpt lat="45.48786" lon="-1.14659">
        <ele>63</ele>
        <time>2025-04-26T11:53:01Z</time>
      </trkpt>
      <trkpt lat="45.48789" lon="-1.14656">
        <ele>63</ele>
        <time>2025-04-26T11:53:02Z</time>
      </trkpt>
      <trkpt lat="45.48793" lon="-1.14652">
        <ele>63</ele>
        <time>2025-04-26T11:53:03Z</time>
      </trkpt>
      <trkpt lat="45.48797" lon="-1.14649">
        <ele>64</ele>
        <time>2025-04-26T11:53:04Z</time>
      </trkpt>
      <trkpt lat="45.48801" lon="-1.14646">
        <ele>64</ele>
        <time>2025-04-26T11:53:05Z</time>
      </trkpt>
      <trkpt lat="45.48805" lon="-1.14643">
        <ele>63</ele>
        <time>2025-04-26T11:53:06Z</time>
      </trkpt>
      <trkpt lat="45.48809" lon="-1.1464">
        <ele>63</ele>
        <time>2025-04-26T11:53:07Z</time>
      </trkpt>
      <trkpt lat="45.48813" lon="-1.14635">
        <ele>63</ele>
        <time>2025-04-26T11:53:08Z</time>
      </trkpt>
      <trkpt lat="45.48817" lon="-1.14632">
        <ele>63</ele>
        <time>2025-04-26T11:53:09Z</time>
      </trkpt>
      <trkpt lat="45.4882" lon="-1.14628">
        <ele>63</ele>
        <time>2025-04-26T11:53:10Z</time>
      </trkpt>
      <trkpt lat="45.48824" lon="-1.14625">
        <ele>64</ele>
        <time>2025-04-26T11:53:11Z</time>
      </trkpt>
      <trkpt lat="45.48828" lon="-1.14621">
        <ele>65</ele>
        <time>2025-04-26T11:53:12Z</time>
      </trkpt>
      <trkpt lat="45.48832" lon="-1.14618">
        <ele>65</ele>
        <time>2025-04-26T11:53:13Z</time>
      </trkpt>
      <trkpt lat="45.48836" lon="-1.14616">
        <ele>65</ele>
        <time>2025-04-26T11:53:14Z</time>
      </trkpt>
      <trkpt lat="45.48841" lon="-1.14613">
        <ele>65</ele>
        <time>2025-04-26T11:53:15Z</time>
      </trkpt>
      <trkpt lat="45.48845" lon="-1.1461">
        <ele>66</ele>
        <time>2025-04-26T11:53:16Z</time>
      </trkpt>
      <trkpt lat="45.48849" lon="-1.14608">
        <ele>65</ele>
        <time>2025-04-26T11:53:17Z</time>
      </trkpt>
      <trkpt lat="45.48853" lon="-1.14605">
        <ele>66</ele>
        <time>2025-04-26T11:53:18Z</time>
      </trkpt>
      <trkpt lat="45.48856" lon="-1.14602">
        <ele>66</ele>
        <time>2025-04-26T11:53:19Z</time>
      </trkpt>
      <trkpt lat="45.48859" lon="-1.146">
        <ele>65</ele>
        <time>2025-04-26T11:53:20Z</time>
      </trkpt>
      <trkpt lat="45.48863" lon="-1.14597">
        <ele>65</ele>
        <time>2025-04-26T11:53:21Z</time>
      </trkpt>
      <trkpt lat="45.48866" lon="-1.14594">
        <ele>64</ele>
        <time>2025-04-26T11:53:22Z</time>
      </trkpt>
      <trkpt lat="45.4887" lon="-1.14591">
        <ele>64</ele>
        <time>2025-04-26T11:53:23Z</time>
      </trkpt>
      <trkpt lat="45.48873" lon="-1.14589">
        <ele>64</ele>
        <time>2025-04-26T11:53:24Z</time>
      </trkpt>
      <trkpt lat="45.48876" lon="-1.14585">
        <ele>64</ele>
        <time>2025-04-26T11:53:25Z</time>
      </trkpt>
      <trkpt lat="45.4888" lon="-1.14582">
        <ele>65</ele>
        <time>2025-04-26T11:53:26Z</time>
      </trkpt>
      <trkpt lat="45.48883" lon="-1.14579">
        <ele>65</ele>
        <time>2025-04-26T11:53:27Z</time>
      </trkpt>
      <trkpt lat="45.48887" lon="-1.14577">
        <ele>65</ele>
        <time>2025-04-26T11:53:28Z</time>
      </trkpt>
      <trkpt lat="45.48891" lon="-1.14574">
        <ele>66</ele>
        <time>2025-04-26T11:53:29Z</time>
      </trkpt>
      <trkpt lat="45.48895" lon="-1.14571">
        <ele>66</ele>
        <time>2025-04-26T11:53:30Z</time>
      </trkpt>
      <trkpt lat="45.48898" lon="-1.14569">
        <ele>66</ele>
        <time>2025-04-26T11:53:31Z</time>
      </trkpt>
      <trkpt lat="45.48902" lon="-1.14566">
        <ele>66</ele>
        <time>2025-04-26T11:53:32Z</time>
      </trkpt>
      <trkpt lat="45.48905" lon="-1.14563">
        <ele>67</ele>
        <time>2025-04-26T11:53:33Z</time>
      </trkpt>
      <trkpt lat="45.48908" lon="-1.14559">
        <ele>67</ele>
        <time>2025-04-26T11:53:34Z</time>
      </trkpt>
      <trkpt lat="45.48911" lon="-1.14557">
        <ele>67</ele>
        <time>2025-04-26T11:53:35Z</time>
      </trkpt>
      <trkpt lat="45.48914" lon="-1.14554">
        <ele>66</ele>
        <time>2025-04-26T11:53:36Z</time>
      </trkpt>
      <trkpt lat="45.48917" lon="-1.1455">
        <ele>67</ele>
        <time>2025-04-26T11:53:37Z</time>
      </trkpt>
      <trkpt lat="45.48921" lon="-1.14547">
        <ele>66</ele>
        <time>2025-04-26T11:53:38Z</time>
      </trkpt>
      <trkpt lat="45.48924" lon="-1.14544">
        <ele>67</ele>
        <time>2025-04-26T11:53:39Z</time>
      </trkpt>
      <trkpt lat="45.48928" lon="-1.14541">
        <ele>67</ele>
        <time>2025-04-26T11:53:40Z</time>
      </trkpt>
      <trkpt lat="45.48932" lon="-1.14538">
        <ele>67</ele>
        <time>2025-04-26T11:53:41Z</time>
      </trkpt>
      <trkpt lat="45.48935" lon="-1.14536">
        <ele>66</ele>
        <time>2025-04-26T11:53:42Z</time>
      </trkpt>
      <trkpt lat="45.48939" lon="-1.14533">
        <ele>66</ele>
        <time>2025-04-26T11:53:43Z</time>
      </trkpt>
      <trkpt lat="45.48942" lon="-1.14531">
        <ele>66</ele>
        <time>2025-04-26T11:53:44Z</time>
      </trkpt>
      <trkpt lat="45.48946" lon="-1.14528">
        <ele>66</ele>
        <time>2025-04-26T11:53:45Z</time>
      </trkpt>
      <trkpt lat="45.48949" lon="-1.14525">
        <ele>65</ele>
        <time>2025-04-26T11:53:46Z</time>
      </trkpt>
      <trkpt lat="45.48952" lon="-1.14523">
        <ele>65</ele>
        <time>2025-04-26T11:53:47Z</time>
      </trkpt>
      <trkpt lat="45.48955" lon="-1.14521">
        <ele>65</ele>
        <time>2025-04-26T11:53:48Z</time>
      </trkpt>
      <trkpt lat="45.48959" lon="-1.14517">
        <ele>65</ele>
        <time>2025-04-26T11:53:49Z</time>
      </trkpt>
      <trkpt lat="45.48963" lon="-1.14514">
        <ele>65</ele>
        <time>2025-04-26T11:53:50Z</time>
      </trkpt>
      <trkpt lat="45.48966" lon="-1.14511">
        <ele>65</ele>
        <time>2025-04-26T11:53:51Z</time>
      </trkpt>
      <trkpt lat="45.4897" lon="-1.14509">
        <ele>65</ele>
        <time>2025-04-26T11:53:52Z</time>
      </trkpt>
      <trkpt lat="45.48974" lon="-1.14506">
        <ele>64</ele>
        <time>2025-04-26T11:53:53Z</time>
      </trkpt>
      <trkpt lat="45.48978" lon="-1.14502">
        <ele>64</ele>
        <time>2025-04-26T11:53:54Z</time>
      </trkpt>
      <trkpt lat="45.48982" lon="-1.14499">
        <ele>64</ele>
        <time>2025-04-26T11:53:55Z</time>
      </trkpt>
      <trkpt lat="45.48986" lon="-1.14497">
        <ele>64</ele>
        <time>2025-04-26T11:53:56Z</time>
      </trkpt>
      <trkpt lat="45.4899" lon="-1.14494">
        <ele>64</ele>
        <time>2025-04-26T11:53:57Z</time>
      </trkpt>
      <trkpt lat="45.48994" lon="-1.1449">
        <ele>65</ele>
        <time>2025-04-26T11:53:58Z</time>
      </trkpt>
      <trkpt lat="45.48998" lon="-1.14487">
        <ele>65</ele>
        <time>2025-04-26T11:53:59Z</time>
      </trkpt>
      <trkpt lat="45.49002" lon="-1.14483">
        <ele>65</ele>
        <time>2025-04-26T11:54:00Z</time>
      </trkpt>
      <trkpt lat="45.49005" lon="-1.1448">
        <ele>65</ele>
        <time>2025-04-26T11:54:01Z</time>
      </trkpt>
      <trkpt lat="45.49009" lon="-1.14478">
        <ele>64</ele>
        <time>2025-04-26T11:54:02Z</time>
      </trkpt>
      <trkpt lat="45.49013" lon="-1.14475">
        <ele>64</ele>
        <time>2025-04-26T11:54:03Z</time>
      </trkpt>
      <trkpt lat="45.49016" lon="-1.14472">
        <ele>63</ele>
        <time>2025-04-26T11:54:04Z</time>
      </trkpt>
      <trkpt lat="45.4902" lon="-1.14469">
        <ele>64</ele>
        <time>2025-04-26T11:54:05Z</time>
      </trkpt>
      <trkpt lat="45.49024" lon="-1.14465">
        <ele>64</ele>
        <time>2025-04-26T11:54:06Z</time>
      </trkpt>
      <trkpt lat="45.49027" lon="-1.14462">
        <ele>64</ele>
        <time>2025-04-26T11:54:07Z</time>
      </trkpt>
      <trkpt lat="45.49031" lon="-1.14459">
        <ele>64</ele>
        <time>2025-04-26T11:54:08Z</time>
      </trkpt>
      <trkpt lat="45.49035" lon="-1.14456">
        <ele>64</ele>
        <time>2025-04-26T11:54:09Z</time>
      </trkpt>
      <trkpt lat="45.49038" lon="-1.14454">
        <ele>64</ele>
        <time>2025-04-26T11:54:10Z</time>
      </trkpt>
      <trkpt lat="45.49042" lon="-1.14451">
        <ele>64</ele>
        <time>2025-04-26T11:54:11Z</time>
      </trkpt>
      <trkpt lat="45.49045" lon="-1.14449">
        <ele>64</ele>
        <time>2025-04-26T11:54:12Z</time>
      </trkpt>
      <trkpt lat="45.49049" lon="-1.14446">
        <ele>64</ele>
        <time>2025-04-26T11:54:13Z</time>
      </trkpt>
      <trkpt lat="45.49052" lon="-1.14443">
        <ele>63</ele>
        <time>2025-04-26T11:54:14Z</time>
      </trkpt>
      <trkpt lat="45.49055" lon="-1.1444">
        <ele>63</ele>
        <time>2025-04-26T11:54:15Z</time>
      </trkpt>
      <trkpt lat="45.49059" lon="-1.14437">
        <ele>64</ele>
        <time>2025-04-26T11:54:16Z</time>
      </trkpt>
      <trkpt lat="45.49062" lon="-1.14435">
        <ele>64</ele>
        <time>2025-04-26T11:54:17Z</time>
      </trkpt>
      <trkpt lat="45.49066" lon="-1.14432">
        <ele>63</ele>
        <time>2025-04-26T11:54:18Z</time>
      </trkpt>
      <trkpt lat="45.4907" lon="-1.14429">
        <ele>62</ele>
        <time>2025-04-26T11:54:19Z</time>
      </trkpt>
      <trkpt lat="45.49074" lon="-1.14426">
        <ele>62</ele>
        <time>2025-04-26T11:54:20Z</time>
      </trkpt>
      <trkpt lat="45.49077" lon="-1.14423">
        <ele>63</ele>
        <time>2025-04-26T11:54:21Z</time>
      </trkpt>
      <trkpt lat="45.49081" lon="-1.1442">
        <ele>63</ele>
        <time>2025-04-26T11:54:22Z</time>
      </trkpt>
      <trkpt lat="45.49085" lon="-1.14417">
        <ele>63</ele>
        <time>2025-04-26T11:54:23Z</time>
      </trkpt>
      <trkpt lat="45.4909" lon="-1.14414">
        <ele>63</ele>
        <time>2025-04-26T11:54:24Z</time>
      </trkpt>
      <trkpt lat="45.49094" lon="-1.14411">
        <ele>63</ele>
        <time>2025-04-26T11:54:25Z</time>
      </trkpt>
      <trkpt lat="45.49098" lon="-1.14407">
        <ele>64</ele>
        <time>2025-04-26T11:54:26Z</time>
      </trkpt>
      <trkpt lat="45.49102" lon="-1.14403">
        <ele>64</ele>
        <time>2025-04-26T11:54:27Z</time>
      </trkpt>
      <trkpt lat="45.49107" lon="-1.144">
        <ele>64</ele>
        <time>2025-04-26T11:54:28Z</time>
      </trkpt>
      <trkpt lat="45.49111" lon="-1.14396">
        <ele>64</ele>
        <time>2025-04-26T11:54:29Z</time>
      </trkpt>
      <trkpt lat="45.49115" lon="-1.14393">
        <ele>63</ele>
        <time>2025-04-26T11:54:30Z</time>
      </trkpt>
      <trkpt lat="45.49119" lon="-1.14389">
        <ele>62</ele>
        <time>2025-04-26T11:54:31Z</time>
      </trkpt>
      <trkpt lat="45.49124" lon="-1.14385">
        <ele>62</ele>
        <time>2025-04-26T11:54:32Z</time>
      </trkpt>
      <trkpt lat="45.49129" lon="-1.14382">
        <ele>63</ele>
        <time>2025-04-26T11:54:33Z</time>
      </trkpt>
      <trkpt lat="45.49133" lon="-1.14378">
        <ele>63</ele>
        <time>2025-04-26T11:54:34Z</time>
      </trkpt>
      <trkpt lat="45.49138" lon="-1.14375">
        <ele>63</ele>
        <time>2025-04-26T11:54:35Z</time>
      </trkpt>
      <trkpt lat="45.49143" lon="-1.14371">
        <ele>62</ele>
        <time>2025-04-26T11:54:36Z</time>
      </trkpt>
      <trkpt lat="45.49148" lon="-1.14367">
        <ele>62</ele>
        <time>2025-04-26T11:54:37Z</time>
      </trkpt>
      <trkpt lat="45.49152" lon="-1.14365">
        <ele>61</ele>
        <time>2025-04-26T11:54:38Z</time>
      </trkpt>
      <trkpt lat="45.49157" lon="-1.14362">
        <ele>61</ele>
        <time>2025-04-26T11:54:39Z</time>
      </trkpt>
      <trkpt lat="45.49162" lon="-1.14358">
        <ele>61</ele>
        <time>2025-04-26T11:54:40Z</time>
      </trkpt>
      <trkpt lat="45.49166" lon="-1.14354">
        <ele>62</ele>
        <time>2025-04-26T11:54:41Z</time>
      </trkpt>
      <trkpt lat="45.4917" lon="-1.1435">
        <ele>62</ele>
        <time>2025-04-26T11:54:42Z</time>
      </trkpt>
      <trkpt lat="45.49174" lon="-1.14346">
        <ele>63</ele>
        <time>2025-04-26T11:54:43Z</time>
      </trkpt>
      <trkpt lat="45.49179" lon="-1.14342">
        <ele>64</ele>
        <time>2025-04-26T11:54:44Z</time>
      </trkpt>
      <trkpt lat="45.49183" lon="-1.14338">
        <ele>64</ele>
        <time>2025-04-26T11:54:45Z</time>
      </trkpt>
      <trkpt lat="45.49187" lon="-1.14334">
        <ele>65</ele>
        <time>2025-04-26T11:54:46Z</time>
      </trkpt>
      <trkpt lat="45.49191" lon="-1.14331">
        <ele>64</ele>
        <time>2025-04-26T11:54:47Z</time>
      </trkpt>
      <trkpt lat="45.49196" lon="-1.14327">
        <ele>64</ele>
        <time>2025-04-26T11:54:48Z</time>
      </trkpt>
      <trkpt lat="45.492" lon="-1.14325">
        <ele>64</ele>
        <time>2025-04-26T11:54:49Z</time>
      </trkpt>
      <trkpt lat="45.49204" lon="-1.14322">
        <ele>64</ele>
        <time>2025-04-26T11:54:50Z</time>
      </trkpt>
      <trkpt lat="45.49208" lon="-1.14317">
        <ele>64</ele>
        <time>2025-04-26T11:54:51Z</time>
      </trkpt>
      <trkpt lat="45.49213" lon="-1.14314">
        <ele>64</ele>
        <time>2025-04-26T11:54:52Z</time>
      </trkpt>
      <trkpt lat="45.49217" lon="-1.14311">
        <ele>64</ele>
        <time>2025-04-26T11:54:53Z</time>
      </trkpt>
      <trkpt lat="45.49221" lon="-1.14307">
        <ele>64</ele>
        <time>2025-04-26T11:54:54Z</time>
      </trkpt>
      <trkpt lat="45.49225" lon="-1.14303">
        <ele>64</ele>
        <time>2025-04-26T11:54:55Z</time>
      </trkpt>
      <trkpt lat="45.4923" lon="-1.143">
        <ele>65</ele>
        <time>2025-04-26T11:54:56Z</time>
      </trkpt>
      <trkpt lat="45.49234" lon="-1.14296">
        <ele>65</ele>
        <time>2025-04-26T11:54:57Z</time>
      </trkpt>
      <trkpt lat="45.49238" lon="-1.14293">
        <ele>65</ele>
        <time>2025-04-26T11:54:58Z</time>
      </trkpt>
      <trkpt lat="45.49242" lon="-1.1429">
        <ele>64</ele>
        <time>2025-04-26T11:54:59Z</time>
      </trkpt>
      <trkpt lat="45.49246" lon="-1.14286">
        <ele>64</ele>
        <time>2025-04-26T11:55:00Z</time>
      </trkpt>
      <trkpt lat="45.4925" lon="-1.14283">
        <ele>64</ele>
        <time>2025-04-26T11:55:01Z</time>
      </trkpt>
      <trkpt lat="45.49254" lon="-1.14279">
        <ele>64</ele>
        <time>2025-04-26T11:55:02Z</time>
      </trkpt>
      <trkpt lat="45.49258" lon="-1.14276">
        <ele>63</ele>
        <time>2025-04-26T11:55:03Z</time>
      </trkpt>
      <trkpt lat="45.49261" lon="-1.14272">
        <ele>64</ele>
        <time>2025-04-26T11:55:04Z</time>
      </trkpt>
      <trkpt lat="45.49266" lon="-1.14269">
        <ele>65</ele>
        <time>2025-04-26T11:55:05Z</time>
      </trkpt>
      <trkpt lat="45.4927" lon="-1.14265">
        <ele>65</ele>
        <time>2025-04-26T11:55:06Z</time>
      </trkpt>
      <trkpt lat="45.49274" lon="-1.14262">
        <ele>65</ele>
        <time>2025-04-26T11:55:07Z</time>
      </trkpt>
      <trkpt lat="45.49278" lon="-1.14261">
        <ele>65</ele>
        <time>2025-04-26T11:55:08Z</time>
      </trkpt>
      <trkpt lat="45.49282" lon="-1.14257">
        <ele>65</ele>
        <time>2025-04-26T11:55:09Z</time>
      </trkpt>
      <trkpt lat="45.49286" lon="-1.14254">
        <ele>65</ele>
        <time>2025-04-26T11:55:10Z</time>
      </trkpt>
      <trkpt lat="45.4929" lon="-1.1425">
        <ele>64</ele>
        <time>2025-04-26T11:55:11Z</time>
      </trkpt>
      <trkpt lat="45.49294" lon="-1.14247">
        <ele>65</ele>
        <time>2025-04-26T11:55:12Z</time>
      </trkpt>
      <trkpt lat="45.49298" lon="-1.14244">
        <ele>64</ele>
        <time>2025-04-26T11:55:13Z</time>
      </trkpt>
      <trkpt lat="45.49302" lon="-1.14242">
        <ele>64</ele>
        <time>2025-04-26T11:55:14Z</time>
      </trkpt>
      <trkpt lat="45.49306" lon="-1.14238">
        <ele>64</ele>
        <time>2025-04-26T11:55:15Z</time>
      </trkpt>
      <trkpt lat="45.49309" lon="-1.14234">
        <ele>65</ele>
        <time>2025-04-26T11:55:16Z</time>
      </trkpt>
      <trkpt lat="45.49313" lon="-1.14231">
        <ele>65</ele>
        <time>2025-04-26T11:55:17Z</time>
      </trkpt>
      <trkpt lat="45.49317" lon="-1.14228">
        <ele>65</ele>
        <time>2025-04-26T11:55:18Z</time>
      </trkpt>
      <trkpt lat="45.49321" lon="-1.14226">
        <ele>64</ele>
        <time>2025-04-26T11:55:19Z</time>
      </trkpt>
      <trkpt lat="45.49325" lon="-1.14223">
        <ele>64</ele>
        <time>2025-04-26T11:55:20Z</time>
      </trkpt>
      <trkpt lat="45.49329" lon="-1.1422">
        <ele>64</ele>
        <time>2025-04-26T11:55:21Z</time>
      </trkpt>
      <trkpt lat="45.49332" lon="-1.14216">
        <ele>64</ele>
        <time>2025-04-26T11:55:22Z</time>
      </trkpt>
      <trkpt lat="45.49336" lon="-1.14213">
        <ele>64</ele>
        <time>2025-04-26T11:55:23Z</time>
      </trkpt>
      <trkpt lat="45.4934" lon="-1.1421">
        <ele>64</ele>
        <time>2025-04-26T11:55:24Z</time>
      </trkpt>
      <trkpt lat="45.49344" lon="-1.14207">
        <ele>64</ele>
        <time>2025-04-26T11:55:25Z</time>
      </trkpt>
      <trkpt lat="45.49347" lon="-1.14204">
        <ele>64</ele>
        <time>2025-04-26T11:55:26Z</time>
      </trkpt>
      <trkpt lat="45.49351" lon="-1.14201">
        <ele>64</ele>
        <time>2025-04-26T11:55:27Z</time>
      </trkpt>
      <trkpt lat="45.49355" lon="-1.14198">
        <ele>64</ele>
        <time>2025-04-26T11:55:28Z</time>
      </trkpt>
      <trkpt lat="45.49359" lon="-1.14195">
        <ele>64</ele>
        <time>2025-04-26T11:55:29Z</time>
      </trkpt>
      <trkpt lat="45.49363" lon="-1.14192">
        <ele>65</ele>
        <time>2025-04-26T11:55:30Z</time>
      </trkpt>
      <trkpt lat="45.49366" lon="-1.14189">
        <ele>65</ele>
        <time>2025-04-26T11:55:31Z</time>
      </trkpt>
      <trkpt lat="45.4937" lon="-1.14186">
        <ele>66</ele>
        <time>2025-04-26T11:55:32Z</time>
      </trkpt>
      <trkpt lat="45.49374" lon="-1.14182">
        <ele>66</ele>
        <time>2025-04-26T11:55:33Z</time>
      </trkpt>
      <trkpt lat="45.49377" lon="-1.14179">
        <ele>67</ele>
        <time>2025-04-26T11:55:34Z</time>
      </trkpt>
      <trkpt lat="45.49381" lon="-1.14176">
        <ele>67</ele>
        <time>2025-04-26T11:55:35Z</time>
      </trkpt>
      <trkpt lat="45.49384" lon="-1.14173">
        <ele>67</ele>
        <time>2025-04-26T11:55:36Z</time>
      </trkpt>
      <trkpt lat="45.49388" lon="-1.14172">
        <ele>66</ele>
        <time>2025-04-26T11:55:37Z</time>
      </trkpt>
      <trkpt lat="45.49391" lon="-1.14169">
        <ele>65</ele>
        <time>2025-04-26T11:55:38Z</time>
      </trkpt>
      <trkpt lat="45.49395" lon="-1.14166">
        <ele>66</ele>
        <time>2025-04-26T11:55:39Z</time>
      </trkpt>
      <trkpt lat="45.49398" lon="-1.14162">
        <ele>67</ele>
        <time>2025-04-26T11:55:40Z</time>
      </trkpt>
      <trkpt lat="45.49402" lon="-1.1416">
        <ele>66</ele>
        <time>2025-04-26T11:55:41Z</time>
      </trkpt>
      <trkpt lat="45.49405" lon="-1.14157">
        <ele>67</ele>
        <time>2025-04-26T11:55:42Z</time>
      </trkpt>
      <trkpt lat="45.49408" lon="-1.14154">
        <ele>67</ele>
        <time>2025-04-26T11:55:43Z</time>
      </trkpt>
      <trkpt lat="45.49411" lon="-1.14152">
        <ele>66</ele>
        <time>2025-04-26T11:55:44Z</time>
      </trkpt>
      <trkpt lat="45.49415" lon="-1.14149">
        <ele>66</ele>
        <time>2025-04-26T11:55:45Z</time>
      </trkpt>
      <trkpt lat="45.49418" lon="-1.14146">
        <ele>66</ele>
        <time>2025-04-26T11:55:46Z</time>
      </trkpt>
      <trkpt lat="45.49421" lon="-1.14144">
        <ele>66</ele>
        <time>2025-04-26T11:55:47Z</time>
      </trkpt>
      <trkpt lat="45.49424" lon="-1.14141">
        <ele>66</ele>
        <time>2025-04-26T11:55:48Z</time>
      </trkpt>
      <trkpt lat="45.49427" lon="-1.14139">
        <ele>66</ele>
        <time>2025-04-26T11:55:49Z</time>
      </trkpt>
      <trkpt lat="45.4943" lon="-1.14136">
        <ele>67</ele>
        <time>2025-04-26T11:55:50Z</time>
      </trkpt>
      <trkpt lat="45.49433" lon="-1.14133">
        <ele>67</ele>
        <time>2025-04-26T11:55:51Z</time>
      </trkpt>
      <trkpt lat="45.49436" lon="-1.14131">
        <ele>67</ele>
        <time>2025-04-26T11:55:52Z</time>
      </trkpt>
      <trkpt lat="45.49438" lon="-1.14128">
        <ele>66</ele>
        <time>2025-04-26T11:55:53Z</time>
      </trkpt>
      <trkpt lat="45.49442" lon="-1.14125">
        <ele>66</ele>
        <time>2025-04-26T11:55:54Z</time>
      </trkpt>
      <trkpt lat="45.49445" lon="-1.14123">
        <ele>67</ele>
        <time>2025-04-26T11:55:55Z</time>
      </trkpt>
      <trkpt lat="45.49448" lon="-1.1412">
        <ele>67</ele>
        <time>2025-04-26T11:55:56Z</time>
      </trkpt>
      <trkpt lat="45.49452" lon="-1.14118">
        <ele>67</ele>
        <time>2025-04-26T11:55:57Z</time>
      </trkpt>
      <trkpt lat="45.49455" lon="-1.14116">
        <ele>67</ele>
        <time>2025-04-26T11:55:58Z</time>
      </trkpt>
      <trkpt lat="45.49458" lon="-1.14113">
        <ele>67</ele>
        <time>2025-04-26T11:55:59Z</time>
      </trkpt>
      <trkpt lat="45.49461" lon="-1.1411">
        <ele>67</ele>
        <time>2025-04-26T11:56:00Z</time>
      </trkpt>
      <trkpt lat="45.49465" lon="-1.14108">
        <ele>67</ele>
        <time>2025-04-26T11:56:01Z</time>
      </trkpt>
      <trkpt lat="45.49469" lon="-1.14106">
        <ele>66</ele>
        <time>2025-04-26T11:56:02Z</time>
      </trkpt>
      <trkpt lat="45.49472" lon="-1.14103">
        <ele>66</ele>
        <time>2025-04-26T11:56:03Z</time>
      </trkpt>
      <trkpt lat="45.49476" lon="-1.14099">
        <ele>66</ele>
        <time>2025-04-26T11:56:04Z</time>
      </trkpt>
      <trkpt lat="45.49479" lon="-1.14096">
        <ele>67</ele>
        <time>2025-04-26T11:56:05Z</time>
      </trkpt>
      <trkpt lat="45.49483" lon="-1.14093">
        <ele>66</ele>
        <time>2025-04-26T11:56:06Z</time>
      </trkpt>
      <trkpt lat="45.49487" lon="-1.1409">
        <ele>66</ele>
        <time>2025-04-26T11:56:07Z</time>
      </trkpt>
      <trkpt lat="45.4949" lon="-1.14086">
        <ele>66</ele>
        <time>2025-04-26T11:56:08Z</time>
      </trkpt>
      <trkpt lat="45.49494" lon="-1.14083">
        <ele>66</ele>
        <time>2025-04-26T11:56:09Z</time>
      </trkpt>
      <trkpt lat="45.49498" lon="-1.1408">
        <ele>66</ele>
        <time>2025-04-26T11:56:10Z</time>
      </trkpt>
      <trkpt lat="45.49502" lon="-1.14077">
        <ele>66</ele>
        <time>2025-04-26T11:56:11Z</time>
      </trkpt>
      <trkpt lat="45.49506" lon="-1.14073">
        <ele>66</ele>
        <time>2025-04-26T11:56:12Z</time>
      </trkpt>
      <trkpt lat="45.4951" lon="-1.1407">
        <ele>66</ele>
        <time>2025-04-26T11:56:13Z</time>
      </trkpt>
      <trkpt lat="45.49515" lon="-1.14067">
        <ele>66</ele>
        <time>2025-04-26T11:56:14Z</time>
      </trkpt>
      <trkpt lat="45.49519" lon="-1.14064">
        <ele>66</ele>
        <time>2025-04-26T11:56:15Z</time>
      </trkpt>
      <trkpt lat="45.49523" lon="-1.14061">
        <ele>65</ele>
        <time>2025-04-26T11:56:16Z</time>
      </trkpt>
      <trkpt lat="45.49527" lon="-1.14058">
        <ele>65</ele>
        <time>2025-04-26T11:56:17Z</time>
      </trkpt>
      <trkpt lat="45.49531" lon="-1.14055">
        <ele>64</ele>
        <time>2025-04-26T11:56:18Z</time>
      </trkpt>
      <trkpt lat="45.49536" lon="-1.14051">
        <ele>65</ele>
        <time>2025-04-26T11:56:19Z</time>
      </trkpt>
      <trkpt lat="45.4954" lon="-1.14047">
        <ele>65</ele>
        <time>2025-04-26T11:56:20Z</time>
      </trkpt>
      <trkpt lat="45.49545" lon="-1.14044">
        <ele>65</ele>
        <time>2025-04-26T11:56:21Z</time>
      </trkpt>
      <trkpt lat="45.49549" lon="-1.1404">
        <ele>64</ele>
        <time>2025-04-26T11:56:22Z</time>
      </trkpt>
      <trkpt lat="45.49553" lon="-1.14037">
        <ele>64</ele>
        <time>2025-04-26T11:56:23Z</time>
      </trkpt>
      <trkpt lat="45.49557" lon="-1.14033">
        <ele>64</ele>
        <time>2025-04-26T11:56:24Z</time>
      </trkpt>
      <trkpt lat="45.49561" lon="-1.1403">
        <ele>64</ele>
        <time>2025-04-26T11:56:25Z</time>
      </trkpt>
      <trkpt lat="45.49566" lon="-1.14027">
        <ele>64</ele>
        <time>2025-04-26T11:56:26Z</time>
      </trkpt>
      <trkpt lat="45.49571" lon="-1.14023">
        <ele>64</ele>
        <time>2025-04-26T11:56:27Z</time>
      </trkpt>
      <trkpt lat="45.49575" lon="-1.14019">
        <ele>64</ele>
        <time>2025-04-26T11:56:28Z</time>
      </trkpt>
      <trkpt lat="45.4958" lon="-1.14015">
        <ele>64</ele>
        <time>2025-04-26T11:56:29Z</time>
      </trkpt>
      <trkpt lat="45.49585" lon="-1.14012">
        <ele>64</ele>
        <time>2025-04-26T11:56:30Z</time>
      </trkpt>
      <trkpt lat="45.4959" lon="-1.14009">
        <ele>63</ele>
        <time>2025-04-26T11:56:31Z</time>
      </trkpt>
      <trkpt lat="45.49594" lon="-1.14005">
        <ele>63</ele>
        <time>2025-04-26T11:56:32Z</time>
      </trkpt>
      <trkpt lat="45.49598" lon="-1.14002">
        <ele>62</ele>
        <time>2025-04-26T11:56:33Z</time>
      </trkpt>
      <trkpt lat="45.49603" lon="-1.13999">
        <ele>62</ele>
        <time>2025-04-26T11:56:34Z</time>
      </trkpt>
      <trkpt lat="45.49607" lon="-1.13995">
        <ele>62</ele>
        <time>2025-04-26T11:56:35Z</time>
      </trkpt>
      <trkpt lat="45.49612" lon="-1.1399">
        <ele>62</ele>
        <time>2025-04-26T11:56:36Z</time>
      </trkpt>
      <trkpt lat="45.49616" lon="-1.13986">
        <ele>62</ele>
        <time>2025-04-26T11:56:37Z</time>
      </trkpt>
      <trkpt lat="45.49621" lon="-1.13983">
        <ele>62</ele>
        <time>2025-04-26T11:56:38Z</time>
      </trkpt>
      <trkpt lat="45.49625" lon="-1.1398">
        <ele>62</ele>
        <time>2025-04-26T11:56:39Z</time>
      </trkpt>
      <trkpt lat="45.49629" lon="-1.13976">
        <ele>62</ele>
        <time>2025-04-26T11:56:40Z</time>
      </trkpt>
      <trkpt lat="45.49634" lon="-1.13972">
        <ele>63</ele>
        <time>2025-04-26T11:56:41Z</time>
      </trkpt>
      <trkpt lat="45.49638" lon="-1.13969">
        <ele>63</ele>
        <time>2025-04-26T11:56:42Z</time>
      </trkpt>
      <trkpt lat="45.49643" lon="-1.13964">
        <ele>64</ele>
        <time>2025-04-26T11:56:43Z</time>
      </trkpt>
      <trkpt lat="45.49647" lon="-1.1396">
        <ele>64</ele>
        <time>2025-04-26T11:56:44Z</time>
      </trkpt>
      <trkpt lat="45.49651" lon="-1.13956">
        <ele>64</ele>
        <time>2025-04-26T11:56:45Z</time>
      </trkpt>
      <trkpt lat="45.49655" lon="-1.13953">
        <ele>63</ele>
        <time>2025-04-26T11:56:46Z</time>
      </trkpt>
      <trkpt lat="45.49659" lon="-1.1395">
        <ele>62</ele>
        <time>2025-04-26T11:56:47Z</time>
      </trkpt>
      <trkpt lat="45.49664" lon="-1.13946">
        <ele>62</ele>
        <time>2025-04-26T11:56:48Z</time>
      </trkpt>
      <trkpt lat="45.49669" lon="-1.13943">
        <ele>63</ele>
        <time>2025-04-26T11:56:49Z</time>
      </trkpt>
      <trkpt lat="45.49673" lon="-1.13939">
        <ele>63</ele>
        <time>2025-04-26T11:56:50Z</time>
      </trkpt>
      <trkpt lat="45.49678" lon="-1.13935">
        <ele>63</ele>
        <time>2025-04-26T11:56:51Z</time>
      </trkpt>
      <trkpt lat="45.49682" lon="-1.13931">
        <ele>62</ele>
        <time>2025-04-26T11:56:52Z</time>
      </trkpt>
      <trkpt lat="45.49686" lon="-1.13927">
        <ele>62</ele>
        <time>2025-04-26T11:56:53Z</time>
      </trkpt>
      <trkpt lat="45.49691" lon="-1.13924">
        <ele>61</ele>
        <time>2025-04-26T11:56:54Z</time>
      </trkpt>
      <trkpt lat="45.49696" lon="-1.1392">
        <ele>62</ele>
        <time>2025-04-26T11:56:55Z</time>
      </trkpt>
      <trkpt lat="45.497" lon="-1.13917">
        <ele>62</ele>
        <time>2025-04-26T11:56:56Z</time>
      </trkpt>
      <trkpt lat="45.49704" lon="-1.13913">
        <ele>62</ele>
        <time>2025-04-26T11:56:57Z</time>
      </trkpt>
      <trkpt lat="45.49708" lon="-1.13909">
        <ele>62</ele>
        <time>2025-04-26T11:56:58Z</time>
      </trkpt>
      <trkpt lat="45.49713" lon="-1.13905">
        <ele>62</ele>
        <time>2025-04-26T11:56:59Z</time>
      </trkpt>
      <trkpt lat="45.49717" lon="-1.13902">
        <ele>62</ele>
        <time>2025-04-26T11:57:00Z</time>
      </trkpt>
      <trkpt lat="45.49722" lon="-1.13898">
        <ele>62</ele>
        <time>2025-04-26T11:57:01Z</time>
      </trkpt>
      <trkpt lat="45.49726" lon="-1.13895">
        <ele>61</ele>
        <time>2025-04-26T11:57:02Z</time>
      </trkpt>
      <trkpt lat="45.4973" lon="-1.13892">
        <ele>61</ele>
        <time>2025-04-26T11:57:03Z</time>
      </trkpt>
      <trkpt lat="45.49734" lon="-1.13889">
        <ele>60</ele>
        <time>2025-04-26T11:57:04Z</time>
      </trkpt>
      <trkpt lat="45.49738" lon="-1.13887">
        <ele>60</ele>
        <time>2025-04-26T11:57:05Z</time>
      </trkpt>
      <trkpt lat="45.49742" lon="-1.13884">
        <ele>59</ele>
        <time>2025-04-26T11:57:06Z</time>
      </trkpt>
      <trkpt lat="45.49746" lon="-1.13881">
        <ele>59</ele>
        <time>2025-04-26T11:57:07Z</time>
      </trkpt>
      <trkpt lat="45.4975" lon="-1.13877">
        <ele>60</ele>
        <time>2025-04-26T11:57:08Z</time>
      </trkpt>
      <trkpt lat="45.49754" lon="-1.13873">
        <ele>60</ele>
        <time>2025-04-26T11:57:09Z</time>
      </trkpt>
      <trkpt lat="45.49758" lon="-1.13869">
        <ele>61</ele>
        <time>2025-04-26T11:57:10Z</time>
      </trkpt>
      <trkpt lat="45.49762" lon="-1.13866">
        <ele>61</ele>
        <time>2025-04-26T11:57:11Z</time>
      </trkpt>
      <trkpt lat="45.49766" lon="-1.13862">
        <ele>62</ele>
        <time>2025-04-26T11:57:12Z</time>
      </trkpt>
      <trkpt lat="45.4977" lon="-1.13859">
        <ele>62</ele>
        <time>2025-04-26T11:57:13Z</time>
      </trkpt>
      <trkpt lat="45.49774" lon="-1.13856">
        <ele>62</ele>
        <time>2025-04-26T11:57:14Z</time>
      </trkpt>
      <trkpt lat="45.49778" lon="-1.13853">
        <ele>62</ele>
        <time>2025-04-26T11:57:15Z</time>
      </trkpt>
      <trkpt lat="45.49782" lon="-1.13849">
        <ele>62</ele>
        <time>2025-04-26T11:57:16Z</time>
      </trkpt>
      <trkpt lat="45.49787" lon="-1.13847">
        <ele>62</ele>
        <time>2025-04-26T11:57:17Z</time>
      </trkpt>
      <trkpt lat="45.49791" lon="-1.13844">
        <ele>62</ele>
        <time>2025-04-26T11:57:18Z</time>
      </trkpt>
      <trkpt lat="45.49795" lon="-1.13841">
        <ele>62</ele>
        <time>2025-04-26T11:57:19Z</time>
      </trkpt>
      <trkpt lat="45.49798" lon="-1.13838">
        <ele>62</ele>
        <time>2025-04-26T11:57:20Z</time>
      </trkpt>
      <trkpt lat="45.49802" lon="-1.13834">
        <ele>62</ele>
        <time>2025-04-26T11:57:21Z</time>
      </trkpt>
      <trkpt lat="45.49806" lon="-1.13831">
        <ele>62</ele>
        <time>2025-04-26T11:57:22Z</time>
      </trkpt>
      <trkpt lat="45.4981" lon="-1.13828">
        <ele>61</ele>
        <time>2025-04-26T11:57:23Z</time>
      </trkpt>
      <trkpt lat="45.49814" lon="-1.13825">
        <ele>61</ele>
        <time>2025-04-26T11:57:24Z</time>
      </trkpt>
      <trkpt lat="45.49818" lon="-1.13821">
        <ele>61</ele>
        <time>2025-04-26T11:57:25Z</time>
      </trkpt>
      <trkpt lat="45.49822" lon="-1.13818">
        <ele>61</ele>
        <time>2025-04-26T11:57:26Z</time>
      </trkpt>
      <trkpt lat="45.49826" lon="-1.13815">
        <ele>62</ele>
        <time>2025-04-26T11:57:27Z</time>
      </trkpt>
      <trkpt lat="45.4983" lon="-1.13813">
        <ele>61</ele>
        <time>2025-04-26T11:57:28Z</time>
      </trkpt>
      <trkpt lat="45.49834" lon="-1.13809">
        <ele>61</ele>
        <time>2025-04-26T11:57:29Z</time>
      </trkpt>
      <trkpt lat="45.49837" lon="-1.13805">
        <ele>62</ele>
        <time>2025-04-26T11:57:30Z</time>
      </trkpt>
      <trkpt lat="45.49841" lon="-1.13802">
        <ele>62</ele>
        <time>2025-04-26T11:57:31Z</time>
      </trkpt>
      <trkpt lat="45.49846" lon="-1.13799">
        <ele>62</ele>
        <time>2025-04-26T11:57:32Z</time>
      </trkpt>
      <trkpt lat="45.4985" lon="-1.13796">
        <ele>62</ele>
        <time>2025-04-26T11:57:33Z</time>
      </trkpt>
      <trkpt lat="45.49854" lon="-1.13793">
        <ele>62</ele>
        <time>2025-04-26T11:57:34Z</time>
      </trkpt>
      <trkpt lat="45.49858" lon="-1.1379">
        <ele>62</ele>
        <time>2025-04-26T11:57:35Z</time>
      </trkpt>
      <trkpt lat="45.49862" lon="-1.13786">
        <ele>62</ele>
        <time>2025-04-26T11:57:36Z</time>
      </trkpt>
      <trkpt lat="45.49866" lon="-1.13784">
        <ele>62</ele>
        <time>2025-04-26T11:57:37Z</time>
      </trkpt>
      <trkpt lat="45.49869" lon="-1.1378">
        <ele>62</ele>
        <time>2025-04-26T11:57:38Z</time>
      </trkpt>
      <trkpt lat="45.49873" lon="-1.13778">
        <ele>62</ele>
        <time>2025-04-26T11:57:39Z</time>
      </trkpt>
      <trkpt lat="45.49877" lon="-1.13775">
        <ele>62</ele>
        <time>2025-04-26T11:57:40Z</time>
      </trkpt>
      <trkpt lat="45.49881" lon="-1.13773">
        <ele>62</ele>
        <time>2025-04-26T11:57:41Z</time>
      </trkpt>
      <trkpt lat="45.49885" lon="-1.13769">
        <ele>62</ele>
        <time>2025-04-26T11:57:42Z</time>
      </trkpt>
      <trkpt lat="45.49889" lon="-1.13766">
        <ele>62</ele>
        <time>2025-04-26T11:57:43Z</time>
      </trkpt>
      <trkpt lat="45.49893" lon="-1.13763">
        <ele>62</ele>
        <time>2025-04-26T11:57:44Z</time>
      </trkpt>
      <trkpt lat="45.49897" lon="-1.13759">
        <ele>62</ele>
        <time>2025-04-26T11:57:45Z</time>
      </trkpt>
      <trkpt lat="45.49901" lon="-1.13757">
        <ele>62</ele>
        <time>2025-04-26T11:57:46Z</time>
      </trkpt>
      <trkpt lat="45.49905" lon="-1.13754">
        <ele>62</ele>
        <time>2025-04-26T11:57:47Z</time>
      </trkpt>
      <trkpt lat="45.49908" lon="-1.1375">
        <ele>63</ele>
        <time>2025-04-26T11:57:48Z</time>
      </trkpt>
      <trkpt lat="45.49912" lon="-1.13746">
        <ele>63</ele>
        <time>2025-04-26T11:57:49Z</time>
      </trkpt>
      <trkpt lat="45.49916" lon="-1.13743">
        <ele>63</ele>
        <time>2025-04-26T11:57:50Z</time>
      </trkpt>
      <trkpt lat="45.49919" lon="-1.13741">
        <ele>63</ele>
        <time>2025-04-26T11:57:51Z</time>
      </trkpt>
      <trkpt lat="45.49923" lon="-1.13739">
        <ele>63</ele>
        <time>2025-04-26T11:57:52Z</time>
      </trkpt>
      <trkpt lat="45.49927" lon="-1.13736">
        <ele>63</ele>
        <time>2025-04-26T11:57:53Z</time>
      </trkpt>
      <trkpt lat="45.49931" lon="-1.13732">
        <ele>63</ele>
        <time>2025-04-26T11:57:54Z</time>
      </trkpt>
      <trkpt lat="45.49935" lon="-1.1373">
        <ele>63</ele>
        <time>2025-04-26T11:57:55Z</time>
      </trkpt>
      <trkpt lat="45.49938" lon="-1.13728">
        <ele>62</ele>
        <time>2025-04-26T11:57:56Z</time>
      </trkpt>
      <trkpt lat="45.49942" lon="-1.13724">
        <ele>62</ele>
        <time>2025-04-26T11:57:57Z</time>
      </trkpt>
      <trkpt lat="45.49946" lon="-1.13721">
        <ele>62</ele>
        <time>2025-04-26T11:57:58Z</time>
      </trkpt>
      <trkpt lat="45.49949" lon="-1.13718">
        <ele>61</ele>
        <time>2025-04-26T11:57:59Z</time>
      </trkpt>
      <trkpt lat="45.49953" lon="-1.13715">
        <ele>61</ele>
        <time>2025-04-26T11:58:00Z</time>
      </trkpt>
      <trkpt lat="45.49957" lon="-1.13712">
        <ele>61</ele>
        <time>2025-04-26T11:58:01Z</time>
      </trkpt>
      <trkpt lat="45.4996" lon="-1.13708">
        <ele>61</ele>
        <time>2025-04-26T11:58:02Z</time>
      </trkpt>
      <trkpt lat="45.49964" lon="-1.13705">
        <ele>62</ele>
        <time>2025-04-26T11:58:03Z</time>
      </trkpt>
      <trkpt lat="45.49968" lon="-1.13702">
        <ele>62</ele>
        <time>2025-04-26T11:58:04Z</time>
      </trkpt>
      <trkpt lat="45.49972" lon="-1.13699">
        <ele>62</ele>
        <time>2025-04-26T11:58:05Z</time>
      </trkpt>
      <trkpt lat="45.49976" lon="-1.13696">
        <ele>62</ele>
        <time>2025-04-26T11:58:06Z</time>
      </trkpt>
      <trkpt lat="45.49979" lon="-1.13693">
        <ele>62</ele>
        <time>2025-04-26T11:58:07Z</time>
      </trkpt>
      <trkpt lat="45.49983" lon="-1.1369">
        <ele>62</ele>
        <time>2025-04-26T11:58:08Z</time>
      </trkpt>
      <trkpt lat="45.49986" lon="-1.13687">
        <ele>62</ele>
        <time>2025-04-26T11:58:09Z</time>
      </trkpt>
      <trkpt lat="45.4999" lon="-1.13684">
        <ele>62</ele>
        <time>2025-04-26T11:58:10Z</time>
      </trkpt>
      <trkpt lat="45.49994" lon="-1.13681">
        <ele>63</ele>
        <time>2025-04-26T11:58:11Z</time>
      </trkpt>
      <trkpt lat="45.49998" lon="-1.13677">
        <ele>63</ele>
        <time>2025-04-26T11:58:12Z</time>
      </trkpt>
      <trkpt lat="45.50002" lon="-1.13674">
        <ele>63</ele>
        <time>2025-04-26T11:58:13Z</time>
      </trkpt>
      <trkpt lat="45.50006" lon="-1.13671">
        <ele>64</ele>
        <time>2025-04-26T11:58:14Z</time>
      </trkpt>
      <trkpt lat="45.5001" lon="-1.13668">
        <ele>63</ele>
        <time>2025-04-26T11:58:15Z</time>
      </trkpt>
      <trkpt lat="45.50013" lon="-1.13665">
        <ele>63</ele>
        <time>2025-04-26T11:58:16Z</time>
      </trkpt>
      <trkpt lat="45.50017" lon="-1.13662">
        <ele>63</ele>
        <time>2025-04-26T11:58:17Z</time>
      </trkpt>
      <trkpt lat="45.50021" lon="-1.13659">
        <ele>63</ele>
        <time>2025-04-26T11:58:18Z</time>
      </trkpt>
      <trkpt lat="45.50024" lon="-1.13657">
        <ele>62</ele>
        <time>2025-04-26T11:58:19Z</time>
      </trkpt>
      <trkpt lat="45.50028" lon="-1.13654">
        <ele>63</ele>
        <time>2025-04-26T11:58:20Z</time>
      </trkpt>
      <trkpt lat="45.50032" lon="-1.13652">
        <ele>63</ele>
        <time>2025-04-26T11:58:21Z</time>
      </trkpt>
      <trkpt lat="45.50036" lon="-1.13649">
        <ele>63</ele>
        <time>2025-04-26T11:58:22Z</time>
      </trkpt>
      <trkpt lat="45.5004" lon="-1.13647">
        <ele>63</ele>
        <time>2025-04-26T11:58:23Z</time>
      </trkpt>
      <trkpt lat="45.50044" lon="-1.13644">
        <ele>64</ele>
        <time>2025-04-26T11:58:24Z</time>
      </trkpt>
      <trkpt lat="45.50047" lon="-1.13641">
        <ele>63</ele>
        <time>2025-04-26T11:58:25Z</time>
      </trkpt>
      <trkpt lat="45.50051" lon="-1.13639">
        <ele>63</ele>
        <time>2025-04-26T11:58:26Z</time>
      </trkpt>
      <trkpt lat="45.50054" lon="-1.13636">
        <ele>62</ele>
        <time>2025-04-26T11:58:27Z</time>
      </trkpt>
      <trkpt lat="45.50058" lon="-1.13634">
        <ele>62</ele>
        <time>2025-04-26T11:58:28Z</time>
      </trkpt>
      <trkpt lat="45.50061" lon="-1.13631">
        <ele>62</ele>
        <time>2025-04-26T11:58:29Z</time>
      </trkpt>
      <trkpt lat="45.50064" lon="-1.13628">
        <ele>62</ele>
        <time>2025-04-26T11:58:30Z</time>
      </trkpt>
      <trkpt lat="45.50067" lon="-1.13626">
        <ele>62</ele>
        <time>2025-04-26T11:58:31Z</time>
      </trkpt>
      <trkpt lat="45.5007" lon="-1.13623">
        <ele>62</ele>
        <time>2025-04-26T11:58:32Z</time>
      </trkpt>
      <trkpt lat="45.50073" lon="-1.13621">
        <ele>62</ele>
        <time>2025-04-26T11:58:33Z</time>
      </trkpt>
      <trkpt lat="45.50077" lon="-1.13618">
        <ele>62</ele>
        <time>2025-04-26T11:58:34Z</time>
      </trkpt>
      <trkpt lat="45.5008" lon="-1.13616">
        <ele>61</ele>
        <time>2025-04-26T11:58:35Z</time>
      </trkpt>
      <trkpt lat="45.50083" lon="-1.13613">
        <ele>61</ele>
        <time>2025-04-26T11:58:36Z</time>
      </trkpt>
      <trkpt lat="45.50087" lon="-1.1361">
        <ele>61</ele>
        <time>2025-04-26T11:58:37Z</time>
      </trkpt>
      <trkpt lat="45.5009" lon="-1.13608">
        <ele>61</ele>
        <time>2025-04-26T11:58:38Z</time>
      </trkpt>
      <trkpt lat="45.50093" lon="-1.13605">
        <ele>61</ele>
        <time>2025-04-26T11:58:39Z</time>
      </trkpt>
      <trkpt lat="45.50096" lon="-1.13602">
        <ele>61</ele>
        <time>2025-04-26T11:58:40Z</time>
      </trkpt>
      <trkpt lat="45.50099" lon="-1.13599">
        <ele>62</ele>
        <time>2025-04-26T11:58:41Z</time>
      </trkpt>
      <trkpt lat="45.50103" lon="-1.13597">
        <ele>62</ele>
        <time>2025-04-26T11:58:42Z</time>
      </trkpt>
      <trkpt lat="45.50106" lon="-1.13595">
        <ele>62</ele>
        <time>2025-04-26T11:58:43Z</time>
      </trkpt>
      <trkpt lat="45.50109" lon="-1.13593">
        <ele>62</ele>
        <time>2025-04-26T11:58:44Z</time>
      </trkpt>
      <trkpt lat="45.50112" lon="-1.1359">
        <ele>61</ele>
        <time>2025-04-26T11:58:45Z</time>
      </trkpt>
      <trkpt lat="45.50116" lon="-1.13587">
        <ele>62</ele>
        <time>2025-04-26T11:58:46Z</time>
      </trkpt>
      <trkpt lat="45.50119" lon="-1.13584">
        <ele>62</ele>
        <time>2025-04-26T11:58:47Z</time>
      </trkpt>
      <trkpt lat="45.50123" lon="-1.13582">
        <ele>62</ele>
        <time>2025-04-26T11:58:48Z</time>
      </trkpt>
      <trkpt lat="45.50126" lon="-1.13579">
        <ele>62</ele>
        <time>2025-04-26T11:58:49Z</time>
      </trkpt>
      <trkpt lat="45.50129" lon="-1.13576">
        <ele>63</ele>
        <time>2025-04-26T11:58:50Z</time>
      </trkpt>
      <trkpt lat="45.50132" lon="-1.13573">
        <ele>63</ele>
        <time>2025-04-26T11:58:51Z</time>
      </trkpt>
      <trkpt lat="45.50135" lon="-1.13571">
        <ele>64</ele>
        <time>2025-04-26T11:58:52Z</time>
      </trkpt>
      <trkpt lat="45.50139" lon="-1.13568">
        <ele>63</ele>
        <time>2025-04-26T11:58:53Z</time>
      </trkpt>
      <trkpt lat="45.50142" lon="-1.13565">
        <ele>63</ele>
        <time>2025-04-26T11:58:54Z</time>
      </trkpt>
      <trkpt lat="45.50145" lon="-1.13562">
        <ele>63</ele>
        <time>2025-04-26T11:58:55Z</time>
      </trkpt>
      <trkpt lat="45.50149" lon="-1.1356">
        <ele>63</ele>
        <time>2025-04-26T11:58:56Z</time>
      </trkpt>
      <trkpt lat="45.50152" lon="-1.13557">
        <ele>63</ele>
        <time>2025-04-26T11:58:57Z</time>
      </trkpt>
      <trkpt lat="45.50156" lon="-1.13554">
        <ele>62</ele>
        <time>2025-04-26T11:58:58Z</time>
      </trkpt>
      <trkpt lat="45.5016" lon="-1.13551">
        <ele>62</ele>
        <time>2025-04-26T11:58:59Z</time>
      </trkpt>
      <trkpt lat="45.50164" lon="-1.13549">
        <ele>62</ele>
        <time>2025-04-26T11:59:00Z</time>
      </trkpt>
      <trkpt lat="45.50168" lon="-1.13546">
        <ele>62</ele>
        <time>2025-04-26T11:59:01Z</time>
      </trkpt>
      <trkpt lat="45.50172" lon="-1.13543">
        <ele>62</ele>
        <time>2025-04-26T11:59:02Z</time>
      </trkpt>
      <trkpt lat="45.50175" lon="-1.1354">
        <ele>62</ele>
        <time>2025-04-26T11:59:03Z</time>
      </trkpt>
      <trkpt lat="45.50178" lon="-1.13537">
        <ele>63</ele>
        <time>2025-04-26T11:59:04Z</time>
      </trkpt>
      <trkpt lat="45.50182" lon="-1.13535">
        <ele>62</ele>
        <time>2025-04-26T11:59:05Z</time>
      </trkpt>
      <trkpt lat="45.50186" lon="-1.13532">
        <ele>62</ele>
        <time>2025-04-26T11:59:06Z</time>
      </trkpt>
      <trkpt lat="45.50189" lon="-1.13529">
        <ele>62</ele>
        <time>2025-04-26T11:59:07Z</time>
      </trkpt>
      <trkpt lat="45.50193" lon="-1.13525">
        <ele>63</ele>
        <time>2025-04-26T11:59:08Z</time>
      </trkpt>
      <trkpt lat="45.50197" lon="-1.13522">
        <ele>63</ele>
        <time>2025-04-26T11:59:09Z</time>
      </trkpt>
      <trkpt lat="45.50201" lon="-1.1352">
        <ele>63</ele>
        <time>2025-04-26T11:59:10Z</time>
      </trkpt>
      <trkpt lat="45.50204" lon="-1.13516">
        <ele>64</ele>
        <time>2025-04-26T11:59:11Z</time>
      </trkpt>
      <trkpt lat="45.50208" lon="-1.13513">
        <ele>64</ele>
        <time>2025-04-26T11:59:12Z</time>
      </trkpt>
      <trkpt lat="45.50212" lon="-1.1351">
        <ele>64</ele>
        <time>2025-04-26T11:59:13Z</time>
      </trkpt>
      <trkpt lat="45.50215" lon="-1.13507">
        <ele>64</ele>
        <time>2025-04-26T11:59:14Z</time>
      </trkpt>
      <trkpt lat="45.50219" lon="-1.13504">
        <ele>64</ele>
        <time>2025-04-26T11:59:15Z</time>
      </trkpt>
      <trkpt lat="45.50223" lon="-1.13502">
        <ele>64</ele>
        <time>2025-04-26T11:59:16Z</time>
      </trkpt>
      <trkpt lat="45.50227" lon="-1.13499">
        <ele>64</ele>
        <time>2025-04-26T11:59:17Z</time>
      </trkpt>
      <trkpt lat="45.50231" lon="-1.13496">
        <ele>64</ele>
        <time>2025-04-26T11:59:18Z</time>
      </trkpt>
      <trkpt lat="45.50234" lon="-1.13494">
        <ele>63</ele>
        <time>2025-04-26T11:59:19Z</time>
      </trkpt>
      <trkpt lat="45.50238" lon="-1.13491">
        <ele>63</ele>
        <time>2025-04-26T11:59:20Z</time>
      </trkpt>
      <trkpt lat="45.50242" lon="-1.13488">
        <ele>63</ele>
        <time>2025-04-26T11:59:21Z</time>
      </trkpt>
      <trkpt lat="45.50245" lon="-1.13485">
        <ele>63</ele>
        <time>2025-04-26T11:59:22Z</time>
      </trkpt>
      <trkpt lat="45.50249" lon="-1.13481">
        <ele>63</ele>
        <time>2025-04-26T11:59:23Z</time>
      </trkpt>
      <trkpt lat="45.50252" lon="-1.13479">
        <ele>63</ele>
        <time>2025-04-26T11:59:24Z</time>
      </trkpt>
      <trkpt lat="45.50256" lon="-1.13476">
        <ele>63</ele>
        <time>2025-04-26T11:59:25Z</time>
      </trkpt>
      <trkpt lat="45.50259" lon="-1.13473">
        <ele>62</ele>
        <time>2025-04-26T11:59:26Z</time>
      </trkpt>
      <trkpt lat="45.50263" lon="-1.13471">
        <ele>62</ele>
        <time>2025-04-26T11:59:27Z</time>
      </trkpt>
      <trkpt lat="45.50267" lon="-1.13469">
        <ele>62</ele>
        <time>2025-04-26T11:59:28Z</time>
      </trkpt>
      <trkpt lat="45.50271" lon="-1.13465">
        <ele>62</ele>
        <time>2025-04-26T11:59:29Z</time>
      </trkpt>
      <trkpt lat="45.50274" lon="-1.13462">
        <ele>62</ele>
        <time>2025-04-26T11:59:30Z</time>
      </trkpt>
      <trkpt lat="45.50277" lon="-1.13458">
        <ele>62</ele>
        <time>2025-04-26T11:59:31Z</time>
      </trkpt>
      <trkpt lat="45.5028" lon="-1.13455">
        <ele>63</ele>
        <time>2025-04-26T11:59:32Z</time>
      </trkpt>
      <trkpt lat="45.50284" lon="-1.13452">
        <ele>63</ele>
        <time>2025-04-26T11:59:33Z</time>
      </trkpt>
      <trkpt lat="45.50287" lon="-1.13449">
        <ele>64</ele>
        <time>2025-04-26T11:59:34Z</time>
      </trkpt>
      <trkpt lat="45.50291" lon="-1.13446">
        <ele>65</ele>
        <time>2025-04-26T11:59:35Z</time>
      </trkpt>
      <trkpt lat="45.50295" lon="-1.13443">
        <ele>65</ele>
        <time>2025-04-26T11:59:36Z</time>
      </trkpt>
      <trkpt lat="45.50299" lon="-1.13441">
        <ele>65</ele>
        <time>2025-04-26T11:59:37Z</time>
      </trkpt>
      <trkpt lat="45.50302" lon="-1.13439">
        <ele>65</ele>
        <time>2025-04-26T11:59:38Z</time>
      </trkpt>
      <trkpt lat="45.50306" lon="-1.13436">
        <ele>65</ele>
        <time>2025-04-26T11:59:39Z</time>
      </trkpt>
      <trkpt lat="45.50309" lon="-1.13433">
        <ele>65</ele>
        <time>2025-04-26T11:59:40Z</time>
      </trkpt>
      <trkpt lat="45.50313" lon="-1.1343">
        <ele>65</ele>
        <time>2025-04-26T11:59:41Z</time>
      </trkpt>
      <trkpt lat="45.50316" lon="-1.13428">
        <ele>64</ele>
        <time>2025-04-26T11:59:42Z</time>
      </trkpt>
      <trkpt lat="45.50319" lon="-1.13425">
        <ele>64</ele>
        <time>2025-04-26T11:59:43Z</time>
      </trkpt>
      <trkpt lat="45.50323" lon="-1.13422">
        <ele>64</ele>
        <time>2025-04-26T11:59:44Z</time>
      </trkpt>
      <trkpt lat="45.50326" lon="-1.13419">
        <ele>64</ele>
        <time>2025-04-26T11:59:45Z</time>
      </trkpt>
      <trkpt lat="45.5033" lon="-1.13417">
        <ele>64</ele>
        <time>2025-04-26T11:59:46Z</time>
      </trkpt>
      <trkpt lat="45.50333" lon="-1.13414">
        <ele>64</ele>
        <time>2025-04-26T11:59:47Z</time>
      </trkpt>
      <trkpt lat="45.50336" lon="-1.13411">
        <ele>64</ele>
        <time>2025-04-26T11:59:48Z</time>
      </trkpt>
      <trkpt lat="45.5034" lon="-1.13408">
        <ele>64</ele>
        <time>2025-04-26T11:59:49Z</time>
      </trkpt>
      <trkpt lat="45.50343" lon="-1.13406">
        <ele>64</ele>
        <time>2025-04-26T11:59:50Z</time>
      </trkpt>
      <trkpt lat="45.50347" lon="-1.13403">
        <ele>64</ele>
        <time>2025-04-26T11:59:51Z</time>
      </trkpt>
      <trkpt lat="45.5035" lon="-1.13401">
        <ele>64</ele>
        <time>2025-04-26T11:59:52Z</time>
      </trkpt>
      <trkpt lat="45.50353" lon="-1.13399">
        <ele>64</ele>
        <time>2025-04-26T11:59:53Z</time>
      </trkpt>
      <trkpt lat="45.50357" lon="-1.13397">
        <ele>64</ele>
        <time>2025-04-26T11:59:54Z</time>
      </trkpt>
      <trkpt lat="45.50359" lon="-1.13395">
        <ele>64</ele>
        <time>2025-04-26T11:59:55Z</time>
      </trkpt>
      <trkpt lat="45.50362" lon="-1.13392">
        <ele>64</ele>
        <time>2025-04-26T11:59:56Z</time>
      </trkpt>
      <trkpt lat="45.50365" lon="-1.1339">
        <ele>64</ele>
        <time>2025-04-26T11:59:57Z</time>
      </trkpt>
      <trkpt lat="45.50369" lon="-1.13387">
        <ele>64</ele>
        <time>2025-04-26T11:59:58Z</time>
      </trkpt>
      <trkpt lat="45.50372" lon="-1.13383">
        <ele>64</ele>
        <time>2025-04-26T11:59:59Z</time>
      </trkpt>
      <trkpt lat="45.50376" lon="-1.13381">
        <ele>64</ele>
        <time>2025-04-26T12:00:00Z</time>
      </trkpt>
      <trkpt lat="45.50379" lon="-1.13379">
        <ele>64</ele>
        <time>2025-04-26T12:00:01Z</time>
      </trkpt>
      <trkpt lat="45.50382" lon="-1.13376">
        <ele>64</ele>
        <time>2025-04-26T12:00:02Z</time>
      </trkpt>
      <trkpt lat="45.50386" lon="-1.13373">
        <ele>64</ele>
        <time>2025-04-26T12:00:03Z</time>
      </trkpt>
      <trkpt lat="45.50389" lon="-1.1337">
        <ele>64</ele>
        <time>2025-04-26T12:00:04Z</time>
      </trkpt>
      <trkpt lat="45.50392" lon="-1.13368">
        <ele>63</ele>
        <time>2025-04-26T12:00:05Z</time>
      </trkpt>
      <trkpt lat="45.50396" lon="-1.13365">
        <ele>64</ele>
        <time>2025-04-26T12:00:06Z</time>
      </trkpt>
      <trkpt lat="45.50399" lon="-1.13363">
        <ele>63</ele>
        <time>2025-04-26T12:00:07Z</time>
      </trkpt>
      <trkpt lat="45.50402" lon="-1.1336">
        <ele>64</ele>
        <time>2025-04-26T12:00:08Z</time>
      </trkpt>
      <trkpt lat="45.50405" lon="-1.13357">
        <ele>64</ele>
        <time>2025-04-26T12:00:09Z</time>
      </trkpt>
      <trkpt lat="45.50409" lon="-1.13355">
        <ele>64</ele>
        <time>2025-04-26T12:00:10Z</time>
      </trkpt>
      <trkpt lat="45.50412" lon="-1.13352">
        <ele>64</ele>
        <time>2025-04-26T12:00:11Z</time>
      </trkpt>
      <trkpt lat="45.50416" lon="-1.13349">
        <ele>64</ele>
        <time>2025-04-26T12:00:12Z</time>
      </trkpt>
      <trkpt lat="45.50419" lon="-1.13347">
        <ele>64</ele>
        <time>2025-04-26T12:00:13Z</time>
      </trkpt>
      <trkpt lat="45.50422" lon="-1.13344">
        <ele>64</ele>
        <time>2025-04-26T12:00:14Z</time>
      </trkpt>
      <trkpt lat="45.50426" lon="-1.13341">
        <ele>64</ele>
        <time>2025-04-26T12:00:15Z</time>
      </trkpt>
      <trkpt lat="45.50429" lon="-1.13338">
        <ele>65</ele>
        <time>2025-04-26T12:00:16Z</time>
      </trkpt>
      <trkpt lat="45.50432" lon="-1.13336">
        <ele>65</ele>
        <time>2025-04-26T12:00:17Z</time>
      </trkpt>
      <trkpt lat="45.50436" lon="-1.13334">
        <ele>64</ele>
        <time>2025-04-26T12:00:18Z</time>
      </trkpt>
      <trkpt lat="45.50439" lon="-1.13331">
        <ele>64</ele>
        <time>2025-04-26T12:00:19Z</time>
      </trkpt>
      <trkpt lat="45.50442" lon="-1.13329">
        <ele>64</ele>
        <time>2025-04-26T12:00:20Z</time>
      </trkpt>
      <trkpt lat="45.50445" lon="-1.13326">
        <ele>63</ele>
        <time>2025-04-26T12:00:21Z</time>
      </trkpt>
      <trkpt lat="45.50449" lon="-1.13323">
        <ele>63</ele>
        <time>2025-04-26T12:00:22Z</time>
      </trkpt>
      <trkpt lat="45.50452" lon="-1.1332">
        <ele>63</ele>
        <time>2025-04-26T12:00:23Z</time>
      </trkpt>
      <trkpt lat="45.50456" lon="-1.13318">
        <ele>64</ele>
        <time>2025-04-26T12:00:24Z</time>
      </trkpt>
      <trkpt lat="45.50459" lon="-1.13315">
        <ele>63</ele>
        <time>2025-04-26T12:00:25Z</time>
      </trkpt>
      <trkpt lat="45.50462" lon="-1.13311">
        <ele>63</ele>
        <time>2025-04-26T12:00:26Z</time>
      </trkpt>
      <trkpt lat="45.50465" lon="-1.13309">
        <ele>63</ele>
        <time>2025-04-26T12:00:27Z</time>
      </trkpt>
      <trkpt lat="45.50469" lon="-1.13306">
        <ele>63</ele>
        <time>2025-04-26T12:00:28Z</time>
      </trkpt>
      <trkpt lat="45.50473" lon="-1.13303">
        <ele>63</ele>
        <time>2025-04-26T12:00:29Z</time>
      </trkpt>
      <trkpt lat="45.50477" lon="-1.13301">
        <ele>62</ele>
        <time>2025-04-26T12:00:30Z</time>
      </trkpt>
      <trkpt lat="45.5048" lon="-1.13298">
        <ele>62</ele>
        <time>2025-04-26T12:00:31Z</time>
      </trkpt>
      <trkpt lat="45.50484" lon="-1.13296">
        <ele>62</ele>
        <time>2025-04-26T12:00:32Z</time>
      </trkpt>
      <trkpt lat="45.50488" lon="-1.13292">
        <ele>62</ele>
        <time>2025-04-26T12:00:33Z</time>
      </trkpt>
      <trkpt lat="45.50491" lon="-1.1329">
        <ele>62</ele>
        <time>2025-04-26T12:00:34Z</time>
      </trkpt>
      <trkpt lat="45.50495" lon="-1.13288">
        <ele>61</ele>
        <time>2025-04-26T12:00:35Z</time>
      </trkpt>
      <trkpt lat="45.50498" lon="-1.13286">
        <ele>61</ele>
        <time>2025-04-26T12:00:36Z</time>
      </trkpt>
      <trkpt lat="45.50501" lon="-1.13282">
        <ele>62</ele>
        <time>2025-04-26T12:00:37Z</time>
      </trkpt>
      <trkpt lat="45.50505" lon="-1.13278">
        <ele>62</ele>
        <time>2025-04-26T12:00:38Z</time>
      </trkpt>
      <trkpt lat="45.50508" lon="-1.13276">
        <ele>63</ele>
        <time>2025-04-26T12:00:39Z</time>
      </trkpt>
      <trkpt lat="45.50512" lon="-1.13272">
        <ele>63</ele>
        <time>2025-04-26T12:00:40Z</time>
      </trkpt>
      <trkpt lat="45.50515" lon="-1.1327">
        <ele>63</ele>
        <time>2025-04-26T12:00:41Z</time>
      </trkpt>
      <trkpt lat="45.50518" lon="-1.13268">
        <ele>62</ele>
        <time>2025-04-26T12:00:42Z</time>
      </trkpt>
      <trkpt lat="45.50521" lon="-1.13266">
        <ele>61</ele>
        <time>2025-04-26T12:00:43Z</time>
      </trkpt>
      <trkpt lat="45.50525" lon="-1.13263">
        <ele>61</ele>
        <time>2025-04-26T12:00:44Z</time>
      </trkpt>
      <trkpt lat="45.50529" lon="-1.1326">
        <ele>62</ele>
        <time>2025-04-26T12:00:45Z</time>
      </trkpt>
      <trkpt lat="45.50532" lon="-1.13257">
        <ele>62</ele>
        <time>2025-04-26T12:00:46Z</time>
      </trkpt>
      <trkpt lat="45.50536" lon="-1.13255">
        <ele>63</ele>
        <time>2025-04-26T12:00:47Z</time>
      </trkpt>
      <trkpt lat="45.50539" lon="-1.13252">
        <ele>63</ele>
        <time>2025-04-26T12:00:48Z</time>
      </trkpt>
      <trkpt lat="45.50542" lon="-1.1325">
        <ele>63</ele>
        <time>2025-04-26T12:00:49Z</time>
      </trkpt>
      <trkpt lat="45.50545" lon="-1.13248">
        <ele>63</ele>
        <time>2025-04-26T12:00:50Z</time>
      </trkpt>
      <trkpt lat="45.50548" lon="-1.13245">
        <ele>64</ele>
        <time>2025-04-26T12:00:51Z</time>
      </trkpt>
      <trkpt lat="45.50551" lon="-1.13243">
        <ele>63</ele>
        <time>2025-04-26T12:00:52Z</time>
      </trkpt>
      <trkpt lat="45.50554" lon="-1.13241">
        <ele>63</ele>
        <time>2025-04-26T12:00:53Z</time>
      </trkpt>
      <trkpt lat="45.50557" lon="-1.13239">
        <ele>63</ele>
        <time>2025-04-26T12:00:54Z</time>
      </trkpt>
      <trkpt lat="45.5056" lon="-1.13237">
        <ele>62</ele>
        <time>2025-04-26T12:00:55Z</time>
      </trkpt>
      <trkpt lat="45.50563" lon="-1.13235">
        <ele>62</ele>
        <time>2025-04-26T12:00:56Z</time>
      </trkpt>
      <trkpt lat="45.50566" lon="-1.13235">
        <ele>62</ele>
        <time>2025-04-26T12:00:57Z</time>
      </trkpt>
      <trkpt lat="45.50569" lon="-1.13232">
        <ele>62</ele>
        <time>2025-04-26T12:00:58Z</time>
      </trkpt>
      <trkpt lat="45.50571" lon="-1.13229">
        <ele>63</ele>
        <time>2025-04-26T12:00:59Z</time>
      </trkpt>
      <trkpt lat="45.50574" lon="-1.13227">
        <ele>64</ele>
        <time>2025-04-26T12:01:00Z</time>
      </trkpt>
      <trkpt lat="45.50576" lon="-1.13226">
        <ele>64</ele>
        <time>2025-04-26T12:01:01Z</time>
      </trkpt>
      <trkpt lat="45.50578" lon="-1.13226">
        <ele>63</ele>
        <time>2025-04-26T12:01:02Z</time>
      </trkpt>
      <trkpt lat="45.50579" lon="-1.13226">
        <ele>63</ele>
        <time>2025-04-26T12:01:03Z</time>
      </trkpt>
      <trkpt lat="45.50581" lon="-1.13225">
        <ele>63</ele>
        <time>2025-04-26T12:01:04Z</time>
      </trkpt>
      <trkpt lat="45.50582" lon="-1.13225">
        <ele>63</ele>
        <time>2025-04-26T12:01:05Z</time>
      </trkpt>
      <trkpt lat="45.50582" lon="-1.13225">
        <ele>63</ele>
        <time>2025-04-26T12:01:06Z</time>
      </trkpt>
      <trkpt lat="45.50582" lon="-1.13225">
        <ele>63</ele>
        <time>2025-04-26T12:01:07Z</time>
      </trkpt>
      <trkpt lat="45.50582" lon="-1.13225">
        <ele>63</ele>
        <time>2025-04-26T12:01:08Z</time>
      </trkpt>
      <trkpt lat="45.50582" lon="-1.13225">
        <ele>63</ele>
        <time>2025-04-26T12:01:09Z</time>
      </trkpt>
      <trkpt lat="45.50582" lon="-1.13225">
        <ele>63</ele>
        <time>2025-04-26T12:01:10Z</time>
      </trkpt>
      <trkpt lat="45.50582" lon="-1.13225">
        <ele>63</ele>
        <time>2025-04-26T12:01:11Z</time>
      </trkpt>
      <trkpt lat="45.50582" lon="-1.13225">
        <ele>63</ele>
        <time>2025-04-26T12:01:12Z</time>
      </trkpt>
      <trkpt lat="45.50582" lon="-1.13225">
        <ele>63</ele>
        <time>2025-04-26T12:01:13Z</time>
      </trkpt>
      <trkpt lat="45.50582" lon="-1.13225">
        <ele>63</ele>
        <time>2025-04-26T12:01:14Z</time>
      </trkpt>
      <trkpt lat="45.50582" lon="-1.13225">
        <ele>63</ele>
        <time>2025-04-26T12:01:15Z</time>
      </trkpt>
      <trkpt lat="45.50582" lon="-1.13225">
        <ele>63</ele>
        <time>2025-04-26T12:01:16Z</time>
      </trkpt>
      <trkpt lat="45.50582" lon="-1.13225">
        <ele>63</ele>
        <time>2025-04-26T12:01:17Z</time>
      </trkpt>
      <trkpt lat="45.50582" lon="-1.13225">
        <ele>63</ele>
        <time>2025-04-26T12:01:18Z</time>
      </trkpt>
      <trkpt lat="45.50582" lon="-1.13225">
        <ele>63</ele>
        <time>2025-04-26T12:01:19Z</time>
      </trkpt>
      <trkpt lat="45.50582" lon="-1.13225">
        <ele>63</ele>
        <time>2025-04-26T12:01:20Z</time>
      </trkpt>
      <trkpt lat="45.50582" lon="-1.13225">
        <ele>63</ele>
        <time>2025-04-26T12:01:21Z</time>
      </trkpt>
      <trkpt lat="45.50582" lon="-1.13225">
        <ele>63</ele>
        <time>2025-04-26T12:01:22Z</time>
      </trkpt>
      <trkpt lat="45.50582" lon="-1.13225">
        <ele>63</ele>
        <time>2025-04-26T12:01:23Z</time>
      </trkpt>
      <trkpt lat="45.50582" lon="-1.13225">
        <ele>63</ele>
        <time>2025-04-26T12:01:24Z</time>
      </trkpt>
      <trkpt lat="45.50582" lon="-1.13225">
        <ele>63</ele>
        <time>2025-04-26T12:01:25Z</time>
      </trkpt>
      <trkpt lat="45.50582" lon="-1.13225">
        <ele>63</ele>
        <time>2025-04-26T12:01:26Z</time>
      </trkpt>
      <trkpt lat="45.50582" lon="-1.13225">
        <ele>63</ele>
        <time>2025-04-26T12:01:27Z</time>
      </trkpt>
      <trkpt lat="45.50582" lon="-1.13225">
        <ele>63</ele>
        <time>2025-04-26T12:01:28Z</time>
      </trkpt>
      <trkpt lat="45.50582" lon="-1.13225">
        <ele>63</ele>
        <time>2025-04-26T12:01:29Z</time>
      </trkpt>
      <trkpt lat="45.50582" lon="-1.13225">
        <ele>63</ele>
        <time>2025-04-26T12:01:30Z</time>
      </trkpt>
      <trkpt lat="45.50582" lon="-1.13225">
        <ele>63</ele>
        <time>2025-04-26T12:01:31Z</time>
      </trkpt>
      <trkpt lat="45.50582" lon="-1.13225">
        <ele>63</ele>
        <time>2025-04-26T12:01:32Z</time>
      </trkpt>
      <trkpt lat="45.50582" lon="-1.13225">
        <ele>63</ele>
        <time>2025-04-26T12:01:33Z</time>
      </trkpt>
      <trkpt lat="45.50582" lon="-1.13225">
        <ele>63</ele>
        <time>2025-04-26T12:01:34Z</time>
      </trkpt>
      <trkpt lat="45.50582" lon="-1.13225">
        <ele>63</ele>
        <time>2025-04-26T12:01:35Z</time>
      </trkpt>
      <trkpt lat="45.50582" lon="-1.13225">
        <ele>63</ele>
        <time>2025-04-26T12:01:36Z</time>
      </trkpt>
      <trkpt lat="45.50582" lon="-1.13225">
        <ele>63</ele>
        <time>2025-04-26T12:01:37Z</time>
      </trkpt>
      <trkpt lat="45.50582" lon="-1.13225">
        <ele>63</ele>
        <time>2025-04-26T12:01:38Z</time>
      </trkpt>
      <trkpt lat="45.50582" lon="-1.13225">
        <ele>63</ele>
        <time>2025-04-26T12:01:39Z</time>
      </trkpt>
      <trkpt lat="45.50582" lon="-1.13225">
        <ele>63</ele>
        <time>2025-04-26T12:01:40Z</time>
      </trkpt>
      <trkpt lat="45.50582" lon="-1.13225">
        <ele>63</ele>
        <time>2025-04-26T12:01:41Z</time>
      </trkpt>
      <trkpt lat="45.50582" lon="-1.13225">
        <ele>63</ele>
        <time>2025-04-26T12:01:42Z</time>
      </trkpt>
      <trkpt lat="45.50582" lon="-1.13225">
        <ele>63</ele>
        <time>2025-04-26T12:01:43Z</time>
      </trkpt>
      <trkpt lat="45.50582" lon="-1.13225">
        <ele>63</ele>
        <time>2025-04-26T12:01:44Z</time>
      </trkpt>
      <trkpt lat="45.50582" lon="-1.13225">
        <ele>63</ele>
        <time>2025-04-26T12:01:45Z</time>
      </trkpt>
      <trkpt lat="45.50582" lon="-1.13225">
        <ele>63</ele>
        <time>2025-04-26T12:01:46Z</time>
      </trkpt>
      <trkpt lat="45.50582" lon="-1.13225">
        <ele>63</ele>
        <time>2025-04-26T12:01:47Z</time>
      </trkpt>
      <trkpt lat="45.50582" lon="-1.13225">
        <ele>63</ele>
        <time>2025-04-26T12:01:48Z</time>
      </trkpt>
      <trkpt lat="45.50582" lon="-1.13225">
        <ele>63</ele>
        <time>2025-04-26T12:01:49Z</time>
      </trkpt>
      <trkpt lat="45.50582" lon="-1.13225">
        <ele>63</ele>
        <time>2025-04-26T12:01:50Z</time>
      </trkpt>
      <trkpt lat="45.50582" lon="-1.13225">
        <ele>63</ele>
        <time>2025-04-26T12:01:51Z</time>
      </trkpt>
      <trkpt lat="45.50582" lon="-1.13225">
        <ele>63</ele>
        <time>2025-04-26T12:01:52Z</time>
      </trkpt>
      <trkpt lat="45.50584" lon="-1.13226">
        <ele>62</ele>
        <time>2025-04-26T12:01:53Z</time>
      </trkpt>
      <trkpt lat="45.50586" lon="-1.13226">
        <ele>62</ele>
        <time>2025-04-26T12:01:54Z</time>
      </trkpt>
      <trkpt lat="45.50588" lon="-1.13228">
        <ele>63</ele>
        <time>2025-04-26T12:01:55Z</time>
      </trkpt>
      <trkpt lat="45.50589" lon="-1.1323">
        <ele>63</ele>
        <time>2025-04-26T12:01:56Z</time>
      </trkpt>
      <trkpt lat="45.50591" lon="-1.13232">
        <ele>63</ele>
        <time>2025-04-26T12:01:57Z</time>
      </trkpt>
      <trkpt lat="45.50592" lon="-1.13234">
        <ele>63</ele>
        <time>2025-04-26T12:01:58Z</time>
      </trkpt>
      <trkpt lat="45.50593" lon="-1.13236">
        <ele>62</ele>
        <time>2025-04-26T12:01:59Z</time>
      </trkpt>
      <trkpt lat="45.50594" lon="-1.1324">
        <ele>62</ele>
        <time>2025-04-26T12:02:00Z</time>
      </trkpt>
      <trkpt lat="45.50596" lon="-1.13243">
        <ele>62</ele>
        <time>2025-04-26T12:02:01Z</time>
      </trkpt>
      <trkpt lat="45.50597" lon="-1.13247">
        <ele>62</ele>
        <time>2025-04-26T12:02:02Z</time>
      </trkpt>
      <trkpt lat="45.50598" lon="-1.13251">
        <ele>62</ele>
        <time>2025-04-26T12:02:03Z</time>
      </trkpt>
      <trkpt lat="45.506" lon="-1.13255">
        <ele>62</ele>
        <time>2025-04-26T12:02:04Z</time>
      </trkpt>
      <trkpt lat="45.50601" lon="-1.13259">
        <ele>63</ele>
        <time>2025-04-26T12:02:05Z</time>
      </trkpt>
      <trkpt lat="45.50603" lon="-1.13264">
        <ele>63</ele>
        <time>2025-04-26T12:02:06Z</time>
      </trkpt>
      <trkpt lat="45.50604" lon="-1.13267">
        <ele>63</ele>
        <time>2025-04-26T12:02:07Z</time>
      </trkpt>
      <trkpt lat="45.50606" lon="-1.13271">
        <ele>63</ele>
        <time>2025-04-26T12:02:08Z</time>
      </trkpt>
      <trkpt lat="45.50607" lon="-1.13275">
        <ele>63</ele>
        <time>2025-04-26T12:02:09Z</time>
      </trkpt>
      <trkpt lat="45.50609" lon="-1.13279">
        <ele>63</ele>
        <time>2025-04-26T12:02:10Z</time>
      </trkpt>
      <trkpt lat="45.5061" lon="-1.13283">
        <ele>63</ele>
        <time>2025-04-26T12:02:11Z</time>
      </trkpt>
      <trkpt lat="45.50612" lon="-1.13288">
        <ele>63</ele>
        <time>2025-04-26T12:02:12Z</time>
      </trkpt>
      <trkpt lat="45.50613" lon="-1.13292">
        <ele>64</ele>
        <time>2025-04-26T12:02:13Z</time>
      </trkpt>
      <trkpt lat="45.50615" lon="-1.13296">
        <ele>64</ele>
        <time>2025-04-26T12:02:14Z</time>
      </trkpt>
      <trkpt lat="45.50616" lon="-1.133">
        <ele>64</ele>
        <time>2025-04-26T12:02:15Z</time>
      </trkpt>
      <trkpt lat="45.50618" lon="-1.13304">
        <ele>63</ele>
        <time>2025-04-26T12:02:16Z</time>
      </trkpt>
      <trkpt lat="45.50619" lon="-1.13308">
        <ele>64</ele>
        <time>2025-04-26T12:02:17Z</time>
      </trkpt>
      <trkpt lat="45.50621" lon="-1.13312">
        <ele>64</ele>
        <time>2025-04-26T12:02:18Z</time>
      </trkpt>
      <trkpt lat="45.50623" lon="-1.13316">
        <ele>64</ele>
        <time>2025-04-26T12:02:19Z</time>
      </trkpt>
      <trkpt lat="45.50624" lon="-1.1332">
        <ele>63</ele>
        <time>2025-04-26T12:02:20Z</time>
      </trkpt>
      <trkpt lat="45.50625" lon="-1.13324">
        <ele>63</ele>
        <time>2025-04-26T12:02:21Z</time>
      </trkpt>
      <trkpt lat="45.50627" lon="-1.13328">
        <ele>63</ele>
        <time>2025-04-26T12:02:22Z</time>
      </trkpt>
      <trkpt lat="45.50628" lon="-1.13332">
        <ele>63</ele>
        <time>2025-04-26T12:02:23Z</time>
      </trkpt>
      <trkpt lat="45.50629" lon="-1.13336">
        <ele>63</ele>
        <time>2025-04-26T12:02:24Z</time>
      </trkpt>
      <trkpt lat="45.50631" lon="-1.1334">
        <ele>63</ele>
        <time>2025-04-26T12:02:25Z</time>
      </trkpt>
      <trkpt lat="45.50632" lon="-1.13344">
        <ele>63</ele>
        <time>2025-04-26T12:02:26Z</time>
      </trkpt>
      <trkpt lat="45.50633" lon="-1.13348">
        <ele>63</ele>
        <time>2025-04-26T12:02:27Z</time>
      </trkpt>
      <trkpt lat="45.50635" lon="-1.13351">
        <ele>63</ele>
        <time>2025-04-26T12:02:28Z</time>
      </trkpt>
      <trkpt lat="45.50637" lon="-1.13355">
        <ele>63</ele>
        <time>2025-04-26T12:02:29Z</time>
      </trkpt>
      <trkpt lat="45.50638" lon="-1.13359">
        <ele>63</ele>
        <time>2025-04-26T12:02:30Z</time>
      </trkpt>
      <trkpt lat="45.50639" lon="-1.13362">
        <ele>63</ele>
        <time>2025-04-26T12:02:31Z</time>
      </trkpt>
      <trkpt lat="45.50641" lon="-1.13366">
        <ele>63</ele>
        <time>2025-04-26T12:02:32Z</time>
      </trkpt>
      <trkpt lat="45.50642" lon="-1.13371">
        <ele>63</ele>
        <time>2025-04-26T12:02:33Z</time>
      </trkpt>
      <trkpt lat="45.50644" lon="-1.13375">
        <ele>63</ele>
        <time>2025-04-26T12:02:34Z</time>
      </trkpt>
      <trkpt lat="45.50646" lon="-1.13379">
        <ele>63</ele>
        <time>2025-04-26T12:02:35Z</time>
      </trkpt>
      <trkpt lat="45.50647" lon="-1.13383">
        <ele>63</ele>
        <time>2025-04-26T12:02:36Z</time>
      </trkpt>
      <trkpt lat="45.50649" lon="-1.13387">
        <ele>64</ele>
        <time>2025-04-26T12:02:37Z</time>
      </trkpt>
      <trkpt lat="45.5065" lon="-1.13391">
        <ele>64</ele>
        <time>2025-04-26T12:02:38Z</time>
      </trkpt>
      <trkpt lat="45.50651" lon="-1.13395">
        <ele>64</ele>
        <time>2025-04-26T12:02:39Z</time>
      </trkpt>
      <trkpt lat="45.50652" lon="-1.13399">
        <ele>64</ele>
        <time>2025-04-26T12:02:40Z</time>
      </trkpt>
      <trkpt lat="45.50654" lon="-1.13403">
        <ele>64</ele>
        <time>2025-04-26T12:02:41Z</time>
      </trkpt>
      <trkpt lat="45.50655" lon="-1.13407">
        <ele>64</ele>
        <time>2025-04-26T12:02:42Z</time>
      </trkpt>
      <trkpt lat="45.50656" lon="-1.13411">
        <ele>64</ele>
        <time>2025-04-26T12:02:43Z</time>
      </trkpt>
      <trkpt lat="45.50658" lon="-1.13415">
        <ele>64</ele>
        <time>2025-04-26T12:02:44Z</time>
      </trkpt>
      <trkpt lat="45.50659" lon="-1.13419">
        <ele>64</ele>
        <time>2025-04-26T12:02:45Z</time>
      </trkpt>
      <trkpt lat="45.50661" lon="-1.13422">
        <ele>64</ele>
        <time>2025-04-26T12:02:46Z</time>
      </trkpt>
      <trkpt lat="45.50663" lon="-1.13426">
        <ele>64</ele>
        <time>2025-04-26T12:02:47Z</time>
      </trkpt>
      <trkpt lat="45.50664" lon="-1.1343">
        <ele>65</ele>
        <time>2025-04-26T12:02:48Z</time>
      </trkpt>
      <trkpt lat="45.50665" lon="-1.13433">
        <ele>65</ele>
        <time>2025-04-26T12:02:49Z</time>
      </trkpt>
      <trkpt lat="45.50667" lon="-1.13438">
        <ele>65</ele>
        <time>2025-04-26T12:02:50Z</time>
      </trkpt>
      <trkpt lat="45.50668" lon="-1.13442">
        <ele>64</ele>
        <time>2025-04-26T12:02:51Z</time>
      </trkpt>
      <trkpt lat="45.5067" lon="-1.13445">
        <ele>64</ele>
        <time>2025-04-26T12:02:52Z</time>
      </trkpt>
      <trkpt lat="45.50671" lon="-1.13449">
        <ele>64</ele>
        <time>2025-04-26T12:02:53Z</time>
      </trkpt>
      <trkpt lat="45.50673" lon="-1.13452">
        <ele>64</ele>
        <time>2025-04-26T12:02:54Z</time>
      </trkpt>
      <trkpt lat="45.50676" lon="-1.13455">
        <ele>64</ele>
        <time>2025-04-26T12:02:55Z</time>
      </trkpt>
      <trkpt lat="45.50678" lon="-1.13457">
        <ele>64</ele>
        <time>2025-04-26T12:02:56Z</time>
      </trkpt>
      <trkpt lat="45.50681" lon="-1.13459">
        <ele>64</ele>
        <time>2025-04-26T12:02:57Z</time>
      </trkpt>
      <trkpt lat="45.50684" lon="-1.13461">
        <ele>64</ele>
        <time>2025-04-26T12:02:58Z</time>
      </trkpt>
      <trkpt lat="45.50687" lon="-1.13462">
        <ele>64</ele>
        <time>2025-04-26T12:02:59Z</time>
      </trkpt>
      <trkpt lat="45.50689" lon="-1.13462">
        <ele>64</ele>
        <time>2025-04-26T12:03:00Z</time>
      </trkpt>
      <trkpt lat="45.50693" lon="-1.13461">
        <ele>64</ele>
        <time>2025-04-26T12:03:01Z</time>
      </trkpt>
      <trkpt lat="45.50696" lon="-1.1346">
        <ele>65</ele>
        <time>2025-04-26T12:03:02Z</time>
      </trkpt>
      <trkpt lat="45.50699" lon="-1.1346">
        <ele>65</ele>
        <time>2025-04-26T12:03:03Z</time>
      </trkpt>
      <trkpt lat="45.50702" lon="-1.1346">
        <ele>65</ele>
        <time>2025-04-26T12:03:04Z</time>
      </trkpt>
      <trkpt lat="45.50705" lon="-1.13459">
        <ele>65</ele>
        <time>2025-04-26T12:03:05Z</time>
      </trkpt>
      <trkpt lat="45.50707" lon="-1.13456">
        <ele>65</ele>
        <time>2025-04-26T12:03:06Z</time>
      </trkpt>
      <trkpt lat="45.5071" lon="-1.13454">
        <ele>65</ele>
        <time>2025-04-26T12:03:07Z</time>
      </trkpt>
      <trkpt lat="45.50713" lon="-1.13452">
        <ele>65</ele>
        <time>2025-04-26T12:03:08Z</time>
      </trkpt>
      <trkpt lat="45.50716" lon="-1.1345">
        <ele>65</ele>
        <time>2025-04-26T12:03:09Z</time>
      </trkpt>
      <trkpt lat="45.50719" lon="-1.13448">
        <ele>65</ele>
        <time>2025-04-26T12:03:10Z</time>
      </trkpt>
      <trkpt lat="45.50721" lon="-1.13446">
        <ele>65</ele>
        <time>2025-04-26T12:03:11Z</time>
      </trkpt>
      <trkpt lat="45.50724" lon="-1.13444">
        <ele>65</ele>
        <time>2025-04-26T12:03:12Z</time>
      </trkpt>
      <trkpt lat="45.50727" lon="-1.13442">
        <ele>65</ele>
        <time>2025-04-26T12:03:13Z</time>
      </trkpt>
      <trkpt lat="45.5073" lon="-1.1344">
        <ele>65</ele>
        <time>2025-04-26T12:03:14Z</time>
      </trkpt>
      <trkpt lat="45.50733" lon="-1.13438">
        <ele>65</ele>
        <time>2025-04-26T12:03:15Z</time>
      </trkpt>
      <trkpt lat="45.50735" lon="-1.13436">
        <ele>65</ele>
        <time>2025-04-26T12:03:16Z</time>
      </trkpt>
      <trkpt lat="45.50738" lon="-1.13434">
        <ele>66</ele>
        <time>2025-04-26T12:03:17Z</time>
      </trkpt>
      <trkpt lat="45.50741" lon="-1.13432">
        <ele>66</ele>
        <time>2025-04-26T12:03:18Z</time>
      </trkpt>
      <trkpt lat="45.50743" lon="-1.1343">
        <ele>66</ele>
        <time>2025-04-26T12:03:19Z</time>
      </trkpt>
      <trkpt lat="45.50747" lon="-1.13428">
        <ele>66</ele>
        <time>2025-04-26T12:03:20Z</time>
      </trkpt>
      <trkpt lat="45.5075" lon="-1.13426">
        <ele>66</ele>
        <time>2025-04-26T12:03:21Z</time>
      </trkpt>
      <trkpt lat="45.50752" lon="-1.13425">
        <ele>66</ele>
        <time>2025-04-26T12:03:22Z</time>
      </trkpt>
      <trkpt lat="45.50755" lon="-1.13423">
        <ele>66</ele>
        <time>2025-04-26T12:03:23Z</time>
      </trkpt>
      <trkpt lat="45.50758" lon="-1.13421">
        <ele>66</ele>
        <time>2025-04-26T12:03:24Z</time>
      </trkpt>
      <trkpt lat="45.5076" lon="-1.13419">
        <ele>66</ele>
        <time>2025-04-26T12:03:25Z</time>
      </trkpt>
      <trkpt lat="45.50763" lon="-1.13417">
        <ele>66</ele>
        <time>2025-04-26T12:03:26Z</time>
      </trkpt>
      <trkpt lat="45.50766" lon="-1.13415">
        <ele>66</ele>
        <time>2025-04-26T12:03:27Z</time>
      </trkpt>
      <trkpt lat="45.50769" lon="-1.13413">
        <ele>66</ele>
        <time>2025-04-26T12:03:28Z</time>
      </trkpt>
      <trkpt lat="45.50772" lon="-1.13411">
        <ele>66</ele>
        <time>2025-04-26T12:03:29Z</time>
      </trkpt>
      <trkpt lat="45.50774" lon="-1.13409">
        <ele>66</ele>
        <time>2025-04-26T12:03:30Z</time>
      </trkpt>
      <trkpt lat="45.50777" lon="-1.13407">
        <ele>66</ele>
        <time>2025-04-26T12:03:31Z</time>
      </trkpt>
      <trkpt lat="45.5078" lon="-1.13406">
        <ele>66</ele>
        <time>2025-04-26T12:03:32Z</time>
      </trkpt>
      <trkpt lat="45.50783" lon="-1.13404">
        <ele>66</ele>
        <time>2025-04-26T12:03:33Z</time>
      </trkpt>
      <trkpt lat="45.50786" lon="-1.13402">
        <ele>66</ele>
        <time>2025-04-26T12:03:34Z</time>
      </trkpt>
      <trkpt lat="45.50788" lon="-1.134">
        <ele>66</ele>
        <time>2025-04-26T12:03:35Z</time>
      </trkpt>
      <trkpt lat="45.50791" lon="-1.13398">
        <ele>66</ele>
        <time>2025-04-26T12:03:36Z</time>
      </trkpt>
      <trkpt lat="45.50794" lon="-1.13395">
        <ele>66</ele>
        <time>2025-04-26T12:03:37Z</time>
      </trkpt>
      <trkpt lat="45.50796" lon="-1.13393">
        <ele>66</ele>
        <time>2025-04-26T12:03:38Z</time>
      </trkpt>
      <trkpt lat="45.50799" lon="-1.13391">
        <ele>66</ele>
        <time>2025-04-26T12:03:39Z</time>
      </trkpt>
      <trkpt lat="45.50801" lon="-1.13389">
        <ele>66</ele>
        <time>2025-04-26T12:03:40Z</time>
      </trkpt>
      <trkpt lat="45.50804" lon="-1.13387">
        <ele>67</ele>
        <time>2025-04-26T12:03:41Z</time>
      </trkpt>
      <trkpt lat="45.50807" lon="-1.13386">
        <ele>67</ele>
        <time>2025-04-26T12:03:42Z</time>
      </trkpt>
      <trkpt lat="45.50809" lon="-1.13384">
        <ele>67</ele>
        <time>2025-04-26T12:03:43Z</time>
      </trkpt>
      <trkpt lat="45.50812" lon="-1.13382">
        <ele>67</ele>
        <time>2025-04-26T12:03:44Z</time>
      </trkpt>
      <trkpt lat="45.50815" lon="-1.1338">
        <ele>67</ele>
        <time>2025-04-26T12:03:45Z</time>
      </trkpt>
      <trkpt lat="45.50818" lon="-1.13378">
        <ele>67</ele>
        <time>2025-04-26T12:03:46Z</time>
      </trkpt>
      <trkpt lat="45.50821" lon="-1.13376">
        <ele>67</ele>
        <time>2025-04-26T12:03:47Z</time>
      </trkpt>
      <trkpt lat="45.50824" lon="-1.13374">
        <ele>67</ele>
        <time>2025-04-26T12:03:48Z</time>
      </trkpt>
      <trkpt lat="45.50827" lon="-1.13372">
        <ele>67</ele>
        <time>2025-04-26T12:03:49Z</time>
      </trkpt>
      <trkpt lat="45.50831" lon="-1.1337">
        <ele>67</ele>
        <time>2025-04-26T12:03:50Z</time>
      </trkpt>
      <trkpt lat="45.50834" lon="-1.13367">
        <ele>67</ele>
        <time>2025-04-26T12:03:51Z</time>
      </trkpt>
      <trkpt lat="45.50837" lon="-1.13364">
        <ele>67</ele>
        <time>2025-04-26T12:03:52Z</time>
      </trkpt>
      <trkpt lat="45.50841" lon="-1.13362">
        <ele>67</ele>
        <time>2025-04-26T12:03:53Z</time>
      </trkpt>
      <trkpt lat="45.50845" lon="-1.13359">
        <ele>67</ele>
        <time>2025-04-26T12:03:54Z</time>
      </trkpt>
      <trkpt lat="45.50848" lon="-1.13356">
        <ele>67</ele>
        <time>2025-04-26T12:03:55Z</time>
      </trkpt>
      <trkpt lat="45.50852" lon="-1.13353">
        <ele>67</ele>
        <time>2025-04-26T12:03:56Z</time>
      </trkpt>
      <trkpt lat="45.50856" lon="-1.13351">
        <ele>67</ele>
        <time>2025-04-26T12:03:57Z</time>
      </trkpt>
      <trkpt lat="45.5086" lon="-1.13348">
        <ele>67</ele>
        <time>2025-04-26T12:03:58Z</time>
      </trkpt>
      <trkpt lat="45.50863" lon="-1.13346">
        <ele>67</ele>
        <time>2025-04-26T12:03:59Z</time>
      </trkpt>
      <trkpt lat="45.50867" lon="-1.13343">
        <ele>67</ele>
        <time>2025-04-26T12:04:00Z</time>
      </trkpt>
      <trkpt lat="45.50871" lon="-1.13341">
        <ele>67</ele>
        <time>2025-04-26T12:04:01Z</time>
      </trkpt>
      <trkpt lat="45.50875" lon="-1.13339">
        <ele>67</ele>
        <time>2025-04-26T12:04:02Z</time>
      </trkpt>
      <trkpt lat="45.50878" lon="-1.13337">
        <ele>66</ele>
        <time>2025-04-26T12:04:03Z</time>
      </trkpt>
      <trkpt lat="45.50882" lon="-1.13336">
        <ele>66</ele>
        <time>2025-04-26T12:04:04Z</time>
      </trkpt>
      <trkpt lat="45.50886" lon="-1.13334">
        <ele>66</ele>
        <time>2025-04-26T12:04:05Z</time>
      </trkpt>
      <trkpt lat="45.5089" lon="-1.13333">
        <ele>66</ele>
        <time>2025-04-26T12:04:06Z</time>
      </trkpt>
      <trkpt lat="45.50894" lon="-1.13331">
        <ele>66</ele>
        <time>2025-04-26T12:04:07Z</time>
      </trkpt>
      <trkpt lat="45.50897" lon="-1.1333">
        <ele>66</ele>
        <time>2025-04-26T12:04:08Z</time>
      </trkpt>
      <trkpt lat="45.50901" lon="-1.13328">
        <ele>66</ele>
        <time>2025-04-26T12:04:09Z</time>
      </trkpt>
      <trkpt lat="45.50904" lon="-1.13326">
        <ele>66</ele>
        <time>2025-04-26T12:04:10Z</time>
      </trkpt>
      <trkpt lat="45.50908" lon="-1.13324">
        <ele>66</ele>
        <time>2025-04-26T12:04:11Z</time>
      </trkpt>
      <trkpt lat="45.50911" lon="-1.13322">
        <ele>65</ele>
        <time>2025-04-26T12:04:12Z</time>
      </trkpt>
      <trkpt lat="45.50915" lon="-1.13319">
        <ele>66</ele>
        <time>2025-04-26T12:04:13Z</time>
      </trkpt>
      <trkpt lat="45.50918" lon="-1.13317">
        <ele>66</ele>
        <time>2025-04-26T12:04:14Z</time>
      </trkpt>
      <trkpt lat="45.50922" lon="-1.13315">
        <ele>65</ele>
        <time>2025-04-26T12:04:15Z</time>
      </trkpt>
      <trkpt lat="45.50926" lon="-1.13313">
        <ele>65</ele>
        <time>2025-04-26T12:04:16Z</time>
      </trkpt>
      <trkpt lat="45.5093" lon="-1.13311">
        <ele>65</ele>
        <time>2025-04-26T12:04:17Z</time>
      </trkpt>
      <trkpt lat="45.50934" lon="-1.13308">
        <ele>65</ele>
        <time>2025-04-26T12:04:18Z</time>
      </trkpt>
      <trkpt lat="45.50938" lon="-1.13306">
        <ele>65</ele>
        <time>2025-04-26T12:04:19Z</time>
      </trkpt>
      <trkpt lat="45.50942" lon="-1.13304">
        <ele>64</ele>
        <time>2025-04-26T12:04:20Z</time>
      </trkpt>
      <trkpt lat="45.50946" lon="-1.13302">
        <ele>64</ele>
        <time>2025-04-26T12:04:21Z</time>
      </trkpt>
      <trkpt lat="45.5095" lon="-1.13299">
        <ele>64</ele>
        <time>2025-04-26T12:04:22Z</time>
      </trkpt>
      <trkpt lat="45.50953" lon="-1.13296">
        <ele>64</ele>
        <time>2025-04-26T12:04:23Z</time>
      </trkpt>
      <trkpt lat="45.50957" lon="-1.13294">
        <ele>64</ele>
        <time>2025-04-26T12:04:24Z</time>
      </trkpt>
      <trkpt lat="45.50961" lon="-1.13291">
        <ele>64</ele>
        <time>2025-04-26T12:04:25Z</time>
      </trkpt>
      <trkpt lat="45.50964" lon="-1.13289">
        <ele>64</ele>
        <time>2025-04-26T12:04:26Z</time>
      </trkpt>
      <trkpt lat="45.50968" lon="-1.13286">
        <ele>64</ele>
        <time>2025-04-26T12:04:27Z</time>
      </trkpt>
      <trkpt lat="45.50971" lon="-1.13284">
        <ele>64</ele>
        <time>2025-04-26T12:04:28Z</time>
      </trkpt>
      <trkpt lat="45.50975" lon="-1.13282">
        <ele>64</ele>
        <time>2025-04-26T12:04:29Z</time>
      </trkpt>
      <trkpt lat="45.50978" lon="-1.13279">
        <ele>64</ele>
        <time>2025-04-26T12:04:30Z</time>
      </trkpt>
      <trkpt lat="45.50982" lon="-1.13277">
        <ele>64</ele>
        <time>2025-04-26T12:04:31Z</time>
      </trkpt>
      <trkpt lat="45.50985" lon="-1.13275">
        <ele>64</ele>
        <time>2025-04-26T12:04:32Z</time>
      </trkpt>
      <trkpt lat="45.50989" lon="-1.13272">
        <ele>64</ele>
        <time>2025-04-26T12:04:33Z</time>
      </trkpt>
      <trkpt lat="45.50993" lon="-1.1327">
        <ele>64</ele>
        <time>2025-04-26T12:04:34Z</time>
      </trkpt>
      <trkpt lat="45.50997" lon="-1.13269">
        <ele>64</ele>
        <time>2025-04-26T12:04:35Z</time>
      </trkpt>
      <trkpt lat="45.51" lon="-1.13266">
        <ele>64</ele>
        <time>2025-04-26T12:04:36Z</time>
      </trkpt>
      <trkpt lat="45.51003" lon="-1.13265">
        <ele>64</ele>
        <time>2025-04-26T12:04:37Z</time>
      </trkpt>
      <trkpt lat="45.51007" lon="-1.13263">
        <ele>64</ele>
        <time>2025-04-26T12:04:38Z</time>
      </trkpt>
      <trkpt lat="45.5101" lon="-1.1326">
        <ele>64</ele>
        <time>2025-04-26T12:04:39Z</time>
      </trkpt>
      <trkpt lat="45.51014" lon="-1.13258">
        <ele>63</ele>
        <time>2025-04-26T12:04:40Z</time>
      </trkpt>
      <trkpt lat="45.51017" lon="-1.13255">
        <ele>63</ele>
        <time>2025-04-26T12:04:41Z</time>
      </trkpt>
      <trkpt lat="45.51021" lon="-1.13253">
        <ele>63</ele>
        <time>2025-04-26T12:04:42Z</time>
      </trkpt>
      <trkpt lat="45.51024" lon="-1.1325">
        <ele>63</ele>
        <time>2025-04-26T12:04:43Z</time>
      </trkpt>
      <trkpt lat="45.51028" lon="-1.13248">
        <ele>64</ele>
        <time>2025-04-26T12:04:44Z</time>
      </trkpt>
      <trkpt lat="45.51031" lon="-1.13246">
        <ele>64</ele>
        <time>2025-04-26T12:04:45Z</time>
      </trkpt>
      <trkpt lat="45.51034" lon="-1.13244">
        <ele>64</ele>
        <time>2025-04-26T12:04:46Z</time>
      </trkpt>
      <trkpt lat="45.51038" lon="-1.13242">
        <ele>64</ele>
        <time>2025-04-26T12:04:47Z</time>
      </trkpt>
      <trkpt lat="45.51041" lon="-1.1324">
        <ele>63</ele>
        <time>2025-04-26T12:04:48Z</time>
      </trkpt>
      <trkpt lat="45.51045" lon="-1.13238">
        <ele>64</ele>
        <time>2025-04-26T12:04:49Z</time>
      </trkpt>
      <trkpt lat="45.51049" lon="-1.13235">
        <ele>63</ele>
        <time>2025-04-26T12:04:50Z</time>
      </trkpt>
      <trkpt lat="45.51052" lon="-1.13232">
        <ele>63</ele>
        <time>2025-04-26T12:04:51Z</time>
      </trkpt>
      <trkpt lat="45.51055" lon="-1.1323">
        <ele>63</ele>
        <time>2025-04-26T12:04:52Z</time>
      </trkpt>
      <trkpt lat="45.51059" lon="-1.13228">
        <ele>63</ele>
        <time>2025-04-26T12:04:53Z</time>
      </trkpt>
      <trkpt lat="45.51063" lon="-1.13225">
        <ele>63</ele>
        <time>2025-04-26T12:04:54Z</time>
      </trkpt>
      <trkpt lat="45.51066" lon="-1.13223">
        <ele>63</ele>
        <time>2025-04-26T12:04:55Z</time>
      </trkpt>
      <trkpt lat="45.5107" lon="-1.1322">
        <ele>64</ele>
        <time>2025-04-26T12:04:56Z</time>
      </trkpt>
      <trkpt lat="45.51073" lon="-1.13216">
        <ele>64</ele>
        <time>2025-04-26T12:04:57Z</time>
      </trkpt>
      <trkpt lat="45.51075" lon="-1.13213">
        <ele>64</ele>
        <time>2025-04-26T12:04:58Z</time>
      </trkpt>
      <trkpt lat="45.51078" lon="-1.1321">
        <ele>64</ele>
        <time>2025-04-26T12:04:59Z</time>
      </trkpt>
      <trkpt lat="45.51081" lon="-1.13207">
        <ele>64</ele>
        <time>2025-04-26T12:05:00Z</time>
      </trkpt>
      <trkpt lat="45.51083" lon="-1.13203">
        <ele>64</ele>
        <time>2025-04-26T12:05:01Z</time>
      </trkpt>
      <trkpt lat="45.51086" lon="-1.13199">
        <ele>63</ele>
        <time>2025-04-26T12:05:02Z</time>
      </trkpt>
      <trkpt lat="45.51088" lon="-1.13195">
        <ele>63</ele>
        <time>2025-04-26T12:05:03Z</time>
      </trkpt>
      <trkpt lat="45.51091" lon="-1.13192">
        <ele>63</ele>
        <time>2025-04-26T12:05:04Z</time>
      </trkpt>
      <trkpt lat="45.51094" lon="-1.13189">
        <ele>64</ele>
        <time>2025-04-26T12:05:05Z</time>
      </trkpt>
      <trkpt lat="45.51096" lon="-1.13186">
        <ele>64</ele>
        <time>2025-04-26T12:05:06Z</time>
      </trkpt>
      <trkpt lat="45.51099" lon="-1.13183">
        <ele>64</ele>
        <time>2025-04-26T12:05:07Z</time>
      </trkpt>
      <trkpt lat="45.51102" lon="-1.1318">
        <ele>64</ele>
        <time>2025-04-26T12:05:08Z</time>
      </trkpt>
      <trkpt lat="45.51105" lon="-1.13177">
        <ele>64</ele>
        <time>2025-04-26T12:05:09Z</time>
      </trkpt>
      <trkpt lat="45.51108" lon="-1.13174">
        <ele>64</ele>
        <time>2025-04-26T12:05:10Z</time>
      </trkpt>
      <trkpt lat="45.51111" lon="-1.13172">
        <ele>64</ele>
        <time>2025-04-26T12:05:11Z</time>
      </trkpt>
      <trkpt lat="45.51115" lon="-1.13169">
        <ele>64</ele>
        <time>2025-04-26T12:05:12Z</time>
      </trkpt>
      <trkpt lat="45.51118" lon="-1.13166">
        <ele>64</ele>
        <time>2025-04-26T12:05:13Z</time>
      </trkpt>
      <trkpt lat="45.51121" lon="-1.13162">
        <ele>64</ele>
        <time>2025-04-26T12:05:14Z</time>
      </trkpt>
      <trkpt lat="45.51124" lon="-1.13159">
        <ele>64</ele>
        <time>2025-04-26T12:05:15Z</time>
      </trkpt>
      <trkpt lat="45.51127" lon="-1.13156">
        <ele>64</ele>
        <time>2025-04-26T12:05:16Z</time>
      </trkpt>
      <trkpt lat="45.51131" lon="-1.13152">
        <ele>64</ele>
        <time>2025-04-26T12:05:17Z</time>
      </trkpt>
      <trkpt lat="45.51134" lon="-1.1315">
        <ele>64</ele>
        <time>2025-04-26T12:05:18Z</time>
      </trkpt>
      <trkpt lat="45.51138" lon="-1.13147">
        <ele>64</ele>
        <time>2025-04-26T12:05:19Z</time>
      </trkpt>
      <trkpt lat="45.51141" lon="-1.13145">
        <ele>64</ele>
        <time>2025-04-26T12:05:20Z</time>
      </trkpt>
      <trkpt lat="45.51145" lon="-1.13142">
        <ele>64</ele>
        <time>2025-04-26T12:05:21Z</time>
      </trkpt>
      <trkpt lat="45.51148" lon="-1.1314">
        <ele>64</ele>
        <time>2025-04-26T12:05:22Z</time>
      </trkpt>
      <trkpt lat="45.51151" lon="-1.13137">
        <ele>64</ele>
        <time>2025-04-26T12:05:23Z</time>
      </trkpt>
      <trkpt lat="45.51155" lon="-1.13134">
        <ele>64</ele>
        <time>2025-04-26T12:05:24Z</time>
      </trkpt>
      <trkpt lat="45.51158" lon="-1.13132">
        <ele>64</ele>
        <time>2025-04-26T12:05:25Z</time>
      </trkpt>
      <trkpt lat="45.51162" lon="-1.13129">
        <ele>64</ele>
        <time>2025-04-26T12:05:26Z</time>
      </trkpt>
      <trkpt lat="45.51165" lon="-1.13127">
        <ele>64</ele>
        <time>2025-04-26T12:05:27Z</time>
      </trkpt>
      <trkpt lat="45.51169" lon="-1.13124">
        <ele>64</ele>
        <time>2025-04-26T12:05:28Z</time>
      </trkpt>
      <trkpt lat="45.51172" lon="-1.13122">
        <ele>64</ele>
        <time>2025-04-26T12:05:29Z</time>
      </trkpt>
      <trkpt lat="45.51175" lon="-1.13119">
        <ele>63</ele>
        <time>2025-04-26T12:05:30Z</time>
      </trkpt>
      <trkpt lat="45.51179" lon="-1.13117">
        <ele>64</ele>
        <time>2025-04-26T12:05:31Z</time>
      </trkpt>
      <trkpt lat="45.51182" lon="-1.13115">
        <ele>64</ele>
        <time>2025-04-26T12:05:32Z</time>
      </trkpt>
      <trkpt lat="45.51185" lon="-1.13113">
        <ele>64</ele>
        <time>2025-04-26T12:05:33Z</time>
      </trkpt>
      <trkpt lat="45.51188" lon="-1.13111">
        <ele>64</ele>
        <time>2025-04-26T12:05:34Z</time>
      </trkpt>
      <trkpt lat="45.51191" lon="-1.13109">
        <ele>64</ele>
        <time>2025-04-26T12:05:35Z</time>
      </trkpt>
      <trkpt lat="45.51194" lon="-1.13107">
        <ele>64</ele>
        <time>2025-04-26T12:05:36Z</time>
      </trkpt>
      <trkpt lat="45.51197" lon="-1.13105">
        <ele>64</ele>
        <time>2025-04-26T12:05:37Z</time>
      </trkpt>
      <trkpt lat="45.512" lon="-1.13102">
        <ele>64</ele>
        <time>2025-04-26T12:05:38Z</time>
      </trkpt>
      <trkpt lat="45.51203" lon="-1.13101">
        <ele>65</ele>
        <time>2025-04-26T12:05:39Z</time>
      </trkpt>
      <trkpt lat="45.51205" lon="-1.13099">
        <ele>65</ele>
        <time>2025-04-26T12:05:40Z</time>
      </trkpt>
      <trkpt lat="45.51207" lon="-1.13097">
        <ele>65</ele>
        <time>2025-04-26T12:05:41Z</time>
      </trkpt>
      <trkpt lat="45.5121" lon="-1.13095">
        <ele>65</ele>
        <time>2025-04-26T12:05:42Z</time>
      </trkpt>
      <trkpt lat="45.51213" lon="-1.13093">
        <ele>65</ele>
        <time>2025-04-26T12:05:43Z</time>
      </trkpt>
      <trkpt lat="45.51215" lon="-1.13092">
        <ele>65</ele>
        <time>2025-04-26T12:05:44Z</time>
      </trkpt>
      <trkpt lat="45.51218" lon="-1.1309">
        <ele>65</ele>
        <time>2025-04-26T12:05:45Z</time>
      </trkpt>
      <trkpt lat="45.51221" lon="-1.13089">
        <ele>65</ele>
        <time>2025-04-26T12:05:46Z</time>
      </trkpt>
      <trkpt lat="45.51224" lon="-1.13088">
        <ele>65</ele>
        <time>2025-04-26T12:05:47Z</time>
      </trkpt>
      <trkpt lat="45.51227" lon="-1.13087">
        <ele>65</ele>
        <time>2025-04-26T12:05:48Z</time>
      </trkpt>
      <trkpt lat="45.51229" lon="-1.13085">
        <ele>65</ele>
        <time>2025-04-26T12:05:49Z</time>
      </trkpt>
      <trkpt lat="45.51232" lon="-1.13084">
        <ele>65</ele>
        <time>2025-04-26T12:05:50Z</time>
      </trkpt>
      <trkpt lat="45.51235" lon="-1.13084">
        <ele>65</ele>
        <time>2025-04-26T12:05:51Z</time>
      </trkpt>
      <trkpt lat="45.51238" lon="-1.13084">
        <ele>65</ele>
        <time>2025-04-26T12:05:52Z</time>
      </trkpt>
      <trkpt lat="45.51241" lon="-1.13084">
        <ele>65</ele>
        <time>2025-04-26T12:05:53Z</time>
      </trkpt>
      <trkpt lat="45.51244" lon="-1.13084">
        <ele>65</ele>
        <time>2025-04-26T12:05:54Z</time>
      </trkpt>
      <trkpt lat="45.51247" lon="-1.13083">
        <ele>65</ele>
        <time>2025-04-26T12:05:55Z</time>
      </trkpt>
      <trkpt lat="45.51249" lon="-1.13083">
        <ele>65</ele>
        <time>2025-04-26T12:05:56Z</time>
      </trkpt>
      <trkpt lat="45.51252" lon="-1.13082">
        <ele>65</ele>
        <time>2025-04-26T12:05:57Z</time>
      </trkpt>
      <trkpt lat="45.51255" lon="-1.1308">
        <ele>65</ele>
        <time>2025-04-26T12:05:58Z</time>
      </trkpt>
      <trkpt lat="45.51257" lon="-1.13078">
        <ele>65</ele>
        <time>2025-04-26T12:05:59Z</time>
      </trkpt>
      <trkpt lat="45.5126" lon="-1.13075">
        <ele>64</ele>
        <time>2025-04-26T12:06:00Z</time>
      </trkpt>
      <trkpt lat="45.51263" lon="-1.13073">
        <ele>64</ele>
        <time>2025-04-26T12:06:01Z</time>
      </trkpt>
      <trkpt lat="45.51266" lon="-1.13072">
        <ele>65</ele>
        <time>2025-04-26T12:06:02Z</time>
      </trkpt>
      <trkpt lat="45.51269" lon="-1.13071">
        <ele>65</ele>
        <time>2025-04-26T12:06:03Z</time>
      </trkpt>
      <trkpt lat="45.51272" lon="-1.1307">
        <ele>65</ele>
        <time>2025-04-26T12:06:04Z</time>
      </trkpt>
      <trkpt lat="45.51275" lon="-1.1307">
        <ele>65</ele>
        <time>2025-04-26T12:06:05Z</time>
      </trkpt>
      <trkpt lat="45.51278" lon="-1.13069">
        <ele>65</ele>
        <time>2025-04-26T12:06:06Z</time>
      </trkpt>
      <trkpt lat="45.51281" lon="-1.13068">
        <ele>65</ele>
        <time>2025-04-26T12:06:07Z</time>
      </trkpt>
      <trkpt lat="45.51284" lon="-1.13067">
        <ele>65</ele>
        <time>2025-04-26T12:06:08Z</time>
      </trkpt>
      <trkpt lat="45.51287" lon="-1.13066">
        <ele>65</ele>
        <time>2025-04-26T12:06:09Z</time>
      </trkpt>
      <trkpt lat="45.5129" lon="-1.13065">
        <ele>65</ele>
        <time>2025-04-26T12:06:10Z</time>
      </trkpt>
      <trkpt lat="45.51292" lon="-1.13064">
        <ele>65</ele>
        <time>2025-04-26T12:06:11Z</time>
      </trkpt>
      <trkpt lat="45.51295" lon="-1.13063">
        <ele>66</ele>
        <time>2025-04-26T12:06:12Z</time>
      </trkpt>
      <trkpt lat="45.51298" lon="-1.13061">
        <ele>66</ele>
        <time>2025-04-26T12:06:13Z</time>
      </trkpt>
      <trkpt lat="45.51301" lon="-1.13058">
        <ele>67</ele>
        <time>2025-04-26T12:06:14Z</time>
      </trkpt>
      <trkpt lat="45.51303" lon="-1.13055">
        <ele>67</ele>
        <time>2025-04-26T12:06:15Z</time>
      </trkpt>
      <trkpt lat="45.51305" lon="-1.13052">
        <ele>67</ele>
        <time>2025-04-26T12:06:16Z</time>
      </trkpt>
      <trkpt lat="45.51307" lon="-1.13048">
        <ele>66</ele>
        <time>2025-04-26T12:06:17Z</time>
      </trkpt>
      <trkpt lat="45.51309" lon="-1.13045">
        <ele>66</ele>
        <time>2025-04-26T12:06:18Z</time>
      </trkpt>
      <trkpt lat="45.51311" lon="-1.13041">
        <ele>67</ele>
        <time>2025-04-26T12:06:19Z</time>
      </trkpt>
      <trkpt lat="45.51313" lon="-1.13038">
        <ele>67</ele>
        <time>2025-04-26T12:06:20Z</time>
      </trkpt>
      <trkpt lat="45.51316" lon="-1.13035">
        <ele>67</ele>
        <time>2025-04-26T12:06:21Z</time>
      </trkpt>
      <trkpt lat="45.51318" lon="-1.13032">
        <ele>67</ele>
        <time>2025-04-26T12:06:22Z</time>
      </trkpt>
      <trkpt lat="45.51321" lon="-1.13028">
        <ele>67</ele>
        <time>2025-04-26T12:06:23Z</time>
      </trkpt>
      <trkpt lat="45.51323" lon="-1.13025">
        <ele>67</ele>
        <time>2025-04-26T12:06:24Z</time>
      </trkpt>
      <trkpt lat="45.51325" lon="-1.13022">
        <ele>67</ele>
        <time>2025-04-26T12:06:25Z</time>
      </trkpt>
      <trkpt lat="45.51328" lon="-1.13019">
        <ele>67</ele>
        <time>2025-04-26T12:06:26Z</time>
      </trkpt>
      <trkpt lat="45.51331" lon="-1.13016">
        <ele>68</ele>
        <time>2025-04-26T12:06:27Z</time>
      </trkpt>
      <trkpt lat="45.51333" lon="-1.13013">
        <ele>68</ele>
        <time>2025-04-26T12:06:28Z</time>
      </trkpt>
      <trkpt lat="45.51335" lon="-1.1301">
        <ele>68</ele>
        <time>2025-04-26T12:06:29Z</time>
      </trkpt>
      <trkpt lat="45.51337" lon="-1.13007">
        <ele>68</ele>
        <time>2025-04-26T12:06:30Z</time>
      </trkpt>
      <trkpt lat="45.5134" lon="-1.13004">
        <ele>67</ele>
        <time>2025-04-26T12:06:31Z</time>
      </trkpt>
      <trkpt lat="45.51343" lon="-1.13001">
        <ele>67</ele>
        <time>2025-04-26T12:06:32Z</time>
      </trkpt>
      <trkpt lat="45.51345" lon="-1.12998">
        <ele>67</ele>
        <time>2025-04-26T12:06:33Z</time>
      </trkpt>
      <trkpt lat="45.51348" lon="-1.12995">
        <ele>67</ele>
        <time>2025-04-26T12:06:34Z</time>
      </trkpt>
      <trkpt lat="45.51351" lon="-1.12992">
        <ele>67</ele>
        <time>2025-04-26T12:06:35Z</time>
      </trkpt>
      <trkpt lat="45.51353" lon="-1.12989">
        <ele>67</ele>
        <time>2025-04-26T12:06:36Z</time>
      </trkpt>
      <trkpt lat="45.51356" lon="-1.12986">
        <ele>67</ele>
        <time>2025-04-26T12:06:37Z</time>
      </trkpt>
      <trkpt lat="45.51359" lon="-1.12983">
        <ele>67</ele>
        <time>2025-04-26T12:06:38Z</time>
      </trkpt>
      <trkpt lat="45.51361" lon="-1.1298">
        <ele>67</ele>
        <time>2025-04-26T12:06:39Z</time>
      </trkpt>
      <trkpt lat="45.51364" lon="-1.12977">
        <ele>67</ele>
        <time>2025-04-26T12:06:40Z</time>
      </trkpt>
      <trkpt lat="45.51366" lon="-1.12974">
        <ele>67</ele>
        <time>2025-04-26T12:06:41Z</time>
      </trkpt>
      <trkpt lat="45.51369" lon="-1.12971">
        <ele>67</ele>
        <time>2025-04-26T12:06:42Z</time>
      </trkpt>
      <trkpt lat="45.51371" lon="-1.12968">
        <ele>66</ele>
        <time>2025-04-26T12:06:43Z</time>
      </trkpt>
      <trkpt lat="45.51374" lon="-1.12965">
        <ele>66</ele>
        <time>2025-04-26T12:06:44Z</time>
      </trkpt>
      <trkpt lat="45.51377" lon="-1.12962">
        <ele>66</ele>
        <time>2025-04-26T12:06:45Z</time>
      </trkpt>
      <trkpt lat="45.5138" lon="-1.12959">
        <ele>66</ele>
        <time>2025-04-26T12:06:46Z</time>
      </trkpt>
      <trkpt lat="45.51382" lon="-1.12956">
        <ele>66</ele>
        <time>2025-04-26T12:06:47Z</time>
      </trkpt>
      <trkpt lat="45.51385" lon="-1.12953">
        <ele>66</ele>
        <time>2025-04-26T12:06:48Z</time>
      </trkpt>
      <trkpt lat="45.51388" lon="-1.1295">
        <ele>67</ele>
        <time>2025-04-26T12:06:49Z</time>
      </trkpt>
      <trkpt lat="45.51391" lon="-1.12947">
        <ele>67</ele>
        <time>2025-04-26T12:06:50Z</time>
      </trkpt>
      <trkpt lat="45.51394" lon="-1.12944">
        <ele>67</ele>
        <time>2025-04-26T12:06:51Z</time>
      </trkpt>
      <trkpt lat="45.51396" lon="-1.12941">
        <ele>67</ele>
        <time>2025-04-26T12:06:52Z</time>
      </trkpt>
      <trkpt lat="45.51399" lon="-1.12937">
        <ele>67</ele>
        <time>2025-04-26T12:06:53Z</time>
      </trkpt>
      <trkpt lat="45.51401" lon="-1.12934">
        <ele>67</ele>
        <time>2025-04-26T12:06:54Z</time>
      </trkpt>
      <trkpt lat="45.51404" lon="-1.12931">
        <ele>66</ele>
        <time>2025-04-26T12:06:55Z</time>
      </trkpt>
      <trkpt lat="45.51407" lon="-1.12928">
        <ele>66</ele>
        <time>2025-04-26T12:06:56Z</time>
      </trkpt>
      <trkpt lat="45.5141" lon="-1.12925">
        <ele>66</ele>
        <time>2025-04-26T12:06:57Z</time>
      </trkpt>
      <trkpt lat="45.51413" lon="-1.12921">
        <ele>66</ele>
        <time>2025-04-26T12:06:58Z</time>
      </trkpt>
      <trkpt lat="45.51415" lon="-1.12918">
        <ele>66</ele>
        <time>2025-04-26T12:06:59Z</time>
      </trkpt>
      <trkpt lat="45.51418" lon="-1.12915">
        <ele>66</ele>
        <time>2025-04-26T12:07:00Z</time>
      </trkpt>
      <trkpt lat="45.51421" lon="-1.12911">
        <ele>67</ele>
        <time>2025-04-26T12:07:01Z</time>
      </trkpt>
      <trkpt lat="45.51423" lon="-1.12908">
        <ele>67</ele>
        <time>2025-04-26T12:07:02Z</time>
      </trkpt>
      <trkpt lat="45.51426" lon="-1.12905">
        <ele>67</ele>
        <time>2025-04-26T12:07:03Z</time>
      </trkpt>
      <trkpt lat="45.51429" lon="-1.12901">
        <ele>67</ele>
        <time>2025-04-26T12:07:04Z</time>
      </trkpt>
      <trkpt lat="45.51432" lon="-1.12898">
        <ele>67</ele>
        <time>2025-04-26T12:07:05Z</time>
      </trkpt>
      <trkpt lat="45.51435" lon="-1.12894">
        <ele>67</ele>
        <time>2025-04-26T12:07:06Z</time>
      </trkpt>
      <trkpt lat="45.51438" lon="-1.12891">
        <ele>68</ele>
        <time>2025-04-26T12:07:07Z</time>
      </trkpt>
      <trkpt lat="45.51441" lon="-1.12888">
        <ele>68</ele>
        <time>2025-04-26T12:07:08Z</time>
      </trkpt>
      <trkpt lat="45.51444" lon="-1.12885">
        <ele>68</ele>
        <time>2025-04-26T12:07:09Z</time>
      </trkpt>
      <trkpt lat="45.51447" lon="-1.12882">
        <ele>68</ele>
        <time>2025-04-26T12:07:10Z</time>
      </trkpt>
      <trkpt lat="45.5145" lon="-1.1288">
        <ele>67</ele>
        <time>2025-04-26T12:07:11Z</time>
      </trkpt>
      <trkpt lat="45.51453" lon="-1.12877">
        <ele>67</ele>
        <time>2025-04-26T12:07:12Z</time>
      </trkpt>
      <trkpt lat="45.51455" lon="-1.12874">
        <ele>67</ele>
        <time>2025-04-26T12:07:13Z</time>
      </trkpt>
      <trkpt lat="45.51458" lon="-1.12871">
        <ele>67</ele>
        <time>2025-04-26T12:07:14Z</time>
      </trkpt>
      <trkpt lat="45.51461" lon="-1.12868">
        <ele>66</ele>
        <time>2025-04-26T12:07:15Z</time>
      </trkpt>
      <trkpt lat="45.51463" lon="-1.12864">
        <ele>66</ele>
        <time>2025-04-26T12:07:16Z</time>
      </trkpt>
      <trkpt lat="45.51466" lon="-1.1286">
        <ele>66</ele>
        <time>2025-04-26T12:07:17Z</time>
      </trkpt>
      <trkpt lat="45.51468" lon="-1.12857">
        <ele>66</ele>
        <time>2025-04-26T12:07:18Z</time>
      </trkpt>
      <trkpt lat="45.51471" lon="-1.12854">
        <ele>66</ele>
        <time>2025-04-26T12:07:19Z</time>
      </trkpt>
      <trkpt lat="45.51474" lon="-1.12851">
        <ele>66</ele>
        <time>2025-04-26T12:07:20Z</time>
      </trkpt>
      <trkpt lat="45.51477" lon="-1.12848">
        <ele>66</ele>
        <time>2025-04-26T12:07:21Z</time>
      </trkpt>
      <trkpt lat="45.5148" lon="-1.12845">
        <ele>66</ele>
        <time>2025-04-26T12:07:22Z</time>
      </trkpt>
      <trkpt lat="45.51483" lon="-1.12842">
        <ele>66</ele>
        <time>2025-04-26T12:07:23Z</time>
      </trkpt>
      <trkpt lat="45.51486" lon="-1.12839">
        <ele>66</ele>
        <time>2025-04-26T12:07:24Z</time>
      </trkpt>
      <trkpt lat="45.51488" lon="-1.12835">
        <ele>66</ele>
        <time>2025-04-26T12:07:25Z</time>
      </trkpt>
      <trkpt lat="45.51491" lon="-1.12832">
        <ele>66</ele>
        <time>2025-04-26T12:07:26Z</time>
      </trkpt>
      <trkpt lat="45.51494" lon="-1.12829">
        <ele>66</ele>
        <time>2025-04-26T12:07:27Z</time>
      </trkpt>
      <trkpt lat="45.51497" lon="-1.12825">
        <ele>66</ele>
        <time>2025-04-26T12:07:28Z</time>
      </trkpt>
      <trkpt lat="45.515" lon="-1.12822">
        <ele>66</ele>
        <time>2025-04-26T12:07:29Z</time>
      </trkpt>
      <trkpt lat="45.51503" lon="-1.12818">
        <ele>66</ele>
        <time>2025-04-26T12:07:30Z</time>
      </trkpt>
      <trkpt lat="45.51506" lon="-1.12814">
        <ele>66</ele>
        <time>2025-04-26T12:07:31Z</time>
      </trkpt>
      <trkpt lat="45.51509" lon="-1.12811">
        <ele>66</ele>
        <time>2025-04-26T12:07:32Z</time>
      </trkpt>
      <trkpt lat="45.51512" lon="-1.12808">
        <ele>66</ele>
        <time>2025-04-26T12:07:33Z</time>
      </trkpt>
      <trkpt lat="45.51515" lon="-1.12805">
        <ele>65</ele>
        <time>2025-04-26T12:07:34Z</time>
      </trkpt>
      <trkpt lat="45.51518" lon="-1.12801">
        <ele>66</ele>
        <time>2025-04-26T12:07:35Z</time>
      </trkpt>
      <trkpt lat="45.51521" lon="-1.12798">
        <ele>65</ele>
        <time>2025-04-26T12:07:36Z</time>
      </trkpt>
      <trkpt lat="45.51524" lon="-1.12795">
        <ele>65</ele>
        <time>2025-04-26T12:07:37Z</time>
      </trkpt>
      <trkpt lat="45.51526" lon="-1.12791">
        <ele>65</ele>
        <time>2025-04-26T12:07:38Z</time>
      </trkpt>
      <trkpt lat="45.51529" lon="-1.12787">
        <ele>65</ele>
        <time>2025-04-26T12:07:39Z</time>
      </trkpt>
      <trkpt lat="45.51532" lon="-1.12783">
        <ele>66</ele>
        <time>2025-04-26T12:07:40Z</time>
      </trkpt>
      <trkpt lat="45.51535" lon="-1.12779">
        <ele>66</ele>
        <time>2025-04-26T12:07:41Z</time>
      </trkpt>
      <trkpt lat="45.51538" lon="-1.12776">
        <ele>66</ele>
        <time>2025-04-26T12:07:42Z</time>
      </trkpt>
      <trkpt lat="45.51541" lon="-1.12772">
        <ele>66</ele>
        <time>2025-04-26T12:07:43Z</time>
      </trkpt>
      <trkpt lat="45.51544" lon="-1.12769">
        <ele>66</ele>
        <time>2025-04-26T12:07:44Z</time>
      </trkpt>
      <trkpt lat="45.51547" lon="-1.12766">
        <ele>66</ele>
        <time>2025-04-26T12:07:45Z</time>
      </trkpt>
      <trkpt lat="45.5155" lon="-1.12763">
        <ele>66</ele>
        <time>2025-04-26T12:07:46Z</time>
      </trkpt>
      <trkpt lat="45.51553" lon="-1.1276">
        <ele>66</ele>
        <time>2025-04-26T12:07:47Z</time>
      </trkpt>
      <trkpt lat="45.51556" lon="-1.12756">
        <ele>66</ele>
        <time>2025-04-26T12:07:48Z</time>
      </trkpt>
      <trkpt lat="45.51559" lon="-1.12753">
        <ele>66</ele>
        <time>2025-04-26T12:07:49Z</time>
      </trkpt>
      <trkpt lat="45.51563" lon="-1.12751">
        <ele>66</ele>
        <time>2025-04-26T12:07:50Z</time>
      </trkpt>
      <trkpt lat="45.51566" lon="-1.12749">
        <ele>66</ele>
        <time>2025-04-26T12:07:51Z</time>
      </trkpt>
      <trkpt lat="45.51569" lon="-1.12746">
        <ele>66</ele>
        <time>2025-04-26T12:07:52Z</time>
      </trkpt>
      <trkpt lat="45.51572" lon="-1.12744">
        <ele>66</ele>
        <time>2025-04-26T12:07:53Z</time>
      </trkpt>
      <trkpt lat="45.51575" lon="-1.12742">
        <ele>67</ele>
        <time>2025-04-26T12:07:54Z</time>
      </trkpt>
      <trkpt lat="45.51578" lon="-1.12739">
        <ele>67</ele>
        <time>2025-04-26T12:07:55Z</time>
      </trkpt>
      <trkpt lat="45.5158" lon="-1.12735">
        <ele>67</ele>
        <time>2025-04-26T12:07:56Z</time>
      </trkpt>
      <trkpt lat="45.51583" lon="-1.12732">
        <ele>67</ele>
        <time>2025-04-26T12:07:57Z</time>
      </trkpt>
      <trkpt lat="45.51585" lon="-1.12728">
        <ele>68</ele>
        <time>2025-04-26T12:07:58Z</time>
      </trkpt>
      <trkpt lat="45.51588" lon="-1.12725">
        <ele>67</ele>
        <time>2025-04-26T12:07:59Z</time>
      </trkpt>
      <trkpt lat="45.51591" lon="-1.12722">
        <ele>67</ele>
        <time>2025-04-26T12:08:00Z</time>
      </trkpt>
      <trkpt lat="45.51594" lon="-1.12719">
        <ele>67</ele>
        <time>2025-04-26T12:08:01Z</time>
      </trkpt>
      <trkpt lat="45.51597" lon="-1.12715">
        <ele>67</ele>
        <time>2025-04-26T12:08:02Z</time>
      </trkpt>
      <trkpt lat="45.51599" lon="-1.12713">
        <ele>67</ele>
        <time>2025-04-26T12:08:03Z</time>
      </trkpt>
      <trkpt lat="45.51602" lon="-1.1271">
        <ele>66</ele>
        <time>2025-04-26T12:08:04Z</time>
      </trkpt>
      <trkpt lat="45.51604" lon="-1.12708">
        <ele>66</ele>
        <time>2025-04-26T12:08:05Z</time>
      </trkpt>
      <trkpt lat="45.51607" lon="-1.12705">
        <ele>66</ele>
        <time>2025-04-26T12:08:06Z</time>
      </trkpt>
      <trkpt lat="45.51608" lon="-1.12705">
        <ele>66</ele>
        <time>2025-04-26T12:08:07Z</time>
      </trkpt>
      <trkpt lat="45.51611" lon="-1.12705">
        <ele>66</ele>
        <time>2025-04-26T12:08:08Z</time>
      </trkpt>
      <trkpt lat="45.51613" lon="-1.12704">
        <ele>66</ele>
        <time>2025-04-26T12:08:09Z</time>
      </trkpt>
      <trkpt lat="45.51615" lon="-1.12703">
        <ele>66</ele>
        <time>2025-04-26T12:08:10Z</time>
      </trkpt>
      <trkpt lat="45.51616" lon="-1.12702">
        <ele>66</ele>
        <time>2025-04-26T12:08:11Z</time>
      </trkpt>
      <trkpt lat="45.51618" lon="-1.12701">
        <ele>66</ele>
        <time>2025-04-26T12:08:12Z</time>
      </trkpt>
      <trkpt lat="45.51619" lon="-1.12699">
        <ele>65</ele>
        <time>2025-04-26T12:08:13Z</time>
      </trkpt>
      <trkpt lat="45.5162" lon="-1.12699">
        <ele>65</ele>
        <time>2025-04-26T12:08:14Z</time>
      </trkpt>
      <trkpt lat="45.5162" lon="-1.12698">
        <ele>65</ele>
        <time>2025-04-26T12:08:15Z</time>
      </trkpt>
      <trkpt lat="45.5162" lon="-1.12698">
        <ele>65</ele>
        <time>2025-04-26T12:08:16Z</time>
      </trkpt>
      <trkpt lat="45.5162" lon="-1.12698">
        <ele>65</ele>
        <time>2025-04-26T12:08:17Z</time>
      </trkpt>
      <trkpt lat="45.5162" lon="-1.12698">
        <ele>65</ele>
        <time>2025-04-26T12:08:18Z</time>
      </trkpt>
      <trkpt lat="45.5162" lon="-1.12698">
        <ele>65</ele>
        <time>2025-04-26T12:08:19Z</time>
      </trkpt>
      <trkpt lat="45.5162" lon="-1.12698">
        <ele>65</ele>
        <time>2025-04-26T12:08:20Z</time>
      </trkpt>
      <trkpt lat="45.5162" lon="-1.12698">
        <ele>65</ele>
        <time>2025-04-26T12:08:21Z</time>
      </trkpt>
      <trkpt lat="45.5162" lon="-1.12698">
        <ele>65</ele>
        <time>2025-04-26T12:08:22Z</time>
      </trkpt>
      <trkpt lat="45.5162" lon="-1.12698">
        <ele>65</ele>
        <time>2025-04-26T12:08:23Z</time>
      </trkpt>
      <trkpt lat="45.5162" lon="-1.12698">
        <ele>65</ele>
        <time>2025-04-26T12:08:24Z</time>
      </trkpt>
      <trkpt lat="45.5162" lon="-1.12698">
        <ele>65</ele>
        <time>2025-04-26T12:08:25Z</time>
      </trkpt>
      <trkpt lat="45.5162" lon="-1.12698">
        <ele>65</ele>
        <time>2025-04-26T12:08:26Z</time>
      </trkpt>
      <trkpt lat="45.5162" lon="-1.12698">
        <ele>65</ele>
        <time>2025-04-26T12:08:27Z</time>
      </trkpt>
      <trkpt lat="45.5162" lon="-1.12698">
        <ele>65</ele>
        <time>2025-04-26T12:08:28Z</time>
      </trkpt>
      <trkpt lat="45.5162" lon="-1.12698">
        <ele>65</ele>
        <time>2025-04-26T12:08:29Z</time>
      </trkpt>
      <trkpt lat="45.5162" lon="-1.12698">
        <ele>65</ele>
        <time>2025-04-26T12:08:30Z</time>
      </trkpt>
      <trkpt lat="45.5162" lon="-1.12698">
        <ele>65</ele>
        <time>2025-04-26T12:08:31Z</time>
      </trkpt>
      <trkpt lat="45.5162" lon="-1.12698">
        <ele>65</ele>
        <time>2025-04-26T12:08:32Z</time>
      </trkpt>
      <trkpt lat="45.5162" lon="-1.12698">
        <ele>65</ele>
        <time>2025-04-26T12:08:33Z</time>
      </trkpt>
      <trkpt lat="45.5162" lon="-1.12698">
        <ele>65</ele>
        <time>2025-04-26T12:08:34Z</time>
      </trkpt>
      <trkpt lat="45.5162" lon="-1.12698">
        <ele>65</ele>
        <time>2025-04-26T12:08:35Z</time>
      </trkpt>
      <trkpt lat="45.5162" lon="-1.12698">
        <ele>65</ele>
        <time>2025-04-26T12:08:36Z</time>
      </trkpt>
      <trkpt lat="45.5162" lon="-1.12698">
        <ele>65</ele>
        <time>2025-04-26T12:08:37Z</time>
      </trkpt>
      <trkpt lat="45.5162" lon="-1.12698">
        <ele>65</ele>
        <time>2025-04-26T12:08:38Z</time>
      </trkpt>
      <trkpt lat="45.5162" lon="-1.12698">
        <ele>65</ele>
        <time>2025-04-26T12:08:39Z</time>
      </trkpt>
      <trkpt lat="45.5162" lon="-1.12698">
        <ele>65</ele>
        <time>2025-04-26T12:08:40Z</time>
      </trkpt>
      <trkpt lat="45.5162" lon="-1.12698">
        <ele>65</ele>
        <time>2025-04-26T12:08:41Z</time>
      </trkpt>
      <trkpt lat="45.5162" lon="-1.12698">
        <ele>65</ele>
        <time>2025-04-26T12:08:42Z</time>
      </trkpt>
      <trkpt lat="45.5162" lon="-1.12698">
        <ele>65</ele>
        <time>2025-04-26T12:08:43Z</time>
      </trkpt>
      <trkpt lat="45.5162" lon="-1.12698">
        <ele>65</ele>
        <time>2025-04-26T12:08:44Z</time>
      </trkpt>
      <trkpt lat="45.5162" lon="-1.12698">
        <ele>65</ele>
        <time>2025-04-26T12:08:45Z</time>
      </trkpt>
      <trkpt lat="45.5162" lon="-1.12698">
        <ele>65</ele>
        <time>2025-04-26T12:08:46Z</time>
      </trkpt>
      <trkpt lat="45.5162" lon="-1.12698">
        <ele>65</ele>
        <time>2025-04-26T12:08:47Z</time>
      </trkpt>
      <trkpt lat="45.5162" lon="-1.12698">
        <ele>65</ele>
        <time>2025-04-26T12:08:48Z</time>
      </trkpt>
      <trkpt lat="45.5162" lon="-1.12698">
        <ele>65</ele>
        <time>2025-04-26T12:08:49Z</time>
      </trkpt>
      <trkpt lat="45.5162" lon="-1.12698">
        <ele>65</ele>
        <time>2025-04-26T12:08:50Z</time>
      </trkpt>
      <trkpt lat="45.5162" lon="-1.12698">
        <ele>65</ele>
        <time>2025-04-26T12:08:51Z</time>
      </trkpt>
      <trkpt lat="45.5162" lon="-1.12698">
        <ele>65</ele>
        <time>2025-04-26T12:08:52Z</time>
      </trkpt>
      <trkpt lat="45.5162" lon="-1.12698">
        <ele>65</ele>
        <time>2025-04-26T12:08:53Z</time>
      </trkpt>
      <trkpt lat="45.5162" lon="-1.12698">
        <ele>65</ele>
        <time>2025-04-26T12:08:54Z</time>
      </trkpt>
      <trkpt lat="45.5162" lon="-1.12698">
        <ele>65</ele>
        <time>2025-04-26T12:08:55Z</time>
      </trkpt>
      <trkpt lat="45.5162" lon="-1.12698">
        <ele>65</ele>
        <time>2025-04-26T12:08:56Z</time>
      </trkpt>
      <trkpt lat="45.5162" lon="-1.12698">
        <ele>65</ele>
        <time>2025-04-26T12:08:57Z</time>
      </trkpt>
      <trkpt lat="45.5162" lon="-1.12698">
        <ele>65</ele>
        <time>2025-04-26T12:08:58Z</time>
      </trkpt>
      <trkpt lat="45.5162" lon="-1.12698">
        <ele>65</ele>
        <time>2025-04-26T12:08:59Z</time>
      </trkpt>
      <trkpt lat="45.5162" lon="-1.12698">
        <ele>65</ele>
        <time>2025-04-26T12:09:00Z</time>
      </trkpt>
      <trkpt lat="45.5162" lon="-1.12698">
        <ele>65</ele>
        <time>2025-04-26T12:09:01Z</time>
      </trkpt>
      <trkpt lat="45.5162" lon="-1.12698">
        <ele>65</ele>
        <time>2025-04-26T12:09:02Z</time>
      </trkpt>
      <trkpt lat="45.5162" lon="-1.12698">
        <ele>65</ele>
        <time>2025-04-26T12:09:03Z</time>
      </trkpt>
      <trkpt lat="45.5162" lon="-1.12698">
        <ele>65</ele>
        <time>2025-04-26T12:09:04Z</time>
      </trkpt>
      <trkpt lat="45.5162" lon="-1.12698">
        <ele>65</ele>
        <time>2025-04-26T12:09:05Z</time>
      </trkpt>
      <trkpt lat="45.5162" lon="-1.12698">
        <ele>65</ele>
        <time>2025-04-26T12:09:06Z</time>
      </trkpt>
      <trkpt lat="45.5162" lon="-1.12698">
        <ele>65</ele>
        <time>2025-04-26T12:09:07Z</time>
      </trkpt>
      <trkpt lat="45.5162" lon="-1.12698">
        <ele>65</ele>
        <time>2025-04-26T12:09:08Z</time>
      </trkpt>
      <trkpt lat="45.5162" lon="-1.12698">
        <ele>65</ele>
        <time>2025-04-26T12:09:09Z</time>
      </trkpt>
      <trkpt lat="45.5162" lon="-1.12698">
        <ele>65</ele>
        <time>2025-04-26T12:09:10Z</time>
      </trkpt>
      <trkpt lat="45.5162" lon="-1.12698">
        <ele>65</ele>
        <time>2025-04-26T12:09:11Z</time>
      </trkpt>
      <trkpt lat="45.5162" lon="-1.12698">
        <ele>65</ele>
        <time>2025-04-26T12:09:12Z</time>
      </trkpt>
      <trkpt lat="45.5162" lon="-1.12698">
        <ele>65</ele>
        <time>2025-04-26T12:09:13Z</time>
      </trkpt>
      <trkpt lat="45.5162" lon="-1.12698">
        <ele>65</ele>
        <time>2025-04-26T12:09:14Z</time>
      </trkpt>
      <trkpt lat="45.5162" lon="-1.12698">
        <ele>65</ele>
        <time>2025-04-26T12:09:15Z</time>
      </trkpt>
      <trkpt lat="45.5162" lon="-1.12698">
        <ele>65</ele>
        <time>2025-04-26T12:09:16Z</time>
      </trkpt>
      <trkpt lat="45.5162" lon="-1.12698">
        <ele>65</ele>
        <time>2025-04-26T12:09:17Z</time>
      </trkpt>
      <trkpt lat="45.5162" lon="-1.12698">
        <ele>65</ele>
        <time>2025-04-26T12:09:18Z</time>
      </trkpt>
      <trkpt lat="45.5162" lon="-1.12698">
        <ele>65</ele>
        <time>2025-04-26T12:09:19Z</time>
      </trkpt>
      <trkpt lat="45.5162" lon="-1.12698">
        <ele>65</ele>
        <time>2025-04-26T12:09:20Z</time>
      </trkpt>
      <trkpt lat="45.5162" lon="-1.12698">
        <ele>65</ele>
        <time>2025-04-26T12:09:21Z</time>
      </trkpt>
      <trkpt lat="45.5162" lon="-1.12698">
        <ele>65</ele>
        <time>2025-04-26T12:09:22Z</time>
      </trkpt>
      <trkpt lat="45.51622" lon="-1.12694">
        <ele>64</ele>
        <time>2025-04-26T12:09:23Z</time>
      </trkpt>
      <trkpt lat="45.51623" lon="-1.12691">
        <ele>64</ele>
        <time>2025-04-26T12:09:24Z</time>
      </trkpt>
      <trkpt lat="45.51623" lon="-1.12689">
        <ele>64</ele>
        <time>2025-04-26T12:09:25Z</time>
      </trkpt>
      <trkpt lat="45.51624" lon="-1.12686">
        <ele>64</ele>
        <time>2025-04-26T12:09:26Z</time>
      </trkpt>
      <trkpt lat="45.51625" lon="-1.12684">
        <ele>64</ele>
        <time>2025-04-26T12:09:27Z</time>
      </trkpt>
      <trkpt lat="45.51626" lon="-1.12681">
        <ele>65</ele>
        <time>2025-04-26T12:09:28Z</time>
      </trkpt>
      <trkpt lat="45.51628" lon="-1.12678">
        <ele>65</ele>
        <time>2025-04-26T12:09:29Z</time>
      </trkpt>
      <trkpt lat="45.51629" lon="-1.12676">
        <ele>65</ele>
        <time>2025-04-26T12:09:30Z</time>
      </trkpt>
      <trkpt lat="45.51631" lon="-1.12673">
        <ele>65</ele>
        <time>2025-04-26T12:09:31Z</time>
      </trkpt>
      <trkpt lat="45.51632" lon="-1.1267">
        <ele>66</ele>
        <time>2025-04-26T12:09:32Z</time>
      </trkpt>
      <trkpt lat="45.51633" lon="-1.12668">
        <ele>65</ele>
        <time>2025-04-26T12:09:33Z</time>
      </trkpt>
      <trkpt lat="45.51635" lon="-1.12665">
        <ele>66</ele>
        <time>2025-04-26T12:09:34Z</time>
      </trkpt>
      <trkpt lat="45.51638" lon="-1.12662">
        <ele>66</ele>
        <time>2025-04-26T12:09:35Z</time>
      </trkpt>
      <trkpt lat="45.5164" lon="-1.1266">
        <ele>66</ele>
        <time>2025-04-26T12:09:36Z</time>
      </trkpt>
      <trkpt lat="45.51643" lon="-1.12657">
        <ele>66</ele>
        <time>2025-04-26T12:09:37Z</time>
      </trkpt>
      <trkpt lat="45.51646" lon="-1.12655">
        <ele>66</ele>
        <time>2025-04-26T12:09:38Z</time>
      </trkpt>
      <trkpt lat="45.51648" lon="-1.12652">
        <ele>66</ele>
        <time>2025-04-26T12:09:39Z</time>
      </trkpt>
      <trkpt lat="45.5165" lon="-1.12649">
        <ele>66</ele>
        <time>2025-04-26T12:09:40Z</time>
      </trkpt>
      <trkpt lat="45.51652" lon="-1.12646">
        <ele>66</ele>
        <time>2025-04-26T12:09:41Z</time>
      </trkpt>
      <trkpt lat="45.51655" lon="-1.12643">
        <ele>66</ele>
        <time>2025-04-26T12:09:42Z</time>
      </trkpt>
      <trkpt lat="45.51658" lon="-1.1264">
        <ele>66</ele>
        <time>2025-04-26T12:09:43Z</time>
      </trkpt>
      <trkpt lat="45.5166" lon="-1.12638">
        <ele>66</ele>
        <time>2025-04-26T12:09:44Z</time>
      </trkpt>
      <trkpt lat="45.51662" lon="-1.12634">
        <ele>66</ele>
        <time>2025-04-26T12:09:45Z</time>
      </trkpt>
      <trkpt lat="45.51664" lon="-1.12631">
        <ele>67</ele>
        <time>2025-04-26T12:09:46Z</time>
      </trkpt>
      <trkpt lat="45.51667" lon="-1.12629">
        <ele>67</ele>
        <time>2025-04-26T12:09:47Z</time>
      </trkpt>
      <trkpt lat="45.5167" lon="-1.12626">
        <ele>67</ele>
        <time>2025-04-26T12:09:48Z</time>
      </trkpt>
      <trkpt lat="45.51672" lon="-1.12623">
        <ele>67</ele>
        <time>2025-04-26T12:09:49Z</time>
      </trkpt>
      <trkpt lat="45.51674" lon="-1.1262">
        <ele>68</ele>
        <time>2025-04-26T12:09:50Z</time>
      </trkpt>
      <trkpt lat="45.51676" lon="-1.12617">
        <ele>67</ele>
        <time>2025-04-26T12:09:51Z</time>
      </trkpt>
      <trkpt lat="45.51679" lon="-1.12614">
        <ele>67</ele>
        <time>2025-04-26T12:09:52Z</time>
      </trkpt>
      <trkpt lat="45.51682" lon="-1.12612">
        <ele>67</ele>
        <time>2025-04-26T12:09:53Z</time>
      </trkpt>
      <trkpt lat="45.51685" lon="-1.12609">
        <ele>67</ele>
        <time>2025-04-26T12:09:54Z</time>
      </trkpt>
      <trkpt lat="45.51687" lon="-1.12606">
        <ele>67</ele>
        <time>2025-04-26T12:09:55Z</time>
      </trkpt>
      <trkpt lat="45.5169" lon="-1.12603">
        <ele>66</ele>
        <time>2025-04-26T12:09:56Z</time>
      </trkpt>
      <trkpt lat="45.51693" lon="-1.12599">
        <ele>66</ele>
        <time>2025-04-26T12:09:57Z</time>
      </trkpt>
      <trkpt lat="45.51695" lon="-1.12597">
        <ele>67</ele>
        <time>2025-04-26T12:09:58Z</time>
      </trkpt>
      <trkpt lat="45.51698" lon="-1.12593">
        <ele>67</ele>
        <time>2025-04-26T12:09:59Z</time>
      </trkpt>
      <trkpt lat="45.517" lon="-1.1259">
        <ele>67</ele>
        <time>2025-04-26T12:10:00Z</time>
      </trkpt>
      <trkpt lat="45.51703" lon="-1.12587">
        <ele>67</ele>
        <time>2025-04-26T12:10:01Z</time>
      </trkpt>
      <trkpt lat="45.51706" lon="-1.12584">
        <ele>67</ele>
        <time>2025-04-26T12:10:02Z</time>
      </trkpt>
      <trkpt lat="45.51709" lon="-1.12581">
        <ele>67</ele>
        <time>2025-04-26T12:10:03Z</time>
      </trkpt>
      <trkpt lat="45.51711" lon="-1.12577">
        <ele>66</ele>
        <time>2025-04-26T12:10:04Z</time>
      </trkpt>
      <trkpt lat="45.51714" lon="-1.12574">
        <ele>66</ele>
        <time>2025-04-26T12:10:05Z</time>
      </trkpt>
      <trkpt lat="45.51717" lon="-1.12571">
        <ele>66</ele>
        <time>2025-04-26T12:10:06Z</time>
      </trkpt>
      <trkpt lat="45.51719" lon="-1.12567">
        <ele>66</ele>
        <time>2025-04-26T12:10:07Z</time>
      </trkpt>
      <trkpt lat="45.51722" lon="-1.12564">
        <ele>66</ele>
        <time>2025-04-26T12:10:08Z</time>
      </trkpt>
      <trkpt lat="45.51725" lon="-1.12561">
        <ele>66</ele>
        <time>2025-04-26T12:10:09Z</time>
      </trkpt>
      <trkpt lat="45.51729" lon="-1.12558">
        <ele>65</ele>
        <time>2025-04-26T12:10:10Z</time>
      </trkpt>
      <trkpt lat="45.51732" lon="-1.12555">
        <ele>65</ele>
        <time>2025-04-26T12:10:11Z</time>
      </trkpt>
      <trkpt lat="45.51735" lon="-1.12551">
        <ele>64</ele>
        <time>2025-04-26T12:10:12Z</time>
      </trkpt>
      <trkpt lat="45.51738" lon="-1.12548">
        <ele>64</ele>
        <time>2025-04-26T12:10:13Z</time>
      </trkpt>
      <trkpt lat="45.51741" lon="-1.12545">
        <ele>65</ele>
        <time>2025-04-26T12:10:14Z</time>
      </trkpt>
      <trkpt lat="45.51744" lon="-1.12542">
        <ele>65</ele>
        <time>2025-04-26T12:10:15Z</time>
      </trkpt>
      <trkpt lat="45.51747" lon="-1.12538">
        <ele>65</ele>
        <time>2025-04-26T12:10:16Z</time>
      </trkpt>
      <trkpt lat="45.5175" lon="-1.12534">
        <ele>65</ele>
        <time>2025-04-26T12:10:17Z</time>
      </trkpt>
      <trkpt lat="45.51752" lon="-1.12531">
        <ele>65</ele>
        <time>2025-04-26T12:10:18Z</time>
      </trkpt>
      <trkpt lat="45.51755" lon="-1.12526">
        <ele>65</ele>
        <time>2025-04-26T12:10:19Z</time>
      </trkpt>
      <trkpt lat="45.51757" lon="-1.12522">
        <ele>66</ele>
        <time>2025-04-26T12:10:20Z</time>
      </trkpt>
      <trkpt lat="45.5176" lon="-1.12518">
        <ele>66</ele>
        <time>2025-04-26T12:10:21Z</time>
      </trkpt>
      <trkpt lat="45.51763" lon="-1.12515">
        <ele>66</ele>
        <time>2025-04-26T12:10:22Z</time>
      </trkpt>
      <trkpt lat="45.51766" lon="-1.12511">
        <ele>66</ele>
        <time>2025-04-26T12:10:23Z</time>
      </trkpt>
      <trkpt lat="45.51769" lon="-1.12507">
        <ele>66</ele>
        <time>2025-04-26T12:10:24Z</time>
      </trkpt>
      <trkpt lat="45.51771" lon="-1.12503">
        <ele>66</ele>
        <time>2025-04-26T12:10:25Z</time>
      </trkpt>
      <trkpt lat="45.51774" lon="-1.12499">
        <ele>65</ele>
        <time>2025-04-26T12:10:26Z</time>
      </trkpt>
      <trkpt lat="45.51777" lon="-1.12495">
        <ele>65</ele>
        <time>2025-04-26T12:10:27Z</time>
      </trkpt>
      <trkpt lat="45.51779" lon="-1.12491">
        <ele>65</ele>
        <time>2025-04-26T12:10:28Z</time>
      </trkpt>
      <trkpt lat="45.51782" lon="-1.12487">
        <ele>65</ele>
        <time>2025-04-26T12:10:29Z</time>
      </trkpt>
      <trkpt lat="45.51784" lon="-1.12483">
        <ele>65</ele>
        <time>2025-04-26T12:10:30Z</time>
      </trkpt>
      <trkpt lat="45.51787" lon="-1.12479">
        <ele>65</ele>
        <time>2025-04-26T12:10:31Z</time>
      </trkpt>
      <trkpt lat="45.51789" lon="-1.12476">
        <ele>65</ele>
        <time>2025-04-26T12:10:32Z</time>
      </trkpt>
      <trkpt lat="45.51791" lon="-1.12472">
        <ele>65</ele>
        <time>2025-04-26T12:10:33Z</time>
      </trkpt>
      <trkpt lat="45.51793" lon="-1.12468">
        <ele>65</ele>
        <time>2025-04-26T12:10:34Z</time>
      </trkpt>
      <trkpt lat="45.51796" lon="-1.12464">
        <ele>65</ele>
        <time>2025-04-26T12:10:35Z</time>
      </trkpt>
      <trkpt lat="45.51798" lon="-1.12461">
        <ele>65</ele>
        <time>2025-04-26T12:10:36Z</time>
      </trkpt>
      <trkpt lat="45.518" lon="-1.12458">
        <ele>65</ele>
        <time>2025-04-26T12:10:37Z</time>
      </trkpt>
      <trkpt lat="45.51802" lon="-1.12454">
        <ele>65</ele>
        <time>2025-04-26T12:10:38Z</time>
      </trkpt>
      <trkpt lat="45.51804" lon="-1.12451">
        <ele>65</ele>
        <time>2025-04-26T12:10:39Z</time>
      </trkpt>
      <trkpt lat="45.51806" lon="-1.12447">
        <ele>65</ele>
        <time>2025-04-26T12:10:40Z</time>
      </trkpt>
      <trkpt lat="45.51808" lon="-1.12443">
        <ele>65</ele>
        <time>2025-04-26T12:10:41Z</time>
      </trkpt>
      <trkpt lat="45.5181" lon="-1.1244">
        <ele>65</ele>
        <time>2025-04-26T12:10:42Z</time>
      </trkpt>
      <trkpt lat="45.51812" lon="-1.12437">
        <ele>65</ele>
        <time>2025-04-26T12:10:43Z</time>
      </trkpt>
      <trkpt lat="45.51814" lon="-1.12434">
        <ele>66</ele>
        <time>2025-04-26T12:10:44Z</time>
      </trkpt>
      <trkpt lat="45.51816" lon="-1.1243">
        <ele>66</ele>
        <time>2025-04-26T12:10:45Z</time>
      </trkpt>
      <trkpt lat="45.51819" lon="-1.12426">
        <ele>66</ele>
        <time>2025-04-26T12:10:46Z</time>
      </trkpt>
      <trkpt lat="45.51821" lon="-1.12423">
        <ele>66</ele>
        <time>2025-04-26T12:10:47Z</time>
      </trkpt>
      <trkpt lat="45.51823" lon="-1.12419">
        <ele>66</ele>
        <time>2025-04-26T12:10:48Z</time>
      </trkpt>
      <trkpt lat="45.51825" lon="-1.12416">
        <ele>66</ele>
        <time>2025-04-26T12:10:49Z</time>
      </trkpt>
      <trkpt lat="45.51827" lon="-1.12412">
        <ele>67</ele>
        <time>2025-04-26T12:10:50Z</time>
      </trkpt>
      <trkpt lat="45.51828" lon="-1.12408">
        <ele>67</ele>
        <time>2025-04-26T12:10:51Z</time>
      </trkpt>
      <trkpt lat="45.5183" lon="-1.12403">
        <ele>67</ele>
        <time>2025-04-26T12:10:52Z</time>
      </trkpt>
      <trkpt lat="45.51831" lon="-1.12398">
        <ele>67</ele>
        <time>2025-04-26T12:10:53Z</time>
      </trkpt>
      <trkpt lat="45.51833" lon="-1.12393">
        <ele>67</ele>
        <time>2025-04-26T12:10:54Z</time>
      </trkpt>
      <trkpt lat="45.51834" lon="-1.12388">
        <ele>67</ele>
        <time>2025-04-26T12:10:55Z</time>
      </trkpt>
      <trkpt lat="45.51836" lon="-1.12383">
        <ele>67</ele>
        <time>2025-04-26T12:10:56Z</time>
      </trkpt>
      <trkpt lat="45.51838" lon="-1.12378">
        <ele>67</ele>
        <time>2025-04-26T12:10:57Z</time>
      </trkpt>
      <trkpt lat="45.51841" lon="-1.12374">
        <ele>67</ele>
        <time>2025-04-26T12:10:58Z</time>
      </trkpt>
      <trkpt lat="45.51843" lon="-1.12369">
        <ele>67</ele>
        <time>2025-04-26T12:10:59Z</time>
      </trkpt>
      <trkpt lat="45.51844" lon="-1.12364">
        <ele>67</ele>
        <time>2025-04-26T12:11:00Z</time>
      </trkpt>
      <trkpt lat="45.51846" lon="-1.12359">
        <ele>67</ele>
        <time>2025-04-26T12:11:01Z</time>
      </trkpt>
      <trkpt lat="45.51849" lon="-1.12353">
        <ele>66</ele>
        <time>2025-04-26T12:11:02Z</time>
      </trkpt>
      <trkpt lat="45.51851" lon="-1.12348">
        <ele>66</ele>
        <time>2025-04-26T12:11:03Z</time>
      </trkpt>
      <trkpt lat="45.51854" lon="-1.12343">
        <ele>66</ele>
        <time>2025-04-26T12:11:04Z</time>
      </trkpt>
      <trkpt lat="45.51856" lon="-1.12337">
        <ele>66</ele>
        <time>2025-04-26T12:11:05Z</time>
      </trkpt>
      <trkpt lat="45.51858" lon="-1.12331">
        <ele>66</ele>
        <time>2025-04-26T12:11:06Z</time>
      </trkpt>
      <trkpt lat="45.51861" lon="-1.12326">
        <ele>66</ele>
        <time>2025-04-26T12:11:07Z</time>
      </trkpt>
      <trkpt lat="45.51863" lon="-1.1232">
        <ele>66</ele>
        <time>2025-04-26T12:11:08Z</time>
      </trkpt>
      <trkpt lat="45.51865" lon="-1.12314">
        <ele>66</ele>
        <time>2025-04-26T12:11:09Z</time>
      </trkpt>
      <trkpt lat="45.51867" lon="-1.12308">
        <ele>66</ele>
        <time>2025-04-26T12:11:10Z</time>
      </trkpt>
      <trkpt lat="45.51869" lon="-1.12302">
        <ele>66</ele>
        <time>2025-04-26T12:11:11Z</time>
      </trkpt>
      <trkpt lat="45.51871" lon="-1.12296">
        <ele>66</ele>
        <time>2025-04-26T12:11:12Z</time>
      </trkpt>
      <trkpt lat="45.51873" lon="-1.1229">
        <ele>66</ele>
        <time>2025-04-26T12:11:13Z</time>
      </trkpt>
      <trkpt lat="45.51875" lon="-1.12284">
        <ele>66</ele>
        <time>2025-04-26T12:11:14Z</time>
      </trkpt>
      <trkpt lat="45.51878" lon="-1.12278">
        <ele>65</ele>
        <time>2025-04-26T12:11:15Z</time>
      </trkpt>
      <trkpt lat="45.5188" lon="-1.12273">
        <ele>66</ele>
        <time>2025-04-26T12:11:16Z</time>
      </trkpt>
      <trkpt lat="45.51882" lon="-1.12268">
        <ele>65</ele>
        <time>2025-04-26T12:11:17Z</time>
      </trkpt>
      <trkpt lat="45.51884" lon="-1.12263">
        <ele>66</ele>
        <time>2025-04-26T12:11:18Z</time>
      </trkpt>
      <trkpt lat="45.51886" lon="-1.12258">
        <ele>66</ele>
        <time>2025-04-26T12:11:19Z</time>
      </trkpt>
      <trkpt lat="45.51888" lon="-1.12253">
        <ele>66</ele>
        <time>2025-04-26T12:11:20Z</time>
      </trkpt>
      <trkpt lat="45.5189" lon="-1.12248">
        <ele>66</ele>
        <time>2025-04-26T12:11:21Z</time>
      </trkpt>
      <trkpt lat="45.51892" lon="-1.12243">
        <ele>66</ele>
        <time>2025-04-26T12:11:22Z</time>
      </trkpt>
      <trkpt lat="45.51893" lon="-1.12238">
        <ele>66</ele>
        <time>2025-04-26T12:11:23Z</time>
      </trkpt>
      <trkpt lat="45.51895" lon="-1.12233">
        <ele>65</ele>
        <time>2025-04-26T12:11:24Z</time>
      </trkpt>
      <trkpt lat="45.51897" lon="-1.12229">
        <ele>65</ele>
        <time>2025-04-26T12:11:25Z</time>
      </trkpt>
      <trkpt lat="45.519" lon="-1.12224">
        <ele>65</ele>
        <time>2025-04-26T12:11:26Z</time>
      </trkpt>
      <trkpt lat="45.51902" lon="-1.1222">
        <ele>64</ele>
        <time>2025-04-26T12:11:27Z</time>
      </trkpt>
      <trkpt lat="45.51903" lon="-1.12216">
        <ele>64</ele>
        <time>2025-04-26T12:11:28Z</time>
      </trkpt>
      <trkpt lat="45.51905" lon="-1.12212">
        <ele>65</ele>
        <time>2025-04-26T12:11:29Z</time>
      </trkpt>
      <trkpt lat="45.51906" lon="-1.12207">
        <ele>65</ele>
        <time>2025-04-26T12:11:30Z</time>
      </trkpt>
      <trkpt lat="45.51908" lon="-1.12203">
        <ele>65</ele>
        <time>2025-04-26T12:11:31Z</time>
      </trkpt>
      <trkpt lat="45.5191" lon="-1.12199">
        <ele>65</ele>
        <time>2025-04-26T12:11:32Z</time>
      </trkpt>
      <trkpt lat="45.51912" lon="-1.12194">
        <ele>65</ele>
        <time>2025-04-26T12:11:33Z</time>
      </trkpt>
      <trkpt lat="45.51913" lon="-1.1219">
        <ele>66</ele>
        <time>2025-04-26T12:11:34Z</time>
      </trkpt>
      <trkpt lat="45.51914" lon="-1.12186">
        <ele>66</ele>
        <time>2025-04-26T12:11:35Z</time>
      </trkpt>
      <trkpt lat="45.51916" lon="-1.12182">
        <ele>66</ele>
        <time>2025-04-26T12:11:36Z</time>
      </trkpt>
      <trkpt lat="45.51918" lon="-1.12177">
        <ele>66</ele>
        <time>2025-04-26T12:11:37Z</time>
      </trkpt>
      <trkpt lat="45.5192" lon="-1.12173">
        <ele>67</ele>
        <time>2025-04-26T12:11:38Z</time>
      </trkpt>
      <trkpt lat="45.51921" lon="-1.12169">
        <ele>67</ele>
        <time>2025-04-26T12:11:39Z</time>
      </trkpt>
      <trkpt lat="45.51923" lon="-1.12165">
        <ele>66</ele>
        <time>2025-04-26T12:11:40Z</time>
      </trkpt>
      <trkpt lat="45.51925" lon="-1.12162">
        <ele>66</ele>
        <time>2025-04-26T12:11:41Z</time>
      </trkpt>
      <trkpt lat="45.51926" lon="-1.12158">
        <ele>66</ele>
        <time>2025-04-26T12:11:42Z</time>
      </trkpt>
      <trkpt lat="45.51926" lon="-1.12155">
        <ele>67</ele>
        <time>2025-04-26T12:11:43Z</time>
      </trkpt>
      <trkpt lat="45.51926" lon="-1.12151">
        <ele>67</ele>
        <time>2025-04-26T12:11:44Z</time>
      </trkpt>
      <trkpt lat="45.51926" lon="-1.12147">
        <ele>67</ele>
        <time>2025-04-26T12:11:45Z</time>
      </trkpt>
      <trkpt lat="45.51926" lon="-1.12142">
        <ele>67</ele>
        <time>2025-04-26T12:11:46Z</time>
      </trkpt>
      <trkpt lat="45.51927" lon="-1.12138">
        <ele>67</ele>
        <time>2025-04-26T12:11:47Z</time>
      </trkpt>
      <trkpt lat="45.51929" lon="-1.12134">
        <ele>67</ele>
        <time>2025-04-26T12:11:48Z</time>
      </trkpt>
      <trkpt lat="45.5193" lon="-1.1213">
        <ele>67</ele>
        <time>2025-04-26T12:11:49Z</time>
      </trkpt>
      <trkpt lat="45.51932" lon="-1.12127">
        <ele>68</ele>
        <time>2025-04-26T12:11:50Z</time>
      </trkpt>
      <trkpt lat="45.51934" lon="-1.12124">
        <ele>68</ele>
        <time>2025-04-26T12:11:51Z</time>
      </trkpt>
      <trkpt lat="45.51935" lon="-1.12121">
        <ele>67</ele>
        <time>2025-04-26T12:11:52Z</time>
      </trkpt>
      <trkpt lat="45.51937" lon="-1.12117">
        <ele>67</ele>
        <time>2025-04-26T12:11:53Z</time>
      </trkpt>
      <trkpt lat="45.51938" lon="-1.12114">
        <ele>67</ele>
        <time>2025-04-26T12:11:54Z</time>
      </trkpt>
      <trkpt lat="45.5194" lon="-1.1211">
        <ele>67</ele>
        <time>2025-04-26T12:11:55Z</time>
      </trkpt>
      <trkpt lat="45.51941" lon="-1.12106">
        <ele>67</ele>
        <time>2025-04-26T12:11:56Z</time>
      </trkpt>
      <trkpt lat="45.51942" lon="-1.12102">
        <ele>67</ele>
        <time>2025-04-26T12:11:57Z</time>
      </trkpt>
      <trkpt lat="45.51944" lon="-1.12097">
        <ele>67</ele>
        <time>2025-04-26T12:11:58Z</time>
      </trkpt>
      <trkpt lat="45.51946" lon="-1.12092">
        <ele>67</ele>
        <time>2025-04-26T12:11:59Z</time>
      </trkpt>
      <trkpt lat="45.51948" lon="-1.12088">
        <ele>67</ele>
        <time>2025-04-26T12:12:00Z</time>
      </trkpt>
      <trkpt lat="45.51951" lon="-1.12083">
        <ele>66</ele>
        <time>2025-04-26T12:12:01Z</time>
      </trkpt>
      <trkpt lat="45.51952" lon="-1.12078">
        <ele>66</ele>
        <time>2025-04-26T12:12:02Z</time>
      </trkpt>
      <trkpt lat="45.51953" lon="-1.12073">
        <ele>67</ele>
        <time>2025-04-26T12:12:03Z</time>
      </trkpt>
      <trkpt lat="45.51954" lon="-1.12067">
        <ele>66</ele>
        <time>2025-04-26T12:12:04Z</time>
      </trkpt>
      <trkpt lat="45.51956" lon="-1.1206">
        <ele>66</ele>
        <time>2025-04-26T12:12:05Z</time>
      </trkpt>
      <trkpt lat="45.51958" lon="-1.12052">
        <ele>66</ele>
        <time>2025-04-26T12:12:06Z</time>
      </trkpt>
      <trkpt lat="45.5196" lon="-1.12045">
        <ele>66</ele>
        <time>2025-04-26T12:12:07Z</time>
      </trkpt>
      <trkpt lat="45.51961" lon="-1.12036">
        <ele>66</ele>
        <time>2025-04-26T12:12:08Z</time>
      </trkpt>
      <trkpt lat="45.51962" lon="-1.12028">
        <ele>66</ele>
        <time>2025-04-26T12:12:09Z</time>
      </trkpt>
      <trkpt lat="45.51962" lon="-1.12018">
        <ele>66</ele>
        <time>2025-04-26T12:12:10Z</time>
      </trkpt>
      <trkpt lat="45.51963" lon="-1.12008">
        <ele>65</ele>
        <time>2025-04-26T12:12:11Z</time>
      </trkpt>
      <trkpt lat="45.51962" lon="-1.11998">
        <ele>65</ele>
        <time>2025-04-26T12:12:12Z</time>
      </trkpt>
      <trkpt lat="45.51962" lon="-1.11987">
        <ele>64</ele>
        <time>2025-04-26T12:12:13Z</time>
      </trkpt>
      <trkpt lat="45.51962" lon="-1.11976">
        <ele>63</ele>
        <time>2025-04-26T12:12:14Z</time>
      </trkpt>
      <trkpt lat="45.51962" lon="-1.11966">
        <ele>63</ele>
        <time>2025-04-26T12:12:15Z</time>
      </trkpt>
      <trkpt lat="45.51964" lon="-1.11955">
        <ele>63</ele>
        <time>2025-04-26T12:12:16Z</time>
      </trkpt>
      <trkpt lat="45.51966" lon="-1.11946">
        <ele>62</ele>
        <time>2025-04-26T12:12:17Z</time>
      </trkpt>
      <trkpt lat="45.5197" lon="-1.11938">
        <ele>62</ele>
        <time>2025-04-26T12:12:18Z</time>
      </trkpt>
      <trkpt lat="45.51973" lon="-1.1193">
        <ele>62</ele>
        <time>2025-04-26T12:12:19Z</time>
      </trkpt>
      <trkpt lat="45.51978" lon="-1.11924">
        <ele>61</ele>
        <time>2025-04-26T12:12:20Z</time>
      </trkpt>
      <trkpt lat="45.51982" lon="-1.11918">
        <ele>61</ele>
        <time>2025-04-26T12:12:21Z</time>
      </trkpt>
      <trkpt lat="45.51987" lon="-1.11912">
        <ele>62</ele>
        <time>2025-04-26T12:12:22Z</time>
      </trkpt>
      <trkpt lat="45.51992" lon="-1.11906">
        <ele>62</ele>
        <time>2025-04-26T12:12:23Z</time>
      </trkpt>
      <trkpt lat="45.51996" lon="-1.11901">
        <ele>62</ele>
        <time>2025-04-26T12:12:24Z</time>
      </trkpt>
      <trkpt lat="45.52001" lon="-1.11897">
        <ele>62</ele>
        <time>2025-04-26T12:12:25Z</time>
      </trkpt>
      <trkpt lat="45.52005" lon="-1.11892">
        <ele>62</ele>
        <time>2025-04-26T12:12:26Z</time>
      </trkpt>
      <trkpt lat="45.52009" lon="-1.11887">
        <ele>62</ele>
        <time>2025-04-26T12:12:27Z</time>
      </trkpt>
      <trkpt lat="45.52013" lon="-1.11883">
        <ele>62</ele>
        <time>2025-04-26T12:12:28Z</time>
      </trkpt>
      <trkpt lat="45.52017" lon="-1.11879">
        <ele>62</ele>
        <time>2025-04-26T12:12:29Z</time>
      </trkpt>
      <trkpt lat="45.52022" lon="-1.11875">
        <ele>63</ele>
        <time>2025-04-26T12:12:30Z</time>
      </trkpt>
      <trkpt lat="45.52026" lon="-1.11871">
        <ele>63</ele>
        <time>2025-04-26T12:12:31Z</time>
      </trkpt>
      <trkpt lat="45.52029" lon="-1.11866">
        <ele>62</ele>
        <time>2025-04-26T12:12:32Z</time>
      </trkpt>
      <trkpt lat="45.52033" lon="-1.11862">
        <ele>62</ele>
        <time>2025-04-26T12:12:33Z</time>
      </trkpt>
      <trkpt lat="45.52038" lon="-1.11858">
        <ele>61</ele>
        <time>2025-04-26T12:12:34Z</time>
      </trkpt>
      <trkpt lat="45.52042" lon="-1.11854">
        <ele>61</ele>
        <time>2025-04-26T12:12:35Z</time>
      </trkpt>
      <trkpt lat="45.52046" lon="-1.1185">
        <ele>60</ele>
        <time>2025-04-26T12:12:36Z</time>
      </trkpt>
      <trkpt lat="45.5205" lon="-1.11847">
        <ele>60</ele>
        <time>2025-04-26T12:12:37Z</time>
      </trkpt>
      <trkpt lat="45.52053" lon="-1.11842">
        <ele>60</ele>
        <time>2025-04-26T12:12:38Z</time>
      </trkpt>
      <trkpt lat="45.52057" lon="-1.11838">
        <ele>60</ele>
        <time>2025-04-26T12:12:39Z</time>
      </trkpt>
      <trkpt lat="45.52061" lon="-1.11834">
        <ele>60</ele>
        <time>2025-04-26T12:12:40Z</time>
      </trkpt>
      <trkpt lat="45.52065" lon="-1.1183">
        <ele>61</ele>
        <time>2025-04-26T12:12:41Z</time>
      </trkpt>
      <trkpt lat="45.52069" lon="-1.11825">
        <ele>61</ele>
        <time>2025-04-26T12:12:42Z</time>
      </trkpt>
      <trkpt lat="45.52073" lon="-1.11821">
        <ele>61</ele>
        <time>2025-04-26T12:12:43Z</time>
      </trkpt>
      <trkpt lat="45.52077" lon="-1.11817">
        <ele>61</ele>
        <time>2025-04-26T12:12:44Z</time>
      </trkpt>
      <trkpt lat="45.52082" lon="-1.11813">
        <ele>61</ele>
        <time>2025-04-26T12:12:45Z</time>
      </trkpt>
      <trkpt lat="45.52086" lon="-1.1181">
        <ele>62</ele>
        <time>2025-04-26T12:12:46Z</time>
      </trkpt>
      <trkpt lat="45.52089" lon="-1.11805">
        <ele>61</ele>
        <time>2025-04-26T12:12:47Z</time>
      </trkpt>
      <trkpt lat="45.52093" lon="-1.11801">
        <ele>61</ele>
        <time>2025-04-26T12:12:48Z</time>
      </trkpt>
      <trkpt lat="45.52097" lon="-1.11796">
        <ele>61</ele>
        <time>2025-04-26T12:12:49Z</time>
      </trkpt>
      <trkpt lat="45.52102" lon="-1.11794">
        <ele>60</ele>
        <time>2025-04-26T12:12:50Z</time>
      </trkpt>
      <trkpt lat="45.52106" lon="-1.11789">
        <ele>59</ele>
        <time>2025-04-26T12:12:51Z</time>
      </trkpt>
      <trkpt lat="45.5211" lon="-1.11785">
        <ele>58</ele>
        <time>2025-04-26T12:12:52Z</time>
      </trkpt>
      <trkpt lat="45.52113" lon="-1.11781">
        <ele>58</ele>
        <time>2025-04-26T12:12:53Z</time>
      </trkpt>
      <trkpt lat="45.52117" lon="-1.11777">
        <ele>58</ele>
        <time>2025-04-26T12:12:54Z</time>
      </trkpt>
      <trkpt lat="45.52121" lon="-1.11773">
        <ele>58</ele>
        <time>2025-04-26T12:12:55Z</time>
      </trkpt>
      <trkpt lat="45.52125" lon="-1.11769">
        <ele>58</ele>
        <time>2025-04-26T12:12:56Z</time>
      </trkpt>
      <trkpt lat="45.52129" lon="-1.11766">
        <ele>57</ele>
        <time>2025-04-26T12:12:57Z</time>
      </trkpt>
      <trkpt lat="45.52133" lon="-1.11762">
        <ele>56</ele>
        <time>2025-04-26T12:12:58Z</time>
      </trkpt>
      <trkpt lat="45.52137" lon="-1.11758">
        <ele>56</ele>
        <time>2025-04-26T12:12:59Z</time>
      </trkpt>
      <trkpt lat="45.52141" lon="-1.11753">
        <ele>56</ele>
        <time>2025-04-26T12:13:00Z</time>
      </trkpt>
      <trkpt lat="45.52145" lon="-1.11748">
        <ele>57</ele>
        <time>2025-04-26T12:13:01Z</time>
      </trkpt>
      <trkpt lat="45.52149" lon="-1.11744">
        <ele>58</ele>
        <time>2025-04-26T12:13:02Z</time>
      </trkpt>
      <trkpt lat="45.52153" lon="-1.11742">
        <ele>58</ele>
        <time>2025-04-26T12:13:03Z</time>
      </trkpt>
      <trkpt lat="45.52157" lon="-1.11738">
        <ele>57</ele>
        <time>2025-04-26T12:13:04Z</time>
      </trkpt>
      <trkpt lat="45.52161" lon="-1.11733">
        <ele>57</ele>
        <time>2025-04-26T12:13:05Z</time>
      </trkpt>
      <trkpt lat="45.52165" lon="-1.11729">
        <ele>57</ele>
        <time>2025-04-26T12:13:06Z</time>
      </trkpt>
      <trkpt lat="45.52169" lon="-1.11724">
        <ele>57</ele>
        <time>2025-04-26T12:13:07Z</time>
      </trkpt>
      <trkpt lat="45.52173" lon="-1.1172">
        <ele>57</ele>
        <time>2025-04-26T12:13:08Z</time>
      </trkpt>
      <trkpt lat="45.52177" lon="-1.11716">
        <ele>58</ele>
        <time>2025-04-26T12:13:09Z</time>
      </trkpt>
      <trkpt lat="45.52181" lon="-1.11712">
        <ele>58</ele>
        <time>2025-04-26T12:13:10Z</time>
      </trkpt>
      <trkpt lat="45.52185" lon="-1.11707">
        <ele>58</ele>
        <time>2025-04-26T12:13:11Z</time>
      </trkpt>
      <trkpt lat="45.52189" lon="-1.11703">
        <ele>58</ele>
        <time>2025-04-26T12:13:12Z</time>
      </trkpt>
      <trkpt lat="45.52193" lon="-1.11699">
        <ele>58</ele>
        <time>2025-04-26T12:13:13Z</time>
      </trkpt>
      <trkpt lat="45.52197" lon="-1.11695">
        <ele>58</ele>
        <time>2025-04-26T12:13:14Z</time>
      </trkpt>
      <trkpt lat="45.52201" lon="-1.11692">
        <ele>59</ele>
        <time>2025-04-26T12:13:15Z</time>
      </trkpt>
      <trkpt lat="45.52205" lon="-1.11688">
        <ele>59</ele>
        <time>2025-04-26T12:13:16Z</time>
      </trkpt>
      <trkpt lat="45.52209" lon="-1.11684">
        <ele>59</ele>
        <time>2025-04-26T12:13:17Z</time>
      </trkpt>
      <trkpt lat="45.52214" lon="-1.1168">
        <ele>59</ele>
        <time>2025-04-26T12:13:18Z</time>
      </trkpt>
      <trkpt lat="45.52218" lon="-1.11676">
        <ele>59</ele>
        <time>2025-04-26T12:13:19Z</time>
      </trkpt>
      <trkpt lat="45.52221" lon="-1.11671">
        <ele>59</ele>
        <time>2025-04-26T12:13:20Z</time>
      </trkpt>
      <trkpt lat="45.52225" lon="-1.11667">
        <ele>59</ele>
        <time>2025-04-26T12:13:21Z</time>
      </trkpt>
      <trkpt lat="45.52229" lon="-1.11664">
        <ele>59</ele>
        <time>2025-04-26T12:13:22Z</time>
      </trkpt>
      <trkpt lat="45.52232" lon="-1.1166">
        <ele>59</ele>
        <time>2025-04-26T12:13:23Z</time>
      </trkpt>
      <trkpt lat="45.52236" lon="-1.11655">
        <ele>59</ele>
        <time>2025-04-26T12:13:24Z</time>
      </trkpt>
      <trkpt lat="45.5224" lon="-1.11651">
        <ele>60</ele>
        <time>2025-04-26T12:13:25Z</time>
      </trkpt>
      <trkpt lat="45.52244" lon="-1.11648">
        <ele>60</ele>
        <time>2025-04-26T12:13:26Z</time>
      </trkpt>
      <trkpt lat="45.52248" lon="-1.11644">
        <ele>60</ele>
        <time>2025-04-26T12:13:27Z</time>
      </trkpt>
      <trkpt lat="45.52252" lon="-1.1164">
        <ele>60</ele>
        <time>2025-04-26T12:13:28Z</time>
      </trkpt>
      <trkpt lat="45.52255" lon="-1.11636">
        <ele>60</ele>
        <time>2025-04-26T12:13:29Z</time>
      </trkpt>
      <trkpt lat="45.52259" lon="-1.11632">
        <ele>61</ele>
        <time>2025-04-26T12:13:30Z</time>
      </trkpt>
      <trkpt lat="45.52262" lon="-1.11628">
        <ele>60</ele>
        <time>2025-04-26T12:13:31Z</time>
      </trkpt>
      <trkpt lat="45.52266" lon="-1.11625">
        <ele>60</ele>
        <time>2025-04-26T12:13:32Z</time>
      </trkpt>
      <trkpt lat="45.5227" lon="-1.11621">
        <ele>60</ele>
        <time>2025-04-26T12:13:33Z</time>
      </trkpt>
      <trkpt lat="45.52274" lon="-1.11618">
        <ele>59</ele>
        <time>2025-04-26T12:13:34Z</time>
      </trkpt>
      <trkpt lat="45.52278" lon="-1.11614">
        <ele>59</ele>
        <time>2025-04-26T12:13:35Z</time>
      </trkpt>
      <trkpt lat="45.52281" lon="-1.1161">
        <ele>59</ele>
        <time>2025-04-26T12:13:36Z</time>
      </trkpt>
      <trkpt lat="45.52284" lon="-1.11607">
        <ele>59</ele>
        <time>2025-04-26T12:13:37Z</time>
      </trkpt>
      <trkpt lat="45.52287" lon="-1.11603">
        <ele>59</ele>
        <time>2025-04-26T12:13:38Z</time>
      </trkpt>
      <trkpt lat="45.52291" lon="-1.116">
        <ele>59</ele>
        <time>2025-04-26T12:13:39Z</time>
      </trkpt>
      <trkpt lat="45.52295" lon="-1.11597">
        <ele>58</ele>
        <time>2025-04-26T12:13:40Z</time>
      </trkpt>
      <trkpt lat="45.52298" lon="-1.11594">
        <ele>58</ele>
        <time>2025-04-26T12:13:41Z</time>
      </trkpt>
      <trkpt lat="45.52301" lon="-1.1159">
        <ele>58</ele>
        <time>2025-04-26T12:13:42Z</time>
      </trkpt>
      <trkpt lat="45.52304" lon="-1.11586">
        <ele>59</ele>
        <time>2025-04-26T12:13:43Z</time>
      </trkpt>
      <trkpt lat="45.52308" lon="-1.11583">
        <ele>59</ele>
        <time>2025-04-26T12:13:44Z</time>
      </trkpt>
      <trkpt lat="45.52311" lon="-1.11579">
        <ele>59</ele>
        <time>2025-04-26T12:13:45Z</time>
      </trkpt>
      <trkpt lat="45.52315" lon="-1.11576">
        <ele>59</ele>
        <time>2025-04-26T12:13:46Z</time>
      </trkpt>
      <trkpt lat="45.52319" lon="-1.11572">
        <ele>59</ele>
        <time>2025-04-26T12:13:47Z</time>
      </trkpt>
      <trkpt lat="45.52322" lon="-1.11568">
        <ele>59</ele>
        <time>2025-04-26T12:13:48Z</time>
      </trkpt>
      <trkpt lat="45.52326" lon="-1.11564">
        <ele>59</ele>
        <time>2025-04-26T12:13:49Z</time>
      </trkpt>
      <trkpt lat="45.5233" lon="-1.1156">
        <ele>59</ele>
        <time>2025-04-26T12:13:50Z</time>
      </trkpt>
      <trkpt lat="45.52334" lon="-1.11556">
        <ele>59</ele>
        <time>2025-04-26T12:13:51Z</time>
      </trkpt>
      <trkpt lat="45.52338" lon="-1.11553">
        <ele>58</ele>
        <time>2025-04-26T12:13:52Z</time>
      </trkpt>
      <trkpt lat="45.52341" lon="-1.11549">
        <ele>58</ele>
        <time>2025-04-26T12:13:53Z</time>
      </trkpt>
      <trkpt lat="45.52344" lon="-1.11546">
        <ele>58</ele>
        <time>2025-04-26T12:13:54Z</time>
      </trkpt>
      <trkpt lat="45.52348" lon="-1.11542">
        <ele>58</ele>
        <time>2025-04-26T12:13:55Z</time>
      </trkpt>
      <trkpt lat="45.52351" lon="-1.11539">
        <ele>58</ele>
        <time>2025-04-26T12:13:56Z</time>
      </trkpt>
      <trkpt lat="45.52355" lon="-1.11535">
        <ele>58</ele>
        <time>2025-04-26T12:13:57Z</time>
      </trkpt>
      <trkpt lat="45.52359" lon="-1.11531">
        <ele>58</ele>
        <time>2025-04-26T12:13:58Z</time>
      </trkpt>
      <trkpt lat="45.52363" lon="-1.11527">
        <ele>59</ele>
        <time>2025-04-26T12:13:59Z</time>
      </trkpt>
      <trkpt lat="45.52367" lon="-1.11523">
        <ele>59</ele>
        <time>2025-04-26T12:14:00Z</time>
      </trkpt>
      <trkpt lat="45.5237" lon="-1.1152">
        <ele>59</ele>
        <time>2025-04-26T12:14:01Z</time>
      </trkpt>
      <trkpt lat="45.52374" lon="-1.11517">
        <ele>59</ele>
        <time>2025-04-26T12:14:02Z</time>
      </trkpt>
      <trkpt lat="45.52378" lon="-1.11513">
        <ele>59</ele>
        <time>2025-04-26T12:14:03Z</time>
      </trkpt>
      <trkpt lat="45.52381" lon="-1.11509">
        <ele>59</ele>
        <time>2025-04-26T12:14:04Z</time>
      </trkpt>
      <trkpt lat="45.52384" lon="-1.11505">
        <ele>60</ele>
        <time>2025-04-26T12:14:05Z</time>
      </trkpt>
      <trkpt lat="45.52388" lon="-1.11502">
        <ele>59</ele>
        <time>2025-04-26T12:14:06Z</time>
      </trkpt>
      <trkpt lat="45.52391" lon="-1.11499">
        <ele>59</ele>
        <time>2025-04-26T12:14:07Z</time>
      </trkpt>
      <trkpt lat="45.52394" lon="-1.11496">
        <ele>58</ele>
        <time>2025-04-26T12:14:08Z</time>
      </trkpt>
      <trkpt lat="45.52397" lon="-1.11492">
        <ele>58</ele>
        <time>2025-04-26T12:14:09Z</time>
      </trkpt>
      <trkpt lat="45.524" lon="-1.11489">
        <ele>58</ele>
        <time>2025-04-26T12:14:10Z</time>
      </trkpt>
      <trkpt lat="45.52403" lon="-1.11485">
        <ele>58</ele>
        <time>2025-04-26T12:14:11Z</time>
      </trkpt>
      <trkpt lat="45.52406" lon="-1.11482">
        <ele>59</ele>
        <time>2025-04-26T12:14:12Z</time>
      </trkpt>
      <trkpt lat="45.52409" lon="-1.11479">
        <ele>59</ele>
        <time>2025-04-26T12:14:13Z</time>
      </trkpt>
      <trkpt lat="45.52412" lon="-1.11475">
        <ele>59</ele>
        <time>2025-04-26T12:14:14Z</time>
      </trkpt>
      <trkpt lat="45.52414" lon="-1.11472">
        <ele>58</ele>
        <time>2025-04-26T12:14:15Z</time>
      </trkpt>
      <trkpt lat="45.52416" lon="-1.11467">
        <ele>58</ele>
        <time>2025-04-26T12:14:16Z</time>
      </trkpt>
      <trkpt lat="45.52419" lon="-1.11463">
        <ele>58</ele>
        <time>2025-04-26T12:14:17Z</time>
      </trkpt>
      <trkpt lat="45.52421" lon="-1.11459">
        <ele>57</ele>
        <time>2025-04-26T12:14:18Z</time>
      </trkpt>
      <trkpt lat="45.52424" lon="-1.11454">
        <ele>57</ele>
        <time>2025-04-26T12:14:19Z</time>
      </trkpt>
      <trkpt lat="45.52426" lon="-1.11449">
        <ele>58</ele>
        <time>2025-04-26T12:14:20Z</time>
      </trkpt>
      <trkpt lat="45.5243" lon="-1.11445">
        <ele>58</ele>
        <time>2025-04-26T12:14:21Z</time>
      </trkpt>
      <trkpt lat="45.52433" lon="-1.11441">
        <ele>59</ele>
        <time>2025-04-26T12:14:22Z</time>
      </trkpt>
      <trkpt lat="45.52436" lon="-1.11437">
        <ele>59</ele>
        <time>2025-04-26T12:14:23Z</time>
      </trkpt>
      <trkpt lat="45.52439" lon="-1.11434">
        <ele>59</ele>
        <time>2025-04-26T12:14:24Z</time>
      </trkpt>
      <trkpt lat="45.52442" lon="-1.11431">
        <ele>60</ele>
        <time>2025-04-26T12:14:25Z</time>
      </trkpt>
      <trkpt lat="45.52445" lon="-1.11428">
        <ele>59</ele>
        <time>2025-04-26T12:14:26Z</time>
      </trkpt>
      <trkpt lat="45.52449" lon="-1.11424">
        <ele>59</ele>
        <time>2025-04-26T12:14:27Z</time>
      </trkpt>
      <trkpt lat="45.52452" lon="-1.11421">
        <ele>59</ele>
        <time>2025-04-26T12:14:28Z</time>
      </trkpt>
      <trkpt lat="45.52456" lon="-1.11417">
        <ele>59</ele>
        <time>2025-04-26T12:14:29Z</time>
      </trkpt>
      <trkpt lat="45.52459" lon="-1.11414">
        <ele>60</ele>
        <time>2025-04-26T12:14:30Z</time>
      </trkpt>
      <trkpt lat="45.52462" lon="-1.11411">
        <ele>60</ele>
        <time>2025-04-26T12:14:31Z</time>
      </trkpt>
      <trkpt lat="45.52466" lon="-1.11408">
        <ele>60</ele>
        <time>2025-04-26T12:14:32Z</time>
      </trkpt>
      <trkpt lat="45.52469" lon="-1.11404">
        <ele>60</ele>
        <time>2025-04-26T12:14:33Z</time>
      </trkpt>
      <trkpt lat="45.52472" lon="-1.11401">
        <ele>60</ele>
        <time>2025-04-26T12:14:34Z</time>
      </trkpt>
      <trkpt lat="45.52475" lon="-1.11398">
        <ele>60</ele>
        <time>2025-04-26T12:14:35Z</time>
      </trkpt>
      <trkpt lat="45.52479" lon="-1.11394">
        <ele>60</ele>
        <time>2025-04-26T12:14:36Z</time>
      </trkpt>
      <trkpt lat="45.52482" lon="-1.11391">
        <ele>60</ele>
        <time>2025-04-26T12:14:37Z</time>
      </trkpt>
      <trkpt lat="45.52485" lon="-1.11387">
        <ele>60</ele>
        <time>2025-04-26T12:14:38Z</time>
      </trkpt>
      <trkpt lat="45.52488" lon="-1.11384">
        <ele>60</ele>
        <time>2025-04-26T12:14:39Z</time>
      </trkpt>
      <trkpt lat="45.52491" lon="-1.1138">
        <ele>60</ele>
        <time>2025-04-26T12:14:40Z</time>
      </trkpt>
      <trkpt lat="45.52494" lon="-1.11377">
        <ele>60</ele>
        <time>2025-04-26T12:14:41Z</time>
      </trkpt>
      <trkpt lat="45.52497" lon="-1.11373">
        <ele>59</ele>
        <time>2025-04-26T12:14:42Z</time>
      </trkpt>
      <trkpt lat="45.525" lon="-1.11369">
        <ele>60</ele>
        <time>2025-04-26T12:14:43Z</time>
      </trkpt>
      <trkpt lat="45.52503" lon="-1.11366">
        <ele>60</ele>
        <time>2025-04-26T12:14:44Z</time>
      </trkpt>
      <trkpt lat="45.52506" lon="-1.11362">
        <ele>60</ele>
        <time>2025-04-26T12:14:45Z</time>
      </trkpt>
      <trkpt lat="45.52508" lon="-1.11358">
        <ele>61</ele>
        <time>2025-04-26T12:14:46Z</time>
      </trkpt>
      <trkpt lat="45.52511" lon="-1.11355">
        <ele>61</ele>
        <time>2025-04-26T12:14:47Z</time>
      </trkpt>
      <trkpt lat="45.52514" lon="-1.11352">
        <ele>61</ele>
        <time>2025-04-26T12:14:48Z</time>
      </trkpt>
      <trkpt lat="45.52517" lon="-1.11349">
        <ele>61</ele>
        <time>2025-04-26T12:14:49Z</time>
      </trkpt>
      <trkpt lat="45.52519" lon="-1.11347">
        <ele>62</ele>
        <time>2025-04-26T12:14:50Z</time>
      </trkpt>
      <trkpt lat="45.52522" lon="-1.11346">
        <ele>63</ele>
        <time>2025-04-26T12:14:51Z</time>
      </trkpt>
      <trkpt lat="45.52525" lon="-1.11344">
        <ele>63</ele>
        <time>2025-04-26T12:14:52Z</time>
      </trkpt>
      <trkpt lat="45.52528" lon="-1.11342">
        <ele>64</ele>
        <time>2025-04-26T12:14:53Z</time>
      </trkpt>
      <trkpt lat="45.52531" lon="-1.11341">
        <ele>64</ele>
        <time>2025-04-26T12:14:54Z</time>
      </trkpt>
      <trkpt lat="45.52533" lon="-1.11339">
        <ele>64</ele>
        <time>2025-04-26T12:14:55Z</time>
      </trkpt>
      <trkpt lat="45.52536" lon="-1.11337">
        <ele>64</ele>
        <time>2025-04-26T12:14:56Z</time>
      </trkpt>
      <trkpt lat="45.52539" lon="-1.11336">
        <ele>65</ele>
        <time>2025-04-26T12:14:57Z</time>
      </trkpt>
      <trkpt lat="45.52541" lon="-1.11334">
        <ele>64</ele>
        <time>2025-04-26T12:14:58Z</time>
      </trkpt>
      <trkpt lat="45.52544" lon="-1.11332">
        <ele>64</ele>
        <time>2025-04-26T12:14:59Z</time>
      </trkpt>
      <trkpt lat="45.52547" lon="-1.11331">
        <ele>65</ele>
        <time>2025-04-26T12:15:00Z</time>
      </trkpt>
      <trkpt lat="45.5255" lon="-1.1133">
        <ele>65</ele>
        <time>2025-04-26T12:15:01Z</time>
      </trkpt>
      <trkpt lat="45.52552" lon="-1.11329">
        <ele>65</ele>
        <time>2025-04-26T12:15:02Z</time>
      </trkpt>
      <trkpt lat="45.52555" lon="-1.11326">
        <ele>65</ele>
        <time>2025-04-26T12:15:03Z</time>
      </trkpt>
      <trkpt lat="45.52557" lon="-1.11324">
        <ele>66</ele>
        <time>2025-04-26T12:15:04Z</time>
      </trkpt>
      <trkpt lat="45.5256" lon="-1.11322">
        <ele>67</ele>
        <time>2025-04-26T12:15:05Z</time>
      </trkpt>
      <trkpt lat="45.52563" lon="-1.11321">
        <ele>67</ele>
        <time>2025-04-26T12:15:06Z</time>
      </trkpt>
      <trkpt lat="45.52566" lon="-1.1132">
        <ele>67</ele>
        <time>2025-04-26T12:15:07Z</time>
      </trkpt>
      <trkpt lat="45.52569" lon="-1.11318">
        <ele>67</ele>
        <time>2025-04-26T12:15:08Z</time>
      </trkpt>
      <trkpt lat="45.52571" lon="-1.11315">
        <ele>67</ele>
        <time>2025-04-26T12:15:09Z</time>
      </trkpt>
      <trkpt lat="45.52574" lon="-1.11313">
        <ele>66</ele>
        <time>2025-04-26T12:15:10Z</time>
      </trkpt>
      <trkpt lat="45.52577" lon="-1.11311">
        <ele>66</ele>
        <time>2025-04-26T12:15:11Z</time>
      </trkpt>
      <trkpt lat="45.52581" lon="-1.11308">
        <ele>66</ele>
        <time>2025-04-26T12:15:12Z</time>
      </trkpt>
      <trkpt lat="45.52584" lon="-1.11307">
        <ele>65</ele>
        <time>2025-04-26T12:15:13Z</time>
      </trkpt>
      <trkpt lat="45.52587" lon="-1.11303">
        <ele>65</ele>
        <time>2025-04-26T12:15:14Z</time>
      </trkpt>
      <trkpt lat="45.52591" lon="-1.11301">
        <ele>65</ele>
        <time>2025-04-26T12:15:15Z</time>
      </trkpt>
      <trkpt lat="45.52595" lon="-1.11298">
        <ele>64</ele>
        <time>2025-04-26T12:15:16Z</time>
      </trkpt>
      <trkpt lat="45.52599" lon="-1.11295">
        <ele>64</ele>
        <time>2025-04-26T12:15:17Z</time>
      </trkpt>
      <trkpt lat="45.52603" lon="-1.11291">
        <ele>64</ele>
        <time>2025-04-26T12:15:18Z</time>
      </trkpt>
      <trkpt lat="45.52608" lon="-1.11288">
        <ele>64</ele>
        <time>2025-04-26T12:15:19Z</time>
      </trkpt>
      <trkpt lat="45.52613" lon="-1.11285">
        <ele>64</ele>
        <time>2025-04-26T12:15:20Z</time>
      </trkpt>
      <trkpt lat="45.52618" lon="-1.11282">
        <ele>64</ele>
        <time>2025-04-26T12:15:21Z</time>
      </trkpt>
      <trkpt lat="45.52622" lon="-1.11278">
        <ele>64</ele>
        <time>2025-04-26T12:15:22Z</time>
      </trkpt>
      <trkpt lat="45.52627" lon="-1.11275">
        <ele>64</ele>
        <time>2025-04-26T12:15:23Z</time>
      </trkpt>
      <trkpt lat="45.52632" lon="-1.11273">
        <ele>63</ele>
        <time>2025-04-26T12:15:24Z</time>
      </trkpt>
      <trkpt lat="45.52638" lon="-1.11272">
        <ele>63</ele>
        <time>2025-04-26T12:15:25Z</time>
      </trkpt>
      <trkpt lat="45.52644" lon="-1.11271">
        <ele>62</ele>
        <time>2025-04-26T12:15:26Z</time>
      </trkpt>
      <trkpt lat="45.5265" lon="-1.11268">
        <ele>62</ele>
        <time>2025-04-26T12:15:27Z</time>
      </trkpt>
      <trkpt lat="45.52655" lon="-1.11265">
        <ele>63</ele>
        <time>2025-04-26T12:15:28Z</time>
      </trkpt>
      <trkpt lat="45.5266" lon="-1.11263">
        <ele>63</ele>
        <time>2025-04-26T12:15:29Z</time>
      </trkpt>
      <trkpt lat="45.52666" lon="-1.11261">
        <ele>62</ele>
        <time>2025-04-26T12:15:30Z</time>
      </trkpt>
      <trkpt lat="45.52671" lon="-1.11257">
        <ele>62</ele>
        <time>2025-04-26T12:15:31Z</time>
      </trkpt>
      <trkpt lat="45.52676" lon="-1.11254">
        <ele>62</ele>
        <time>2025-04-26T12:15:32Z</time>
      </trkpt>
      <trkpt lat="45.5268" lon="-1.11251">
        <ele>62</ele>
        <time>2025-04-26T12:15:33Z</time>
      </trkpt>
      <trkpt lat="45.52685" lon="-1.11249">
        <ele>62</ele>
        <time>2025-04-26T12:15:34Z</time>
      </trkpt>
      <trkpt lat="45.52689" lon="-1.11247">
        <ele>62</ele>
        <time>2025-04-26T12:15:35Z</time>
      </trkpt>
      <trkpt lat="45.52694" lon="-1.11245">
        <ele>62</ele>
        <time>2025-04-26T12:15:36Z</time>
      </trkpt>
      <trkpt lat="45.52699" lon="-1.11245">
        <ele>61</ele>
        <time>2025-04-26T12:15:37Z</time>
      </trkpt>
      <trkpt lat="45.52703" lon="-1.11244">
        <ele>61</ele>
        <time>2025-04-26T12:15:38Z</time>
      </trkpt>
      <trkpt lat="45.52708" lon="-1.11244">
        <ele>62</ele>
        <time>2025-04-26T12:15:39Z</time>
      </trkpt>
      <trkpt lat="45.52711" lon="-1.11243">
        <ele>62</ele>
        <time>2025-04-26T12:15:40Z</time>
      </trkpt>
      <trkpt lat="45.52715" lon="-1.11243">
        <ele>62</ele>
        <time>2025-04-26T12:15:41Z</time>
      </trkpt>
      <trkpt lat="45.52718" lon="-1.11243">
        <ele>62</ele>
        <time>2025-04-26T12:15:42Z</time>
      </trkpt>
      <trkpt lat="45.52721" lon="-1.11243">
        <ele>62</ele>
        <time>2025-04-26T12:15:43Z</time>
      </trkpt>
      <trkpt lat="45.52725" lon="-1.11243">
        <ele>62</ele>
        <time>2025-04-26T12:15:44Z</time>
      </trkpt>
      <trkpt lat="45.52729" lon="-1.11243">
        <ele>61</ele>
        <time>2025-04-26T12:15:45Z</time>
      </trkpt>
      <trkpt lat="45.52733" lon="-1.11243">
        <ele>61</ele>
        <time>2025-04-26T12:15:46Z</time>
      </trkpt>
      <trkpt lat="45.52737" lon="-1.11243">
        <ele>61</ele>
        <time>2025-04-26T12:15:47Z</time>
      </trkpt>
      <trkpt lat="45.52742" lon="-1.11243">
        <ele>61</ele>
        <time>2025-04-26T12:15:48Z</time>
      </trkpt>
      <trkpt lat="45.52746" lon="-1.11242">
        <ele>60</ele>
        <time>2025-04-26T12:15:49Z</time>
      </trkpt>
      <trkpt lat="45.52751" lon="-1.1124">
        <ele>60</ele>
        <time>2025-04-26T12:15:50Z</time>
      </trkpt>
      <trkpt lat="45.52755" lon="-1.11238">
        <ele>60</ele>
        <time>2025-04-26T12:15:51Z</time>
      </trkpt>
      <trkpt lat="45.52759" lon="-1.11236">
        <ele>60</ele>
        <time>2025-04-26T12:15:52Z</time>
      </trkpt>
      <trkpt lat="45.52763" lon="-1.11233">
        <ele>60</ele>
        <time>2025-04-26T12:15:53Z</time>
      </trkpt>
      <trkpt lat="45.52767" lon="-1.1123">
        <ele>60</ele>
        <time>2025-04-26T12:15:54Z</time>
      </trkpt>
      <trkpt lat="45.52771" lon="-1.11227">
        <ele>60</ele>
        <time>2025-04-26T12:15:55Z</time>
      </trkpt>
      <trkpt lat="45.52775" lon="-1.11224">
        <ele>60</ele>
        <time>2025-04-26T12:15:56Z</time>
      </trkpt>
      <trkpt lat="45.52779" lon="-1.11222">
        <ele>60</ele>
        <time>2025-04-26T12:15:57Z</time>
      </trkpt>
      <trkpt lat="45.52782" lon="-1.1122">
        <ele>60</ele>
        <time>2025-04-26T12:15:58Z</time>
      </trkpt>
      <trkpt lat="45.52784" lon="-1.11222">
        <ele>60</ele>
        <time>2025-04-26T12:15:59Z</time>
      </trkpt>
      <trkpt lat="45.52786" lon="-1.11225">
        <ele>60</ele>
        <time>2025-04-26T12:16:00Z</time>
      </trkpt>
      <trkpt lat="45.52788" lon="-1.11227">
        <ele>60</ele>
        <time>2025-04-26T12:16:01Z</time>
      </trkpt>
      <trkpt lat="45.52789" lon="-1.11229">
        <ele>60</ele>
        <time>2025-04-26T12:16:02Z</time>
      </trkpt>
      <trkpt lat="45.52791" lon="-1.11229">
        <ele>60</ele>
        <time>2025-04-26T12:16:03Z</time>
      </trkpt>
      <trkpt lat="45.52793" lon="-1.11228">
        <ele>60</ele>
        <time>2025-04-26T12:16:04Z</time>
      </trkpt>
      <trkpt lat="45.52795" lon="-1.11226">
        <ele>60</ele>
        <time>2025-04-26T12:16:05Z</time>
      </trkpt>
      <trkpt lat="45.52797" lon="-1.11224">
        <ele>60</ele>
        <time>2025-04-26T12:16:06Z</time>
      </trkpt>
      <trkpt lat="45.52799" lon="-1.11223">
        <ele>60</ele>
        <time>2025-04-26T12:16:07Z</time>
      </trkpt>
      <trkpt lat="45.52801" lon="-1.1122">
        <ele>60</ele>
        <time>2025-04-26T12:16:08Z</time>
      </trkpt>
      <trkpt lat="45.52803" lon="-1.11218">
        <ele>60</ele>
        <time>2025-04-26T12:16:09Z</time>
      </trkpt>
      <trkpt lat="45.52805" lon="-1.11215">
        <ele>60</ele>
        <time>2025-04-26T12:16:10Z</time>
      </trkpt>
      <trkpt lat="45.52807" lon="-1.11211">
        <ele>60</ele>
        <time>2025-04-26T12:16:11Z</time>
      </trkpt>
      <trkpt lat="45.52809" lon="-1.11208">
        <ele>60</ele>
        <time>2025-04-26T12:16:12Z</time>
      </trkpt>
      <trkpt lat="45.52811" lon="-1.11205">
        <ele>61</ele>
        <time>2025-04-26T12:16:13Z</time>
      </trkpt>
      <trkpt lat="45.52813" lon="-1.11202">
        <ele>60</ele>
        <time>2025-04-26T12:16:14Z</time>
      </trkpt>
      <trkpt lat="45.52814" lon="-1.11198">
        <ele>60</ele>
        <time>2025-04-26T12:16:15Z</time>
      </trkpt>
      <trkpt lat="45.52816" lon="-1.11194">
        <ele>60</ele>
        <time>2025-04-26T12:16:16Z</time>
      </trkpt>
      <trkpt lat="45.52817" lon="-1.1119">
        <ele>60</ele>
        <time>2025-04-26T12:16:17Z</time>
      </trkpt>
      <trkpt lat="45.52819" lon="-1.11186">
        <ele>60</ele>
        <time>2025-04-26T12:16:18Z</time>
      </trkpt>
      <trkpt lat="45.5282" lon="-1.11182">
        <ele>60</ele>
        <time>2025-04-26T12:16:19Z</time>
      </trkpt>
      <trkpt lat="45.52821" lon="-1.11178">
        <ele>60</ele>
        <time>2025-04-26T12:16:20Z</time>
      </trkpt>
      <trkpt lat="45.52822" lon="-1.11174">
        <ele>60</ele>
        <time>2025-04-26T12:16:21Z</time>
      </trkpt>
      <trkpt lat="45.52823" lon="-1.1117">
        <ele>61</ele>
        <time>2025-04-26T12:16:22Z</time>
      </trkpt>
      <trkpt lat="45.52824" lon="-1.11167">
        <ele>61</ele>
        <time>2025-04-26T12:16:23Z</time>
      </trkpt>
      <trkpt lat="45.52826" lon="-1.11167">
        <ele>61</ele>
        <time>2025-04-26T12:16:24Z</time>
      </trkpt>
      <trkpt lat="45.52827" lon="-1.11166">
        <ele>61</ele>
        <time>2025-04-26T12:16:25Z</time>
      </trkpt>
      <trkpt lat="45.52827" lon="-1.11165">
        <ele>61</ele>
        <time>2025-04-26T12:16:26Z</time>
      </trkpt>
      <trkpt lat="45.52828" lon="-1.11166">
        <ele>61</ele>
        <time>2025-04-26T12:16:27Z</time>
      </trkpt>
      <trkpt lat="45.52828" lon="-1.11166">
        <ele>61</ele>
        <time>2025-04-26T12:16:28Z</time>
      </trkpt>
      <trkpt lat="45.52828" lon="-1.11166">
        <ele>61</ele>
        <time>2025-04-26T12:16:29Z</time>
      </trkpt>
      <trkpt lat="45.52828" lon="-1.11166">
        <ele>61</ele>
        <time>2025-04-26T12:16:30Z</time>
      </trkpt>
      <trkpt lat="45.52828" lon="-1.11166">
        <ele>61</ele>
        <time>2025-04-26T12:16:31Z</time>
      </trkpt>
      <trkpt lat="45.52828" lon="-1.11166">
        <ele>61</ele>
        <time>2025-04-26T12:16:32Z</time>
      </trkpt>
      <trkpt lat="45.52828" lon="-1.11166">
        <ele>61</ele>
        <time>2025-04-26T12:16:33Z</time>
      </trkpt>
      <trkpt lat="45.52828" lon="-1.11166">
        <ele>61</ele>
        <time>2025-04-26T12:16:34Z</time>
      </trkpt>
      <trkpt lat="45.52828" lon="-1.11166">
        <ele>61</ele>
        <time>2025-04-26T12:16:35Z</time>
      </trkpt>
      <trkpt lat="45.52828" lon="-1.11166">
        <ele>61</ele>
        <time>2025-04-26T12:16:36Z</time>
      </trkpt>
      <trkpt lat="45.52828" lon="-1.11166">
        <ele>61</ele>
        <time>2025-04-26T12:16:37Z</time>
      </trkpt>
      <trkpt lat="45.52828" lon="-1.11166">
        <ele>61</ele>
        <time>2025-04-26T12:16:38Z</time>
      </trkpt>
      <trkpt lat="45.52828" lon="-1.11166">
        <ele>61</ele>
        <time>2025-04-26T12:16:39Z</time>
      </trkpt>
      <trkpt lat="45.52828" lon="-1.11166">
        <ele>61</ele>
        <time>2025-04-26T12:16:40Z</time>
      </trkpt>
      <trkpt lat="45.52828" lon="-1.11166">
        <ele>61</ele>
        <time>2025-04-26T12:16:41Z</time>
      </trkpt>
      <trkpt lat="45.52828" lon="-1.11166">
        <ele>61</ele>
        <time>2025-04-26T12:16:42Z</time>
      </trkpt>
      <trkpt lat="45.52828" lon="-1.11166">
        <ele>61</ele>
        <time>2025-04-26T12:16:43Z</time>
      </trkpt>
      <trkpt lat="45.52828" lon="-1.11166">
        <ele>61</ele>
        <time>2025-04-26T12:16:44Z</time>
      </trkpt>
      <trkpt lat="45.52828" lon="-1.11166">
        <ele>61</ele>
        <time>2025-04-26T12:16:45Z</time>
      </trkpt>
      <trkpt lat="45.52828" lon="-1.11166">
        <ele>61</ele>
        <time>2025-04-26T12:16:46Z</time>
      </trkpt>
      <trkpt lat="45.52828" lon="-1.11166">
        <ele>61</ele>
        <time>2025-04-26T12:16:47Z</time>
      </trkpt>
      <trkpt lat="45.52828" lon="-1.11166">
        <ele>61</ele>
        <time>2025-04-26T12:16:48Z</time>
      </trkpt>
      <trkpt lat="45.52828" lon="-1.11166">
        <ele>61</ele>
        <time>2025-04-26T12:16:49Z</time>
      </trkpt>
      <trkpt lat="45.52828" lon="-1.11166">
        <ele>61</ele>
        <time>2025-04-26T12:16:50Z</time>
      </trkpt>
      <trkpt lat="45.52828" lon="-1.11166">
        <ele>61</ele>
        <time>2025-04-26T12:16:51Z</time>
      </trkpt>
      <trkpt lat="45.52828" lon="-1.11166">
        <ele>61</ele>
        <time>2025-04-26T12:16:52Z</time>
      </trkpt>
      <trkpt lat="45.52828" lon="-1.11166">
        <ele>61</ele>
        <time>2025-04-26T12:16:53Z</time>
      </trkpt>
      <trkpt lat="45.52828" lon="-1.11166">
        <ele>61</ele>
        <time>2025-04-26T12:16:54Z</time>
      </trkpt>
      <trkpt lat="45.52828" lon="-1.11166">
        <ele>61</ele>
        <time>2025-04-26T12:16:55Z</time>
      </trkpt>
      <trkpt lat="45.52828" lon="-1.11166">
        <ele>61</ele>
        <time>2025-04-26T12:16:56Z</time>
      </trkpt>
      <trkpt lat="45.52828" lon="-1.11166">
        <ele>61</ele>
        <time>2025-04-26T12:16:57Z</time>
      </trkpt>
      <trkpt lat="45.52828" lon="-1.11166">
        <ele>61</ele>
        <time>2025-04-26T12:16:58Z</time>
      </trkpt>
      <trkpt lat="45.52828" lon="-1.11166">
        <ele>61</ele>
        <time>2025-04-26T12:16:59Z</time>
      </trkpt>
      <trkpt lat="45.52828" lon="-1.11166">
        <ele>61</ele>
        <time>2025-04-26T12:17:00Z</time>
      </trkpt>
      <trkpt lat="45.52828" lon="-1.11166">
        <ele>61</ele>
        <time>2025-04-26T12:17:01Z</time>
      </trkpt>
      <trkpt lat="45.52828" lon="-1.11166">
        <ele>61</ele>
        <time>2025-04-26T12:17:02Z</time>
      </trkpt>
      <trkpt lat="45.52828" lon="-1.11166">
        <ele>61</ele>
        <time>2025-04-26T12:17:03Z</time>
      </trkpt>
      <trkpt lat="45.52828" lon="-1.11166">
        <ele>61</ele>
        <time>2025-04-26T12:17:04Z</time>
      </trkpt>
      <trkpt lat="45.52828" lon="-1.11166">
        <ele>61</ele>
        <time>2025-04-26T12:17:05Z</time>
      </trkpt>
      <trkpt lat="45.52828" lon="-1.11166">
        <ele>61</ele>
        <time>2025-04-26T12:17:06Z</time>
      </trkpt>
      <trkpt lat="45.52828" lon="-1.11166">
        <ele>61</ele>
        <time>2025-04-26T12:17:07Z</time>
      </trkpt>
      <trkpt lat="45.52828" lon="-1.11166">
        <ele>61</ele>
        <time>2025-04-26T12:17:08Z</time>
      </trkpt>
      <trkpt lat="45.52828" lon="-1.11166">
        <ele>61</ele>
        <time>2025-04-26T12:17:09Z</time>
      </trkpt>
      <trkpt lat="45.52828" lon="-1.11166">
        <ele>61</ele>
        <time>2025-04-26T12:17:10Z</time>
      </trkpt>
      <trkpt lat="45.52828" lon="-1.11166">
        <ele>61</ele>
        <time>2025-04-26T12:17:11Z</time>
      </trkpt>
      <trkpt lat="45.52828" lon="-1.11166">
        <ele>61</ele>
        <time>2025-04-26T12:17:12Z</time>
      </trkpt>
      <trkpt lat="45.52828" lon="-1.11166">
        <ele>61</ele>
        <time>2025-04-26T12:17:13Z</time>
      </trkpt>
      <trkpt lat="45.52828" lon="-1.11166">
        <ele>61</ele>
        <time>2025-04-26T12:17:14Z</time>
      </trkpt>
      <trkpt lat="45.52828" lon="-1.11166">
        <ele>61</ele>
        <time>2025-04-26T12:17:15Z</time>
      </trkpt>
      <trkpt lat="45.52828" lon="-1.11166">
        <ele>61</ele>
        <time>2025-04-26T12:17:16Z</time>
      </trkpt>
      <trkpt lat="45.52828" lon="-1.11166">
        <ele>61</ele>
        <time>2025-04-26T12:17:17Z</time>
      </trkpt>
      <trkpt lat="45.52828" lon="-1.11166">
        <ele>61</ele>
        <time>2025-04-26T12:17:18Z</time>
      </trkpt>
      <trkpt lat="45.52828" lon="-1.11166">
        <ele>61</ele>
        <time>2025-04-26T12:17:19Z</time>
      </trkpt>
      <trkpt lat="45.52828" lon="-1.11166">
        <ele>61</ele>
        <time>2025-04-26T12:17:20Z</time>
      </trkpt>
      <trkpt lat="45.52828" lon="-1.11166">
        <ele>61</ele>
        <time>2025-04-26T12:17:21Z</time>
      </trkpt>
      <trkpt lat="45.52828" lon="-1.11166">
        <ele>61</ele>
        <time>2025-04-26T12:17:22Z</time>
      </trkpt>
      <trkpt lat="45.52828" lon="-1.11166">
        <ele>61</ele>
        <time>2025-04-26T12:17:23Z</time>
      </trkpt>
      <trkpt lat="45.52828" lon="-1.11166">
        <ele>61</ele>
        <time>2025-04-26T12:17:24Z</time>
      </trkpt>
      <trkpt lat="45.52828" lon="-1.11166">
        <ele>61</ele>
        <time>2025-04-26T12:17:25Z</time>
      </trkpt>
      <trkpt lat="45.52828" lon="-1.11166">
        <ele>61</ele>
        <time>2025-04-26T12:17:26Z</time>
      </trkpt>
      <trkpt lat="45.52828" lon="-1.11166">
        <ele>61</ele>
        <time>2025-04-26T12:17:27Z</time>
      </trkpt>
      <trkpt lat="45.52828" lon="-1.11166">
        <ele>61</ele>
        <time>2025-04-26T12:17:28Z</time>
      </trkpt>
      <trkpt lat="45.52828" lon="-1.11166">
        <ele>61</ele>
        <time>2025-04-26T12:17:29Z</time>
      </trkpt>
      <trkpt lat="45.52828" lon="-1.11166">
        <ele>61</ele>
        <time>2025-04-26T12:17:30Z</time>
      </trkpt>
      <trkpt lat="45.52828" lon="-1.11166">
        <ele>61</ele>
        <time>2025-04-26T12:17:31Z</time>
      </trkpt>
      <trkpt lat="45.52828" lon="-1.11166">
        <ele>61</ele>
        <time>2025-04-26T12:17:32Z</time>
      </trkpt>
      <trkpt lat="45.52828" lon="-1.11166">
        <ele>61</ele>
        <time>2025-04-26T12:17:33Z</time>
      </trkpt>
      <trkpt lat="45.52828" lon="-1.11166">
        <ele>61</ele>
        <time>2025-04-26T12:17:34Z</time>
      </trkpt>
      <trkpt lat="45.52828" lon="-1.11166">
        <ele>61</ele>
        <time>2025-04-26T12:17:35Z</time>
      </trkpt>
      <trkpt lat="45.52828" lon="-1.11166">
        <ele>61</ele>
        <time>2025-04-26T12:17:36Z</time>
      </trkpt>
      <trkpt lat="45.52828" lon="-1.11166">
        <ele>61</ele>
        <time>2025-04-26T12:17:37Z</time>
      </trkpt>
      <trkpt lat="45.52828" lon="-1.11166">
        <ele>61</ele>
        <time>2025-04-26T12:17:38Z</time>
      </trkpt>
      <trkpt lat="45.52828" lon="-1.11166">
        <ele>61</ele>
        <time>2025-04-26T12:17:39Z</time>
      </trkpt>
      <trkpt lat="45.52828" lon="-1.11166">
        <ele>61</ele>
        <time>2025-04-26T12:19:53Z</time>
      </trkpt>
      <trkpt lat="45.52828" lon="-1.11166">
        <ele>61</ele>
        <time>2025-04-26T12:19:54Z</time>
      </trkpt>
      <trkpt lat="45.52828" lon="-1.11166">
        <ele>61</ele>
        <time>2025-04-26T12:19:55Z</time>
      </trkpt>
      <trkpt lat="45.52828" lon="-1.11166">
        <ele>61</ele>
        <time>2025-04-26T12:19:56Z</time>
      </trkpt>
      <trkpt lat="45.52828" lon="-1.11166">
        <ele>61</ele>
        <time>2025-04-26T12:19:57Z</time>
      </trkpt>
      <trkpt lat="45.52828" lon="-1.11166">
        <ele>61</ele>
        <time>2025-04-26T12:19:58Z</time>
      </trkpt>
      <trkpt lat="45.52828" lon="-1.11166">
        <ele>61</ele>
        <time>2025-04-26T12:19:59Z</time>
      </trkpt>
      <trkpt lat="45.52828" lon="-1.11166">
        <ele>61</ele>
        <time>2025-04-26T12:20:00Z</time>
      </trkpt>
      <trkpt lat="45.52828" lon="-1.11166">
        <ele>61</ele>
        <time>2025-04-26T12:20:01Z</time>
      </trkpt>
      <trkpt lat="45.52828" lon="-1.11166">
        <ele>61</ele>
        <time>2025-04-26T12:20:02Z</time>
      </trkpt>
      <trkpt lat="45.52828" lon="-1.11166">
        <ele>61</ele>
        <time>2025-04-26T12:20:03Z</time>
      </trkpt>
      <trkpt lat="45.52828" lon="-1.11166">
        <ele>61</ele>
        <time>2025-04-26T12:20:04Z</time>
      </trkpt>
      <trkpt lat="45.52828" lon="-1.11166">
        <ele>61</ele>
        <time>2025-04-26T12:20:05Z</time>
      </trkpt>
      <trkpt lat="45.52828" lon="-1.11166">
        <ele>61</ele>
        <time>2025-04-26T12:20:06Z</time>
      </trkpt>
      <trkpt lat="45.52828" lon="-1.11166">
        <ele>61</ele>
        <time>2025-04-26T12:20:07Z</time>
      </trkpt>
      <trkpt lat="45.52828" lon="-1.11166">
        <ele>61</ele>
        <time>2025-04-26T12:20:08Z</time>
      </trkpt>
      <trkpt lat="45.52828" lon="-1.11166">
        <ele>61</ele>
        <time>2025-04-26T12:20:09Z</time>
      </trkpt>
      <trkpt lat="45.52828" lon="-1.11166">
        <ele>61</ele>
        <time>2025-04-26T12:20:10Z</time>
      </trkpt>
      <trkpt lat="45.52828" lon="-1.11166">
        <ele>61</ele>
        <time>2025-04-26T12:20:11Z</time>
      </trkpt>
      <trkpt lat="45.52828" lon="-1.11166">
        <ele>61</ele>
        <time>2025-04-26T12:20:12Z</time>
      </trkpt>
      <trkpt lat="45.52828" lon="-1.11166">
        <ele>61</ele>
        <time>2025-04-26T12:20:13Z</time>
      </trkpt>
      <trkpt lat="45.52828" lon="-1.11166">
        <ele>61</ele>
        <time>2025-04-26T12:20:14Z</time>
      </trkpt>
      <trkpt lat="45.52828" lon="-1.11166">
        <ele>61</ele>
        <time>2025-04-26T12:20:15Z</time>
      </trkpt>
      <trkpt lat="45.52828" lon="-1.11166">
        <ele>61</ele>
        <time>2025-04-26T12:20:16Z</time>
      </trkpt>
      <trkpt lat="45.52828" lon="-1.11166">
        <ele>61</ele>
        <time>2025-04-26T12:20:17Z</time>
      </trkpt>
      <trkpt lat="45.52828" lon="-1.11166">
        <ele>61</ele>
        <time>2025-04-26T12:20:18Z</time>
      </trkpt>
      <trkpt lat="45.52828" lon="-1.11166">
        <ele>61</ele>
        <time>2025-04-26T12:20:19Z</time>
      </trkpt>
      <trkpt lat="45.52828" lon="-1.11166">
        <ele>61</ele>
        <time>2025-04-26T12:20:20Z</time>
      </trkpt>
      <trkpt lat="45.52828" lon="-1.11166">
        <ele>61</ele>
        <time>2025-04-26T12:20:21Z</time>
      </trkpt>
      <trkpt lat="45.52828" lon="-1.11166">
        <ele>61</ele>
        <time>2025-04-26T12:20:22Z</time>
      </trkpt>
      <trkpt lat="45.52828" lon="-1.11166">
        <ele>61</ele>
        <time>2025-04-26T12:20:23Z</time>
      </trkpt>
      <trkpt lat="45.52828" lon="-1.11166">
        <ele>61</ele>
        <time>2025-04-26T12:20:24Z</time>
      </trkpt>
      <trkpt lat="45.52828" lon="-1.11166">
        <ele>61</ele>
        <time>2025-04-26T12:20:25Z</time>
      </trkpt>
      <trkpt lat="45.52828" lon="-1.11166">
        <ele>61</ele>
        <time>2025-04-26T12:20:26Z</time>
      </trkpt>
      <trkpt lat="45.52823" lon="-1.11159">
        <ele>62</ele>
        <time>2025-04-26T12:20:27Z</time>
      </trkpt>
      <trkpt lat="45.52823" lon="-1.11156">
        <ele>62</ele>
        <time>2025-04-26T12:20:28Z</time>
      </trkpt>
      <trkpt lat="45.52823" lon="-1.11153">
        <ele>62</ele>
        <time>2025-04-26T12:20:29Z</time>
      </trkpt>
      <trkpt lat="45.52824" lon="-1.1115">
        <ele>62</ele>
        <time>2025-04-26T12:20:30Z</time>
      </trkpt>
      <trkpt lat="45.52825" lon="-1.11146">
        <ele>62</ele>
        <time>2025-04-26T12:20:31Z</time>
      </trkpt>
      <trkpt lat="45.52826" lon="-1.11143">
        <ele>62</ele>
        <time>2025-04-26T12:20:32Z</time>
      </trkpt>
      <trkpt lat="45.52827" lon="-1.11139">
        <ele>61</ele>
        <time>2025-04-26T12:20:33Z</time>
      </trkpt>
      <trkpt lat="45.52828" lon="-1.11136">
        <ele>61</ele>
        <time>2025-04-26T12:20:34Z</time>
      </trkpt>
      <trkpt lat="45.5283" lon="-1.11132">
        <ele>61</ele>
        <time>2025-04-26T12:20:35Z</time>
      </trkpt>
      <trkpt lat="45.52831" lon="-1.11128">
        <ele>60</ele>
        <time>2025-04-26T12:20:36Z</time>
      </trkpt>
      <trkpt lat="45.52832" lon="-1.11123">
        <ele>60</ele>
        <time>2025-04-26T12:20:37Z</time>
      </trkpt>
      <trkpt lat="45.52833" lon="-1.11119">
        <ele>60</ele>
        <time>2025-04-26T12:20:38Z</time>
      </trkpt>
      <trkpt lat="45.52835" lon="-1.11115">
        <ele>60</ele>
        <time>2025-04-26T12:20:39Z</time>
      </trkpt>
      <trkpt lat="45.52836" lon="-1.1111">
        <ele>60</ele>
        <time>2025-04-26T12:20:40Z</time>
      </trkpt>
      <trkpt lat="45.52836" lon="-1.11105">
        <ele>60</ele>
        <time>2025-04-26T12:20:41Z</time>
      </trkpt>
      <trkpt lat="45.52837" lon="-1.111">
        <ele>60</ele>
        <time>2025-04-26T12:20:42Z</time>
      </trkpt>
      <trkpt lat="45.52838" lon="-1.11095">
        <ele>60</ele>
        <time>2025-04-26T12:20:43Z</time>
      </trkpt>
      <trkpt lat="45.5284" lon="-1.1109">
        <ele>60</ele>
        <time>2025-04-26T12:20:44Z</time>
      </trkpt>
      <trkpt lat="45.5284" lon="-1.11085">
        <ele>60</ele>
        <time>2025-04-26T12:20:45Z</time>
      </trkpt>
      <trkpt lat="45.52841" lon="-1.1108">
        <ele>60</ele>
        <time>2025-04-26T12:20:46Z</time>
      </trkpt>
      <trkpt lat="45.52842" lon="-1.11076">
        <ele>60</ele>
        <time>2025-04-26T12:20:47Z</time>
      </trkpt>
      <trkpt lat="45.52842" lon="-1.11071">
        <ele>60</ele>
        <time>2025-04-26T12:20:48Z</time>
      </trkpt>
      <trkpt lat="45.52842" lon="-1.11066">
        <ele>60</ele>
        <time>2025-04-26T12:20:49Z</time>
      </trkpt>
      <trkpt lat="45.52843" lon="-1.11062">
        <ele>60</ele>
        <time>2025-04-26T12:20:50Z</time>
      </trkpt>
      <trkpt lat="45.52843" lon="-1.11056">
        <ele>60</ele>
        <time>2025-04-26T12:20:51Z</time>
      </trkpt>
      <trkpt lat="45.52844" lon="-1.11051">
        <ele>60</ele>
        <time>2025-04-26T12:20:52Z</time>
      </trkpt>
      <trkpt lat="45.52845" lon="-1.11046">
        <ele>60</ele>
        <time>2025-04-26T12:20:53Z</time>
      </trkpt>
      <trkpt lat="45.52846" lon="-1.1104">
        <ele>60</ele>
        <time>2025-04-26T12:20:54Z</time>
      </trkpt>
      <trkpt lat="45.52847" lon="-1.11035">
        <ele>60</ele>
        <time>2025-04-26T12:20:55Z</time>
      </trkpt>
      <trkpt lat="45.52848" lon="-1.11029">
        <ele>60</ele>
        <time>2025-04-26T12:20:56Z</time>
      </trkpt>
      <trkpt lat="45.52848" lon="-1.11023">
        <ele>60</ele>
        <time>2025-04-26T12:20:57Z</time>
      </trkpt>
      <trkpt lat="45.52849" lon="-1.11017">
        <ele>61</ele>
        <time>2025-04-26T12:20:58Z</time>
      </trkpt>
      <trkpt lat="45.5285" lon="-1.11011">
        <ele>62</ele>
        <time>2025-04-26T12:20:59Z</time>
      </trkpt>
      <trkpt lat="45.52851" lon="-1.11006">
        <ele>62</ele>
        <time>2025-04-26T12:21:00Z</time>
      </trkpt>
      <trkpt lat="45.52852" lon="-1.10999">
        <ele>62</ele>
        <time>2025-04-26T12:21:01Z</time>
      </trkpt>
      <trkpt lat="45.52853" lon="-1.10993">
        <ele>61</ele>
        <time>2025-04-26T12:21:02Z</time>
      </trkpt>
      <trkpt lat="45.52854" lon="-1.10987">
        <ele>61</ele>
        <time>2025-04-26T12:21:03Z</time>
      </trkpt>
      <trkpt lat="45.52855" lon="-1.10981">
        <ele>60</ele>
        <time>2025-04-26T12:21:04Z</time>
      </trkpt>
      <trkpt lat="45.52857" lon="-1.10975">
        <ele>60</ele>
        <time>2025-04-26T12:21:05Z</time>
      </trkpt>
      <trkpt lat="45.52859" lon="-1.10969">
        <ele>59</ele>
        <time>2025-04-26T12:21:06Z</time>
      </trkpt>
      <trkpt lat="45.52861" lon="-1.10963">
        <ele>59</ele>
        <time>2025-04-26T12:21:07Z</time>
      </trkpt>
      <trkpt lat="45.52863" lon="-1.10956">
        <ele>59</ele>
        <time>2025-04-26T12:21:08Z</time>
      </trkpt>
      <trkpt lat="45.52865" lon="-1.1095">
        <ele>59</ele>
        <time>2025-04-26T12:21:09Z</time>
      </trkpt>
      <trkpt lat="45.52866" lon="-1.10943">
        <ele>59</ele>
        <time>2025-04-26T12:21:10Z</time>
      </trkpt>
      <trkpt lat="45.52869" lon="-1.10937">
        <ele>59</ele>
        <time>2025-04-26T12:21:11Z</time>
      </trkpt>
      <trkpt lat="45.52871" lon="-1.10931">
        <ele>59</ele>
        <time>2025-04-26T12:21:12Z</time>
      </trkpt>
      <trkpt lat="45.52874" lon="-1.10926">
        <ele>59</ele>
        <time>2025-04-26T12:21:13Z</time>
      </trkpt>
      <trkpt lat="45.52876" lon="-1.10922">
        <ele>58</ele>
        <time>2025-04-26T12:21:14Z</time>
      </trkpt>
      <trkpt lat="45.5288" lon="-1.10917">
        <ele>57</ele>
        <time>2025-04-26T12:21:15Z</time>
      </trkpt>
      <trkpt lat="45.52883" lon="-1.10913">
        <ele>57</ele>
        <time>2025-04-26T12:21:16Z</time>
      </trkpt>
      <trkpt lat="45.52886" lon="-1.10909">
        <ele>57</ele>
        <time>2025-04-26T12:21:17Z</time>
      </trkpt>
      <trkpt lat="45.5289" lon="-1.10904">
        <ele>57</ele>
        <time>2025-04-26T12:21:18Z</time>
      </trkpt>
      <trkpt lat="45.52893" lon="-1.10899">
        <ele>57</ele>
        <time>2025-04-26T12:21:19Z</time>
      </trkpt>
      <trkpt lat="45.52896" lon="-1.10895">
        <ele>56</ele>
        <time>2025-04-26T12:21:20Z</time>
      </trkpt>
      <trkpt lat="45.52899" lon="-1.10892">
        <ele>56</ele>
        <time>2025-04-26T12:21:21Z</time>
      </trkpt>
      <trkpt lat="45.52903" lon="-1.10889">
        <ele>56</ele>
        <time>2025-04-26T12:21:22Z</time>
      </trkpt>
      <trkpt lat="45.52906" lon="-1.10886">
        <ele>56</ele>
        <time>2025-04-26T12:21:23Z</time>
      </trkpt>
      <trkpt lat="45.5291" lon="-1.10882">
        <ele>56</ele>
        <time>2025-04-26T12:21:24Z</time>
      </trkpt>
      <trkpt lat="45.52914" lon="-1.10879">
        <ele>57</ele>
        <time>2025-04-26T12:21:25Z</time>
      </trkpt>
      <trkpt lat="45.52918" lon="-1.10875">
        <ele>57</ele>
        <time>2025-04-26T12:21:26Z</time>
      </trkpt>
      <trkpt lat="45.52921" lon="-1.10871">
        <ele>57</ele>
        <time>2025-04-26T12:21:27Z</time>
      </trkpt>
      <trkpt lat="45.52926" lon="-1.10868">
        <ele>57</ele>
        <time>2025-04-26T12:21:28Z</time>
      </trkpt>
      <trkpt lat="45.5293" lon="-1.10864">
        <ele>57</ele>
        <time>2025-04-26T12:21:29Z</time>
      </trkpt>
      <trkpt lat="45.52934" lon="-1.1086">
        <ele>57</ele>
        <time>2025-04-26T12:21:30Z</time>
      </trkpt>
      <trkpt lat="45.52938" lon="-1.10856">
        <ele>57</ele>
        <time>2025-04-26T12:21:31Z</time>
      </trkpt>
      <trkpt lat="45.52942" lon="-1.10852">
        <ele>58</ele>
        <time>2025-04-26T12:21:32Z</time>
      </trkpt>
      <trkpt lat="45.52946" lon="-1.10848">
        <ele>58</ele>
        <time>2025-04-26T12:21:33Z</time>
      </trkpt>
      <trkpt lat="45.5295" lon="-1.10845">
        <ele>58</ele>
        <time>2025-04-26T12:21:34Z</time>
      </trkpt>
      <trkpt lat="45.52955" lon="-1.10844">
        <ele>58</ele>
        <time>2025-04-26T12:21:35Z</time>
      </trkpt>
      <trkpt lat="45.52959" lon="-1.10841">
        <ele>58</ele>
        <time>2025-04-26T12:21:36Z</time>
      </trkpt>
      <trkpt lat="45.52963" lon="-1.10837">
        <ele>57</ele>
        <time>2025-04-26T12:21:37Z</time>
      </trkpt>
      <trkpt lat="45.52967" lon="-1.10834">
        <ele>57</ele>
        <time>2025-04-26T12:21:38Z</time>
      </trkpt>
      <trkpt lat="45.52972" lon="-1.10831">
        <ele>58</ele>
        <time>2025-04-26T12:21:39Z</time>
      </trkpt>
      <trkpt lat="45.52976" lon="-1.10828">
        <ele>57</ele>
        <time>2025-04-26T12:21:40Z</time>
      </trkpt>
      <trkpt lat="45.5298" lon="-1.10826">
        <ele>56</ele>
        <time>2025-04-26T12:21:41Z</time>
      </trkpt>
      <trkpt lat="45.52984" lon="-1.10822">
        <ele>55</ele>
        <time>2025-04-26T12:21:42Z</time>
      </trkpt>
      <trkpt lat="45.52988" lon="-1.10818">
        <ele>56</ele>
        <time>2025-04-26T12:21:43Z</time>
      </trkpt>
      <trkpt lat="45.52992" lon="-1.10816">
        <ele>55</ele>
        <time>2025-04-26T12:21:44Z</time>
      </trkpt>
      <trkpt lat="45.52997" lon="-1.10812">
        <ele>55</ele>
        <time>2025-04-26T12:21:45Z</time>
      </trkpt>
      <trkpt lat="45.53" lon="-1.10808">
        <ele>56</ele>
        <time>2025-04-26T12:21:46Z</time>
      </trkpt>
      <trkpt lat="45.53005" lon="-1.10806">
        <ele>57</ele>
        <time>2025-04-26T12:21:47Z</time>
      </trkpt>
      <trkpt lat="45.53008" lon="-1.10802">
        <ele>58</ele>
        <time>2025-04-26T12:21:48Z</time>
      </trkpt>
      <trkpt lat="45.53013" lon="-1.108">
        <ele>57</ele>
        <time>2025-04-26T12:21:49Z</time>
      </trkpt>
      <trkpt lat="45.53017" lon="-1.10798">
        <ele>57</ele>
        <time>2025-04-26T12:21:50Z</time>
      </trkpt>
      <trkpt lat="45.53021" lon="-1.10795">
        <ele>56</ele>
        <time>2025-04-26T12:21:51Z</time>
      </trkpt>
      <trkpt lat="45.53025" lon="-1.10793">
        <ele>56</ele>
        <time>2025-04-26T12:21:52Z</time>
      </trkpt>
      <trkpt lat="45.53029" lon="-1.10789">
        <ele>55</ele>
        <time>2025-04-26T12:21:53Z</time>
      </trkpt>
      <trkpt lat="45.53031" lon="-1.10785">
        <ele>55</ele>
        <time>2025-04-26T12:21:54Z</time>
      </trkpt>
      <trkpt lat="45.53032" lon="-1.10781">
        <ele>56</ele>
        <time>2025-04-26T12:21:55Z</time>
      </trkpt>
      <trkpt lat="45.53033" lon="-1.10776">
        <ele>56</ele>
        <time>2025-04-26T12:21:56Z</time>
      </trkpt>
      <trkpt lat="45.53033" lon="-1.10772">
        <ele>56</ele>
        <time>2025-04-26T12:21:57Z</time>
      </trkpt>
      <trkpt lat="45.53034" lon="-1.10769">
        <ele>57</ele>
        <time>2025-04-26T12:21:58Z</time>
      </trkpt>
      <trkpt lat="45.53037" lon="-1.10767">
        <ele>57</ele>
        <time>2025-04-26T12:21:59Z</time>
      </trkpt>
      <trkpt lat="45.5304" lon="-1.10765">
        <ele>57</ele>
        <time>2025-04-26T12:22:00Z</time>
      </trkpt>
      <trkpt lat="45.53043" lon="-1.10762">
        <ele>57</ele>
        <time>2025-04-26T12:22:01Z</time>
      </trkpt>
      <trkpt lat="45.53047" lon="-1.1076">
        <ele>57</ele>
        <time>2025-04-26T12:22:02Z</time>
      </trkpt>
      <trkpt lat="45.5305" lon="-1.10757">
        <ele>57</ele>
        <time>2025-04-26T12:22:03Z</time>
      </trkpt>
      <trkpt lat="45.53053" lon="-1.10754">
        <ele>57</ele>
        <time>2025-04-26T12:22:04Z</time>
      </trkpt>
      <trkpt lat="45.53057" lon="-1.10752">
        <ele>57</ele>
        <time>2025-04-26T12:22:05Z</time>
      </trkpt>
      <trkpt lat="45.5306" lon="-1.10748">
        <ele>57</ele>
        <time>2025-04-26T12:22:06Z</time>
      </trkpt>
      <trkpt lat="45.53063" lon="-1.10745">
        <ele>57</ele>
        <time>2025-04-26T12:22:07Z</time>
      </trkpt>
      <trkpt lat="45.53066" lon="-1.10742">
        <ele>57</ele>
        <time>2025-04-26T12:22:08Z</time>
      </trkpt>
      <trkpt lat="45.5307" lon="-1.10739">
        <ele>58</ele>
        <time>2025-04-26T12:22:09Z</time>
      </trkpt>
      <trkpt lat="45.53074" lon="-1.10735">
        <ele>58</ele>
        <time>2025-04-26T12:22:10Z</time>
      </trkpt>
      <trkpt lat="45.53078" lon="-1.10733">
        <ele>57</ele>
        <time>2025-04-26T12:22:11Z</time>
      </trkpt>
      <trkpt lat="45.53081" lon="-1.10729">
        <ele>58</ele>
        <time>2025-04-26T12:22:12Z</time>
      </trkpt>
      <trkpt lat="45.53085" lon="-1.10726">
        <ele>58</ele>
        <time>2025-04-26T12:22:13Z</time>
      </trkpt>
      <trkpt lat="45.53088" lon="-1.10722">
        <ele>58</ele>
        <time>2025-04-26T12:22:14Z</time>
      </trkpt>
      <trkpt lat="45.53091" lon="-1.10718">
        <ele>58</ele>
        <time>2025-04-26T12:22:15Z</time>
      </trkpt>
      <trkpt lat="45.53094" lon="-1.10715">
        <ele>58</ele>
        <time>2025-04-26T12:22:16Z</time>
      </trkpt>
      <trkpt lat="45.53097" lon="-1.10712">
        <ele>58</ele>
        <time>2025-04-26T12:22:17Z</time>
      </trkpt>
      <trkpt lat="45.53101" lon="-1.10709">
        <ele>58</ele>
        <time>2025-04-26T12:22:18Z</time>
      </trkpt>
      <trkpt lat="45.53105" lon="-1.10707">
        <ele>58</ele>
        <time>2025-04-26T12:22:19Z</time>
      </trkpt>
      <trkpt lat="45.53109" lon="-1.10704">
        <ele>58</ele>
        <time>2025-04-26T12:22:20Z</time>
      </trkpt>
      <trkpt lat="45.53113" lon="-1.10701">
        <ele>58</ele>
        <time>2025-04-26T12:22:21Z</time>
      </trkpt>
      <trkpt lat="45.53116" lon="-1.10698">
        <ele>57</ele>
        <time>2025-04-26T12:22:22Z</time>
      </trkpt>
      <trkpt lat="45.5312" lon="-1.10695">
        <ele>57</ele>
        <time>2025-04-26T12:22:23Z</time>
      </trkpt>
      <trkpt lat="45.53123" lon="-1.10692">
        <ele>56</ele>
        <time>2025-04-26T12:22:24Z</time>
      </trkpt>
      <trkpt lat="45.53127" lon="-1.10688">
        <ele>56</ele>
        <time>2025-04-26T12:22:25Z</time>
      </trkpt>
      <trkpt lat="45.5313" lon="-1.10685">
        <ele>56</ele>
        <time>2025-04-26T12:22:26Z</time>
      </trkpt>
      <trkpt lat="45.53134" lon="-1.10682">
        <ele>56</ele>
        <time>2025-04-26T12:22:27Z</time>
      </trkpt>
      <trkpt lat="45.53137" lon="-1.10678">
        <ele>56</ele>
        <time>2025-04-26T12:22:28Z</time>
      </trkpt>
      <trkpt lat="45.53141" lon="-1.10675">
        <ele>56</ele>
        <time>2025-04-26T12:22:29Z</time>
      </trkpt>
      <trkpt lat="45.53145" lon="-1.10672">
        <ele>56</ele>
        <time>2025-04-26T12:22:30Z</time>
      </trkpt>
      <trkpt lat="45.53148" lon="-1.1067">
        <ele>56</ele>
        <time>2025-04-26T12:22:31Z</time>
      </trkpt>
      <trkpt lat="45.53152" lon="-1.10667">
        <ele>56</ele>
        <time>2025-04-26T12:22:32Z</time>
      </trkpt>
      <trkpt lat="45.53156" lon="-1.10665">
        <ele>56</ele>
        <time>2025-04-26T12:22:33Z</time>
      </trkpt>
      <trkpt lat="45.5316" lon="-1.10662">
        <ele>56</ele>
        <time>2025-04-26T12:22:34Z</time>
      </trkpt>
      <trkpt lat="45.53163" lon="-1.10659">
        <ele>56</ele>
        <time>2025-04-26T12:22:35Z</time>
      </trkpt>
      <trkpt lat="45.53168" lon="-1.10657">
        <ele>56</ele>
        <time>2025-04-26T12:22:36Z</time>
      </trkpt>
      <trkpt lat="45.53172" lon="-1.10654">
        <ele>56</ele>
        <time>2025-04-26T12:22:37Z</time>
      </trkpt>
      <trkpt lat="45.53176" lon="-1.1065">
        <ele>55</ele>
        <time>2025-04-26T12:22:38Z</time>
      </trkpt>
      <trkpt lat="45.53179" lon="-1.10646">
        <ele>56</ele>
        <time>2025-04-26T12:22:39Z</time>
      </trkpt>
      <trkpt lat="45.53183" lon="-1.10642">
        <ele>56</ele>
        <time>2025-04-26T12:22:40Z</time>
      </trkpt>
      <trkpt lat="45.53186" lon="-1.10638">
        <ele>56</ele>
        <time>2025-04-26T12:22:41Z</time>
      </trkpt>
      <trkpt lat="45.53189" lon="-1.10633">
        <ele>56</ele>
        <time>2025-04-26T12:22:42Z</time>
      </trkpt>
      <trkpt lat="45.53192" lon="-1.10629">
        <ele>56</ele>
        <time>2025-04-26T12:22:43Z</time>
      </trkpt>
      <trkpt lat="45.53195" lon="-1.10624">
        <ele>56</ele>
        <time>2025-04-26T12:22:44Z</time>
      </trkpt>
      <trkpt lat="45.53197" lon="-1.1062">
        <ele>57</ele>
        <time>2025-04-26T12:22:45Z</time>
      </trkpt>
      <trkpt lat="45.532" lon="-1.10616">
        <ele>56</ele>
        <time>2025-04-26T12:22:46Z</time>
      </trkpt>
      <trkpt lat="45.53203" lon="-1.10611">
        <ele>56</ele>
        <time>2025-04-26T12:22:47Z</time>
      </trkpt>
      <trkpt lat="45.53205" lon="-1.10605">
        <ele>57</ele>
        <time>2025-04-26T12:22:48Z</time>
      </trkpt>
      <trkpt lat="45.53208" lon="-1.10601">
        <ele>57</ele>
        <time>2025-04-26T12:22:49Z</time>
      </trkpt>
      <trkpt lat="45.53211" lon="-1.10596">
        <ele>58</ele>
        <time>2025-04-26T12:22:50Z</time>
      </trkpt>
      <trkpt lat="45.53213" lon="-1.10592">
        <ele>58</ele>
        <time>2025-04-26T12:22:51Z</time>
      </trkpt>
      <trkpt lat="45.53216" lon="-1.10588">
        <ele>58</ele>
        <time>2025-04-26T12:22:52Z</time>
      </trkpt>
      <trkpt lat="45.53219" lon="-1.10585">
        <ele>58</ele>
        <time>2025-04-26T12:22:53Z</time>
      </trkpt>
      <trkpt lat="45.53223" lon="-1.10582">
        <ele>58</ele>
        <time>2025-04-26T12:22:54Z</time>
      </trkpt>
      <trkpt lat="45.53225" lon="-1.10578">
        <ele>58</ele>
        <time>2025-04-26T12:22:55Z</time>
      </trkpt>
      <trkpt lat="45.53228" lon="-1.10575">
        <ele>59</ele>
        <time>2025-04-26T12:22:56Z</time>
      </trkpt>
      <trkpt lat="45.53231" lon="-1.10572">
        <ele>59</ele>
        <time>2025-04-26T12:22:57Z</time>
      </trkpt>
      <trkpt lat="45.53234" lon="-1.10568">
        <ele>60</ele>
        <time>2025-04-26T12:22:58Z</time>
      </trkpt>
      <trkpt lat="45.53237" lon="-1.10565">
        <ele>59</ele>
        <time>2025-04-26T12:22:59Z</time>
      </trkpt>
      <trkpt lat="45.53241" lon="-1.10563">
        <ele>59</ele>
        <time>2025-04-26T12:23:00Z</time>
      </trkpt>
      <trkpt lat="45.53244" lon="-1.1056">
        <ele>58</ele>
        <time>2025-04-26T12:23:01Z</time>
      </trkpt>
      <trkpt lat="45.53247" lon="-1.10557">
        <ele>58</ele>
        <time>2025-04-26T12:23:02Z</time>
      </trkpt>
      <trkpt lat="45.5325" lon="-1.10553">
        <ele>57</ele>
        <time>2025-04-26T12:23:03Z</time>
      </trkpt>
      <trkpt lat="45.53254" lon="-1.10549">
        <ele>58</ele>
        <time>2025-04-26T12:23:04Z</time>
      </trkpt>
      <trkpt lat="45.53258" lon="-1.10546">
        <ele>57</ele>
        <time>2025-04-26T12:23:05Z</time>
      </trkpt>
      <trkpt lat="45.53262" lon="-1.10543">
        <ele>57</ele>
        <time>2025-04-26T12:23:06Z</time>
      </trkpt>
      <trkpt lat="45.53267" lon="-1.10539">
        <ele>56</ele>
        <time>2025-04-26T12:23:07Z</time>
      </trkpt>
      <trkpt lat="45.53271" lon="-1.10536">
        <ele>56</ele>
        <time>2025-04-26T12:23:08Z</time>
      </trkpt>
      <trkpt lat="45.53275" lon="-1.10531">
        <ele>56</ele>
        <time>2025-04-26T12:23:09Z</time>
      </trkpt>
      <trkpt lat="45.5328" lon="-1.10527">
        <ele>56</ele>
        <time>2025-04-26T12:23:10Z</time>
      </trkpt>
      <trkpt lat="45.53284" lon="-1.10524">
        <ele>55</ele>
        <time>2025-04-26T12:23:11Z</time>
      </trkpt>
      <trkpt lat="45.53288" lon="-1.1052">
        <ele>55</ele>
        <time>2025-04-26T12:23:12Z</time>
      </trkpt>
      <trkpt lat="45.53292" lon="-1.10516">
        <ele>55</ele>
        <time>2025-04-26T12:23:13Z</time>
      </trkpt>
      <trkpt lat="45.53296" lon="-1.10512">
        <ele>54</ele>
        <time>2025-04-26T12:23:14Z</time>
      </trkpt>
      <trkpt lat="45.533" lon="-1.10507">
        <ele>54</ele>
        <time>2025-04-26T12:23:15Z</time>
      </trkpt>
      <trkpt lat="45.53305" lon="-1.10503">
        <ele>54</ele>
        <time>2025-04-26T12:23:16Z</time>
      </trkpt>
      <trkpt lat="45.5331" lon="-1.10499">
        <ele>55</ele>
        <time>2025-04-26T12:23:17Z</time>
      </trkpt>
      <trkpt lat="45.53315" lon="-1.10494">
        <ele>55</ele>
        <time>2025-04-26T12:23:18Z</time>
      </trkpt>
      <trkpt lat="45.53319" lon="-1.1049">
        <ele>56</ele>
        <time>2025-04-26T12:23:19Z</time>
      </trkpt>
      <trkpt lat="45.53323" lon="-1.10487">
        <ele>57</ele>
        <time>2025-04-26T12:23:20Z</time>
      </trkpt>
      <trkpt lat="45.53327" lon="-1.10484">
        <ele>59</ele>
        <time>2025-04-26T12:23:21Z</time>
      </trkpt>
      <trkpt lat="45.5333" lon="-1.10481">
        <ele>59</ele>
        <time>2025-04-26T12:23:22Z</time>
      </trkpt>
      <trkpt lat="45.53332" lon="-1.10478">
        <ele>59</ele>
        <time>2025-04-26T12:23:23Z</time>
      </trkpt>
      <trkpt lat="45.53335" lon="-1.10475">
        <ele>59</ele>
        <time>2025-04-26T12:23:24Z</time>
      </trkpt>
      <trkpt lat="45.53338" lon="-1.10472">
        <ele>59</ele>
        <time>2025-04-26T12:23:25Z</time>
      </trkpt>
      <trkpt lat="45.53341" lon="-1.10469">
        <ele>60</ele>
        <time>2025-04-26T12:23:26Z</time>
      </trkpt>
      <trkpt lat="45.53345" lon="-1.10465">
        <ele>61</ele>
        <time>2025-04-26T12:23:27Z</time>
      </trkpt>
      <trkpt lat="45.53348" lon="-1.10462">
        <ele>61</ele>
        <time>2025-04-26T12:23:28Z</time>
      </trkpt>
      <trkpt lat="45.53351" lon="-1.10459">
        <ele>62</ele>
        <time>2025-04-26T12:23:29Z</time>
      </trkpt>
      <trkpt lat="45.53355" lon="-1.10456">
        <ele>63</ele>
        <time>2025-04-26T12:23:30Z</time>
      </trkpt>
      <trkpt lat="45.53357" lon="-1.10454">
        <ele>63</ele>
        <time>2025-04-26T12:23:31Z</time>
      </trkpt>
      <trkpt lat="45.5336" lon="-1.10451">
        <ele>63</ele>
        <time>2025-04-26T12:23:32Z</time>
      </trkpt>
      <trkpt lat="45.53363" lon="-1.10449">
        <ele>63</ele>
        <time>2025-04-26T12:23:33Z</time>
      </trkpt>
      <trkpt lat="45.53366" lon="-1.10447">
        <ele>63</ele>
        <time>2025-04-26T12:23:34Z</time>
      </trkpt>
      <trkpt lat="45.53369" lon="-1.10445">
        <ele>63</ele>
        <time>2025-04-26T12:23:35Z</time>
      </trkpt>
      <trkpt lat="45.53372" lon="-1.10444">
        <ele>63</ele>
        <time>2025-04-26T12:23:36Z</time>
      </trkpt>
      <trkpt lat="45.53376" lon="-1.10441">
        <ele>63</ele>
        <time>2025-04-26T12:23:37Z</time>
      </trkpt>
      <trkpt lat="45.53379" lon="-1.10438">
        <ele>63</ele>
        <time>2025-04-26T12:23:38Z</time>
      </trkpt>
      <trkpt lat="45.53381" lon="-1.10435">
        <ele>63</ele>
        <time>2025-04-26T12:23:39Z</time>
      </trkpt>
      <trkpt lat="45.53385" lon="-1.10434">
        <ele>63</ele>
        <time>2025-04-26T12:23:40Z</time>
      </trkpt>
      <trkpt lat="45.53387" lon="-1.1043">
        <ele>63</ele>
        <time>2025-04-26T12:23:41Z</time>
      </trkpt>
      <trkpt lat="45.5339" lon="-1.10428">
        <ele>64</ele>
        <time>2025-04-26T12:23:42Z</time>
      </trkpt>
      <trkpt lat="45.53393" lon="-1.10425">
        <ele>64</ele>
        <time>2025-04-26T12:23:43Z</time>
      </trkpt>
      <trkpt lat="45.53396" lon="-1.10422">
        <ele>64</ele>
        <time>2025-04-26T12:23:44Z</time>
      </trkpt>
      <trkpt lat="45.53399" lon="-1.1042">
        <ele>64</ele>
        <time>2025-04-26T12:23:45Z</time>
      </trkpt>
      <trkpt lat="45.53402" lon="-1.10419">
        <ele>63</ele>
        <time>2025-04-26T12:23:46Z</time>
      </trkpt>
      <trkpt lat="45.53404" lon="-1.10417">
        <ele>62</ele>
        <time>2025-04-26T12:23:47Z</time>
      </trkpt>
      <trkpt lat="45.53407" lon="-1.10414">
        <ele>62</ele>
        <time>2025-04-26T12:23:48Z</time>
      </trkpt>
      <trkpt lat="45.53409" lon="-1.10412">
        <ele>62</ele>
        <time>2025-04-26T12:23:49Z</time>
      </trkpt>
      <trkpt lat="45.53412" lon="-1.10411">
        <ele>63</ele>
        <time>2025-04-26T12:23:50Z</time>
      </trkpt>
      <trkpt lat="45.53414" lon="-1.10411">
        <ele>62</ele>
        <time>2025-04-26T12:23:51Z</time>
      </trkpt>
      <trkpt lat="45.53416" lon="-1.10413">
        <ele>63</ele>
        <time>2025-04-26T12:23:52Z</time>
      </trkpt>
      <trkpt lat="45.53419" lon="-1.10416">
        <ele>63</ele>
        <time>2025-04-26T12:23:53Z</time>
      </trkpt>
      <trkpt lat="45.53422" lon="-1.10418">
        <ele>63</ele>
        <time>2025-04-26T12:23:54Z</time>
      </trkpt>
      <trkpt lat="45.53425" lon="-1.10421">
        <ele>62</ele>
        <time>2025-04-26T12:23:55Z</time>
      </trkpt>
      <trkpt lat="45.53428" lon="-1.10424">
        <ele>62</ele>
        <time>2025-04-26T12:23:56Z</time>
      </trkpt>
      <trkpt lat="45.5343" lon="-1.10427">
        <ele>61</ele>
        <time>2025-04-26T12:23:57Z</time>
      </trkpt>
      <trkpt lat="45.53433" lon="-1.10431">
        <ele>61</ele>
        <time>2025-04-26T12:23:58Z</time>
      </trkpt>
      <trkpt lat="45.53435" lon="-1.10434">
        <ele>60</ele>
        <time>2025-04-26T12:23:59Z</time>
      </trkpt>
      <trkpt lat="45.53438" lon="-1.10437">
        <ele>60</ele>
        <time>2025-04-26T12:24:00Z</time>
      </trkpt>
      <trkpt lat="45.53441" lon="-1.1044">
        <ele>60</ele>
        <time>2025-04-26T12:24:01Z</time>
      </trkpt>
      <trkpt lat="45.53444" lon="-1.10443">
        <ele>61</ele>
        <time>2025-04-26T12:24:02Z</time>
      </trkpt>
      <trkpt lat="45.53447" lon="-1.10446">
        <ele>61</ele>
        <time>2025-04-26T12:24:03Z</time>
      </trkpt>
      <trkpt lat="45.5345" lon="-1.10449">
        <ele>61</ele>
        <time>2025-04-26T12:24:04Z</time>
      </trkpt>
      <trkpt lat="45.53452" lon="-1.10453">
        <ele>62</ele>
        <time>2025-04-26T12:24:05Z</time>
      </trkpt>
      <trkpt lat="45.53455" lon="-1.10457">
        <ele>62</ele>
        <time>2025-04-26T12:24:06Z</time>
      </trkpt>
      <trkpt lat="45.53458" lon="-1.10461">
        <ele>62</ele>
        <time>2025-04-26T12:24:07Z</time>
      </trkpt>
      <trkpt lat="45.53461" lon="-1.10465">
        <ele>63</ele>
        <time>2025-04-26T12:24:08Z</time>
      </trkpt>
      <trkpt lat="45.53464" lon="-1.10468">
        <ele>64</ele>
        <time>2025-04-26T12:24:09Z</time>
      </trkpt>
      <trkpt lat="45.53467" lon="-1.1047">
        <ele>64</ele>
        <time>2025-04-26T12:24:10Z</time>
      </trkpt>
      <trkpt lat="45.5347" lon="-1.10474">
        <ele>63</ele>
        <time>2025-04-26T12:24:11Z</time>
      </trkpt>
      <trkpt lat="45.53474" lon="-1.10476">
        <ele>64</ele>
        <time>2025-04-26T12:24:12Z</time>
      </trkpt>
      <trkpt lat="45.53478" lon="-1.10479">
        <ele>63</ele>
        <time>2025-04-26T12:24:13Z</time>
      </trkpt>
      <trkpt lat="45.53482" lon="-1.10481">
        <ele>63</ele>
        <time>2025-04-26T12:24:14Z</time>
      </trkpt>
      <trkpt lat="45.53485" lon="-1.10482">
        <ele>64</ele>
        <time>2025-04-26T12:24:15Z</time>
      </trkpt>
      <trkpt lat="45.53489" lon="-1.10484">
        <ele>65</ele>
        <time>2025-04-26T12:24:16Z</time>
      </trkpt>
      <trkpt lat="45.53492" lon="-1.10485">
        <ele>65</ele>
        <time>2025-04-26T12:24:17Z</time>
      </trkpt>
      <trkpt lat="45.53495" lon="-1.10487">
        <ele>66</ele>
        <time>2025-04-26T12:24:18Z</time>
      </trkpt>
      <trkpt lat="45.53498" lon="-1.10491">
        <ele>66</ele>
        <time>2025-04-26T12:24:19Z</time>
      </trkpt>
      <trkpt lat="45.53502" lon="-1.10493">
        <ele>66</ele>
        <time>2025-04-26T12:24:20Z</time>
      </trkpt>
      <trkpt lat="45.53507" lon="-1.10496">
        <ele>66</ele>
        <time>2025-04-26T12:24:21Z</time>
      </trkpt>
      <trkpt lat="45.53511" lon="-1.10498">
        <ele>67</ele>
        <time>2025-04-26T12:24:22Z</time>
      </trkpt>
      <trkpt lat="45.53516" lon="-1.10501">
        <ele>67</ele>
        <time>2025-04-26T12:24:23Z</time>
      </trkpt>
      <trkpt lat="45.53521" lon="-1.10505">
        <ele>66</ele>
        <time>2025-04-26T12:24:24Z</time>
      </trkpt>
      <trkpt lat="45.53526" lon="-1.10509">
        <ele>66</ele>
        <time>2025-04-26T12:24:25Z</time>
      </trkpt>
      <trkpt lat="45.53532" lon="-1.10514">
        <ele>66</ele>
        <time>2025-04-26T12:24:26Z</time>
      </trkpt>
      <trkpt lat="45.53537" lon="-1.10519">
        <ele>65</ele>
        <time>2025-04-26T12:24:27Z</time>
      </trkpt>
      <trkpt lat="45.53541" lon="-1.10525">
        <ele>64</ele>
        <time>2025-04-26T12:24:28Z</time>
      </trkpt>
      <trkpt lat="45.53544" lon="-1.10531">
        <ele>62</ele>
        <time>2025-04-26T12:24:29Z</time>
      </trkpt>
      <trkpt lat="45.53547" lon="-1.10537">
        <ele>61</ele>
        <time>2025-04-26T12:24:30Z</time>
      </trkpt>
      <trkpt lat="45.53549" lon="-1.10542">
        <ele>60</ele>
        <time>2025-04-26T12:24:31Z</time>
      </trkpt>
      <trkpt lat="45.53551" lon="-1.10548">
        <ele>60</ele>
        <time>2025-04-26T12:24:32Z</time>
      </trkpt>
      <trkpt lat="45.53553" lon="-1.10554">
        <ele>60</ele>
        <time>2025-04-26T12:24:33Z</time>
      </trkpt>
      <trkpt lat="45.53555" lon="-1.10561">
        <ele>59</ele>
        <time>2025-04-26T12:24:34Z</time>
      </trkpt>
      <trkpt lat="45.53557" lon="-1.10567">
        <ele>59</ele>
        <time>2025-04-26T12:24:35Z</time>
      </trkpt>
      <trkpt lat="45.5356" lon="-1.10573">
        <ele>59</ele>
        <time>2025-04-26T12:24:36Z</time>
      </trkpt>
      <trkpt lat="45.53562" lon="-1.10579">
        <ele>58</ele>
        <time>2025-04-26T12:24:37Z</time>
      </trkpt>
      <trkpt lat="45.53566" lon="-1.10583">
        <ele>58</ele>
        <time>2025-04-26T12:24:38Z</time>
      </trkpt>
      <trkpt lat="45.5357" lon="-1.10587">
        <ele>57</ele>
        <time>2025-04-26T12:24:39Z</time>
      </trkpt>
      <trkpt lat="45.53575" lon="-1.10589">
        <ele>57</ele>
        <time>2025-04-26T12:24:40Z</time>
      </trkpt>
      <trkpt lat="45.5358" lon="-1.10589">
        <ele>57</ele>
        <time>2025-04-26T12:24:41Z</time>
      </trkpt>
      <trkpt lat="45.53585" lon="-1.10587">
        <ele>57</ele>
        <time>2025-04-26T12:24:42Z</time>
      </trkpt>
      <trkpt lat="45.5359" lon="-1.10584">
        <ele>57</ele>
        <time>2025-04-26T12:24:43Z</time>
      </trkpt>
      <trkpt lat="45.53594" lon="-1.10579">
        <ele>57</ele>
        <time>2025-04-26T12:24:44Z</time>
      </trkpt>
      <trkpt lat="45.53597" lon="-1.10575">
        <ele>56</ele>
        <time>2025-04-26T12:24:45Z</time>
      </trkpt>
      <trkpt lat="45.53601" lon="-1.10571">
        <ele>56</ele>
        <time>2025-04-26T12:24:46Z</time>
      </trkpt>
      <trkpt lat="45.53605" lon="-1.10567">
        <ele>55</ele>
        <time>2025-04-26T12:24:47Z</time>
      </trkpt>
      <trkpt lat="45.53609" lon="-1.10563">
        <ele>56</ele>
        <time>2025-04-26T12:24:48Z</time>
      </trkpt>
      <trkpt lat="45.53612" lon="-1.10559">
        <ele>56</ele>
        <time>2025-04-26T12:24:49Z</time>
      </trkpt>
      <trkpt lat="45.53615" lon="-1.10556">
        <ele>56</ele>
        <time>2025-04-26T12:24:50Z</time>
      </trkpt>
      <trkpt lat="45.53618" lon="-1.10552">
        <ele>55</ele>
        <time>2025-04-26T12:24:51Z</time>
      </trkpt>
      <trkpt lat="45.53621" lon="-1.10548">
        <ele>55</ele>
        <time>2025-04-26T12:24:52Z</time>
      </trkpt>
      <trkpt lat="45.53625" lon="-1.10545">
        <ele>56</ele>
        <time>2025-04-26T12:24:53Z</time>
      </trkpt>
      <trkpt lat="45.53629" lon="-1.10541">
        <ele>55</ele>
        <time>2025-04-26T12:24:54Z</time>
      </trkpt>
      <trkpt lat="45.53632" lon="-1.10537">
        <ele>56</ele>
        <time>2025-04-26T12:24:55Z</time>
      </trkpt>
      <trkpt lat="45.53636" lon="-1.10533">
        <ele>56</ele>
        <time>2025-04-26T12:24:56Z</time>
      </trkpt>
      <trkpt lat="45.53639" lon="-1.10529">
        <ele>56</ele>
        <time>2025-04-26T12:24:57Z</time>
      </trkpt>
      <trkpt lat="45.53643" lon="-1.10525">
        <ele>56</ele>
        <time>2025-04-26T12:24:58Z</time>
      </trkpt>
      <trkpt lat="45.53648" lon="-1.10522">
        <ele>56</ele>
        <time>2025-04-26T12:24:59Z</time>
      </trkpt>
      <trkpt lat="45.53652" lon="-1.10517">
        <ele>56</ele>
        <time>2025-04-26T12:25:00Z</time>
      </trkpt>
      <trkpt lat="45.53655" lon="-1.10513">
        <ele>56</ele>
        <time>2025-04-26T12:25:01Z</time>
      </trkpt>
      <trkpt lat="45.53659" lon="-1.10509">
        <ele>55</ele>
        <time>2025-04-26T12:25:02Z</time>
      </trkpt>
      <trkpt lat="45.53663" lon="-1.10505">
        <ele>55</ele>
        <time>2025-04-26T12:25:03Z</time>
      </trkpt>
      <trkpt lat="45.53667" lon="-1.10501">
        <ele>55</ele>
        <time>2025-04-26T12:25:04Z</time>
      </trkpt>
      <trkpt lat="45.53671" lon="-1.10496">
        <ele>54</ele>
        <time>2025-04-26T12:25:05Z</time>
      </trkpt>
      <trkpt lat="45.53674" lon="-1.10492">
        <ele>54</ele>
        <time>2025-04-26T12:25:06Z</time>
      </trkpt>
      <trkpt lat="45.53677" lon="-1.10486">
        <ele>54</ele>
        <time>2025-04-26T12:25:07Z</time>
      </trkpt>
      <trkpt lat="45.53679" lon="-1.1048">
        <ele>53</ele>
        <time>2025-04-26T12:25:08Z</time>
      </trkpt>
      <trkpt lat="45.53681" lon="-1.10472">
        <ele>54</ele>
        <time>2025-04-26T12:25:09Z</time>
      </trkpt>
      <trkpt lat="45.53681" lon="-1.10465">
        <ele>54</ele>
        <time>2025-04-26T12:25:10Z</time>
      </trkpt>
      <trkpt lat="45.53682" lon="-1.10457">
        <ele>54</ele>
        <time>2025-04-26T12:25:11Z</time>
      </trkpt>
      <trkpt lat="45.53682" lon="-1.10449">
        <ele>54</ele>
        <time>2025-04-26T12:25:12Z</time>
      </trkpt>
      <trkpt lat="45.53681" lon="-1.1044">
        <ele>54</ele>
        <time>2025-04-26T12:25:13Z</time>
      </trkpt>
      <trkpt lat="45.53681" lon="-1.10433">
        <ele>54</ele>
        <time>2025-04-26T12:25:14Z</time>
      </trkpt>
      <trkpt lat="45.53681" lon="-1.10426">
        <ele>54</ele>
        <time>2025-04-26T12:25:15Z</time>
      </trkpt>
      <trkpt lat="45.53681" lon="-1.10418">
        <ele>55</ele>
        <time>2025-04-26T12:25:16Z</time>
      </trkpt>
      <trkpt lat="45.53681" lon="-1.10411">
        <ele>55</ele>
        <time>2025-04-26T12:25:17Z</time>
      </trkpt>
      <trkpt lat="45.53681" lon="-1.10404">
        <ele>55</ele>
        <time>2025-04-26T12:25:18Z</time>
      </trkpt>
      <trkpt lat="45.53681" lon="-1.10397">
        <ele>55</ele>
        <time>2025-04-26T12:25:19Z</time>
      </trkpt>
      <trkpt lat="45.53681" lon="-1.1039">
        <ele>54</ele>
        <time>2025-04-26T12:25:20Z</time>
      </trkpt>
      <trkpt lat="45.53681" lon="-1.10383">
        <ele>54</ele>
        <time>2025-04-26T12:25:21Z</time>
      </trkpt>
      <trkpt lat="45.53682" lon="-1.10377">
        <ele>54</ele>
        <time>2025-04-26T12:25:22Z</time>
      </trkpt>
      <trkpt lat="45.53683" lon="-1.1037">
        <ele>54</ele>
        <time>2025-04-26T12:25:23Z</time>
      </trkpt>
      <trkpt lat="45.53685" lon="-1.10364">
        <ele>54</ele>
        <time>2025-04-26T12:25:24Z</time>
      </trkpt>
      <trkpt lat="45.53687" lon="-1.10357">
        <ele>54</ele>
        <time>2025-04-26T12:25:25Z</time>
      </trkpt>
      <trkpt lat="45.5369" lon="-1.10351">
        <ele>54</ele>
        <time>2025-04-26T12:25:26Z</time>
      </trkpt>
      <trkpt lat="45.53692" lon="-1.10345">
        <ele>55</ele>
        <time>2025-04-26T12:25:27Z</time>
      </trkpt>
      <trkpt lat="45.53695" lon="-1.10339">
        <ele>55</ele>
        <time>2025-04-26T12:25:28Z</time>
      </trkpt>
      <trkpt lat="45.53698" lon="-1.10334">
        <ele>56</ele>
        <time>2025-04-26T12:25:29Z</time>
      </trkpt>
      <trkpt lat="45.53701" lon="-1.10329">
        <ele>55</ele>
        <time>2025-04-26T12:25:30Z</time>
      </trkpt>
      <trkpt lat="45.53704" lon="-1.10325">
        <ele>56</ele>
        <time>2025-04-26T12:25:31Z</time>
      </trkpt>
      <trkpt lat="45.53708" lon="-1.10319">
        <ele>55</ele>
        <time>2025-04-26T12:25:32Z</time>
      </trkpt>
      <trkpt lat="45.53711" lon="-1.10314">
        <ele>55</ele>
        <time>2025-04-26T12:25:33Z</time>
      </trkpt>
      <trkpt lat="45.53714" lon="-1.10309">
        <ele>56</ele>
        <time>2025-04-26T12:25:34Z</time>
      </trkpt>
      <trkpt lat="45.53717" lon="-1.10304">
        <ele>56</ele>
        <time>2025-04-26T12:25:35Z</time>
      </trkpt>
      <trkpt lat="45.5372" lon="-1.10299">
        <ele>57</ele>
        <time>2025-04-26T12:25:36Z</time>
      </trkpt>
      <trkpt lat="45.53723" lon="-1.10295">
        <ele>57</ele>
        <time>2025-04-26T12:25:37Z</time>
      </trkpt>
      <trkpt lat="45.53726" lon="-1.1029">
        <ele>57</ele>
        <time>2025-04-26T12:25:38Z</time>
      </trkpt>
      <trkpt lat="45.53728" lon="-1.10286">
        <ele>56</ele>
        <time>2025-04-26T12:25:39Z</time>
      </trkpt>
      <trkpt lat="45.53731" lon="-1.10281">
        <ele>57</ele>
        <time>2025-04-26T12:25:40Z</time>
      </trkpt>
      <trkpt lat="45.53734" lon="-1.10277">
        <ele>57</ele>
        <time>2025-04-26T12:25:41Z</time>
      </trkpt>
      <trkpt lat="45.53736" lon="-1.10273">
        <ele>58</ele>
        <time>2025-04-26T12:25:42Z</time>
      </trkpt>
      <trkpt lat="45.53738" lon="-1.10269">
        <ele>58</ele>
        <time>2025-04-26T12:25:43Z</time>
      </trkpt>
      <trkpt lat="45.5374" lon="-1.10265">
        <ele>58</ele>
        <time>2025-04-26T12:25:44Z</time>
      </trkpt>
      <trkpt lat="45.53743" lon="-1.10261">
        <ele>59</ele>
        <time>2025-04-26T12:25:45Z</time>
      </trkpt>
      <trkpt lat="45.53745" lon="-1.10258">
        <ele>59</ele>
        <time>2025-04-26T12:25:46Z</time>
      </trkpt>
      <trkpt lat="45.53748" lon="-1.10255">
        <ele>59</ele>
        <time>2025-04-26T12:25:47Z</time>
      </trkpt>
      <trkpt lat="45.5375" lon="-1.10252">
        <ele>60</ele>
        <time>2025-04-26T12:25:48Z</time>
      </trkpt>
      <trkpt lat="45.53753" lon="-1.10249">
        <ele>60</ele>
        <time>2025-04-26T12:25:49Z</time>
      </trkpt>
      <trkpt lat="45.53755" lon="-1.10247">
        <ele>59</ele>
        <time>2025-04-26T12:25:50Z</time>
      </trkpt>
      <trkpt lat="45.53757" lon="-1.10243">
        <ele>59</ele>
        <time>2025-04-26T12:25:51Z</time>
      </trkpt>
      <trkpt lat="45.53759" lon="-1.1024">
        <ele>59</ele>
        <time>2025-04-26T12:25:52Z</time>
      </trkpt>
      <trkpt lat="45.53761" lon="-1.10237">
        <ele>58</ele>
        <time>2025-04-26T12:25:53Z</time>
      </trkpt>
      <trkpt lat="45.53763" lon="-1.10233">
        <ele>58</ele>
        <time>2025-04-26T12:25:54Z</time>
      </trkpt>
      <trkpt lat="45.53764" lon="-1.10229">
        <ele>58</ele>
        <time>2025-04-26T12:25:55Z</time>
      </trkpt>
      <trkpt lat="45.53766" lon="-1.10225">
        <ele>57</ele>
        <time>2025-04-26T12:25:56Z</time>
      </trkpt>
      <trkpt lat="45.53768" lon="-1.10222">
        <ele>57</ele>
        <time>2025-04-26T12:25:57Z</time>
      </trkpt>
      <trkpt lat="45.53769" lon="-1.10219">
        <ele>58</ele>
        <time>2025-04-26T12:25:58Z</time>
      </trkpt>
      <trkpt lat="45.53771" lon="-1.10216">
        <ele>58</ele>
        <time>2025-04-26T12:25:59Z</time>
      </trkpt>
      <trkpt lat="45.53773" lon="-1.10213">
        <ele>59</ele>
        <time>2025-04-26T12:26:00Z</time>
      </trkpt>
      <trkpt lat="45.53775" lon="-1.10209">
        <ele>59</ele>
        <time>2025-04-26T12:26:01Z</time>
      </trkpt>
      <trkpt lat="45.53777" lon="-1.10206">
        <ele>59</ele>
        <time>2025-04-26T12:26:02Z</time>
      </trkpt>
      <trkpt lat="45.53779" lon="-1.10203">
        <ele>59</ele>
        <time>2025-04-26T12:26:03Z</time>
      </trkpt>
      <trkpt lat="45.5378" lon="-1.10199">
        <ele>59</ele>
        <time>2025-04-26T12:26:04Z</time>
      </trkpt>
      <trkpt lat="45.53781" lon="-1.10195">
        <ele>59</ele>
        <time>2025-04-26T12:26:05Z</time>
      </trkpt>
      <trkpt lat="45.53781" lon="-1.10191">
        <ele>59</ele>
        <time>2025-04-26T12:26:06Z</time>
      </trkpt>
      <trkpt lat="45.53782" lon="-1.10188">
        <ele>60</ele>
        <time>2025-04-26T12:26:07Z</time>
      </trkpt>
      <trkpt lat="45.53782" lon="-1.10184">
        <ele>60</ele>
        <time>2025-04-26T12:26:08Z</time>
      </trkpt>
      <trkpt lat="45.53783" lon="-1.1018">
        <ele>60</ele>
        <time>2025-04-26T12:26:09Z</time>
      </trkpt>
      <trkpt lat="45.53784" lon="-1.10177">
        <ele>61</ele>
        <time>2025-04-26T12:26:10Z</time>
      </trkpt>
      <trkpt lat="45.53784" lon="-1.10174">
        <ele>61</ele>
        <time>2025-04-26T12:26:11Z</time>
      </trkpt>
      <trkpt lat="45.53784" lon="-1.10171">
        <ele>61</ele>
        <time>2025-04-26T12:26:12Z</time>
      </trkpt>
      <trkpt lat="45.53784" lon="-1.10168">
        <ele>62</ele>
        <time>2025-04-26T12:26:13Z</time>
      </trkpt>
      <trkpt lat="45.53784" lon="-1.10165">
        <ele>62</ele>
        <time>2025-04-26T12:26:14Z</time>
      </trkpt>
      <trkpt lat="45.53784" lon="-1.10161">
        <ele>62</ele>
        <time>2025-04-26T12:26:15Z</time>
      </trkpt>
      <trkpt lat="45.53784" lon="-1.10158">
        <ele>62</ele>
        <time>2025-04-26T12:26:16Z</time>
      </trkpt>
      <trkpt lat="45.53784" lon="-1.10154">
        <ele>62</ele>
        <time>2025-04-26T12:26:17Z</time>
      </trkpt>
      <trkpt lat="45.53784" lon="-1.10151">
        <ele>62</ele>
        <time>2025-04-26T12:26:18Z</time>
      </trkpt>
      <trkpt lat="45.53783" lon="-1.10148">
        <ele>62</ele>
        <time>2025-04-26T12:26:19Z</time>
      </trkpt>
      <trkpt lat="45.53783" lon="-1.10144">
        <ele>62</ele>
        <time>2025-04-26T12:26:20Z</time>
      </trkpt>
      <trkpt lat="45.53782" lon="-1.10141">
        <ele>62</ele>
        <time>2025-04-26T12:26:21Z</time>
      </trkpt>
      <trkpt lat="45.53782" lon="-1.10138">
        <ele>62</ele>
        <time>2025-04-26T12:26:22Z</time>
      </trkpt>
      <trkpt lat="45.53782" lon="-1.10135">
        <ele>62</ele>
        <time>2025-04-26T12:26:23Z</time>
      </trkpt>
      <trkpt lat="45.53781" lon="-1.10131">
        <ele>62</ele>
        <time>2025-04-26T12:26:24Z</time>
      </trkpt>
      <trkpt lat="45.53781" lon="-1.10128">
        <ele>62</ele>
        <time>2025-04-26T12:26:25Z</time>
      </trkpt>
      <trkpt lat="45.53781" lon="-1.10126">
        <ele>62</ele>
        <time>2025-04-26T12:26:26Z</time>
      </trkpt>
      <trkpt lat="45.53781" lon="-1.10123">
        <ele>62</ele>
        <time>2025-04-26T12:26:27Z</time>
      </trkpt>
      <trkpt lat="45.5378" lon="-1.1012">
        <ele>63</ele>
        <time>2025-04-26T12:26:28Z</time>
      </trkpt>
      <trkpt lat="45.5378" lon="-1.10118">
        <ele>63</ele>
        <time>2025-04-26T12:26:29Z</time>
      </trkpt>
      <trkpt lat="45.5378" lon="-1.10115">
        <ele>63</ele>
        <time>2025-04-26T12:26:30Z</time>
      </trkpt>
      <trkpt lat="45.53779" lon="-1.10112">
        <ele>63</ele>
        <time>2025-04-26T12:26:31Z</time>
      </trkpt>
      <trkpt lat="45.53778" lon="-1.1011">
        <ele>63</ele>
        <time>2025-04-26T12:26:32Z</time>
      </trkpt>
      <trkpt lat="45.53779" lon="-1.10107">
        <ele>63</ele>
        <time>2025-04-26T12:26:33Z</time>
      </trkpt>
      <trkpt lat="45.5378" lon="-1.10104">
        <ele>63</ele>
        <time>2025-04-26T12:26:34Z</time>
      </trkpt>
      <trkpt lat="45.53782" lon="-1.10101">
        <ele>63</ele>
        <time>2025-04-26T12:26:35Z</time>
      </trkpt>
      <trkpt lat="45.53784" lon="-1.10099">
        <ele>64</ele>
        <time>2025-04-26T12:26:36Z</time>
      </trkpt>
      <trkpt lat="45.53785" lon="-1.10097">
        <ele>64</ele>
        <time>2025-04-26T12:26:37Z</time>
      </trkpt>
      <trkpt lat="45.53787" lon="-1.10094">
        <ele>64</ele>
        <time>2025-04-26T12:26:38Z</time>
      </trkpt>
      <trkpt lat="45.53788" lon="-1.1009">
        <ele>65</ele>
        <time>2025-04-26T12:26:39Z</time>
      </trkpt>
      <trkpt lat="45.5379" lon="-1.10088">
        <ele>64</ele>
        <time>2025-04-26T12:26:40Z</time>
      </trkpt>
      <trkpt lat="45.53792" lon="-1.10084">
        <ele>65</ele>
        <time>2025-04-26T12:26:41Z</time>
      </trkpt>
      <trkpt lat="45.53794" lon="-1.10081">
        <ele>64</ele>
        <time>2025-04-26T12:26:42Z</time>
      </trkpt>
      <trkpt lat="45.53796" lon="-1.10078">
        <ele>64</ele>
        <time>2025-04-26T12:26:43Z</time>
      </trkpt>
      <trkpt lat="45.53798" lon="-1.10074">
        <ele>64</ele>
        <time>2025-04-26T12:26:44Z</time>
      </trkpt>
      <trkpt lat="45.538" lon="-1.1007">
        <ele>64</ele>
        <time>2025-04-26T12:26:45Z</time>
      </trkpt>
      <trkpt lat="45.53802" lon="-1.10067">
        <ele>64</ele>
        <time>2025-04-26T12:26:46Z</time>
      </trkpt>
      <trkpt lat="45.53804" lon="-1.10063">
        <ele>64</ele>
        <time>2025-04-26T12:26:47Z</time>
      </trkpt>
      <trkpt lat="45.53806" lon="-1.10059">
        <ele>64</ele>
        <time>2025-04-26T12:26:48Z</time>
      </trkpt>
      <trkpt lat="45.53808" lon="-1.10056">
        <ele>64</ele>
        <time>2025-04-26T12:26:49Z</time>
      </trkpt>
      <trkpt lat="45.5381" lon="-1.10052">
        <ele>65</ele>
        <time>2025-04-26T12:26:50Z</time>
      </trkpt>
      <trkpt lat="45.53812" lon="-1.10049">
        <ele>64</ele>
        <time>2025-04-26T12:26:51Z</time>
      </trkpt>
      <trkpt lat="45.53813" lon="-1.10046">
        <ele>65</ele>
        <time>2025-04-26T12:26:52Z</time>
      </trkpt>
      <trkpt lat="45.53815" lon="-1.10043">
        <ele>66</ele>
        <time>2025-04-26T12:26:53Z</time>
      </trkpt>
      <trkpt lat="45.53817" lon="-1.10039">
        <ele>66</ele>
        <time>2025-04-26T12:26:54Z</time>
      </trkpt>
      <trkpt lat="45.53819" lon="-1.10036">
        <ele>67</ele>
        <time>2025-04-26T12:26:55Z</time>
      </trkpt>
      <trkpt lat="45.53821" lon="-1.10033">
        <ele>67</ele>
        <time>2025-04-26T12:26:56Z</time>
      </trkpt>
      <trkpt lat="45.53823" lon="-1.1003">
        <ele>67</ele>
        <time>2025-04-26T12:26:57Z</time>
      </trkpt>
      <trkpt lat="45.53825" lon="-1.10027">
        <ele>67</ele>
        <time>2025-04-26T12:26:58Z</time>
      </trkpt>
      <trkpt lat="45.53827" lon="-1.10025">
        <ele>68</ele>
        <time>2025-04-26T12:26:59Z</time>
      </trkpt>
      <trkpt lat="45.53829" lon="-1.10022">
        <ele>69</ele>
        <time>2025-04-26T12:27:00Z</time>
      </trkpt>
      <trkpt lat="45.53832" lon="-1.1002">
        <ele>69</ele>
        <time>2025-04-26T12:27:01Z</time>
      </trkpt>
      <trkpt lat="45.53834" lon="-1.10017">
        <ele>70</ele>
        <time>2025-04-26T12:27:02Z</time>
      </trkpt>
      <trkpt lat="45.53837" lon="-1.10015">
        <ele>69</ele>
        <time>2025-04-26T12:27:03Z</time>
      </trkpt>
      <trkpt lat="45.53839" lon="-1.10013">
        <ele>68</ele>
        <time>2025-04-26T12:27:04Z</time>
      </trkpt>
      <trkpt lat="45.53841" lon="-1.10011">
        <ele>68</ele>
        <time>2025-04-26T12:27:05Z</time>
      </trkpt>
      <trkpt lat="45.53842" lon="-1.10008">
        <ele>68</ele>
        <time>2025-04-26T12:27:06Z</time>
      </trkpt>
      <trkpt lat="45.53844" lon="-1.10005">
        <ele>68</ele>
        <time>2025-04-26T12:27:07Z</time>
      </trkpt>
      <trkpt lat="45.53846" lon="-1.10004">
        <ele>67</ele>
        <time>2025-04-26T12:27:08Z</time>
      </trkpt>
      <trkpt lat="45.53848" lon="-1.10001">
        <ele>67</ele>
        <time>2025-04-26T12:27:09Z</time>
      </trkpt>
      <trkpt lat="45.53851" lon="-1.09999">
        <ele>67</ele>
        <time>2025-04-26T12:27:10Z</time>
      </trkpt>
      <trkpt lat="45.53853" lon="-1.09996">
        <ele>67</ele>
        <time>2025-04-26T12:27:11Z</time>
      </trkpt>
      <trkpt lat="45.53856" lon="-1.09993">
        <ele>67</ele>
        <time>2025-04-26T12:27:12Z</time>
      </trkpt>
      <trkpt lat="45.53858" lon="-1.0999">
        <ele>66</ele>
        <time>2025-04-26T12:27:13Z</time>
      </trkpt>
      <trkpt lat="45.5386" lon="-1.09987">
        <ele>66</ele>
        <time>2025-04-26T12:27:14Z</time>
      </trkpt>
      <trkpt lat="45.53863" lon="-1.09984">
        <ele>67</ele>
        <time>2025-04-26T12:27:15Z</time>
      </trkpt>
      <trkpt lat="45.53866" lon="-1.09981">
        <ele>67</ele>
        <time>2025-04-26T12:27:16Z</time>
      </trkpt>
      <trkpt lat="45.5387" lon="-1.09979">
        <ele>66</ele>
        <time>2025-04-26T12:27:17Z</time>
      </trkpt>
      <trkpt lat="45.53872" lon="-1.09976">
        <ele>66</ele>
        <time>2025-04-26T12:27:18Z</time>
      </trkpt>
      <trkpt lat="45.53875" lon="-1.09974">
        <ele>66</ele>
        <time>2025-04-26T12:27:19Z</time>
      </trkpt>
      <trkpt lat="45.53878" lon="-1.09971">
        <ele>66</ele>
        <time>2025-04-26T12:27:20Z</time>
      </trkpt>
      <trkpt lat="45.53882" lon="-1.09967">
        <ele>65</ele>
        <time>2025-04-26T12:27:21Z</time>
      </trkpt>
      <trkpt lat="45.53885" lon="-1.09964">
        <ele>65</ele>
        <time>2025-04-26T12:27:22Z</time>
      </trkpt>
      <trkpt lat="45.53888" lon="-1.09962">
        <ele>66</ele>
        <time>2025-04-26T12:27:23Z</time>
      </trkpt>
      <trkpt lat="45.53892" lon="-1.09959">
        <ele>66</ele>
        <time>2025-04-26T12:27:24Z</time>
      </trkpt>
      <trkpt lat="45.53895" lon="-1.09956">
        <ele>66</ele>
        <time>2025-04-26T12:27:25Z</time>
      </trkpt>
      <trkpt lat="45.53899" lon="-1.09953">
        <ele>67</ele>
        <time>2025-04-26T12:27:26Z</time>
      </trkpt>
      <trkpt lat="45.53903" lon="-1.09949">
        <ele>67</ele>
        <time>2025-04-26T12:27:27Z</time>
      </trkpt>
      <trkpt lat="45.53908" lon="-1.09946">
        <ele>67</ele>
        <time>2025-04-26T12:27:28Z</time>
      </trkpt>
      <trkpt lat="45.53913" lon="-1.09943">
        <ele>67</ele>
        <time>2025-04-26T12:27:29Z</time>
      </trkpt>
      <trkpt lat="45.53918" lon="-1.09942">
        <ele>66</ele>
        <time>2025-04-26T12:27:30Z</time>
      </trkpt>
      <trkpt lat="45.53922" lon="-1.09939">
        <ele>66</ele>
        <time>2025-04-26T12:27:31Z</time>
      </trkpt>
      <trkpt lat="45.53927" lon="-1.09936">
        <ele>65</ele>
        <time>2025-04-26T12:27:32Z</time>
      </trkpt>
      <trkpt lat="45.53932" lon="-1.09933">
        <ele>65</ele>
        <time>2025-04-26T12:27:33Z</time>
      </trkpt>
      <trkpt lat="45.53938" lon="-1.09931">
        <ele>64</ele>
        <time>2025-04-26T12:27:34Z</time>
      </trkpt>
      <trkpt lat="45.53944" lon="-1.09928">
        <ele>64</ele>
        <time>2025-04-26T12:27:35Z</time>
      </trkpt>
      <trkpt lat="45.53949" lon="-1.09925">
        <ele>64</ele>
        <time>2025-04-26T12:27:36Z</time>
      </trkpt>
      <trkpt lat="45.53955" lon="-1.09921">
        <ele>64</ele>
        <time>2025-04-26T12:27:37Z</time>
      </trkpt>
      <trkpt lat="45.53961" lon="-1.09918">
        <ele>64</ele>
        <time>2025-04-26T12:27:38Z</time>
      </trkpt>
      <trkpt lat="45.53968" lon="-1.09913">
        <ele>65</ele>
        <time>2025-04-26T12:27:39Z</time>
      </trkpt>
      <trkpt lat="45.53974" lon="-1.0991">
        <ele>65</ele>
        <time>2025-04-26T12:27:40Z</time>
      </trkpt>
      <trkpt lat="45.5398" lon="-1.09907">
        <ele>65</ele>
        <time>2025-04-26T12:27:41Z</time>
      </trkpt>
      <trkpt lat="45.53986" lon="-1.09903">
        <ele>65</ele>
        <time>2025-04-26T12:27:42Z</time>
      </trkpt>
      <trkpt lat="45.53992" lon="-1.099">
        <ele>66</ele>
        <time>2025-04-26T12:27:43Z</time>
      </trkpt>
      <trkpt lat="45.53997" lon="-1.09896">
        <ele>66</ele>
        <time>2025-04-26T12:27:44Z</time>
      </trkpt>
      <trkpt lat="45.54003" lon="-1.09892">
        <ele>66</ele>
        <time>2025-04-26T12:27:45Z</time>
      </trkpt>
      <trkpt lat="45.54009" lon="-1.0989">
        <ele>65</ele>
        <time>2025-04-26T12:27:46Z</time>
      </trkpt>
      <trkpt lat="45.54015" lon="-1.09885">
        <ele>65</ele>
        <time>2025-04-26T12:27:47Z</time>
      </trkpt>
      <trkpt lat="45.54021" lon="-1.09881">
        <ele>66</ele>
        <time>2025-04-26T12:27:48Z</time>
      </trkpt>
      <trkpt lat="45.54027" lon="-1.09878">
        <ele>66</ele>
        <time>2025-04-26T12:27:49Z</time>
      </trkpt>
      <trkpt lat="45.54033" lon="-1.09874">
        <ele>65</ele>
        <time>2025-04-26T12:27:50Z</time>
      </trkpt>
      <trkpt lat="45.5404" lon="-1.09871">
        <ele>65</ele>
        <time>2025-04-26T12:27:51Z</time>
      </trkpt>
      <trkpt lat="45.54045" lon="-1.09867">
        <ele>65</ele>
        <time>2025-04-26T12:27:52Z</time>
      </trkpt>
      <trkpt lat="45.5405" lon="-1.09863">
        <ele>64</ele>
        <time>2025-04-26T12:27:53Z</time>
      </trkpt>
      <trkpt lat="45.54056" lon="-1.0986">
        <ele>64</ele>
        <time>2025-04-26T12:27:54Z</time>
      </trkpt>
      <trkpt lat="45.54062" lon="-1.09857">
        <ele>63</ele>
        <time>2025-04-26T12:27:55Z</time>
      </trkpt>
      <trkpt lat="45.54069" lon="-1.09853">
        <ele>63</ele>
        <time>2025-04-26T12:27:56Z</time>
      </trkpt>
      <trkpt lat="45.54075" lon="-1.09849">
        <ele>63</ele>
        <time>2025-04-26T12:27:57Z</time>
      </trkpt>
      <trkpt lat="45.54081" lon="-1.09846">
        <ele>63</ele>
        <time>2025-04-26T12:27:58Z</time>
      </trkpt>
      <trkpt lat="45.54087" lon="-1.09843">
        <ele>63</ele>
        <time>2025-04-26T12:27:59Z</time>
      </trkpt>
      <trkpt lat="45.54092" lon="-1.0984">
        <ele>64</ele>
        <time>2025-04-26T12:28:00Z</time>
      </trkpt>
      <trkpt lat="45.54097" lon="-1.09837">
        <ele>64</ele>
        <time>2025-04-26T12:28:01Z</time>
      </trkpt>
      <trkpt lat="45.54102" lon="-1.09834">
        <ele>65</ele>
        <time>2025-04-26T12:28:02Z</time>
      </trkpt>
      <trkpt lat="45.54106" lon="-1.09832">
        <ele>65</ele>
        <time>2025-04-26T12:28:03Z</time>
      </trkpt>
      <trkpt lat="45.54111" lon="-1.09829">
        <ele>65</ele>
        <time>2025-04-26T12:28:04Z</time>
      </trkpt>
      <trkpt lat="45.54115" lon="-1.09826">
        <ele>65</ele>
        <time>2025-04-26T12:28:05Z</time>
      </trkpt>
      <trkpt lat="45.5412" lon="-1.09822">
        <ele>65</ele>
        <time>2025-04-26T12:28:06Z</time>
      </trkpt>
      <trkpt lat="45.54126" lon="-1.09818">
        <ele>65</ele>
        <time>2025-04-26T12:28:07Z</time>
      </trkpt>
      <trkpt lat="45.54131" lon="-1.09814">
        <ele>64</ele>
        <time>2025-04-26T12:28:08Z</time>
      </trkpt>
      <trkpt lat="45.54136" lon="-1.09811">
        <ele>64</ele>
        <time>2025-04-26T12:28:09Z</time>
      </trkpt>
      <trkpt lat="45.54141" lon="-1.09807">
        <ele>64</ele>
        <time>2025-04-26T12:28:10Z</time>
      </trkpt>
      <trkpt lat="45.54145" lon="-1.09803">
        <ele>63</ele>
        <time>2025-04-26T12:28:11Z</time>
      </trkpt>
      <trkpt lat="45.5415" lon="-1.09798">
        <ele>63</ele>
        <time>2025-04-26T12:28:12Z</time>
      </trkpt>
      <trkpt lat="45.54155" lon="-1.09794">
        <ele>63</ele>
        <time>2025-04-26T12:28:13Z</time>
      </trkpt>
      <trkpt lat="45.54159" lon="-1.09789">
        <ele>62</ele>
        <time>2025-04-26T12:28:14Z</time>
      </trkpt>
      <trkpt lat="45.54163" lon="-1.09785">
        <ele>61</ele>
        <time>2025-04-26T12:28:15Z</time>
      </trkpt>
      <trkpt lat="45.54168" lon="-1.09781">
        <ele>61</ele>
        <time>2025-04-26T12:28:16Z</time>
      </trkpt>
      <trkpt lat="45.54174" lon="-1.09776">
        <ele>60</ele>
        <time>2025-04-26T12:28:17Z</time>
      </trkpt>
      <trkpt lat="45.54179" lon="-1.09771">
        <ele>59</ele>
        <time>2025-04-26T12:28:18Z</time>
      </trkpt>
      <trkpt lat="45.54183" lon="-1.09766">
        <ele>59</ele>
        <time>2025-04-26T12:28:19Z</time>
      </trkpt>
      <trkpt lat="45.54188" lon="-1.09761">
        <ele>59</ele>
        <time>2025-04-26T12:28:20Z</time>
      </trkpt>
      <trkpt lat="45.54193" lon="-1.09756">
        <ele>58</ele>
        <time>2025-04-26T12:28:21Z</time>
      </trkpt>
      <trkpt lat="45.54197" lon="-1.09751">
        <ele>58</ele>
        <time>2025-04-26T12:28:22Z</time>
      </trkpt>
      <trkpt lat="45.54202" lon="-1.09747">
        <ele>58</ele>
        <time>2025-04-26T12:28:23Z</time>
      </trkpt>
      <trkpt lat="45.54205" lon="-1.09743">
        <ele>58</ele>
        <time>2025-04-26T12:28:24Z</time>
      </trkpt>
      <trkpt lat="45.54209" lon="-1.09739">
        <ele>58</ele>
        <time>2025-04-26T12:28:25Z</time>
      </trkpt>
      <trkpt lat="45.54214" lon="-1.09735">
        <ele>57</ele>
        <time>2025-04-26T12:28:26Z</time>
      </trkpt>
      <trkpt lat="45.54218" lon="-1.09732">
        <ele>57</ele>
        <time>2025-04-26T12:28:27Z</time>
      </trkpt>
      <trkpt lat="45.54222" lon="-1.09728">
        <ele>57</ele>
        <time>2025-04-26T12:28:28Z</time>
      </trkpt>
      <trkpt lat="45.54226" lon="-1.09724">
        <ele>58</ele>
        <time>2025-04-26T12:28:29Z</time>
      </trkpt>
      <trkpt lat="45.5423" lon="-1.0972">
        <ele>58</ele>
        <time>2025-04-26T12:28:30Z</time>
      </trkpt>
      <trkpt lat="45.54235" lon="-1.09716">
        <ele>59</ele>
        <time>2025-04-26T12:28:31Z</time>
      </trkpt>
      <trkpt lat="45.54239" lon="-1.09714">
        <ele>59</ele>
        <time>2025-04-26T12:28:32Z</time>
      </trkpt>
      <trkpt lat="45.54243" lon="-1.09709">
        <ele>59</ele>
        <time>2025-04-26T12:28:33Z</time>
      </trkpt>
      <trkpt lat="45.54248" lon="-1.09706">
        <ele>59</ele>
        <time>2025-04-26T12:28:34Z</time>
      </trkpt>
      <trkpt lat="45.54252" lon="-1.09701">
        <ele>59</ele>
        <time>2025-04-26T12:28:35Z</time>
      </trkpt>
      <trkpt lat="45.54256" lon="-1.09697">
        <ele>60</ele>
        <time>2025-04-26T12:28:36Z</time>
      </trkpt>
      <trkpt lat="45.5426" lon="-1.09693">
        <ele>60</ele>
        <time>2025-04-26T12:28:37Z</time>
      </trkpt>
      <trkpt lat="45.54264" lon="-1.09689">
        <ele>60</ele>
        <time>2025-04-26T12:28:38Z</time>
      </trkpt>
      <trkpt lat="45.54267" lon="-1.09684">
        <ele>60</ele>
        <time>2025-04-26T12:28:39Z</time>
      </trkpt>
      <trkpt lat="45.54271" lon="-1.09681">
        <ele>60</ele>
        <time>2025-04-26T12:28:40Z</time>
      </trkpt>
      <trkpt lat="45.54274" lon="-1.09677">
        <ele>60</ele>
        <time>2025-04-26T12:28:41Z</time>
      </trkpt>
      <trkpt lat="45.54278" lon="-1.09673">
        <ele>60</ele>
        <time>2025-04-26T12:28:42Z</time>
      </trkpt>
      <trkpt lat="45.54281" lon="-1.09669">
        <ele>60</ele>
        <time>2025-04-26T12:28:43Z</time>
      </trkpt>
      <trkpt lat="45.54285" lon="-1.09666">
        <ele>60</ele>
        <time>2025-04-26T12:28:44Z</time>
      </trkpt>
      <trkpt lat="45.54288" lon="-1.09663">
        <ele>60</ele>
        <time>2025-04-26T12:28:45Z</time>
      </trkpt>
      <trkpt lat="45.54292" lon="-1.09659">
        <ele>61</ele>
        <time>2025-04-26T12:28:46Z</time>
      </trkpt>
      <trkpt lat="45.54296" lon="-1.09655">
        <ele>60</ele>
        <time>2025-04-26T12:28:47Z</time>
      </trkpt>
      <trkpt lat="45.543" lon="-1.09651">
        <ele>60</ele>
        <time>2025-04-26T12:28:48Z</time>
      </trkpt>
      <trkpt lat="45.54304" lon="-1.09647">
        <ele>60</ele>
        <time>2025-04-26T12:28:49Z</time>
      </trkpt>
      <trkpt lat="45.54308" lon="-1.09643">
        <ele>60</ele>
        <time>2025-04-26T12:28:50Z</time>
      </trkpt>
      <trkpt lat="45.54313" lon="-1.09639">
        <ele>59</ele>
        <time>2025-04-26T12:28:51Z</time>
      </trkpt>
      <trkpt lat="45.54317" lon="-1.09635">
        <ele>59</ele>
        <time>2025-04-26T12:28:52Z</time>
      </trkpt>
      <trkpt lat="45.54321" lon="-1.09631">
        <ele>58</ele>
        <time>2025-04-26T12:28:53Z</time>
      </trkpt>
      <trkpt lat="45.54324" lon="-1.09627">
        <ele>58</ele>
        <time>2025-04-26T12:28:54Z</time>
      </trkpt>
      <trkpt lat="45.54328" lon="-1.09624">
        <ele>58</ele>
        <time>2025-04-26T12:28:55Z</time>
      </trkpt>
      <trkpt lat="45.54331" lon="-1.0962">
        <ele>58</ele>
        <time>2025-04-26T12:28:56Z</time>
      </trkpt>
      <trkpt lat="45.54333" lon="-1.09615">
        <ele>58</ele>
        <time>2025-04-26T12:28:57Z</time>
      </trkpt>
      <trkpt lat="45.54336" lon="-1.0961">
        <ele>58</ele>
        <time>2025-04-26T12:28:58Z</time>
      </trkpt>
      <trkpt lat="45.54338" lon="-1.09607">
        <ele>58</ele>
        <time>2025-04-26T12:28:59Z</time>
      </trkpt>
      <trkpt lat="45.54341" lon="-1.09604">
        <ele>58</ele>
        <time>2025-04-26T12:29:00Z</time>
      </trkpt>
      <trkpt lat="45.54345" lon="-1.09601">
        <ele>58</ele>
        <time>2025-04-26T12:29:01Z</time>
      </trkpt>
      <trkpt lat="45.54348" lon="-1.09598">
        <ele>59</ele>
        <time>2025-04-26T12:29:02Z</time>
      </trkpt>
      <trkpt lat="45.54352" lon="-1.09596">
        <ele>59</ele>
        <time>2025-04-26T12:29:03Z</time>
      </trkpt>
      <trkpt lat="45.54357" lon="-1.09595">
        <ele>60</ele>
        <time>2025-04-26T12:29:04Z</time>
      </trkpt>
      <trkpt lat="45.54361" lon="-1.09593">
        <ele>60</ele>
        <time>2025-04-26T12:29:05Z</time>
      </trkpt>
      <trkpt lat="45.54366" lon="-1.09591">
        <ele>60</ele>
        <time>2025-04-26T12:29:06Z</time>
      </trkpt>
      <trkpt lat="45.5437" lon="-1.0959">
        <ele>60</ele>
        <time>2025-04-26T12:29:07Z</time>
      </trkpt>
      <trkpt lat="45.54374" lon="-1.09588">
        <ele>61</ele>
        <time>2025-04-26T12:29:08Z</time>
      </trkpt>
      <trkpt lat="45.54377" lon="-1.09586">
        <ele>61</ele>
        <time>2025-04-26T12:29:09Z</time>
      </trkpt>
      <trkpt lat="45.5438" lon="-1.09584">
        <ele>61</ele>
        <time>2025-04-26T12:29:10Z</time>
      </trkpt>
      <trkpt lat="45.54383" lon="-1.09582">
        <ele>62</ele>
        <time>2025-04-26T12:29:11Z</time>
      </trkpt>
      <trkpt lat="45.54385" lon="-1.09581">
        <ele>62</ele>
        <time>2025-04-26T12:29:12Z</time>
      </trkpt>
      <trkpt lat="45.54388" lon="-1.0958">
        <ele>63</ele>
        <time>2025-04-26T12:29:13Z</time>
      </trkpt>
      <trkpt lat="45.54391" lon="-1.09578">
        <ele>63</ele>
        <time>2025-04-26T12:29:14Z</time>
      </trkpt>
      <trkpt lat="45.54394" lon="-1.09577">
        <ele>64</ele>
        <time>2025-04-26T12:29:15Z</time>
      </trkpt>
      <trkpt lat="45.54396" lon="-1.09576">
        <ele>64</ele>
        <time>2025-04-26T12:29:16Z</time>
      </trkpt>
      <trkpt lat="45.544" lon="-1.09576">
        <ele>65</ele>
        <time>2025-04-26T12:29:17Z</time>
      </trkpt>
      <trkpt lat="45.54404" lon="-1.09575">
        <ele>65</ele>
        <time>2025-04-26T12:29:18Z</time>
      </trkpt>
      <trkpt lat="45.54408" lon="-1.09573">
        <ele>65</ele>
        <time>2025-04-26T12:29:19Z</time>
      </trkpt>
      <trkpt lat="45.54412" lon="-1.09571">
        <ele>66</ele>
        <time>2025-04-26T12:29:20Z</time>
      </trkpt>
      <trkpt lat="45.54416" lon="-1.09571">
        <ele>66</ele>
        <time>2025-04-26T12:29:21Z</time>
      </trkpt>
      <trkpt lat="45.5442" lon="-1.09569">
        <ele>66</ele>
        <time>2025-04-26T12:29:22Z</time>
      </trkpt>
      <trkpt lat="45.54425" lon="-1.09568">
        <ele>66</ele>
        <time>2025-04-26T12:29:23Z</time>
      </trkpt>
      <trkpt lat="45.54429" lon="-1.09567">
        <ele>66</ele>
        <time>2025-04-26T12:29:24Z</time>
      </trkpt>
      <trkpt lat="45.54434" lon="-1.09568">
        <ele>66</ele>
        <time>2025-04-26T12:29:25Z</time>
      </trkpt>
      <trkpt lat="45.54437" lon="-1.09567">
        <ele>66</ele>
        <time>2025-04-26T12:29:26Z</time>
      </trkpt>
      <trkpt lat="45.54441" lon="-1.09565">
        <ele>66</ele>
        <time>2025-04-26T12:29:27Z</time>
      </trkpt>
      <trkpt lat="45.54444" lon="-1.09564">
        <ele>66</ele>
        <time>2025-04-26T12:29:28Z</time>
      </trkpt>
      <trkpt lat="45.54448" lon="-1.09563">
        <ele>65</ele>
        <time>2025-04-26T12:29:29Z</time>
      </trkpt>
      <trkpt lat="45.54452" lon="-1.09562">
        <ele>65</ele>
        <time>2025-04-26T12:29:30Z</time>
      </trkpt>
      <trkpt lat="45.54456" lon="-1.0956">
        <ele>65</ele>
        <time>2025-04-26T12:29:31Z</time>
      </trkpt>
      <trkpt lat="45.5446" lon="-1.09559">
        <ele>64</ele>
        <time>2025-04-26T12:29:32Z</time>
      </trkpt>
      <trkpt lat="45.54464" lon="-1.09558">
        <ele>64</ele>
        <time>2025-04-26T12:29:33Z</time>
      </trkpt>
      <trkpt lat="45.54468" lon="-1.09557">
        <ele>64</ele>
        <time>2025-04-26T12:29:34Z</time>
      </trkpt>
      <trkpt lat="45.54472" lon="-1.09556">
        <ele>64</ele>
        <time>2025-04-26T12:29:35Z</time>
      </trkpt>
      <trkpt lat="45.54476" lon="-1.09554">
        <ele>64</ele>
        <time>2025-04-26T12:29:36Z</time>
      </trkpt>
      <trkpt lat="45.5448" lon="-1.09553">
        <ele>64</ele>
        <time>2025-04-26T12:29:37Z</time>
      </trkpt>
      <trkpt lat="45.54485" lon="-1.09552">
        <ele>64</ele>
        <time>2025-04-26T12:29:38Z</time>
      </trkpt>
      <trkpt lat="45.5449" lon="-1.09551">
        <ele>65</ele>
        <time>2025-04-26T12:29:39Z</time>
      </trkpt>
      <trkpt lat="45.54494" lon="-1.0955">
        <ele>65</ele>
        <time>2025-04-26T12:29:40Z</time>
      </trkpt>
      <trkpt lat="45.54499" lon="-1.09549">
        <ele>65</ele>
        <time>2025-04-26T12:29:41Z</time>
      </trkpt>
      <trkpt lat="45.54504" lon="-1.09548">
        <ele>65</ele>
        <time>2025-04-26T12:29:42Z</time>
      </trkpt>
      <trkpt lat="45.54508" lon="-1.09547">
        <ele>65</ele>
        <time>2025-04-26T12:29:43Z</time>
      </trkpt>
      <trkpt lat="45.54512" lon="-1.09546">
        <ele>65</ele>
        <time>2025-04-26T12:29:44Z</time>
      </trkpt>
      <trkpt lat="45.54517" lon="-1.09545">
        <ele>66</ele>
        <time>2025-04-26T12:29:45Z</time>
      </trkpt>
      <trkpt lat="45.54521" lon="-1.09543">
        <ele>66</ele>
        <time>2025-04-26T12:29:46Z</time>
      </trkpt>
      <trkpt lat="45.54526" lon="-1.09541">
        <ele>65</ele>
        <time>2025-04-26T12:29:47Z</time>
      </trkpt>
      <trkpt lat="45.5453" lon="-1.09541">
        <ele>65</ele>
        <time>2025-04-26T12:29:48Z</time>
      </trkpt>
      <trkpt lat="45.54534" lon="-1.09539">
        <ele>65</ele>
        <time>2025-04-26T12:29:49Z</time>
      </trkpt>
      <trkpt lat="45.54538" lon="-1.09537">
        <ele>65</ele>
        <time>2025-04-26T12:29:50Z</time>
      </trkpt>
      <trkpt lat="45.54542" lon="-1.09536">
        <ele>65</ele>
        <time>2025-04-26T12:29:51Z</time>
      </trkpt>
      <trkpt lat="45.54547" lon="-1.09536">
        <ele>64</ele>
        <time>2025-04-26T12:29:52Z</time>
      </trkpt>
      <trkpt lat="45.54551" lon="-1.09535">
        <ele>64</ele>
        <time>2025-04-26T12:29:53Z</time>
      </trkpt>
      <trkpt lat="45.54555" lon="-1.09534">
        <ele>64</ele>
        <time>2025-04-26T12:29:54Z</time>
      </trkpt>
      <trkpt lat="45.54559" lon="-1.09533">
        <ele>65</ele>
        <time>2025-04-26T12:29:55Z</time>
      </trkpt>
      <trkpt lat="45.54563" lon="-1.09532">
        <ele>65</ele>
        <time>2025-04-26T12:29:56Z</time>
      </trkpt>
      <trkpt lat="45.54567" lon="-1.09531">
        <ele>65</ele>
        <time>2025-04-26T12:29:57Z</time>
      </trkpt>
      <trkpt lat="45.54571" lon="-1.09529">
        <ele>65</ele>
        <time>2025-04-26T12:29:58Z</time>
      </trkpt>
      <trkpt lat="45.54575" lon="-1.09526">
        <ele>64</ele>
        <time>2025-04-26T12:29:59Z</time>
      </trkpt>
      <trkpt lat="45.54578" lon="-1.09525">
        <ele>64</ele>
        <time>2025-04-26T12:30:00Z</time>
      </trkpt>
      <trkpt lat="45.54582" lon="-1.09523">
        <ele>64</ele>
        <time>2025-04-26T12:30:01Z</time>
      </trkpt>
      <trkpt lat="45.54586" lon="-1.09522">
        <ele>63</ele>
        <time>2025-04-26T12:30:02Z</time>
      </trkpt>
      <trkpt lat="45.54591" lon="-1.0952">
        <ele>63</ele>
        <time>2025-04-26T12:30:03Z</time>
      </trkpt>
      <trkpt lat="45.54595" lon="-1.09519">
        <ele>62</ele>
        <time>2025-04-26T12:30:04Z</time>
      </trkpt>
      <trkpt lat="45.54599" lon="-1.09517">
        <ele>62</ele>
        <time>2025-04-26T12:30:05Z</time>
      </trkpt>
      <trkpt lat="45.54603" lon="-1.09516">
        <ele>62</ele>
        <time>2025-04-26T12:30:06Z</time>
      </trkpt>
      <trkpt lat="45.54608" lon="-1.09514">
        <ele>61</ele>
        <time>2025-04-26T12:30:07Z</time>
      </trkpt>
      <trkpt lat="45.54614" lon="-1.09514">
        <ele>61</ele>
        <time>2025-04-26T12:30:08Z</time>
      </trkpt>
      <trkpt lat="45.54619" lon="-1.09513">
        <ele>60</ele>
        <time>2025-04-26T12:30:09Z</time>
      </trkpt>
      <trkpt lat="45.54624" lon="-1.09511">
        <ele>60</ele>
        <time>2025-04-26T12:30:10Z</time>
      </trkpt>
      <trkpt lat="45.54629" lon="-1.0951">
        <ele>60</ele>
        <time>2025-04-26T12:30:11Z</time>
      </trkpt>
      <trkpt lat="45.54633" lon="-1.09508">
        <ele>61</ele>
        <time>2025-04-26T12:30:12Z</time>
      </trkpt>
      <trkpt lat="45.54639" lon="-1.09506">
        <ele>61</ele>
        <time>2025-04-26T12:30:13Z</time>
      </trkpt>
      <trkpt lat="45.54643" lon="-1.09505">
        <ele>61</ele>
        <time>2025-04-26T12:30:14Z</time>
      </trkpt>
      <trkpt lat="45.54648" lon="-1.09503">
        <ele>62</ele>
        <time>2025-04-26T12:30:15Z</time>
      </trkpt>
      <trkpt lat="45.54653" lon="-1.09502">
        <ele>62</ele>
        <time>2025-04-26T12:30:16Z</time>
      </trkpt>
      <trkpt lat="45.54657" lon="-1.09501">
        <ele>62</ele>
        <time>2025-04-26T12:30:17Z</time>
      </trkpt>
      <trkpt lat="45.54662" lon="-1.09499">
        <ele>62</ele>
        <time>2025-04-26T12:30:18Z</time>
      </trkpt>
      <trkpt lat="45.54667" lon="-1.09498">
        <ele>62</ele>
        <time>2025-04-26T12:30:19Z</time>
      </trkpt>
      <trkpt lat="45.54671" lon="-1.09496">
        <ele>62</ele>
        <time>2025-04-26T12:30:20Z</time>
      </trkpt>
      <trkpt lat="45.54676" lon="-1.09495">
        <ele>62</ele>
        <time>2025-04-26T12:30:21Z</time>
      </trkpt>
      <trkpt lat="45.54681" lon="-1.09493">
        <ele>62</ele>
        <time>2025-04-26T12:30:22Z</time>
      </trkpt>
      <trkpt lat="45.54685" lon="-1.0949">
        <ele>62</ele>
        <time>2025-04-26T12:30:23Z</time>
      </trkpt>
      <trkpt lat="45.54689" lon="-1.09487">
        <ele>62</ele>
        <time>2025-04-26T12:30:24Z</time>
      </trkpt>
      <trkpt lat="45.54694" lon="-1.09484">
        <ele>62</ele>
        <time>2025-04-26T12:30:25Z</time>
      </trkpt>
      <trkpt lat="45.54698" lon="-1.09482">
        <ele>62</ele>
        <time>2025-04-26T12:30:26Z</time>
      </trkpt>
      <trkpt lat="45.54702" lon="-1.09479">
        <ele>62</ele>
        <time>2025-04-26T12:30:27Z</time>
      </trkpt>
      <trkpt lat="45.54706" lon="-1.09477">
        <ele>63</ele>
        <time>2025-04-26T12:30:28Z</time>
      </trkpt>
      <trkpt lat="45.5471" lon="-1.09475">
        <ele>62</ele>
        <time>2025-04-26T12:30:29Z</time>
      </trkpt>
      <trkpt lat="45.54714" lon="-1.09473">
        <ele>62</ele>
        <time>2025-04-26T12:30:30Z</time>
      </trkpt>
      <trkpt lat="45.54717" lon="-1.09471">
        <ele>62</ele>
        <time>2025-04-26T12:30:31Z</time>
      </trkpt>
      <trkpt lat="45.54721" lon="-1.09469">
        <ele>62</ele>
        <time>2025-04-26T12:30:32Z</time>
      </trkpt>
      <trkpt lat="45.54725" lon="-1.09467">
        <ele>62</ele>
        <time>2025-04-26T12:30:33Z</time>
      </trkpt>
      <trkpt lat="45.54729" lon="-1.09464">
        <ele>61</ele>
        <time>2025-04-26T12:30:34Z</time>
      </trkpt>
      <trkpt lat="45.54732" lon="-1.09461">
        <ele>61</ele>
        <time>2025-04-26T12:30:35Z</time>
      </trkpt>
      <trkpt lat="45.54737" lon="-1.09458">
        <ele>61</ele>
        <time>2025-04-26T12:30:36Z</time>
      </trkpt>
      <trkpt lat="45.5474" lon="-1.09455">
        <ele>61</ele>
        <time>2025-04-26T12:30:37Z</time>
      </trkpt>
      <trkpt lat="45.54745" lon="-1.09452">
        <ele>61</ele>
        <time>2025-04-26T12:30:38Z</time>
      </trkpt>
      <trkpt lat="45.54749" lon="-1.09449">
        <ele>61</ele>
        <time>2025-04-26T12:30:39Z</time>
      </trkpt>
      <trkpt lat="45.54754" lon="-1.09446">
        <ele>61</ele>
        <time>2025-04-26T12:30:40Z</time>
      </trkpt>
      <trkpt lat="45.54758" lon="-1.09443">
        <ele>62</ele>
        <time>2025-04-26T12:30:41Z</time>
      </trkpt>
      <trkpt lat="45.54762" lon="-1.0944">
        <ele>62</ele>
        <time>2025-04-26T12:30:42Z</time>
      </trkpt>
      <trkpt lat="45.54766" lon="-1.09437">
        <ele>62</ele>
        <time>2025-04-26T12:30:43Z</time>
      </trkpt>
      <trkpt lat="45.5477" lon="-1.09434">
        <ele>62</ele>
        <time>2025-04-26T12:30:44Z</time>
      </trkpt>
      <trkpt lat="45.54774" lon="-1.09432">
        <ele>62</ele>
        <time>2025-04-26T12:30:45Z</time>
      </trkpt>
      <trkpt lat="45.54778" lon="-1.09429">
        <ele>62</ele>
        <time>2025-04-26T12:30:46Z</time>
      </trkpt>
      <trkpt lat="45.54782" lon="-1.09426">
        <ele>61</ele>
        <time>2025-04-26T12:30:47Z</time>
      </trkpt>
      <trkpt lat="45.54786" lon="-1.09423">
        <ele>61</ele>
        <time>2025-04-26T12:30:48Z</time>
      </trkpt>
      <trkpt lat="45.5479" lon="-1.0942">
        <ele>61</ele>
        <time>2025-04-26T12:30:49Z</time>
      </trkpt>
      <trkpt lat="45.54793" lon="-1.09416">
        <ele>61</ele>
        <time>2025-04-26T12:30:50Z</time>
      </trkpt>
      <trkpt lat="45.54797" lon="-1.09414">
        <ele>61</ele>
        <time>2025-04-26T12:30:51Z</time>
      </trkpt>
      <trkpt lat="45.54801" lon="-1.09411">
        <ele>61</ele>
        <time>2025-04-26T12:30:52Z</time>
      </trkpt>
      <trkpt lat="45.54804" lon="-1.09409">
        <ele>61</ele>
        <time>2025-04-26T12:30:53Z</time>
      </trkpt>
      <trkpt lat="45.54807" lon="-1.09407">
        <ele>61</ele>
        <time>2025-04-26T12:30:54Z</time>
      </trkpt>
      <trkpt lat="45.54811" lon="-1.09404">
        <ele>61</ele>
        <time>2025-04-26T12:30:55Z</time>
      </trkpt>
      <trkpt lat="45.54814" lon="-1.09402">
        <ele>61</ele>
        <time>2025-04-26T12:30:56Z</time>
      </trkpt>
      <trkpt lat="45.54818" lon="-1.094">
        <ele>61</ele>
        <time>2025-04-26T12:30:57Z</time>
      </trkpt>
      <trkpt lat="45.54821" lon="-1.09397">
        <ele>61</ele>
        <time>2025-04-26T12:30:58Z</time>
      </trkpt>
      <trkpt lat="45.54824" lon="-1.09395">
        <ele>61</ele>
        <time>2025-04-26T12:30:59Z</time>
      </trkpt>
      <trkpt lat="45.54826" lon="-1.09392">
        <ele>61</ele>
        <time>2025-04-26T12:31:00Z</time>
      </trkpt>
      <trkpt lat="45.54829" lon="-1.0939">
        <ele>62</ele>
        <time>2025-04-26T12:31:01Z</time>
      </trkpt>
      <trkpt lat="45.54831" lon="-1.09388">
        <ele>62</ele>
        <time>2025-04-26T12:31:02Z</time>
      </trkpt>
      <trkpt lat="45.54834" lon="-1.09387">
        <ele>62</ele>
        <time>2025-04-26T12:31:03Z</time>
      </trkpt>
      <trkpt lat="45.54836" lon="-1.09385">
        <ele>63</ele>
        <time>2025-04-26T12:31:04Z</time>
      </trkpt>
      <trkpt lat="45.54839" lon="-1.09383">
        <ele>63</ele>
        <time>2025-04-26T12:31:05Z</time>
      </trkpt>
      <trkpt lat="45.54842" lon="-1.09381">
        <ele>64</ele>
        <time>2025-04-26T12:31:06Z</time>
      </trkpt>
      <trkpt lat="45.54845" lon="-1.09379">
        <ele>64</ele>
        <time>2025-04-26T12:31:07Z</time>
      </trkpt>
      <trkpt lat="45.54848" lon="-1.09378">
        <ele>63</ele>
        <time>2025-04-26T12:31:08Z</time>
      </trkpt>
      <trkpt lat="45.5485" lon="-1.09376">
        <ele>63</ele>
        <time>2025-04-26T12:31:09Z</time>
      </trkpt>
      <trkpt lat="45.54852" lon="-1.09373">
        <ele>63</ele>
        <time>2025-04-26T12:31:10Z</time>
      </trkpt>
      <trkpt lat="45.54855" lon="-1.09371">
        <ele>64</ele>
        <time>2025-04-26T12:31:11Z</time>
      </trkpt>
      <trkpt lat="45.54858" lon="-1.09369">
        <ele>63</ele>
        <time>2025-04-26T12:31:12Z</time>
      </trkpt>
      <trkpt lat="45.5486" lon="-1.09367">
        <ele>63</ele>
        <time>2025-04-26T12:31:13Z</time>
      </trkpt>
      <trkpt lat="45.54863" lon="-1.09365">
        <ele>63</ele>
        <time>2025-04-26T12:31:14Z</time>
      </trkpt>
      <trkpt lat="45.54866" lon="-1.09363">
        <ele>63</ele>
        <time>2025-04-26T12:31:15Z</time>
      </trkpt>
      <trkpt lat="45.54869" lon="-1.09361">
        <ele>63</ele>
        <time>2025-04-26T12:31:16Z</time>
      </trkpt>
      <trkpt lat="45.54873" lon="-1.09359">
        <ele>63</ele>
        <time>2025-04-26T12:31:17Z</time>
      </trkpt>
      <trkpt lat="45.54877" lon="-1.09357">
        <ele>63</ele>
        <time>2025-04-26T12:31:18Z</time>
      </trkpt>
      <trkpt lat="45.54882" lon="-1.09354">
        <ele>64</ele>
        <time>2025-04-26T12:31:19Z</time>
      </trkpt>
      <trkpt lat="45.54886" lon="-1.09351">
        <ele>65</ele>
        <time>2025-04-26T12:31:20Z</time>
      </trkpt>
      <trkpt lat="45.5489" lon="-1.09347">
        <ele>65</ele>
        <time>2025-04-26T12:31:21Z</time>
      </trkpt>
      <trkpt lat="45.54895" lon="-1.09343">
        <ele>66</ele>
        <time>2025-04-26T12:31:22Z</time>
      </trkpt>
      <trkpt lat="45.54901" lon="-1.09339">
        <ele>66</ele>
        <time>2025-04-26T12:31:23Z</time>
      </trkpt>
      <trkpt lat="45.54906" lon="-1.09335">
        <ele>66</ele>
        <time>2025-04-26T12:31:24Z</time>
      </trkpt>
      <trkpt lat="45.5491" lon="-1.09331">
        <ele>66</ele>
        <time>2025-04-26T12:31:25Z</time>
      </trkpt>
      <trkpt lat="45.54915" lon="-1.09327">
        <ele>66</ele>
        <time>2025-04-26T12:31:26Z</time>
      </trkpt>
      <trkpt lat="45.54919" lon="-1.09324">
        <ele>66</ele>
        <time>2025-04-26T12:31:27Z</time>
      </trkpt>
      <trkpt lat="45.54924" lon="-1.0932">
        <ele>66</ele>
        <time>2025-04-26T12:31:28Z</time>
      </trkpt>
      <trkpt lat="45.54928" lon="-1.09317">
        <ele>65</ele>
        <time>2025-04-26T12:31:29Z</time>
      </trkpt>
      <trkpt lat="45.54933" lon="-1.09314">
        <ele>65</ele>
        <time>2025-04-26T12:31:30Z</time>
      </trkpt>
      <trkpt lat="45.54938" lon="-1.09311">
        <ele>65</ele>
        <time>2025-04-26T12:31:31Z</time>
      </trkpt>
      <trkpt lat="45.54943" lon="-1.09307">
        <ele>64</ele>
        <time>2025-04-26T12:31:32Z</time>
      </trkpt>
      <trkpt lat="45.54948" lon="-1.09304">
        <ele>64</ele>
        <time>2025-04-26T12:31:33Z</time>
      </trkpt>
      <trkpt lat="45.54953" lon="-1.093">
        <ele>63</ele>
        <time>2025-04-26T12:31:34Z</time>
      </trkpt>
      <trkpt lat="45.54959" lon="-1.09296">
        <ele>63</ele>
        <time>2025-04-26T12:31:35Z</time>
      </trkpt>
      <trkpt lat="45.54964" lon="-1.09292">
        <ele>62</ele>
        <time>2025-04-26T12:31:36Z</time>
      </trkpt>
      <trkpt lat="45.5497" lon="-1.09288">
        <ele>62</ele>
        <time>2025-04-26T12:31:37Z</time>
      </trkpt>
      <trkpt lat="45.54975" lon="-1.09285">
        <ele>61</ele>
        <time>2025-04-26T12:31:38Z</time>
      </trkpt>
      <trkpt lat="45.54979" lon="-1.0928">
        <ele>61</ele>
        <time>2025-04-26T12:31:39Z</time>
      </trkpt>
      <trkpt lat="45.54984" lon="-1.09277">
        <ele>61</ele>
        <time>2025-04-26T12:31:40Z</time>
      </trkpt>
      <trkpt lat="45.5499" lon="-1.09273">
        <ele>61</ele>
        <time>2025-04-26T12:31:41Z</time>
      </trkpt>
      <trkpt lat="45.54995" lon="-1.09269">
        <ele>61</ele>
        <time>2025-04-26T12:31:42Z</time>
      </trkpt>
      <trkpt lat="45.55" lon="-1.09265">
        <ele>61</ele>
        <time>2025-04-26T12:31:43Z</time>
      </trkpt>
      <trkpt lat="45.55005" lon="-1.09261">
        <ele>61</ele>
        <time>2025-04-26T12:31:44Z</time>
      </trkpt>
      <trkpt lat="45.5501" lon="-1.09257">
        <ele>60</ele>
        <time>2025-04-26T12:31:45Z</time>
      </trkpt>
      <trkpt lat="45.55015" lon="-1.09253">
        <ele>60</ele>
        <time>2025-04-26T12:31:46Z</time>
      </trkpt>
      <trkpt lat="45.5502" lon="-1.09249">
        <ele>60</ele>
        <time>2025-04-26T12:31:47Z</time>
      </trkpt>
      <trkpt lat="45.55024" lon="-1.09245">
        <ele>60</ele>
        <time>2025-04-26T12:31:48Z</time>
      </trkpt>
      <trkpt lat="45.55029" lon="-1.09242">
        <ele>59</ele>
        <time>2025-04-26T12:31:49Z</time>
      </trkpt>
      <trkpt lat="45.55033" lon="-1.09238">
        <ele>59</ele>
        <time>2025-04-26T12:31:50Z</time>
      </trkpt>
      <trkpt lat="45.55038" lon="-1.09234">
        <ele>59</ele>
        <time>2025-04-26T12:31:51Z</time>
      </trkpt>
      <trkpt lat="45.55042" lon="-1.0923">
        <ele>59</ele>
        <time>2025-04-26T12:31:52Z</time>
      </trkpt>
      <trkpt lat="45.55047" lon="-1.09227">
        <ele>59</ele>
        <time>2025-04-26T12:31:53Z</time>
      </trkpt>
      <trkpt lat="45.55051" lon="-1.09224">
        <ele>59</ele>
        <time>2025-04-26T12:31:54Z</time>
      </trkpt>
      <trkpt lat="45.55056" lon="-1.09221">
        <ele>59</ele>
        <time>2025-04-26T12:31:55Z</time>
      </trkpt>
      <trkpt lat="45.5506" lon="-1.09218">
        <ele>58</ele>
        <time>2025-04-26T12:31:56Z</time>
      </trkpt>
      <trkpt lat="45.55064" lon="-1.09214">
        <ele>58</ele>
        <time>2025-04-26T12:31:57Z</time>
      </trkpt>
      <trkpt lat="45.55068" lon="-1.0921">
        <ele>57</ele>
        <time>2025-04-26T12:31:58Z</time>
      </trkpt>
      <trkpt lat="45.55073" lon="-1.09207">
        <ele>57</ele>
        <time>2025-04-26T12:31:59Z</time>
      </trkpt>
      <trkpt lat="45.55077" lon="-1.09205">
        <ele>57</ele>
        <time>2025-04-26T12:32:00Z</time>
      </trkpt>
      <trkpt lat="45.55082" lon="-1.09203">
        <ele>57</ele>
        <time>2025-04-26T12:32:01Z</time>
      </trkpt>
      <trkpt lat="45.55087" lon="-1.092">
        <ele>58</ele>
        <time>2025-04-26T12:32:02Z</time>
      </trkpt>
      <trkpt lat="45.55091" lon="-1.09197">
        <ele>58</ele>
        <time>2025-04-26T12:32:03Z</time>
      </trkpt>
      <trkpt lat="45.55095" lon="-1.09195">
        <ele>58</ele>
        <time>2025-04-26T12:32:04Z</time>
      </trkpt>
      <trkpt lat="45.55098" lon="-1.09192">
        <ele>59</ele>
        <time>2025-04-26T12:32:05Z</time>
      </trkpt>
      <trkpt lat="45.55102" lon="-1.0919">
        <ele>60</ele>
        <time>2025-04-26T12:32:06Z</time>
      </trkpt>
      <trkpt lat="45.55105" lon="-1.09187">
        <ele>60</ele>
        <time>2025-04-26T12:32:07Z</time>
      </trkpt>
      <trkpt lat="45.55109" lon="-1.09186">
        <ele>60</ele>
        <time>2025-04-26T12:32:08Z</time>
      </trkpt>
      <trkpt lat="45.55112" lon="-1.09184">
        <ele>61</ele>
        <time>2025-04-26T12:32:09Z</time>
      </trkpt>
      <trkpt lat="45.55115" lon="-1.09181">
        <ele>61</ele>
        <time>2025-04-26T12:32:10Z</time>
      </trkpt>
      <trkpt lat="45.55118" lon="-1.09179">
        <ele>61</ele>
        <time>2025-04-26T12:32:11Z</time>
      </trkpt>
      <trkpt lat="45.55121" lon="-1.09177">
        <ele>61</ele>
        <time>2025-04-26T12:32:12Z</time>
      </trkpt>
      <trkpt lat="45.55125" lon="-1.09174">
        <ele>62</ele>
        <time>2025-04-26T12:32:13Z</time>
      </trkpt>
      <trkpt lat="45.55128" lon="-1.09172">
        <ele>61</ele>
        <time>2025-04-26T12:32:14Z</time>
      </trkpt>
      <trkpt lat="45.55131" lon="-1.09169">
        <ele>61</ele>
        <time>2025-04-26T12:32:15Z</time>
      </trkpt>
      <trkpt lat="45.55134" lon="-1.09165">
        <ele>61</ele>
        <time>2025-04-26T12:32:16Z</time>
      </trkpt>
      <trkpt lat="45.55138" lon="-1.09161">
        <ele>61</ele>
        <time>2025-04-26T12:32:17Z</time>
      </trkpt>
      <trkpt lat="45.55142" lon="-1.09157">
        <ele>60</ele>
        <time>2025-04-26T12:32:18Z</time>
      </trkpt>
      <trkpt lat="45.55145" lon="-1.09153">
        <ele>59</ele>
        <time>2025-04-26T12:32:19Z</time>
      </trkpt>
      <trkpt lat="45.55148" lon="-1.0915">
        <ele>59</ele>
        <time>2025-04-26T12:32:20Z</time>
      </trkpt>
      <trkpt lat="45.55151" lon="-1.09148">
        <ele>59</ele>
        <time>2025-04-26T12:32:21Z</time>
      </trkpt>
      <trkpt lat="45.55155" lon="-1.09144">
        <ele>59</ele>
        <time>2025-04-26T12:32:22Z</time>
      </trkpt>
      <trkpt lat="45.55158" lon="-1.09139">
        <ele>58</ele>
        <time>2025-04-26T12:32:23Z</time>
      </trkpt>
      <trkpt lat="45.5516" lon="-1.09135">
        <ele>58</ele>
        <time>2025-04-26T12:32:24Z</time>
      </trkpt>
      <trkpt lat="45.55162" lon="-1.09129">
        <ele>58</ele>
        <time>2025-04-26T12:32:25Z</time>
      </trkpt>
      <trkpt lat="45.55164" lon="-1.09125">
        <ele>58</ele>
        <time>2025-04-26T12:32:26Z</time>
      </trkpt>
      <trkpt lat="45.55167" lon="-1.0912">
        <ele>58</ele>
        <time>2025-04-26T12:32:27Z</time>
      </trkpt>
      <trkpt lat="45.5517" lon="-1.09116">
        <ele>58</ele>
        <time>2025-04-26T12:32:28Z</time>
      </trkpt>
      <trkpt lat="45.55174" lon="-1.09112">
        <ele>58</ele>
        <time>2025-04-26T12:32:29Z</time>
      </trkpt>
      <trkpt lat="45.55177" lon="-1.09109">
        <ele>58</ele>
        <time>2025-04-26T12:32:30Z</time>
      </trkpt>
      <trkpt lat="45.5518" lon="-1.09105">
        <ele>58</ele>
        <time>2025-04-26T12:32:31Z</time>
      </trkpt>
      <trkpt lat="45.55182" lon="-1.09101">
        <ele>58</ele>
        <time>2025-04-26T12:32:32Z</time>
      </trkpt>
      <trkpt lat="45.55185" lon="-1.09096">
        <ele>58</ele>
        <time>2025-04-26T12:32:33Z</time>
      </trkpt>
      <trkpt lat="45.55187" lon="-1.09093">
        <ele>58</ele>
        <time>2025-04-26T12:32:34Z</time>
      </trkpt>
      <trkpt lat="45.55189" lon="-1.09088">
        <ele>58</ele>
        <time>2025-04-26T12:32:35Z</time>
      </trkpt>
      <trkpt lat="45.55192" lon="-1.09085">
        <ele>59</ele>
        <time>2025-04-26T12:32:36Z</time>
      </trkpt>
      <trkpt lat="45.55193" lon="-1.09082">
        <ele>60</ele>
        <time>2025-04-26T12:32:37Z</time>
      </trkpt>
      <trkpt lat="45.55195" lon="-1.0908">
        <ele>61</ele>
        <time>2025-04-26T12:32:38Z</time>
      </trkpt>
      <trkpt lat="45.55196" lon="-1.09078">
        <ele>62</ele>
        <time>2025-04-26T12:32:39Z</time>
      </trkpt>
      <trkpt lat="45.55197" lon="-1.09076">
        <ele>62</ele>
        <time>2025-04-26T12:32:40Z</time>
      </trkpt>
      <trkpt lat="45.55198" lon="-1.09074">
        <ele>62</ele>
        <time>2025-04-26T12:32:41Z</time>
      </trkpt>
      <trkpt lat="45.552" lon="-1.09072">
        <ele>63</ele>
        <time>2025-04-26T12:32:42Z</time>
      </trkpt>
      <trkpt lat="45.55201" lon="-1.0907">
        <ele>63</ele>
        <time>2025-04-26T12:32:43Z</time>
      </trkpt>
      <trkpt lat="45.55203" lon="-1.09068">
        <ele>63</ele>
        <time>2025-04-26T12:32:44Z</time>
      </trkpt>
      <trkpt lat="45.55205" lon="-1.09065">
        <ele>63</ele>
        <time>2025-04-26T12:32:45Z</time>
      </trkpt>
      <trkpt lat="45.55207" lon="-1.09062">
        <ele>62</ele>
        <time>2025-04-26T12:32:46Z</time>
      </trkpt>
      <trkpt lat="45.55209" lon="-1.0906">
        <ele>63</ele>
        <time>2025-04-26T12:32:47Z</time>
      </trkpt>
      <trkpt lat="45.55211" lon="-1.09057">
        <ele>63</ele>
        <time>2025-04-26T12:32:48Z</time>
      </trkpt>
      <trkpt lat="45.55213" lon="-1.09054">
        <ele>63</ele>
        <time>2025-04-26T12:32:49Z</time>
      </trkpt>
      <trkpt lat="45.55215" lon="-1.09051">
        <ele>63</ele>
        <time>2025-04-26T12:32:50Z</time>
      </trkpt>
      <trkpt lat="45.55217" lon="-1.09049">
        <ele>63</ele>
        <time>2025-04-26T12:32:51Z</time>
      </trkpt>
      <trkpt lat="45.55219" lon="-1.09045">
        <ele>63</ele>
        <time>2025-04-26T12:32:52Z</time>
      </trkpt>
      <trkpt lat="45.5522" lon="-1.09042">
        <ele>63</ele>
        <time>2025-04-26T12:32:53Z</time>
      </trkpt>
      <trkpt lat="45.55222" lon="-1.09038">
        <ele>63</ele>
        <time>2025-04-26T12:32:54Z</time>
      </trkpt>
      <trkpt lat="45.55225" lon="-1.09035">
        <ele>63</ele>
        <time>2025-04-26T12:32:55Z</time>
      </trkpt>
      <trkpt lat="45.55226" lon="-1.09032">
        <ele>63</ele>
        <time>2025-04-26T12:32:56Z</time>
      </trkpt>
      <trkpt lat="45.55229" lon="-1.09028">
        <ele>62</ele>
        <time>2025-04-26T12:32:57Z</time>
      </trkpt>
      <trkpt lat="45.55231" lon="-1.09025">
        <ele>62</ele>
        <time>2025-04-26T12:32:58Z</time>
      </trkpt>
      <trkpt lat="45.55232" lon="-1.09021">
        <ele>62</ele>
        <time>2025-04-26T12:32:59Z</time>
      </trkpt>
      <trkpt lat="45.55235" lon="-1.09018">
        <ele>62</ele>
        <time>2025-04-26T12:33:00Z</time>
      </trkpt>
      <trkpt lat="45.55237" lon="-1.09014">
        <ele>63</ele>
        <time>2025-04-26T12:33:01Z</time>
      </trkpt>
      <trkpt lat="45.55239" lon="-1.09011">
        <ele>63</ele>
        <time>2025-04-26T12:33:02Z</time>
      </trkpt>
      <trkpt lat="45.55241" lon="-1.09008">
        <ele>63</ele>
        <time>2025-04-26T12:33:03Z</time>
      </trkpt>
      <trkpt lat="45.55243" lon="-1.09005">
        <ele>64</ele>
        <time>2025-04-26T12:33:04Z</time>
      </trkpt>
      <trkpt lat="45.55245" lon="-1.09002">
        <ele>64</ele>
        <time>2025-04-26T12:33:05Z</time>
      </trkpt>
      <trkpt lat="45.55247" lon="-1.08999">
        <ele>64</ele>
        <time>2025-04-26T12:33:06Z</time>
      </trkpt>
      <trkpt lat="45.55248" lon="-1.08995">
        <ele>65</ele>
        <time>2025-04-26T12:33:07Z</time>
      </trkpt>
      <trkpt lat="45.5525" lon="-1.08992">
        <ele>66</ele>
        <time>2025-04-26T12:33:08Z</time>
      </trkpt>
      <trkpt lat="45.55251" lon="-1.08989">
        <ele>66</ele>
        <time>2025-04-26T12:33:09Z</time>
      </trkpt>
      <trkpt lat="45.55253" lon="-1.08986">
        <ele>67</ele>
        <time>2025-04-26T12:33:10Z</time>
      </trkpt>
      <trkpt lat="45.55255" lon="-1.08984">
        <ele>67</ele>
        <time>2025-04-26T12:33:11Z</time>
      </trkpt>
      <trkpt lat="45.55257" lon="-1.08981">
        <ele>67</ele>
        <time>2025-04-26T12:33:12Z</time>
      </trkpt>
      <trkpt lat="45.55259" lon="-1.08979">
        <ele>67</ele>
        <time>2025-04-26T12:33:13Z</time>
      </trkpt>
      <trkpt lat="45.55261" lon="-1.08976">
        <ele>68</ele>
        <time>2025-04-26T12:33:14Z</time>
      </trkpt>
      <trkpt lat="45.55262" lon="-1.08973">
        <ele>68</ele>
        <time>2025-04-26T12:33:15Z</time>
      </trkpt>
      <trkpt lat="45.55264" lon="-1.08971">
        <ele>69</ele>
        <time>2025-04-26T12:33:16Z</time>
      </trkpt>
      <trkpt lat="45.55266" lon="-1.08967">
        <ele>69</ele>
        <time>2025-04-26T12:33:17Z</time>
      </trkpt>
      <trkpt lat="45.55268" lon="-1.08964">
        <ele>70</ele>
        <time>2025-04-26T12:33:18Z</time>
      </trkpt>
      <trkpt lat="45.5527" lon="-1.0896">
        <ele>70</ele>
        <time>2025-04-26T12:33:19Z</time>
      </trkpt>
      <trkpt lat="45.55273" lon="-1.08956">
        <ele>70</ele>
        <time>2025-04-26T12:33:20Z</time>
      </trkpt>
      <trkpt lat="45.55275" lon="-1.08952">
        <ele>70</ele>
        <time>2025-04-26T12:33:21Z</time>
      </trkpt>
      <trkpt lat="45.55277" lon="-1.08949">
        <ele>69</ele>
        <time>2025-04-26T12:33:22Z</time>
      </trkpt>
      <trkpt lat="45.5528" lon="-1.08945">
        <ele>69</ele>
        <time>2025-04-26T12:33:23Z</time>
      </trkpt>
      <trkpt lat="45.55282" lon="-1.0894">
        <ele>69</ele>
        <time>2025-04-26T12:33:24Z</time>
      </trkpt>
      <trkpt lat="45.55285" lon="-1.08935">
        <ele>69</ele>
        <time>2025-04-26T12:33:25Z</time>
      </trkpt>
      <trkpt lat="45.55288" lon="-1.0893">
        <ele>69</ele>
        <time>2025-04-26T12:33:26Z</time>
      </trkpt>
      <trkpt lat="45.5529" lon="-1.08925">
        <ele>69</ele>
        <time>2025-04-26T12:33:27Z</time>
      </trkpt>
      <trkpt lat="45.55293" lon="-1.08921">
        <ele>69</ele>
        <time>2025-04-26T12:33:28Z</time>
      </trkpt>
      <trkpt lat="45.55296" lon="-1.08917">
        <ele>69</ele>
        <time>2025-04-26T12:33:29Z</time>
      </trkpt>
      <trkpt lat="45.55298" lon="-1.08912">
        <ele>69</ele>
        <time>2025-04-26T12:33:30Z</time>
      </trkpt>
      <trkpt lat="45.55301" lon="-1.08908">
        <ele>68</ele>
        <time>2025-04-26T12:33:31Z</time>
      </trkpt>
      <trkpt lat="45.55304" lon="-1.08903">
        <ele>67</ele>
        <time>2025-04-26T12:33:32Z</time>
      </trkpt>
      <trkpt lat="45.55307" lon="-1.08897">
        <ele>68</ele>
        <time>2025-04-26T12:33:33Z</time>
      </trkpt>
      <trkpt lat="45.5531" lon="-1.08892">
        <ele>67</ele>
        <time>2025-04-26T12:33:34Z</time>
      </trkpt>
      <trkpt lat="45.55313" lon="-1.08887">
        <ele>67</ele>
        <time>2025-04-26T12:33:35Z</time>
      </trkpt>
      <trkpt lat="45.55315" lon="-1.08882">
        <ele>66</ele>
        <time>2025-04-26T12:33:36Z</time>
      </trkpt>
      <trkpt lat="45.55319" lon="-1.08877">
        <ele>66</ele>
        <time>2025-04-26T12:33:37Z</time>
      </trkpt>
      <trkpt lat="45.55323" lon="-1.0887">
        <ele>65</ele>
        <time>2025-04-26T12:33:38Z</time>
      </trkpt>
      <trkpt lat="45.55326" lon="-1.08865">
        <ele>64</ele>
        <time>2025-04-26T12:33:39Z</time>
      </trkpt>
      <trkpt lat="45.55331" lon="-1.08859">
        <ele>62</ele>
        <time>2025-04-26T12:33:40Z</time>
      </trkpt>
      <trkpt lat="45.55335" lon="-1.08854">
        <ele>62</ele>
        <time>2025-04-26T12:33:41Z</time>
      </trkpt>
      <trkpt lat="45.55339" lon="-1.08849">
        <ele>62</ele>
        <time>2025-04-26T12:33:42Z</time>
      </trkpt>
      <trkpt lat="45.55342" lon="-1.08844">
        <ele>61</ele>
        <time>2025-04-26T12:33:43Z</time>
      </trkpt>
      <trkpt lat="45.55345" lon="-1.0884">
        <ele>61</ele>
        <time>2025-04-26T12:33:44Z</time>
      </trkpt>
      <trkpt lat="45.5535" lon="-1.08835">
        <ele>60</ele>
        <time>2025-04-26T12:33:45Z</time>
      </trkpt>
      <trkpt lat="45.55354" lon="-1.08829">
        <ele>58</ele>
        <time>2025-04-26T12:33:46Z</time>
      </trkpt>
      <trkpt lat="45.55358" lon="-1.08822">
        <ele>58</ele>
        <time>2025-04-26T12:33:47Z</time>
      </trkpt>
      <trkpt lat="45.55362" lon="-1.08815">
        <ele>58</ele>
        <time>2025-04-26T12:33:48Z</time>
      </trkpt>
      <trkpt lat="45.55365" lon="-1.08808">
        <ele>58</ele>
        <time>2025-04-26T12:33:49Z</time>
      </trkpt>
      <trkpt lat="45.55369" lon="-1.088">
        <ele>58</ele>
        <time>2025-04-26T12:33:50Z</time>
      </trkpt>
      <trkpt lat="45.55373" lon="-1.08793">
        <ele>58</ele>
        <time>2025-04-26T12:33:51Z</time>
      </trkpt>
      <trkpt lat="45.55376" lon="-1.08787">
        <ele>58</ele>
        <time>2025-04-26T12:33:52Z</time>
      </trkpt>
      <trkpt lat="45.5538" lon="-1.08781">
        <ele>58</ele>
        <time>2025-04-26T12:33:53Z</time>
      </trkpt>
      <trkpt lat="45.55383" lon="-1.08775">
        <ele>58</ele>
        <time>2025-04-26T12:33:54Z</time>
      </trkpt>
      <trkpt lat="45.55387" lon="-1.08768">
        <ele>58</ele>
        <time>2025-04-26T12:33:55Z</time>
      </trkpt>
      <trkpt lat="45.5539" lon="-1.08763">
        <ele>58</ele>
        <time>2025-04-26T12:33:56Z</time>
      </trkpt>
      <trkpt lat="45.55394" lon="-1.08757">
        <ele>58</ele>
        <time>2025-04-26T12:33:57Z</time>
      </trkpt>
      <trkpt lat="45.55397" lon="-1.08752">
        <ele>58</ele>
        <time>2025-04-26T12:33:58Z</time>
      </trkpt>
      <trkpt lat="45.554" lon="-1.08747">
        <ele>57</ele>
        <time>2025-04-26T12:33:59Z</time>
      </trkpt>
      <trkpt lat="45.55403" lon="-1.08741">
        <ele>57</ele>
        <time>2025-04-26T12:34:00Z</time>
      </trkpt>
      <trkpt lat="45.55407" lon="-1.08736">
        <ele>57</ele>
        <time>2025-04-26T12:34:01Z</time>
      </trkpt>
      <trkpt lat="45.5541" lon="-1.08731">
        <ele>56</ele>
        <time>2025-04-26T12:34:02Z</time>
      </trkpt>
      <trkpt lat="45.55413" lon="-1.08727">
        <ele>56</ele>
        <time>2025-04-26T12:34:03Z</time>
      </trkpt>
      <trkpt lat="45.55415" lon="-1.08723">
        <ele>56</ele>
        <time>2025-04-26T12:34:04Z</time>
      </trkpt>
      <trkpt lat="45.55417" lon="-1.08718">
        <ele>56</ele>
        <time>2025-04-26T12:34:05Z</time>
      </trkpt>
      <trkpt lat="45.55419" lon="-1.08715">
        <ele>57</ele>
        <time>2025-04-26T12:34:06Z</time>
      </trkpt>
      <trkpt lat="45.55422" lon="-1.08711">
        <ele>57</ele>
        <time>2025-04-26T12:34:07Z</time>
      </trkpt>
      <trkpt lat="45.55424" lon="-1.08709">
        <ele>57</ele>
        <time>2025-04-26T12:34:08Z</time>
      </trkpt>
      <trkpt lat="45.55426" lon="-1.08707">
        <ele>57</ele>
        <time>2025-04-26T12:34:09Z</time>
      </trkpt>
      <trkpt lat="45.55428" lon="-1.08704">
        <ele>58</ele>
        <time>2025-04-26T12:34:10Z</time>
      </trkpt>
      <trkpt lat="45.5543" lon="-1.087">
        <ele>58</ele>
        <time>2025-04-26T12:34:11Z</time>
      </trkpt>
      <trkpt lat="45.55433" lon="-1.08696">
        <ele>58</ele>
        <time>2025-04-26T12:34:12Z</time>
      </trkpt>
      <trkpt lat="45.55435" lon="-1.08692">
        <ele>59</ele>
        <time>2025-04-26T12:34:13Z</time>
      </trkpt>
      <trkpt lat="45.55438" lon="-1.08688">
        <ele>59</ele>
        <time>2025-04-26T12:34:14Z</time>
      </trkpt>
      <trkpt lat="45.5544" lon="-1.08684">
        <ele>60</ele>
        <time>2025-04-26T12:34:15Z</time>
      </trkpt>
      <trkpt lat="45.55443" lon="-1.0868">
        <ele>61</ele>
        <time>2025-04-26T12:34:16Z</time>
      </trkpt>
      <trkpt lat="45.55445" lon="-1.08675">
        <ele>61</ele>
        <time>2025-04-26T12:34:17Z</time>
      </trkpt>
      <trkpt lat="45.55447" lon="-1.0867">
        <ele>61</ele>
        <time>2025-04-26T12:34:18Z</time>
      </trkpt>
      <trkpt lat="45.5545" lon="-1.08665">
        <ele>61</ele>
        <time>2025-04-26T12:34:19Z</time>
      </trkpt>
      <trkpt lat="45.55453" lon="-1.08661">
        <ele>62</ele>
        <time>2025-04-26T12:34:20Z</time>
      </trkpt>
      <trkpt lat="45.55456" lon="-1.08656">
        <ele>61</ele>
        <time>2025-04-26T12:34:21Z</time>
      </trkpt>
      <trkpt lat="45.55459" lon="-1.08652">
        <ele>61</ele>
        <time>2025-04-26T12:34:22Z</time>
      </trkpt>
      <trkpt lat="45.55463" lon="-1.08647">
        <ele>61</ele>
        <time>2025-04-26T12:34:23Z</time>
      </trkpt>
      <trkpt lat="45.55466" lon="-1.08642">
        <ele>61</ele>
        <time>2025-04-26T12:34:24Z</time>
      </trkpt>
      <trkpt lat="45.55469" lon="-1.08636">
        <ele>61</ele>
        <time>2025-04-26T12:34:25Z</time>
      </trkpt>
      <trkpt lat="45.55473" lon="-1.08629">
        <ele>60</ele>
        <time>2025-04-26T12:34:26Z</time>
      </trkpt>
      <trkpt lat="45.55476" lon="-1.08623">
        <ele>60</ele>
        <time>2025-04-26T12:34:27Z</time>
      </trkpt>
      <trkpt lat="45.55479" lon="-1.08617">
        <ele>59</ele>
        <time>2025-04-26T12:34:28Z</time>
      </trkpt>
      <trkpt lat="45.55483" lon="-1.08611">
        <ele>59</ele>
        <time>2025-04-26T12:34:29Z</time>
      </trkpt>
      <trkpt lat="45.55488" lon="-1.08604">
        <ele>59</ele>
        <time>2025-04-26T12:34:30Z</time>
      </trkpt>
      <trkpt lat="45.55492" lon="-1.08597">
        <ele>58</ele>
        <time>2025-04-26T12:34:31Z</time>
      </trkpt>
      <trkpt lat="45.55497" lon="-1.08591">
        <ele>58</ele>
        <time>2025-04-26T12:34:32Z</time>
      </trkpt>
      <trkpt lat="45.555" lon="-1.08585">
        <ele>59</ele>
        <time>2025-04-26T12:34:33Z</time>
      </trkpt>
      <trkpt lat="45.55504" lon="-1.08579">
        <ele>58</ele>
        <time>2025-04-26T12:34:34Z</time>
      </trkpt>
      <trkpt lat="45.55507" lon="-1.08573">
        <ele>58</ele>
        <time>2025-04-26T12:34:35Z</time>
      </trkpt>
      <trkpt lat="45.5551" lon="-1.08568">
        <ele>58</ele>
        <time>2025-04-26T12:34:36Z</time>
      </trkpt>
      <trkpt lat="45.55514" lon="-1.08564">
        <ele>58</ele>
        <time>2025-04-26T12:34:37Z</time>
      </trkpt>
      <trkpt lat="45.55518" lon="-1.08559">
        <ele>58</ele>
        <time>2025-04-26T12:34:38Z</time>
      </trkpt>
      <trkpt lat="45.55521" lon="-1.08554">
        <ele>59</ele>
        <time>2025-04-26T12:34:39Z</time>
      </trkpt>
      <trkpt lat="45.55525" lon="-1.08548">
        <ele>59</ele>
        <time>2025-04-26T12:34:40Z</time>
      </trkpt>
      <trkpt lat="45.55528" lon="-1.08543">
        <ele>59</ele>
        <time>2025-04-26T12:34:41Z</time>
      </trkpt>
      <trkpt lat="45.55532" lon="-1.08539">
        <ele>60</ele>
        <time>2025-04-26T12:34:42Z</time>
      </trkpt>
      <trkpt lat="45.55535" lon="-1.08535">
        <ele>60</ele>
        <time>2025-04-26T12:34:43Z</time>
      </trkpt>
      <trkpt lat="45.55539" lon="-1.0853">
        <ele>60</ele>
        <time>2025-04-26T12:34:44Z</time>
      </trkpt>
      <trkpt lat="45.55543" lon="-1.08526">
        <ele>60</ele>
        <time>2025-04-26T12:34:45Z</time>
      </trkpt>
      <trkpt lat="45.55547" lon="-1.08523">
        <ele>60</ele>
        <time>2025-04-26T12:34:46Z</time>
      </trkpt>
      <trkpt lat="45.55551" lon="-1.08519">
        <ele>59</ele>
        <time>2025-04-26T12:34:47Z</time>
      </trkpt>
      <trkpt lat="45.55554" lon="-1.08515">
        <ele>60</ele>
        <time>2025-04-26T12:34:48Z</time>
      </trkpt>
      <trkpt lat="45.55558" lon="-1.08511">
        <ele>60</ele>
        <time>2025-04-26T12:34:49Z</time>
      </trkpt>
      <trkpt lat="45.55561" lon="-1.08507">
        <ele>59</ele>
        <time>2025-04-26T12:34:50Z</time>
      </trkpt>
      <trkpt lat="45.55565" lon="-1.08504">
        <ele>59</ele>
        <time>2025-04-26T12:34:51Z</time>
      </trkpt>
      <trkpt lat="45.55569" lon="-1.085">
        <ele>58</ele>
        <time>2025-04-26T12:34:52Z</time>
      </trkpt>
      <trkpt lat="45.55573" lon="-1.08496">
        <ele>58</ele>
        <time>2025-04-26T12:34:53Z</time>
      </trkpt>
      <trkpt lat="45.55577" lon="-1.08493">
        <ele>58</ele>
        <time>2025-04-26T12:34:54Z</time>
      </trkpt>
      <trkpt lat="45.55581" lon="-1.0849">
        <ele>58</ele>
        <time>2025-04-26T12:34:55Z</time>
      </trkpt>
      <trkpt lat="45.55585" lon="-1.08486">
        <ele>58</ele>
        <time>2025-04-26T12:34:56Z</time>
      </trkpt>
      <trkpt lat="45.55588" lon="-1.08483">
        <ele>57</ele>
        <time>2025-04-26T12:34:57Z</time>
      </trkpt>
      <trkpt lat="45.55592" lon="-1.08479">
        <ele>57</ele>
        <time>2025-04-26T12:34:58Z</time>
      </trkpt>
      <trkpt lat="45.55596" lon="-1.08475">
        <ele>57</ele>
        <time>2025-04-26T12:34:59Z</time>
      </trkpt>
      <trkpt lat="45.556" lon="-1.08471">
        <ele>57</ele>
        <time>2025-04-26T12:35:00Z</time>
      </trkpt>
      <trkpt lat="45.55603" lon="-1.08467">
        <ele>57</ele>
        <time>2025-04-26T12:35:01Z</time>
      </trkpt>
      <trkpt lat="45.55608" lon="-1.08463">
        <ele>58</ele>
        <time>2025-04-26T12:35:02Z</time>
      </trkpt>
      <trkpt lat="45.55612" lon="-1.08459">
        <ele>58</ele>
        <time>2025-04-26T12:35:03Z</time>
      </trkpt>
      <trkpt lat="45.55615" lon="-1.08456">
        <ele>58</ele>
        <time>2025-04-26T12:35:04Z</time>
      </trkpt>
      <trkpt lat="45.55618" lon="-1.08452">
        <ele>58</ele>
        <time>2025-04-26T12:35:05Z</time>
      </trkpt>
      <trkpt lat="45.5562" lon="-1.08449">
        <ele>57</ele>
        <time>2025-04-26T12:35:06Z</time>
      </trkpt>
      <trkpt lat="45.55624" lon="-1.08446">
        <ele>57</ele>
        <time>2025-04-26T12:35:07Z</time>
      </trkpt>
      <trkpt lat="45.55628" lon="-1.08443">
        <ele>58</ele>
        <time>2025-04-26T12:35:08Z</time>
      </trkpt>
      <trkpt lat="45.55633" lon="-1.0844">
        <ele>58</ele>
        <time>2025-04-26T12:35:09Z</time>
      </trkpt>
      <trkpt lat="45.55637" lon="-1.08437">
        <ele>59</ele>
        <time>2025-04-26T12:35:10Z</time>
      </trkpt>
      <trkpt lat="45.55641" lon="-1.08434">
        <ele>59</ele>
        <time>2025-04-26T12:35:11Z</time>
      </trkpt>
      <trkpt lat="45.55645" lon="-1.08431">
        <ele>59</ele>
        <time>2025-04-26T12:35:12Z</time>
      </trkpt>
      <trkpt lat="45.55648" lon="-1.08428">
        <ele>59</ele>
        <time>2025-04-26T12:35:13Z</time>
      </trkpt>
      <trkpt lat="45.55651" lon="-1.08425">
        <ele>59</ele>
        <time>2025-04-26T12:35:14Z</time>
      </trkpt>
      <trkpt lat="45.55655" lon="-1.08421">
        <ele>59</ele>
        <time>2025-04-26T12:35:15Z</time>
      </trkpt>
      <trkpt lat="45.55658" lon="-1.08418">
        <ele>58</ele>
        <time>2025-04-26T12:35:16Z</time>
      </trkpt>
      <trkpt lat="45.55662" lon="-1.08415">
        <ele>58</ele>
        <time>2025-04-26T12:35:17Z</time>
      </trkpt>
      <trkpt lat="45.55665" lon="-1.08412">
        <ele>58</ele>
        <time>2025-04-26T12:35:18Z</time>
      </trkpt>
      <trkpt lat="45.55669" lon="-1.0841">
        <ele>59</ele>
        <time>2025-04-26T12:35:19Z</time>
      </trkpt>
      <trkpt lat="45.55673" lon="-1.08406">
        <ele>59</ele>
        <time>2025-04-26T12:35:20Z</time>
      </trkpt>
      <trkpt lat="45.55676" lon="-1.08403">
        <ele>59</ele>
        <time>2025-04-26T12:35:21Z</time>
      </trkpt>
      <trkpt lat="45.5568" lon="-1.08401">
        <ele>59</ele>
        <time>2025-04-26T12:35:22Z</time>
      </trkpt>
      <trkpt lat="45.55683" lon="-1.08397">
        <ele>60</ele>
        <time>2025-04-26T12:35:23Z</time>
      </trkpt>
      <trkpt lat="45.55686" lon="-1.08394">
        <ele>60</ele>
        <time>2025-04-26T12:35:24Z</time>
      </trkpt>
      <trkpt lat="45.5569" lon="-1.0839">
        <ele>60</ele>
        <time>2025-04-26T12:35:25Z</time>
      </trkpt>
      <trkpt lat="45.55693" lon="-1.08387">
        <ele>61</ele>
        <time>2025-04-26T12:35:26Z</time>
      </trkpt>
      <trkpt lat="45.55696" lon="-1.08383">
        <ele>61</ele>
        <time>2025-04-26T12:35:27Z</time>
      </trkpt>
      <trkpt lat="45.55699" lon="-1.0838">
        <ele>62</ele>
        <time>2025-04-26T12:35:28Z</time>
      </trkpt>
      <trkpt lat="45.55702" lon="-1.08376">
        <ele>62</ele>
        <time>2025-04-26T12:35:29Z</time>
      </trkpt>
      <trkpt lat="45.55705" lon="-1.08373">
        <ele>62</ele>
        <time>2025-04-26T12:35:30Z</time>
      </trkpt>
      <trkpt lat="45.55708" lon="-1.0837">
        <ele>62</ele>
        <time>2025-04-26T12:35:31Z</time>
      </trkpt>
      <trkpt lat="45.55712" lon="-1.08367">
        <ele>63</ele>
        <time>2025-04-26T12:35:32Z</time>
      </trkpt>
      <trkpt lat="45.55715" lon="-1.08364">
        <ele>63</ele>
        <time>2025-04-26T12:35:33Z</time>
      </trkpt>
      <trkpt lat="45.55718" lon="-1.08362">
        <ele>63</ele>
        <time>2025-04-26T12:35:34Z</time>
      </trkpt>
      <trkpt lat="45.55721" lon="-1.0836">
        <ele>63</ele>
        <time>2025-04-26T12:35:35Z</time>
      </trkpt>
      <trkpt lat="45.55724" lon="-1.08357">
        <ele>62</ele>
        <time>2025-04-26T12:35:36Z</time>
      </trkpt>
      <trkpt lat="45.55727" lon="-1.08354">
        <ele>63</ele>
        <time>2025-04-26T12:35:37Z</time>
      </trkpt>
      <trkpt lat="45.55729" lon="-1.08351">
        <ele>63</ele>
        <time>2025-04-26T12:35:38Z</time>
      </trkpt>
      <trkpt lat="45.55732" lon="-1.08349">
        <ele>64</ele>
        <time>2025-04-26T12:35:39Z</time>
      </trkpt>
      <trkpt lat="45.55734" lon="-1.08346">
        <ele>64</ele>
        <time>2025-04-26T12:35:40Z</time>
      </trkpt>
      <trkpt lat="45.55737" lon="-1.08343">
        <ele>65</ele>
        <time>2025-04-26T12:35:41Z</time>
      </trkpt>
      <trkpt lat="45.5574" lon="-1.0834">
        <ele>65</ele>
        <time>2025-04-26T12:35:42Z</time>
      </trkpt>
      <trkpt lat="45.55743" lon="-1.08337">
        <ele>65</ele>
        <time>2025-04-26T12:35:43Z</time>
      </trkpt>
      <trkpt lat="45.55746" lon="-1.08334">
        <ele>64</ele>
        <time>2025-04-26T12:35:44Z</time>
      </trkpt>
      <trkpt lat="45.55749" lon="-1.08331">
        <ele>63</ele>
        <time>2025-04-26T12:35:45Z</time>
      </trkpt>
      <trkpt lat="45.55752" lon="-1.08328">
        <ele>63</ele>
        <time>2025-04-26T12:35:46Z</time>
      </trkpt>
      <trkpt lat="45.55755" lon="-1.08325">
        <ele>63</ele>
        <time>2025-04-26T12:35:47Z</time>
      </trkpt>
      <trkpt lat="45.55758" lon="-1.08323">
        <ele>62</ele>
        <time>2025-04-26T12:35:48Z</time>
      </trkpt>
      <trkpt lat="45.55762" lon="-1.08321">
        <ele>62</ele>
        <time>2025-04-26T12:35:49Z</time>
      </trkpt>
      <trkpt lat="45.55765" lon="-1.08318">
        <ele>62</ele>
        <time>2025-04-26T12:35:50Z</time>
      </trkpt>
      <trkpt lat="45.55769" lon="-1.08315">
        <ele>63</ele>
        <time>2025-04-26T12:35:51Z</time>
      </trkpt>
      <trkpt lat="45.55773" lon="-1.08312">
        <ele>63</ele>
        <time>2025-04-26T12:35:52Z</time>
      </trkpt>
      <trkpt lat="45.55777" lon="-1.08308">
        <ele>63</ele>
        <time>2025-04-26T12:35:53Z</time>
      </trkpt>
      <trkpt lat="45.5578" lon="-1.08305">
        <ele>64</ele>
        <time>2025-04-26T12:35:54Z</time>
      </trkpt>
      <trkpt lat="45.55784" lon="-1.08302">
        <ele>65</ele>
        <time>2025-04-26T12:35:55Z</time>
      </trkpt>
      <trkpt lat="45.55787" lon="-1.08299">
        <ele>64</ele>
        <time>2025-04-26T12:35:56Z</time>
      </trkpt>
      <trkpt lat="45.55791" lon="-1.08295">
        <ele>64</ele>
        <time>2025-04-26T12:35:57Z</time>
      </trkpt>
      <trkpt lat="45.55794" lon="-1.08292">
        <ele>64</ele>
        <time>2025-04-26T12:35:58Z</time>
      </trkpt>
      <trkpt lat="45.55798" lon="-1.08289">
        <ele>64</ele>
        <time>2025-04-26T12:35:59Z</time>
      </trkpt>
      <trkpt lat="45.55802" lon="-1.08285">
        <ele>63</ele>
        <time>2025-04-26T12:36:00Z</time>
      </trkpt>
      <trkpt lat="45.55806" lon="-1.08281">
        <ele>62</ele>
        <time>2025-04-26T12:36:01Z</time>
      </trkpt>
      <trkpt lat="45.55809" lon="-1.08278">
        <ele>62</ele>
        <time>2025-04-26T12:36:02Z</time>
      </trkpt>
      <trkpt lat="45.55812" lon="-1.08275">
        <ele>62</ele>
        <time>2025-04-26T12:36:03Z</time>
      </trkpt>
      <trkpt lat="45.55816" lon="-1.08273">
        <ele>62</ele>
        <time>2025-04-26T12:36:04Z</time>
      </trkpt>
      <trkpt lat="45.5582" lon="-1.08271">
        <ele>61</ele>
        <time>2025-04-26T12:36:05Z</time>
      </trkpt>
      <trkpt lat="45.55824" lon="-1.08268">
        <ele>61</ele>
        <time>2025-04-26T12:36:06Z</time>
      </trkpt>
      <trkpt lat="45.55827" lon="-1.08265">
        <ele>61</ele>
        <time>2025-04-26T12:36:07Z</time>
      </trkpt>
      <trkpt lat="45.5583" lon="-1.08261">
        <ele>61</ele>
        <time>2025-04-26T12:36:08Z</time>
      </trkpt>
      <trkpt lat="45.55834" lon="-1.08257">
        <ele>60</ele>
        <time>2025-04-26T12:36:09Z</time>
      </trkpt>
      <trkpt lat="45.55838" lon="-1.08253">
        <ele>60</ele>
        <time>2025-04-26T12:36:10Z</time>
      </trkpt>
      <trkpt lat="45.55843" lon="-1.08249">
        <ele>59</ele>
        <time>2025-04-26T12:36:11Z</time>
      </trkpt>
      <trkpt lat="45.55847" lon="-1.08246">
        <ele>59</ele>
        <time>2025-04-26T12:36:12Z</time>
      </trkpt>
      <trkpt lat="45.5585" lon="-1.08243">
        <ele>58</ele>
        <time>2025-04-26T12:36:13Z</time>
      </trkpt>
      <trkpt lat="45.55854" lon="-1.0824">
        <ele>58</ele>
        <time>2025-04-26T12:36:14Z</time>
      </trkpt>
      <trkpt lat="45.55857" lon="-1.08237">
        <ele>57</ele>
        <time>2025-04-26T12:36:15Z</time>
      </trkpt>
      <trkpt lat="45.55861" lon="-1.08234">
        <ele>56</ele>
        <time>2025-04-26T12:36:16Z</time>
      </trkpt>
      <trkpt lat="45.55865" lon="-1.08231">
        <ele>56</ele>
        <time>2025-04-26T12:36:17Z</time>
      </trkpt>
      <trkpt lat="45.55869" lon="-1.08228">
        <ele>56</ele>
        <time>2025-04-26T12:36:18Z</time>
      </trkpt>
      <trkpt lat="45.55872" lon="-1.08225">
        <ele>56</ele>
        <time>2025-04-26T12:36:19Z</time>
      </trkpt>
      <trkpt lat="45.55875" lon="-1.08222">
        <ele>56</ele>
        <time>2025-04-26T12:36:20Z</time>
      </trkpt>
      <trkpt lat="45.55878" lon="-1.08219">
        <ele>55</ele>
        <time>2025-04-26T12:36:21Z</time>
      </trkpt>
      <trkpt lat="45.55882" lon="-1.08216">
        <ele>56</ele>
        <time>2025-04-26T12:36:22Z</time>
      </trkpt>
      <trkpt lat="45.55885" lon="-1.08213">
        <ele>55</ele>
        <time>2025-04-26T12:36:23Z</time>
      </trkpt>
      <trkpt lat="45.55888" lon="-1.0821">
        <ele>55</ele>
        <time>2025-04-26T12:36:24Z</time>
      </trkpt>
      <trkpt lat="45.55892" lon="-1.08208">
        <ele>55</ele>
        <time>2025-04-26T12:36:25Z</time>
      </trkpt>
      <trkpt lat="45.55895" lon="-1.08205">
        <ele>56</ele>
        <time>2025-04-26T12:36:26Z</time>
      </trkpt>
      <trkpt lat="45.55899" lon="-1.08202">
        <ele>56</ele>
        <time>2025-04-26T12:36:27Z</time>
      </trkpt>
      <trkpt lat="45.55902" lon="-1.08199">
        <ele>56</ele>
        <time>2025-04-26T12:36:28Z</time>
      </trkpt>
      <trkpt lat="45.55905" lon="-1.08196">
        <ele>56</ele>
        <time>2025-04-26T12:36:29Z</time>
      </trkpt>
      <trkpt lat="45.55908" lon="-1.08193">
        <ele>57</ele>
        <time>2025-04-26T12:36:30Z</time>
      </trkpt>
      <trkpt lat="45.55911" lon="-1.08191">
        <ele>56</ele>
        <time>2025-04-26T12:36:31Z</time>
      </trkpt>
      <trkpt lat="45.55914" lon="-1.08187">
        <ele>57</ele>
        <time>2025-04-26T12:36:32Z</time>
      </trkpt>
      <trkpt lat="45.55917" lon="-1.08185">
        <ele>57</ele>
        <time>2025-04-26T12:36:33Z</time>
      </trkpt>
      <trkpt lat="45.5592" lon="-1.08182">
        <ele>57</ele>
        <time>2025-04-26T12:36:34Z</time>
      </trkpt>
      <trkpt lat="45.55923" lon="-1.0818">
        <ele>58</ele>
        <time>2025-04-26T12:36:35Z</time>
      </trkpt>
      <trkpt lat="45.55926" lon="-1.08177">
        <ele>58</ele>
        <time>2025-04-26T12:36:36Z</time>
      </trkpt>
      <trkpt lat="45.55929" lon="-1.08174">
        <ele>59</ele>
        <time>2025-04-26T12:36:37Z</time>
      </trkpt>
      <trkpt lat="45.55933" lon="-1.08171">
        <ele>59</ele>
        <time>2025-04-26T12:36:38Z</time>
      </trkpt>
      <trkpt lat="45.55936" lon="-1.08169">
        <ele>60</ele>
        <time>2025-04-26T12:36:39Z</time>
      </trkpt>
      <trkpt lat="45.55938" lon="-1.08167">
        <ele>59</ele>
        <time>2025-04-26T12:36:40Z</time>
      </trkpt>
      <trkpt lat="45.55941" lon="-1.08164">
        <ele>59</ele>
        <time>2025-04-26T12:36:41Z</time>
      </trkpt>
      <trkpt lat="45.55943" lon="-1.08161">
        <ele>59</ele>
        <time>2025-04-26T12:36:42Z</time>
      </trkpt>
      <trkpt lat="45.55946" lon="-1.08158">
        <ele>60</ele>
        <time>2025-04-26T12:36:43Z</time>
      </trkpt>
      <trkpt lat="45.55948" lon="-1.08156">
        <ele>59</ele>
        <time>2025-04-26T12:36:44Z</time>
      </trkpt>
      <trkpt lat="45.55951" lon="-1.08153">
        <ele>59</ele>
        <time>2025-04-26T12:36:45Z</time>
      </trkpt>
      <trkpt lat="45.55954" lon="-1.0815">
        <ele>59</ele>
        <time>2025-04-26T12:36:46Z</time>
      </trkpt>
      <trkpt lat="45.55957" lon="-1.08148">
        <ele>59</ele>
        <time>2025-04-26T12:36:47Z</time>
      </trkpt>
      <trkpt lat="45.5596" lon="-1.08145">
        <ele>59</ele>
        <time>2025-04-26T12:36:48Z</time>
      </trkpt>
      <trkpt lat="45.55963" lon="-1.08143">
        <ele>60</ele>
        <time>2025-04-26T12:36:49Z</time>
      </trkpt>
      <trkpt lat="45.55966" lon="-1.0814">
        <ele>61</ele>
        <time>2025-04-26T12:36:50Z</time>
      </trkpt>
      <trkpt lat="45.55969" lon="-1.08137">
        <ele>61</ele>
        <time>2025-04-26T12:36:51Z</time>
      </trkpt>
      <trkpt lat="45.55972" lon="-1.08134">
        <ele>61</ele>
        <time>2025-04-26T12:36:52Z</time>
      </trkpt>
      <trkpt lat="45.55974" lon="-1.08132">
        <ele>61</ele>
        <time>2025-04-26T12:36:53Z</time>
      </trkpt>
      <trkpt lat="45.55977" lon="-1.0813">
        <ele>61</ele>
        <time>2025-04-26T12:36:54Z</time>
      </trkpt>
      <trkpt lat="45.5598" lon="-1.08128">
        <ele>60</ele>
        <time>2025-04-26T12:36:55Z</time>
      </trkpt>
      <trkpt lat="45.55983" lon="-1.08125">
        <ele>60</ele>
        <time>2025-04-26T12:36:56Z</time>
      </trkpt>
      <trkpt lat="45.55987" lon="-1.08121">
        <ele>61</ele>
        <time>2025-04-26T12:36:57Z</time>
      </trkpt>
      <trkpt lat="45.5599" lon="-1.08118">
        <ele>61</ele>
        <time>2025-04-26T12:36:58Z</time>
      </trkpt>
      <trkpt lat="45.55993" lon="-1.08115">
        <ele>60</ele>
        <time>2025-04-26T12:36:59Z</time>
      </trkpt>
      <trkpt lat="45.55997" lon="-1.08113">
        <ele>59</ele>
        <time>2025-04-26T12:37:00Z</time>
      </trkpt>
      <trkpt lat="45.56" lon="-1.0811">
        <ele>59</ele>
        <time>2025-04-26T12:37:01Z</time>
      </trkpt>
      <trkpt lat="45.56004" lon="-1.08106">
        <ele>59</ele>
        <time>2025-04-26T12:37:02Z</time>
      </trkpt>
      <trkpt lat="45.56007" lon="-1.08102">
        <ele>59</ele>
        <time>2025-04-26T12:37:03Z</time>
      </trkpt>
      <trkpt lat="45.5601" lon="-1.08099">
        <ele>59</ele>
        <time>2025-04-26T12:37:04Z</time>
      </trkpt>
      <trkpt lat="45.56013" lon="-1.08095">
        <ele>58</ele>
        <time>2025-04-26T12:37:05Z</time>
      </trkpt>
      <trkpt lat="45.56017" lon="-1.08092">
        <ele>58</ele>
        <time>2025-04-26T12:37:06Z</time>
      </trkpt>
      <trkpt lat="45.56022" lon="-1.08088">
        <ele>59</ele>
        <time>2025-04-26T12:37:07Z</time>
      </trkpt>
      <trkpt lat="45.56026" lon="-1.08084">
        <ele>59</ele>
        <time>2025-04-26T12:37:08Z</time>
      </trkpt>
      <trkpt lat="45.56031" lon="-1.0808">
        <ele>59</ele>
        <time>2025-04-26T12:37:09Z</time>
      </trkpt>
      <trkpt lat="45.56035" lon="-1.08076">
        <ele>59</ele>
        <time>2025-04-26T12:37:10Z</time>
      </trkpt>
      <trkpt lat="45.56039" lon="-1.08072">
        <ele>59</ele>
        <time>2025-04-26T12:37:11Z</time>
      </trkpt>
      <trkpt lat="45.56044" lon="-1.08068">
        <ele>59</ele>
        <time>2025-04-26T12:37:12Z</time>
      </trkpt>
      <trkpt lat="45.56048" lon="-1.08065">
        <ele>59</ele>
        <time>2025-04-26T12:37:13Z</time>
      </trkpt>
      <trkpt lat="45.56052" lon="-1.08062">
        <ele>59</ele>
        <time>2025-04-26T12:37:14Z</time>
      </trkpt>
      <trkpt lat="45.56056" lon="-1.08058">
        <ele>60</ele>
        <time>2025-04-26T12:37:15Z</time>
      </trkpt>
      <trkpt lat="45.5606" lon="-1.08055">
        <ele>59</ele>
        <time>2025-04-26T12:37:16Z</time>
      </trkpt>
      <trkpt lat="45.56064" lon="-1.08052">
        <ele>59</ele>
        <time>2025-04-26T12:37:17Z</time>
      </trkpt>
      <trkpt lat="45.56068" lon="-1.08049">
        <ele>60</ele>
        <time>2025-04-26T12:37:18Z</time>
      </trkpt>
      <trkpt lat="45.56071" lon="-1.08046">
        <ele>60</ele>
        <time>2025-04-26T12:37:19Z</time>
      </trkpt>
      <trkpt lat="45.56074" lon="-1.08043">
        <ele>60</ele>
        <time>2025-04-26T12:37:20Z</time>
      </trkpt>
      <trkpt lat="45.56077" lon="-1.0804">
        <ele>60</ele>
        <time>2025-04-26T12:37:21Z</time>
      </trkpt>
      <trkpt lat="45.5608" lon="-1.08038">
        <ele>61</ele>
        <time>2025-04-26T12:37:22Z</time>
      </trkpt>
      <trkpt lat="45.56084" lon="-1.08035">
        <ele>62</ele>
        <time>2025-04-26T12:37:23Z</time>
      </trkpt>
      <trkpt lat="45.56088" lon="-1.08032">
        <ele>61</ele>
        <time>2025-04-26T12:37:24Z</time>
      </trkpt>
      <trkpt lat="45.56092" lon="-1.0803">
        <ele>61</ele>
        <time>2025-04-26T12:37:25Z</time>
      </trkpt>
      <trkpt lat="45.56095" lon="-1.08027">
        <ele>61</ele>
        <time>2025-04-26T12:37:26Z</time>
      </trkpt>
      <trkpt lat="45.56098" lon="-1.08024">
        <ele>61</ele>
        <time>2025-04-26T12:37:27Z</time>
      </trkpt>
      <trkpt lat="45.56101" lon="-1.08022">
        <ele>61</ele>
        <time>2025-04-26T12:37:28Z</time>
      </trkpt>
      <trkpt lat="45.56104" lon="-1.08019">
        <ele>61</ele>
        <time>2025-04-26T12:37:29Z</time>
      </trkpt>
      <trkpt lat="45.56107" lon="-1.08016">
        <ele>60</ele>
        <time>2025-04-26T12:37:30Z</time>
      </trkpt>
      <trkpt lat="45.5611" lon="-1.08014">
        <ele>61</ele>
        <time>2025-04-26T12:37:31Z</time>
      </trkpt>
      <trkpt lat="45.56114" lon="-1.08011">
        <ele>60</ele>
        <time>2025-04-26T12:37:32Z</time>
      </trkpt>
      <trkpt lat="45.56117" lon="-1.08009">
        <ele>59</ele>
        <time>2025-04-26T12:37:33Z</time>
      </trkpt>
      <trkpt lat="45.56121" lon="-1.08006">
        <ele>58</ele>
        <time>2025-04-26T12:37:34Z</time>
      </trkpt>
      <trkpt lat="45.56125" lon="-1.08003">
        <ele>58</ele>
        <time>2025-04-26T12:37:35Z</time>
      </trkpt>
      <trkpt lat="45.56128" lon="-1.08">
        <ele>58</ele>
        <time>2025-04-26T12:37:36Z</time>
      </trkpt>
      <trkpt lat="45.56131" lon="-1.07997">
        <ele>58</ele>
        <time>2025-04-26T12:37:37Z</time>
      </trkpt>
      <trkpt lat="45.56134" lon="-1.07994">
        <ele>57</ele>
        <time>2025-04-26T12:37:38Z</time>
      </trkpt>
      <trkpt lat="45.56137" lon="-1.0799">
        <ele>57</ele>
        <time>2025-04-26T12:37:39Z</time>
      </trkpt>
      <trkpt lat="45.5614" lon="-1.07987">
        <ele>57</ele>
        <time>2025-04-26T12:37:40Z</time>
      </trkpt>
      <trkpt lat="45.56143" lon="-1.07984">
        <ele>58</ele>
        <time>2025-04-26T12:37:41Z</time>
      </trkpt>
      <trkpt lat="45.56146" lon="-1.07981">
        <ele>58</ele>
        <time>2025-04-26T12:37:42Z</time>
      </trkpt>
      <trkpt lat="45.56149" lon="-1.07979">
        <ele>58</ele>
        <time>2025-04-26T12:37:43Z</time>
      </trkpt>
      <trkpt lat="45.56152" lon="-1.07975">
        <ele>58</ele>
        <time>2025-04-26T12:37:44Z</time>
      </trkpt>
      <trkpt lat="45.56156" lon="-1.07973">
        <ele>58</ele>
        <time>2025-04-26T12:37:45Z</time>
      </trkpt>
      <trkpt lat="45.5616" lon="-1.0797">
        <ele>59</ele>
        <time>2025-04-26T12:37:46Z</time>
      </trkpt>
      <trkpt lat="45.56163" lon="-1.07967">
        <ele>59</ele>
        <time>2025-04-26T12:37:47Z</time>
      </trkpt>
      <trkpt lat="45.56167" lon="-1.07964">
        <ele>60</ele>
        <time>2025-04-26T12:37:48Z</time>
      </trkpt>
      <trkpt lat="45.56171" lon="-1.07961">
        <ele>59</ele>
        <time>2025-04-26T12:37:49Z</time>
      </trkpt>
      <trkpt lat="45.56174" lon="-1.07958">
        <ele>59</ele>
        <time>2025-04-26T12:37:50Z</time>
      </trkpt>
      <trkpt lat="45.56177" lon="-1.07955">
        <ele>59</ele>
        <time>2025-04-26T12:37:51Z</time>
      </trkpt>
      <trkpt lat="45.56181" lon="-1.07951">
        <ele>59</ele>
        <time>2025-04-26T12:37:52Z</time>
      </trkpt>
      <trkpt lat="45.56184" lon="-1.07948">
        <ele>59</ele>
        <time>2025-04-26T12:37:53Z</time>
      </trkpt>
      <trkpt lat="45.56187" lon="-1.07945">
        <ele>58</ele>
        <time>2025-04-26T12:37:54Z</time>
      </trkpt>
      <trkpt lat="45.5619" lon="-1.07942">
        <ele>58</ele>
        <time>2025-04-26T12:37:55Z</time>
      </trkpt>
      <trkpt lat="45.56193" lon="-1.07939">
        <ele>57</ele>
        <time>2025-04-26T12:37:56Z</time>
      </trkpt>
      <trkpt lat="45.56196" lon="-1.07936">
        <ele>57</ele>
        <time>2025-04-26T12:37:57Z</time>
      </trkpt>
      <trkpt lat="45.56199" lon="-1.07933">
        <ele>56</ele>
        <time>2025-04-26T12:37:58Z</time>
      </trkpt>
      <trkpt lat="45.56203" lon="-1.0793">
        <ele>56</ele>
        <time>2025-04-26T12:37:59Z</time>
      </trkpt>
      <trkpt lat="45.56206" lon="-1.07927">
        <ele>56</ele>
        <time>2025-04-26T12:38:00Z</time>
      </trkpt>
      <trkpt lat="45.5621" lon="-1.07923">
        <ele>55</ele>
        <time>2025-04-26T12:38:01Z</time>
      </trkpt>
      <trkpt lat="45.56214" lon="-1.07919">
        <ele>56</ele>
        <time>2025-04-26T12:38:02Z</time>
      </trkpt>
      <trkpt lat="45.56218" lon="-1.07915">
        <ele>55</ele>
        <time>2025-04-26T12:38:03Z</time>
      </trkpt>
      <trkpt lat="45.56222" lon="-1.07912">
        <ele>55</ele>
        <time>2025-04-26T12:38:04Z</time>
      </trkpt>
      <trkpt lat="45.56226" lon="-1.07908">
        <ele>55</ele>
        <time>2025-04-26T12:38:05Z</time>
      </trkpt>
      <trkpt lat="45.5623" lon="-1.07904">
        <ele>55</ele>
        <time>2025-04-26T12:38:06Z</time>
      </trkpt>
      <trkpt lat="45.56235" lon="-1.079">
        <ele>55</ele>
        <time>2025-04-26T12:38:07Z</time>
      </trkpt>
      <trkpt lat="45.56238" lon="-1.07897">
        <ele>55</ele>
        <time>2025-04-26T12:38:08Z</time>
      </trkpt>
      <trkpt lat="45.56243" lon="-1.07894">
        <ele>56</ele>
        <time>2025-04-26T12:38:09Z</time>
      </trkpt>
      <trkpt lat="45.56247" lon="-1.0789">
        <ele>56</ele>
        <time>2025-04-26T12:38:10Z</time>
      </trkpt>
      <trkpt lat="45.56251" lon="-1.07887">
        <ele>57</ele>
        <time>2025-04-26T12:38:11Z</time>
      </trkpt>
      <trkpt lat="45.56255" lon="-1.07884">
        <ele>57</ele>
        <time>2025-04-26T12:38:12Z</time>
      </trkpt>
      <trkpt lat="45.5626" lon="-1.07881">
        <ele>58</ele>
        <time>2025-04-26T12:38:13Z</time>
      </trkpt>
      <trkpt lat="45.56264" lon="-1.07877">
        <ele>57</ele>
        <time>2025-04-26T12:38:14Z</time>
      </trkpt>
      <trkpt lat="45.56268" lon="-1.07872">
        <ele>58</ele>
        <time>2025-04-26T12:38:15Z</time>
      </trkpt>
      <trkpt lat="45.56272" lon="-1.07869">
        <ele>57</ele>
        <time>2025-04-26T12:38:16Z</time>
      </trkpt>
      <trkpt lat="45.56276" lon="-1.07865">
        <ele>57</ele>
        <time>2025-04-26T12:38:17Z</time>
      </trkpt>
      <trkpt lat="45.5628" lon="-1.07861">
        <ele>57</ele>
        <time>2025-04-26T12:38:18Z</time>
      </trkpt>
      <trkpt lat="45.56283" lon="-1.07857">
        <ele>56</ele>
        <time>2025-04-26T12:38:19Z</time>
      </trkpt>
      <trkpt lat="45.56287" lon="-1.07853">
        <ele>56</ele>
        <time>2025-04-26T12:38:20Z</time>
      </trkpt>
      <trkpt lat="45.56291" lon="-1.07849">
        <ele>56</ele>
        <time>2025-04-26T12:38:21Z</time>
      </trkpt>
      <trkpt lat="45.56294" lon="-1.07847">
        <ele>55</ele>
        <time>2025-04-26T12:38:22Z</time>
      </trkpt>
      <trkpt lat="45.56298" lon="-1.07843">
        <ele>55</ele>
        <time>2025-04-26T12:38:23Z</time>
      </trkpt>
      <trkpt lat="45.56302" lon="-1.0784">
        <ele>55</ele>
        <time>2025-04-26T12:38:24Z</time>
      </trkpt>
      <trkpt lat="45.56306" lon="-1.07835">
        <ele>56</ele>
        <time>2025-04-26T12:38:25Z</time>
      </trkpt>
      <trkpt lat="45.56309" lon="-1.07832">
        <ele>56</ele>
        <time>2025-04-26T12:38:26Z</time>
      </trkpt>
      <trkpt lat="45.56312" lon="-1.07828">
        <ele>57</ele>
        <time>2025-04-26T12:38:27Z</time>
      </trkpt>
      <trkpt lat="45.56315" lon="-1.07825">
        <ele>57</ele>
        <time>2025-04-26T12:38:28Z</time>
      </trkpt>
      <trkpt lat="45.56318" lon="-1.07821">
        <ele>57</ele>
        <time>2025-04-26T12:38:29Z</time>
      </trkpt>
      <trkpt lat="45.56321" lon="-1.07818">
        <ele>57</ele>
        <time>2025-04-26T12:38:30Z</time>
      </trkpt>
      <trkpt lat="45.56324" lon="-1.07814">
        <ele>57</ele>
        <time>2025-04-26T12:38:31Z</time>
      </trkpt>
      <trkpt lat="45.56327" lon="-1.0781">
        <ele>58</ele>
        <time>2025-04-26T12:38:32Z</time>
      </trkpt>
      <trkpt lat="45.5633" lon="-1.07806">
        <ele>58</ele>
        <time>2025-04-26T12:38:33Z</time>
      </trkpt>
      <trkpt lat="45.56333" lon="-1.07802">
        <ele>58</ele>
        <time>2025-04-26T12:38:34Z</time>
      </trkpt>
      <trkpt lat="45.56336" lon="-1.07797">
        <ele>58</ele>
        <time>2025-04-26T12:38:35Z</time>
      </trkpt>
      <trkpt lat="45.56339" lon="-1.07793">
        <ele>58</ele>
        <time>2025-04-26T12:38:36Z</time>
      </trkpt>
      <trkpt lat="45.56342" lon="-1.07788">
        <ele>58</ele>
        <time>2025-04-26T12:38:37Z</time>
      </trkpt>
      <trkpt lat="45.56344" lon="-1.07784">
        <ele>58</ele>
        <time>2025-04-26T12:38:38Z</time>
      </trkpt>
      <trkpt lat="45.56346" lon="-1.0778">
        <ele>58</ele>
        <time>2025-04-26T12:38:39Z</time>
      </trkpt>
      <trkpt lat="45.56349" lon="-1.07775">
        <ele>58</ele>
        <time>2025-04-26T12:38:40Z</time>
      </trkpt>
      <trkpt lat="45.56352" lon="-1.07769">
        <ele>58</ele>
        <time>2025-04-26T12:38:41Z</time>
      </trkpt>
      <trkpt lat="45.56355" lon="-1.07764">
        <ele>59</ele>
        <time>2025-04-26T12:38:42Z</time>
      </trkpt>
      <trkpt lat="45.56359" lon="-1.07758">
        <ele>59</ele>
        <time>2025-04-26T12:38:43Z</time>
      </trkpt>
      <trkpt lat="45.56361" lon="-1.07754">
        <ele>59</ele>
        <time>2025-04-26T12:38:44Z</time>
      </trkpt>
      <trkpt lat="45.56364" lon="-1.07749">
        <ele>59</ele>
        <time>2025-04-26T12:38:45Z</time>
      </trkpt>
      <trkpt lat="45.56367" lon="-1.07745">
        <ele>59</ele>
        <time>2025-04-26T12:38:46Z</time>
      </trkpt>
      <trkpt lat="45.56369" lon="-1.0774">
        <ele>59</ele>
        <time>2025-04-26T12:38:47Z</time>
      </trkpt>
      <trkpt lat="45.56372" lon="-1.07735">
        <ele>59</ele>
        <time>2025-04-26T12:38:48Z</time>
      </trkpt>
      <trkpt lat="45.56375" lon="-1.07731">
        <ele>59</ele>
        <time>2025-04-26T12:38:49Z</time>
      </trkpt>
      <trkpt lat="45.56377" lon="-1.07726">
        <ele>59</ele>
        <time>2025-04-26T12:38:50Z</time>
      </trkpt>
      <trkpt lat="45.5638" lon="-1.07721">
        <ele>60</ele>
        <time>2025-04-26T12:38:51Z</time>
      </trkpt>
      <trkpt lat="45.56383" lon="-1.07718">
        <ele>60</ele>
        <time>2025-04-26T12:38:52Z</time>
      </trkpt>
      <trkpt lat="45.56386" lon="-1.07714">
        <ele>60</ele>
        <time>2025-04-26T12:38:53Z</time>
      </trkpt>
      <trkpt lat="45.56388" lon="-1.0771">
        <ele>61</ele>
        <time>2025-04-26T12:38:54Z</time>
      </trkpt>
      <trkpt lat="45.56391" lon="-1.07706">
        <ele>61</ele>
        <time>2025-04-26T12:38:55Z</time>
      </trkpt>
      <trkpt lat="45.56393" lon="-1.07701">
        <ele>61</ele>
        <time>2025-04-26T12:38:56Z</time>
      </trkpt>
      <trkpt lat="45.56395" lon="-1.07697">
        <ele>61</ele>
        <time>2025-04-26T12:38:57Z</time>
      </trkpt>
      <trkpt lat="45.56398" lon="-1.07692">
        <ele>60</ele>
        <time>2025-04-26T12:38:58Z</time>
      </trkpt>
      <trkpt lat="45.564" lon="-1.07688">
        <ele>60</ele>
        <time>2025-04-26T12:38:59Z</time>
      </trkpt>
      <trkpt lat="45.56403" lon="-1.07683">
        <ele>59</ele>
        <time>2025-04-26T12:39:00Z</time>
      </trkpt>
      <trkpt lat="45.56406" lon="-1.07678">
        <ele>58</ele>
        <time>2025-04-26T12:39:01Z</time>
      </trkpt>
      <trkpt lat="45.56408" lon="-1.07673">
        <ele>58</ele>
        <time>2025-04-26T12:39:02Z</time>
      </trkpt>
      <trkpt lat="45.5641" lon="-1.07668">
        <ele>57</ele>
        <time>2025-04-26T12:39:03Z</time>
      </trkpt>
      <trkpt lat="45.56413" lon="-1.07663">
        <ele>57</ele>
        <time>2025-04-26T12:39:04Z</time>
      </trkpt>
      <trkpt lat="45.56415" lon="-1.07659">
        <ele>57</ele>
        <time>2025-04-26T12:39:05Z</time>
      </trkpt>
      <trkpt lat="45.56418" lon="-1.07654">
        <ele>58</ele>
        <time>2025-04-26T12:39:06Z</time>
      </trkpt>
      <trkpt lat="45.56421" lon="-1.07649">
        <ele>58</ele>
        <time>2025-04-26T12:39:07Z</time>
      </trkpt>
      <trkpt lat="45.56423" lon="-1.07645">
        <ele>58</ele>
        <time>2025-04-26T12:39:08Z</time>
      </trkpt>
      <trkpt lat="45.56426" lon="-1.0764">
        <ele>58</ele>
        <time>2025-04-26T12:39:09Z</time>
      </trkpt>
      <trkpt lat="45.56429" lon="-1.07636">
        <ele>58</ele>
        <time>2025-04-26T12:39:10Z</time>
      </trkpt>
      <trkpt lat="45.56431" lon="-1.07632">
        <ele>59</ele>
        <time>2025-04-26T12:39:11Z</time>
      </trkpt>
      <trkpt lat="45.56434" lon="-1.07627">
        <ele>59</ele>
        <time>2025-04-26T12:39:12Z</time>
      </trkpt>
      <trkpt lat="45.56436" lon="-1.07624">
        <ele>59</ele>
        <time>2025-04-26T12:39:13Z</time>
      </trkpt>
      <trkpt lat="45.56439" lon="-1.0762">
        <ele>59</ele>
        <time>2025-04-26T12:39:14Z</time>
      </trkpt>
      <trkpt lat="45.56441" lon="-1.07615">
        <ele>59</ele>
        <time>2025-04-26T12:39:15Z</time>
      </trkpt>
      <trkpt lat="45.56443" lon="-1.07611">
        <ele>59</ele>
        <time>2025-04-26T12:39:16Z</time>
      </trkpt>
      <trkpt lat="45.56446" lon="-1.07606">
        <ele>59</ele>
        <time>2025-04-26T12:39:17Z</time>
      </trkpt>
      <trkpt lat="45.5645" lon="-1.07602">
        <ele>59</ele>
        <time>2025-04-26T12:39:18Z</time>
      </trkpt>
      <trkpt lat="45.56453" lon="-1.07598">
        <ele>58</ele>
        <time>2025-04-26T12:39:19Z</time>
      </trkpt>
      <trkpt lat="45.56456" lon="-1.07593">
        <ele>58</ele>
        <time>2025-04-26T12:39:20Z</time>
      </trkpt>
      <trkpt lat="45.56459" lon="-1.07589">
        <ele>59</ele>
        <time>2025-04-26T12:39:21Z</time>
      </trkpt>
      <trkpt lat="45.56462" lon="-1.07583">
        <ele>58</ele>
        <time>2025-04-26T12:39:22Z</time>
      </trkpt>
      <trkpt lat="45.56465" lon="-1.07578">
        <ele>58</ele>
        <time>2025-04-26T12:39:23Z</time>
      </trkpt>
      <trkpt lat="45.56467" lon="-1.07573">
        <ele>57</ele>
        <time>2025-04-26T12:39:24Z</time>
      </trkpt>
      <trkpt lat="45.5647" lon="-1.07569">
        <ele>57</ele>
        <time>2025-04-26T12:39:25Z</time>
      </trkpt>
      <trkpt lat="45.56472" lon="-1.07564">
        <ele>57</ele>
        <time>2025-04-26T12:39:26Z</time>
      </trkpt>
      <trkpt lat="45.56475" lon="-1.07559">
        <ele>56</ele>
        <time>2025-04-26T12:39:27Z</time>
      </trkpt>
      <trkpt lat="45.56478" lon="-1.07554">
        <ele>57</ele>
        <time>2025-04-26T12:39:28Z</time>
      </trkpt>
      <trkpt lat="45.5648" lon="-1.0755">
        <ele>57</ele>
        <time>2025-04-26T12:39:29Z</time>
      </trkpt>
      <trkpt lat="45.56483" lon="-1.07545">
        <ele>57</ele>
        <time>2025-04-26T12:39:30Z</time>
      </trkpt>
      <trkpt lat="45.56486" lon="-1.07541">
        <ele>57</ele>
        <time>2025-04-26T12:39:31Z</time>
      </trkpt>
      <trkpt lat="45.56489" lon="-1.07536">
        <ele>58</ele>
        <time>2025-04-26T12:39:32Z</time>
      </trkpt>
      <trkpt lat="45.56491" lon="-1.07531">
        <ele>58</ele>
        <time>2025-04-26T12:39:33Z</time>
      </trkpt>
      <trkpt lat="45.56494" lon="-1.07527">
        <ele>58</ele>
        <time>2025-04-26T12:39:34Z</time>
      </trkpt>
      <trkpt lat="45.56497" lon="-1.07522">
        <ele>58</ele>
        <time>2025-04-26T12:39:35Z</time>
      </trkpt>
      <trkpt lat="45.565" lon="-1.07518">
        <ele>59</ele>
        <time>2025-04-26T12:39:36Z</time>
      </trkpt>
      <trkpt lat="45.56503" lon="-1.07514">
        <ele>59</ele>
        <time>2025-04-26T12:39:37Z</time>
      </trkpt>
      <trkpt lat="45.56507" lon="-1.07509">
        <ele>59</ele>
        <time>2025-04-26T12:39:38Z</time>
      </trkpt>
      <trkpt lat="45.56509" lon="-1.07504">
        <ele>59</ele>
        <time>2025-04-26T12:39:39Z</time>
      </trkpt>
      <trkpt lat="45.56512" lon="-1.075">
        <ele>59</ele>
        <time>2025-04-26T12:39:40Z</time>
      </trkpt>
      <trkpt lat="45.56514" lon="-1.07495">
        <ele>60</ele>
        <time>2025-04-26T12:39:41Z</time>
      </trkpt>
      <trkpt lat="45.56516" lon="-1.07491">
        <ele>60</ele>
        <time>2025-04-26T12:39:42Z</time>
      </trkpt>
      <trkpt lat="45.56519" lon="-1.07486">
        <ele>60</ele>
        <time>2025-04-26T12:39:43Z</time>
      </trkpt>
      <trkpt lat="45.56521" lon="-1.07481">
        <ele>60</ele>
        <time>2025-04-26T12:39:44Z</time>
      </trkpt>
      <trkpt lat="45.56524" lon="-1.07477">
        <ele>60</ele>
        <time>2025-04-26T12:39:45Z</time>
      </trkpt>
      <trkpt lat="45.56527" lon="-1.07472">
        <ele>60</ele>
        <time>2025-04-26T12:39:46Z</time>
      </trkpt>
      <trkpt lat="45.56529" lon="-1.07468">
        <ele>60</ele>
        <time>2025-04-26T12:39:47Z</time>
      </trkpt>
      <trkpt lat="45.56532" lon="-1.07463">
        <ele>60</ele>
        <time>2025-04-26T12:39:48Z</time>
      </trkpt>
      <trkpt lat="45.56534" lon="-1.07459">
        <ele>60</ele>
        <time>2025-04-26T12:39:49Z</time>
      </trkpt>
      <trkpt lat="45.56537" lon="-1.07455">
        <ele>60</ele>
        <time>2025-04-26T12:39:50Z</time>
      </trkpt>
      <trkpt lat="45.56539" lon="-1.07451">
        <ele>60</ele>
        <time>2025-04-26T12:39:51Z</time>
      </trkpt>
      <trkpt lat="45.56541" lon="-1.07447">
        <ele>60</ele>
        <time>2025-04-26T12:39:52Z</time>
      </trkpt>
      <trkpt lat="45.56543" lon="-1.07443">
        <ele>61</ele>
        <time>2025-04-26T12:39:53Z</time>
      </trkpt>
      <trkpt lat="45.56545" lon="-1.07439">
        <ele>61</ele>
        <time>2025-04-26T12:39:54Z</time>
      </trkpt>
      <trkpt lat="45.56548" lon="-1.07437">
        <ele>60</ele>
        <time>2025-04-26T12:39:55Z</time>
      </trkpt>
      <trkpt lat="45.56551" lon="-1.07437">
        <ele>60</ele>
        <time>2025-04-26T12:39:56Z</time>
      </trkpt>
      <trkpt lat="45.56554" lon="-1.07438">
        <ele>60</ele>
        <time>2025-04-26T12:39:57Z</time>
      </trkpt>
      <trkpt lat="45.56556" lon="-1.07439">
        <ele>59</ele>
        <time>2025-04-26T12:39:58Z</time>
      </trkpt>
      <trkpt lat="45.56557" lon="-1.07437">
        <ele>59</ele>
        <time>2025-04-26T12:39:59Z</time>
      </trkpt>
      <trkpt lat="45.56558" lon="-1.07434">
        <ele>60</ele>
        <time>2025-04-26T12:40:00Z</time>
      </trkpt>
      <trkpt lat="45.5656" lon="-1.07431">
        <ele>59</ele>
        <time>2025-04-26T12:40:01Z</time>
      </trkpt>
      <trkpt lat="45.56562" lon="-1.07429">
        <ele>59</ele>
        <time>2025-04-26T12:40:02Z</time>
      </trkpt>
      <trkpt lat="45.56563" lon="-1.07425">
        <ele>59</ele>
        <time>2025-04-26T12:40:03Z</time>
      </trkpt>
      <trkpt lat="45.56565" lon="-1.07422">
        <ele>59</ele>
        <time>2025-04-26T12:40:04Z</time>
      </trkpt>
      <trkpt lat="45.56568" lon="-1.07418">
        <ele>58</ele>
        <time>2025-04-26T12:40:05Z</time>
      </trkpt>
      <trkpt lat="45.5657" lon="-1.07414">
        <ele>58</ele>
        <time>2025-04-26T12:40:06Z</time>
      </trkpt>
      <trkpt lat="45.56572" lon="-1.0741">
        <ele>58</ele>
        <time>2025-04-26T12:40:07Z</time>
      </trkpt>
      <trkpt lat="45.56575" lon="-1.07406">
        <ele>58</ele>
        <time>2025-04-26T12:40:08Z</time>
      </trkpt>
      <trkpt lat="45.56578" lon="-1.07402">
        <ele>58</ele>
        <time>2025-04-26T12:40:09Z</time>
      </trkpt>
      <trkpt lat="45.5658" lon="-1.07398">
        <ele>58</ele>
        <time>2025-04-26T12:40:10Z</time>
      </trkpt>
      <trkpt lat="45.56583" lon="-1.07393">
        <ele>58</ele>
        <time>2025-04-26T12:40:11Z</time>
      </trkpt>
      <trkpt lat="45.56587" lon="-1.07389">
        <ele>59</ele>
        <time>2025-04-26T12:40:12Z</time>
      </trkpt>
      <trkpt lat="45.5659" lon="-1.07385">
        <ele>58</ele>
        <time>2025-04-26T12:40:13Z</time>
      </trkpt>
      <trkpt lat="45.56593" lon="-1.0738">
        <ele>59</ele>
        <time>2025-04-26T12:40:14Z</time>
      </trkpt>
      <trkpt lat="45.56596" lon="-1.07375">
        <ele>59</ele>
        <time>2025-04-26T12:40:15Z</time>
      </trkpt>
      <trkpt lat="45.56599" lon="-1.07369">
        <ele>59</ele>
        <time>2025-04-26T12:40:16Z</time>
      </trkpt>
      <trkpt lat="45.56602" lon="-1.07364">
        <ele>58</ele>
        <time>2025-04-26T12:40:17Z</time>
      </trkpt>
      <trkpt lat="45.56605" lon="-1.07359">
        <ele>58</ele>
        <time>2025-04-26T12:40:18Z</time>
      </trkpt>
      <trkpt lat="45.56608" lon="-1.07353">
        <ele>57</ele>
        <time>2025-04-26T12:40:19Z</time>
      </trkpt>
      <trkpt lat="45.56611" lon="-1.07346">
        <ele>57</ele>
        <time>2025-04-26T12:40:20Z</time>
      </trkpt>
      <trkpt lat="45.56614" lon="-1.0734">
        <ele>57</ele>
        <time>2025-04-26T12:40:21Z</time>
      </trkpt>
      <trkpt lat="45.56617" lon="-1.07333">
        <ele>57</ele>
        <time>2025-04-26T12:40:22Z</time>
      </trkpt>
      <trkpt lat="45.5662" lon="-1.07327">
        <ele>57</ele>
        <time>2025-04-26T12:40:23Z</time>
      </trkpt>
      <trkpt lat="45.56624" lon="-1.07321">
        <ele>56</ele>
        <time>2025-04-26T12:40:24Z</time>
      </trkpt>
      <trkpt lat="45.56626" lon="-1.07315">
        <ele>55</ele>
        <time>2025-04-26T12:40:25Z</time>
      </trkpt>
      <trkpt lat="45.56629" lon="-1.07309">
        <ele>55</ele>
        <time>2025-04-26T12:40:26Z</time>
      </trkpt>
      <trkpt lat="45.56632" lon="-1.07303">
        <ele>54</ele>
        <time>2025-04-26T12:40:27Z</time>
      </trkpt>
      <trkpt lat="45.56634" lon="-1.07298">
        <ele>54</ele>
        <time>2025-04-26T12:40:28Z</time>
      </trkpt>
      <trkpt lat="45.56637" lon="-1.07293">
        <ele>53</ele>
        <time>2025-04-26T12:40:29Z</time>
      </trkpt>
      <trkpt lat="45.56639" lon="-1.07287">
        <ele>53</ele>
        <time>2025-04-26T12:40:30Z</time>
      </trkpt>
      <trkpt lat="45.56641" lon="-1.07281">
        <ele>53</ele>
        <time>2025-04-26T12:40:31Z</time>
      </trkpt>
      <trkpt lat="45.56643" lon="-1.07276">
        <ele>54</ele>
        <time>2025-04-26T12:40:32Z</time>
      </trkpt>
      <trkpt lat="45.56644" lon="-1.0727">
        <ele>54</ele>
        <time>2025-04-26T12:40:33Z</time>
      </trkpt>
      <trkpt lat="45.56646" lon="-1.07265">
        <ele>54</ele>
        <time>2025-04-26T12:40:34Z</time>
      </trkpt>
      <trkpt lat="45.56647" lon="-1.07259">
        <ele>55</ele>
        <time>2025-04-26T12:40:35Z</time>
      </trkpt>
      <trkpt lat="45.56648" lon="-1.07254">
        <ele>55</ele>
        <time>2025-04-26T12:40:36Z</time>
      </trkpt>
      <trkpt lat="45.56649" lon="-1.07248">
        <ele>56</ele>
        <time>2025-04-26T12:40:37Z</time>
      </trkpt>
      <trkpt lat="45.56651" lon="-1.07243">
        <ele>56</ele>
        <time>2025-04-26T12:40:38Z</time>
      </trkpt>
      <trkpt lat="45.56652" lon="-1.07238">
        <ele>56</ele>
        <time>2025-04-26T12:40:39Z</time>
      </trkpt>
      <trkpt lat="45.56654" lon="-1.07234">
        <ele>57</ele>
        <time>2025-04-26T12:40:40Z</time>
      </trkpt>
      <trkpt lat="45.56655" lon="-1.07229">
        <ele>56</ele>
        <time>2025-04-26T12:40:41Z</time>
      </trkpt>
      <trkpt lat="45.56656" lon="-1.07224">
        <ele>56</ele>
        <time>2025-04-26T12:40:42Z</time>
      </trkpt>
      <trkpt lat="45.56658" lon="-1.0722">
        <ele>56</ele>
        <time>2025-04-26T12:40:43Z</time>
      </trkpt>
      <trkpt lat="45.5666" lon="-1.07215">
        <ele>56</ele>
        <time>2025-04-26T12:40:44Z</time>
      </trkpt>
      <trkpt lat="45.56661" lon="-1.07211">
        <ele>56</ele>
        <time>2025-04-26T12:40:45Z</time>
      </trkpt>
      <trkpt lat="45.56662" lon="-1.07206">
        <ele>56</ele>
        <time>2025-04-26T12:40:46Z</time>
      </trkpt>
      <trkpt lat="45.56663" lon="-1.07201">
        <ele>56</ele>
        <time>2025-04-26T12:40:47Z</time>
      </trkpt>
      <trkpt lat="45.56664" lon="-1.07196">
        <ele>56</ele>
        <time>2025-04-26T12:40:48Z</time>
      </trkpt>
      <trkpt lat="45.56665" lon="-1.07191">
        <ele>56</ele>
        <time>2025-04-26T12:40:49Z</time>
      </trkpt>
      <trkpt lat="45.56667" lon="-1.07187">
        <ele>56</ele>
        <time>2025-04-26T12:40:50Z</time>
      </trkpt>
      <trkpt lat="45.56669" lon="-1.07182">
        <ele>56</ele>
        <time>2025-04-26T12:40:51Z</time>
      </trkpt>
      <trkpt lat="45.56671" lon="-1.07177">
        <ele>56</ele>
        <time>2025-04-26T12:40:52Z</time>
      </trkpt>
      <trkpt lat="45.56673" lon="-1.07172">
        <ele>56</ele>
        <time>2025-04-26T12:40:53Z</time>
      </trkpt>
      <trkpt lat="45.56674" lon="-1.07166">
        <ele>56</ele>
        <time>2025-04-26T12:40:54Z</time>
      </trkpt>
      <trkpt lat="45.56676" lon="-1.07161">
        <ele>56</ele>
        <time>2025-04-26T12:40:55Z</time>
      </trkpt>
      <trkpt lat="45.56678" lon="-1.07156">
        <ele>55</ele>
        <time>2025-04-26T12:40:56Z</time>
      </trkpt>
      <trkpt lat="45.5668" lon="-1.07151">
        <ele>56</ele>
        <time>2025-04-26T12:40:57Z</time>
      </trkpt>
      <trkpt lat="45.56682" lon="-1.07146">
        <ele>56</ele>
        <time>2025-04-26T12:40:58Z</time>
      </trkpt>
      <trkpt lat="45.56683" lon="-1.07141">
        <ele>56</ele>
        <time>2025-04-26T12:40:59Z</time>
      </trkpt>
      <trkpt lat="45.56685" lon="-1.07136">
        <ele>56</ele>
        <time>2025-04-26T12:41:00Z</time>
      </trkpt>
      <trkpt lat="45.56686" lon="-1.07132">
        <ele>56</ele>
        <time>2025-04-26T12:41:01Z</time>
      </trkpt>
      <trkpt lat="45.56687" lon="-1.07128">
        <ele>56</ele>
        <time>2025-04-26T12:41:02Z</time>
      </trkpt>
      <trkpt lat="45.56688" lon="-1.07124">
        <ele>56</ele>
        <time>2025-04-26T12:41:03Z</time>
      </trkpt>
      <trkpt lat="45.56689" lon="-1.07119">
        <ele>55</ele>
        <time>2025-04-26T12:41:04Z</time>
      </trkpt>
      <trkpt lat="45.56691" lon="-1.07115">
        <ele>55</ele>
        <time>2025-04-26T12:41:05Z</time>
      </trkpt>
      <trkpt lat="45.56692" lon="-1.07111">
        <ele>55</ele>
        <time>2025-04-26T12:41:06Z</time>
      </trkpt>
      <trkpt lat="45.56694" lon="-1.07106">
        <ele>56</ele>
        <time>2025-04-26T12:41:07Z</time>
      </trkpt>
      <trkpt lat="45.56695" lon="-1.07102">
        <ele>56</ele>
        <time>2025-04-26T12:41:08Z</time>
      </trkpt>
      <trkpt lat="45.56696" lon="-1.07097">
        <ele>56</ele>
        <time>2025-04-26T12:41:09Z</time>
      </trkpt>
      <trkpt lat="45.56698" lon="-1.07092">
        <ele>57</ele>
        <time>2025-04-26T12:41:10Z</time>
      </trkpt>
      <trkpt lat="45.567" lon="-1.07087">
        <ele>57</ele>
        <time>2025-04-26T12:41:11Z</time>
      </trkpt>
      <trkpt lat="45.56701" lon="-1.07081">
        <ele>57</ele>
        <time>2025-04-26T12:41:12Z</time>
      </trkpt>
      <trkpt lat="45.56703" lon="-1.07076">
        <ele>57</ele>
        <time>2025-04-26T12:41:13Z</time>
      </trkpt>
      <trkpt lat="45.56705" lon="-1.07071">
        <ele>58</ele>
        <time>2025-04-26T12:41:14Z</time>
      </trkpt>
      <trkpt lat="45.56707" lon="-1.07066">
        <ele>57</ele>
        <time>2025-04-26T12:41:15Z</time>
      </trkpt>
      <trkpt lat="45.56708" lon="-1.07061">
        <ele>57</ele>
        <time>2025-04-26T12:41:16Z</time>
      </trkpt>
      <trkpt lat="45.5671" lon="-1.07056">
        <ele>56</ele>
        <time>2025-04-26T12:41:17Z</time>
      </trkpt>
      <trkpt lat="45.56712" lon="-1.07051">
        <ele>55</ele>
        <time>2025-04-26T12:41:18Z</time>
      </trkpt>
      <trkpt lat="45.56714" lon="-1.07047">
        <ele>55</ele>
        <time>2025-04-26T12:41:19Z</time>
      </trkpt>
      <trkpt lat="45.56716" lon="-1.07042">
        <ele>54</ele>
        <time>2025-04-26T12:41:20Z</time>
      </trkpt>
      <trkpt lat="45.56718" lon="-1.07037">
        <ele>53</ele>
        <time>2025-04-26T12:41:21Z</time>
      </trkpt>
      <trkpt lat="45.5672" lon="-1.07033">
        <ele>52</ele>
        <time>2025-04-26T12:41:22Z</time>
      </trkpt>
      <trkpt lat="45.56722" lon="-1.07027">
        <ele>52</ele>
        <time>2025-04-26T12:41:23Z</time>
      </trkpt>
      <trkpt lat="45.56724" lon="-1.07022">
        <ele>52</ele>
        <time>2025-04-26T12:41:24Z</time>
      </trkpt>
      <trkpt lat="45.56726" lon="-1.07016">
        <ele>51</ele>
        <time>2025-04-26T12:41:25Z</time>
      </trkpt>
      <trkpt lat="45.56728" lon="-1.07011">
        <ele>51</ele>
        <time>2025-04-26T12:41:26Z</time>
      </trkpt>
      <trkpt lat="45.5673" lon="-1.07006">
        <ele>51</ele>
        <time>2025-04-26T12:41:27Z</time>
      </trkpt>
      <trkpt lat="45.56731" lon="-1.07002">
        <ele>52</ele>
        <time>2025-04-26T12:41:28Z</time>
      </trkpt>
      <trkpt lat="45.56732" lon="-1.06999">
        <ele>52</ele>
        <time>2025-04-26T12:41:29Z</time>
      </trkpt>
      <trkpt lat="45.56733" lon="-1.06997">
        <ele>52</ele>
        <time>2025-04-26T12:41:30Z</time>
      </trkpt>
      <trkpt lat="45.56733" lon="-1.06996">
        <ele>52</ele>
        <time>2025-04-26T12:41:31Z</time>
      </trkpt>
      <trkpt lat="45.56734" lon="-1.06996">
        <ele>52</ele>
        <time>2025-04-26T12:41:32Z</time>
      </trkpt>
      <trkpt lat="45.56734" lon="-1.06995">
        <ele>53</ele>
        <time>2025-04-26T12:41:33Z</time>
      </trkpt>
      <trkpt lat="45.56734" lon="-1.06994">
        <ele>53</ele>
        <time>2025-04-26T12:41:34Z</time>
      </trkpt>
      <trkpt lat="45.56734" lon="-1.06994">
        <ele>53</ele>
        <time>2025-04-26T12:41:35Z</time>
      </trkpt>
      <trkpt lat="45.56734" lon="-1.06994">
        <ele>53</ele>
        <time>2025-04-26T12:41:36Z</time>
      </trkpt>
      <trkpt lat="45.56734" lon="-1.06994">
        <ele>53</ele>
        <time>2025-04-26T12:41:37Z</time>
      </trkpt>
      <trkpt lat="45.56734" lon="-1.06994">
        <ele>53</ele>
        <time>2025-04-26T12:41:38Z</time>
      </trkpt>
      <trkpt lat="45.56734" lon="-1.06995">
        <ele>53</ele>
        <time>2025-04-26T12:41:39Z</time>
      </trkpt>
      <trkpt lat="45.56734" lon="-1.06995">
        <ele>53</ele>
        <time>2025-04-26T12:41:40Z</time>
      </trkpt>
      <trkpt lat="45.56734" lon="-1.06995">
        <ele>53</ele>
        <time>2025-04-26T12:41:41Z</time>
      </trkpt>
      <trkpt lat="45.56734" lon="-1.06995">
        <ele>53</ele>
        <time>2025-04-26T12:41:42Z</time>
      </trkpt>
      <trkpt lat="45.56734" lon="-1.06995">
        <ele>53</ele>
        <time>2025-04-26T12:41:43Z</time>
      </trkpt>
      <trkpt lat="45.56734" lon="-1.06995">
        <ele>53</ele>
        <time>2025-04-26T12:41:44Z</time>
      </trkpt>
      <trkpt lat="45.56734" lon="-1.06995">
        <ele>53</ele>
        <time>2025-04-26T12:41:45Z</time>
      </trkpt>
      <trkpt lat="45.56734" lon="-1.06995">
        <ele>53</ele>
        <time>2025-04-26T12:41:46Z</time>
      </trkpt>
      <trkpt lat="45.56734" lon="-1.06995">
        <ele>53</ele>
        <time>2025-04-26T12:41:47Z</time>
      </trkpt>
      <trkpt lat="45.56734" lon="-1.06995">
        <ele>53</ele>
        <time>2025-04-26T12:41:48Z</time>
      </trkpt>
      <trkpt lat="45.56734" lon="-1.06995">
        <ele>53</ele>
        <time>2025-04-26T12:41:49Z</time>
      </trkpt>
      <trkpt lat="45.56734" lon="-1.06995">
        <ele>53</ele>
        <time>2025-04-26T12:41:50Z</time>
      </trkpt>
      <trkpt lat="45.56734" lon="-1.06995">
        <ele>53</ele>
        <time>2025-04-26T12:41:51Z</time>
      </trkpt>
      <trkpt lat="45.56734" lon="-1.06995">
        <ele>53</ele>
        <time>2025-04-26T12:41:52Z</time>
      </trkpt>
      <trkpt lat="45.56734" lon="-1.06995">
        <ele>53</ele>
        <time>2025-04-26T12:41:53Z</time>
      </trkpt>
      <trkpt lat="45.56734" lon="-1.06995">
        <ele>53</ele>
        <time>2025-04-26T12:41:54Z</time>
      </trkpt>
      <trkpt lat="45.56734" lon="-1.06995">
        <ele>53</ele>
        <time>2025-04-26T12:41:55Z</time>
      </trkpt>
      <trkpt lat="45.56734" lon="-1.06995">
        <ele>53</ele>
        <time>2025-04-26T12:41:56Z</time>
      </trkpt>
      <trkpt lat="45.56734" lon="-1.06995">
        <ele>53</ele>
        <time>2025-04-26T12:41:57Z</time>
      </trkpt>
      <trkpt lat="45.56734" lon="-1.06995">
        <ele>53</ele>
        <time>2025-04-26T12:41:58Z</time>
      </trkpt>
      <trkpt lat="45.56734" lon="-1.06995">
        <ele>53</ele>
        <time>2025-04-26T12:41:59Z</time>
      </trkpt>
      <trkpt lat="45.56734" lon="-1.06995">
        <ele>53</ele>
        <time>2025-04-26T12:42:00Z</time>
      </trkpt>
      <trkpt lat="45.56734" lon="-1.06995">
        <ele>53</ele>
        <time>2025-04-26T12:42:01Z</time>
      </trkpt>
      <trkpt lat="45.56734" lon="-1.06995">
        <ele>53</ele>
        <time>2025-04-26T12:42:02Z</time>
      </trkpt>
      <trkpt lat="45.56734" lon="-1.06995">
        <ele>53</ele>
        <time>2025-04-26T12:42:03Z</time>
      </trkpt>
      <trkpt lat="45.56734" lon="-1.06995">
        <ele>53</ele>
        <time>2025-04-26T12:42:04Z</time>
      </trkpt>
      <trkpt lat="45.56734" lon="-1.06995">
        <ele>53</ele>
        <time>2025-04-26T12:42:05Z</time>
      </trkpt>
      <trkpt lat="45.56734" lon="-1.06995">
        <ele>53</ele>
        <time>2025-04-26T12:42:06Z</time>
      </trkpt>
      <trkpt lat="45.56734" lon="-1.06995">
        <ele>53</ele>
        <time>2025-04-26T12:42:07Z</time>
      </trkpt>
      <trkpt lat="45.56734" lon="-1.06995">
        <ele>53</ele>
        <time>2025-04-26T12:42:08Z</time>
      </trkpt>
      <trkpt lat="45.56734" lon="-1.06995">
        <ele>53</ele>
        <time>2025-04-26T12:42:09Z</time>
      </trkpt>
      <trkpt lat="45.56734" lon="-1.06995">
        <ele>53</ele>
        <time>2025-04-26T12:42:10Z</time>
      </trkpt>
      <trkpt lat="45.56734" lon="-1.06995">
        <ele>53</ele>
        <time>2025-04-26T12:42:11Z</time>
      </trkpt>
      <trkpt lat="45.56734" lon="-1.06995">
        <ele>53</ele>
        <time>2025-04-26T12:42:12Z</time>
      </trkpt>
      <trkpt lat="45.56734" lon="-1.06995">
        <ele>53</ele>
        <time>2025-04-26T12:42:13Z</time>
      </trkpt>
      <trkpt lat="45.56734" lon="-1.06995">
        <ele>53</ele>
        <time>2025-04-26T12:42:14Z</time>
      </trkpt>
      <trkpt lat="45.56734" lon="-1.06995">
        <ele>53</ele>
        <time>2025-04-26T12:42:15Z</time>
      </trkpt>
      <trkpt lat="45.56734" lon="-1.06995">
        <ele>53</ele>
        <time>2025-04-26T12:42:16Z</time>
      </trkpt>
      <trkpt lat="45.56734" lon="-1.06995">
        <ele>53</ele>
        <time>2025-04-26T12:42:17Z</time>
      </trkpt>
      <trkpt lat="45.56734" lon="-1.06995">
        <ele>53</ele>
        <time>2025-04-26T12:42:18Z</time>
      </trkpt>
      <trkpt lat="45.56734" lon="-1.06995">
        <ele>53</ele>
        <time>2025-04-26T12:42:19Z</time>
      </trkpt>
      <trkpt lat="45.56734" lon="-1.06995">
        <ele>53</ele>
        <time>2025-04-26T12:42:20Z</time>
      </trkpt>
      <trkpt lat="45.56734" lon="-1.06995">
        <ele>53</ele>
        <time>2025-04-26T12:42:21Z</time>
      </trkpt>
      <trkpt lat="45.56734" lon="-1.06995">
        <ele>53</ele>
        <time>2025-04-26T12:42:22Z</time>
      </trkpt>
      <trkpt lat="45.56734" lon="-1.06995">
        <ele>53</ele>
        <time>2025-04-26T12:42:23Z</time>
      </trkpt>
      <trkpt lat="45.56734" lon="-1.06995">
        <ele>53</ele>
        <time>2025-04-26T12:42:24Z</time>
      </trkpt>
      <trkpt lat="45.56734" lon="-1.06995">
        <ele>53</ele>
        <time>2025-04-26T12:42:25Z</time>
      </trkpt>
      <trkpt lat="45.56734" lon="-1.06995">
        <ele>53</ele>
        <time>2025-04-26T12:42:26Z</time>
      </trkpt>
      <trkpt lat="45.56734" lon="-1.06995">
        <ele>53</ele>
        <time>2025-04-26T12:42:27Z</time>
      </trkpt>
      <trkpt lat="45.56734" lon="-1.06995">
        <ele>53</ele>
        <time>2025-04-26T12:42:28Z</time>
      </trkpt>
      <trkpt lat="45.56734" lon="-1.06995">
        <ele>53</ele>
        <time>2025-04-26T12:42:29Z</time>
      </trkpt>
      <trkpt lat="45.56734" lon="-1.06995">
        <ele>53</ele>
        <time>2025-04-26T12:42:30Z</time>
      </trkpt>
      <trkpt lat="45.56734" lon="-1.06995">
        <ele>53</ele>
        <time>2025-04-26T12:42:31Z</time>
      </trkpt>
      <trkpt lat="45.56734" lon="-1.06995">
        <ele>53</ele>
        <time>2025-04-26T12:42:32Z</time>
      </trkpt>
      <trkpt lat="45.56734" lon="-1.06995">
        <ele>53</ele>
        <time>2025-04-26T12:42:33Z</time>
      </trkpt>
      <trkpt lat="45.56734" lon="-1.06995">
        <ele>53</ele>
        <time>2025-04-26T12:42:34Z</time>
      </trkpt>
      <trkpt lat="45.56734" lon="-1.06995">
        <ele>53</ele>
        <time>2025-04-26T12:42:35Z</time>
      </trkpt>
      <trkpt lat="45.56734" lon="-1.06995">
        <ele>53</ele>
        <time>2025-04-26T12:42:36Z</time>
      </trkpt>
      <trkpt lat="45.56734" lon="-1.06995">
        <ele>53</ele>
        <time>2025-04-26T12:42:37Z</time>
      </trkpt>
      <trkpt lat="45.56734" lon="-1.06995">
        <ele>53</ele>
        <time>2025-04-26T12:42:38Z</time>
      </trkpt>
      <trkpt lat="45.56734" lon="-1.06995">
        <ele>53</ele>
        <time>2025-04-26T12:42:39Z</time>
      </trkpt>
      <trkpt lat="45.56734" lon="-1.06995">
        <ele>53</ele>
        <time>2025-04-26T12:42:40Z</time>
      </trkpt>
      <trkpt lat="45.56734" lon="-1.06995">
        <ele>53</ele>
        <time>2025-04-26T12:42:41Z</time>
      </trkpt>
      <trkpt lat="45.56734" lon="-1.06995">
        <ele>53</ele>
        <time>2025-04-26T12:42:42Z</time>
      </trkpt>
      <trkpt lat="45.56734" lon="-1.06995">
        <ele>53</ele>
        <time>2025-04-26T12:42:43Z</time>
      </trkpt>
      <trkpt lat="45.56734" lon="-1.06995">
        <ele>53</ele>
        <time>2025-04-26T12:42:44Z</time>
      </trkpt>
      <trkpt lat="45.56734" lon="-1.06995">
        <ele>53</ele>
        <time>2025-04-26T12:42:45Z</time>
      </trkpt>
      <trkpt lat="45.56734" lon="-1.06995">
        <ele>53</ele>
        <time>2025-04-26T12:42:46Z</time>
      </trkpt>
      <trkpt lat="45.56734" lon="-1.06995">
        <ele>53</ele>
        <time>2025-04-26T12:42:47Z</time>
      </trkpt>
      <trkpt lat="45.56734" lon="-1.06995">
        <ele>53</ele>
        <time>2025-04-26T12:42:48Z</time>
      </trkpt>
      <trkpt lat="45.56734" lon="-1.06995">
        <ele>53</ele>
        <time>2025-04-26T12:42:49Z</time>
      </trkpt>
      <trkpt lat="45.56734" lon="-1.06995">
        <ele>53</ele>
        <time>2025-04-26T12:44:01Z</time>
      </trkpt>
      <trkpt lat="45.56734" lon="-1.06995">
        <ele>53</ele>
        <time>2025-04-26T12:44:02Z</time>
      </trkpt>
      <trkpt lat="45.56734" lon="-1.06995">
        <ele>53</ele>
        <time>2025-04-26T12:44:03Z</time>
      </trkpt>
      <trkpt lat="45.56734" lon="-1.06995">
        <ele>53</ele>
        <time>2025-04-26T12:44:04Z</time>
      </trkpt>
      <trkpt lat="45.56734" lon="-1.06995">
        <ele>53</ele>
        <time>2025-04-26T12:44:05Z</time>
      </trkpt>
      <trkpt lat="45.56734" lon="-1.06995">
        <ele>53</ele>
        <time>2025-04-26T12:44:06Z</time>
      </trkpt>
      <trkpt lat="45.56734" lon="-1.06995">
        <ele>53</ele>
        <time>2025-04-26T12:44:07Z</time>
      </trkpt>
      <trkpt lat="45.56734" lon="-1.06995">
        <ele>53</ele>
        <time>2025-04-26T12:44:08Z</time>
      </trkpt>
      <trkpt lat="45.56734" lon="-1.06995">
        <ele>53</ele>
        <time>2025-04-26T12:44:09Z</time>
      </trkpt>
      <trkpt lat="45.56734" lon="-1.06995">
        <ele>53</ele>
        <time>2025-04-26T12:44:10Z</time>
      </trkpt>
      <trkpt lat="45.56734" lon="-1.06995">
        <ele>53</ele>
        <time>2025-04-26T12:44:11Z</time>
      </trkpt>
      <trkpt lat="45.56734" lon="-1.06995">
        <ele>53</ele>
        <time>2025-04-26T12:44:12Z</time>
      </trkpt>
      <trkpt lat="45.56734" lon="-1.06995">
        <ele>53</ele>
        <time>2025-04-26T12:44:13Z</time>
      </trkpt>
      <trkpt lat="45.56734" lon="-1.06995">
        <ele>53</ele>
        <time>2025-04-26T12:44:14Z</time>
      </trkpt>
      <trkpt lat="45.56734" lon="-1.06995">
        <ele>53</ele>
        <time>2025-04-26T12:44:15Z</time>
      </trkpt>
      <trkpt lat="45.56734" lon="-1.06995">
        <ele>53</ele>
        <time>2025-04-26T12:44:16Z</time>
      </trkpt>
      <trkpt lat="45.56734" lon="-1.06995">
        <ele>53</ele>
        <time>2025-04-26T12:44:17Z</time>
      </trkpt>
      <trkpt lat="45.56734" lon="-1.06995">
        <ele>53</ele>
        <time>2025-04-26T12:44:18Z</time>
      </trkpt>
      <trkpt lat="45.56734" lon="-1.06995">
        <ele>53</ele>
        <time>2025-04-26T12:44:19Z</time>
      </trkpt>
      <trkpt lat="45.56734" lon="-1.06995">
        <ele>53</ele>
        <time>2025-04-26T12:44:20Z</time>
      </trkpt>
      <trkpt lat="45.56734" lon="-1.06995">
        <ele>53</ele>
        <time>2025-04-26T12:44:21Z</time>
      </trkpt>
      <trkpt lat="45.56734" lon="-1.06995">
        <ele>53</ele>
        <time>2025-04-26T12:44:22Z</time>
      </trkpt>
      <trkpt lat="45.56734" lon="-1.06995">
        <ele>53</ele>
        <time>2025-04-26T12:44:23Z</time>
      </trkpt>
      <trkpt lat="45.56734" lon="-1.06995">
        <ele>53</ele>
        <time>2025-04-26T12:44:24Z</time>
      </trkpt>
      <trkpt lat="45.56734" lon="-1.06987">
        <ele>56</ele>
        <time>2025-04-26T12:44:25Z</time>
      </trkpt>
      <trkpt lat="45.56734" lon="-1.06983">
        <ele>56</ele>
        <time>2025-04-26T12:44:26Z</time>
      </trkpt>
      <trkpt lat="45.56735" lon="-1.0698">
        <ele>57</ele>
        <time>2025-04-26T12:44:27Z</time>
      </trkpt>
      <trkpt lat="45.56735" lon="-1.06978">
        <ele>58</ele>
        <time>2025-04-26T12:44:28Z</time>
      </trkpt>
      <trkpt lat="45.56736" lon="-1.06975">
        <ele>59</ele>
        <time>2025-04-26T12:44:29Z</time>
      </trkpt>
      <trkpt lat="45.56737" lon="-1.06971">
        <ele>60</ele>
        <time>2025-04-26T12:44:30Z</time>
      </trkpt>
      <trkpt lat="45.56738" lon="-1.06968">
        <ele>61</ele>
        <time>2025-04-26T12:44:31Z</time>
      </trkpt>
      <trkpt lat="45.5674" lon="-1.06965">
        <ele>61</ele>
        <time>2025-04-26T12:44:32Z</time>
      </trkpt>
      <trkpt lat="45.56741" lon="-1.06961">
        <ele>61</ele>
        <time>2025-04-26T12:44:33Z</time>
      </trkpt>
      <trkpt lat="45.56742" lon="-1.06957">
        <ele>62</ele>
        <time>2025-04-26T12:44:34Z</time>
      </trkpt>
      <trkpt lat="45.56744" lon="-1.06953">
        <ele>62</ele>
        <time>2025-04-26T12:44:35Z</time>
      </trkpt>
      <trkpt lat="45.56745" lon="-1.06948">
        <ele>62</ele>
        <time>2025-04-26T12:44:36Z</time>
      </trkpt>
      <trkpt lat="45.56746" lon="-1.06944">
        <ele>63</ele>
        <time>2025-04-26T12:44:37Z</time>
      </trkpt>
      <trkpt lat="45.56747" lon="-1.06939">
        <ele>63</ele>
        <time>2025-04-26T12:44:38Z</time>
      </trkpt>
      <trkpt lat="45.56748" lon="-1.06936">
        <ele>64</ele>
        <time>2025-04-26T12:44:39Z</time>
      </trkpt>
      <trkpt lat="45.5675" lon="-1.06931">
        <ele>64</ele>
        <time>2025-04-26T12:44:40Z</time>
      </trkpt>
      <trkpt lat="45.5675" lon="-1.06926">
        <ele>64</ele>
        <time>2025-04-26T12:44:41Z</time>
      </trkpt>
      <trkpt lat="45.5675" lon="-1.06922">
        <ele>63</ele>
        <time>2025-04-26T12:44:42Z</time>
      </trkpt>
      <trkpt lat="45.56751" lon="-1.06918">
        <ele>64</ele>
        <time>2025-04-26T12:44:43Z</time>
      </trkpt>
      <trkpt lat="45.56751" lon="-1.06914">
        <ele>64</ele>
        <time>2025-04-26T12:44:44Z</time>
      </trkpt>
      <trkpt lat="45.56752" lon="-1.06909">
        <ele>64</ele>
        <time>2025-04-26T12:44:45Z</time>
      </trkpt>
      <trkpt lat="45.56752" lon="-1.06905">
        <ele>64</ele>
        <time>2025-04-26T12:44:46Z</time>
      </trkpt>
      <trkpt lat="45.56753" lon="-1.069">
        <ele>64</ele>
        <time>2025-04-26T12:44:47Z</time>
      </trkpt>
      <trkpt lat="45.56753" lon="-1.06895">
        <ele>64</ele>
        <time>2025-04-26T12:44:48Z</time>
      </trkpt>
      <trkpt lat="45.56752" lon="-1.06891">
        <ele>63</ele>
        <time>2025-04-26T12:44:49Z</time>
      </trkpt>
      <trkpt lat="45.56752" lon="-1.06886">
        <ele>63</ele>
        <time>2025-04-26T12:44:50Z</time>
      </trkpt>
      <trkpt lat="45.56752" lon="-1.06883">
        <ele>62</ele>
        <time>2025-04-26T12:44:51Z</time>
      </trkpt>
      <trkpt lat="45.56752" lon="-1.06879">
        <ele>62</ele>
        <time>2025-04-26T12:44:52Z</time>
      </trkpt>
      <trkpt lat="45.56752" lon="-1.06874">
        <ele>61</ele>
        <time>2025-04-26T12:44:53Z</time>
      </trkpt>
      <trkpt lat="45.5675" lon="-1.06869">
        <ele>60</ele>
        <time>2025-04-26T12:44:54Z</time>
      </trkpt>
      <trkpt lat="45.56748" lon="-1.06864">
        <ele>60</ele>
        <time>2025-04-26T12:44:55Z</time>
      </trkpt>
      <trkpt lat="45.56747" lon="-1.06859">
        <ele>60</ele>
        <time>2025-04-26T12:44:56Z</time>
      </trkpt>
      <trkpt lat="45.56746" lon="-1.06854">
        <ele>59</ele>
        <time>2025-04-26T12:44:57Z</time>
      </trkpt>
      <trkpt lat="45.56744" lon="-1.06848">
        <ele>58</ele>
        <time>2025-04-26T12:44:58Z</time>
      </trkpt>
      <trkpt lat="45.56742" lon="-1.06843">
        <ele>58</ele>
        <time>2025-04-26T12:44:59Z</time>
      </trkpt>
      <trkpt lat="45.56741" lon="-1.06837">
        <ele>57</ele>
        <time>2025-04-26T12:45:00Z</time>
      </trkpt>
      <trkpt lat="45.5674" lon="-1.06833">
        <ele>56</ele>
        <time>2025-04-26T12:45:01Z</time>
      </trkpt>
      <trkpt lat="45.56737" lon="-1.06828">
        <ele>56</ele>
        <time>2025-04-26T12:45:02Z</time>
      </trkpt>
      <trkpt lat="45.56736" lon="-1.06823">
        <ele>56</ele>
        <time>2025-04-26T12:45:03Z</time>
      </trkpt>
      <trkpt lat="45.56734" lon="-1.06819">
        <ele>55</ele>
        <time>2025-04-26T12:45:04Z</time>
      </trkpt>
      <trkpt lat="45.56733" lon="-1.06815">
        <ele>55</ele>
        <time>2025-04-26T12:45:05Z</time>
      </trkpt>
      <trkpt lat="45.56731" lon="-1.0681">
        <ele>54</ele>
        <time>2025-04-26T12:45:06Z</time>
      </trkpt>
      <trkpt lat="45.5673" lon="-1.06805">
        <ele>54</ele>
        <time>2025-04-26T12:45:07Z</time>
      </trkpt>
      <trkpt lat="45.56729" lon="-1.068">
        <ele>54</ele>
        <time>2025-04-26T12:45:08Z</time>
      </trkpt>
      <trkpt lat="45.56727" lon="-1.06795">
        <ele>54</ele>
        <time>2025-04-26T12:45:09Z</time>
      </trkpt>
      <trkpt lat="45.56726" lon="-1.0679">
        <ele>54</ele>
        <time>2025-04-26T12:45:10Z</time>
      </trkpt>
      <trkpt lat="45.56724" lon="-1.06785">
        <ele>54</ele>
        <time>2025-04-26T12:45:11Z</time>
      </trkpt>
      <trkpt lat="45.56721" lon="-1.0678">
        <ele>54</ele>
        <time>2025-04-26T12:45:12Z</time>
      </trkpt>
      <trkpt lat="45.56719" lon="-1.06777">
        <ele>53</ele>
        <time>2025-04-26T12:45:13Z</time>
      </trkpt>
      <trkpt lat="45.56716" lon="-1.06772">
        <ele>53</ele>
        <time>2025-04-26T12:45:14Z</time>
      </trkpt>
      <trkpt lat="45.56714" lon="-1.06769">
        <ele>53</ele>
        <time>2025-04-26T12:45:15Z</time>
      </trkpt>
      <trkpt lat="45.56711" lon="-1.06766">
        <ele>53</ele>
        <time>2025-04-26T12:45:16Z</time>
      </trkpt>
      <trkpt lat="45.56708" lon="-1.06763">
        <ele>54</ele>
        <time>2025-04-26T12:45:17Z</time>
      </trkpt>
      <trkpt lat="45.56705" lon="-1.06759">
        <ele>54</ele>
        <time>2025-04-26T12:45:18Z</time>
      </trkpt>
      <trkpt lat="45.56703" lon="-1.06757">
        <ele>54</ele>
        <time>2025-04-26T12:45:19Z</time>
      </trkpt>
      <trkpt lat="45.56702" lon="-1.06753">
        <ele>54</ele>
        <time>2025-04-26T12:45:20Z</time>
      </trkpt>
      <trkpt lat="45.56701" lon="-1.06749">
        <ele>54</ele>
        <time>2025-04-26T12:45:21Z</time>
      </trkpt>
      <trkpt lat="45.56702" lon="-1.06746">
        <ele>53</ele>
        <time>2025-04-26T12:45:22Z</time>
      </trkpt>
      <trkpt lat="45.56703" lon="-1.06742">
        <ele>53</ele>
        <time>2025-04-26T12:45:23Z</time>
      </trkpt>
      <trkpt lat="45.56703" lon="-1.06739">
        <ele>53</ele>
        <time>2025-04-26T12:45:24Z</time>
      </trkpt>
      <trkpt lat="45.56701" lon="-1.06736">
        <ele>54</ele>
        <time>2025-04-26T12:45:25Z</time>
      </trkpt>
      <trkpt lat="45.56698" lon="-1.06735">
        <ele>54</ele>
        <time>2025-04-26T12:45:26Z</time>
      </trkpt>
      <trkpt lat="45.56695" lon="-1.06733">
        <ele>54</ele>
        <time>2025-04-26T12:45:27Z</time>
      </trkpt>
      <trkpt lat="45.56692" lon="-1.06731">
        <ele>55</ele>
        <time>2025-04-26T12:45:28Z</time>
      </trkpt>
      <trkpt lat="45.56689" lon="-1.06729">
        <ele>55</ele>
        <time>2025-04-26T12:45:29Z</time>
      </trkpt>
      <trkpt lat="45.56686" lon="-1.06727">
        <ele>54</ele>
        <time>2025-04-26T12:45:30Z</time>
      </trkpt>
      <trkpt lat="45.56683" lon="-1.06725">
        <ele>55</ele>
        <time>2025-04-26T12:45:31Z</time>
      </trkpt>
      <trkpt lat="45.5668" lon="-1.06723">
        <ele>55</ele>
        <time>2025-04-26T12:45:32Z</time>
      </trkpt>
      <trkpt lat="45.56677" lon="-1.06722">
        <ele>55</ele>
        <time>2025-04-26T12:45:33Z</time>
      </trkpt>
      <trkpt lat="45.56674" lon="-1.06719">
        <ele>55</ele>
        <time>2025-04-26T12:45:34Z</time>
      </trkpt>
      <trkpt lat="45.56671" lon="-1.06718">
        <ele>56</ele>
        <time>2025-04-26T12:45:35Z</time>
      </trkpt>
      <trkpt lat="45.56669" lon="-1.06716">
        <ele>56</ele>
        <time>2025-04-26T12:45:36Z</time>
      </trkpt>
      <trkpt lat="45.56666" lon="-1.06715">
        <ele>57</ele>
        <time>2025-04-26T12:45:37Z</time>
      </trkpt>
      <trkpt lat="45.56663" lon="-1.06713">
        <ele>57</ele>
        <time>2025-04-26T12:45:38Z</time>
      </trkpt>
      <trkpt lat="45.56661" lon="-1.06712">
        <ele>57</ele>
        <time>2025-04-26T12:45:39Z</time>
      </trkpt>
      <trkpt lat="45.56658" lon="-1.06711">
        <ele>57</ele>
        <time>2025-04-26T12:45:40Z</time>
      </trkpt>
      <trkpt lat="45.56655" lon="-1.06709">
        <ele>57</ele>
        <time>2025-04-26T12:45:41Z</time>
      </trkpt>
      <trkpt lat="45.56652" lon="-1.06707">
        <ele>58</ele>
        <time>2025-04-26T12:45:42Z</time>
      </trkpt>
      <trkpt lat="45.56649" lon="-1.06705">
        <ele>58</ele>
        <time>2025-04-26T12:45:43Z</time>
      </trkpt>
      <trkpt lat="45.56647" lon="-1.06702">
        <ele>58</ele>
        <time>2025-04-26T12:45:44Z</time>
      </trkpt>
      <trkpt lat="45.56643" lon="-1.06701">
        <ele>58</ele>
        <time>2025-04-26T12:45:45Z</time>
      </trkpt>
      <trkpt lat="45.56641" lon="-1.06701">
        <ele>59</ele>
        <time>2025-04-26T12:45:46Z</time>
      </trkpt>
      <trkpt lat="45.5664" lon="-1.067">
        <ele>58</ele>
        <time>2025-04-26T12:45:47Z</time>
      </trkpt>
      <trkpt lat="45.5664" lon="-1.06698">
        <ele>58</ele>
        <time>2025-04-26T12:45:48Z</time>
      </trkpt>
      <trkpt lat="45.5664" lon="-1.06697">
        <ele>58</ele>
        <time>2025-04-26T12:45:49Z</time>
      </trkpt>
      <trkpt lat="45.5664" lon="-1.06696">
        <ele>58</ele>
        <time>2025-04-26T12:45:50Z</time>
      </trkpt>
      <trkpt lat="45.5664" lon="-1.06696">
        <ele>59</ele>
        <time>2025-04-26T12:45:51Z</time>
      </trkpt>
      <trkpt lat="45.5664" lon="-1.06696">
        <ele>59</ele>
        <time>2025-04-26T12:45:52Z</time>
      </trkpt>
      <trkpt lat="45.5664" lon="-1.06696">
        <ele>59</ele>
        <time>2025-04-26T12:45:53Z</time>
      </trkpt>
      <trkpt lat="45.5664" lon="-1.06696">
        <ele>59</ele>
        <time>2025-04-26T12:45:54Z</time>
      </trkpt>
      <trkpt lat="45.5664" lon="-1.06696">
        <ele>59</ele>
        <time>2025-04-26T12:45:55Z</time>
      </trkpt>
      <trkpt lat="45.5664" lon="-1.06696">
        <ele>59</ele>
        <time>2025-04-26T12:45:56Z</time>
      </trkpt>
      <trkpt lat="45.5664" lon="-1.06696">
        <ele>59</ele>
        <time>2025-04-26T12:45:57Z</time>
      </trkpt>
      <trkpt lat="45.5664" lon="-1.06696">
        <ele>59</ele>
        <time>2025-04-26T12:45:58Z</time>
      </trkpt>
      <trkpt lat="45.5664" lon="-1.06696">
        <ele>59</ele>
        <time>2025-04-26T12:45:59Z</time>
      </trkpt>
      <trkpt lat="45.5664" lon="-1.06696">
        <ele>59</ele>
        <time>2025-04-26T12:46:00Z</time>
      </trkpt>
      <trkpt lat="45.5664" lon="-1.06696">
        <ele>59</ele>
        <time>2025-04-26T12:46:01Z</time>
      </trkpt>
      <trkpt lat="45.5664" lon="-1.06696">
        <ele>59</ele>
        <time>2025-04-26T12:46:02Z</time>
      </trkpt>
      <trkpt lat="45.5664" lon="-1.06696">
        <ele>59</ele>
        <time>2025-04-26T12:46:03Z</time>
      </trkpt>
      <trkpt lat="45.5664" lon="-1.06696">
        <ele>59</ele>
        <time>2025-04-26T12:46:04Z</time>
      </trkpt>
      <trkpt lat="45.5664" lon="-1.06696">
        <ele>59</ele>
        <time>2025-04-26T12:46:05Z</time>
      </trkpt>
      <trkpt lat="45.5664" lon="-1.06696">
        <ele>59</ele>
        <time>2025-04-26T12:46:06Z</time>
      </trkpt>
      <trkpt lat="45.5664" lon="-1.06696">
        <ele>59</ele>
        <time>2025-04-26T12:46:07Z</time>
      </trkpt>
      <trkpt lat="45.5664" lon="-1.06696">
        <ele>59</ele>
        <time>2025-04-26T12:46:08Z</time>
      </trkpt>
      <trkpt lat="45.5664" lon="-1.06696">
        <ele>59</ele>
        <time>2025-04-26T12:46:09Z</time>
      </trkpt>
      <trkpt lat="45.5664" lon="-1.06696">
        <ele>59</ele>
        <time>2025-04-26T12:46:10Z</time>
      </trkpt>
      <trkpt lat="45.5664" lon="-1.06696">
        <ele>59</ele>
        <time>2025-04-26T12:46:11Z</time>
      </trkpt>
      <trkpt lat="45.5664" lon="-1.06696">
        <ele>59</ele>
        <time>2025-04-26T12:46:12Z</time>
      </trkpt>
      <trkpt lat="45.5664" lon="-1.06696">
        <ele>59</ele>
        <time>2025-04-26T12:46:13Z</time>
      </trkpt>
      <trkpt lat="45.5664" lon="-1.06696">
        <ele>59</ele>
        <time>2025-04-26T12:46:14Z</time>
      </trkpt>
      <trkpt lat="45.5664" lon="-1.06696">
        <ele>59</ele>
        <time>2025-04-26T12:46:15Z</time>
      </trkpt>
      <trkpt lat="45.56635" lon="-1.06694">
        <ele>59</ele>
        <time>2025-04-26T12:46:16Z</time>
      </trkpt>
      <trkpt lat="45.56633" lon="-1.06693">
        <ele>59</ele>
        <time>2025-04-26T12:46:17Z</time>
      </trkpt>
      <trkpt lat="45.56632" lon="-1.06691">
        <ele>59</ele>
        <time>2025-04-26T12:46:18Z</time>
      </trkpt>
      <trkpt lat="45.56631" lon="-1.06689">
        <ele>59</ele>
        <time>2025-04-26T12:46:19Z</time>
      </trkpt>
      <trkpt lat="45.5663" lon="-1.06687">
        <ele>59</ele>
        <time>2025-04-26T12:46:20Z</time>
      </trkpt>
      <trkpt lat="45.56629" lon="-1.06684">
        <ele>58</ele>
        <time>2025-04-26T12:46:21Z</time>
      </trkpt>
      <trkpt lat="45.5663" lon="-1.06681">
        <ele>58</ele>
        <time>2025-04-26T12:46:22Z</time>
      </trkpt>
      <trkpt lat="45.5663" lon="-1.06678">
        <ele>58</ele>
        <time>2025-04-26T12:46:23Z</time>
      </trkpt>
      <trkpt lat="45.56631" lon="-1.06675">
        <ele>57</ele>
        <time>2025-04-26T12:46:24Z</time>
      </trkpt>
      <trkpt lat="45.56633" lon="-1.06673">
        <ele>58</ele>
        <time>2025-04-26T12:46:25Z</time>
      </trkpt>
      <trkpt lat="45.56635" lon="-1.06672">
        <ele>58</ele>
        <time>2025-04-26T12:46:26Z</time>
      </trkpt>
      <trkpt lat="45.56638" lon="-1.0667">
        <ele>59</ele>
        <time>2025-04-26T12:46:27Z</time>
      </trkpt>
      <trkpt lat="45.56641" lon="-1.06669">
        <ele>59</ele>
        <time>2025-04-26T12:46:28Z</time>
      </trkpt>
      <trkpt lat="45.56643" lon="-1.06667">
        <ele>59</ele>
        <time>2025-04-26T12:46:29Z</time>
      </trkpt>
      <trkpt lat="45.56645" lon="-1.06665">
        <ele>59</ele>
        <time>2025-04-26T12:46:30Z</time>
      </trkpt>
      <trkpt lat="45.56648" lon="-1.06663">
        <ele>59</ele>
        <time>2025-04-26T12:46:31Z</time>
      </trkpt>
      <trkpt lat="45.56651" lon="-1.06661">
        <ele>59</ele>
        <time>2025-04-26T12:46:32Z</time>
      </trkpt>
      <trkpt lat="45.56654" lon="-1.06659">
        <ele>59</ele>
        <time>2025-04-26T12:46:33Z</time>
      </trkpt>
      <trkpt lat="45.56657" lon="-1.06658">
        <ele>59</ele>
        <time>2025-04-26T12:46:34Z</time>
      </trkpt>
      <trkpt lat="45.56661" lon="-1.06656">
        <ele>60</ele>
        <time>2025-04-26T12:46:35Z</time>
      </trkpt>
      <trkpt lat="45.56664" lon="-1.06654">
        <ele>60</ele>
        <time>2025-04-26T12:46:36Z</time>
      </trkpt>
      <trkpt lat="45.56667" lon="-1.06651">
        <ele>60</ele>
        <time>2025-04-26T12:46:37Z</time>
      </trkpt>
      <trkpt lat="45.5667" lon="-1.0665">
        <ele>60</ele>
        <time>2025-04-26T12:46:38Z</time>
      </trkpt>
      <trkpt lat="45.56674" lon="-1.06647">
        <ele>59</ele>
        <time>2025-04-26T12:46:39Z</time>
      </trkpt>
      <trkpt lat="45.56677" lon="-1.06645">
        <ele>59</ele>
        <time>2025-04-26T12:46:40Z</time>
      </trkpt>
      <trkpt lat="45.5668" lon="-1.06642">
        <ele>59</ele>
        <time>2025-04-26T12:46:41Z</time>
      </trkpt>
      <trkpt lat="45.56683" lon="-1.06641">
        <ele>60</ele>
        <time>2025-04-26T12:46:42Z</time>
      </trkpt>
      <trkpt lat="45.56686" lon="-1.06639">
        <ele>60</ele>
        <time>2025-04-26T12:46:43Z</time>
      </trkpt>
      <trkpt lat="45.5669" lon="-1.06636">
        <ele>59</ele>
        <time>2025-04-26T12:46:44Z</time>
      </trkpt>
      <trkpt lat="45.56694" lon="-1.06634">
        <ele>58</ele>
        <time>2025-04-26T12:46:45Z</time>
      </trkpt>
      <trkpt lat="45.56697" lon="-1.06632">
        <ele>58</ele>
        <time>2025-04-26T12:46:46Z</time>
      </trkpt>
      <trkpt lat="45.567" lon="-1.0663">
        <ele>57</ele>
        <time>2025-04-26T12:46:47Z</time>
      </trkpt>
      <trkpt lat="45.56704" lon="-1.06628">
        <ele>57</ele>
        <time>2025-04-26T12:46:48Z</time>
      </trkpt>
      <trkpt lat="45.56707" lon="-1.06626">
        <ele>57</ele>
        <time>2025-04-26T12:46:49Z</time>
      </trkpt>
      <trkpt lat="45.56709" lon="-1.06624">
        <ele>57</ele>
        <time>2025-04-26T12:46:50Z</time>
      </trkpt>
      <trkpt lat="45.56713" lon="-1.06621">
        <ele>57</ele>
        <time>2025-04-26T12:46:51Z</time>
      </trkpt>
      <trkpt lat="45.56716" lon="-1.06619">
        <ele>57</ele>
        <time>2025-04-26T12:46:52Z</time>
      </trkpt>
      <trkpt lat="45.56719" lon="-1.06616">
        <ele>57</ele>
        <time>2025-04-26T12:46:53Z</time>
      </trkpt>
      <trkpt lat="45.56722" lon="-1.06614">
        <ele>57</ele>
        <time>2025-04-26T12:46:54Z</time>
      </trkpt>
      <trkpt lat="45.56725" lon="-1.06612">
        <ele>56</ele>
        <time>2025-04-26T12:46:55Z</time>
      </trkpt>
      <trkpt lat="45.56728" lon="-1.0661">
        <ele>57</ele>
        <time>2025-04-26T12:46:56Z</time>
      </trkpt>
      <trkpt lat="45.56731" lon="-1.06609">
        <ele>57</ele>
        <time>2025-04-26T12:46:57Z</time>
      </trkpt>
      <trkpt lat="45.56734" lon="-1.06608">
        <ele>58</ele>
        <time>2025-04-26T12:46:58Z</time>
      </trkpt>
      <trkpt lat="45.56737" lon="-1.06606">
        <ele>58</ele>
        <time>2025-04-26T12:46:59Z</time>
      </trkpt>
      <trkpt lat="45.5674" lon="-1.06605">
        <ele>58</ele>
        <time>2025-04-26T12:47:00Z</time>
      </trkpt>
      <trkpt lat="45.56743" lon="-1.06603">
        <ele>58</ele>
        <time>2025-04-26T12:47:01Z</time>
      </trkpt>
      <trkpt lat="45.56746" lon="-1.06601">
        <ele>58</ele>
        <time>2025-04-26T12:47:02Z</time>
      </trkpt>
      <trkpt lat="45.5675" lon="-1.06599">
        <ele>58</ele>
        <time>2025-04-26T12:47:03Z</time>
      </trkpt>
      <trkpt lat="45.56753" lon="-1.06597">
        <ele>58</ele>
        <time>2025-04-26T12:47:04Z</time>
      </trkpt>
      <trkpt lat="45.56756" lon="-1.06595">
        <ele>58</ele>
        <time>2025-04-26T12:47:05Z</time>
      </trkpt>
      <trkpt lat="45.56759" lon="-1.06592">
        <ele>58</ele>
        <time>2025-04-26T12:47:06Z</time>
      </trkpt>
      <trkpt lat="45.56763" lon="-1.06589">
        <ele>58</ele>
        <time>2025-04-26T12:47:07Z</time>
      </trkpt>
      <trkpt lat="45.56766" lon="-1.06587">
        <ele>58</ele>
        <time>2025-04-26T12:47:08Z</time>
      </trkpt>
      <trkpt lat="45.56769" lon="-1.06584">
        <ele>57</ele>
        <time>2025-04-26T12:47:09Z</time>
      </trkpt>
      <trkpt lat="45.56772" lon="-1.06582">
        <ele>57</ele>
        <time>2025-04-26T12:47:10Z</time>
      </trkpt>
      <trkpt lat="45.56775" lon="-1.0658">
        <ele>56</ele>
        <time>2025-04-26T12:47:11Z</time>
      </trkpt>
      <trkpt lat="45.56778" lon="-1.06578">
        <ele>56</ele>
        <time>2025-04-26T12:47:12Z</time>
      </trkpt>
      <trkpt lat="45.56781" lon="-1.06577">
        <ele>56</ele>
        <time>2025-04-26T12:47:13Z</time>
      </trkpt>
      <trkpt lat="45.56783" lon="-1.06576">
        <ele>56</ele>
        <time>2025-04-26T12:47:14Z</time>
      </trkpt>
      <trkpt lat="45.56786" lon="-1.06574">
        <ele>56</ele>
        <time>2025-04-26T12:47:15Z</time>
      </trkpt>
      <trkpt lat="45.56788" lon="-1.06572">
        <ele>55</ele>
        <time>2025-04-26T12:47:16Z</time>
      </trkpt>
      <trkpt lat="45.56791" lon="-1.06569">
        <ele>56</ele>
        <time>2025-04-26T12:47:17Z</time>
      </trkpt>
      <trkpt lat="45.56793" lon="-1.06566">
        <ele>56</ele>
        <time>2025-04-26T12:47:18Z</time>
      </trkpt>
      <trkpt lat="45.56795" lon="-1.06563">
        <ele>56</ele>
        <time>2025-04-26T12:47:19Z</time>
      </trkpt>
      <trkpt lat="45.56796" lon="-1.06559">
        <ele>57</ele>
        <time>2025-04-26T12:47:20Z</time>
      </trkpt>
      <trkpt lat="45.56796" lon="-1.06555">
        <ele>57</ele>
        <time>2025-04-26T12:47:21Z</time>
      </trkpt>
      <trkpt lat="45.56796" lon="-1.0655">
        <ele>56</ele>
        <time>2025-04-26T12:47:22Z</time>
      </trkpt>
      <trkpt lat="45.56794" lon="-1.06546">
        <ele>56</ele>
        <time>2025-04-26T12:47:23Z</time>
      </trkpt>
      <trkpt lat="45.56792" lon="-1.06542">
        <ele>56</ele>
        <time>2025-04-26T12:47:24Z</time>
      </trkpt>
      <trkpt lat="45.5679" lon="-1.06538">
        <ele>56</ele>
        <time>2025-04-26T12:47:25Z</time>
      </trkpt>
      <trkpt lat="45.56789" lon="-1.06535">
        <ele>56</ele>
        <time>2025-04-26T12:47:26Z</time>
      </trkpt>
      <trkpt lat="45.56787" lon="-1.06531">
        <ele>56</ele>
        <time>2025-04-26T12:47:27Z</time>
      </trkpt>
      <trkpt lat="45.56785" lon="-1.06527">
        <ele>57</ele>
        <time>2025-04-26T12:47:28Z</time>
      </trkpt>
      <trkpt lat="45.56784" lon="-1.06523">
        <ele>57</ele>
        <time>2025-04-26T12:47:29Z</time>
      </trkpt>
      <trkpt lat="45.56782" lon="-1.06518">
        <ele>57</ele>
        <time>2025-04-26T12:47:30Z</time>
      </trkpt>
      <trkpt lat="45.5678" lon="-1.06514">
        <ele>57</ele>
        <time>2025-04-26T12:47:31Z</time>
      </trkpt>
      <trkpt lat="45.56779" lon="-1.0651">
        <ele>56</ele>
        <time>2025-04-26T12:47:32Z</time>
      </trkpt>
      <trkpt lat="45.56778" lon="-1.06505">
        <ele>56</ele>
        <time>2025-04-26T12:47:33Z</time>
      </trkpt>
      <trkpt lat="45.56777" lon="-1.06501">
        <ele>55</ele>
        <time>2025-04-26T12:47:34Z</time>
      </trkpt>
      <trkpt lat="45.56776" lon="-1.06497">
        <ele>55</ele>
        <time>2025-04-26T12:47:35Z</time>
      </trkpt>
      <trkpt lat="45.56775" lon="-1.06494">
        <ele>55</ele>
        <time>2025-04-26T12:47:36Z</time>
      </trkpt>
      <trkpt lat="45.56773" lon="-1.0649">
        <ele>55</ele>
        <time>2025-04-26T12:47:37Z</time>
      </trkpt>
      <trkpt lat="45.56772" lon="-1.06486">
        <ele>55</ele>
        <time>2025-04-26T12:47:38Z</time>
      </trkpt>
      <trkpt lat="45.56771" lon="-1.06484">
        <ele>56</ele>
        <time>2025-04-26T12:47:39Z</time>
      </trkpt>
      <trkpt lat="45.5677" lon="-1.06481">
        <ele>56</ele>
        <time>2025-04-26T12:47:40Z</time>
      </trkpt>
      <trkpt lat="45.56769" lon="-1.06479">
        <ele>57</ele>
        <time>2025-04-26T12:47:41Z</time>
      </trkpt>
      <trkpt lat="45.56769" lon="-1.06476">
        <ele>57</ele>
        <time>2025-04-26T12:47:42Z</time>
      </trkpt>
      <trkpt lat="45.5677" lon="-1.06475">
        <ele>57</ele>
        <time>2025-04-26T12:47:43Z</time>
      </trkpt>
      <trkpt lat="45.56771" lon="-1.06474">
        <ele>58</ele>
        <time>2025-04-26T12:47:44Z</time>
      </trkpt>
      <trkpt lat="45.56772" lon="-1.06473">
        <ele>58</ele>
        <time>2025-04-26T12:47:45Z</time>
      </trkpt>
      <trkpt lat="45.56773" lon="-1.0647">
        <ele>58</ele>
        <time>2025-04-26T12:47:46Z</time>
      </trkpt>
      <trkpt lat="45.56774" lon="-1.06467">
        <ele>58</ele>
        <time>2025-04-26T12:47:47Z</time>
      </trkpt>
      <trkpt lat="45.56776" lon="-1.06464">
        <ele>58</ele>
        <time>2025-04-26T12:47:48Z</time>
      </trkpt>
      <trkpt lat="45.56778" lon="-1.06462">
        <ele>58</ele>
        <time>2025-04-26T12:47:49Z</time>
      </trkpt>
      <trkpt lat="45.5678" lon="-1.06459">
        <ele>58</ele>
        <time>2025-04-26T12:47:50Z</time>
      </trkpt>
      <trkpt lat="45.56782" lon="-1.06457">
        <ele>58</ele>
        <time>2025-04-26T12:47:51Z</time>
      </trkpt>
      <trkpt lat="45.56784" lon="-1.06454">
        <ele>58</ele>
        <time>2025-04-26T12:47:52Z</time>
      </trkpt>
      <trkpt lat="45.56786" lon="-1.06452">
        <ele>58</ele>
        <time>2025-04-26T12:47:53Z</time>
      </trkpt>
      <trkpt lat="45.56788" lon="-1.06449">
        <ele>58</ele>
        <time>2025-04-26T12:47:54Z</time>
      </trkpt>
      <trkpt lat="45.56791" lon="-1.06447">
        <ele>57</ele>
        <time>2025-04-26T12:47:55Z</time>
      </trkpt>
      <trkpt lat="45.56794" lon="-1.06445">
        <ele>57</ele>
        <time>2025-04-26T12:47:56Z</time>
      </trkpt>
      <trkpt lat="45.56796" lon="-1.06443">
        <ele>57</ele>
        <time>2025-04-26T12:47:57Z</time>
      </trkpt>
      <trkpt lat="45.56798" lon="-1.0644">
        <ele>57</ele>
        <time>2025-04-26T12:47:58Z</time>
      </trkpt>
      <trkpt lat="45.56801" lon="-1.06438">
        <ele>57</ele>
        <time>2025-04-26T12:47:59Z</time>
      </trkpt>
      <trkpt lat="45.56803" lon="-1.06436">
        <ele>57</ele>
        <time>2025-04-26T12:48:00Z</time>
      </trkpt>
      <trkpt lat="45.56806" lon="-1.06434">
        <ele>56</ele>
        <time>2025-04-26T12:48:01Z</time>
      </trkpt>
      <trkpt lat="45.56808" lon="-1.06432">
        <ele>56</ele>
        <time>2025-04-26T12:48:02Z</time>
      </trkpt>
      <trkpt lat="45.56811" lon="-1.06431">
        <ele>56</ele>
        <time>2025-04-26T12:48:03Z</time>
      </trkpt>
      <trkpt lat="45.56813" lon="-1.06429">
        <ele>56</ele>
        <time>2025-04-26T12:48:04Z</time>
      </trkpt>
      <trkpt lat="45.56815" lon="-1.06428">
        <ele>56</ele>
        <time>2025-04-26T12:48:05Z</time>
      </trkpt>
      <trkpt lat="45.56818" lon="-1.06426">
        <ele>56</ele>
        <time>2025-04-26T12:48:06Z</time>
      </trkpt>
      <trkpt lat="45.56821" lon="-1.06425">
        <ele>56</ele>
        <time>2025-04-26T12:48:07Z</time>
      </trkpt>
      <trkpt lat="45.56824" lon="-1.06424">
        <ele>57</ele>
        <time>2025-04-26T12:48:08Z</time>
      </trkpt>
      <trkpt lat="45.56827" lon="-1.06422">
        <ele>57</ele>
        <time>2025-04-26T12:48:09Z</time>
      </trkpt>
      <trkpt lat="45.56829" lon="-1.06421">
        <ele>57</ele>
        <time>2025-04-26T12:48:10Z</time>
      </trkpt>
      <trkpt lat="45.56832" lon="-1.06419">
        <ele>58</ele>
        <time>2025-04-26T12:48:11Z</time>
      </trkpt>
      <trkpt lat="45.56834" lon="-1.06416">
        <ele>58</ele>
        <time>2025-04-26T12:48:12Z</time>
      </trkpt>
      <trkpt lat="45.56837" lon="-1.06414">
        <ele>58</ele>
        <time>2025-04-26T12:48:13Z</time>
      </trkpt>
      <trkpt lat="45.56839" lon="-1.06411">
        <ele>58</ele>
        <time>2025-04-26T12:48:14Z</time>
      </trkpt>
      <trkpt lat="45.56842" lon="-1.06409">
        <ele>58</ele>
        <time>2025-04-26T12:48:15Z</time>
      </trkpt>
      <trkpt lat="45.56844" lon="-1.06407">
        <ele>58</ele>
        <time>2025-04-26T12:48:16Z</time>
      </trkpt>
      <trkpt lat="45.56847" lon="-1.06404">
        <ele>57</ele>
        <time>2025-04-26T12:48:17Z</time>
      </trkpt>
      <trkpt lat="45.5685" lon="-1.06402">
        <ele>57</ele>
        <time>2025-04-26T12:48:18Z</time>
      </trkpt>
      <trkpt lat="45.56852" lon="-1.064">
        <ele>57</ele>
        <time>2025-04-26T12:48:19Z</time>
      </trkpt>
      <trkpt lat="45.56855" lon="-1.06398">
        <ele>57</ele>
        <time>2025-04-26T12:48:20Z</time>
      </trkpt>
      <trkpt lat="45.56857" lon="-1.06395">
        <ele>57</ele>
        <time>2025-04-26T12:48:21Z</time>
      </trkpt>
      <trkpt lat="45.5686" lon="-1.06393">
        <ele>57</ele>
        <time>2025-04-26T12:48:22Z</time>
      </trkpt>
      <trkpt lat="45.56862" lon="-1.06391">
        <ele>57</ele>
        <time>2025-04-26T12:48:23Z</time>
      </trkpt>
      <trkpt lat="45.56865" lon="-1.06389">
        <ele>57</ele>
        <time>2025-04-26T12:48:24Z</time>
      </trkpt>
      <trkpt lat="45.56868" lon="-1.06386">
        <ele>56</ele>
        <time>2025-04-26T12:48:25Z</time>
      </trkpt>
      <trkpt lat="45.5687" lon="-1.06384">
        <ele>56</ele>
        <time>2025-04-26T12:48:26Z</time>
      </trkpt>
      <trkpt lat="45.56873" lon="-1.06381">
        <ele>56</ele>
        <time>2025-04-26T12:48:27Z</time>
      </trkpt>
      <trkpt lat="45.56876" lon="-1.06379">
        <ele>56</ele>
        <time>2025-04-26T12:48:28Z</time>
      </trkpt>
      <trkpt lat="45.56878" lon="-1.06377">
        <ele>56</ele>
        <time>2025-04-26T12:48:29Z</time>
      </trkpt>
      <trkpt lat="45.56881" lon="-1.06374">
        <ele>56</ele>
        <time>2025-04-26T12:48:30Z</time>
      </trkpt>
      <trkpt lat="45.56884" lon="-1.06371">
        <ele>56</ele>
        <time>2025-04-26T12:48:31Z</time>
      </trkpt>
      <trkpt lat="45.56886" lon="-1.06368">
        <ele>57</ele>
        <time>2025-04-26T12:48:32Z</time>
      </trkpt>
      <trkpt lat="45.56889" lon="-1.06365">
        <ele>57</ele>
        <time>2025-04-26T12:48:33Z</time>
      </trkpt>
      <trkpt lat="45.56891" lon="-1.06362">
        <ele>57</ele>
        <time>2025-04-26T12:48:34Z</time>
      </trkpt>
      <trkpt lat="45.56894" lon="-1.06359">
        <ele>57</ele>
        <time>2025-04-26T12:48:35Z</time>
      </trkpt>
      <trkpt lat="45.56896" lon="-1.06356">
        <ele>56</ele>
        <time>2025-04-26T12:48:36Z</time>
      </trkpt>
      <trkpt lat="45.56899" lon="-1.06353">
        <ele>56</ele>
        <time>2025-04-26T12:48:37Z</time>
      </trkpt>
      <trkpt lat="45.56902" lon="-1.06351">
        <ele>56</ele>
        <time>2025-04-26T12:48:38Z</time>
      </trkpt>
      <trkpt lat="45.56904" lon="-1.06348">
        <ele>56</ele>
        <time>2025-04-26T12:48:39Z</time>
      </trkpt>
      <trkpt lat="45.56906" lon="-1.06346">
        <ele>57</ele>
        <time>2025-04-26T12:48:40Z</time>
      </trkpt>
      <trkpt lat="45.56909" lon="-1.06344">
        <ele>57</ele>
        <time>2025-04-26T12:48:41Z</time>
      </trkpt>
      <trkpt lat="45.56911" lon="-1.06342">
        <ele>57</ele>
        <time>2025-04-26T12:48:42Z</time>
      </trkpt>
      <trkpt lat="45.56913" lon="-1.0634">
        <ele>57</ele>
        <time>2025-04-26T12:48:43Z</time>
      </trkpt>
      <trkpt lat="45.56915" lon="-1.06338">
        <ele>57</ele>
        <time>2025-04-26T12:48:44Z</time>
      </trkpt>
      <trkpt lat="45.56917" lon="-1.06335">
        <ele>58</ele>
        <time>2025-04-26T12:48:45Z</time>
      </trkpt>
      <trkpt lat="45.56918" lon="-1.06333">
        <ele>58</ele>
        <time>2025-04-26T12:48:46Z</time>
      </trkpt>
      <trkpt lat="45.56921" lon="-1.0633">
        <ele>58</ele>
        <time>2025-04-26T12:48:47Z</time>
      </trkpt>
      <trkpt lat="45.56923" lon="-1.06328">
        <ele>58</ele>
        <time>2025-04-26T12:48:48Z</time>
      </trkpt>
      <trkpt lat="45.56924" lon="-1.06327">
        <ele>58</ele>
        <time>2025-04-26T12:48:49Z</time>
      </trkpt>
      <trkpt lat="45.56926" lon="-1.06325">
        <ele>58</ele>
        <time>2025-04-26T12:48:50Z</time>
      </trkpt>
      <trkpt lat="45.56927" lon="-1.06322">
        <ele>57</ele>
        <time>2025-04-26T12:48:51Z</time>
      </trkpt>
      <trkpt lat="45.56928" lon="-1.06319">
        <ele>57</ele>
        <time>2025-04-26T12:48:52Z</time>
      </trkpt>
      <trkpt lat="45.56927" lon="-1.06316">
        <ele>57</ele>
        <time>2025-04-26T12:48:53Z</time>
      </trkpt>
      <trkpt lat="45.56927" lon="-1.06312">
        <ele>58</ele>
        <time>2025-04-26T12:48:54Z</time>
      </trkpt>
      <trkpt lat="45.56927" lon="-1.06309">
        <ele>57</ele>
        <time>2025-04-26T12:48:55Z</time>
      </trkpt>
      <trkpt lat="45.56927" lon="-1.06306">
        <ele>57</ele>
        <time>2025-04-26T12:48:56Z</time>
      </trkpt>
      <trkpt lat="45.56928" lon="-1.06304">
        <ele>57</ele>
        <time>2025-04-26T12:48:57Z</time>
      </trkpt>
      <trkpt lat="45.56928" lon="-1.06301">
        <ele>57</ele>
        <time>2025-04-26T12:48:58Z</time>
      </trkpt>
      <trkpt lat="45.56928" lon="-1.06297">
        <ele>58</ele>
        <time>2025-04-26T12:48:59Z</time>
      </trkpt>
      <trkpt lat="45.56928" lon="-1.06294">
        <ele>58</ele>
        <time>2025-04-26T12:49:00Z</time>
      </trkpt>
      <trkpt lat="45.56928" lon="-1.0629">
        <ele>58</ele>
        <time>2025-04-26T12:49:01Z</time>
      </trkpt>
      <trkpt lat="45.56927" lon="-1.06286">
        <ele>59</ele>
        <time>2025-04-26T12:49:02Z</time>
      </trkpt>
      <trkpt lat="45.56926" lon="-1.06283">
        <ele>60</ele>
        <time>2025-04-26T12:49:03Z</time>
      </trkpt>
      <trkpt lat="45.56925" lon="-1.06279">
        <ele>60</ele>
        <time>2025-04-26T12:49:04Z</time>
      </trkpt>
      <trkpt lat="45.56924" lon="-1.06275">
        <ele>61</ele>
        <time>2025-04-26T12:49:05Z</time>
      </trkpt>
      <trkpt lat="45.56922" lon="-1.06272">
        <ele>61</ele>
        <time>2025-04-26T12:49:06Z</time>
      </trkpt>
      <trkpt lat="45.56919" lon="-1.06268">
        <ele>61</ele>
        <time>2025-04-26T12:49:07Z</time>
      </trkpt>
      <trkpt lat="45.56917" lon="-1.06265">
        <ele>62</ele>
        <time>2025-04-26T12:49:08Z</time>
      </trkpt>
      <trkpt lat="45.56914" lon="-1.06263">
        <ele>62</ele>
        <time>2025-04-26T12:49:09Z</time>
      </trkpt>
      <trkpt lat="45.56912" lon="-1.06261">
        <ele>61</ele>
        <time>2025-04-26T12:49:10Z</time>
      </trkpt>
      <trkpt lat="45.56909" lon="-1.0626">
        <ele>61</ele>
        <time>2025-04-26T12:49:11Z</time>
      </trkpt>
      <trkpt lat="45.56907" lon="-1.06259">
        <ele>61</ele>
        <time>2025-04-26T12:49:12Z</time>
      </trkpt>
      <trkpt lat="45.56904" lon="-1.06258">
        <ele>60</ele>
        <time>2025-04-26T12:49:13Z</time>
      </trkpt>
      <trkpt lat="45.56902" lon="-1.06258">
        <ele>60</ele>
        <time>2025-04-26T12:49:14Z</time>
      </trkpt>
      <trkpt lat="45.569" lon="-1.06259">
        <ele>60</ele>
        <time>2025-04-26T12:49:15Z</time>
      </trkpt>
      <trkpt lat="45.56898" lon="-1.06259">
        <ele>60</ele>
        <time>2025-04-26T12:49:16Z</time>
      </trkpt>
      <trkpt lat="45.56897" lon="-1.06259">
        <ele>60</ele>
        <time>2025-04-26T12:49:17Z</time>
      </trkpt>
      <trkpt lat="45.56895" lon="-1.0626">
        <ele>60</ele>
        <time>2025-04-26T12:49:18Z</time>
      </trkpt>
      <trkpt lat="45.56894" lon="-1.0626">
        <ele>60</ele>
        <time>2025-04-26T12:49:19Z</time>
      </trkpt>
      <trkpt lat="45.56893" lon="-1.0626">
        <ele>61</ele>
        <time>2025-04-26T12:49:20Z</time>
      </trkpt>
      <trkpt lat="45.56893" lon="-1.06261">
        <ele>61</ele>
        <time>2025-04-26T12:49:21Z</time>
      </trkpt>
      <trkpt lat="45.56893" lon="-1.06261">
        <ele>61</ele>
        <time>2025-04-26T12:49:22Z</time>
      </trkpt>
      <trkpt lat="45.56893" lon="-1.06261">
        <ele>61</ele>
        <time>2025-04-26T12:49:23Z</time>
      </trkpt>
      <trkpt lat="45.56893" lon="-1.06261">
        <ele>61</ele>
        <time>2025-04-26T12:49:24Z</time>
      </trkpt>
      <trkpt lat="45.56893" lon="-1.06261">
        <ele>61</ele>
        <time>2025-04-26T12:49:25Z</time>
      </trkpt>
      <trkpt lat="45.56893" lon="-1.06261">
        <ele>61</ele>
        <time>2025-04-26T12:49:26Z</time>
      </trkpt>
      <trkpt lat="45.56893" lon="-1.06261">
        <ele>61</ele>
        <time>2025-04-26T12:49:27Z</time>
      </trkpt>
      <trkpt lat="45.56893" lon="-1.06261">
        <ele>61</ele>
        <time>2025-04-26T12:49:28Z</time>
      </trkpt>
      <trkpt lat="45.56893" lon="-1.06261">
        <ele>61</ele>
        <time>2025-04-26T12:49:29Z</time>
      </trkpt>
      <trkpt lat="45.56893" lon="-1.06261">
        <ele>61</ele>
        <time>2025-04-26T12:49:30Z</time>
      </trkpt>
      <trkpt lat="45.56893" lon="-1.06261">
        <ele>61</ele>
        <time>2025-04-26T12:49:31Z</time>
      </trkpt>
      <trkpt lat="45.56893" lon="-1.06261">
        <ele>61</ele>
        <time>2025-04-26T12:49:32Z</time>
      </trkpt>
      <trkpt lat="45.56893" lon="-1.06261">
        <ele>61</ele>
        <time>2025-04-26T12:49:33Z</time>
      </trkpt>
      <trkpt lat="45.56893" lon="-1.06261">
        <ele>61</ele>
        <time>2025-04-26T12:49:34Z</time>
      </trkpt>
      <trkpt lat="45.56893" lon="-1.06261">
        <ele>61</ele>
        <time>2025-04-26T12:49:35Z</time>
      </trkpt>
      <trkpt lat="45.56893" lon="-1.06261">
        <ele>61</ele>
        <time>2025-04-26T12:49:36Z</time>
      </trkpt>
      <trkpt lat="45.56893" lon="-1.06261">
        <ele>61</ele>
        <time>2025-04-26T12:49:37Z</time>
      </trkpt>
      <trkpt lat="45.56893" lon="-1.06261">
        <ele>61</ele>
        <time>2025-04-26T12:49:38Z</time>
      </trkpt>
      <trkpt lat="45.56893" lon="-1.06261">
        <ele>61</ele>
        <time>2025-04-26T12:49:39Z</time>
      </trkpt>
      <trkpt lat="45.56893" lon="-1.06261">
        <ele>61</ele>
        <time>2025-04-26T12:49:40Z</time>
      </trkpt>
      <trkpt lat="45.56893" lon="-1.06261">
        <ele>61</ele>
        <time>2025-04-26T12:49:41Z</time>
      </trkpt>
      <trkpt lat="45.56893" lon="-1.06261">
        <ele>61</ele>
        <time>2025-04-26T12:49:42Z</time>
      </trkpt>
      <trkpt lat="45.56893" lon="-1.06261">
        <ele>61</ele>
        <time>2025-04-26T12:49:43Z</time>
      </trkpt>
      <trkpt lat="45.56893" lon="-1.06261">
        <ele>61</ele>
        <time>2025-04-26T12:49:44Z</time>
      </trkpt>
      <trkpt lat="45.56893" lon="-1.06261">
        <ele>61</ele>
        <time>2025-04-26T12:49:45Z</time>
      </trkpt>
      <trkpt lat="45.56893" lon="-1.06261">
        <ele>61</ele>
        <time>2025-04-26T12:49:46Z</time>
      </trkpt>
      <trkpt lat="45.56893" lon="-1.06261">
        <ele>61</ele>
        <time>2025-04-26T12:49:47Z</time>
      </trkpt>
      <trkpt lat="45.56893" lon="-1.06261">
        <ele>61</ele>
        <time>2025-04-26T12:49:48Z</time>
      </trkpt>
      <trkpt lat="45.56893" lon="-1.06261">
        <ele>61</ele>
        <time>2025-04-26T12:49:49Z</time>
      </trkpt>
      <trkpt lat="45.56893" lon="-1.06261">
        <ele>61</ele>
        <time>2025-04-26T12:49:50Z</time>
      </trkpt>
      <trkpt lat="45.56893" lon="-1.06261">
        <ele>61</ele>
        <time>2025-04-26T12:49:51Z</time>
      </trkpt>
      <trkpt lat="45.56892" lon="-1.06262">
        <ele>62</ele>
        <time>2025-04-26T12:49:52Z</time>
      </trkpt>
      <trkpt lat="45.56892" lon="-1.06264">
        <ele>62</ele>
        <time>2025-04-26T12:49:53Z</time>
      </trkpt>
      <trkpt lat="45.56891" lon="-1.06266">
        <ele>62</ele>
        <time>2025-04-26T12:49:54Z</time>
      </trkpt>
      <trkpt lat="45.56891" lon="-1.06268">
        <ele>62</ele>
        <time>2025-04-26T12:49:55Z</time>
      </trkpt>
      <trkpt lat="45.56891" lon="-1.06271">
        <ele>62</ele>
        <time>2025-04-26T12:49:56Z</time>
      </trkpt>
      <trkpt lat="45.56891" lon="-1.06273">
        <ele>62</ele>
        <time>2025-04-26T12:49:57Z</time>
      </trkpt>
      <trkpt lat="45.5689" lon="-1.06274">
        <ele>62</ele>
        <time>2025-04-26T12:49:58Z</time>
      </trkpt>
      <trkpt lat="45.56889" lon="-1.06276">
        <ele>62</ele>
        <time>2025-04-26T12:49:59Z</time>
      </trkpt>
      <trkpt lat="45.56888" lon="-1.06277">
        <ele>62</ele>
        <time>2025-04-26T12:50:00Z</time>
      </trkpt>
      <trkpt lat="45.56887" lon="-1.06277">
        <ele>62</ele>
        <time>2025-04-26T12:50:01Z</time>
      </trkpt>
      <trkpt lat="45.56886" lon="-1.06278">
        <ele>62</ele>
        <time>2025-04-26T12:50:02Z</time>
      </trkpt>
      <trkpt lat="45.56885" lon="-1.06278">
        <ele>62</ele>
        <time>2025-04-26T12:50:03Z</time>
      </trkpt>
      <trkpt lat="45.56885" lon="-1.06279">
        <ele>61</ele>
        <time>2025-04-26T12:50:04Z</time>
      </trkpt>
      <trkpt lat="45.56884" lon="-1.0628">
        <ele>61</ele>
        <time>2025-04-26T12:50:05Z</time>
      </trkpt>
      <trkpt lat="45.56884" lon="-1.0628">
        <ele>61</ele>
        <time>2025-04-26T12:50:06Z</time>
      </trkpt>
      <trkpt lat="45.56884" lon="-1.0628">
        <ele>61</ele>
        <time>2025-04-26T12:50:07Z</time>
      </trkpt>
      <trkpt lat="45.56884" lon="-1.0628">
        <ele>61</ele>
        <time>2025-04-26T12:50:08Z</time>
      </trkpt>
      <trkpt lat="45.56884" lon="-1.0628">
        <ele>61</ele>
        <time>2025-04-26T12:50:09Z</time>
      </trkpt>
      <trkpt lat="45.56884" lon="-1.0628">
        <ele>61</ele>
        <time>2025-04-26T12:50:10Z</time>
      </trkpt>
      <trkpt lat="45.56884" lon="-1.0628">
        <ele>61</ele>
        <time>2025-04-26T12:50:11Z</time>
      </trkpt>
      <trkpt lat="45.56884" lon="-1.0628">
        <ele>61</ele>
        <time>2025-04-26T12:50:12Z</time>
      </trkpt>
      <trkpt lat="45.56884" lon="-1.0628">
        <ele>61</ele>
        <time>2025-04-26T12:50:13Z</time>
      </trkpt>
      <trkpt lat="45.56884" lon="-1.0628">
        <ele>61</ele>
        <time>2025-04-26T12:50:14Z</time>
      </trkpt>
      <trkpt lat="45.56884" lon="-1.0628">
        <ele>61</ele>
        <time>2025-04-26T12:50:15Z</time>
      </trkpt>
      <trkpt lat="45.56884" lon="-1.0628">
        <ele>61</ele>
        <time>2025-04-26T12:50:16Z</time>
      </trkpt>
      <trkpt lat="45.56884" lon="-1.0628">
        <ele>61</ele>
        <time>2025-04-26T12:50:17Z</time>
      </trkpt>
      <trkpt lat="45.56884" lon="-1.0628">
        <ele>61</ele>
        <time>2025-04-26T12:50:18Z</time>
      </trkpt>
      <trkpt lat="45.56884" lon="-1.0628">
        <ele>61</ele>
        <time>2025-04-26T12:50:19Z</time>
      </trkpt>
      <trkpt lat="45.56884" lon="-1.0628">
        <ele>61</ele>
        <time>2025-04-26T12:50:20Z</time>
      </trkpt>
      <trkpt lat="45.56884" lon="-1.0628">
        <ele>61</ele>
        <time>2025-04-26T12:50:21Z</time>
      </trkpt>
      <trkpt lat="45.56884" lon="-1.0628">
        <ele>61</ele>
        <time>2025-04-26T12:50:22Z</time>
      </trkpt>
      <trkpt lat="45.56884" lon="-1.0628">
        <ele>61</ele>
        <time>2025-04-26T12:50:23Z</time>
      </trkpt>
      <trkpt lat="45.56884" lon="-1.0628">
        <ele>61</ele>
        <time>2025-04-26T12:50:24Z</time>
      </trkpt>
      <trkpt lat="45.56884" lon="-1.0628">
        <ele>61</ele>
        <time>2025-04-26T12:50:25Z</time>
      </trkpt>
      <trkpt lat="45.56884" lon="-1.0628">
        <ele>61</ele>
        <time>2025-04-26T12:50:26Z</time>
      </trkpt>
      <trkpt lat="45.56884" lon="-1.0628">
        <ele>61</ele>
        <time>2025-04-26T12:50:27Z</time>
      </trkpt>
      <trkpt lat="45.56884" lon="-1.0628">
        <ele>61</ele>
        <time>2025-04-26T12:50:28Z</time>
      </trkpt>
      <trkpt lat="45.56884" lon="-1.0628">
        <ele>61</ele>
        <time>2025-04-26T12:50:29Z</time>
      </trkpt>
      <trkpt lat="45.56884" lon="-1.0628">
        <ele>61</ele>
        <time>2025-04-26T12:50:30Z</time>
      </trkpt>
      <trkpt lat="45.56884" lon="-1.0628">
        <ele>61</ele>
        <time>2025-04-26T12:54:04Z</time>
      </trkpt>
      <trkpt lat="45.56884" lon="-1.0628">
        <ele>61</ele>
        <time>2025-04-26T12:54:05Z</time>
      </trkpt>
      <trkpt lat="45.56884" lon="-1.0628">
        <ele>61</ele>
        <time>2025-04-26T12:54:06Z</time>
      </trkpt>
      <trkpt lat="45.56884" lon="-1.0628">
        <ele>61</ele>
        <time>2025-04-26T12:54:07Z</time>
      </trkpt>
      <trkpt lat="45.56884" lon="-1.0628">
        <ele>61</ele>
        <time>2025-04-26T12:54:08Z</time>
      </trkpt>
      <trkpt lat="45.56884" lon="-1.0628">
        <ele>61</ele>
        <time>2025-04-26T12:54:09Z</time>
      </trkpt>
      <trkpt lat="45.56884" lon="-1.0628">
        <ele>61</ele>
        <time>2025-04-26T12:54:10Z</time>
      </trkpt>
      <trkpt lat="45.56876" lon="-1.06283">
        <ele>62</ele>
        <time>2025-04-26T12:54:11Z</time>
      </trkpt>
      <trkpt lat="45.56874" lon="-1.06283">
        <ele>61</ele>
        <time>2025-04-26T12:54:12Z</time>
      </trkpt>
      <trkpt lat="45.56873" lon="-1.06283">
        <ele>61</ele>
        <time>2025-04-26T12:54:13Z</time>
      </trkpt>
      <trkpt lat="45.56873" lon="-1.06283">
        <ele>61</ele>
        <time>2025-04-26T12:54:14Z</time>
      </trkpt>
      <trkpt lat="45.56873" lon="-1.06283">
        <ele>61</ele>
        <time>2025-04-26T12:54:15Z</time>
      </trkpt>
      <trkpt lat="45.56873" lon="-1.06283">
        <ele>61</ele>
        <time>2025-04-26T12:54:16Z</time>
      </trkpt>
      <trkpt lat="45.56873" lon="-1.06283">
        <ele>61</ele>
        <time>2025-04-26T12:54:17Z</time>
      </trkpt>
      <trkpt lat="45.56873" lon="-1.06283">
        <ele>61</ele>
        <time>2025-04-26T12:54:18Z</time>
      </trkpt>
      <trkpt lat="45.56873" lon="-1.06283">
        <ele>61</ele>
        <time>2025-04-26T12:54:19Z</time>
      </trkpt>
      <trkpt lat="45.56873" lon="-1.06283">
        <ele>61</ele>
        <time>2025-04-26T12:54:20Z</time>
      </trkpt>
      <trkpt lat="45.56873" lon="-1.06283">
        <ele>61</ele>
        <time>2025-04-26T12:54:21Z</time>
      </trkpt>
      <trkpt lat="45.56866" lon="-1.06289">
        <ele>60</ele>
        <time>2025-04-26T12:54:22Z</time>
      </trkpt>
      <trkpt lat="45.56865" lon="-1.06292">
        <ele>61</ele>
        <time>2025-04-26T12:54:23Z</time>
      </trkpt>
      <trkpt lat="45.56863" lon="-1.06293">
        <ele>61</ele>
        <time>2025-04-26T12:54:24Z</time>
      </trkpt>
      <trkpt lat="45.56862" lon="-1.06295">
        <ele>62</ele>
        <time>2025-04-26T12:54:25Z</time>
      </trkpt>
      <trkpt lat="45.56861" lon="-1.06296">
        <ele>63</ele>
        <time>2025-04-26T12:54:26Z</time>
      </trkpt>
      <trkpt lat="45.5686" lon="-1.06296">
        <ele>62</ele>
        <time>2025-04-26T12:54:27Z</time>
      </trkpt>
      <trkpt lat="45.56858" lon="-1.06296">
        <ele>62</ele>
        <time>2025-04-26T12:54:28Z</time>
      </trkpt>
      <trkpt lat="45.56857" lon="-1.06297">
        <ele>62</ele>
        <time>2025-04-26T12:54:29Z</time>
      </trkpt>
      <trkpt lat="45.56856" lon="-1.06298">
        <ele>62</ele>
        <time>2025-04-26T12:54:30Z</time>
      </trkpt>
      <trkpt lat="45.56854" lon="-1.063">
        <ele>62</ele>
        <time>2025-04-26T12:54:31Z</time>
      </trkpt>
      <trkpt lat="45.56852" lon="-1.06301">
        <ele>61</ele>
        <time>2025-04-26T12:54:32Z</time>
      </trkpt>
      <trkpt lat="45.5685" lon="-1.06303">
        <ele>61</ele>
        <time>2025-04-26T12:54:33Z</time>
      </trkpt>
      <trkpt lat="45.56848" lon="-1.06305">
        <ele>61</ele>
        <time>2025-04-26T12:54:34Z</time>
      </trkpt>
      <trkpt lat="45.56846" lon="-1.06308">
        <ele>61</ele>
        <time>2025-04-26T12:54:35Z</time>
      </trkpt>
      <trkpt lat="45.56843" lon="-1.06311">
        <ele>61</ele>
        <time>2025-04-26T12:54:36Z</time>
      </trkpt>
      <trkpt lat="45.56841" lon="-1.06314">
        <ele>62</ele>
        <time>2025-04-26T12:54:37Z</time>
      </trkpt>
      <trkpt lat="45.56839" lon="-1.06317">
        <ele>61</ele>
        <time>2025-04-26T12:54:38Z</time>
      </trkpt>
      <trkpt lat="45.56837" lon="-1.06321">
        <ele>61</ele>
        <time>2025-04-26T12:54:39Z</time>
      </trkpt>
      <trkpt lat="45.56836" lon="-1.06324">
        <ele>61</ele>
        <time>2025-04-26T12:54:40Z</time>
      </trkpt>
      <trkpt lat="45.56834" lon="-1.06328">
        <ele>61</ele>
        <time>2025-04-26T12:54:41Z</time>
      </trkpt>
      <trkpt lat="45.56833" lon="-1.06332">
        <ele>61</ele>
        <time>2025-04-26T12:54:42Z</time>
      </trkpt>
      <trkpt lat="45.56831" lon="-1.06335">
        <ele>60</ele>
        <time>2025-04-26T12:54:43Z</time>
      </trkpt>
      <trkpt lat="45.5683" lon="-1.06339">
        <ele>61</ele>
        <time>2025-04-26T12:54:44Z</time>
      </trkpt>
      <trkpt lat="45.56828" lon="-1.06342">
        <ele>60</ele>
        <time>2025-04-26T12:54:45Z</time>
      </trkpt>
      <trkpt lat="45.56826" lon="-1.06346">
        <ele>61</ele>
        <time>2025-04-26T12:54:46Z</time>
      </trkpt>
      <trkpt lat="45.56824" lon="-1.0635">
        <ele>61</ele>
        <time>2025-04-26T12:54:47Z</time>
      </trkpt>
      <trkpt lat="45.56823" lon="-1.06354">
        <ele>61</ele>
        <time>2025-04-26T12:54:48Z</time>
      </trkpt>
      <trkpt lat="45.56821" lon="-1.06358">
        <ele>61</ele>
        <time>2025-04-26T12:54:49Z</time>
      </trkpt>
      <trkpt lat="45.56819" lon="-1.06362">
        <ele>62</ele>
        <time>2025-04-26T12:54:50Z</time>
      </trkpt>
      <trkpt lat="45.56817" lon="-1.06366">
        <ele>62</ele>
        <time>2025-04-26T12:54:51Z</time>
      </trkpt>
      <trkpt lat="45.56816" lon="-1.06369">
        <ele>61</ele>
        <time>2025-04-26T12:54:52Z</time>
      </trkpt>
      <trkpt lat="45.56814" lon="-1.06372">
        <ele>61</ele>
        <time>2025-04-26T12:54:53Z</time>
      </trkpt>
      <trkpt lat="45.56813" lon="-1.06376">
        <ele>61</ele>
        <time>2025-04-26T12:54:54Z</time>
      </trkpt>
      <trkpt lat="45.56811" lon="-1.0638">
        <ele>61</ele>
        <time>2025-04-26T12:54:55Z</time>
      </trkpt>
      <trkpt lat="45.5681" lon="-1.06384">
        <ele>61</ele>
        <time>2025-04-26T12:54:56Z</time>
      </trkpt>
      <trkpt lat="45.56808" lon="-1.06387">
        <ele>61</ele>
        <time>2025-04-26T12:54:57Z</time>
      </trkpt>
      <trkpt lat="45.56806" lon="-1.06391">
        <ele>62</ele>
        <time>2025-04-26T12:54:58Z</time>
      </trkpt>
      <trkpt lat="45.56804" lon="-1.06395">
        <ele>62</ele>
        <time>2025-04-26T12:54:59Z</time>
      </trkpt>
      <trkpt lat="45.56803" lon="-1.06398">
        <ele>62</ele>
        <time>2025-04-26T12:55:00Z</time>
      </trkpt>
      <trkpt lat="45.56802" lon="-1.06401">
        <ele>62</ele>
        <time>2025-04-26T12:55:01Z</time>
      </trkpt>
      <trkpt lat="45.56801" lon="-1.06404">
        <ele>62</ele>
        <time>2025-04-26T12:55:02Z</time>
      </trkpt>
      <trkpt lat="45.568" lon="-1.06406">
        <ele>61</ele>
        <time>2025-04-26T12:55:03Z</time>
      </trkpt>
      <trkpt lat="45.56798" lon="-1.06409">
        <ele>62</ele>
        <time>2025-04-26T12:55:04Z</time>
      </trkpt>
      <trkpt lat="45.56797" lon="-1.06411">
        <ele>62</ele>
        <time>2025-04-26T12:55:05Z</time>
      </trkpt>
      <trkpt lat="45.56796" lon="-1.06413">
        <ele>61</ele>
        <time>2025-04-26T12:55:06Z</time>
      </trkpt>
      <trkpt lat="45.56795" lon="-1.06416">
        <ele>62</ele>
        <time>2025-04-26T12:55:07Z</time>
      </trkpt>
      <trkpt lat="45.56794" lon="-1.06419">
        <ele>62</ele>
        <time>2025-04-26T12:55:08Z</time>
      </trkpt>
      <trkpt lat="45.56793" lon="-1.06421">
        <ele>62</ele>
        <time>2025-04-26T12:55:09Z</time>
      </trkpt>
      <trkpt lat="45.56791" lon="-1.06423">
        <ele>62</ele>
        <time>2025-04-26T12:55:10Z</time>
      </trkpt>
      <trkpt lat="45.5679" lon="-1.06424">
        <ele>62</ele>
        <time>2025-04-26T12:55:11Z</time>
      </trkpt>
      <trkpt lat="45.56789" lon="-1.06425">
        <ele>62</ele>
        <time>2025-04-26T12:55:12Z</time>
      </trkpt>
      <trkpt lat="45.56787" lon="-1.06425">
        <ele>63</ele>
        <time>2025-04-26T12:55:13Z</time>
      </trkpt>
      <trkpt lat="45.56786" lon="-1.06425">
        <ele>63</ele>
        <time>2025-04-26T12:55:14Z</time>
      </trkpt>
      <trkpt lat="45.56784" lon="-1.06425">
        <ele>63</ele>
        <time>2025-04-26T12:55:15Z</time>
      </trkpt>
      <trkpt lat="45.56783" lon="-1.06425">
        <ele>63</ele>
        <time>2025-04-26T12:55:16Z</time>
      </trkpt>
      <trkpt lat="45.56782" lon="-1.06425">
        <ele>62</ele>
        <time>2025-04-26T12:55:17Z</time>
      </trkpt>
      <trkpt lat="45.5678" lon="-1.06425">
        <ele>62</ele>
        <time>2025-04-26T12:55:18Z</time>
      </trkpt>
      <trkpt lat="45.56779" lon="-1.06424">
        <ele>62</ele>
        <time>2025-04-26T12:55:19Z</time>
      </trkpt>
      <trkpt lat="45.56778" lon="-1.06424">
        <ele>62</ele>
        <time>2025-04-26T12:55:20Z</time>
      </trkpt>
      <trkpt lat="45.56778" lon="-1.06424">
        <ele>62</ele>
        <time>2025-04-26T12:55:21Z</time>
      </trkpt>
      <trkpt lat="45.56778" lon="-1.06424">
        <ele>62</ele>
        <time>2025-04-26T12:55:22Z</time>
      </trkpt>
      <trkpt lat="45.56778" lon="-1.06424">
        <ele>62</ele>
        <time>2025-04-26T12:55:23Z</time>
      </trkpt>
      <trkpt lat="45.56778" lon="-1.06424">
        <ele>62</ele>
        <time>2025-04-26T12:55:24Z</time>
      </trkpt>
      <trkpt lat="45.56778" lon="-1.06424">
        <ele>62</ele>
        <time>2025-04-26T12:55:25Z</time>
      </trkpt>
      <trkpt lat="45.56778" lon="-1.06424">
        <ele>62</ele>
        <time>2025-04-26T12:55:26Z</time>
      </trkpt>
      <trkpt lat="45.56778" lon="-1.06424">
        <ele>62</ele>
        <time>2025-04-26T12:55:27Z</time>
      </trkpt>
      <trkpt lat="45.56778" lon="-1.06424">
        <ele>62</ele>
        <time>2025-04-26T12:55:28Z</time>
      </trkpt>
      <trkpt lat="45.56778" lon="-1.06424">
        <ele>62</ele>
        <time>2025-04-26T12:55:29Z</time>
      </trkpt>
      <trkpt lat="45.56778" lon="-1.06424">
        <ele>62</ele>
        <time>2025-04-26T12:55:30Z</time>
      </trkpt>
      <trkpt lat="45.56778" lon="-1.06424">
        <ele>62</ele>
        <time>2025-04-26T12:55:31Z</time>
      </trkpt>
      <trkpt lat="45.56778" lon="-1.06424">
        <ele>62</ele>
        <time>2025-04-26T12:55:32Z</time>
      </trkpt>
      <trkpt lat="45.56779" lon="-1.06424">
        <ele>62</ele>
        <time>2025-04-26T12:55:33Z</time>
      </trkpt>
      <trkpt lat="45.56779" lon="-1.06424">
        <ele>62</ele>
        <time>2025-04-26T12:55:34Z</time>
      </trkpt>
      <trkpt lat="45.5682" lon="-1.06356">
        <ele>62</ele>
        <time>2025-04-26T13:26:37Z</time>
      </trkpt>
      <trkpt lat="45.56794" lon="-1.06369">
        <ele>23</ele>
        <time>2025-04-26T13:26:42Z</time>
      </trkpt>
      <trkpt lat="45.56792" lon="-1.06367">
        <ele>24</ele>
        <time>2025-04-26T13:26:43Z</time>
      </trkpt>
      <trkpt lat="45.56791" lon="-1.06367">
        <ele>25</ele>
        <time>2025-04-26T13:26:44Z</time>
      </trkpt>
      <trkpt lat="45.56791" lon="-1.06365">
        <ele>26</ele>
        <time>2025-04-26T13:26:45Z</time>
      </trkpt>
      <trkpt lat="45.56789" lon="-1.06365">
        <ele>25</ele>
        <time>2025-04-26T13:26:46Z</time>
      </trkpt>
      <trkpt lat="45.56788" lon="-1.06365">
        <ele>25</ele>
        <time>2025-04-26T13:26:48Z</time>
      </trkpt>
      <trkpt lat="45.56788" lon="-1.06364">
        <ele>25</ele>
        <time>2025-04-26T13:26:49Z</time>
      </trkpt>
      <trkpt lat="45.56788" lon="-1.06364">
        <ele>25</ele>
        <time>2025-04-26T13:26:50Z</time>
      </trkpt>
      <trkpt lat="45.56788" lon="-1.06364">
        <ele>26</ele>
        <time>2025-04-26T13:26:51Z</time>
      </trkpt>
      <trkpt lat="45.56788" lon="-1.06363">
        <ele>26</ele>
        <time>2025-04-26T13:26:52Z</time>
      </trkpt>
      <trkpt lat="45.56788" lon="-1.06363">
        <ele>26</ele>
        <time>2025-04-26T13:26:53Z</time>
      </trkpt>
      <trkpt lat="45.56788" lon="-1.06363">
        <ele>26</ele>
        <time>2025-04-26T13:26:54Z</time>
      </trkpt>
      <trkpt lat="45.56788" lon="-1.06363">
        <ele>27</ele>
        <time>2025-04-26T13:26:55Z</time>
      </trkpt>
      <trkpt lat="45.56789" lon="-1.06363">
        <ele>28</ele>
        <time>2025-04-26T13:26:56Z</time>
      </trkpt>
      <trkpt lat="45.56789" lon="-1.06362">
        <ele>29</ele>
        <time>2025-04-26T13:26:57Z</time>
      </trkpt>
      <trkpt lat="45.56789" lon="-1.06362">
        <ele>29</ele>
        <time>2025-04-26T13:26:58Z</time>
      </trkpt>
      <trkpt lat="45.56789" lon="-1.06362">
        <ele>30</ele>
        <time>2025-04-26T13:26:59Z</time>
      </trkpt>
      <trkpt lat="45.56789" lon="-1.06362">
        <ele>31</ele>
        <time>2025-04-26T13:27:00Z</time>
      </trkpt>
      <trkpt lat="45.56789" lon="-1.06361">
        <ele>31</ele>
        <time>2025-04-26T13:27:01Z</time>
      </trkpt>
      <trkpt lat="45.5679" lon="-1.06361">
        <ele>32</ele>
        <time>2025-04-26T13:27:02Z</time>
      </trkpt>
      <trkpt lat="45.5679" lon="-1.06361">
        <ele>32</ele>
        <time>2025-04-26T13:27:03Z</time>
      </trkpt>
      <trkpt lat="45.56789" lon="-1.06361">
        <ele>32</ele>
        <time>2025-04-26T13:27:04Z</time>
      </trkpt>
      <trkpt lat="45.56789" lon="-1.06361">
        <ele>32</ele>
        <time>2025-04-26T13:27:05Z</time>
      </trkpt>
      <trkpt lat="45.5679" lon="-1.06361">
        <ele>32</ele>
        <time>2025-04-26T13:27:06Z</time>
      </trkpt>
      <trkpt lat="45.5679" lon="-1.06361">
        <ele>32</ele>
        <time>2025-04-26T13:27:07Z</time>
      </trkpt>
      <trkpt lat="45.5679" lon="-1.06361">
        <ele>32</ele>
        <time>2025-04-26T13:27:08Z</time>
      </trkpt>
      <trkpt lat="45.56789" lon="-1.06361">
        <ele>32</ele>
        <time>2025-04-26T13:27:09Z</time>
      </trkpt>
      <trkpt lat="45.56789" lon="-1.06361">
        <ele>32</ele>
        <time>2025-04-26T13:27:10Z</time>
      </trkpt>
      <trkpt lat="45.56789" lon="-1.06361">
        <ele>32</ele>
        <time>2025-04-26T13:27:11Z</time>
      </trkpt>
      <trkpt lat="45.56789" lon="-1.06361">
        <ele>32</ele>
        <time>2025-04-26T13:27:12Z</time>
      </trkpt>
      <trkpt lat="45.56789" lon="-1.06361">
        <ele>32</ele>
        <time>2025-04-26T13:27:13Z</time>
      </trkpt>
      <trkpt lat="45.56789" lon="-1.06361">
        <ele>32</ele>
        <time>2025-04-26T13:27:14Z</time>
      </trkpt>
      <trkpt lat="45.56789" lon="-1.06361">
        <ele>32</ele>
        <time>2025-04-26T13:27:15Z</time>
      </trkpt>
      <trkpt lat="45.56789" lon="-1.06361">
        <ele>32</ele>
        <time>2025-04-26T13:27:16Z</time>
      </trkpt>
      <trkpt lat="45.56789" lon="-1.06361">
        <ele>32</ele>
        <time>2025-04-26T13:27:17Z</time>
      </trkpt>
      <trkpt lat="45.56789" lon="-1.06361">
        <ele>32</ele>
        <time>2025-04-26T13:27:18Z</time>
      </trkpt>
      <trkpt lat="45.56789" lon="-1.06361">
        <ele>32</ele>
        <time>2025-04-26T13:27:19Z</time>
      </trkpt>
      <trkpt lat="45.56789" lon="-1.06361">
        <ele>32</ele>
        <time>2025-04-26T13:27:20Z</time>
      </trkpt>
      <trkpt lat="45.56789" lon="-1.06361">
        <ele>32</ele>
        <time>2025-04-26T13:27:21Z</time>
      </trkpt>
      <trkpt lat="45.56789" lon="-1.06361">
        <ele>32</ele>
        <time>2025-04-26T13:27:22Z</time>
      </trkpt>
      <trkpt lat="45.56789" lon="-1.06361">
        <ele>32</ele>
        <time>2025-04-26T13:27:23Z</time>
      </trkpt>
      <trkpt lat="45.56789" lon="-1.06361">
        <ele>32</ele>
        <time>2025-04-26T13:27:24Z</time>
      </trkpt>
      <trkpt lat="45.56789" lon="-1.06361">
        <ele>32</ele>
        <time>2025-04-26T13:27:25Z</time>
      </trkpt>
      <trkpt lat="45.56789" lon="-1.06361">
        <ele>32</ele>
        <time>2025-04-26T13:27:26Z</time>
      </trkpt>
      <trkpt lat="45.56789" lon="-1.06361">
        <ele>32</ele>
        <time>2025-04-26T13:27:27Z</time>
      </trkpt>
      <trkpt lat="45.56789" lon="-1.06361">
        <ele>32</ele>
        <time>2025-04-26T13:27:28Z</time>
      </trkpt>
      <trkpt lat="45.56789" lon="-1.06361">
        <ele>32</ele>
        <time>2025-04-26T13:27:29Z</time>
      </trkpt>
      <trkpt lat="45.56789" lon="-1.06361">
        <ele>32</ele>
        <time>2025-04-26T13:27:30Z</time>
      </trkpt>
      <trkpt lat="45.56789" lon="-1.06361">
        <ele>32</ele>
        <time>2025-04-26T13:27:31Z</time>
      </trkpt>
      <trkpt lat="45.56789" lon="-1.06361">
        <ele>32</ele>
        <time>2025-04-26T13:27:32Z</time>
      </trkpt>
      <trkpt lat="45.56789" lon="-1.06361">
        <ele>32</ele>
        <time>2025-04-26T13:27:33Z</time>
      </trkpt>
      <trkpt lat="45.56789" lon="-1.06361">
        <ele>32</ele>
        <time>2025-04-26T13:27:34Z</time>
      </trkpt>
      <trkpt lat="45.56789" lon="-1.06361">
        <ele>32</ele>
        <time>2025-04-26T13:27:35Z</time>
      </trkpt>
      <trkpt lat="45.56789" lon="-1.06361">
        <ele>32</ele>
        <time>2025-04-26T13:27:36Z</time>
      </trkpt>
      <trkpt lat="45.56789" lon="-1.06361">
        <ele>32</ele>
        <time>2025-04-26T13:27:37Z</time>
      </trkpt>
      <trkpt lat="45.56789" lon="-1.06361">
        <ele>32</ele>
        <time>2025-04-26T13:27:38Z</time>
      </trkpt>
      <trkpt lat="45.56789" lon="-1.06361">
        <ele>32</ele>
        <time>2025-04-26T13:27:39Z</time>
      </trkpt>
      <trkpt lat="45.56789" lon="-1.06361">
        <ele>32</ele>
        <time>2025-04-26T13:27:40Z</time>
      </trkpt>
      <trkpt lat="45.56789" lon="-1.06361">
        <ele>32</ele>
        <time>2025-04-26T13:27:41Z</time>
      </trkpt>
      <trkpt lat="45.56789" lon="-1.06361">
        <ele>32</ele>
        <time>2025-04-26T13:27:42Z</time>
      </trkpt>
      <trkpt lat="45.56789" lon="-1.06361">
        <ele>32</ele>
        <time>2025-04-26T13:27:43Z</time>
      </trkpt>
      <trkpt lat="45.56789" lon="-1.06361">
        <ele>32</ele>
        <time>2025-04-26T13:27:44Z</time>
      </trkpt>
      <trkpt lat="45.56789" lon="-1.06361">
        <ele>32</ele>
        <time>2025-04-26T13:27:45Z</time>
      </trkpt>
      <trkpt lat="45.56789" lon="-1.06361">
        <ele>32</ele>
        <time>2025-04-26T13:27:46Z</time>
      </trkpt>
      <trkpt lat="45.56789" lon="-1.06361">
        <ele>32</ele>
        <time>2025-04-26T13:27:47Z</time>
      </trkpt>
      <trkpt lat="45.56789" lon="-1.06361">
        <ele>32</ele>
        <time>2025-04-26T13:27:48Z</time>
      </trkpt>
      <trkpt lat="45.56789" lon="-1.06361">
        <ele>32</ele>
        <time>2025-04-26T13:27:49Z</time>
      </trkpt>
      <trkpt lat="45.56789" lon="-1.06361">
        <ele>32</ele>
        <time>2025-04-26T13:27:50Z</time>
      </trkpt>
      <trkpt lat="45.56789" lon="-1.06361">
        <ele>32</ele>
        <time>2025-04-26T13:27:51Z</time>
      </trkpt>
      <trkpt lat="45.56789" lon="-1.06361">
        <ele>32</ele>
        <time>2025-04-26T13:27:52Z</time>
      </trkpt>
      <trkpt lat="45.56789" lon="-1.06361">
        <ele>32</ele>
        <time>2025-04-26T13:27:53Z</time>
      </trkpt>
      <trkpt lat="45.56789" lon="-1.06361">
        <ele>32</ele>
        <time>2025-04-26T13:27:54Z</time>
      </trkpt>
      <trkpt lat="45.56789" lon="-1.06361">
        <ele>32</ele>
        <time>2025-04-26T13:27:55Z</time>
      </trkpt>
      <trkpt lat="45.56789" lon="-1.06361">
        <ele>32</ele>
        <time>2025-04-26T13:27:56Z</time>
      </trkpt>
      <trkpt lat="45.56789" lon="-1.06361">
        <ele>32</ele>
        <time>2025-04-26T13:27:57Z</time>
      </trkpt>
      <trkpt lat="45.56789" lon="-1.06361">
        <ele>32</ele>
        <time>2025-04-26T13:27:58Z</time>
      </trkpt>
      <trkpt lat="45.56789" lon="-1.06361">
        <ele>32</ele>
        <time>2025-04-26T13:27:59Z</time>
      </trkpt>
      <trkpt lat="45.56789" lon="-1.06361">
        <ele>32</ele>
        <time>2025-04-26T13:28:00Z</time>
      </trkpt>
      <trkpt lat="45.56789" lon="-1.06361">
        <ele>32</ele>
        <time>2025-04-26T13:28:01Z</time>
      </trkpt>
      <trkpt lat="45.56789" lon="-1.06361">
        <ele>32</ele>
        <time>2025-04-26T13:28:02Z</time>
      </trkpt>
      <trkpt lat="45.56789" lon="-1.06361">
        <ele>32</ele>
        <time>2025-04-26T13:28:03Z</time>
      </trkpt>
      <trkpt lat="45.56789" lon="-1.06361">
        <ele>32</ele>
        <time>2025-04-26T13:28:04Z</time>
      </trkpt>
      <trkpt lat="45.56789" lon="-1.06361">
        <ele>32</ele>
        <time>2025-04-26T13:28:05Z</time>
      </trkpt>
      <trkpt lat="45.56789" lon="-1.06361">
        <ele>32</ele>
        <time>2025-04-26T13:28:06Z</time>
      </trkpt>
      <trkpt lat="45.56789" lon="-1.06361">
        <ele>32</ele>
        <time>2025-04-26T13:28:07Z</time>
      </trkpt>
      <trkpt lat="45.56789" lon="-1.06361">
        <ele>32</ele>
        <time>2025-04-26T13:28:08Z</time>
      </trkpt>
      <trkpt lat="45.56789" lon="-1.06361">
        <ele>32</ele>
        <time>2025-04-26T13:30:35Z</time>
      </trkpt>
      <trkpt lat="45.56789" lon="-1.06361">
        <ele>32</ele>
        <time>2025-04-26T13:30:36Z</time>
      </trkpt>
      <trkpt lat="45.56789" lon="-1.06361">
        <ele>32</ele>
        <time>2025-04-26T13:30:37Z</time>
      </trkpt>
      <trkpt lat="45.56789" lon="-1.06361">
        <ele>32</ele>
        <time>2025-04-26T13:30:38Z</time>
      </trkpt>
      <trkpt lat="45.56789" lon="-1.06361">
        <ele>32</ele>
        <time>2025-04-26T13:30:39Z</time>
      </trkpt>
      <trkpt lat="45.56789" lon="-1.06361">
        <ele>32</ele>
        <time>2025-04-26T13:30:40Z</time>
      </trkpt>
      <trkpt lat="45.56789" lon="-1.06361">
        <ele>32</ele>
        <time>2025-04-26T13:30:41Z</time>
      </trkpt>
      <trkpt lat="45.56789" lon="-1.06361">
        <ele>32</ele>
        <time>2025-04-26T13:30:42Z</time>
      </trkpt>
      <trkpt lat="45.56789" lon="-1.06361">
        <ele>32</ele>
        <time>2025-04-26T13:30:43Z</time>
      </trkpt>
      <trkpt lat="45.56789" lon="-1.06361">
        <ele>32</ele>
        <time>2025-04-26T13:30:44Z</time>
      </trkpt>
      <trkpt lat="45.56789" lon="-1.06361">
        <ele>32</ele>
        <time>2025-04-26T13:30:45Z</time>
      </trkpt>
      <trkpt lat="45.56789" lon="-1.06361">
        <ele>32</ele>
        <time>2025-04-26T13:30:46Z</time>
      </trkpt>
      <trkpt lat="45.56789" lon="-1.06361">
        <ele>32</ele>
        <time>2025-04-26T13:30:47Z</time>
      </trkpt>
      <trkpt lat="45.56789" lon="-1.06361">
        <ele>32</ele>
        <time>2025-04-26T13:30:48Z</time>
      </trkpt>
      <trkpt lat="45.56789" lon="-1.06361">
        <ele>32</ele>
        <time>2025-04-26T13:30:49Z</time>
      </trkpt>
      <trkpt lat="45.56789" lon="-1.06361">
        <ele>32</ele>
        <time>2025-04-26T13:30:50Z</time>
      </trkpt>
      <trkpt lat="45.56789" lon="-1.06361">
        <ele>32</ele>
        <time>2025-04-26T13:30:51Z</time>
      </trkpt>
      <trkpt lat="45.56789" lon="-1.06361">
        <ele>32</ele>
        <time>2025-04-26T13:30:52Z</time>
      </trkpt>
      <trkpt lat="45.56789" lon="-1.06361">
        <ele>32</ele>
        <time>2025-04-26T13:30:53Z</time>
      </trkpt>
      <trkpt lat="45.56789" lon="-1.06361">
        <ele>32</ele>
        <time>2025-04-26T13:30:54Z</time>
      </trkpt>
      <trkpt lat="45.56789" lon="-1.06361">
        <ele>32</ele>
        <time>2025-04-26T13:30:55Z</time>
      </trkpt>
      <trkpt lat="45.56789" lon="-1.06361">
        <ele>32</ele>
        <time>2025-04-26T13:30:56Z</time>
      </trkpt>
      <trkpt lat="45.56789" lon="-1.06361">
        <ele>32</ele>
        <time>2025-04-26T13:30:57Z</time>
      </trkpt>
      <trkpt lat="45.56789" lon="-1.06361">
        <ele>32</ele>
        <time>2025-04-26T13:30:58Z</time>
      </trkpt>
      <trkpt lat="45.56789" lon="-1.06361">
        <ele>32</ele>
        <time>2025-04-26T13:30:59Z</time>
      </trkpt>
      <trkpt lat="45.56789" lon="-1.06361">
        <ele>32</ele>
        <time>2025-04-26T13:31:00Z</time>
      </trkpt>
      <trkpt lat="45.56789" lon="-1.06361">
        <ele>32</ele>
        <time>2025-04-26T13:31:01Z</time>
      </trkpt>
      <trkpt lat="45.56789" lon="-1.06361">
        <ele>32</ele>
        <time>2025-04-26T13:31:02Z</time>
      </trkpt>
      <trkpt lat="45.56789" lon="-1.06361">
        <ele>32</ele>
        <time>2025-04-26T13:31:03Z</time>
      </trkpt>
      <trkpt lat="45.56789" lon="-1.06361">
        <ele>32</ele>
        <time>2025-04-26T13:31:04Z</time>
      </trkpt>
      <trkpt lat="45.56789" lon="-1.06361">
        <ele>32</ele>
        <time>2025-04-26T13:31:05Z</time>
      </trkpt>
      <trkpt lat="45.56789" lon="-1.06361">
        <ele>32</ele>
        <time>2025-04-26T13:31:06Z</time>
      </trkpt>
      <trkpt lat="45.56789" lon="-1.06361">
        <ele>32</ele>
        <time>2025-04-26T13:31:07Z</time>
      </trkpt>
      <trkpt lat="45.56789" lon="-1.06361">
        <ele>32</ele>
        <time>2025-04-26T13:31:08Z</time>
      </trkpt>
      <trkpt lat="45.56789" lon="-1.06361">
        <ele>32</ele>
        <time>2025-04-26T13:31:09Z</time>
      </trkpt>
      <trkpt lat="45.56789" lon="-1.06361">
        <ele>32</ele>
        <time>2025-04-26T13:31:10Z</time>
      </trkpt>
      <trkpt lat="45.56789" lon="-1.06361">
        <ele>32</ele>
        <time>2025-04-26T13:31:11Z</time>
      </trkpt>
      <trkpt lat="45.56789" lon="-1.06361">
        <ele>32</ele>
        <time>2025-04-26T13:31:12Z</time>
      </trkpt>
      <trkpt lat="45.56789" lon="-1.06361">
        <ele>32</ele>
        <time>2025-04-26T13:31:13Z</time>
      </trkpt>
      <trkpt lat="45.56789" lon="-1.06361">
        <ele>32</ele>
        <time>2025-04-26T13:31:14Z</time>
      </trkpt>
      <trkpt lat="45.56789" lon="-1.06361">
        <ele>32</ele>
        <time>2025-04-26T13:31:15Z</time>
      </trkpt>
      <trkpt lat="45.56789" lon="-1.06361">
        <ele>32</ele>
        <time>2025-04-26T13:31:16Z</time>
      </trkpt>
      <trkpt lat="45.56786" lon="-1.0635">
        <ele>56</ele>
        <time>2025-04-26T13:31:17Z</time>
      </trkpt>
      <trkpt lat="45.56785" lon="-1.06348">
        <ele>55</ele>
        <time>2025-04-26T13:31:18Z</time>
      </trkpt>
      <trkpt lat="45.56785" lon="-1.06347">
        <ele>55</ele>
        <time>2025-04-26T13:31:19Z</time>
      </trkpt>
      <trkpt lat="45.56785" lon="-1.06347">
        <ele>55</ele>
        <time>2025-04-26T13:31:20Z</time>
      </trkpt>
      <trkpt lat="45.56785" lon="-1.06346">
        <ele>55</ele>
        <time>2025-04-26T13:31:21Z</time>
      </trkpt>
      <trkpt lat="45.56785" lon="-1.06345">
        <ele>55</ele>
        <time>2025-04-26T13:31:22Z</time>
      </trkpt>
      <trkpt lat="45.56785" lon="-1.06344">
        <ele>54</ele>
        <time>2025-04-26T13:31:23Z</time>
      </trkpt>
      <trkpt lat="45.56785" lon="-1.06343">
        <ele>54</ele>
        <time>2025-04-26T13:31:24Z</time>
      </trkpt>
      <trkpt lat="45.56786" lon="-1.06342">
        <ele>54</ele>
        <time>2025-04-26T13:31:25Z</time>
      </trkpt>
      <trkpt lat="45.56786" lon="-1.06341">
        <ele>54</ele>
        <time>2025-04-26T13:31:26Z</time>
      </trkpt>
      <trkpt lat="45.56786" lon="-1.0634">
        <ele>54</ele>
        <time>2025-04-26T13:31:27Z</time>
      </trkpt>
      <trkpt lat="45.56786" lon="-1.06339">
        <ele>54</ele>
        <time>2025-04-26T13:31:28Z</time>
      </trkpt>
      <trkpt lat="45.56786" lon="-1.06337">
        <ele>54</ele>
        <time>2025-04-26T13:31:29Z</time>
      </trkpt>
      <trkpt lat="45.56786" lon="-1.06335">
        <ele>54</ele>
        <time>2025-04-26T13:31:30Z</time>
      </trkpt>
      <trkpt lat="45.56787" lon="-1.06333">
        <ele>54</ele>
        <time>2025-04-26T13:31:31Z</time>
      </trkpt>
      <trkpt lat="45.56787" lon="-1.06332">
        <ele>54</ele>
        <time>2025-04-26T13:31:32Z</time>
      </trkpt>
      <trkpt lat="45.56788" lon="-1.0633">
        <ele>54</ele>
        <time>2025-04-26T13:31:33Z</time>
      </trkpt>
      <trkpt lat="45.56789" lon="-1.06328">
        <ele>54</ele>
        <time>2025-04-26T13:31:34Z</time>
      </trkpt>
      <trkpt lat="45.56789" lon="-1.06327">
        <ele>53</ele>
        <time>2025-04-26T13:31:35Z</time>
      </trkpt>
      <trkpt lat="45.5679" lon="-1.06325">
        <ele>53</ele>
        <time>2025-04-26T13:31:36Z</time>
      </trkpt>
      <trkpt lat="45.5679" lon="-1.06324">
        <ele>53</ele>
        <time>2025-04-26T13:31:37Z</time>
      </trkpt>
      <trkpt lat="45.56791" lon="-1.06322">
        <ele>53</ele>
        <time>2025-04-26T13:31:38Z</time>
      </trkpt>
      <trkpt lat="45.56792" lon="-1.0632">
        <ele>53</ele>
        <time>2025-04-26T13:31:39Z</time>
      </trkpt>
      <trkpt lat="45.56793" lon="-1.06319">
        <ele>53</ele>
        <time>2025-04-26T13:31:40Z</time>
      </trkpt>
      <trkpt lat="45.56793" lon="-1.06317">
        <ele>53</ele>
        <time>2025-04-26T13:31:41Z</time>
      </trkpt>
      <trkpt lat="45.56794" lon="-1.06315">
        <ele>53</ele>
        <time>2025-04-26T13:31:42Z</time>
      </trkpt>
      <trkpt lat="45.56795" lon="-1.06313">
        <ele>53</ele>
        <time>2025-04-26T13:31:43Z</time>
      </trkpt>
      <trkpt lat="45.56796" lon="-1.06311">
        <ele>54</ele>
        <time>2025-04-26T13:31:44Z</time>
      </trkpt>
      <trkpt lat="45.56796" lon="-1.06308">
        <ele>53</ele>
        <time>2025-04-26T13:31:45Z</time>
      </trkpt>
      <trkpt lat="45.56796" lon="-1.06306">
        <ele>53</ele>
        <time>2025-04-26T13:31:46Z</time>
      </trkpt>
      <trkpt lat="45.56797" lon="-1.06304">
        <ele>53</ele>
        <time>2025-04-26T13:31:47Z</time>
      </trkpt>
      <trkpt lat="45.56798" lon="-1.06302">
        <ele>52</ele>
        <time>2025-04-26T13:31:48Z</time>
      </trkpt>
      <trkpt lat="45.56799" lon="-1.063">
        <ele>52</ele>
        <time>2025-04-26T13:31:49Z</time>
      </trkpt>
      <trkpt lat="45.568" lon="-1.06297">
        <ele>52</ele>
        <time>2025-04-26T13:31:50Z</time>
      </trkpt>
      <trkpt lat="45.56801" lon="-1.06295">
        <ele>52</ele>
        <time>2025-04-26T13:31:51Z</time>
      </trkpt>
      <trkpt lat="45.56802" lon="-1.06293">
        <ele>51</ele>
        <time>2025-04-26T13:31:52Z</time>
      </trkpt>
      <trkpt lat="45.56803" lon="-1.0629">
        <ele>51</ele>
        <time>2025-04-26T13:31:53Z</time>
      </trkpt>
      <trkpt lat="45.56804" lon="-1.06288">
        <ele>51</ele>
        <time>2025-04-26T13:31:54Z</time>
      </trkpt>
      <trkpt lat="45.56805" lon="-1.06285">
        <ele>52</ele>
        <time>2025-04-26T13:31:55Z</time>
      </trkpt>
      <trkpt lat="45.56806" lon="-1.06283">
        <ele>51</ele>
        <time>2025-04-26T13:31:56Z</time>
      </trkpt>
      <trkpt lat="45.56807" lon="-1.0628">
        <ele>52</ele>
        <time>2025-04-26T13:31:57Z</time>
      </trkpt>
      <trkpt lat="45.56808" lon="-1.06278">
        <ele>52</ele>
        <time>2025-04-26T13:31:58Z</time>
      </trkpt>
      <trkpt lat="45.56809" lon="-1.06276">
        <ele>52</ele>
        <time>2025-04-26T13:31:59Z</time>
      </trkpt>
      <trkpt lat="45.5681" lon="-1.06274">
        <ele>52</ele>
        <time>2025-04-26T13:32:00Z</time>
      </trkpt>
      <trkpt lat="45.56811" lon="-1.06271">
        <ele>52</ele>
        <time>2025-04-26T13:32:01Z</time>
      </trkpt>
      <trkpt lat="45.56812" lon="-1.06269">
        <ele>52</ele>
        <time>2025-04-26T13:32:02Z</time>
      </trkpt>
      <trkpt lat="45.56813" lon="-1.06268">
        <ele>51</ele>
        <time>2025-04-26T13:32:03Z</time>
      </trkpt>
      <trkpt lat="45.56815" lon="-1.06266">
        <ele>51</ele>
        <time>2025-04-26T13:32:04Z</time>
      </trkpt>
      <trkpt lat="45.56816" lon="-1.06264">
        <ele>50</ele>
        <time>2025-04-26T13:32:05Z</time>
      </trkpt>
      <trkpt lat="45.56817" lon="-1.06262">
        <ele>49</ele>
        <time>2025-04-26T13:32:06Z</time>
      </trkpt>
      <trkpt lat="45.56819" lon="-1.0626">
        <ele>48</ele>
        <time>2025-04-26T13:32:07Z</time>
      </trkpt>
      <trkpt lat="45.5682" lon="-1.06258">
        <ele>47</ele>
        <time>2025-04-26T13:32:08Z</time>
      </trkpt>
      <trkpt lat="45.56821" lon="-1.06256">
        <ele>47</ele>
        <time>2025-04-26T13:32:09Z</time>
      </trkpt>
      <trkpt lat="45.56823" lon="-1.06254">
        <ele>46</ele>
        <time>2025-04-26T13:32:10Z</time>
      </trkpt>
      <trkpt lat="45.56824" lon="-1.06252">
        <ele>46</ele>
        <time>2025-04-26T13:32:11Z</time>
      </trkpt>
      <trkpt lat="45.56825" lon="-1.06251">
        <ele>45</ele>
        <time>2025-04-26T13:32:12Z</time>
      </trkpt>
      <trkpt lat="45.56826" lon="-1.06249">
        <ele>45</ele>
        <time>2025-04-26T13:32:13Z</time>
      </trkpt>
      <trkpt lat="45.56827" lon="-1.06247">
        <ele>44</ele>
        <time>2025-04-26T13:32:14Z</time>
      </trkpt>
      <trkpt lat="45.56828" lon="-1.06245">
        <ele>43</ele>
        <time>2025-04-26T13:32:15Z</time>
      </trkpt>
      <trkpt lat="45.56829" lon="-1.06243">
        <ele>42</ele>
        <time>2025-04-26T13:32:16Z</time>
      </trkpt>
      <trkpt lat="45.56831" lon="-1.06241">
        <ele>41</ele>
        <time>2025-04-26T13:32:17Z</time>
      </trkpt>
      <trkpt lat="45.56832" lon="-1.06239">
        <ele>41</ele>
        <time>2025-04-26T13:32:18Z</time>
      </trkpt>
      <trkpt lat="45.56833" lon="-1.06238">
        <ele>41</ele>
        <time>2025-04-26T13:32:19Z</time>
      </trkpt>
      <trkpt lat="45.56834" lon="-1.06236">
        <ele>42</ele>
        <time>2025-04-26T13:32:20Z</time>
      </trkpt>
      <trkpt lat="45.56836" lon="-1.06234">
        <ele>42</ele>
        <time>2025-04-26T13:32:21Z</time>
      </trkpt>
      <trkpt lat="45.56837" lon="-1.06231">
        <ele>42</ele>
        <time>2025-04-26T13:32:22Z</time>
      </trkpt>
      <trkpt lat="45.56838" lon="-1.06229">
        <ele>42</ele>
        <time>2025-04-26T13:32:23Z</time>
      </trkpt>
      <trkpt lat="45.5684" lon="-1.06227">
        <ele>44</ele>
        <time>2025-04-26T13:32:24Z</time>
      </trkpt>
      <trkpt lat="45.56842" lon="-1.06225">
        <ele>44</ele>
        <time>2025-04-26T13:32:25Z</time>
      </trkpt>
      <trkpt lat="45.56844" lon="-1.06223">
        <ele>45</ele>
        <time>2025-04-26T13:32:26Z</time>
      </trkpt>
      <trkpt lat="45.56846" lon="-1.0622">
        <ele>45</ele>
        <time>2025-04-26T13:32:27Z</time>
      </trkpt>
      <trkpt lat="45.56847" lon="-1.06218">
        <ele>45</ele>
        <time>2025-04-26T13:32:28Z</time>
      </trkpt>
      <trkpt lat="45.56849" lon="-1.06215">
        <ele>46</ele>
        <time>2025-04-26T13:32:29Z</time>
      </trkpt>
      <trkpt lat="45.5685" lon="-1.06213">
        <ele>46</ele>
        <time>2025-04-26T13:32:30Z</time>
      </trkpt>
      <trkpt lat="45.56853" lon="-1.06211">
        <ele>47</ele>
        <time>2025-04-26T13:32:31Z</time>
      </trkpt>
      <trkpt lat="45.56855" lon="-1.06209">
        <ele>48</ele>
        <time>2025-04-26T13:32:32Z</time>
      </trkpt>
      <trkpt lat="45.56858" lon="-1.06207">
        <ele>49</ele>
        <time>2025-04-26T13:32:33Z</time>
      </trkpt>
      <trkpt lat="45.5686" lon="-1.06205">
        <ele>49</ele>
        <time>2025-04-26T13:32:34Z</time>
      </trkpt>
      <trkpt lat="45.56862" lon="-1.06203">
        <ele>50</ele>
        <time>2025-04-26T13:32:35Z</time>
      </trkpt>
      <trkpt lat="45.56864" lon="-1.062">
        <ele>50</ele>
        <time>2025-04-26T13:32:36Z</time>
      </trkpt>
      <trkpt lat="45.56866" lon="-1.06198">
        <ele>50</ele>
        <time>2025-04-26T13:32:37Z</time>
      </trkpt>
      <trkpt lat="45.56868" lon="-1.06196">
        <ele>49</ele>
        <time>2025-04-26T13:32:38Z</time>
      </trkpt>
      <trkpt lat="45.56869" lon="-1.06194">
        <ele>50</ele>
        <time>2025-04-26T13:32:39Z</time>
      </trkpt>
      <trkpt lat="45.56871" lon="-1.06192">
        <ele>51</ele>
        <time>2025-04-26T13:32:40Z</time>
      </trkpt>
      <trkpt lat="45.56873" lon="-1.0619">
        <ele>51</ele>
        <time>2025-04-26T13:32:41Z</time>
      </trkpt>
      <trkpt lat="45.56875" lon="-1.06187">
        <ele>51</ele>
        <time>2025-04-26T13:32:42Z</time>
      </trkpt>
      <trkpt lat="45.56876" lon="-1.06184">
        <ele>51</ele>
        <time>2025-04-26T13:32:43Z</time>
      </trkpt>
      <trkpt lat="45.56878" lon="-1.06181">
        <ele>50</ele>
        <time>2025-04-26T13:32:44Z</time>
      </trkpt>
      <trkpt lat="45.56879" lon="-1.06178">
        <ele>49</ele>
        <time>2025-04-26T13:32:45Z</time>
      </trkpt>
      <trkpt lat="45.56881" lon="-1.06176">
        <ele>49</ele>
        <time>2025-04-26T13:32:46Z</time>
      </trkpt>
      <trkpt lat="45.56882" lon="-1.06173">
        <ele>48</ele>
        <time>2025-04-26T13:32:47Z</time>
      </trkpt>
      <trkpt lat="45.56884" lon="-1.0617">
        <ele>47</ele>
        <time>2025-04-26T13:32:48Z</time>
      </trkpt>
      <trkpt lat="45.56886" lon="-1.06166">
        <ele>47</ele>
        <time>2025-04-26T13:32:49Z</time>
      </trkpt>
      <trkpt lat="45.56888" lon="-1.06163">
        <ele>46</ele>
        <time>2025-04-26T13:32:50Z</time>
      </trkpt>
      <trkpt lat="45.5689" lon="-1.06159">
        <ele>46</ele>
        <time>2025-04-26T13:32:51Z</time>
      </trkpt>
      <trkpt lat="45.56892" lon="-1.06156">
        <ele>45</ele>
        <time>2025-04-26T13:32:52Z</time>
      </trkpt>
      <trkpt lat="45.56893" lon="-1.06153">
        <ele>45</ele>
        <time>2025-04-26T13:32:53Z</time>
      </trkpt>
      <trkpt lat="45.56895" lon="-1.06149">
        <ele>45</ele>
        <time>2025-04-26T13:32:54Z</time>
      </trkpt>
      <trkpt lat="45.56897" lon="-1.06146">
        <ele>45</ele>
        <time>2025-04-26T13:32:55Z</time>
      </trkpt>
      <trkpt lat="45.56899" lon="-1.06142">
        <ele>46</ele>
        <time>2025-04-26T13:32:56Z</time>
      </trkpt>
      <trkpt lat="45.56901" lon="-1.06138">
        <ele>46</ele>
        <time>2025-04-26T13:32:57Z</time>
      </trkpt>
      <trkpt lat="45.56903" lon="-1.06135">
        <ele>46</ele>
        <time>2025-04-26T13:32:58Z</time>
      </trkpt>
      <trkpt lat="45.56905" lon="-1.06131">
        <ele>46</ele>
        <time>2025-04-26T13:32:59Z</time>
      </trkpt>
      <trkpt lat="45.56908" lon="-1.06127">
        <ele>47</ele>
        <time>2025-04-26T13:33:00Z</time>
      </trkpt>
      <trkpt lat="45.5691" lon="-1.06124">
        <ele>48</ele>
        <time>2025-04-26T13:33:01Z</time>
      </trkpt>
      <trkpt lat="45.56912" lon="-1.0612">
        <ele>48</ele>
        <time>2025-04-26T13:33:02Z</time>
      </trkpt>
      <trkpt lat="45.56914" lon="-1.06116">
        <ele>49</ele>
        <time>2025-04-26T13:33:03Z</time>
      </trkpt>
      <trkpt lat="45.56917" lon="-1.06111">
        <ele>49</ele>
        <time>2025-04-26T13:33:04Z</time>
      </trkpt>
      <trkpt lat="45.5692" lon="-1.06107">
        <ele>49</ele>
        <time>2025-04-26T13:33:05Z</time>
      </trkpt>
      <trkpt lat="45.56923" lon="-1.06103">
        <ele>49</ele>
        <time>2025-04-26T13:33:06Z</time>
      </trkpt>
      <trkpt lat="45.56925" lon="-1.06099">
        <ele>49</ele>
        <time>2025-04-26T13:33:07Z</time>
      </trkpt>
      <trkpt lat="45.56927" lon="-1.06094">
        <ele>49</ele>
        <time>2025-04-26T13:33:08Z</time>
      </trkpt>
      <trkpt lat="45.5693" lon="-1.06089">
        <ele>50</ele>
        <time>2025-04-26T13:33:09Z</time>
      </trkpt>
      <trkpt lat="45.56932" lon="-1.06085">
        <ele>50</ele>
        <time>2025-04-26T13:33:10Z</time>
      </trkpt>
      <trkpt lat="45.56935" lon="-1.06081">
        <ele>50</ele>
        <time>2025-04-26T13:33:11Z</time>
      </trkpt>
      <trkpt lat="45.56938" lon="-1.06076">
        <ele>49</ele>
        <time>2025-04-26T13:33:12Z</time>
      </trkpt>
      <trkpt lat="45.5694" lon="-1.06071">
        <ele>49</ele>
        <time>2025-04-26T13:33:13Z</time>
      </trkpt>
      <trkpt lat="45.56943" lon="-1.06067">
        <ele>49</ele>
        <time>2025-04-26T13:33:14Z</time>
      </trkpt>
      <trkpt lat="45.56946" lon="-1.06062">
        <ele>49</ele>
        <time>2025-04-26T13:33:15Z</time>
      </trkpt>
      <trkpt lat="45.56948" lon="-1.06057">
        <ele>49</ele>
        <time>2025-04-26T13:33:16Z</time>
      </trkpt>
      <trkpt lat="45.56951" lon="-1.06053">
        <ele>48</ele>
        <time>2025-04-26T13:33:17Z</time>
      </trkpt>
      <trkpt lat="45.56954" lon="-1.06048">
        <ele>48</ele>
        <time>2025-04-26T13:33:18Z</time>
      </trkpt>
      <trkpt lat="45.56957" lon="-1.06044">
        <ele>47</ele>
        <time>2025-04-26T13:33:19Z</time>
      </trkpt>
      <trkpt lat="45.56961" lon="-1.0604">
        <ele>47</ele>
        <time>2025-04-26T13:33:20Z</time>
      </trkpt>
      <trkpt lat="45.56964" lon="-1.06036">
        <ele>47</ele>
        <time>2025-04-26T13:33:21Z</time>
      </trkpt>
      <trkpt lat="45.56968" lon="-1.06032">
        <ele>46</ele>
        <time>2025-04-26T13:33:22Z</time>
      </trkpt>
      <trkpt lat="45.56972" lon="-1.06028">
        <ele>46</ele>
        <time>2025-04-26T13:33:23Z</time>
      </trkpt>
      <trkpt lat="45.56976" lon="-1.06024">
        <ele>46</ele>
        <time>2025-04-26T13:33:24Z</time>
      </trkpt>
      <trkpt lat="45.5698" lon="-1.06021">
        <ele>46</ele>
        <time>2025-04-26T13:33:25Z</time>
      </trkpt>
      <trkpt lat="45.56983" lon="-1.06016">
        <ele>45</ele>
        <time>2025-04-26T13:33:26Z</time>
      </trkpt>
      <trkpt lat="45.56987" lon="-1.06012">
        <ele>45</ele>
        <time>2025-04-26T13:33:27Z</time>
      </trkpt>
      <trkpt lat="45.5699" lon="-1.06008">
        <ele>45</ele>
        <time>2025-04-26T13:33:28Z</time>
      </trkpt>
      <trkpt lat="45.56993" lon="-1.06004">
        <ele>45</ele>
        <time>2025-04-26T13:33:29Z</time>
      </trkpt>
      <trkpt lat="45.56997" lon="-1.06">
        <ele>45</ele>
        <time>2025-04-26T13:33:30Z</time>
      </trkpt>
      <trkpt lat="45.57" lon="-1.05996">
        <ele>44</ele>
        <time>2025-04-26T13:33:31Z</time>
      </trkpt>
      <trkpt lat="45.57003" lon="-1.05992">
        <ele>44</ele>
        <time>2025-04-26T13:33:32Z</time>
      </trkpt>
      <trkpt lat="45.57006" lon="-1.05988">
        <ele>44</ele>
        <time>2025-04-26T13:33:33Z</time>
      </trkpt>
      <trkpt lat="45.57009" lon="-1.05984">
        <ele>43</ele>
        <time>2025-04-26T13:33:34Z</time>
      </trkpt>
      <trkpt lat="45.57013" lon="-1.0598">
        <ele>43</ele>
        <time>2025-04-26T13:33:35Z</time>
      </trkpt>
      <trkpt lat="45.57016" lon="-1.05977">
        <ele>42</ele>
        <time>2025-04-26T13:33:36Z</time>
      </trkpt>
      <trkpt lat="45.5702" lon="-1.05973">
        <ele>43</ele>
        <time>2025-04-26T13:33:37Z</time>
      </trkpt>
      <trkpt lat="45.57024" lon="-1.0597">
        <ele>43</ele>
        <time>2025-04-26T13:33:38Z</time>
      </trkpt>
      <trkpt lat="45.57028" lon="-1.05967">
        <ele>44</ele>
        <time>2025-04-26T13:33:39Z</time>
      </trkpt>
      <trkpt lat="45.57031" lon="-1.05964">
        <ele>44</ele>
        <time>2025-04-26T13:33:40Z</time>
      </trkpt>
      <trkpt lat="45.57035" lon="-1.05961">
        <ele>44</ele>
        <time>2025-04-26T13:33:41Z</time>
      </trkpt>
      <trkpt lat="45.57038" lon="-1.05958">
        <ele>43</ele>
        <time>2025-04-26T13:33:42Z</time>
      </trkpt>
      <trkpt lat="45.57042" lon="-1.05955">
        <ele>44</ele>
        <time>2025-04-26T13:33:43Z</time>
      </trkpt>
      <trkpt lat="45.57046" lon="-1.05952">
        <ele>44</ele>
        <time>2025-04-26T13:33:44Z</time>
      </trkpt>
      <trkpt lat="45.57051" lon="-1.05949">
        <ele>45</ele>
        <time>2025-04-26T13:33:45Z</time>
      </trkpt>
      <trkpt lat="45.57055" lon="-1.05946">
        <ele>45</ele>
        <time>2025-04-26T13:33:46Z</time>
      </trkpt>
      <trkpt lat="45.57059" lon="-1.05943">
        <ele>45</ele>
        <time>2025-04-26T13:33:47Z</time>
      </trkpt>
      <trkpt lat="45.57064" lon="-1.0594">
        <ele>45</ele>
        <time>2025-04-26T13:33:48Z</time>
      </trkpt>
      <trkpt lat="45.57068" lon="-1.05938">
        <ele>45</ele>
        <time>2025-04-26T13:33:49Z</time>
      </trkpt>
      <trkpt lat="45.57072" lon="-1.05935">
        <ele>45</ele>
        <time>2025-04-26T13:33:50Z</time>
      </trkpt>
      <trkpt lat="45.57076" lon="-1.05933">
        <ele>44</ele>
        <time>2025-04-26T13:33:51Z</time>
      </trkpt>
      <trkpt lat="45.57081" lon="-1.0593">
        <ele>44</ele>
        <time>2025-04-26T13:33:52Z</time>
      </trkpt>
      <trkpt lat="45.57087" lon="-1.05928">
        <ele>44</ele>
        <time>2025-04-26T13:33:53Z</time>
      </trkpt>
      <trkpt lat="45.57091" lon="-1.05925">
        <ele>43</ele>
        <time>2025-04-26T13:33:54Z</time>
      </trkpt>
      <trkpt lat="45.57096" lon="-1.05923">
        <ele>43</ele>
        <time>2025-04-26T13:33:55Z</time>
      </trkpt>
      <trkpt lat="45.57101" lon="-1.05921">
        <ele>43</ele>
        <time>2025-04-26T13:33:56Z</time>
      </trkpt>
      <trkpt lat="45.57106" lon="-1.05919">
        <ele>43</ele>
        <time>2025-04-26T13:33:57Z</time>
      </trkpt>
      <trkpt lat="45.57111" lon="-1.05917">
        <ele>43</ele>
        <time>2025-04-26T13:33:58Z</time>
      </trkpt>
      <trkpt lat="45.57116" lon="-1.05915">
        <ele>43</ele>
        <time>2025-04-26T13:33:59Z</time>
      </trkpt>
      <trkpt lat="45.57121" lon="-1.05913">
        <ele>43</ele>
        <time>2025-04-26T13:34:00Z</time>
      </trkpt>
      <trkpt lat="45.57127" lon="-1.05912">
        <ele>44</ele>
        <time>2025-04-26T13:34:01Z</time>
      </trkpt>
      <trkpt lat="45.57132" lon="-1.05911">
        <ele>46</ele>
        <time>2025-04-26T13:34:02Z</time>
      </trkpt>
      <trkpt lat="45.57138" lon="-1.05911">
        <ele>48</ele>
        <time>2025-04-26T13:34:03Z</time>
      </trkpt>
      <trkpt lat="45.57143" lon="-1.05909">
        <ele>49</ele>
        <time>2025-04-26T13:34:04Z</time>
      </trkpt>
      <trkpt lat="45.57149" lon="-1.05908">
        <ele>50</ele>
        <time>2025-04-26T13:34:05Z</time>
      </trkpt>
      <trkpt lat="45.57154" lon="-1.05906">
        <ele>51</ele>
        <time>2025-04-26T13:34:06Z</time>
      </trkpt>
      <trkpt lat="45.57159" lon="-1.05905">
        <ele>51</ele>
        <time>2025-04-26T13:34:07Z</time>
      </trkpt>
      <trkpt lat="45.57164" lon="-1.05904">
        <ele>51</ele>
        <time>2025-04-26T13:34:08Z</time>
      </trkpt>
      <trkpt lat="45.5717" lon="-1.05904">
        <ele>51</ele>
        <time>2025-04-26T13:34:09Z</time>
      </trkpt>
      <trkpt lat="45.57175" lon="-1.05903">
        <ele>52</ele>
        <time>2025-04-26T13:34:10Z</time>
      </trkpt>
      <trkpt lat="45.5718" lon="-1.05902">
        <ele>52</ele>
        <time>2025-04-26T13:34:11Z</time>
      </trkpt>
      <trkpt lat="45.57185" lon="-1.05901">
        <ele>52</ele>
        <time>2025-04-26T13:34:12Z</time>
      </trkpt>
      <trkpt lat="45.5719" lon="-1.059">
        <ele>52</ele>
        <time>2025-04-26T13:34:13Z</time>
      </trkpt>
      <trkpt lat="45.57195" lon="-1.05898">
        <ele>52</ele>
        <time>2025-04-26T13:34:14Z</time>
      </trkpt>
      <trkpt lat="45.57201" lon="-1.05897">
        <ele>51</ele>
        <time>2025-04-26T13:34:15Z</time>
      </trkpt>
      <trkpt lat="45.57206" lon="-1.05896">
        <ele>51</ele>
        <time>2025-04-26T13:34:16Z</time>
      </trkpt>
      <trkpt lat="45.57211" lon="-1.05895">
        <ele>49</ele>
        <time>2025-04-26T13:34:17Z</time>
      </trkpt>
      <trkpt lat="45.57214" lon="-1.05895">
        <ele>47</ele>
        <time>2025-04-26T13:34:18Z</time>
      </trkpt>
      <trkpt lat="45.57218" lon="-1.05894">
        <ele>47</ele>
        <time>2025-04-26T13:34:19Z</time>
      </trkpt>
      <trkpt lat="45.57222" lon="-1.05894">
        <ele>47</ele>
        <time>2025-04-26T13:34:20Z</time>
      </trkpt>
      <trkpt lat="45.57227" lon="-1.05893">
        <ele>46</ele>
        <time>2025-04-26T13:34:21Z</time>
      </trkpt>
      <trkpt lat="45.57232" lon="-1.05893">
        <ele>45</ele>
        <time>2025-04-26T13:34:22Z</time>
      </trkpt>
      <trkpt lat="45.57237" lon="-1.05893">
        <ele>45</ele>
        <time>2025-04-26T13:34:23Z</time>
      </trkpt>
      <trkpt lat="45.57243" lon="-1.05893">
        <ele>45</ele>
        <time>2025-04-26T13:34:24Z</time>
      </trkpt>
      <trkpt lat="45.57248" lon="-1.05893">
        <ele>45</ele>
        <time>2025-04-26T13:34:25Z</time>
      </trkpt>
      <trkpt lat="45.57252" lon="-1.05895">
        <ele>44</ele>
        <time>2025-04-26T13:34:26Z</time>
      </trkpt>
      <trkpt lat="45.57258" lon="-1.05894">
        <ele>45</ele>
        <time>2025-04-26T13:34:27Z</time>
      </trkpt>
      <trkpt lat="45.57263" lon="-1.05894">
        <ele>45</ele>
        <time>2025-04-26T13:34:28Z</time>
      </trkpt>
      <trkpt lat="45.57269" lon="-1.05894">
        <ele>46</ele>
        <time>2025-04-26T13:34:29Z</time>
      </trkpt>
      <trkpt lat="45.57274" lon="-1.05894">
        <ele>46</ele>
        <time>2025-04-26T13:34:30Z</time>
      </trkpt>
      <trkpt lat="45.57278" lon="-1.05894">
        <ele>46</ele>
        <time>2025-04-26T13:34:31Z</time>
      </trkpt>
      <trkpt lat="45.57283" lon="-1.05893">
        <ele>46</ele>
        <time>2025-04-26T13:34:32Z</time>
      </trkpt>
      <trkpt lat="45.57287" lon="-1.05894">
        <ele>46</ele>
        <time>2025-04-26T13:34:33Z</time>
      </trkpt>
      <trkpt lat="45.57292" lon="-1.05894">
        <ele>47</ele>
        <time>2025-04-26T13:34:34Z</time>
      </trkpt>
      <trkpt lat="45.57298" lon="-1.05894">
        <ele>47</ele>
        <time>2025-04-26T13:34:35Z</time>
      </trkpt>
      <trkpt lat="45.57303" lon="-1.05894">
        <ele>46</ele>
        <time>2025-04-26T13:34:36Z</time>
      </trkpt>
      <trkpt lat="45.57308" lon="-1.05893">
        <ele>46</ele>
        <time>2025-04-26T13:34:37Z</time>
      </trkpt>
      <trkpt lat="45.57313" lon="-1.05893">
        <ele>46</ele>
        <time>2025-04-26T13:34:38Z</time>
      </trkpt>
      <trkpt lat="45.57318" lon="-1.05893">
        <ele>46</ele>
        <time>2025-04-26T13:34:39Z</time>
      </trkpt>
      <trkpt lat="45.57323" lon="-1.05893">
        <ele>46</ele>
        <time>2025-04-26T13:34:40Z</time>
      </trkpt>
      <trkpt lat="45.57329" lon="-1.05892">
        <ele>45</ele>
        <time>2025-04-26T13:34:41Z</time>
      </trkpt>
      <trkpt lat="45.57335" lon="-1.05892">
        <ele>45</ele>
        <time>2025-04-26T13:34:42Z</time>
      </trkpt>
      <trkpt lat="45.5734" lon="-1.05892">
        <ele>45</ele>
        <time>2025-04-26T13:34:43Z</time>
      </trkpt>
      <trkpt lat="45.57344" lon="-1.05892">
        <ele>45</ele>
        <time>2025-04-26T13:34:44Z</time>
      </trkpt>
      <trkpt lat="45.57349" lon="-1.05892">
        <ele>45</ele>
        <time>2025-04-26T13:34:45Z</time>
      </trkpt>
      <trkpt lat="45.57355" lon="-1.05892">
        <ele>45</ele>
        <time>2025-04-26T13:34:46Z</time>
      </trkpt>
      <trkpt lat="45.5736" lon="-1.05892">
        <ele>45</ele>
        <time>2025-04-26T13:34:47Z</time>
      </trkpt>
      <trkpt lat="45.57366" lon="-1.05892">
        <ele>45</ele>
        <time>2025-04-26T13:34:48Z</time>
      </trkpt>
      <trkpt lat="45.57371" lon="-1.05892">
        <ele>44</ele>
        <time>2025-04-26T13:34:49Z</time>
      </trkpt>
      <trkpt lat="45.57376" lon="-1.05892">
        <ele>45</ele>
        <time>2025-04-26T13:34:50Z</time>
      </trkpt>
      <trkpt lat="45.57382" lon="-1.05892">
        <ele>46</ele>
        <time>2025-04-26T13:34:51Z</time>
      </trkpt>
      <trkpt lat="45.57387" lon="-1.05891">
        <ele>46</ele>
        <time>2025-04-26T13:34:52Z</time>
      </trkpt>
      <trkpt lat="45.57392" lon="-1.05891">
        <ele>45</ele>
        <time>2025-04-26T13:34:53Z</time>
      </trkpt>
      <trkpt lat="45.57397" lon="-1.05891">
        <ele>45</ele>
        <time>2025-04-26T13:34:54Z</time>
      </trkpt>
      <trkpt lat="45.57402" lon="-1.05891">
        <ele>45</ele>
        <time>2025-04-26T13:34:55Z</time>
      </trkpt>
      <trkpt lat="45.57408" lon="-1.0589">
        <ele>45</ele>
        <time>2025-04-26T13:34:56Z</time>
      </trkpt>
      <trkpt lat="45.57414" lon="-1.0589">
        <ele>46</ele>
        <time>2025-04-26T13:34:57Z</time>
      </trkpt>
      <trkpt lat="45.5742" lon="-1.05889">
        <ele>47</ele>
        <time>2025-04-26T13:34:58Z</time>
      </trkpt>
      <trkpt lat="45.57426" lon="-1.05889">
        <ele>48</ele>
        <time>2025-04-26T13:34:59Z</time>
      </trkpt>
      <trkpt lat="45.57432" lon="-1.0589">
        <ele>49</ele>
        <time>2025-04-26T13:35:00Z</time>
      </trkpt>
      <trkpt lat="45.57437" lon="-1.05889">
        <ele>49</ele>
        <time>2025-04-26T13:35:01Z</time>
      </trkpt>
      <trkpt lat="45.57441" lon="-1.05889">
        <ele>49</ele>
        <time>2025-04-26T13:35:02Z</time>
      </trkpt>
      <trkpt lat="45.57446" lon="-1.05889">
        <ele>49</ele>
        <time>2025-04-26T13:35:03Z</time>
      </trkpt>
      <trkpt lat="45.5745" lon="-1.05889">
        <ele>48</ele>
        <time>2025-04-26T13:35:04Z</time>
      </trkpt>
      <trkpt lat="45.57455" lon="-1.05889">
        <ele>49</ele>
        <time>2025-04-26T13:35:05Z</time>
      </trkpt>
      <trkpt lat="45.5746" lon="-1.05889">
        <ele>49</ele>
        <time>2025-04-26T13:35:06Z</time>
      </trkpt>
      <trkpt lat="45.57465" lon="-1.05889">
        <ele>49</ele>
        <time>2025-04-26T13:35:07Z</time>
      </trkpt>
      <trkpt lat="45.57468" lon="-1.05888">
        <ele>46</ele>
        <time>2025-04-26T13:35:08Z</time>
      </trkpt>
      <trkpt lat="45.57472" lon="-1.05888">
        <ele>46</ele>
        <time>2025-04-26T13:35:09Z</time>
      </trkpt>
      <trkpt lat="45.57477" lon="-1.05888">
        <ele>46</ele>
        <time>2025-04-26T13:35:10Z</time>
      </trkpt>
      <trkpt lat="45.57483" lon="-1.05889">
        <ele>46</ele>
        <time>2025-04-26T13:35:11Z</time>
      </trkpt>
      <trkpt lat="45.57488" lon="-1.05889">
        <ele>47</ele>
        <time>2025-04-26T13:35:12Z</time>
      </trkpt>
      <trkpt lat="45.57493" lon="-1.05889">
        <ele>47</ele>
        <time>2025-04-26T13:35:13Z</time>
      </trkpt>
      <trkpt lat="45.57499" lon="-1.05889">
        <ele>47</ele>
        <time>2025-04-26T13:35:14Z</time>
      </trkpt>
      <trkpt lat="45.57504" lon="-1.05889">
        <ele>47</ele>
        <time>2025-04-26T13:35:15Z</time>
      </trkpt>
      <trkpt lat="45.57509" lon="-1.05889">
        <ele>47</ele>
        <time>2025-04-26T13:35:16Z</time>
      </trkpt>
      <trkpt lat="45.57515" lon="-1.05889">
        <ele>47</ele>
        <time>2025-04-26T13:35:17Z</time>
      </trkpt>
      <trkpt lat="45.5752" lon="-1.05889">
        <ele>47</ele>
        <time>2025-04-26T13:35:18Z</time>
      </trkpt>
      <trkpt lat="45.57525" lon="-1.05889">
        <ele>47</ele>
        <time>2025-04-26T13:35:19Z</time>
      </trkpt>
      <trkpt lat="45.57531" lon="-1.05889">
        <ele>47</ele>
        <time>2025-04-26T13:35:20Z</time>
      </trkpt>
      <trkpt lat="45.57537" lon="-1.05889">
        <ele>47</ele>
        <time>2025-04-26T13:35:21Z</time>
      </trkpt>
      <trkpt lat="45.57542" lon="-1.05889">
        <ele>49</ele>
        <time>2025-04-26T13:35:22Z</time>
      </trkpt>
      <trkpt lat="45.57548" lon="-1.05889">
        <ele>49</ele>
        <time>2025-04-26T13:35:23Z</time>
      </trkpt>
      <trkpt lat="45.57554" lon="-1.05889">
        <ele>49</ele>
        <time>2025-04-26T13:35:24Z</time>
      </trkpt>
      <trkpt lat="45.57559" lon="-1.05888">
        <ele>49</ele>
        <time>2025-04-26T13:35:25Z</time>
      </trkpt>
      <trkpt lat="45.57564" lon="-1.05888">
        <ele>49</ele>
        <time>2025-04-26T13:35:26Z</time>
      </trkpt>
      <trkpt lat="45.57569" lon="-1.05888">
        <ele>49</ele>
        <time>2025-04-26T13:35:27Z</time>
      </trkpt>
      <trkpt lat="45.57575" lon="-1.05888">
        <ele>49</ele>
        <time>2025-04-26T13:35:28Z</time>
      </trkpt>
      <trkpt lat="45.5758" lon="-1.05887">
        <ele>49</ele>
        <time>2025-04-26T13:35:29Z</time>
      </trkpt>
      <trkpt lat="45.57586" lon="-1.05887">
        <ele>48</ele>
        <time>2025-04-26T13:35:30Z</time>
      </trkpt>
      <trkpt lat="45.57591" lon="-1.05887">
        <ele>49</ele>
        <time>2025-04-26T13:35:31Z</time>
      </trkpt>
      <trkpt lat="45.57598" lon="-1.05888">
        <ele>48</ele>
        <time>2025-04-26T13:35:32Z</time>
      </trkpt>
      <trkpt lat="45.57604" lon="-1.05888">
        <ele>48</ele>
        <time>2025-04-26T13:35:33Z</time>
      </trkpt>
      <trkpt lat="45.5761" lon="-1.05888">
        <ele>48</ele>
        <time>2025-04-26T13:35:34Z</time>
      </trkpt>
      <trkpt lat="45.57616" lon="-1.05887">
        <ele>47</ele>
        <time>2025-04-26T13:35:35Z</time>
      </trkpt>
      <trkpt lat="45.57622" lon="-1.05886">
        <ele>47</ele>
        <time>2025-04-26T13:35:36Z</time>
      </trkpt>
      <trkpt lat="45.57628" lon="-1.05886">
        <ele>45</ele>
        <time>2025-04-26T13:35:37Z</time>
      </trkpt>
      <trkpt lat="45.57633" lon="-1.05886">
        <ele>44</ele>
        <time>2025-04-26T13:35:38Z</time>
      </trkpt>
      <trkpt lat="45.57638" lon="-1.05884">
        <ele>44</ele>
        <time>2025-04-26T13:35:39Z</time>
      </trkpt>
      <trkpt lat="45.57644" lon="-1.05884">
        <ele>44</ele>
        <time>2025-04-26T13:35:40Z</time>
      </trkpt>
      <trkpt lat="45.57649" lon="-1.05884">
        <ele>45</ele>
        <time>2025-04-26T13:35:41Z</time>
      </trkpt>
      <trkpt lat="45.57654" lon="-1.05884">
        <ele>44</ele>
        <time>2025-04-26T13:35:42Z</time>
      </trkpt>
      <trkpt lat="45.57659" lon="-1.05883">
        <ele>44</ele>
        <time>2025-04-26T13:35:43Z</time>
      </trkpt>
      <trkpt lat="45.57664" lon="-1.05882">
        <ele>42</ele>
        <time>2025-04-26T13:35:44Z</time>
      </trkpt>
      <trkpt lat="45.57669" lon="-1.05882">
        <ele>42</ele>
        <time>2025-04-26T13:35:45Z</time>
      </trkpt>
      <trkpt lat="45.57674" lon="-1.05881">
        <ele>40</ele>
        <time>2025-04-26T13:35:46Z</time>
      </trkpt>
      <trkpt lat="45.57678" lon="-1.0588">
        <ele>40</ele>
        <time>2025-04-26T13:35:47Z</time>
      </trkpt>
      <trkpt lat="45.57683" lon="-1.0588">
        <ele>39</ele>
        <time>2025-04-26T13:35:48Z</time>
      </trkpt>
      <trkpt lat="45.57688" lon="-1.05879">
        <ele>38</ele>
        <time>2025-04-26T13:35:49Z</time>
      </trkpt>
      <trkpt lat="45.57693" lon="-1.05878">
        <ele>38</ele>
        <time>2025-04-26T13:35:50Z</time>
      </trkpt>
      <trkpt lat="45.57698" lon="-1.05877">
        <ele>37</ele>
        <time>2025-04-26T13:35:51Z</time>
      </trkpt>
      <trkpt lat="45.57702" lon="-1.05874">
        <ele>37</ele>
        <time>2025-04-26T13:35:52Z</time>
      </trkpt>
      <trkpt lat="45.57707" lon="-1.05872">
        <ele>37</ele>
        <time>2025-04-26T13:35:53Z</time>
      </trkpt>
      <trkpt lat="45.57712" lon="-1.0587">
        <ele>38</ele>
        <time>2025-04-26T13:35:54Z</time>
      </trkpt>
      <trkpt lat="45.57717" lon="-1.05868">
        <ele>39</ele>
        <time>2025-04-26T13:35:55Z</time>
      </trkpt>
      <trkpt lat="45.57721" lon="-1.05866">
        <ele>39</ele>
        <time>2025-04-26T13:35:56Z</time>
      </trkpt>
      <trkpt lat="45.57726" lon="-1.05864">
        <ele>40</ele>
        <time>2025-04-26T13:35:57Z</time>
      </trkpt>
      <trkpt lat="45.5773" lon="-1.05863">
        <ele>41</ele>
        <time>2025-04-26T13:35:58Z</time>
      </trkpt>
      <trkpt lat="45.57734" lon="-1.05862">
        <ele>42</ele>
        <time>2025-04-26T13:35:59Z</time>
      </trkpt>
      <trkpt lat="45.57739" lon="-1.0586">
        <ele>42</ele>
        <time>2025-04-26T13:36:00Z</time>
      </trkpt>
      <trkpt lat="45.57744" lon="-1.05858">
        <ele>43</ele>
        <time>2025-04-26T13:36:01Z</time>
      </trkpt>
      <trkpt lat="45.57748" lon="-1.05855">
        <ele>43</ele>
        <time>2025-04-26T13:36:02Z</time>
      </trkpt>
      <trkpt lat="45.57752" lon="-1.05853">
        <ele>44</ele>
        <time>2025-04-26T13:36:03Z</time>
      </trkpt>
      <trkpt lat="45.57757" lon="-1.05851">
        <ele>45</ele>
        <time>2025-04-26T13:36:04Z</time>
      </trkpt>
      <trkpt lat="45.57762" lon="-1.0585">
        <ele>45</ele>
        <time>2025-04-26T13:36:05Z</time>
      </trkpt>
      <trkpt lat="45.57767" lon="-1.05848">
        <ele>46</ele>
        <time>2025-04-26T13:36:06Z</time>
      </trkpt>
      <trkpt lat="45.57772" lon="-1.05846">
        <ele>46</ele>
        <time>2025-04-26T13:36:07Z</time>
      </trkpt>
      <trkpt lat="45.57778" lon="-1.05843">
        <ele>47</ele>
        <time>2025-04-26T13:36:08Z</time>
      </trkpt>
      <trkpt lat="45.57784" lon="-1.05842">
        <ele>48</ele>
        <time>2025-04-26T13:36:09Z</time>
      </trkpt>
      <trkpt lat="45.57789" lon="-1.0584">
        <ele>48</ele>
        <time>2025-04-26T13:36:10Z</time>
      </trkpt>
      <trkpt lat="45.57794" lon="-1.0584">
        <ele>49</ele>
        <time>2025-04-26T13:36:11Z</time>
      </trkpt>
      <trkpt lat="45.57799" lon="-1.05838">
        <ele>49</ele>
        <time>2025-04-26T13:36:12Z</time>
      </trkpt>
      <trkpt lat="45.57805" lon="-1.05836">
        <ele>50</ele>
        <time>2025-04-26T13:36:13Z</time>
      </trkpt>
      <trkpt lat="45.5781" lon="-1.05834">
        <ele>50</ele>
        <time>2025-04-26T13:36:14Z</time>
      </trkpt>
      <trkpt lat="45.57816" lon="-1.05832">
        <ele>51</ele>
        <time>2025-04-26T13:36:15Z</time>
      </trkpt>
      <trkpt lat="45.57822" lon="-1.0583">
        <ele>51</ele>
        <time>2025-04-26T13:36:16Z</time>
      </trkpt>
      <trkpt lat="45.57827" lon="-1.05827">
        <ele>51</ele>
        <time>2025-04-26T13:36:17Z</time>
      </trkpt>
      <trkpt lat="45.57832" lon="-1.05825">
        <ele>52</ele>
        <time>2025-04-26T13:36:18Z</time>
      </trkpt>
      <trkpt lat="45.57837" lon="-1.05822">
        <ele>52</ele>
        <time>2025-04-26T13:36:19Z</time>
      </trkpt>
      <trkpt lat="45.57842" lon="-1.0582">
        <ele>52</ele>
        <time>2025-04-26T13:36:20Z</time>
      </trkpt>
      <trkpt lat="45.57848" lon="-1.05817">
        <ele>52</ele>
        <time>2025-04-26T13:36:21Z</time>
      </trkpt>
      <trkpt lat="45.57853" lon="-1.05816">
        <ele>51</ele>
        <time>2025-04-26T13:36:22Z</time>
      </trkpt>
      <trkpt lat="45.57858" lon="-1.05814">
        <ele>51</ele>
        <time>2025-04-26T13:36:23Z</time>
      </trkpt>
      <trkpt lat="45.57863" lon="-1.05813">
        <ele>50</ele>
        <time>2025-04-26T13:36:24Z</time>
      </trkpt>
      <trkpt lat="45.57869" lon="-1.05812">
        <ele>50</ele>
        <time>2025-04-26T13:36:25Z</time>
      </trkpt>
      <trkpt lat="45.57873" lon="-1.0581">
        <ele>50</ele>
        <time>2025-04-26T13:36:26Z</time>
      </trkpt>
      <trkpt lat="45.57877" lon="-1.05809">
        <ele>50</ele>
        <time>2025-04-26T13:36:27Z</time>
      </trkpt>
      <trkpt lat="45.57882" lon="-1.05807">
        <ele>49</ele>
        <time>2025-04-26T13:36:28Z</time>
      </trkpt>
      <trkpt lat="45.57887" lon="-1.05805">
        <ele>49</ele>
        <time>2025-04-26T13:36:29Z</time>
      </trkpt>
      <trkpt lat="45.57892" lon="-1.05804">
        <ele>49</ele>
        <time>2025-04-26T13:36:30Z</time>
      </trkpt>
      <trkpt lat="45.57897" lon="-1.05802">
        <ele>48</ele>
        <time>2025-04-26T13:36:31Z</time>
      </trkpt>
      <trkpt lat="45.57902" lon="-1.05799">
        <ele>46</ele>
        <time>2025-04-26T13:36:32Z</time>
      </trkpt>
      <trkpt lat="45.57907" lon="-1.05796">
        <ele>45</ele>
        <time>2025-04-26T13:36:33Z</time>
      </trkpt>
      <trkpt lat="45.57912" lon="-1.05793">
        <ele>45</ele>
        <time>2025-04-26T13:36:34Z</time>
      </trkpt>
      <trkpt lat="45.57916" lon="-1.05791">
        <ele>46</ele>
        <time>2025-04-26T13:36:35Z</time>
      </trkpt>
      <trkpt lat="45.57922" lon="-1.05788">
        <ele>45</ele>
        <time>2025-04-26T13:36:36Z</time>
      </trkpt>
      <trkpt lat="45.57927" lon="-1.05785">
        <ele>45</ele>
        <time>2025-04-26T13:36:37Z</time>
      </trkpt>
      <trkpt lat="45.57931" lon="-1.05783">
        <ele>45</ele>
        <time>2025-04-26T13:36:38Z</time>
      </trkpt>
      <trkpt lat="45.57936" lon="-1.05783">
        <ele>45</ele>
        <time>2025-04-26T13:36:39Z</time>
      </trkpt>
      <trkpt lat="45.57941" lon="-1.05781">
        <ele>44</ele>
        <time>2025-04-26T13:36:40Z</time>
      </trkpt>
      <trkpt lat="45.57946" lon="-1.05779">
        <ele>44</ele>
        <time>2025-04-26T13:36:41Z</time>
      </trkpt>
      <trkpt lat="45.57951" lon="-1.05777">
        <ele>44</ele>
        <time>2025-04-26T13:36:42Z</time>
      </trkpt>
      <trkpt lat="45.57956" lon="-1.05775">
        <ele>44</ele>
        <time>2025-04-26T13:36:43Z</time>
      </trkpt>
      <trkpt lat="45.5796" lon="-1.05773">
        <ele>44</ele>
        <time>2025-04-26T13:36:44Z</time>
      </trkpt>
      <trkpt lat="45.57965" lon="-1.05771">
        <ele>43</ele>
        <time>2025-04-26T13:36:45Z</time>
      </trkpt>
      <trkpt lat="45.5797" lon="-1.05769">
        <ele>43</ele>
        <time>2025-04-26T13:36:46Z</time>
      </trkpt>
      <trkpt lat="45.57974" lon="-1.05768">
        <ele>43</ele>
        <time>2025-04-26T13:36:47Z</time>
      </trkpt>
      <trkpt lat="45.57979" lon="-1.05766">
        <ele>42</ele>
        <time>2025-04-26T13:36:48Z</time>
      </trkpt>
      <trkpt lat="45.57984" lon="-1.05764">
        <ele>42</ele>
        <time>2025-04-26T13:36:49Z</time>
      </trkpt>
      <trkpt lat="45.57988" lon="-1.05761">
        <ele>42</ele>
        <time>2025-04-26T13:36:50Z</time>
      </trkpt>
      <trkpt lat="45.57993" lon="-1.05758">
        <ele>42</ele>
        <time>2025-04-26T13:36:51Z</time>
      </trkpt>
      <trkpt lat="45.57998" lon="-1.05755">
        <ele>42</ele>
        <time>2025-04-26T13:36:52Z</time>
      </trkpt>
      <trkpt lat="45.58002" lon="-1.05752">
        <ele>42</ele>
        <time>2025-04-26T13:36:53Z</time>
      </trkpt>
      <trkpt lat="45.58007" lon="-1.05749">
        <ele>41</ele>
        <time>2025-04-26T13:36:54Z</time>
      </trkpt>
      <trkpt lat="45.58011" lon="-1.05746">
        <ele>40</ele>
        <time>2025-04-26T13:36:55Z</time>
      </trkpt>
      <trkpt lat="45.58016" lon="-1.05744">
        <ele>40</ele>
        <time>2025-04-26T13:36:56Z</time>
      </trkpt>
      <trkpt lat="45.5802" lon="-1.05742">
        <ele>41</ele>
        <time>2025-04-26T13:36:57Z</time>
      </trkpt>
      <trkpt lat="45.58025" lon="-1.05739">
        <ele>40</ele>
        <time>2025-04-26T13:36:58Z</time>
      </trkpt>
      <trkpt lat="45.58029" lon="-1.05738">
        <ele>40</ele>
        <time>2025-04-26T13:36:59Z</time>
      </trkpt>
      <trkpt lat="45.58034" lon="-1.05736">
        <ele>40</ele>
        <time>2025-04-26T13:37:00Z</time>
      </trkpt>
      <trkpt lat="45.58039" lon="-1.05734">
        <ele>40</ele>
        <time>2025-04-26T13:37:01Z</time>
      </trkpt>
      <trkpt lat="45.58044" lon="-1.05733">
        <ele>41</ele>
        <time>2025-04-26T13:37:02Z</time>
      </trkpt>
      <trkpt lat="45.58049" lon="-1.05731">
        <ele>41</ele>
        <time>2025-04-26T13:37:03Z</time>
      </trkpt>
      <trkpt lat="45.58054" lon="-1.05729">
        <ele>42</ele>
        <time>2025-04-26T13:37:04Z</time>
      </trkpt>
      <trkpt lat="45.58059" lon="-1.05727">
        <ele>43</ele>
        <time>2025-04-26T13:37:05Z</time>
      </trkpt>
      <trkpt lat="45.58064" lon="-1.05725">
        <ele>43</ele>
        <time>2025-04-26T13:37:06Z</time>
      </trkpt>
      <trkpt lat="45.58069" lon="-1.05723">
        <ele>44</ele>
        <time>2025-04-26T13:37:07Z</time>
      </trkpt>
      <trkpt lat="45.58073" lon="-1.05721">
        <ele>44</ele>
        <time>2025-04-26T13:37:08Z</time>
      </trkpt>
      <trkpt lat="45.58077" lon="-1.05719">
        <ele>43</ele>
        <time>2025-04-26T13:37:09Z</time>
      </trkpt>
      <trkpt lat="45.58082" lon="-1.05716">
        <ele>44</ele>
        <time>2025-04-26T13:37:10Z</time>
      </trkpt>
      <trkpt lat="45.58086" lon="-1.05714">
        <ele>43</ele>
        <time>2025-04-26T13:37:11Z</time>
      </trkpt>
      <trkpt lat="45.58091" lon="-1.05712">
        <ele>43</ele>
        <time>2025-04-26T13:37:12Z</time>
      </trkpt>
      <trkpt lat="45.58095" lon="-1.0571">
        <ele>43</ele>
        <time>2025-04-26T13:37:13Z</time>
      </trkpt>
      <trkpt lat="45.581" lon="-1.05707">
        <ele>44</ele>
        <time>2025-04-26T13:37:14Z</time>
      </trkpt>
      <trkpt lat="45.58105" lon="-1.05705">
        <ele>44</ele>
        <time>2025-04-26T13:37:15Z</time>
      </trkpt>
      <trkpt lat="45.58109" lon="-1.05702">
        <ele>44</ele>
        <time>2025-04-26T13:37:16Z</time>
      </trkpt>
      <trkpt lat="45.58113" lon="-1.057">
        <ele>44</ele>
        <time>2025-04-26T13:37:17Z</time>
      </trkpt>
      <trkpt lat="45.58117" lon="-1.05697">
        <ele>42</ele>
        <time>2025-04-26T13:37:18Z</time>
      </trkpt>
      <trkpt lat="45.58122" lon="-1.05695">
        <ele>42</ele>
        <time>2025-04-26T13:37:19Z</time>
      </trkpt>
      <trkpt lat="45.58126" lon="-1.05694">
        <ele>41</ele>
        <time>2025-04-26T13:37:20Z</time>
      </trkpt>
      <trkpt lat="45.5813" lon="-1.05692">
        <ele>42</ele>
        <time>2025-04-26T13:37:21Z</time>
      </trkpt>
      <trkpt lat="45.58134" lon="-1.0569">
        <ele>41</ele>
        <time>2025-04-26T13:37:22Z</time>
      </trkpt>
      <trkpt lat="45.58138" lon="-1.05688">
        <ele>40</ele>
        <time>2025-04-26T13:37:23Z</time>
      </trkpt>
      <trkpt lat="45.58142" lon="-1.05685">
        <ele>40</ele>
        <time>2025-04-26T13:37:24Z</time>
      </trkpt>
      <trkpt lat="45.58146" lon="-1.05683">
        <ele>40</ele>
        <time>2025-04-26T13:37:25Z</time>
      </trkpt>
      <trkpt lat="45.5815" lon="-1.0568">
        <ele>40</ele>
        <time>2025-04-26T13:37:26Z</time>
      </trkpt>
      <trkpt lat="45.58154" lon="-1.05678">
        <ele>40</ele>
        <time>2025-04-26T13:37:27Z</time>
      </trkpt>
      <trkpt lat="45.58158" lon="-1.05676">
        <ele>39</ele>
        <time>2025-04-26T13:37:28Z</time>
      </trkpt>
      <trkpt lat="45.58162" lon="-1.05674">
        <ele>40</ele>
        <time>2025-04-26T13:37:29Z</time>
      </trkpt>
      <trkpt lat="45.58166" lon="-1.05673">
        <ele>40</ele>
        <time>2025-04-26T13:37:30Z</time>
      </trkpt>
      <trkpt lat="45.5817" lon="-1.05671">
        <ele>40</ele>
        <time>2025-04-26T13:37:31Z</time>
      </trkpt>
      <trkpt lat="45.58173" lon="-1.0567">
        <ele>39</ele>
        <time>2025-04-26T13:37:32Z</time>
      </trkpt>
      <trkpt lat="45.58177" lon="-1.05668">
        <ele>39</ele>
        <time>2025-04-26T13:37:33Z</time>
      </trkpt>
      <trkpt lat="45.58181" lon="-1.05667">
        <ele>40</ele>
        <time>2025-04-26T13:37:34Z</time>
      </trkpt>
      <trkpt lat="45.58184" lon="-1.05667">
        <ele>39</ele>
        <time>2025-04-26T13:37:35Z</time>
      </trkpt>
      <trkpt lat="45.58188" lon="-1.05666">
        <ele>39</ele>
        <time>2025-04-26T13:37:36Z</time>
      </trkpt>
      <trkpt lat="45.58192" lon="-1.05665">
        <ele>38</ele>
        <time>2025-04-26T13:37:37Z</time>
      </trkpt>
      <trkpt lat="45.58197" lon="-1.05664">
        <ele>38</ele>
        <time>2025-04-26T13:37:38Z</time>
      </trkpt>
      <trkpt lat="45.58201" lon="-1.05663">
        <ele>37</ele>
        <time>2025-04-26T13:37:39Z</time>
      </trkpt>
      <trkpt lat="45.58205" lon="-1.05662">
        <ele>37</ele>
        <time>2025-04-26T13:37:40Z</time>
      </trkpt>
      <trkpt lat="45.58209" lon="-1.05662">
        <ele>37</ele>
        <time>2025-04-26T13:37:41Z</time>
      </trkpt>
      <trkpt lat="45.58213" lon="-1.05661">
        <ele>36</ele>
        <time>2025-04-26T13:37:42Z</time>
      </trkpt>
      <trkpt lat="45.58217" lon="-1.05661">
        <ele>36</ele>
        <time>2025-04-26T13:37:43Z</time>
      </trkpt>
      <trkpt lat="45.58221" lon="-1.05661">
        <ele>36</ele>
        <time>2025-04-26T13:37:44Z</time>
      </trkpt>
      <trkpt lat="45.58225" lon="-1.0566">
        <ele>36</ele>
        <time>2025-04-26T13:37:45Z</time>
      </trkpt>
      <trkpt lat="45.58229" lon="-1.0566">
        <ele>36</ele>
        <time>2025-04-26T13:37:46Z</time>
      </trkpt>
      <trkpt lat="45.58232" lon="-1.0566">
        <ele>37</ele>
        <time>2025-04-26T13:37:47Z</time>
      </trkpt>
      <trkpt lat="45.58236" lon="-1.05659">
        <ele>37</ele>
        <time>2025-04-26T13:37:48Z</time>
      </trkpt>
      <trkpt lat="45.5824" lon="-1.05658">
        <ele>37</ele>
        <time>2025-04-26T13:37:49Z</time>
      </trkpt>
      <trkpt lat="45.58244" lon="-1.05658">
        <ele>37</ele>
        <time>2025-04-26T13:37:50Z</time>
      </trkpt>
      <trkpt lat="45.58248" lon="-1.05658">
        <ele>37</ele>
        <time>2025-04-26T13:37:51Z</time>
      </trkpt>
      <trkpt lat="45.58252" lon="-1.05658">
        <ele>38</ele>
        <time>2025-04-26T13:37:52Z</time>
      </trkpt>
      <trkpt lat="45.58257" lon="-1.05658">
        <ele>38</ele>
        <time>2025-04-26T13:37:53Z</time>
      </trkpt>
      <trkpt lat="45.58261" lon="-1.05657">
        <ele>39</ele>
        <time>2025-04-26T13:37:54Z</time>
      </trkpt>
      <trkpt lat="45.58266" lon="-1.05657">
        <ele>40</ele>
        <time>2025-04-26T13:37:55Z</time>
      </trkpt>
      <trkpt lat="45.58269" lon="-1.05657">
        <ele>41</ele>
        <time>2025-04-26T13:37:56Z</time>
      </trkpt>
      <trkpt lat="45.58274" lon="-1.05657">
        <ele>42</ele>
        <time>2025-04-26T13:37:57Z</time>
      </trkpt>
      <trkpt lat="45.58277" lon="-1.05657">
        <ele>42</ele>
        <time>2025-04-26T13:37:58Z</time>
      </trkpt>
      <trkpt lat="45.58279" lon="-1.05657">
        <ele>42</ele>
        <time>2025-04-26T13:37:59Z</time>
      </trkpt>
      <trkpt lat="45.58282" lon="-1.05656">
        <ele>41</ele>
        <time>2025-04-26T13:38:00Z</time>
      </trkpt>
      <trkpt lat="45.58285" lon="-1.05656">
        <ele>41</ele>
        <time>2025-04-26T13:38:01Z</time>
      </trkpt>
      <trkpt lat="45.58288" lon="-1.05655">
        <ele>40</ele>
        <time>2025-04-26T13:38:02Z</time>
      </trkpt>
      <trkpt lat="45.58292" lon="-1.05656">
        <ele>40</ele>
        <time>2025-04-26T13:38:03Z</time>
      </trkpt>
      <trkpt lat="45.58295" lon="-1.05655">
        <ele>41</ele>
        <time>2025-04-26T13:38:04Z</time>
      </trkpt>
      <trkpt lat="45.58298" lon="-1.05654">
        <ele>42</ele>
        <time>2025-04-26T13:38:05Z</time>
      </trkpt>
      <trkpt lat="45.58301" lon="-1.05652">
        <ele>42</ele>
        <time>2025-04-26T13:38:06Z</time>
      </trkpt>
      <trkpt lat="45.58304" lon="-1.05652">
        <ele>42</ele>
        <time>2025-04-26T13:38:07Z</time>
      </trkpt>
      <trkpt lat="45.58308" lon="-1.05652">
        <ele>41</ele>
        <time>2025-04-26T13:38:08Z</time>
      </trkpt>
      <trkpt lat="45.58312" lon="-1.05652">
        <ele>40</ele>
        <time>2025-04-26T13:38:09Z</time>
      </trkpt>
      <trkpt lat="45.58316" lon="-1.05652">
        <ele>41</ele>
        <time>2025-04-26T13:38:10Z</time>
      </trkpt>
      <trkpt lat="45.5832" lon="-1.05652">
        <ele>41</ele>
        <time>2025-04-26T13:38:11Z</time>
      </trkpt>
      <trkpt lat="45.58324" lon="-1.05652">
        <ele>41</ele>
        <time>2025-04-26T13:38:12Z</time>
      </trkpt>
      <trkpt lat="45.58328" lon="-1.05651">
        <ele>40</ele>
        <time>2025-04-26T13:38:13Z</time>
      </trkpt>
      <trkpt lat="45.58331" lon="-1.05651">
        <ele>40</ele>
        <time>2025-04-26T13:38:14Z</time>
      </trkpt>
      <trkpt lat="45.58335" lon="-1.05651">
        <ele>39</ele>
        <time>2025-04-26T13:38:15Z</time>
      </trkpt>
      <trkpt lat="45.58339" lon="-1.0565">
        <ele>39</ele>
        <time>2025-04-26T13:38:16Z</time>
      </trkpt>
      <trkpt lat="45.58343" lon="-1.0565">
        <ele>39</ele>
        <time>2025-04-26T13:38:17Z</time>
      </trkpt>
      <trkpt lat="45.58347" lon="-1.05649">
        <ele>39</ele>
        <time>2025-04-26T13:38:18Z</time>
      </trkpt>
      <trkpt lat="45.5835" lon="-1.05649">
        <ele>38</ele>
        <time>2025-04-26T13:38:19Z</time>
      </trkpt>
      <trkpt lat="45.58354" lon="-1.05648">
        <ele>38</ele>
        <time>2025-04-26T13:38:20Z</time>
      </trkpt>
      <trkpt lat="45.58358" lon="-1.05647">
        <ele>38</ele>
        <time>2025-04-26T13:38:21Z</time>
      </trkpt>
      <trkpt lat="45.58362" lon="-1.05647">
        <ele>38</ele>
        <time>2025-04-26T13:38:22Z</time>
      </trkpt>
      <trkpt lat="45.58366" lon="-1.05647">
        <ele>38</ele>
        <time>2025-04-26T13:38:23Z</time>
      </trkpt>
      <trkpt lat="45.58369" lon="-1.05645">
        <ele>38</ele>
        <time>2025-04-26T13:38:24Z</time>
      </trkpt>
      <trkpt lat="45.58372" lon="-1.05644">
        <ele>38</ele>
        <time>2025-04-26T13:38:25Z</time>
      </trkpt>
      <trkpt lat="45.58376" lon="-1.05643">
        <ele>39</ele>
        <time>2025-04-26T13:38:26Z</time>
      </trkpt>
      <trkpt lat="45.5838" lon="-1.05642">
        <ele>39</ele>
        <time>2025-04-26T13:38:27Z</time>
      </trkpt>
      <trkpt lat="45.58383" lon="-1.0564">
        <ele>39</ele>
        <time>2025-04-26T13:38:28Z</time>
      </trkpt>
      <trkpt lat="45.58386" lon="-1.05638">
        <ele>39</ele>
        <time>2025-04-26T13:38:29Z</time>
      </trkpt>
      <trkpt lat="45.58389" lon="-1.05636">
        <ele>40</ele>
        <time>2025-04-26T13:38:30Z</time>
      </trkpt>
      <trkpt lat="45.58393" lon="-1.05635">
        <ele>40</ele>
        <time>2025-04-26T13:38:31Z</time>
      </trkpt>
      <trkpt lat="45.58396" lon="-1.05633">
        <ele>40</ele>
        <time>2025-04-26T13:38:32Z</time>
      </trkpt>
      <trkpt lat="45.584" lon="-1.05632">
        <ele>40</ele>
        <time>2025-04-26T13:38:33Z</time>
      </trkpt>
      <trkpt lat="45.58404" lon="-1.05632">
        <ele>41</ele>
        <time>2025-04-26T13:38:34Z</time>
      </trkpt>
      <trkpt lat="45.58408" lon="-1.05631">
        <ele>41</ele>
        <time>2025-04-26T13:38:35Z</time>
      </trkpt>
      <trkpt lat="45.58412" lon="-1.0563">
        <ele>41</ele>
        <time>2025-04-26T13:38:36Z</time>
      </trkpt>
      <trkpt lat="45.58415" lon="-1.0563">
        <ele>41</ele>
        <time>2025-04-26T13:38:37Z</time>
      </trkpt>
      <trkpt lat="45.58419" lon="-1.05628">
        <ele>41</ele>
        <time>2025-04-26T13:38:38Z</time>
      </trkpt>
      <trkpt lat="45.58422" lon="-1.05627">
        <ele>42</ele>
        <time>2025-04-26T13:38:39Z</time>
      </trkpt>
      <trkpt lat="45.58425" lon="-1.05626">
        <ele>42</ele>
        <time>2025-04-26T13:38:40Z</time>
      </trkpt>
      <trkpt lat="45.58428" lon="-1.05624">
        <ele>41</ele>
        <time>2025-04-26T13:38:41Z</time>
      </trkpt>
      <trkpt lat="45.58432" lon="-1.05622">
        <ele>41</ele>
        <time>2025-04-26T13:38:42Z</time>
      </trkpt>
      <trkpt lat="45.58435" lon="-1.05621">
        <ele>42</ele>
        <time>2025-04-26T13:38:43Z</time>
      </trkpt>
      <trkpt lat="45.58439" lon="-1.0562">
        <ele>41</ele>
        <time>2025-04-26T13:38:44Z</time>
      </trkpt>
      <trkpt lat="45.58442" lon="-1.05619">
        <ele>42</ele>
        <time>2025-04-26T13:38:45Z</time>
      </trkpt>
      <trkpt lat="45.58446" lon="-1.05618">
        <ele>43</ele>
        <time>2025-04-26T13:38:46Z</time>
      </trkpt>
      <trkpt lat="45.5845" lon="-1.05617">
        <ele>43</ele>
        <time>2025-04-26T13:38:47Z</time>
      </trkpt>
      <trkpt lat="45.58454" lon="-1.05617">
        <ele>42</ele>
        <time>2025-04-26T13:38:48Z</time>
      </trkpt>
      <trkpt lat="45.58458" lon="-1.05617">
        <ele>42</ele>
        <time>2025-04-26T13:38:49Z</time>
      </trkpt>
      <trkpt lat="45.58461" lon="-1.05617">
        <ele>42</ele>
        <time>2025-04-26T13:38:50Z</time>
      </trkpt>
      <trkpt lat="45.58465" lon="-1.05616">
        <ele>41</ele>
        <time>2025-04-26T13:38:51Z</time>
      </trkpt>
      <trkpt lat="45.58468" lon="-1.05615">
        <ele>41</ele>
        <time>2025-04-26T13:38:52Z</time>
      </trkpt>
      <trkpt lat="45.58471" lon="-1.05614">
        <ele>40</ele>
        <time>2025-04-26T13:38:53Z</time>
      </trkpt>
      <trkpt lat="45.58475" lon="-1.05613">
        <ele>39</ele>
        <time>2025-04-26T13:38:54Z</time>
      </trkpt>
      <trkpt lat="45.58478" lon="-1.05613">
        <ele>39</ele>
        <time>2025-04-26T13:38:55Z</time>
      </trkpt>
      <trkpt lat="45.58482" lon="-1.05612">
        <ele>39</ele>
        <time>2025-04-26T13:38:56Z</time>
      </trkpt>
      <trkpt lat="45.58486" lon="-1.05611">
        <ele>39</ele>
        <time>2025-04-26T13:38:57Z</time>
      </trkpt>
      <trkpt lat="45.5849" lon="-1.05609">
        <ele>41</ele>
        <time>2025-04-26T13:38:58Z</time>
      </trkpt>
      <trkpt lat="45.58493" lon="-1.05608">
        <ele>42</ele>
        <time>2025-04-26T13:38:59Z</time>
      </trkpt>
      <trkpt lat="45.58496" lon="-1.05607">
        <ele>42</ele>
        <time>2025-04-26T13:39:00Z</time>
      </trkpt>
      <trkpt lat="45.585" lon="-1.05605">
        <ele>42</ele>
        <time>2025-04-26T13:39:01Z</time>
      </trkpt>
      <trkpt lat="45.58503" lon="-1.05604">
        <ele>41</ele>
        <time>2025-04-26T13:39:02Z</time>
      </trkpt>
      <trkpt lat="45.58507" lon="-1.05602">
        <ele>41</ele>
        <time>2025-04-26T13:39:03Z</time>
      </trkpt>
      <trkpt lat="45.5851" lon="-1.05601">
        <ele>41</ele>
        <time>2025-04-26T13:39:04Z</time>
      </trkpt>
      <trkpt lat="45.58514" lon="-1.05599">
        <ele>41</ele>
        <time>2025-04-26T13:39:05Z</time>
      </trkpt>
      <trkpt lat="45.58517" lon="-1.05598">
        <ele>41</ele>
        <time>2025-04-26T13:39:06Z</time>
      </trkpt>
      <trkpt lat="45.5852" lon="-1.05597">
        <ele>41</ele>
        <time>2025-04-26T13:39:07Z</time>
      </trkpt>
      <trkpt lat="45.58523" lon="-1.05596">
        <ele>41</ele>
        <time>2025-04-26T13:39:08Z</time>
      </trkpt>
      <trkpt lat="45.58527" lon="-1.05595">
        <ele>42</ele>
        <time>2025-04-26T13:39:09Z</time>
      </trkpt>
      <trkpt lat="45.5853" lon="-1.05593">
        <ele>41</ele>
        <time>2025-04-26T13:39:10Z</time>
      </trkpt>
      <trkpt lat="45.58533" lon="-1.05592">
        <ele>42</ele>
        <time>2025-04-26T13:39:11Z</time>
      </trkpt>
      <trkpt lat="45.58537" lon="-1.05591">
        <ele>41</ele>
        <time>2025-04-26T13:39:12Z</time>
      </trkpt>
      <trkpt lat="45.5854" lon="-1.0559">
        <ele>41</ele>
        <time>2025-04-26T13:39:13Z</time>
      </trkpt>
      <trkpt lat="45.58544" lon="-1.05589">
        <ele>42</ele>
        <time>2025-04-26T13:39:14Z</time>
      </trkpt>
      <trkpt lat="45.58547" lon="-1.05589">
        <ele>42</ele>
        <time>2025-04-26T13:39:15Z</time>
      </trkpt>
      <trkpt lat="45.58551" lon="-1.05588">
        <ele>43</ele>
        <time>2025-04-26T13:39:16Z</time>
      </trkpt>
      <trkpt lat="45.58554" lon="-1.05588">
        <ele>43</ele>
        <time>2025-04-26T13:39:17Z</time>
      </trkpt>
      <trkpt lat="45.58558" lon="-1.05587">
        <ele>43</ele>
        <time>2025-04-26T13:39:18Z</time>
      </trkpt>
      <trkpt lat="45.58562" lon="-1.05587">
        <ele>43</ele>
        <time>2025-04-26T13:39:19Z</time>
      </trkpt>
      <trkpt lat="45.58566" lon="-1.05587">
        <ele>44</ele>
        <time>2025-04-26T13:39:20Z</time>
      </trkpt>
      <trkpt lat="45.58569" lon="-1.05586">
        <ele>44</ele>
        <time>2025-04-26T13:39:21Z</time>
      </trkpt>
      <trkpt lat="45.58573" lon="-1.05586">
        <ele>44</ele>
        <time>2025-04-26T13:39:22Z</time>
      </trkpt>
      <trkpt lat="45.58577" lon="-1.05585">
        <ele>44</ele>
        <time>2025-04-26T13:39:23Z</time>
      </trkpt>
      <trkpt lat="45.5858" lon="-1.05584">
        <ele>44</ele>
        <time>2025-04-26T13:39:24Z</time>
      </trkpt>
      <trkpt lat="45.58584" lon="-1.05584">
        <ele>44</ele>
        <time>2025-04-26T13:39:25Z</time>
      </trkpt>
      <trkpt lat="45.58587" lon="-1.05583">
        <ele>43</ele>
        <time>2025-04-26T13:39:26Z</time>
      </trkpt>
      <trkpt lat="45.58591" lon="-1.05583">
        <ele>42</ele>
        <time>2025-04-26T13:39:27Z</time>
      </trkpt>
      <trkpt lat="45.58596" lon="-1.05582">
        <ele>40</ele>
        <time>2025-04-26T13:39:28Z</time>
      </trkpt>
      <trkpt lat="45.586" lon="-1.05582">
        <ele>39</ele>
        <time>2025-04-26T13:39:29Z</time>
      </trkpt>
      <trkpt lat="45.58604" lon="-1.05582">
        <ele>37</ele>
        <time>2025-04-26T13:39:30Z</time>
      </trkpt>
      <trkpt lat="45.58608" lon="-1.05581">
        <ele>37</ele>
        <time>2025-04-26T13:39:31Z</time>
      </trkpt>
      <trkpt lat="45.58613" lon="-1.05581">
        <ele>36</ele>
        <time>2025-04-26T13:39:32Z</time>
      </trkpt>
      <trkpt lat="45.58617" lon="-1.0558">
        <ele>36</ele>
        <time>2025-04-26T13:39:33Z</time>
      </trkpt>
      <trkpt lat="45.5862" lon="-1.05579">
        <ele>35</ele>
        <time>2025-04-26T13:39:34Z</time>
      </trkpt>
      <trkpt lat="45.58624" lon="-1.05578">
        <ele>35</ele>
        <time>2025-04-26T13:39:35Z</time>
      </trkpt>
      <trkpt lat="45.58627" lon="-1.05577">
        <ele>34</ele>
        <time>2025-04-26T13:39:36Z</time>
      </trkpt>
      <trkpt lat="45.58631" lon="-1.05576">
        <ele>35</ele>
        <time>2025-04-26T13:39:37Z</time>
      </trkpt>
      <trkpt lat="45.58634" lon="-1.05575">
        <ele>34</ele>
        <time>2025-04-26T13:39:38Z</time>
      </trkpt>
      <trkpt lat="45.58637" lon="-1.05574">
        <ele>33</ele>
        <time>2025-04-26T13:39:39Z</time>
      </trkpt>
      <trkpt lat="45.58641" lon="-1.05573">
        <ele>32</ele>
        <time>2025-04-26T13:39:40Z</time>
      </trkpt>
      <trkpt lat="45.58644" lon="-1.05572">
        <ele>32</ele>
        <time>2025-04-26T13:39:41Z</time>
      </trkpt>
      <trkpt lat="45.58647" lon="-1.05571">
        <ele>32</ele>
        <time>2025-04-26T13:39:42Z</time>
      </trkpt>
      <trkpt lat="45.58651" lon="-1.0557">
        <ele>31</ele>
        <time>2025-04-26T13:39:43Z</time>
      </trkpt>
      <trkpt lat="45.58654" lon="-1.05569">
        <ele>31</ele>
        <time>2025-04-26T13:39:44Z</time>
      </trkpt>
      <trkpt lat="45.58657" lon="-1.05568">
        <ele>31</ele>
        <time>2025-04-26T13:39:45Z</time>
      </trkpt>
      <trkpt lat="45.58661" lon="-1.05567">
        <ele>31</ele>
        <time>2025-04-26T13:39:46Z</time>
      </trkpt>
      <trkpt lat="45.58664" lon="-1.05565">
        <ele>31</ele>
        <time>2025-04-26T13:39:47Z</time>
      </trkpt>
      <trkpt lat="45.58668" lon="-1.05564">
        <ele>32</ele>
        <time>2025-04-26T13:39:48Z</time>
      </trkpt>
      <trkpt lat="45.58671" lon="-1.05563">
        <ele>33</ele>
        <time>2025-04-26T13:39:49Z</time>
      </trkpt>
      <trkpt lat="45.58674" lon="-1.05562">
        <ele>33</ele>
        <time>2025-04-26T13:39:50Z</time>
      </trkpt>
      <trkpt lat="45.58678" lon="-1.05562">
        <ele>34</ele>
        <time>2025-04-26T13:39:51Z</time>
      </trkpt>
      <trkpt lat="45.58681" lon="-1.05561">
        <ele>35</ele>
        <time>2025-04-26T13:39:52Z</time>
      </trkpt>
      <trkpt lat="45.58685" lon="-1.05561">
        <ele>35</ele>
        <time>2025-04-26T13:39:53Z</time>
      </trkpt>
      <trkpt lat="45.58689" lon="-1.05561">
        <ele>36</ele>
        <time>2025-04-26T13:39:54Z</time>
      </trkpt>
      <trkpt lat="45.58692" lon="-1.0556">
        <ele>36</ele>
        <time>2025-04-26T13:39:55Z</time>
      </trkpt>
      <trkpt lat="45.58696" lon="-1.05559">
        <ele>37</ele>
        <time>2025-04-26T13:39:56Z</time>
      </trkpt>
      <trkpt lat="45.587" lon="-1.05559">
        <ele>37</ele>
        <time>2025-04-26T13:39:57Z</time>
      </trkpt>
      <trkpt lat="45.58704" lon="-1.05558">
        <ele>37</ele>
        <time>2025-04-26T13:39:58Z</time>
      </trkpt>
      <trkpt lat="45.58708" lon="-1.05558">
        <ele>37</ele>
        <time>2025-04-26T13:39:59Z</time>
      </trkpt>
      <trkpt lat="45.58713" lon="-1.05557">
        <ele>37</ele>
        <time>2025-04-26T13:40:00Z</time>
      </trkpt>
      <trkpt lat="45.58718" lon="-1.05556">
        <ele>37</ele>
        <time>2025-04-26T13:40:01Z</time>
      </trkpt>
      <trkpt lat="45.58722" lon="-1.05555">
        <ele>37</ele>
        <time>2025-04-26T13:40:02Z</time>
      </trkpt>
      <trkpt lat="45.58725" lon="-1.05554">
        <ele>38</ele>
        <time>2025-04-26T13:40:03Z</time>
      </trkpt>
      <trkpt lat="45.58728" lon="-1.05552">
        <ele>42</ele>
        <time>2025-04-26T13:40:04Z</time>
      </trkpt>
      <trkpt lat="45.58732" lon="-1.05552">
        <ele>42</ele>
        <time>2025-04-26T13:40:05Z</time>
      </trkpt>
      <trkpt lat="45.58736" lon="-1.05551">
        <ele>42</ele>
        <time>2025-04-26T13:40:06Z</time>
      </trkpt>
      <trkpt lat="45.58739" lon="-1.05551">
        <ele>42</ele>
        <time>2025-04-26T13:40:07Z</time>
      </trkpt>
      <trkpt lat="45.58744" lon="-1.05551">
        <ele>42</ele>
        <time>2025-04-26T13:40:08Z</time>
      </trkpt>
      <trkpt lat="45.58748" lon="-1.0555">
        <ele>42</ele>
        <time>2025-04-26T13:40:09Z</time>
      </trkpt>
      <trkpt lat="45.58751" lon="-1.05549">
        <ele>41</ele>
        <time>2025-04-26T13:40:10Z</time>
      </trkpt>
      <trkpt lat="45.58755" lon="-1.05548">
        <ele>41</ele>
        <time>2025-04-26T13:40:11Z</time>
      </trkpt>
      <trkpt lat="45.58759" lon="-1.05547">
        <ele>41</ele>
        <time>2025-04-26T13:40:12Z</time>
      </trkpt>
      <trkpt lat="45.58762" lon="-1.05544">
        <ele>43</ele>
        <time>2025-04-26T13:40:13Z</time>
      </trkpt>
      <trkpt lat="45.58765" lon="-1.05543">
        <ele>43</ele>
        <time>2025-04-26T13:40:14Z</time>
      </trkpt>
      <trkpt lat="45.58769" lon="-1.05542">
        <ele>43</ele>
        <time>2025-04-26T13:40:15Z</time>
      </trkpt>
      <trkpt lat="45.58772" lon="-1.0554">
        <ele>43</ele>
        <time>2025-04-26T13:40:16Z</time>
      </trkpt>
      <trkpt lat="45.58776" lon="-1.05539">
        <ele>42</ele>
        <time>2025-04-26T13:40:17Z</time>
      </trkpt>
      <trkpt lat="45.58779" lon="-1.05538">
        <ele>41</ele>
        <time>2025-04-26T13:40:18Z</time>
      </trkpt>
      <trkpt lat="45.58783" lon="-1.05537">
        <ele>40</ele>
        <time>2025-04-26T13:40:19Z</time>
      </trkpt>
      <trkpt lat="45.58787" lon="-1.05536">
        <ele>40</ele>
        <time>2025-04-26T13:40:20Z</time>
      </trkpt>
      <trkpt lat="45.5879" lon="-1.05535">
        <ele>40</ele>
        <time>2025-04-26T13:40:21Z</time>
      </trkpt>
      <trkpt lat="45.58794" lon="-1.05535">
        <ele>40</ele>
        <time>2025-04-26T13:40:22Z</time>
      </trkpt>
      <trkpt lat="45.58798" lon="-1.05534">
        <ele>40</ele>
        <time>2025-04-26T13:40:23Z</time>
      </trkpt>
      <trkpt lat="45.58801" lon="-1.05532">
        <ele>41</ele>
        <time>2025-04-26T13:40:24Z</time>
      </trkpt>
      <trkpt lat="45.58805" lon="-1.05531">
        <ele>42</ele>
        <time>2025-04-26T13:40:25Z</time>
      </trkpt>
      <trkpt lat="45.58808" lon="-1.05531">
        <ele>42</ele>
        <time>2025-04-26T13:40:26Z</time>
      </trkpt>
      <trkpt lat="45.58812" lon="-1.0553">
        <ele>43</ele>
        <time>2025-04-26T13:40:27Z</time>
      </trkpt>
      <trkpt lat="45.58815" lon="-1.0553">
        <ele>43</ele>
        <time>2025-04-26T13:40:28Z</time>
      </trkpt>
      <trkpt lat="45.58819" lon="-1.05529">
        <ele>42</ele>
        <time>2025-04-26T13:40:29Z</time>
      </trkpt>
      <trkpt lat="45.58823" lon="-1.05528">
        <ele>42</ele>
        <time>2025-04-26T13:40:30Z</time>
      </trkpt>
      <trkpt lat="45.58827" lon="-1.05527">
        <ele>41</ele>
        <time>2025-04-26T13:40:31Z</time>
      </trkpt>
      <trkpt lat="45.58831" lon="-1.05526">
        <ele>41</ele>
        <time>2025-04-26T13:40:32Z</time>
      </trkpt>
      <trkpt lat="45.58834" lon="-1.05526">
        <ele>41</ele>
        <time>2025-04-26T13:40:33Z</time>
      </trkpt>
      <trkpt lat="45.58838" lon="-1.05526">
        <ele>41</ele>
        <time>2025-04-26T13:40:34Z</time>
      </trkpt>
      <trkpt lat="45.58841" lon="-1.05525">
        <ele>41</ele>
        <time>2025-04-26T13:40:35Z</time>
      </trkpt>
      <trkpt lat="45.58844" lon="-1.05524">
        <ele>43</ele>
        <time>2025-04-26T13:40:36Z</time>
      </trkpt>
      <trkpt lat="45.58848" lon="-1.05522">
        <ele>42</ele>
        <time>2025-04-26T13:40:37Z</time>
      </trkpt>
      <trkpt lat="45.58852" lon="-1.05521">
        <ele>42</ele>
        <time>2025-04-26T13:40:38Z</time>
      </trkpt>
      <trkpt lat="45.58856" lon="-1.05521">
        <ele>41</ele>
        <time>2025-04-26T13:40:39Z</time>
      </trkpt>
      <trkpt lat="45.5886" lon="-1.0552">
        <ele>41</ele>
        <time>2025-04-26T13:40:40Z</time>
      </trkpt>
      <trkpt lat="45.58863" lon="-1.0552">
        <ele>40</ele>
        <time>2025-04-26T13:40:41Z</time>
      </trkpt>
      <trkpt lat="45.58867" lon="-1.05519">
        <ele>40</ele>
        <time>2025-04-26T13:40:42Z</time>
      </trkpt>
      <trkpt lat="45.58871" lon="-1.05519">
        <ele>39</ele>
        <time>2025-04-26T13:40:43Z</time>
      </trkpt>
      <trkpt lat="45.58875" lon="-1.05518">
        <ele>39</ele>
        <time>2025-04-26T13:40:44Z</time>
      </trkpt>
      <trkpt lat="45.58878" lon="-1.05516">
        <ele>37</ele>
        <time>2025-04-26T13:40:45Z</time>
      </trkpt>
      <trkpt lat="45.58882" lon="-1.05515">
        <ele>36</ele>
        <time>2025-04-26T13:40:46Z</time>
      </trkpt>
      <trkpt lat="45.58886" lon="-1.05514">
        <ele>35</ele>
        <time>2025-04-26T13:40:47Z</time>
      </trkpt>
      <trkpt lat="45.5889" lon="-1.05513">
        <ele>34</ele>
        <time>2025-04-26T13:40:48Z</time>
      </trkpt>
      <trkpt lat="45.58894" lon="-1.05512">
        <ele>34</ele>
        <time>2025-04-26T13:40:49Z</time>
      </trkpt>
      <trkpt lat="45.58898" lon="-1.05512">
        <ele>35</ele>
        <time>2025-04-26T13:40:50Z</time>
      </trkpt>
      <trkpt lat="45.58903" lon="-1.05511">
        <ele>34</ele>
        <time>2025-04-26T13:40:51Z</time>
      </trkpt>
      <trkpt lat="45.58906" lon="-1.0551">
        <ele>35</ele>
        <time>2025-04-26T13:40:52Z</time>
      </trkpt>
      <trkpt lat="45.58909" lon="-1.05508">
        <ele>34</ele>
        <time>2025-04-26T13:40:53Z</time>
      </trkpt>
      <trkpt lat="45.58913" lon="-1.05506">
        <ele>34</ele>
        <time>2025-04-26T13:40:54Z</time>
      </trkpt>
      <trkpt lat="45.58916" lon="-1.05506">
        <ele>34</ele>
        <time>2025-04-26T13:40:55Z</time>
      </trkpt>
      <trkpt lat="45.5892" lon="-1.05504">
        <ele>37</ele>
        <time>2025-04-26T13:40:56Z</time>
      </trkpt>
      <trkpt lat="45.58923" lon="-1.05503">
        <ele>36</ele>
        <time>2025-04-26T13:40:57Z</time>
      </trkpt>
      <trkpt lat="45.58927" lon="-1.05503">
        <ele>36</ele>
        <time>2025-04-26T13:40:58Z</time>
      </trkpt>
      <trkpt lat="45.5893" lon="-1.05503">
        <ele>37</ele>
        <time>2025-04-26T13:40:59Z</time>
      </trkpt>
      <trkpt lat="45.58934" lon="-1.05502">
        <ele>37</ele>
        <time>2025-04-26T13:41:00Z</time>
      </trkpt>
      <trkpt lat="45.58937" lon="-1.05501">
        <ele>36</ele>
        <time>2025-04-26T13:41:01Z</time>
      </trkpt>
      <trkpt lat="45.5894" lon="-1.055">
        <ele>36</ele>
        <time>2025-04-26T13:41:02Z</time>
      </trkpt>
      <trkpt lat="45.58944" lon="-1.055">
        <ele>35</ele>
        <time>2025-04-26T13:41:03Z</time>
      </trkpt>
      <trkpt lat="45.58948" lon="-1.05498">
        <ele>36</ele>
        <time>2025-04-26T13:41:04Z</time>
      </trkpt>
      <trkpt lat="45.58952" lon="-1.05497">
        <ele>37</ele>
        <time>2025-04-26T13:41:05Z</time>
      </trkpt>
      <trkpt lat="45.58956" lon="-1.05496">
        <ele>39</ele>
        <time>2025-04-26T13:41:06Z</time>
      </trkpt>
      <trkpt lat="45.5896" lon="-1.05495">
        <ele>39</ele>
        <time>2025-04-26T13:41:07Z</time>
      </trkpt>
      <trkpt lat="45.58964" lon="-1.05494">
        <ele>40</ele>
        <time>2025-04-26T13:41:08Z</time>
      </trkpt>
      <trkpt lat="45.58968" lon="-1.05493">
        <ele>41</ele>
        <time>2025-04-26T13:41:09Z</time>
      </trkpt>
      <trkpt lat="45.58972" lon="-1.05493">
        <ele>41</ele>
        <time>2025-04-26T13:41:10Z</time>
      </trkpt>
      <trkpt lat="45.58976" lon="-1.05492">
        <ele>40</ele>
        <time>2025-04-26T13:41:11Z</time>
      </trkpt>
      <trkpt lat="45.5898" lon="-1.05491">
        <ele>40</ele>
        <time>2025-04-26T13:41:12Z</time>
      </trkpt>
      <trkpt lat="45.58983" lon="-1.0549">
        <ele>40</ele>
        <time>2025-04-26T13:41:13Z</time>
      </trkpt>
      <trkpt lat="45.58987" lon="-1.05489">
        <ele>40</ele>
        <time>2025-04-26T13:41:14Z</time>
      </trkpt>
      <trkpt lat="45.5899" lon="-1.05489">
        <ele>40</ele>
        <time>2025-04-26T13:41:15Z</time>
      </trkpt>
      <trkpt lat="45.58994" lon="-1.05489">
        <ele>40</ele>
        <time>2025-04-26T13:41:16Z</time>
      </trkpt>
      <trkpt lat="45.58997" lon="-1.05488">
        <ele>40</ele>
        <time>2025-04-26T13:41:17Z</time>
      </trkpt>
      <trkpt lat="45.59001" lon="-1.05488">
        <ele>40</ele>
        <time>2025-04-26T13:41:18Z</time>
      </trkpt>
      <trkpt lat="45.59005" lon="-1.05488">
        <ele>40</ele>
        <time>2025-04-26T13:41:19Z</time>
      </trkpt>
      <trkpt lat="45.59009" lon="-1.05488">
        <ele>40</ele>
        <time>2025-04-26T13:41:20Z</time>
      </trkpt>
      <trkpt lat="45.59013" lon="-1.05487">
        <ele>40</ele>
        <time>2025-04-26T13:41:21Z</time>
      </trkpt>
      <trkpt lat="45.59017" lon="-1.05488">
        <ele>40</ele>
        <time>2025-04-26T13:41:22Z</time>
      </trkpt>
      <trkpt lat="45.59021" lon="-1.05488">
        <ele>41</ele>
        <time>2025-04-26T13:41:23Z</time>
      </trkpt>
      <trkpt lat="45.59025" lon="-1.05488">
        <ele>43</ele>
        <time>2025-04-26T13:41:24Z</time>
      </trkpt>
      <trkpt lat="45.59028" lon="-1.05488">
        <ele>43</ele>
        <time>2025-04-26T13:41:25Z</time>
      </trkpt>
      <trkpt lat="45.59032" lon="-1.05488">
        <ele>44</ele>
        <time>2025-04-26T13:41:26Z</time>
      </trkpt>
      <trkpt lat="45.59035" lon="-1.05488">
        <ele>44</ele>
        <time>2025-04-26T13:41:27Z</time>
      </trkpt>
      <trkpt lat="45.59038" lon="-1.05488">
        <ele>44</ele>
        <time>2025-04-26T13:41:28Z</time>
      </trkpt>
      <trkpt lat="45.59042" lon="-1.05488">
        <ele>45</ele>
        <time>2025-04-26T13:41:29Z</time>
      </trkpt>
      <trkpt lat="45.59045" lon="-1.05488">
        <ele>46</ele>
        <time>2025-04-26T13:41:30Z</time>
      </trkpt>
      <trkpt lat="45.59049" lon="-1.05488">
        <ele>46</ele>
        <time>2025-04-26T13:41:31Z</time>
      </trkpt>
      <trkpt lat="45.59052" lon="-1.05488">
        <ele>46</ele>
        <time>2025-04-26T13:41:32Z</time>
      </trkpt>
      <trkpt lat="45.59056" lon="-1.05488">
        <ele>45</ele>
        <time>2025-04-26T13:41:33Z</time>
      </trkpt>
      <trkpt lat="45.5906" lon="-1.05489">
        <ele>44</ele>
        <time>2025-04-26T13:41:34Z</time>
      </trkpt>
      <trkpt lat="45.59064" lon="-1.05489">
        <ele>44</ele>
        <time>2025-04-26T13:41:35Z</time>
      </trkpt>
      <trkpt lat="45.59068" lon="-1.0549">
        <ele>43</ele>
        <time>2025-04-26T13:41:36Z</time>
      </trkpt>
      <trkpt lat="45.59072" lon="-1.05489">
        <ele>43</ele>
        <time>2025-04-26T13:41:37Z</time>
      </trkpt>
      <trkpt lat="45.59076" lon="-1.05488">
        <ele>42</ele>
        <time>2025-04-26T13:41:38Z</time>
      </trkpt>
      <trkpt lat="45.59079" lon="-1.05488">
        <ele>42</ele>
        <time>2025-04-26T13:41:39Z</time>
      </trkpt>
      <trkpt lat="45.59083" lon="-1.05488">
        <ele>42</ele>
        <time>2025-04-26T13:41:40Z</time>
      </trkpt>
      <trkpt lat="45.59087" lon="-1.05488">
        <ele>42</ele>
        <time>2025-04-26T13:41:41Z</time>
      </trkpt>
      <trkpt lat="45.59091" lon="-1.05488">
        <ele>41</ele>
        <time>2025-04-26T13:41:42Z</time>
      </trkpt>
      <trkpt lat="45.59095" lon="-1.05487">
        <ele>41</ele>
        <time>2025-04-26T13:41:43Z</time>
      </trkpt>
      <trkpt lat="45.59099" lon="-1.05487">
        <ele>42</ele>
        <time>2025-04-26T13:41:44Z</time>
      </trkpt>
      <trkpt lat="45.59103" lon="-1.05487">
        <ele>43</ele>
        <time>2025-04-26T13:41:45Z</time>
      </trkpt>
      <trkpt lat="45.59106" lon="-1.05487">
        <ele>44</ele>
        <time>2025-04-26T13:41:46Z</time>
      </trkpt>
      <trkpt lat="45.5911" lon="-1.05487">
        <ele>43</ele>
        <time>2025-04-26T13:41:47Z</time>
      </trkpt>
      <trkpt lat="45.59114" lon="-1.05487">
        <ele>43</ele>
        <time>2025-04-26T13:41:48Z</time>
      </trkpt>
      <trkpt lat="45.59117" lon="-1.05487">
        <ele>43</ele>
        <time>2025-04-26T13:41:49Z</time>
      </trkpt>
      <trkpt lat="45.59121" lon="-1.05487">
        <ele>44</ele>
        <time>2025-04-26T13:41:50Z</time>
      </trkpt>
      <trkpt lat="45.59125" lon="-1.05487">
        <ele>45</ele>
        <time>2025-04-26T13:41:51Z</time>
      </trkpt>
      <trkpt lat="45.59128" lon="-1.05487">
        <ele>45</ele>
        <time>2025-04-26T13:41:52Z</time>
      </trkpt>
      <trkpt lat="45.59132" lon="-1.05487">
        <ele>44</ele>
        <time>2025-04-26T13:41:53Z</time>
      </trkpt>
      <trkpt lat="45.59136" lon="-1.05487">
        <ele>44</ele>
        <time>2025-04-26T13:41:54Z</time>
      </trkpt>
      <trkpt lat="45.5914" lon="-1.05486">
        <ele>44</ele>
        <time>2025-04-26T13:41:55Z</time>
      </trkpt>
      <trkpt lat="45.59143" lon="-1.05486">
        <ele>45</ele>
        <time>2025-04-26T13:41:56Z</time>
      </trkpt>
      <trkpt lat="45.59147" lon="-1.05486">
        <ele>46</ele>
        <time>2025-04-26T13:41:57Z</time>
      </trkpt>
      <trkpt lat="45.59151" lon="-1.05485">
        <ele>46</ele>
        <time>2025-04-26T13:41:58Z</time>
      </trkpt>
      <trkpt lat="45.59154" lon="-1.05485">
        <ele>46</ele>
        <time>2025-04-26T13:41:59Z</time>
      </trkpt>
      <trkpt lat="45.59158" lon="-1.05485">
        <ele>47</ele>
        <time>2025-04-26T13:42:00Z</time>
      </trkpt>
      <trkpt lat="45.59161" lon="-1.05484">
        <ele>47</ele>
        <time>2025-04-26T13:42:01Z</time>
      </trkpt>
      <trkpt lat="45.59165" lon="-1.05484">
        <ele>48</ele>
        <time>2025-04-26T13:42:02Z</time>
      </trkpt>
      <trkpt lat="45.59168" lon="-1.05484">
        <ele>48</ele>
        <time>2025-04-26T13:42:03Z</time>
      </trkpt>
      <trkpt lat="45.59172" lon="-1.05483">
        <ele>48</ele>
        <time>2025-04-26T13:42:04Z</time>
      </trkpt>
      <trkpt lat="45.59176" lon="-1.05482">
        <ele>49</ele>
        <time>2025-04-26T13:42:05Z</time>
      </trkpt>
      <trkpt lat="45.5918" lon="-1.05482">
        <ele>48</ele>
        <time>2025-04-26T13:42:06Z</time>
      </trkpt>
      <trkpt lat="45.59184" lon="-1.05482">
        <ele>49</ele>
        <time>2025-04-26T13:42:07Z</time>
      </trkpt>
      <trkpt lat="45.59187" lon="-1.05481">
        <ele>49</ele>
        <time>2025-04-26T13:42:08Z</time>
      </trkpt>
      <trkpt lat="45.59191" lon="-1.05481">
        <ele>48</ele>
        <time>2025-04-26T13:42:09Z</time>
      </trkpt>
      <trkpt lat="45.59195" lon="-1.0548">
        <ele>49</ele>
        <time>2025-04-26T13:42:10Z</time>
      </trkpt>
      <trkpt lat="45.59199" lon="-1.0548">
        <ele>49</ele>
        <time>2025-04-26T13:42:11Z</time>
      </trkpt>
      <trkpt lat="45.59202" lon="-1.0548">
        <ele>48</ele>
        <time>2025-04-26T13:42:12Z</time>
      </trkpt>
      <trkpt lat="45.59206" lon="-1.05481">
        <ele>49</ele>
        <time>2025-04-26T13:42:13Z</time>
      </trkpt>
      <trkpt lat="45.5921" lon="-1.05481">
        <ele>49</ele>
        <time>2025-04-26T13:42:14Z</time>
      </trkpt>
      <trkpt lat="45.59213" lon="-1.0548">
        <ele>49</ele>
        <time>2025-04-26T13:42:15Z</time>
      </trkpt>
      <trkpt lat="45.59217" lon="-1.0548">
        <ele>49</ele>
        <time>2025-04-26T13:42:16Z</time>
      </trkpt>
      <trkpt lat="45.59221" lon="-1.0548">
        <ele>49</ele>
        <time>2025-04-26T13:42:17Z</time>
      </trkpt>
      <trkpt lat="45.59225" lon="-1.0548">
        <ele>49</ele>
        <time>2025-04-26T13:42:18Z</time>
      </trkpt>
      <trkpt lat="45.59228" lon="-1.0548">
        <ele>48</ele>
        <time>2025-04-26T13:42:19Z</time>
      </trkpt>
      <trkpt lat="45.59232" lon="-1.0548">
        <ele>48</ele>
        <time>2025-04-26T13:42:20Z</time>
      </trkpt>
      <trkpt lat="45.59236" lon="-1.05479">
        <ele>48</ele>
        <time>2025-04-26T13:42:21Z</time>
      </trkpt>
      <trkpt lat="45.5924" lon="-1.05479">
        <ele>49</ele>
        <time>2025-04-26T13:42:22Z</time>
      </trkpt>
      <trkpt lat="45.59243" lon="-1.05478">
        <ele>49</ele>
        <time>2025-04-26T13:42:23Z</time>
      </trkpt>
      <trkpt lat="45.59247" lon="-1.05478">
        <ele>49</ele>
        <time>2025-04-26T13:42:24Z</time>
      </trkpt>
      <trkpt lat="45.59251" lon="-1.05478">
        <ele>49</ele>
        <time>2025-04-26T13:42:25Z</time>
      </trkpt>
      <trkpt lat="45.59254" lon="-1.05478">
        <ele>50</ele>
        <time>2025-04-26T13:42:26Z</time>
      </trkpt>
      <trkpt lat="45.59258" lon="-1.05478">
        <ele>51</ele>
        <time>2025-04-26T13:42:27Z</time>
      </trkpt>
      <trkpt lat="45.59262" lon="-1.05477">
        <ele>51</ele>
        <time>2025-04-26T13:42:28Z</time>
      </trkpt>
      <trkpt lat="45.59265" lon="-1.05476">
        <ele>50</ele>
        <time>2025-04-26T13:42:29Z</time>
      </trkpt>
      <trkpt lat="45.59269" lon="-1.05476">
        <ele>50</ele>
        <time>2025-04-26T13:42:30Z</time>
      </trkpt>
      <trkpt lat="45.59272" lon="-1.05477">
        <ele>50</ele>
        <time>2025-04-26T13:42:31Z</time>
      </trkpt>
      <trkpt lat="45.59276" lon="-1.05476">
        <ele>50</ele>
        <time>2025-04-26T13:42:32Z</time>
      </trkpt>
      <trkpt lat="45.59279" lon="-1.05476">
        <ele>50</ele>
        <time>2025-04-26T13:42:33Z</time>
      </trkpt>
      <trkpt lat="45.59283" lon="-1.05476">
        <ele>50</ele>
        <time>2025-04-26T13:42:34Z</time>
      </trkpt>
      <trkpt lat="45.59286" lon="-1.05476">
        <ele>51</ele>
        <time>2025-04-26T13:42:35Z</time>
      </trkpt>
      <trkpt lat="45.5929" lon="-1.05475">
        <ele>50</ele>
        <time>2025-04-26T13:42:36Z</time>
      </trkpt>
      <trkpt lat="45.59294" lon="-1.05475">
        <ele>50</ele>
        <time>2025-04-26T13:42:37Z</time>
      </trkpt>
      <trkpt lat="45.59298" lon="-1.05475">
        <ele>50</ele>
        <time>2025-04-26T13:42:38Z</time>
      </trkpt>
      <trkpt lat="45.59301" lon="-1.05475">
        <ele>50</ele>
        <time>2025-04-26T13:42:39Z</time>
      </trkpt>
      <trkpt lat="45.59305" lon="-1.05474">
        <ele>50</ele>
        <time>2025-04-26T13:42:40Z</time>
      </trkpt>
      <trkpt lat="45.59309" lon="-1.05474">
        <ele>50</ele>
        <time>2025-04-26T13:42:41Z</time>
      </trkpt>
      <trkpt lat="45.59313" lon="-1.05474">
        <ele>51</ele>
        <time>2025-04-26T13:42:42Z</time>
      </trkpt>
      <trkpt lat="45.59317" lon="-1.05474">
        <ele>51</ele>
        <time>2025-04-26T13:42:43Z</time>
      </trkpt>
      <trkpt lat="45.59321" lon="-1.05474">
        <ele>51</ele>
        <time>2025-04-26T13:42:44Z</time>
      </trkpt>
      <trkpt lat="45.59325" lon="-1.05474">
        <ele>51</ele>
        <time>2025-04-26T13:42:45Z</time>
      </trkpt>
      <trkpt lat="45.59329" lon="-1.05474">
        <ele>51</ele>
        <time>2025-04-26T13:42:46Z</time>
      </trkpt>
      <trkpt lat="45.59333" lon="-1.05474">
        <ele>52</ele>
        <time>2025-04-26T13:42:47Z</time>
      </trkpt>
      <trkpt lat="45.59337" lon="-1.05474">
        <ele>52</ele>
        <time>2025-04-26T13:42:48Z</time>
      </trkpt>
      <trkpt lat="45.59341" lon="-1.05475">
        <ele>52</ele>
        <time>2025-04-26T13:42:49Z</time>
      </trkpt>
      <trkpt lat="45.59345" lon="-1.05475">
        <ele>52</ele>
        <time>2025-04-26T13:42:50Z</time>
      </trkpt>
      <trkpt lat="45.59349" lon="-1.05475">
        <ele>52</ele>
        <time>2025-04-26T13:42:51Z</time>
      </trkpt>
      <trkpt lat="45.59353" lon="-1.05475">
        <ele>52</ele>
        <time>2025-04-26T13:42:52Z</time>
      </trkpt>
      <trkpt lat="45.59356" lon="-1.05474">
        <ele>52</ele>
        <time>2025-04-26T13:42:53Z</time>
      </trkpt>
      <trkpt lat="45.5936" lon="-1.05474">
        <ele>52</ele>
        <time>2025-04-26T13:42:54Z</time>
      </trkpt>
      <trkpt lat="45.59364" lon="-1.05475">
        <ele>52</ele>
        <time>2025-04-26T13:42:55Z</time>
      </trkpt>
      <trkpt lat="45.59368" lon="-1.05475">
        <ele>51</ele>
        <time>2025-04-26T13:42:56Z</time>
      </trkpt>
      <trkpt lat="45.59372" lon="-1.05475">
        <ele>51</ele>
        <time>2025-04-26T13:42:57Z</time>
      </trkpt>
      <trkpt lat="45.59377" lon="-1.05475">
        <ele>50</ele>
        <time>2025-04-26T13:42:58Z</time>
      </trkpt>
      <trkpt lat="45.5938" lon="-1.05476">
        <ele>50</ele>
        <time>2025-04-26T13:42:59Z</time>
      </trkpt>
      <trkpt lat="45.59383" lon="-1.05476">
        <ele>50</ele>
        <time>2025-04-26T13:43:00Z</time>
      </trkpt>
      <trkpt lat="45.59387" lon="-1.05476">
        <ele>49</ele>
        <time>2025-04-26T13:43:01Z</time>
      </trkpt>
      <trkpt lat="45.59391" lon="-1.05475">
        <ele>48</ele>
        <time>2025-04-26T13:43:02Z</time>
      </trkpt>
      <trkpt lat="45.59395" lon="-1.05475">
        <ele>47</ele>
        <time>2025-04-26T13:43:03Z</time>
      </trkpt>
      <trkpt lat="45.59399" lon="-1.05475">
        <ele>47</ele>
        <time>2025-04-26T13:43:04Z</time>
      </trkpt>
      <trkpt lat="45.59402" lon="-1.05474">
        <ele>48</ele>
        <time>2025-04-26T13:43:05Z</time>
      </trkpt>
      <trkpt lat="45.59406" lon="-1.05474">
        <ele>47</ele>
        <time>2025-04-26T13:43:06Z</time>
      </trkpt>
      <trkpt lat="45.5941" lon="-1.05473">
        <ele>47</ele>
        <time>2025-04-26T13:43:07Z</time>
      </trkpt>
      <trkpt lat="45.59414" lon="-1.05472">
        <ele>47</ele>
        <time>2025-04-26T13:43:08Z</time>
      </trkpt>
      <trkpt lat="45.59419" lon="-1.05473">
        <ele>46</ele>
        <time>2025-04-26T13:43:09Z</time>
      </trkpt>
      <trkpt lat="45.59424" lon="-1.05473">
        <ele>45</ele>
        <time>2025-04-26T13:43:10Z</time>
      </trkpt>
      <trkpt lat="45.59428" lon="-1.05473">
        <ele>45</ele>
        <time>2025-04-26T13:43:11Z</time>
      </trkpt>
      <trkpt lat="45.59432" lon="-1.05473">
        <ele>45</ele>
        <time>2025-04-26T13:43:12Z</time>
      </trkpt>
      <trkpt lat="45.59436" lon="-1.05472">
        <ele>44</ele>
        <time>2025-04-26T13:43:13Z</time>
      </trkpt>
      <trkpt lat="45.5944" lon="-1.0547">
        <ele>43</ele>
        <time>2025-04-26T13:43:14Z</time>
      </trkpt>
      <trkpt lat="45.59444" lon="-1.0547">
        <ele>43</ele>
        <time>2025-04-26T13:43:15Z</time>
      </trkpt>
      <trkpt lat="45.59447" lon="-1.05469">
        <ele>43</ele>
        <time>2025-04-26T13:43:16Z</time>
      </trkpt>
      <trkpt lat="45.5945" lon="-1.05468">
        <ele>42</ele>
        <time>2025-04-26T13:43:17Z</time>
      </trkpt>
      <trkpt lat="45.59454" lon="-1.05467">
        <ele>41</ele>
        <time>2025-04-26T13:43:18Z</time>
      </trkpt>
      <trkpt lat="45.59458" lon="-1.05466">
        <ele>40</ele>
        <time>2025-04-26T13:43:19Z</time>
      </trkpt>
      <trkpt lat="45.59462" lon="-1.05466">
        <ele>39</ele>
        <time>2025-04-26T13:43:20Z</time>
      </trkpt>
      <trkpt lat="45.59466" lon="-1.05465">
        <ele>39</ele>
        <time>2025-04-26T13:43:21Z</time>
      </trkpt>
      <trkpt lat="45.5947" lon="-1.05465">
        <ele>39</ele>
        <time>2025-04-26T13:43:22Z</time>
      </trkpt>
      <trkpt lat="45.59475" lon="-1.05465">
        <ele>40</ele>
        <time>2025-04-26T13:43:23Z</time>
      </trkpt>
      <trkpt lat="45.59479" lon="-1.05465">
        <ele>40</ele>
        <time>2025-04-26T13:43:24Z</time>
      </trkpt>
      <trkpt lat="45.59483" lon="-1.05465">
        <ele>40</ele>
        <time>2025-04-26T13:43:25Z</time>
      </trkpt>
      <trkpt lat="45.59487" lon="-1.05463">
        <ele>40</ele>
        <time>2025-04-26T13:43:26Z</time>
      </trkpt>
      <trkpt lat="45.59491" lon="-1.05463">
        <ele>40</ele>
        <time>2025-04-26T13:43:27Z</time>
      </trkpt>
      <trkpt lat="45.59495" lon="-1.05462">
        <ele>39</ele>
        <time>2025-04-26T13:43:28Z</time>
      </trkpt>
      <trkpt lat="45.59498" lon="-1.05461">
        <ele>40</ele>
        <time>2025-04-26T13:43:29Z</time>
      </trkpt>
      <trkpt lat="45.59502" lon="-1.0546">
        <ele>40</ele>
        <time>2025-04-26T13:43:30Z</time>
      </trkpt>
      <trkpt lat="45.59506" lon="-1.0546">
        <ele>40</ele>
        <time>2025-04-26T13:43:31Z</time>
      </trkpt>
      <trkpt lat="45.59509" lon="-1.05459">
        <ele>40</ele>
        <time>2025-04-26T13:43:32Z</time>
      </trkpt>
      <trkpt lat="45.59513" lon="-1.05459">
        <ele>39</ele>
        <time>2025-04-26T13:43:33Z</time>
      </trkpt>
      <trkpt lat="45.59518" lon="-1.05457">
        <ele>39</ele>
        <time>2025-04-26T13:43:34Z</time>
      </trkpt>
      <trkpt lat="45.59522" lon="-1.05457">
        <ele>38</ele>
        <time>2025-04-26T13:43:35Z</time>
      </trkpt>
      <trkpt lat="45.59526" lon="-1.05457">
        <ele>38</ele>
        <time>2025-04-26T13:43:36Z</time>
      </trkpt>
      <trkpt lat="45.59529" lon="-1.05456">
        <ele>38</ele>
        <time>2025-04-26T13:43:37Z</time>
      </trkpt>
      <trkpt lat="45.59533" lon="-1.05456">
        <ele>38</ele>
        <time>2025-04-26T13:43:38Z</time>
      </trkpt>
      <trkpt lat="45.59537" lon="-1.05455">
        <ele>39</ele>
        <time>2025-04-26T13:43:39Z</time>
      </trkpt>
      <trkpt lat="45.59542" lon="-1.05454">
        <ele>40</ele>
        <time>2025-04-26T13:43:40Z</time>
      </trkpt>
      <trkpt lat="45.59546" lon="-1.05454">
        <ele>41</ele>
        <time>2025-04-26T13:43:41Z</time>
      </trkpt>
      <trkpt lat="45.5955" lon="-1.05454">
        <ele>42</ele>
        <time>2025-04-26T13:43:42Z</time>
      </trkpt>
      <trkpt lat="45.59553" lon="-1.05453">
        <ele>43</ele>
        <time>2025-04-26T13:43:43Z</time>
      </trkpt>
      <trkpt lat="45.59557" lon="-1.05452">
        <ele>43</ele>
        <time>2025-04-26T13:43:44Z</time>
      </trkpt>
      <trkpt lat="45.5956" lon="-1.0545">
        <ele>43</ele>
        <time>2025-04-26T13:43:45Z</time>
      </trkpt>
      <trkpt lat="45.59564" lon="-1.05449">
        <ele>43</ele>
        <time>2025-04-26T13:43:46Z</time>
      </trkpt>
      <trkpt lat="45.59567" lon="-1.05449">
        <ele>43</ele>
        <time>2025-04-26T13:43:47Z</time>
      </trkpt>
      <trkpt lat="45.59571" lon="-1.05448">
        <ele>42</ele>
        <time>2025-04-26T13:43:48Z</time>
      </trkpt>
      <trkpt lat="45.59575" lon="-1.05447">
        <ele>42</ele>
        <time>2025-04-26T13:43:49Z</time>
      </trkpt>
      <trkpt lat="45.5958" lon="-1.05447">
        <ele>42</ele>
        <time>2025-04-26T13:43:50Z</time>
      </trkpt>
      <trkpt lat="45.59584" lon="-1.05447">
        <ele>42</ele>
        <time>2025-04-26T13:43:51Z</time>
      </trkpt>
      <trkpt lat="45.59588" lon="-1.05448">
        <ele>42</ele>
        <time>2025-04-26T13:43:52Z</time>
      </trkpt>
      <trkpt lat="45.59592" lon="-1.05447">
        <ele>42</ele>
        <time>2025-04-26T13:43:53Z</time>
      </trkpt>
      <trkpt lat="45.59595" lon="-1.05447">
        <ele>42</ele>
        <time>2025-04-26T13:43:54Z</time>
      </trkpt>
      <trkpt lat="45.59599" lon="-1.05446">
        <ele>42</ele>
        <time>2025-04-26T13:43:55Z</time>
      </trkpt>
      <trkpt lat="45.59603" lon="-1.05446">
        <ele>42</ele>
        <time>2025-04-26T13:43:56Z</time>
      </trkpt>
      <trkpt lat="45.59607" lon="-1.05445">
        <ele>42</ele>
        <time>2025-04-26T13:43:57Z</time>
      </trkpt>
      <trkpt lat="45.59611" lon="-1.05445">
        <ele>42</ele>
        <time>2025-04-26T13:43:58Z</time>
      </trkpt>
      <trkpt lat="45.59614" lon="-1.05445">
        <ele>42</ele>
        <time>2025-04-26T13:43:59Z</time>
      </trkpt>
      <trkpt lat="45.59618" lon="-1.05444">
        <ele>43</ele>
        <time>2025-04-26T13:44:00Z</time>
      </trkpt>
      <trkpt lat="45.59622" lon="-1.05443">
        <ele>43</ele>
        <time>2025-04-26T13:44:01Z</time>
      </trkpt>
      <trkpt lat="45.59626" lon="-1.05442">
        <ele>44</ele>
        <time>2025-04-26T13:44:02Z</time>
      </trkpt>
      <trkpt lat="45.5963" lon="-1.05441">
        <ele>44</ele>
        <time>2025-04-26T13:44:03Z</time>
      </trkpt>
      <trkpt lat="45.59634" lon="-1.05439">
        <ele>44</ele>
        <time>2025-04-26T13:44:04Z</time>
      </trkpt>
      <trkpt lat="45.59637" lon="-1.05437">
        <ele>45</ele>
        <time>2025-04-26T13:44:05Z</time>
      </trkpt>
      <trkpt lat="45.59641" lon="-1.05437">
        <ele>45</ele>
        <time>2025-04-26T13:44:06Z</time>
      </trkpt>
      <trkpt lat="45.59644" lon="-1.05436">
        <ele>44</ele>
        <time>2025-04-26T13:44:07Z</time>
      </trkpt>
      <trkpt lat="45.59648" lon="-1.05436">
        <ele>44</ele>
        <time>2025-04-26T13:44:08Z</time>
      </trkpt>
      <trkpt lat="45.59651" lon="-1.05435">
        <ele>44</ele>
        <time>2025-04-26T13:44:09Z</time>
      </trkpt>
      <trkpt lat="45.59655" lon="-1.05435">
        <ele>44</ele>
        <time>2025-04-26T13:44:10Z</time>
      </trkpt>
      <trkpt lat="45.59659" lon="-1.05434">
        <ele>45</ele>
        <time>2025-04-26T13:44:11Z</time>
      </trkpt>
      <trkpt lat="45.59663" lon="-1.05433">
        <ele>45</ele>
        <time>2025-04-26T13:44:12Z</time>
      </trkpt>
      <trkpt lat="45.59668" lon="-1.05432">
        <ele>44</ele>
        <time>2025-04-26T13:44:13Z</time>
      </trkpt>
      <trkpt lat="45.59672" lon="-1.0543">
        <ele>43</ele>
        <time>2025-04-26T13:44:14Z</time>
      </trkpt>
      <trkpt lat="45.59677" lon="-1.05429">
        <ele>43</ele>
        <time>2025-04-26T13:44:15Z</time>
      </trkpt>
      <trkpt lat="45.59681" lon="-1.05427">
        <ele>42</ele>
        <time>2025-04-26T13:44:16Z</time>
      </trkpt>
      <trkpt lat="45.59685" lon="-1.05425">
        <ele>43</ele>
        <time>2025-04-26T13:44:17Z</time>
      </trkpt>
      <trkpt lat="45.59689" lon="-1.05423">
        <ele>42</ele>
        <time>2025-04-26T13:44:18Z</time>
      </trkpt>
      <trkpt lat="45.59693" lon="-1.05422">
        <ele>41</ele>
        <time>2025-04-26T13:44:19Z</time>
      </trkpt>
      <trkpt lat="45.59697" lon="-1.05421">
        <ele>41</ele>
        <time>2025-04-26T13:44:20Z</time>
      </trkpt>
      <trkpt lat="45.59701" lon="-1.0542">
        <ele>42</ele>
        <time>2025-04-26T13:44:21Z</time>
      </trkpt>
      <trkpt lat="45.59705" lon="-1.0542">
        <ele>41</ele>
        <time>2025-04-26T13:44:22Z</time>
      </trkpt>
      <trkpt lat="45.59709" lon="-1.0542">
        <ele>42</ele>
        <time>2025-04-26T13:44:23Z</time>
      </trkpt>
      <trkpt lat="45.59714" lon="-1.0542">
        <ele>42</ele>
        <time>2025-04-26T13:44:24Z</time>
      </trkpt>
      <trkpt lat="45.59718" lon="-1.05419">
        <ele>43</ele>
        <time>2025-04-26T13:44:25Z</time>
      </trkpt>
      <trkpt lat="45.59722" lon="-1.05417">
        <ele>42</ele>
        <time>2025-04-26T13:44:26Z</time>
      </trkpt>
      <trkpt lat="45.59725" lon="-1.05416">
        <ele>43</ele>
        <time>2025-04-26T13:44:27Z</time>
      </trkpt>
      <trkpt lat="45.59729" lon="-1.05414">
        <ele>42</ele>
        <time>2025-04-26T13:44:28Z</time>
      </trkpt>
      <trkpt lat="45.59733" lon="-1.05412">
        <ele>42</ele>
        <time>2025-04-26T13:44:29Z</time>
      </trkpt>
      <trkpt lat="45.59737" lon="-1.0541">
        <ele>42</ele>
        <time>2025-04-26T13:44:30Z</time>
      </trkpt>
      <trkpt lat="45.59741" lon="-1.05408">
        <ele>41</ele>
        <time>2025-04-26T13:44:31Z</time>
      </trkpt>
      <trkpt lat="45.59745" lon="-1.05406">
        <ele>41</ele>
        <time>2025-04-26T13:44:32Z</time>
      </trkpt>
      <trkpt lat="45.59749" lon="-1.05404">
        <ele>43</ele>
        <time>2025-04-26T13:44:33Z</time>
      </trkpt>
      <trkpt lat="45.59753" lon="-1.05402">
        <ele>44</ele>
        <time>2025-04-26T13:44:34Z</time>
      </trkpt>
      <trkpt lat="45.59757" lon="-1.054">
        <ele>43</ele>
        <time>2025-04-26T13:44:35Z</time>
      </trkpt>
      <trkpt lat="45.59761" lon="-1.05398">
        <ele>43</ele>
        <time>2025-04-26T13:44:36Z</time>
      </trkpt>
      <trkpt lat="45.59765" lon="-1.05397">
        <ele>43</ele>
        <time>2025-04-26T13:44:37Z</time>
      </trkpt>
      <trkpt lat="45.59769" lon="-1.05396">
        <ele>42</ele>
        <time>2025-04-26T13:44:38Z</time>
      </trkpt>
      <trkpt lat="45.59773" lon="-1.05395">
        <ele>41</ele>
        <time>2025-04-26T13:44:39Z</time>
      </trkpt>
      <trkpt lat="45.59777" lon="-1.05393">
        <ele>41</ele>
        <time>2025-04-26T13:44:40Z</time>
      </trkpt>
      <trkpt lat="45.5978" lon="-1.0539">
        <ele>41</ele>
        <time>2025-04-26T13:44:41Z</time>
      </trkpt>
      <trkpt lat="45.59784" lon="-1.05388">
        <ele>42</ele>
        <time>2025-04-26T13:44:42Z</time>
      </trkpt>
      <trkpt lat="45.59788" lon="-1.05386">
        <ele>42</ele>
        <time>2025-04-26T13:44:43Z</time>
      </trkpt>
      <trkpt lat="45.59791" lon="-1.05384">
        <ele>42</ele>
        <time>2025-04-26T13:44:44Z</time>
      </trkpt>
      <trkpt lat="45.59795" lon="-1.05381">
        <ele>42</ele>
        <time>2025-04-26T13:44:45Z</time>
      </trkpt>
      <trkpt lat="45.59799" lon="-1.05378">
        <ele>43</ele>
        <time>2025-04-26T13:44:46Z</time>
      </trkpt>
      <trkpt lat="45.59803" lon="-1.05376">
        <ele>42</ele>
        <time>2025-04-26T13:44:47Z</time>
      </trkpt>
      <trkpt lat="45.59807" lon="-1.05374">
        <ele>43</ele>
        <time>2025-04-26T13:44:48Z</time>
      </trkpt>
      <trkpt lat="45.59811" lon="-1.05371">
        <ele>42</ele>
        <time>2025-04-26T13:44:49Z</time>
      </trkpt>
      <trkpt lat="45.59815" lon="-1.05369">
        <ele>41</ele>
        <time>2025-04-26T13:44:50Z</time>
      </trkpt>
      <trkpt lat="45.59818" lon="-1.05366">
        <ele>40</ele>
        <time>2025-04-26T13:44:51Z</time>
      </trkpt>
      <trkpt lat="45.59822" lon="-1.05363">
        <ele>40</ele>
        <time>2025-04-26T13:44:52Z</time>
      </trkpt>
      <trkpt lat="45.59826" lon="-1.05362">
        <ele>41</ele>
        <time>2025-04-26T13:44:53Z</time>
      </trkpt>
      <trkpt lat="45.5983" lon="-1.0536">
        <ele>41</ele>
        <time>2025-04-26T13:44:54Z</time>
      </trkpt>
      <trkpt lat="45.59833" lon="-1.05357">
        <ele>41</ele>
        <time>2025-04-26T13:44:55Z</time>
      </trkpt>
      <trkpt lat="45.59837" lon="-1.05354">
        <ele>42</ele>
        <time>2025-04-26T13:44:56Z</time>
      </trkpt>
      <trkpt lat="45.59841" lon="-1.05352">
        <ele>43</ele>
        <time>2025-04-26T13:44:57Z</time>
      </trkpt>
      <trkpt lat="45.59846" lon="-1.05349">
        <ele>43</ele>
        <time>2025-04-26T13:44:58Z</time>
      </trkpt>
      <trkpt lat="45.5985" lon="-1.05347">
        <ele>43</ele>
        <time>2025-04-26T13:44:59Z</time>
      </trkpt>
      <trkpt lat="45.59854" lon="-1.05346">
        <ele>43</ele>
        <time>2025-04-26T13:45:00Z</time>
      </trkpt>
      <trkpt lat="45.59858" lon="-1.05343">
        <ele>43</ele>
        <time>2025-04-26T13:45:01Z</time>
      </trkpt>
      <trkpt lat="45.59862" lon="-1.05341">
        <ele>43</ele>
        <time>2025-04-26T13:45:02Z</time>
      </trkpt>
      <trkpt lat="45.59866" lon="-1.05338">
        <ele>43</ele>
        <time>2025-04-26T13:45:03Z</time>
      </trkpt>
      <trkpt lat="45.59869" lon="-1.05336">
        <ele>43</ele>
        <time>2025-04-26T13:45:04Z</time>
      </trkpt>
      <trkpt lat="45.59873" lon="-1.05333">
        <ele>44</ele>
        <time>2025-04-26T13:45:05Z</time>
      </trkpt>
      <trkpt lat="45.59877" lon="-1.0533">
        <ele>43</ele>
        <time>2025-04-26T13:45:06Z</time>
      </trkpt>
      <trkpt lat="45.59881" lon="-1.05327">
        <ele>44</ele>
        <time>2025-04-26T13:45:07Z</time>
      </trkpt>
      <trkpt lat="45.59885" lon="-1.05324">
        <ele>44</ele>
        <time>2025-04-26T13:45:08Z</time>
      </trkpt>
      <trkpt lat="45.59889" lon="-1.05321">
        <ele>44</ele>
        <time>2025-04-26T13:45:09Z</time>
      </trkpt>
      <trkpt lat="45.59892" lon="-1.05318">
        <ele>43</ele>
        <time>2025-04-26T13:45:10Z</time>
      </trkpt>
      <trkpt lat="45.59899" lon="-1.05317">
        <ele>43</ele>
        <time>2025-04-26T13:45:11Z</time>
      </trkpt>
      <trkpt lat="45.59903" lon="-1.05315">
        <ele>43</ele>
        <time>2025-04-26T13:45:12Z</time>
      </trkpt>
      <trkpt lat="45.59907" lon="-1.05311">
        <ele>44</ele>
        <time>2025-04-26T13:45:13Z</time>
      </trkpt>
      <trkpt lat="45.5991" lon="-1.05308">
        <ele>44</ele>
        <time>2025-04-26T13:45:14Z</time>
      </trkpt>
      <trkpt lat="45.59913" lon="-1.05305">
        <ele>44</ele>
        <time>2025-04-26T13:45:15Z</time>
      </trkpt>
      <trkpt lat="45.59917" lon="-1.05301">
        <ele>43</ele>
        <time>2025-04-26T13:45:16Z</time>
      </trkpt>
      <trkpt lat="45.5992" lon="-1.05297">
        <ele>43</ele>
        <time>2025-04-26T13:45:17Z</time>
      </trkpt>
      <trkpt lat="45.59924" lon="-1.05294">
        <ele>43</ele>
        <time>2025-04-26T13:45:18Z</time>
      </trkpt>
      <trkpt lat="45.59928" lon="-1.05292">
        <ele>44</ele>
        <time>2025-04-26T13:45:19Z</time>
      </trkpt>
      <trkpt lat="45.59932" lon="-1.05289">
        <ele>44</ele>
        <time>2025-04-26T13:45:20Z</time>
      </trkpt>
      <trkpt lat="45.59936" lon="-1.05286">
        <ele>43</ele>
        <time>2025-04-26T13:45:21Z</time>
      </trkpt>
      <trkpt lat="45.5994" lon="-1.05283">
        <ele>43</ele>
        <time>2025-04-26T13:45:22Z</time>
      </trkpt>
      <trkpt lat="45.59943" lon="-1.0528">
        <ele>43</ele>
        <time>2025-04-26T13:45:23Z</time>
      </trkpt>
      <trkpt lat="45.59947" lon="-1.05276">
        <ele>44</ele>
        <time>2025-04-26T13:45:24Z</time>
      </trkpt>
      <trkpt lat="45.59951" lon="-1.05273">
        <ele>44</ele>
        <time>2025-04-26T13:45:25Z</time>
      </trkpt>
      <trkpt lat="45.59955" lon="-1.0527">
        <ele>45</ele>
        <time>2025-04-26T13:45:26Z</time>
      </trkpt>
      <trkpt lat="45.59959" lon="-1.05268">
        <ele>45</ele>
        <time>2025-04-26T13:45:27Z</time>
      </trkpt>
      <trkpt lat="45.59962" lon="-1.05265">
        <ele>45</ele>
        <time>2025-04-26T13:45:28Z</time>
      </trkpt>
      <trkpt lat="45.59966" lon="-1.05262">
        <ele>44</ele>
        <time>2025-04-26T13:45:29Z</time>
      </trkpt>
      <trkpt lat="45.5997" lon="-1.05258">
        <ele>45</ele>
        <time>2025-04-26T13:45:30Z</time>
      </trkpt>
      <trkpt lat="45.59974" lon="-1.05255">
        <ele>45</ele>
        <time>2025-04-26T13:45:31Z</time>
      </trkpt>
      <trkpt lat="45.59978" lon="-1.05253">
        <ele>45</ele>
        <time>2025-04-26T13:45:32Z</time>
      </trkpt>
      <trkpt lat="45.59982" lon="-1.0525">
        <ele>45</ele>
        <time>2025-04-26T13:45:33Z</time>
      </trkpt>
      <trkpt lat="45.59986" lon="-1.05247">
        <ele>46</ele>
        <time>2025-04-26T13:45:34Z</time>
      </trkpt>
      <trkpt lat="45.5999" lon="-1.05244">
        <ele>46</ele>
        <time>2025-04-26T13:45:35Z</time>
      </trkpt>
      <trkpt lat="45.59995" lon="-1.0524">
        <ele>47</ele>
        <time>2025-04-26T13:45:36Z</time>
      </trkpt>
      <trkpt lat="45.59999" lon="-1.05237">
        <ele>47</ele>
        <time>2025-04-26T13:45:37Z</time>
      </trkpt>
      <trkpt lat="45.60003" lon="-1.05234">
        <ele>47</ele>
        <time>2025-04-26T13:45:38Z</time>
      </trkpt>
      <trkpt lat="45.60007" lon="-1.05231">
        <ele>46</ele>
        <time>2025-04-26T13:45:39Z</time>
      </trkpt>
      <trkpt lat="45.60011" lon="-1.05228">
        <ele>46</ele>
        <time>2025-04-26T13:45:40Z</time>
      </trkpt>
      <trkpt lat="45.60015" lon="-1.05224">
        <ele>45</ele>
        <time>2025-04-26T13:45:41Z</time>
      </trkpt>
      <trkpt lat="45.60018" lon="-1.05221">
        <ele>45</ele>
        <time>2025-04-26T13:45:42Z</time>
      </trkpt>
      <trkpt lat="45.60022" lon="-1.05218">
        <ele>45</ele>
        <time>2025-04-26T13:45:43Z</time>
      </trkpt>
      <trkpt lat="45.60025" lon="-1.05215">
        <ele>46</ele>
        <time>2025-04-26T13:45:44Z</time>
      </trkpt>
      <trkpt lat="45.60028" lon="-1.05211">
        <ele>46</ele>
        <time>2025-04-26T13:45:45Z</time>
      </trkpt>
      <trkpt lat="45.60032" lon="-1.05208">
        <ele>46</ele>
        <time>2025-04-26T13:45:46Z</time>
      </trkpt>
      <trkpt lat="45.60037" lon="-1.05204">
        <ele>45</ele>
        <time>2025-04-26T13:45:47Z</time>
      </trkpt>
      <trkpt lat="45.60041" lon="-1.052">
        <ele>45</ele>
        <time>2025-04-26T13:45:48Z</time>
      </trkpt>
      <trkpt lat="45.60045" lon="-1.05196">
        <ele>44</ele>
        <time>2025-04-26T13:45:49Z</time>
      </trkpt>
      <trkpt lat="45.60048" lon="-1.05192">
        <ele>43</ele>
        <time>2025-04-26T13:45:50Z</time>
      </trkpt>
      <trkpt lat="45.60052" lon="-1.05188">
        <ele>43</ele>
        <time>2025-04-26T13:45:51Z</time>
      </trkpt>
      <trkpt lat="45.60057" lon="-1.05184">
        <ele>42</ele>
        <time>2025-04-26T13:45:52Z</time>
      </trkpt>
      <trkpt lat="45.60061" lon="-1.0518">
        <ele>42</ele>
        <time>2025-04-26T13:45:53Z</time>
      </trkpt>
      <trkpt lat="45.60065" lon="-1.05176">
        <ele>42</ele>
        <time>2025-04-26T13:45:54Z</time>
      </trkpt>
      <trkpt lat="45.60069" lon="-1.05172">
        <ele>41</ele>
        <time>2025-04-26T13:45:55Z</time>
      </trkpt>
      <trkpt lat="45.60073" lon="-1.05168">
        <ele>41</ele>
        <time>2025-04-26T13:45:56Z</time>
      </trkpt>
      <trkpt lat="45.60077" lon="-1.05165">
        <ele>40</ele>
        <time>2025-04-26T13:45:57Z</time>
      </trkpt>
      <trkpt lat="45.60081" lon="-1.05161">
        <ele>40</ele>
        <time>2025-04-26T13:45:58Z</time>
      </trkpt>
      <trkpt lat="45.60084" lon="-1.05157">
        <ele>40</ele>
        <time>2025-04-26T13:45:59Z</time>
      </trkpt>
      <trkpt lat="45.60087" lon="-1.05154">
        <ele>39</ele>
        <time>2025-04-26T13:46:00Z</time>
      </trkpt>
      <trkpt lat="45.60091" lon="-1.0515">
        <ele>40</ele>
        <time>2025-04-26T13:46:01Z</time>
      </trkpt>
      <trkpt lat="45.60094" lon="-1.05147">
        <ele>41</ele>
        <time>2025-04-26T13:46:02Z</time>
      </trkpt>
      <trkpt lat="45.60098" lon="-1.05143">
        <ele>42</ele>
        <time>2025-04-26T13:46:03Z</time>
      </trkpt>
      <trkpt lat="45.60102" lon="-1.0514">
        <ele>42</ele>
        <time>2025-04-26T13:46:04Z</time>
      </trkpt>
      <trkpt lat="45.60106" lon="-1.05136">
        <ele>43</ele>
        <time>2025-04-26T13:46:05Z</time>
      </trkpt>
      <trkpt lat="45.60109" lon="-1.05133">
        <ele>43</ele>
        <time>2025-04-26T13:46:06Z</time>
      </trkpt>
      <trkpt lat="45.60113" lon="-1.05129">
        <ele>43</ele>
        <time>2025-04-26T13:46:07Z</time>
      </trkpt>
      <trkpt lat="45.60116" lon="-1.05125">
        <ele>43</ele>
        <time>2025-04-26T13:46:08Z</time>
      </trkpt>
      <trkpt lat="45.6012" lon="-1.05121">
        <ele>43</ele>
        <time>2025-04-26T13:46:09Z</time>
      </trkpt>
      <trkpt lat="45.60123" lon="-1.05117">
        <ele>44</ele>
        <time>2025-04-26T13:46:10Z</time>
      </trkpt>
      <trkpt lat="45.60127" lon="-1.05113">
        <ele>44</ele>
        <time>2025-04-26T13:46:11Z</time>
      </trkpt>
      <trkpt lat="45.60131" lon="-1.05109">
        <ele>44</ele>
        <time>2025-04-26T13:46:12Z</time>
      </trkpt>
      <trkpt lat="45.60135" lon="-1.05105">
        <ele>43</ele>
        <time>2025-04-26T13:46:13Z</time>
      </trkpt>
      <trkpt lat="45.60138" lon="-1.051">
        <ele>43</ele>
        <time>2025-04-26T13:46:14Z</time>
      </trkpt>
      <trkpt lat="45.60142" lon="-1.05097">
        <ele>43</ele>
        <time>2025-04-26T13:46:15Z</time>
      </trkpt>
      <trkpt lat="45.60146" lon="-1.05092">
        <ele>44</ele>
        <time>2025-04-26T13:46:16Z</time>
      </trkpt>
      <trkpt lat="45.60149" lon="-1.05089">
        <ele>44</ele>
        <time>2025-04-26T13:46:17Z</time>
      </trkpt>
      <trkpt lat="45.60152" lon="-1.05085">
        <ele>44</ele>
        <time>2025-04-26T13:46:18Z</time>
      </trkpt>
      <trkpt lat="45.60156" lon="-1.05081">
        <ele>44</ele>
        <time>2025-04-26T13:46:19Z</time>
      </trkpt>
      <trkpt lat="45.60159" lon="-1.05078">
        <ele>44</ele>
        <time>2025-04-26T13:46:20Z</time>
      </trkpt>
      <trkpt lat="45.60163" lon="-1.05075">
        <ele>44</ele>
        <time>2025-04-26T13:46:21Z</time>
      </trkpt>
      <trkpt lat="45.60167" lon="-1.05072">
        <ele>43</ele>
        <time>2025-04-26T13:46:22Z</time>
      </trkpt>
      <trkpt lat="45.6017" lon="-1.05068">
        <ele>44</ele>
        <time>2025-04-26T13:46:23Z</time>
      </trkpt>
      <trkpt lat="45.60174" lon="-1.05065">
        <ele>43</ele>
        <time>2025-04-26T13:46:24Z</time>
      </trkpt>
      <trkpt lat="45.60178" lon="-1.05062">
        <ele>43</ele>
        <time>2025-04-26T13:46:25Z</time>
      </trkpt>
      <trkpt lat="45.60182" lon="-1.05059">
        <ele>43</ele>
        <time>2025-04-26T13:46:26Z</time>
      </trkpt>
      <trkpt lat="45.60187" lon="-1.05055">
        <ele>43</ele>
        <time>2025-04-26T13:46:27Z</time>
      </trkpt>
      <trkpt lat="45.6019" lon="-1.05051">
        <ele>43</ele>
        <time>2025-04-26T13:46:28Z</time>
      </trkpt>
      <trkpt lat="45.60194" lon="-1.05046">
        <ele>42</ele>
        <time>2025-04-26T13:46:29Z</time>
      </trkpt>
      <trkpt lat="45.60199" lon="-1.05042">
        <ele>42</ele>
        <time>2025-04-26T13:46:30Z</time>
      </trkpt>
      <trkpt lat="45.60203" lon="-1.05038">
        <ele>42</ele>
        <time>2025-04-26T13:46:31Z</time>
      </trkpt>
      <trkpt lat="45.60207" lon="-1.05034">
        <ele>42</ele>
        <time>2025-04-26T13:46:32Z</time>
      </trkpt>
      <trkpt lat="45.60211" lon="-1.05029">
        <ele>42</ele>
        <time>2025-04-26T13:46:33Z</time>
      </trkpt>
      <trkpt lat="45.60215" lon="-1.05025">
        <ele>42</ele>
        <time>2025-04-26T13:46:34Z</time>
      </trkpt>
      <trkpt lat="45.60219" lon="-1.05021">
        <ele>42</ele>
        <time>2025-04-26T13:46:35Z</time>
      </trkpt>
      <trkpt lat="45.60222" lon="-1.05017">
        <ele>42</ele>
        <time>2025-04-26T13:46:36Z</time>
      </trkpt>
      <trkpt lat="45.60226" lon="-1.05013">
        <ele>41</ele>
        <time>2025-04-26T13:46:37Z</time>
      </trkpt>
      <trkpt lat="45.6023" lon="-1.0501">
        <ele>41</ele>
        <time>2025-04-26T13:46:38Z</time>
      </trkpt>
      <trkpt lat="45.60235" lon="-1.05007">
        <ele>41</ele>
        <time>2025-04-26T13:46:39Z</time>
      </trkpt>
      <trkpt lat="45.60239" lon="-1.05004">
        <ele>40</ele>
        <time>2025-04-26T13:46:40Z</time>
      </trkpt>
      <trkpt lat="45.60243" lon="-1.05002">
        <ele>42</ele>
        <time>2025-04-26T13:46:41Z</time>
      </trkpt>
      <trkpt lat="45.60247" lon="-1.04999">
        <ele>42</ele>
        <time>2025-04-26T13:46:42Z</time>
      </trkpt>
      <trkpt lat="45.60251" lon="-1.04996">
        <ele>42</ele>
        <time>2025-04-26T13:46:43Z</time>
      </trkpt>
      <trkpt lat="45.60255" lon="-1.04992">
        <ele>42</ele>
        <time>2025-04-26T13:46:44Z</time>
      </trkpt>
      <trkpt lat="45.60259" lon="-1.04987">
        <ele>43</ele>
        <time>2025-04-26T13:46:45Z</time>
      </trkpt>
      <trkpt lat="45.60263" lon="-1.04983">
        <ele>42</ele>
        <time>2025-04-26T13:46:46Z</time>
      </trkpt>
      <trkpt lat="45.60267" lon="-1.04978">
        <ele>42</ele>
        <time>2025-04-26T13:46:47Z</time>
      </trkpt>
      <trkpt lat="45.60271" lon="-1.04974">
        <ele>41</ele>
        <time>2025-04-26T13:46:48Z</time>
      </trkpt>
      <trkpt lat="45.60274" lon="-1.04969">
        <ele>40</ele>
        <time>2025-04-26T13:46:49Z</time>
      </trkpt>
      <trkpt lat="45.60278" lon="-1.04965">
        <ele>42</ele>
        <time>2025-04-26T13:46:50Z</time>
      </trkpt>
      <trkpt lat="45.60282" lon="-1.04961">
        <ele>41</ele>
        <time>2025-04-26T13:46:51Z</time>
      </trkpt>
      <trkpt lat="45.60286" lon="-1.04956">
        <ele>40</ele>
        <time>2025-04-26T13:46:52Z</time>
      </trkpt>
      <trkpt lat="45.6029" lon="-1.04951">
        <ele>39</ele>
        <time>2025-04-26T13:46:53Z</time>
      </trkpt>
      <trkpt lat="45.60294" lon="-1.04946">
        <ele>38</ele>
        <time>2025-04-26T13:46:54Z</time>
      </trkpt>
      <trkpt lat="45.60297" lon="-1.04941">
        <ele>39</ele>
        <time>2025-04-26T13:46:55Z</time>
      </trkpt>
      <trkpt lat="45.60301" lon="-1.04936">
        <ele>39</ele>
        <time>2025-04-26T13:46:56Z</time>
      </trkpt>
      <trkpt lat="45.60305" lon="-1.04931">
        <ele>39</ele>
        <time>2025-04-26T13:46:57Z</time>
      </trkpt>
      <trkpt lat="45.60309" lon="-1.04926">
        <ele>39</ele>
        <time>2025-04-26T13:46:58Z</time>
      </trkpt>
      <trkpt lat="45.60313" lon="-1.04922">
        <ele>39</ele>
        <time>2025-04-26T13:46:59Z</time>
      </trkpt>
      <trkpt lat="45.60316" lon="-1.04918">
        <ele>39</ele>
        <time>2025-04-26T13:47:00Z</time>
      </trkpt>
      <trkpt lat="45.6032" lon="-1.04912">
        <ele>39</ele>
        <time>2025-04-26T13:47:01Z</time>
      </trkpt>
      <trkpt lat="45.60324" lon="-1.04908">
        <ele>40</ele>
        <time>2025-04-26T13:47:02Z</time>
      </trkpt>
      <trkpt lat="45.60328" lon="-1.04904">
        <ele>41</ele>
        <time>2025-04-26T13:47:03Z</time>
      </trkpt>
      <trkpt lat="45.60331" lon="-1.04901">
        <ele>42</ele>
        <time>2025-04-26T13:47:04Z</time>
      </trkpt>
      <trkpt lat="45.60334" lon="-1.04897">
        <ele>42</ele>
        <time>2025-04-26T13:47:05Z</time>
      </trkpt>
      <trkpt lat="45.60338" lon="-1.04892">
        <ele>42</ele>
        <time>2025-04-26T13:47:06Z</time>
      </trkpt>
      <trkpt lat="45.60341" lon="-1.04888">
        <ele>42</ele>
        <time>2025-04-26T13:47:07Z</time>
      </trkpt>
      <trkpt lat="45.60344" lon="-1.04885">
        <ele>43</ele>
        <time>2025-04-26T13:47:08Z</time>
      </trkpt>
      <trkpt lat="45.60348" lon="-1.04881">
        <ele>44</ele>
        <time>2025-04-26T13:47:09Z</time>
      </trkpt>
      <trkpt lat="45.60352" lon="-1.04878">
        <ele>45</ele>
        <time>2025-04-26T13:47:10Z</time>
      </trkpt>
      <trkpt lat="45.60355" lon="-1.04873">
        <ele>45</ele>
        <time>2025-04-26T13:47:11Z</time>
      </trkpt>
      <trkpt lat="45.60359" lon="-1.04868">
        <ele>45</ele>
        <time>2025-04-26T13:47:12Z</time>
      </trkpt>
      <trkpt lat="45.60363" lon="-1.04864">
        <ele>45</ele>
        <time>2025-04-26T13:47:13Z</time>
      </trkpt>
      <trkpt lat="45.60366" lon="-1.04859">
        <ele>45</ele>
        <time>2025-04-26T13:47:14Z</time>
      </trkpt>
      <trkpt lat="45.6037" lon="-1.04854">
        <ele>44</ele>
        <time>2025-04-26T13:47:15Z</time>
      </trkpt>
      <trkpt lat="45.60374" lon="-1.04849">
        <ele>43</ele>
        <time>2025-04-26T13:47:16Z</time>
      </trkpt>
      <trkpt lat="45.60378" lon="-1.04844">
        <ele>42</ele>
        <time>2025-04-26T13:47:17Z</time>
      </trkpt>
      <trkpt lat="45.60383" lon="-1.0484">
        <ele>42</ele>
        <time>2025-04-26T13:47:18Z</time>
      </trkpt>
      <trkpt lat="45.60386" lon="-1.04835">
        <ele>42</ele>
        <time>2025-04-26T13:47:19Z</time>
      </trkpt>
      <trkpt lat="45.6039" lon="-1.04831">
        <ele>41</ele>
        <time>2025-04-26T13:47:20Z</time>
      </trkpt>
      <trkpt lat="45.60394" lon="-1.04827">
        <ele>41</ele>
        <time>2025-04-26T13:47:21Z</time>
      </trkpt>
      <trkpt lat="45.60397" lon="-1.04822">
        <ele>40</ele>
        <time>2025-04-26T13:47:22Z</time>
      </trkpt>
      <trkpt lat="45.60401" lon="-1.04817">
        <ele>41</ele>
        <time>2025-04-26T13:47:23Z</time>
      </trkpt>
      <trkpt lat="45.60404" lon="-1.04812">
        <ele>40</ele>
        <time>2025-04-26T13:47:24Z</time>
      </trkpt>
      <trkpt lat="45.60408" lon="-1.04807">
        <ele>39</ele>
        <time>2025-04-26T13:47:25Z</time>
      </trkpt>
      <trkpt lat="45.60412" lon="-1.04802">
        <ele>38</ele>
        <time>2025-04-26T13:47:26Z</time>
      </trkpt>
      <trkpt lat="45.60416" lon="-1.04798">
        <ele>39</ele>
        <time>2025-04-26T13:47:27Z</time>
      </trkpt>
      <trkpt lat="45.60419" lon="-1.04793">
        <ele>38</ele>
        <time>2025-04-26T13:47:28Z</time>
      </trkpt>
      <trkpt lat="45.60422" lon="-1.04789">
        <ele>38</ele>
        <time>2025-04-26T13:47:29Z</time>
      </trkpt>
      <trkpt lat="45.60425" lon="-1.04784">
        <ele>37</ele>
        <time>2025-04-26T13:47:30Z</time>
      </trkpt>
      <trkpt lat="45.60428" lon="-1.0478">
        <ele>37</ele>
        <time>2025-04-26T13:47:31Z</time>
      </trkpt>
      <trkpt lat="45.60432" lon="-1.04776">
        <ele>38</ele>
        <time>2025-04-26T13:47:32Z</time>
      </trkpt>
      <trkpt lat="45.60436" lon="-1.04772">
        <ele>38</ele>
        <time>2025-04-26T13:47:33Z</time>
      </trkpt>
      <trkpt lat="45.6044" lon="-1.04768">
        <ele>38</ele>
        <time>2025-04-26T13:47:34Z</time>
      </trkpt>
      <trkpt lat="45.60443" lon="-1.04765">
        <ele>38</ele>
        <time>2025-04-26T13:47:35Z</time>
      </trkpt>
      <trkpt lat="45.60447" lon="-1.0476">
        <ele>39</ele>
        <time>2025-04-26T13:47:36Z</time>
      </trkpt>
      <trkpt lat="45.60451" lon="-1.04756">
        <ele>39</ele>
        <time>2025-04-26T13:47:37Z</time>
      </trkpt>
      <trkpt lat="45.60455" lon="-1.04751">
        <ele>40</ele>
        <time>2025-04-26T13:47:38Z</time>
      </trkpt>
      <trkpt lat="45.60459" lon="-1.04746">
        <ele>40</ele>
        <time>2025-04-26T13:47:39Z</time>
      </trkpt>
      <trkpt lat="45.60463" lon="-1.04741">
        <ele>39</ele>
        <time>2025-04-26T13:47:40Z</time>
      </trkpt>
      <trkpt lat="45.60468" lon="-1.04736">
        <ele>39</ele>
        <time>2025-04-26T13:47:41Z</time>
      </trkpt>
      <trkpt lat="45.60472" lon="-1.04731">
        <ele>39</ele>
        <time>2025-04-26T13:47:42Z</time>
      </trkpt>
      <trkpt lat="45.60476" lon="-1.04726">
        <ele>38</ele>
        <time>2025-04-26T13:47:43Z</time>
      </trkpt>
      <trkpt lat="45.6048" lon="-1.04722">
        <ele>38</ele>
        <time>2025-04-26T13:47:44Z</time>
      </trkpt>
      <trkpt lat="45.60484" lon="-1.04718">
        <ele>37</ele>
        <time>2025-04-26T13:47:45Z</time>
      </trkpt>
      <trkpt lat="45.60488" lon="-1.04715">
        <ele>41</ele>
        <time>2025-04-26T13:47:46Z</time>
      </trkpt>
      <trkpt lat="45.60492" lon="-1.04711">
        <ele>41</ele>
        <time>2025-04-26T13:47:47Z</time>
      </trkpt>
      <trkpt lat="45.60496" lon="-1.04708">
        <ele>41</ele>
        <time>2025-04-26T13:47:48Z</time>
      </trkpt>
      <trkpt lat="45.60501" lon="-1.04704">
        <ele>41</ele>
        <time>2025-04-26T13:47:49Z</time>
      </trkpt>
      <trkpt lat="45.60504" lon="-1.047">
        <ele>41</ele>
        <time>2025-04-26T13:47:50Z</time>
      </trkpt>
      <trkpt lat="45.60508" lon="-1.04696">
        <ele>41</ele>
        <time>2025-04-26T13:47:51Z</time>
      </trkpt>
      <trkpt lat="45.60512" lon="-1.04691">
        <ele>41</ele>
        <time>2025-04-26T13:47:52Z</time>
      </trkpt>
      <trkpt lat="45.60515" lon="-1.04687">
        <ele>42</ele>
        <time>2025-04-26T13:47:53Z</time>
      </trkpt>
      <trkpt lat="45.60519" lon="-1.04682">
        <ele>42</ele>
        <time>2025-04-26T13:47:54Z</time>
      </trkpt>
      <trkpt lat="45.60522" lon="-1.04678">
        <ele>42</ele>
        <time>2025-04-26T13:47:55Z</time>
      </trkpt>
      <trkpt lat="45.60526" lon="-1.04673">
        <ele>42</ele>
        <time>2025-04-26T13:47:56Z</time>
      </trkpt>
      <trkpt lat="45.6053" lon="-1.0467">
        <ele>42</ele>
        <time>2025-04-26T13:47:57Z</time>
      </trkpt>
      <trkpt lat="45.60533" lon="-1.04666">
        <ele>42</ele>
        <time>2025-04-26T13:47:58Z</time>
      </trkpt>
      <trkpt lat="45.60536" lon="-1.04662">
        <ele>42</ele>
        <time>2025-04-26T13:47:59Z</time>
      </trkpt>
      <trkpt lat="45.6054" lon="-1.04658">
        <ele>41</ele>
        <time>2025-04-26T13:48:00Z</time>
      </trkpt>
      <trkpt lat="45.60544" lon="-1.04654">
        <ele>41</ele>
        <time>2025-04-26T13:48:01Z</time>
      </trkpt>
      <trkpt lat="45.60549" lon="-1.04651">
        <ele>41</ele>
        <time>2025-04-26T13:48:02Z</time>
      </trkpt>
      <trkpt lat="45.60552" lon="-1.04647">
        <ele>41</ele>
        <time>2025-04-26T13:48:03Z</time>
      </trkpt>
      <trkpt lat="45.60556" lon="-1.04643">
        <ele>43</ele>
        <time>2025-04-26T13:48:04Z</time>
      </trkpt>
      <trkpt lat="45.6056" lon="-1.0464">
        <ele>44</ele>
        <time>2025-04-26T13:48:05Z</time>
      </trkpt>
      <trkpt lat="45.60564" lon="-1.04636">
        <ele>44</ele>
        <time>2025-04-26T13:48:06Z</time>
      </trkpt>
      <trkpt lat="45.60569" lon="-1.04632">
        <ele>43</ele>
        <time>2025-04-26T13:48:07Z</time>
      </trkpt>
      <trkpt lat="45.60573" lon="-1.04627">
        <ele>42</ele>
        <time>2025-04-26T13:48:08Z</time>
      </trkpt>
      <trkpt lat="45.60577" lon="-1.04623">
        <ele>42</ele>
        <time>2025-04-26T13:48:09Z</time>
      </trkpt>
      <trkpt lat="45.60581" lon="-1.04618">
        <ele>42</ele>
        <time>2025-04-26T13:48:10Z</time>
      </trkpt>
      <trkpt lat="45.60585" lon="-1.04613">
        <ele>42</ele>
        <time>2025-04-26T13:48:11Z</time>
      </trkpt>
      <trkpt lat="45.60589" lon="-1.04609">
        <ele>44</ele>
        <time>2025-04-26T13:48:12Z</time>
      </trkpt>
      <trkpt lat="45.60593" lon="-1.04605">
        <ele>43</ele>
        <time>2025-04-26T13:48:13Z</time>
      </trkpt>
      <trkpt lat="45.60597" lon="-1.04601">
        <ele>42</ele>
        <time>2025-04-26T13:48:14Z</time>
      </trkpt>
      <trkpt lat="45.60601" lon="-1.04596">
        <ele>41</ele>
        <time>2025-04-26T13:48:15Z</time>
      </trkpt>
      <trkpt lat="45.60605" lon="-1.04591">
        <ele>40</ele>
        <time>2025-04-26T13:48:16Z</time>
      </trkpt>
      <trkpt lat="45.60608" lon="-1.04587">
        <ele>40</ele>
        <time>2025-04-26T13:48:17Z</time>
      </trkpt>
      <trkpt lat="45.60612" lon="-1.04583">
        <ele>39</ele>
        <time>2025-04-26T13:48:18Z</time>
      </trkpt>
      <trkpt lat="45.60616" lon="-1.04579">
        <ele>38</ele>
        <time>2025-04-26T13:48:19Z</time>
      </trkpt>
      <trkpt lat="45.6062" lon="-1.04575">
        <ele>38</ele>
        <time>2025-04-26T13:48:20Z</time>
      </trkpt>
      <trkpt lat="45.60624" lon="-1.0457">
        <ele>38</ele>
        <time>2025-04-26T13:48:21Z</time>
      </trkpt>
      <trkpt lat="45.60627" lon="-1.04566">
        <ele>38</ele>
        <time>2025-04-26T13:48:22Z</time>
      </trkpt>
      <trkpt lat="45.60631" lon="-1.04562">
        <ele>38</ele>
        <time>2025-04-26T13:48:23Z</time>
      </trkpt>
      <trkpt lat="45.60634" lon="-1.04559">
        <ele>37</ele>
        <time>2025-04-26T13:48:24Z</time>
      </trkpt>
      <trkpt lat="45.60638" lon="-1.04555">
        <ele>39</ele>
        <time>2025-04-26T13:48:25Z</time>
      </trkpt>
      <trkpt lat="45.60642" lon="-1.04551">
        <ele>40</ele>
        <time>2025-04-26T13:48:26Z</time>
      </trkpt>
      <trkpt lat="45.60646" lon="-1.04545">
        <ele>40</ele>
        <time>2025-04-26T13:48:27Z</time>
      </trkpt>
      <trkpt lat="45.60649" lon="-1.0454">
        <ele>40</ele>
        <time>2025-04-26T13:48:28Z</time>
      </trkpt>
      <trkpt lat="45.60652" lon="-1.04535">
        <ele>40</ele>
        <time>2025-04-26T13:48:29Z</time>
      </trkpt>
      <trkpt lat="45.60656" lon="-1.04529">
        <ele>41</ele>
        <time>2025-04-26T13:48:30Z</time>
      </trkpt>
      <trkpt lat="45.6066" lon="-1.04524">
        <ele>40</ele>
        <time>2025-04-26T13:48:31Z</time>
      </trkpt>
      <trkpt lat="45.60663" lon="-1.04519">
        <ele>40</ele>
        <time>2025-04-26T13:48:32Z</time>
      </trkpt>
      <trkpt lat="45.60666" lon="-1.04513">
        <ele>39</ele>
        <time>2025-04-26T13:48:33Z</time>
      </trkpt>
      <trkpt lat="45.6067" lon="-1.04507">
        <ele>38</ele>
        <time>2025-04-26T13:48:34Z</time>
      </trkpt>
      <trkpt lat="45.60673" lon="-1.04502">
        <ele>38</ele>
        <time>2025-04-26T13:48:35Z</time>
      </trkpt>
      <trkpt lat="45.60677" lon="-1.04497">
        <ele>38</ele>
        <time>2025-04-26T13:48:36Z</time>
      </trkpt>
      <trkpt lat="45.60681" lon="-1.04492">
        <ele>39</ele>
        <time>2025-04-26T13:48:37Z</time>
      </trkpt>
      <trkpt lat="45.60685" lon="-1.04487">
        <ele>40</ele>
        <time>2025-04-26T13:48:38Z</time>
      </trkpt>
      <trkpt lat="45.60688" lon="-1.04481">
        <ele>41</ele>
        <time>2025-04-26T13:48:39Z</time>
      </trkpt>
      <trkpt lat="45.60691" lon="-1.04476">
        <ele>41</ele>
        <time>2025-04-26T13:48:40Z</time>
      </trkpt>
      <trkpt lat="45.60695" lon="-1.04471">
        <ele>41</ele>
        <time>2025-04-26T13:48:41Z</time>
      </trkpt>
      <trkpt lat="45.60698" lon="-1.04466">
        <ele>41</ele>
        <time>2025-04-26T13:48:42Z</time>
      </trkpt>
      <trkpt lat="45.60702" lon="-1.0446">
        <ele>39</ele>
        <time>2025-04-26T13:48:43Z</time>
      </trkpt>
      <trkpt lat="45.60705" lon="-1.04456">
        <ele>40</ele>
        <time>2025-04-26T13:48:44Z</time>
      </trkpt>
      <trkpt lat="45.60707" lon="-1.04451">
        <ele>40</ele>
        <time>2025-04-26T13:48:45Z</time>
      </trkpt>
      <trkpt lat="45.60711" lon="-1.04445">
        <ele>40</ele>
        <time>2025-04-26T13:48:46Z</time>
      </trkpt>
      <trkpt lat="45.60714" lon="-1.04439">
        <ele>40</ele>
        <time>2025-04-26T13:48:47Z</time>
      </trkpt>
      <trkpt lat="45.60718" lon="-1.04434">
        <ele>40</ele>
        <time>2025-04-26T13:48:48Z</time>
      </trkpt>
      <trkpt lat="45.6072" lon="-1.04427">
        <ele>38</ele>
        <time>2025-04-26T13:48:49Z</time>
      </trkpt>
      <trkpt lat="45.60724" lon="-1.04421">
        <ele>38</ele>
        <time>2025-04-26T13:48:50Z</time>
      </trkpt>
      <trkpt lat="45.60726" lon="-1.04415">
        <ele>37</ele>
        <time>2025-04-26T13:48:51Z</time>
      </trkpt>
      <trkpt lat="45.60729" lon="-1.0441">
        <ele>37</ele>
        <time>2025-04-26T13:48:52Z</time>
      </trkpt>
      <trkpt lat="45.60733" lon="-1.04404">
        <ele>35</ele>
        <time>2025-04-26T13:48:53Z</time>
      </trkpt>
      <trkpt lat="45.60736" lon="-1.04397">
        <ele>34</ele>
        <time>2025-04-26T13:48:54Z</time>
      </trkpt>
      <trkpt lat="45.6074" lon="-1.04391">
        <ele>35</ele>
        <time>2025-04-26T13:48:55Z</time>
      </trkpt>
      <trkpt lat="45.60744" lon="-1.04385">
        <ele>38</ele>
        <time>2025-04-26T13:48:56Z</time>
      </trkpt>
      <trkpt lat="45.60747" lon="-1.04379">
        <ele>39</ele>
        <time>2025-04-26T13:48:57Z</time>
      </trkpt>
      <trkpt lat="45.6075" lon="-1.04373">
        <ele>40</ele>
        <time>2025-04-26T13:48:58Z</time>
      </trkpt>
      <trkpt lat="45.60754" lon="-1.04367">
        <ele>42</ele>
        <time>2025-04-26T13:48:59Z</time>
      </trkpt>
      <trkpt lat="45.60757" lon="-1.04361">
        <ele>42</ele>
        <time>2025-04-26T13:49:00Z</time>
      </trkpt>
      <trkpt lat="45.6076" lon="-1.04355">
        <ele>42</ele>
        <time>2025-04-26T13:49:01Z</time>
      </trkpt>
      <trkpt lat="45.60763" lon="-1.04348">
        <ele>42</ele>
        <time>2025-04-26T13:49:02Z</time>
      </trkpt>
      <trkpt lat="45.60766" lon="-1.04341">
        <ele>42</ele>
        <time>2025-04-26T13:49:03Z</time>
      </trkpt>
      <trkpt lat="45.60769" lon="-1.04335">
        <ele>41</ele>
        <time>2025-04-26T13:49:04Z</time>
      </trkpt>
      <trkpt lat="45.60772" lon="-1.04329">
        <ele>41</ele>
        <time>2025-04-26T13:49:05Z</time>
      </trkpt>
      <trkpt lat="45.60775" lon="-1.04323">
        <ele>40</ele>
        <time>2025-04-26T13:49:06Z</time>
      </trkpt>
      <trkpt lat="45.60779" lon="-1.04317">
        <ele>40</ele>
        <time>2025-04-26T13:49:07Z</time>
      </trkpt>
      <trkpt lat="45.60782" lon="-1.0431">
        <ele>39</ele>
        <time>2025-04-26T13:49:08Z</time>
      </trkpt>
      <trkpt lat="45.60785" lon="-1.04304">
        <ele>39</ele>
        <time>2025-04-26T13:49:09Z</time>
      </trkpt>
      <trkpt lat="45.60788" lon="-1.04298">
        <ele>38</ele>
        <time>2025-04-26T13:49:10Z</time>
      </trkpt>
      <trkpt lat="45.60791" lon="-1.04293">
        <ele>40</ele>
        <time>2025-04-26T13:49:11Z</time>
      </trkpt>
      <trkpt lat="45.60794" lon="-1.04287">
        <ele>39</ele>
        <time>2025-04-26T13:49:12Z</time>
      </trkpt>
      <trkpt lat="45.60797" lon="-1.0428">
        <ele>41</ele>
        <time>2025-04-26T13:49:13Z</time>
      </trkpt>
      <trkpt lat="45.608" lon="-1.04274">
        <ele>41</ele>
        <time>2025-04-26T13:49:14Z</time>
      </trkpt>
      <trkpt lat="45.60804" lon="-1.04267">
        <ele>40</ele>
        <time>2025-04-26T13:49:15Z</time>
      </trkpt>
      <trkpt lat="45.60807" lon="-1.04261">
        <ele>40</ele>
        <time>2025-04-26T13:49:16Z</time>
      </trkpt>
      <trkpt lat="45.6081" lon="-1.04255">
        <ele>40</ele>
        <time>2025-04-26T13:49:17Z</time>
      </trkpt>
      <trkpt lat="45.60814" lon="-1.04249">
        <ele>39</ele>
        <time>2025-04-26T13:49:18Z</time>
      </trkpt>
      <trkpt lat="45.60817" lon="-1.04242">
        <ele>39</ele>
        <time>2025-04-26T13:49:19Z</time>
      </trkpt>
      <trkpt lat="45.6082" lon="-1.04235">
        <ele>39</ele>
        <time>2025-04-26T13:49:20Z</time>
      </trkpt>
      <trkpt lat="45.60822" lon="-1.04228">
        <ele>39</ele>
        <time>2025-04-26T13:49:21Z</time>
      </trkpt>
      <trkpt lat="45.60826" lon="-1.04222">
        <ele>40</ele>
        <time>2025-04-26T13:49:22Z</time>
      </trkpt>
      <trkpt lat="45.60829" lon="-1.04215">
        <ele>40</ele>
        <time>2025-04-26T13:49:23Z</time>
      </trkpt>
      <trkpt lat="45.60831" lon="-1.04208">
        <ele>41</ele>
        <time>2025-04-26T13:49:24Z</time>
      </trkpt>
      <trkpt lat="45.60834" lon="-1.04201">
        <ele>43</ele>
        <time>2025-04-26T13:49:25Z</time>
      </trkpt>
      <trkpt lat="45.60837" lon="-1.04194">
        <ele>43</ele>
        <time>2025-04-26T13:49:26Z</time>
      </trkpt>
      <trkpt lat="45.6084" lon="-1.04187">
        <ele>44</ele>
        <time>2025-04-26T13:49:27Z</time>
      </trkpt>
      <trkpt lat="45.60843" lon="-1.04181">
        <ele>45</ele>
        <time>2025-04-26T13:49:28Z</time>
      </trkpt>
      <trkpt lat="45.60846" lon="-1.04173">
        <ele>45</ele>
        <time>2025-04-26T13:49:29Z</time>
      </trkpt>
      <trkpt lat="45.60849" lon="-1.04166">
        <ele>45</ele>
        <time>2025-04-26T13:49:30Z</time>
      </trkpt>
      <trkpt lat="45.60852" lon="-1.04159">
        <ele>45</ele>
        <time>2025-04-26T13:49:31Z</time>
      </trkpt>
      <trkpt lat="45.60855" lon="-1.04152">
        <ele>45</ele>
        <time>2025-04-26T13:49:32Z</time>
      </trkpt>
      <trkpt lat="45.60858" lon="-1.04144">
        <ele>45</ele>
        <time>2025-04-26T13:49:33Z</time>
      </trkpt>
      <trkpt lat="45.60861" lon="-1.04137">
        <ele>44</ele>
        <time>2025-04-26T13:49:34Z</time>
      </trkpt>
      <trkpt lat="45.60864" lon="-1.0413">
        <ele>44</ele>
        <time>2025-04-26T13:49:35Z</time>
      </trkpt>
      <trkpt lat="45.60867" lon="-1.04123">
        <ele>44</ele>
        <time>2025-04-26T13:49:36Z</time>
      </trkpt>
      <trkpt lat="45.6087" lon="-1.04116">
        <ele>44</ele>
        <time>2025-04-26T13:49:37Z</time>
      </trkpt>
      <trkpt lat="45.60873" lon="-1.04109">
        <ele>43</ele>
        <time>2025-04-26T13:49:38Z</time>
      </trkpt>
      <trkpt lat="45.60876" lon="-1.04102">
        <ele>43</ele>
        <time>2025-04-26T13:49:39Z</time>
      </trkpt>
      <trkpt lat="45.6088" lon="-1.04096">
        <ele>43</ele>
        <time>2025-04-26T13:49:40Z</time>
      </trkpt>
      <trkpt lat="45.60883" lon="-1.04089">
        <ele>43</ele>
        <time>2025-04-26T13:49:41Z</time>
      </trkpt>
      <trkpt lat="45.60886" lon="-1.04083">
        <ele>42</ele>
        <time>2025-04-26T13:49:42Z</time>
      </trkpt>
      <trkpt lat="45.60889" lon="-1.04076">
        <ele>41</ele>
        <time>2025-04-26T13:49:43Z</time>
      </trkpt>
      <trkpt lat="45.60892" lon="-1.0407">
        <ele>42</ele>
        <time>2025-04-26T13:49:44Z</time>
      </trkpt>
      <trkpt lat="45.60895" lon="-1.04064">
        <ele>43</ele>
        <time>2025-04-26T13:49:45Z</time>
      </trkpt>
      <trkpt lat="45.60898" lon="-1.04058">
        <ele>43</ele>
        <time>2025-04-26T13:49:46Z</time>
      </trkpt>
      <trkpt lat="45.60901" lon="-1.04051">
        <ele>42</ele>
        <time>2025-04-26T13:49:47Z</time>
      </trkpt>
      <trkpt lat="45.60904" lon="-1.04045">
        <ele>43</ele>
        <time>2025-04-26T13:49:48Z</time>
      </trkpt>
      <trkpt lat="45.60907" lon="-1.04038">
        <ele>43</ele>
        <time>2025-04-26T13:49:49Z</time>
      </trkpt>
      <trkpt lat="45.6091" lon="-1.04031">
        <ele>42</ele>
        <time>2025-04-26T13:49:50Z</time>
      </trkpt>
      <trkpt lat="45.60913" lon="-1.04024">
        <ele>42</ele>
        <time>2025-04-26T13:49:51Z</time>
      </trkpt>
      <trkpt lat="45.60916" lon="-1.04017">
        <ele>41</ele>
        <time>2025-04-26T13:49:52Z</time>
      </trkpt>
      <trkpt lat="45.6092" lon="-1.0401">
        <ele>41</ele>
        <time>2025-04-26T13:49:53Z</time>
      </trkpt>
      <trkpt lat="45.60923" lon="-1.04003">
        <ele>41</ele>
        <time>2025-04-26T13:49:54Z</time>
      </trkpt>
      <trkpt lat="45.60926" lon="-1.03996">
        <ele>42</ele>
        <time>2025-04-26T13:49:55Z</time>
      </trkpt>
      <trkpt lat="45.60929" lon="-1.03989">
        <ele>42</ele>
        <time>2025-04-26T13:49:56Z</time>
      </trkpt>
      <trkpt lat="45.60932" lon="-1.03983">
        <ele>44</ele>
        <time>2025-04-26T13:49:57Z</time>
      </trkpt>
      <trkpt lat="45.60935" lon="-1.03976">
        <ele>45</ele>
        <time>2025-04-26T13:49:58Z</time>
      </trkpt>
      <trkpt lat="45.60939" lon="-1.0397">
        <ele>45</ele>
        <time>2025-04-26T13:49:59Z</time>
      </trkpt>
      <trkpt lat="45.60942" lon="-1.03964">
        <ele>45</ele>
        <time>2025-04-26T13:50:00Z</time>
      </trkpt>
      <trkpt lat="45.60945" lon="-1.03957">
        <ele>45</ele>
        <time>2025-04-26T13:50:01Z</time>
      </trkpt>
      <trkpt lat="45.60948" lon="-1.03951">
        <ele>46</ele>
        <time>2025-04-26T13:50:02Z</time>
      </trkpt>
      <trkpt lat="45.60951" lon="-1.03944">
        <ele>46</ele>
        <time>2025-04-26T13:50:03Z</time>
      </trkpt>
      <trkpt lat="45.60955" lon="-1.03938">
        <ele>46</ele>
        <time>2025-04-26T13:50:04Z</time>
      </trkpt>
      <trkpt lat="45.60958" lon="-1.03931">
        <ele>46</ele>
        <time>2025-04-26T13:50:05Z</time>
      </trkpt>
      <trkpt lat="45.60962" lon="-1.03925">
        <ele>45</ele>
        <time>2025-04-26T13:50:06Z</time>
      </trkpt>
      <trkpt lat="45.60965" lon="-1.03919">
        <ele>45</ele>
        <time>2025-04-26T13:50:07Z</time>
      </trkpt>
      <trkpt lat="45.60968" lon="-1.03913">
        <ele>45</ele>
        <time>2025-04-26T13:50:08Z</time>
      </trkpt>
      <trkpt lat="45.60971" lon="-1.03906">
        <ele>45</ele>
        <time>2025-04-26T13:50:09Z</time>
      </trkpt>
      <trkpt lat="45.60974" lon="-1.039">
        <ele>46</ele>
        <time>2025-04-26T13:50:10Z</time>
      </trkpt>
      <trkpt lat="45.60977" lon="-1.03894">
        <ele>46</ele>
        <time>2025-04-26T13:50:11Z</time>
      </trkpt>
      <trkpt lat="45.6098" lon="-1.03888">
        <ele>46</ele>
        <time>2025-04-26T13:50:12Z</time>
      </trkpt>
      <trkpt lat="45.60983" lon="-1.03881">
        <ele>45</ele>
        <time>2025-04-26T13:50:13Z</time>
      </trkpt>
      <trkpt lat="45.60986" lon="-1.03874">
        <ele>44</ele>
        <time>2025-04-26T13:50:14Z</time>
      </trkpt>
      <trkpt lat="45.60989" lon="-1.03868">
        <ele>43</ele>
        <time>2025-04-26T13:50:15Z</time>
      </trkpt>
      <trkpt lat="45.60992" lon="-1.03861">
        <ele>42</ele>
        <time>2025-04-26T13:50:16Z</time>
      </trkpt>
      <trkpt lat="45.60995" lon="-1.03854">
        <ele>40</ele>
        <time>2025-04-26T13:50:17Z</time>
      </trkpt>
      <trkpt lat="45.60998" lon="-1.03847">
        <ele>40</ele>
        <time>2025-04-26T13:50:18Z</time>
      </trkpt>
      <trkpt lat="45.61001" lon="-1.03841">
        <ele>38</ele>
        <time>2025-04-26T13:50:19Z</time>
      </trkpt>
      <trkpt lat="45.61004" lon="-1.03834">
        <ele>37</ele>
        <time>2025-04-26T13:50:20Z</time>
      </trkpt>
      <trkpt lat="45.61007" lon="-1.03827">
        <ele>37</ele>
        <time>2025-04-26T13:50:21Z</time>
      </trkpt>
      <trkpt lat="45.61011" lon="-1.03822">
        <ele>36</ele>
        <time>2025-04-26T13:50:22Z</time>
      </trkpt>
      <trkpt lat="45.61014" lon="-1.03815">
        <ele>35</ele>
        <time>2025-04-26T13:50:23Z</time>
      </trkpt>
      <trkpt lat="45.61017" lon="-1.03809">
        <ele>35</ele>
        <time>2025-04-26T13:50:24Z</time>
      </trkpt>
      <trkpt lat="45.6102" lon="-1.03802">
        <ele>36</ele>
        <time>2025-04-26T13:50:25Z</time>
      </trkpt>
      <trkpt lat="45.61024" lon="-1.03795">
        <ele>38</ele>
        <time>2025-04-26T13:50:26Z</time>
      </trkpt>
      <trkpt lat="45.61026" lon="-1.03788">
        <ele>38</ele>
        <time>2025-04-26T13:50:27Z</time>
      </trkpt>
      <trkpt lat="45.6103" lon="-1.03782">
        <ele>37</ele>
        <time>2025-04-26T13:50:28Z</time>
      </trkpt>
      <trkpt lat="45.61033" lon="-1.03775">
        <ele>37</ele>
        <time>2025-04-26T13:50:29Z</time>
      </trkpt>
      <trkpt lat="45.61036" lon="-1.03768">
        <ele>37</ele>
        <time>2025-04-26T13:50:30Z</time>
      </trkpt>
      <trkpt lat="45.61039" lon="-1.03762">
        <ele>37</ele>
        <time>2025-04-26T13:50:31Z</time>
      </trkpt>
      <trkpt lat="45.61043" lon="-1.03755">
        <ele>37</ele>
        <time>2025-04-26T13:50:32Z</time>
      </trkpt>
      <trkpt lat="45.61047" lon="-1.03748">
        <ele>36</ele>
        <time>2025-04-26T13:50:33Z</time>
      </trkpt>
      <trkpt lat="45.61051" lon="-1.03741">
        <ele>37</ele>
        <time>2025-04-26T13:50:34Z</time>
      </trkpt>
      <trkpt lat="45.61054" lon="-1.03735">
        <ele>37</ele>
        <time>2025-04-26T13:50:35Z</time>
      </trkpt>
      <trkpt lat="45.61057" lon="-1.03728">
        <ele>38</ele>
        <time>2025-04-26T13:50:36Z</time>
      </trkpt>
      <trkpt lat="45.61061" lon="-1.03723">
        <ele>37</ele>
        <time>2025-04-26T13:50:37Z</time>
      </trkpt>
      <trkpt lat="45.61065" lon="-1.03718">
        <ele>37</ele>
        <time>2025-04-26T13:50:38Z</time>
      </trkpt>
      <trkpt lat="45.61068" lon="-1.03712">
        <ele>38</ele>
        <time>2025-04-26T13:50:39Z</time>
      </trkpt>
      <trkpt lat="45.61071" lon="-1.03706">
        <ele>37</ele>
        <time>2025-04-26T13:50:40Z</time>
      </trkpt>
      <trkpt lat="45.61075" lon="-1.03701">
        <ele>38</ele>
        <time>2025-04-26T13:50:41Z</time>
      </trkpt>
      <trkpt lat="45.61077" lon="-1.03695">
        <ele>38</ele>
        <time>2025-04-26T13:50:42Z</time>
      </trkpt>
      <trkpt lat="45.61081" lon="-1.03688">
        <ele>38</ele>
        <time>2025-04-26T13:50:43Z</time>
      </trkpt>
      <trkpt lat="45.61084" lon="-1.03682">
        <ele>38</ele>
        <time>2025-04-26T13:50:44Z</time>
      </trkpt>
      <trkpt lat="45.61087" lon="-1.03675">
        <ele>38</ele>
        <time>2025-04-26T13:50:45Z</time>
      </trkpt>
      <trkpt lat="45.61091" lon="-1.03669">
        <ele>39</ele>
        <time>2025-04-26T13:50:46Z</time>
      </trkpt>
      <trkpt lat="45.61094" lon="-1.03662">
        <ele>40</ele>
        <time>2025-04-26T13:50:47Z</time>
      </trkpt>
      <trkpt lat="45.61097" lon="-1.03656">
        <ele>39</ele>
        <time>2025-04-26T13:50:48Z</time>
      </trkpt>
      <trkpt lat="45.611" lon="-1.0365">
        <ele>40</ele>
        <time>2025-04-26T13:50:49Z</time>
      </trkpt>
      <trkpt lat="45.61104" lon="-1.03644">
        <ele>40</ele>
        <time>2025-04-26T13:50:50Z</time>
      </trkpt>
      <trkpt lat="45.61108" lon="-1.03638">
        <ele>40</ele>
        <time>2025-04-26T13:50:51Z</time>
      </trkpt>
      <trkpt lat="45.61111" lon="-1.03632">
        <ele>40</ele>
        <time>2025-04-26T13:50:52Z</time>
      </trkpt>
      <trkpt lat="45.61115" lon="-1.03625">
        <ele>40</ele>
        <time>2025-04-26T13:50:53Z</time>
      </trkpt>
      <trkpt lat="45.61118" lon="-1.03619">
        <ele>40</ele>
        <time>2025-04-26T13:50:54Z</time>
      </trkpt>
      <trkpt lat="45.61122" lon="-1.03613">
        <ele>40</ele>
        <time>2025-04-26T13:50:55Z</time>
      </trkpt>
      <trkpt lat="45.61125" lon="-1.03607">
        <ele>41</ele>
        <time>2025-04-26T13:50:56Z</time>
      </trkpt>
      <trkpt lat="45.61128" lon="-1.03601">
        <ele>40</ele>
        <time>2025-04-26T13:50:57Z</time>
      </trkpt>
      <trkpt lat="45.61132" lon="-1.03595">
        <ele>40</ele>
        <time>2025-04-26T13:50:58Z</time>
      </trkpt>
      <trkpt lat="45.61135" lon="-1.03589">
        <ele>39</ele>
        <time>2025-04-26T13:50:59Z</time>
      </trkpt>
      <trkpt lat="45.61138" lon="-1.03583">
        <ele>39</ele>
        <time>2025-04-26T13:51:00Z</time>
      </trkpt>
      <trkpt lat="45.61142" lon="-1.03577">
        <ele>39</ele>
        <time>2025-04-26T13:51:01Z</time>
      </trkpt>
      <trkpt lat="45.61146" lon="-1.03571">
        <ele>39</ele>
        <time>2025-04-26T13:51:02Z</time>
      </trkpt>
      <trkpt lat="45.6115" lon="-1.03565">
        <ele>39</ele>
        <time>2025-04-26T13:51:03Z</time>
      </trkpt>
      <trkpt lat="45.61154" lon="-1.0356">
        <ele>39</ele>
        <time>2025-04-26T13:51:04Z</time>
      </trkpt>
      <trkpt lat="45.61157" lon="-1.03554">
        <ele>39</ele>
        <time>2025-04-26T13:51:05Z</time>
      </trkpt>
      <trkpt lat="45.61161" lon="-1.03548">
        <ele>39</ele>
        <time>2025-04-26T13:51:06Z</time>
      </trkpt>
      <trkpt lat="45.61165" lon="-1.03542">
        <ele>39</ele>
        <time>2025-04-26T13:51:07Z</time>
      </trkpt>
      <trkpt lat="45.61169" lon="-1.03536">
        <ele>38</ele>
        <time>2025-04-26T13:51:08Z</time>
      </trkpt>
      <trkpt lat="45.61172" lon="-1.0353">
        <ele>39</ele>
        <time>2025-04-26T13:51:09Z</time>
      </trkpt>
      <trkpt lat="45.61176" lon="-1.03524">
        <ele>39</ele>
        <time>2025-04-26T13:51:10Z</time>
      </trkpt>
      <trkpt lat="45.61179" lon="-1.03518">
        <ele>39</ele>
        <time>2025-04-26T13:51:11Z</time>
      </trkpt>
      <trkpt lat="45.61183" lon="-1.03512">
        <ele>40</ele>
        <time>2025-04-26T13:51:12Z</time>
      </trkpt>
      <trkpt lat="45.61187" lon="-1.03506">
        <ele>39</ele>
        <time>2025-04-26T13:51:13Z</time>
      </trkpt>
      <trkpt lat="45.6119" lon="-1.035">
        <ele>41</ele>
        <time>2025-04-26T13:51:14Z</time>
      </trkpt>
      <trkpt lat="45.61194" lon="-1.03495">
        <ele>43</ele>
        <time>2025-04-26T13:51:15Z</time>
      </trkpt>
      <trkpt lat="45.61198" lon="-1.03489">
        <ele>42</ele>
        <time>2025-04-26T13:51:16Z</time>
      </trkpt>
      <trkpt lat="45.61202" lon="-1.03483">
        <ele>42</ele>
        <time>2025-04-26T13:51:17Z</time>
      </trkpt>
      <trkpt lat="45.61206" lon="-1.03477">
        <ele>42</ele>
        <time>2025-04-26T13:51:18Z</time>
      </trkpt>
      <trkpt lat="45.6121" lon="-1.03471">
        <ele>42</ele>
        <time>2025-04-26T13:51:19Z</time>
      </trkpt>
      <trkpt lat="45.61214" lon="-1.03465">
        <ele>42</ele>
        <time>2025-04-26T13:51:20Z</time>
      </trkpt>
      <trkpt lat="45.61218" lon="-1.0346">
        <ele>41</ele>
        <time>2025-04-26T13:51:21Z</time>
      </trkpt>
      <trkpt lat="45.61221" lon="-1.03454">
        <ele>41</ele>
        <time>2025-04-26T13:51:22Z</time>
      </trkpt>
      <trkpt lat="45.61225" lon="-1.03449">
        <ele>41</ele>
        <time>2025-04-26T13:51:23Z</time>
      </trkpt>
      <trkpt lat="45.6123" lon="-1.03444">
        <ele>40</ele>
        <time>2025-04-26T13:51:24Z</time>
      </trkpt>
      <trkpt lat="45.61234" lon="-1.03439">
        <ele>40</ele>
        <time>2025-04-26T13:51:25Z</time>
      </trkpt>
      <trkpt lat="45.61237" lon="-1.03434">
        <ele>40</ele>
        <time>2025-04-26T13:51:26Z</time>
      </trkpt>
      <trkpt lat="45.61241" lon="-1.03428">
        <ele>39</ele>
        <time>2025-04-26T13:51:27Z</time>
      </trkpt>
      <trkpt lat="45.61245" lon="-1.03422">
        <ele>39</ele>
        <time>2025-04-26T13:51:28Z</time>
      </trkpt>
      <trkpt lat="45.61249" lon="-1.03417">
        <ele>38</ele>
        <time>2025-04-26T13:51:29Z</time>
      </trkpt>
      <trkpt lat="45.61253" lon="-1.03411">
        <ele>37</ele>
        <time>2025-04-26T13:51:30Z</time>
      </trkpt>
      <trkpt lat="45.61257" lon="-1.03406">
        <ele>37</ele>
        <time>2025-04-26T13:51:31Z</time>
      </trkpt>
      <trkpt lat="45.61261" lon="-1.03401">
        <ele>37</ele>
        <time>2025-04-26T13:51:32Z</time>
      </trkpt>
      <trkpt lat="45.61265" lon="-1.03396">
        <ele>36</ele>
        <time>2025-04-26T13:51:33Z</time>
      </trkpt>
      <trkpt lat="45.61268" lon="-1.0339">
        <ele>36</ele>
        <time>2025-04-26T13:51:34Z</time>
      </trkpt>
      <trkpt lat="45.61272" lon="-1.03386">
        <ele>36</ele>
        <time>2025-04-26T13:51:35Z</time>
      </trkpt>
      <trkpt lat="45.61276" lon="-1.0338">
        <ele>36</ele>
        <time>2025-04-26T13:51:36Z</time>
      </trkpt>
      <trkpt lat="45.61279" lon="-1.03374">
        <ele>36</ele>
        <time>2025-04-26T13:51:37Z</time>
      </trkpt>
      <trkpt lat="45.61283" lon="-1.03369">
        <ele>35</ele>
        <time>2025-04-26T13:51:38Z</time>
      </trkpt>
      <trkpt lat="45.61286" lon="-1.03364">
        <ele>35</ele>
        <time>2025-04-26T13:51:39Z</time>
      </trkpt>
      <trkpt lat="45.61289" lon="-1.03358">
        <ele>35</ele>
        <time>2025-04-26T13:51:40Z</time>
      </trkpt>
      <trkpt lat="45.61293" lon="-1.03352">
        <ele>35</ele>
        <time>2025-04-26T13:51:41Z</time>
      </trkpt>
      <trkpt lat="45.61296" lon="-1.03347">
        <ele>35</ele>
        <time>2025-04-26T13:51:42Z</time>
      </trkpt>
      <trkpt lat="45.613" lon="-1.03342">
        <ele>36</ele>
        <time>2025-04-26T13:51:43Z</time>
      </trkpt>
      <trkpt lat="45.61304" lon="-1.03336">
        <ele>36</ele>
        <time>2025-04-26T13:51:44Z</time>
      </trkpt>
      <trkpt lat="45.61308" lon="-1.03331">
        <ele>37</ele>
        <time>2025-04-26T13:51:45Z</time>
      </trkpt>
      <trkpt lat="45.61312" lon="-1.03326">
        <ele>38</ele>
        <time>2025-04-26T13:51:46Z</time>
      </trkpt>
      <trkpt lat="45.61316" lon="-1.03321">
        <ele>37</ele>
        <time>2025-04-26T13:51:47Z</time>
      </trkpt>
      <trkpt lat="45.6132" lon="-1.03316">
        <ele>38</ele>
        <time>2025-04-26T13:51:48Z</time>
      </trkpt>
      <trkpt lat="45.61324" lon="-1.03313">
        <ele>40</ele>
        <time>2025-04-26T13:51:49Z</time>
      </trkpt>
      <trkpt lat="45.61328" lon="-1.03309">
        <ele>41</ele>
        <time>2025-04-26T13:51:50Z</time>
      </trkpt>
      <trkpt lat="45.61331" lon="-1.03304">
        <ele>41</ele>
        <time>2025-04-26T13:51:51Z</time>
      </trkpt>
      <trkpt lat="45.61334" lon="-1.03298">
        <ele>44</ele>
        <time>2025-04-26T13:51:52Z</time>
      </trkpt>
      <trkpt lat="45.61338" lon="-1.03293">
        <ele>44</ele>
        <time>2025-04-26T13:51:53Z</time>
      </trkpt>
      <trkpt lat="45.61341" lon="-1.03288">
        <ele>43</ele>
        <time>2025-04-26T13:51:54Z</time>
      </trkpt>
      <trkpt lat="45.61345" lon="-1.03283">
        <ele>45</ele>
        <time>2025-04-26T13:51:55Z</time>
      </trkpt>
      <trkpt lat="45.61349" lon="-1.03278">
        <ele>45</ele>
        <time>2025-04-26T13:51:56Z</time>
      </trkpt>
      <trkpt lat="45.61352" lon="-1.03273">
        <ele>44</ele>
        <time>2025-04-26T13:51:57Z</time>
      </trkpt>
      <trkpt lat="45.61356" lon="-1.03267">
        <ele>46</ele>
        <time>2025-04-26T13:51:58Z</time>
      </trkpt>
      <trkpt lat="45.6136" lon="-1.03261">
        <ele>45</ele>
        <time>2025-04-26T13:51:59Z</time>
      </trkpt>
      <trkpt lat="45.61364" lon="-1.03256">
        <ele>45</ele>
        <time>2025-04-26T13:52:00Z</time>
      </trkpt>
      <trkpt lat="45.61367" lon="-1.0325">
        <ele>44</ele>
        <time>2025-04-26T13:52:01Z</time>
      </trkpt>
      <trkpt lat="45.61371" lon="-1.03244">
        <ele>44</ele>
        <time>2025-04-26T13:52:02Z</time>
      </trkpt>
      <trkpt lat="45.61375" lon="-1.03238">
        <ele>44</ele>
        <time>2025-04-26T13:52:03Z</time>
      </trkpt>
      <trkpt lat="45.61379" lon="-1.03232">
        <ele>45</ele>
        <time>2025-04-26T13:52:04Z</time>
      </trkpt>
      <trkpt lat="45.61383" lon="-1.03227">
        <ele>44</ele>
        <time>2025-04-26T13:52:05Z</time>
      </trkpt>
      <trkpt lat="45.61388" lon="-1.0322">
        <ele>43</ele>
        <time>2025-04-26T13:52:06Z</time>
      </trkpt>
      <trkpt lat="45.61391" lon="-1.03215">
        <ele>42</ele>
        <time>2025-04-26T13:52:07Z</time>
      </trkpt>
      <trkpt lat="45.61394" lon="-1.03208">
        <ele>41</ele>
        <time>2025-04-26T13:52:08Z</time>
      </trkpt>
      <trkpt lat="45.61398" lon="-1.03203">
        <ele>41</ele>
        <time>2025-04-26T13:52:09Z</time>
      </trkpt>
      <trkpt lat="45.61401" lon="-1.03197">
        <ele>40</ele>
        <time>2025-04-26T13:52:10Z</time>
      </trkpt>
      <trkpt lat="45.61404" lon="-1.03192">
        <ele>39</ele>
        <time>2025-04-26T13:52:11Z</time>
      </trkpt>
      <trkpt lat="45.61407" lon="-1.03187">
        <ele>38</ele>
        <time>2025-04-26T13:52:12Z</time>
      </trkpt>
      <trkpt lat="45.61411" lon="-1.03181">
        <ele>38</ele>
        <time>2025-04-26T13:52:13Z</time>
      </trkpt>
      <trkpt lat="45.61414" lon="-1.03176">
        <ele>37</ele>
        <time>2025-04-26T13:52:14Z</time>
      </trkpt>
      <trkpt lat="45.61417" lon="-1.03171">
        <ele>36</ele>
        <time>2025-04-26T13:52:15Z</time>
      </trkpt>
      <trkpt lat="45.61419" lon="-1.03166">
        <ele>35</ele>
        <time>2025-04-26T13:52:16Z</time>
      </trkpt>
      <trkpt lat="45.61422" lon="-1.03162">
        <ele>35</ele>
        <time>2025-04-26T13:52:17Z</time>
      </trkpt>
      <trkpt lat="45.61425" lon="-1.03156">
        <ele>35</ele>
        <time>2025-04-26T13:52:18Z</time>
      </trkpt>
      <trkpt lat="45.61428" lon="-1.03152">
        <ele>34</ele>
        <time>2025-04-26T13:52:19Z</time>
      </trkpt>
      <trkpt lat="45.61431" lon="-1.03146">
        <ele>35</ele>
        <time>2025-04-26T13:52:20Z</time>
      </trkpt>
      <trkpt lat="45.61434" lon="-1.03141">
        <ele>37</ele>
        <time>2025-04-26T13:52:21Z</time>
      </trkpt>
      <trkpt lat="45.61437" lon="-1.03136">
        <ele>37</ele>
        <time>2025-04-26T13:52:22Z</time>
      </trkpt>
      <trkpt lat="45.6144" lon="-1.03131">
        <ele>37</ele>
        <time>2025-04-26T13:52:23Z</time>
      </trkpt>
      <trkpt lat="45.61444" lon="-1.03124">
        <ele>37</ele>
        <time>2025-04-26T13:52:24Z</time>
      </trkpt>
      <trkpt lat="45.61447" lon="-1.03118">
        <ele>37</ele>
        <time>2025-04-26T13:52:25Z</time>
      </trkpt>
      <trkpt lat="45.6145" lon="-1.03112">
        <ele>38</ele>
        <time>2025-04-26T13:52:26Z</time>
      </trkpt>
      <trkpt lat="45.61452" lon="-1.03106">
        <ele>37</ele>
        <time>2025-04-26T13:52:27Z</time>
      </trkpt>
      <trkpt lat="45.61456" lon="-1.03101">
        <ele>37</ele>
        <time>2025-04-26T13:52:28Z</time>
      </trkpt>
      <trkpt lat="45.61459" lon="-1.03095">
        <ele>37</ele>
        <time>2025-04-26T13:52:29Z</time>
      </trkpt>
      <trkpt lat="45.61462" lon="-1.0309">
        <ele>38</ele>
        <time>2025-04-26T13:52:30Z</time>
      </trkpt>
      <trkpt lat="45.61465" lon="-1.03084">
        <ele>38</ele>
        <time>2025-04-26T13:52:31Z</time>
      </trkpt>
      <trkpt lat="45.61468" lon="-1.03078">
        <ele>38</ele>
        <time>2025-04-26T13:52:32Z</time>
      </trkpt>
      <trkpt lat="45.61471" lon="-1.03073">
        <ele>39</ele>
        <time>2025-04-26T13:52:33Z</time>
      </trkpt>
      <trkpt lat="45.61473" lon="-1.03067">
        <ele>38</ele>
        <time>2025-04-26T13:52:34Z</time>
      </trkpt>
      <trkpt lat="45.61476" lon="-1.03062">
        <ele>38</ele>
        <time>2025-04-26T13:52:35Z</time>
      </trkpt>
      <trkpt lat="45.61478" lon="-1.03057">
        <ele>37</ele>
        <time>2025-04-26T13:52:36Z</time>
      </trkpt>
      <trkpt lat="45.61482" lon="-1.03052">
        <ele>36</ele>
        <time>2025-04-26T13:52:37Z</time>
      </trkpt>
      <trkpt lat="45.61485" lon="-1.03045">
        <ele>36</ele>
        <time>2025-04-26T13:52:38Z</time>
      </trkpt>
      <trkpt lat="45.61488" lon="-1.03041">
        <ele>38</ele>
        <time>2025-04-26T13:52:39Z</time>
      </trkpt>
      <trkpt lat="45.61491" lon="-1.03037">
        <ele>39</ele>
        <time>2025-04-26T13:52:40Z</time>
      </trkpt>
      <trkpt lat="45.61495" lon="-1.03032">
        <ele>39</ele>
        <time>2025-04-26T13:52:41Z</time>
      </trkpt>
      <trkpt lat="45.61499" lon="-1.03027">
        <ele>39</ele>
        <time>2025-04-26T13:52:42Z</time>
      </trkpt>
      <trkpt lat="45.61501" lon="-1.03022">
        <ele>38</ele>
        <time>2025-04-26T13:52:43Z</time>
      </trkpt>
      <trkpt lat="45.61505" lon="-1.03018">
        <ele>38</ele>
        <time>2025-04-26T13:52:44Z</time>
      </trkpt>
      <trkpt lat="45.61508" lon="-1.03013">
        <ele>38</ele>
        <time>2025-04-26T13:52:45Z</time>
      </trkpt>
      <trkpt lat="45.61511" lon="-1.03009">
        <ele>39</ele>
        <time>2025-04-26T13:52:46Z</time>
      </trkpt>
      <trkpt lat="45.61514" lon="-1.03005">
        <ele>41</ele>
        <time>2025-04-26T13:52:47Z</time>
      </trkpt>
      <trkpt lat="45.61517" lon="-1.03">
        <ele>42</ele>
        <time>2025-04-26T13:52:48Z</time>
      </trkpt>
      <trkpt lat="45.6152" lon="-1.02997">
        <ele>43</ele>
        <time>2025-04-26T13:52:49Z</time>
      </trkpt>
      <trkpt lat="45.61523" lon="-1.02992">
        <ele>43</ele>
        <time>2025-04-26T13:52:50Z</time>
      </trkpt>
      <trkpt lat="45.61525" lon="-1.02988">
        <ele>44</ele>
        <time>2025-04-26T13:52:51Z</time>
      </trkpt>
      <trkpt lat="45.61527" lon="-1.02984">
        <ele>43</ele>
        <time>2025-04-26T13:52:52Z</time>
      </trkpt>
      <trkpt lat="45.61529" lon="-1.0298">
        <ele>42</ele>
        <time>2025-04-26T13:52:53Z</time>
      </trkpt>
      <trkpt lat="45.61532" lon="-1.02976">
        <ele>42</ele>
        <time>2025-04-26T13:52:54Z</time>
      </trkpt>
      <trkpt lat="45.61534" lon="-1.02972">
        <ele>42</ele>
        <time>2025-04-26T13:52:55Z</time>
      </trkpt>
      <trkpt lat="45.61537" lon="-1.02968">
        <ele>41</ele>
        <time>2025-04-26T13:52:56Z</time>
      </trkpt>
      <trkpt lat="45.6154" lon="-1.02964">
        <ele>41</ele>
        <time>2025-04-26T13:52:57Z</time>
      </trkpt>
      <trkpt lat="45.61543" lon="-1.02961">
        <ele>41</ele>
        <time>2025-04-26T13:52:58Z</time>
      </trkpt>
      <trkpt lat="45.61545" lon="-1.02958">
        <ele>41</ele>
        <time>2025-04-26T13:52:59Z</time>
      </trkpt>
      <trkpt lat="45.61548" lon="-1.02954">
        <ele>40</ele>
        <time>2025-04-26T13:53:00Z</time>
      </trkpt>
      <trkpt lat="45.61552" lon="-1.02951">
        <ele>40</ele>
        <time>2025-04-26T13:53:01Z</time>
      </trkpt>
      <trkpt lat="45.61554" lon="-1.02947">
        <ele>41</ele>
        <time>2025-04-26T13:53:02Z</time>
      </trkpt>
      <trkpt lat="45.61557" lon="-1.02945">
        <ele>41</ele>
        <time>2025-04-26T13:53:03Z</time>
      </trkpt>
      <trkpt lat="45.6156" lon="-1.02942">
        <ele>41</ele>
        <time>2025-04-26T13:53:04Z</time>
      </trkpt>
      <trkpt lat="45.61563" lon="-1.02939">
        <ele>41</ele>
        <time>2025-04-26T13:53:05Z</time>
      </trkpt>
      <trkpt lat="45.61566" lon="-1.02938">
        <ele>41</ele>
        <time>2025-04-26T13:53:06Z</time>
      </trkpt>
      <trkpt lat="45.61569" lon="-1.02936">
        <ele>40</ele>
        <time>2025-04-26T13:53:07Z</time>
      </trkpt>
      <trkpt lat="45.61571" lon="-1.02934">
        <ele>40</ele>
        <time>2025-04-26T13:53:08Z</time>
      </trkpt>
      <trkpt lat="45.61573" lon="-1.02933">
        <ele>39</ele>
        <time>2025-04-26T13:53:09Z</time>
      </trkpt>
      <trkpt lat="45.61576" lon="-1.02932">
        <ele>39</ele>
        <time>2025-04-26T13:53:10Z</time>
      </trkpt>
      <trkpt lat="45.61578" lon="-1.0293">
        <ele>38</ele>
        <time>2025-04-26T13:53:11Z</time>
      </trkpt>
      <trkpt lat="45.6158" lon="-1.02929">
        <ele>37</ele>
        <time>2025-04-26T13:53:12Z</time>
      </trkpt>
      <trkpt lat="45.61583" lon="-1.02928">
        <ele>36</ele>
        <time>2025-04-26T13:53:13Z</time>
      </trkpt>
      <trkpt lat="45.61585" lon="-1.02927">
        <ele>37</ele>
        <time>2025-04-26T13:53:14Z</time>
      </trkpt>
      <trkpt lat="45.61588" lon="-1.02926">
        <ele>37</ele>
        <time>2025-04-26T13:53:15Z</time>
      </trkpt>
      <trkpt lat="45.6159" lon="-1.02925">
        <ele>37</ele>
        <time>2025-04-26T13:53:16Z</time>
      </trkpt>
      <trkpt lat="45.61592" lon="-1.02923">
        <ele>37</ele>
        <time>2025-04-26T13:53:17Z</time>
      </trkpt>
      <trkpt lat="45.61595" lon="-1.02922">
        <ele>36</ele>
        <time>2025-04-26T13:53:18Z</time>
      </trkpt>
      <trkpt lat="45.61597" lon="-1.02922">
        <ele>38</ele>
        <time>2025-04-26T13:53:19Z</time>
      </trkpt>
      <trkpt lat="45.616" lon="-1.02921">
        <ele>38</ele>
        <time>2025-04-26T13:53:20Z</time>
      </trkpt>
      <trkpt lat="45.61602" lon="-1.02922">
        <ele>39</ele>
        <time>2025-04-26T13:53:21Z</time>
      </trkpt>
      <trkpt lat="45.61604" lon="-1.02922">
        <ele>39</ele>
        <time>2025-04-26T13:53:22Z</time>
      </trkpt>
      <trkpt lat="45.61606" lon="-1.02923">
        <ele>40</ele>
        <time>2025-04-26T13:53:23Z</time>
      </trkpt>
      <trkpt lat="45.61608" lon="-1.02923">
        <ele>39</ele>
        <time>2025-04-26T13:53:24Z</time>
      </trkpt>
      <trkpt lat="45.6161" lon="-1.02924">
        <ele>39</ele>
        <time>2025-04-26T13:53:25Z</time>
      </trkpt>
      <trkpt lat="45.61612" lon="-1.02924">
        <ele>39</ele>
        <time>2025-04-26T13:53:26Z</time>
      </trkpt>
      <trkpt lat="45.61614" lon="-1.02924">
        <ele>41</ele>
        <time>2025-04-26T13:53:27Z</time>
      </trkpt>
      <trkpt lat="45.61616" lon="-1.02923">
        <ele>41</ele>
        <time>2025-04-26T13:53:28Z</time>
      </trkpt>
      <trkpt lat="45.61619" lon="-1.02923">
        <ele>41</ele>
        <time>2025-04-26T13:53:29Z</time>
      </trkpt>
      <trkpt lat="45.61621" lon="-1.02924">
        <ele>40</ele>
        <time>2025-04-26T13:53:30Z</time>
      </trkpt>
      <trkpt lat="45.61623" lon="-1.02925">
        <ele>41</ele>
        <time>2025-04-26T13:53:31Z</time>
      </trkpt>
      <trkpt lat="45.61626" lon="-1.02926">
        <ele>41</ele>
        <time>2025-04-26T13:53:32Z</time>
      </trkpt>
      <trkpt lat="45.61628" lon="-1.02927">
        <ele>41</ele>
        <time>2025-04-26T13:53:33Z</time>
      </trkpt>
      <trkpt lat="45.6163" lon="-1.02928">
        <ele>41</ele>
        <time>2025-04-26T13:53:34Z</time>
      </trkpt>
      <trkpt lat="45.61633" lon="-1.0293">
        <ele>41</ele>
        <time>2025-04-26T13:53:35Z</time>
      </trkpt>
      <trkpt lat="45.61635" lon="-1.02931">
        <ele>42</ele>
        <time>2025-04-26T13:53:36Z</time>
      </trkpt>
      <trkpt lat="45.61637" lon="-1.02932">
        <ele>42</ele>
        <time>2025-04-26T13:53:37Z</time>
      </trkpt>
      <trkpt lat="45.6164" lon="-1.02934">
        <ele>42</ele>
        <time>2025-04-26T13:53:38Z</time>
      </trkpt>
      <trkpt lat="45.61642" lon="-1.02935">
        <ele>42</ele>
        <time>2025-04-26T13:53:39Z</time>
      </trkpt>
      <trkpt lat="45.61643" lon="-1.02936">
        <ele>42</ele>
        <time>2025-04-26T13:53:40Z</time>
      </trkpt>
      <trkpt lat="45.61645" lon="-1.02938">
        <ele>43</ele>
        <time>2025-04-26T13:53:41Z</time>
      </trkpt>
      <trkpt lat="45.61647" lon="-1.02939">
        <ele>42</ele>
        <time>2025-04-26T13:53:42Z</time>
      </trkpt>
      <trkpt lat="45.61649" lon="-1.02941">
        <ele>42</ele>
        <time>2025-04-26T13:53:43Z</time>
      </trkpt>
      <trkpt lat="45.61651" lon="-1.02942">
        <ele>42</ele>
        <time>2025-04-26T13:53:44Z</time>
      </trkpt>
      <trkpt lat="45.61652" lon="-1.02943">
        <ele>44</ele>
        <time>2025-04-26T13:53:45Z</time>
      </trkpt>
      <trkpt lat="45.61653" lon="-1.02945">
        <ele>43</ele>
        <time>2025-04-26T13:53:46Z</time>
      </trkpt>
      <trkpt lat="45.61655" lon="-1.02947">
        <ele>43</ele>
        <time>2025-04-26T13:53:47Z</time>
      </trkpt>
      <trkpt lat="45.61656" lon="-1.02949">
        <ele>43</ele>
        <time>2025-04-26T13:53:48Z</time>
      </trkpt>
      <trkpt lat="45.61657" lon="-1.0295">
        <ele>43</ele>
        <time>2025-04-26T13:53:49Z</time>
      </trkpt>
      <trkpt lat="45.61659" lon="-1.02952">
        <ele>45</ele>
        <time>2025-04-26T13:53:50Z</time>
      </trkpt>
      <trkpt lat="45.6166" lon="-1.02954">
        <ele>45</ele>
        <time>2025-04-26T13:53:51Z</time>
      </trkpt>
      <trkpt lat="45.61662" lon="-1.02956">
        <ele>44</ele>
        <time>2025-04-26T13:53:52Z</time>
      </trkpt>
      <trkpt lat="45.61664" lon="-1.02958">
        <ele>44</ele>
        <time>2025-04-26T13:53:53Z</time>
      </trkpt>
      <trkpt lat="45.61666" lon="-1.0296">
        <ele>44</ele>
        <time>2025-04-26T13:53:54Z</time>
      </trkpt>
      <trkpt lat="45.61668" lon="-1.02961">
        <ele>45</ele>
        <time>2025-04-26T13:53:55Z</time>
      </trkpt>
      <trkpt lat="45.61669" lon="-1.02963">
        <ele>46</ele>
        <time>2025-04-26T13:53:56Z</time>
      </trkpt>
      <trkpt lat="45.61671" lon="-1.02964">
        <ele>47</ele>
        <time>2025-04-26T13:53:57Z</time>
      </trkpt>
      <trkpt lat="45.61673" lon="-1.02967">
        <ele>48</ele>
        <time>2025-04-26T13:53:58Z</time>
      </trkpt>
      <trkpt lat="45.61674" lon="-1.02969">
        <ele>49</ele>
        <time>2025-04-26T13:53:59Z</time>
      </trkpt>
      <trkpt lat="45.61675" lon="-1.02971">
        <ele>49</ele>
        <time>2025-04-26T13:54:00Z</time>
      </trkpt>
      <trkpt lat="45.61677" lon="-1.02973">
        <ele>51</ele>
        <time>2025-04-26T13:54:01Z</time>
      </trkpt>
      <trkpt lat="45.61679" lon="-1.02975">
        <ele>51</ele>
        <time>2025-04-26T13:54:02Z</time>
      </trkpt>
      <trkpt lat="45.61681" lon="-1.02976">
        <ele>51</ele>
        <time>2025-04-26T13:54:03Z</time>
      </trkpt>
      <trkpt lat="45.61682" lon="-1.02977">
        <ele>51</ele>
        <time>2025-04-26T13:54:04Z</time>
      </trkpt>
      <trkpt lat="45.61683" lon="-1.02979">
        <ele>50</ele>
        <time>2025-04-26T13:54:05Z</time>
      </trkpt>
      <trkpt lat="45.61684" lon="-1.02981">
        <ele>49</ele>
        <time>2025-04-26T13:54:06Z</time>
      </trkpt>
      <trkpt lat="45.61686" lon="-1.02983">
        <ele>48</ele>
        <time>2025-04-26T13:54:07Z</time>
      </trkpt>
      <trkpt lat="45.61688" lon="-1.02986">
        <ele>48</ele>
        <time>2025-04-26T13:54:08Z</time>
      </trkpt>
      <trkpt lat="45.61689" lon="-1.02988">
        <ele>46</ele>
        <time>2025-04-26T13:54:09Z</time>
      </trkpt>
      <trkpt lat="45.6169" lon="-1.0299">
        <ele>46</ele>
        <time>2025-04-26T13:54:10Z</time>
      </trkpt>
      <trkpt lat="45.61691" lon="-1.02993">
        <ele>46</ele>
        <time>2025-04-26T13:54:11Z</time>
      </trkpt>
      <trkpt lat="45.61692" lon="-1.02995">
        <ele>48</ele>
        <time>2025-04-26T13:54:12Z</time>
      </trkpt>
      <trkpt lat="45.61693" lon="-1.02997">
        <ele>47</ele>
        <time>2025-04-26T13:54:13Z</time>
      </trkpt>
      <trkpt lat="45.61693" lon="-1.02999">
        <ele>48</ele>
        <time>2025-04-26T13:54:14Z</time>
      </trkpt>
      <trkpt lat="45.61694" lon="-1.03001">
        <ele>47</ele>
        <time>2025-04-26T13:54:15Z</time>
      </trkpt>
      <trkpt lat="45.61695" lon="-1.03003">
        <ele>47</ele>
        <time>2025-04-26T13:54:16Z</time>
      </trkpt>
      <trkpt lat="45.61695" lon="-1.03005">
        <ele>45</ele>
        <time>2025-04-26T13:54:17Z</time>
      </trkpt>
      <trkpt lat="45.61696" lon="-1.03006">
        <ele>45</ele>
        <time>2025-04-26T13:54:18Z</time>
      </trkpt>
      <trkpt lat="45.61697" lon="-1.03008">
        <ele>46</ele>
        <time>2025-04-26T13:54:19Z</time>
      </trkpt>
      <trkpt lat="45.61697" lon="-1.03009">
        <ele>46</ele>
        <time>2025-04-26T13:54:20Z</time>
      </trkpt>
      <trkpt lat="45.61698" lon="-1.0301">
        <ele>47</ele>
        <time>2025-04-26T13:54:21Z</time>
      </trkpt>
      <trkpt lat="45.61697" lon="-1.0301">
        <ele>48</ele>
        <time>2025-04-26T13:54:22Z</time>
      </trkpt>
      <trkpt lat="45.61698" lon="-1.03011">
        <ele>49</ele>
        <time>2025-04-26T13:54:23Z</time>
      </trkpt>
      <trkpt lat="45.61699" lon="-1.03011">
        <ele>49</ele>
        <time>2025-04-26T13:54:24Z</time>
      </trkpt>
      <trkpt lat="45.617" lon="-1.03013">
        <ele>50</ele>
        <time>2025-04-26T13:54:25Z</time>
      </trkpt>
      <trkpt lat="45.61701" lon="-1.03014">
        <ele>50</ele>
        <time>2025-04-26T13:54:26Z</time>
      </trkpt>
      <trkpt lat="45.61702" lon="-1.03016">
        <ele>50</ele>
        <time>2025-04-26T13:54:27Z</time>
      </trkpt>
      <trkpt lat="45.61702" lon="-1.03017">
        <ele>50</ele>
        <time>2025-04-26T13:54:28Z</time>
      </trkpt>
      <trkpt lat="45.61703" lon="-1.03019">
        <ele>50</ele>
        <time>2025-04-26T13:54:29Z</time>
      </trkpt>
      <trkpt lat="45.61704" lon="-1.0302">
        <ele>49</ele>
        <time>2025-04-26T13:54:30Z</time>
      </trkpt>
      <trkpt lat="45.61704" lon="-1.03021">
        <ele>49</ele>
        <time>2025-04-26T13:54:31Z</time>
      </trkpt>
      <trkpt lat="45.61704" lon="-1.03021">
        <ele>49</ele>
        <time>2025-04-26T13:54:32Z</time>
      </trkpt>
      <trkpt lat="45.61705" lon="-1.03023">
        <ele>49</ele>
        <time>2025-04-26T13:54:33Z</time>
      </trkpt>
      <trkpt lat="45.61705" lon="-1.03023">
        <ele>49</ele>
        <time>2025-04-26T13:54:34Z</time>
      </trkpt>
      <trkpt lat="45.61706" lon="-1.03024">
        <ele>50</ele>
        <time>2025-04-26T13:54:35Z</time>
      </trkpt>
      <trkpt lat="45.61706" lon="-1.03025">
        <ele>50</ele>
        <time>2025-04-26T13:54:36Z</time>
      </trkpt>
      <trkpt lat="45.61707" lon="-1.03026">
        <ele>51</ele>
        <time>2025-04-26T13:54:37Z</time>
      </trkpt>
      <trkpt lat="45.61707" lon="-1.03026">
        <ele>51</ele>
        <time>2025-04-26T13:54:38Z</time>
      </trkpt>
      <trkpt lat="45.61708" lon="-1.03026">
        <ele>51</ele>
        <time>2025-04-26T13:54:39Z</time>
      </trkpt>
      <trkpt lat="45.61708" lon="-1.03027">
        <ele>51</ele>
        <time>2025-04-26T13:54:40Z</time>
      </trkpt>
      <trkpt lat="45.61709" lon="-1.03027">
        <ele>51</ele>
        <time>2025-04-26T13:54:41Z</time>
      </trkpt>
      <trkpt lat="45.6171" lon="-1.03027">
        <ele>50</ele>
        <time>2025-04-26T13:54:42Z</time>
      </trkpt>
      <trkpt lat="45.61711" lon="-1.03028">
        <ele>50</ele>
        <time>2025-04-26T13:54:43Z</time>
      </trkpt>
      <trkpt lat="45.61711" lon="-1.03027">
        <ele>49</ele>
        <time>2025-04-26T13:54:44Z</time>
      </trkpt>
      <trkpt lat="45.61712" lon="-1.03027">
        <ele>49</ele>
        <time>2025-04-26T13:54:45Z</time>
      </trkpt>
      <trkpt lat="45.61712" lon="-1.03027">
        <ele>49</ele>
        <time>2025-04-26T13:54:46Z</time>
      </trkpt>
      <trkpt lat="45.61713" lon="-1.03026">
        <ele>48</ele>
        <time>2025-04-26T13:54:47Z</time>
      </trkpt>
      <trkpt lat="45.61714" lon="-1.03025">
        <ele>48</ele>
        <time>2025-04-26T13:54:48Z</time>
      </trkpt>
      <trkpt lat="45.61714" lon="-1.03025">
        <ele>48</ele>
        <time>2025-04-26T13:54:49Z</time>
      </trkpt>
      <trkpt lat="45.61714" lon="-1.03025">
        <ele>47</ele>
        <time>2025-04-26T13:54:50Z</time>
      </trkpt>
      <trkpt lat="45.61715" lon="-1.03026">
        <ele>47</ele>
        <time>2025-04-26T13:54:51Z</time>
      </trkpt>
      <trkpt lat="45.61715" lon="-1.03025">
        <ele>48</ele>
        <time>2025-04-26T13:54:52Z</time>
      </trkpt>
      <trkpt lat="45.61715" lon="-1.03025">
        <ele>48</ele>
        <time>2025-04-26T13:54:53Z</time>
      </trkpt>
      <trkpt lat="45.61716" lon="-1.03025">
        <ele>48</ele>
        <time>2025-04-26T13:54:54Z</time>
      </trkpt>
      <trkpt lat="45.61716" lon="-1.03025">
        <ele>48</ele>
        <time>2025-04-26T13:54:55Z</time>
      </trkpt>
      <trkpt lat="45.61716" lon="-1.03025">
        <ele>48</ele>
        <time>2025-04-26T13:54:56Z</time>
      </trkpt>
      <trkpt lat="45.61716" lon="-1.03025">
        <ele>48</ele>
        <time>2025-04-26T13:54:57Z</time>
      </trkpt>
      <trkpt lat="45.61716" lon="-1.03025">
        <ele>48</ele>
        <time>2025-04-26T13:54:58Z</time>
      </trkpt>
      <trkpt lat="45.61716" lon="-1.03025">
        <ele>48</ele>
        <time>2025-04-26T13:54:59Z</time>
      </trkpt>
      <trkpt lat="45.61716" lon="-1.03025">
        <ele>48</ele>
        <time>2025-04-26T13:55:00Z</time>
      </trkpt>
      <trkpt lat="45.61716" lon="-1.03025">
        <ele>48</ele>
        <time>2025-04-26T13:55:01Z</time>
      </trkpt>
      <trkpt lat="45.61716" lon="-1.03025">
        <ele>48</ele>
        <time>2025-04-26T13:55:02Z</time>
      </trkpt>
      <trkpt lat="45.61716" lon="-1.03025">
        <ele>48</ele>
        <time>2025-04-26T13:55:03Z</time>
      </trkpt>
      <trkpt lat="45.61716" lon="-1.03025">
        <ele>48</ele>
        <time>2025-04-26T13:55:04Z</time>
      </trkpt>
      <trkpt lat="45.61716" lon="-1.03025">
        <ele>48</ele>
        <time>2025-04-26T13:55:05Z</time>
      </trkpt>
      <trkpt lat="45.61716" lon="-1.03025">
        <ele>48</ele>
        <time>2025-04-26T13:55:06Z</time>
      </trkpt>
      <trkpt lat="45.61716" lon="-1.03025">
        <ele>48</ele>
        <time>2025-04-26T13:55:07Z</time>
      </trkpt>
      <trkpt lat="45.61716" lon="-1.03025">
        <ele>48</ele>
        <time>2025-04-26T13:55:08Z</time>
      </trkpt>
      <trkpt lat="45.61716" lon="-1.03025">
        <ele>48</ele>
        <time>2025-04-26T13:55:09Z</time>
      </trkpt>
      <trkpt lat="45.61716" lon="-1.03025">
        <ele>48</ele>
        <time>2025-04-26T13:55:10Z</time>
      </trkpt>
      <trkpt lat="45.61716" lon="-1.03025">
        <ele>48</ele>
        <time>2025-04-26T13:55:11Z</time>
      </trkpt>
      <trkpt lat="45.61716" lon="-1.03025">
        <ele>48</ele>
        <time>2025-04-26T13:55:12Z</time>
      </trkpt>
      <trkpt lat="45.61716" lon="-1.03025">
        <ele>48</ele>
        <time>2025-04-26T13:55:13Z</time>
      </trkpt>
      <trkpt lat="45.61716" lon="-1.03025">
        <ele>48</ele>
        <time>2025-04-26T13:55:14Z</time>
      </trkpt>
      <trkpt lat="45.61716" lon="-1.03025">
        <ele>48</ele>
        <time>2025-04-26T13:55:15Z</time>
      </trkpt>
      <trkpt lat="45.61716" lon="-1.03025">
        <ele>48</ele>
        <time>2025-04-26T13:55:16Z</time>
      </trkpt>
      <trkpt lat="45.61716" lon="-1.03025">
        <ele>48</ele>
        <time>2025-04-26T13:55:17Z</time>
      </trkpt>
      <trkpt lat="45.61716" lon="-1.03025">
        <ele>48</ele>
        <time>2025-04-26T13:55:18Z</time>
      </trkpt>
      <trkpt lat="45.61716" lon="-1.03025">
        <ele>48</ele>
        <time>2025-04-26T13:55:19Z</time>
      </trkpt>
      <trkpt lat="45.61716" lon="-1.03025">
        <ele>48</ele>
        <time>2025-04-26T13:55:20Z</time>
      </trkpt>
      <trkpt lat="45.61716" lon="-1.03025">
        <ele>48</ele>
        <time>2025-04-26T13:55:21Z</time>
      </trkpt>
      <trkpt lat="45.61716" lon="-1.03025">
        <ele>48</ele>
        <time>2025-04-26T13:55:22Z</time>
      </trkpt>
      <trkpt lat="45.61716" lon="-1.03025">
        <ele>48</ele>
        <time>2025-04-26T13:55:23Z</time>
      </trkpt>
      <trkpt lat="45.61716" lon="-1.03025">
        <ele>48</ele>
        <time>2025-04-26T13:55:24Z</time>
      </trkpt>
      <trkpt lat="45.61716" lon="-1.03025">
        <ele>48</ele>
        <time>2025-04-26T13:55:25Z</time>
      </trkpt>
      <trkpt lat="45.61716" lon="-1.03025">
        <ele>48</ele>
        <time>2025-04-26T13:55:26Z</time>
      </trkpt>
      <trkpt lat="45.61716" lon="-1.03025">
        <ele>48</ele>
        <time>2025-04-26T13:55:27Z</time>
      </trkpt>
      <trkpt lat="45.61716" lon="-1.03025">
        <ele>48</ele>
        <time>2025-04-26T13:55:28Z</time>
      </trkpt>
      <trkpt lat="45.61716" lon="-1.03025">
        <ele>48</ele>
        <time>2025-04-26T13:55:29Z</time>
      </trkpt>
      <trkpt lat="45.61716" lon="-1.03025">
        <ele>48</ele>
        <time>2025-04-26T13:55:30Z</time>
      </trkpt>
      <trkpt lat="45.61716" lon="-1.03025">
        <ele>48</ele>
        <time>2025-04-26T13:55:31Z</time>
      </trkpt>
      <trkpt lat="45.61716" lon="-1.03025">
        <ele>48</ele>
        <time>2025-04-26T13:55:32Z</time>
      </trkpt>
      <trkpt lat="45.61716" lon="-1.03025">
        <ele>48</ele>
        <time>2025-04-26T13:55:33Z</time>
      </trkpt>
      <trkpt lat="45.61716" lon="-1.03025">
        <ele>48</ele>
        <time>2025-04-26T13:55:34Z</time>
      </trkpt>
      <trkpt lat="45.61716" lon="-1.03025">
        <ele>48</ele>
        <time>2025-04-26T13:55:35Z</time>
      </trkpt>
      <trkpt lat="45.61716" lon="-1.03025">
        <ele>48</ele>
        <time>2025-04-26T13:55:36Z</time>
      </trkpt>
      <trkpt lat="45.61722" lon="-1.03029">
        <ele>47</ele>
        <time>2025-04-26T13:55:46Z</time>
      </trkpt>
      <trkpt lat="45.61722" lon="-1.03029">
        <ele>47</ele>
        <time>2025-04-26T13:55:47Z</time>
      </trkpt>
      <trkpt lat="45.61722" lon="-1.03029">
        <ele>47</ele>
        <time>2025-04-26T13:55:48Z</time>
      </trkpt>
      <trkpt lat="45.61722" lon="-1.03029">
        <ele>47</ele>
        <time>2025-04-26T13:55:49Z</time>
      </trkpt>
      <trkpt lat="45.61722" lon="-1.03029">
        <ele>47</ele>
        <time>2025-04-26T13:55:50Z</time>
      </trkpt>
      <trkpt lat="45.61722" lon="-1.03029">
        <ele>47</ele>
        <time>2025-04-26T13:55:51Z</time>
      </trkpt>
      <trkpt lat="45.61722" lon="-1.03029">
        <ele>47</ele>
        <time>2025-04-26T13:55:52Z</time>
      </trkpt>
      <trkpt lat="45.61722" lon="-1.03029">
        <ele>47</ele>
        <time>2025-04-26T13:55:53Z</time>
      </trkpt>
      <trkpt lat="45.61722" lon="-1.03029">
        <ele>47</ele>
        <time>2025-04-26T13:55:54Z</time>
      </trkpt>
      <trkpt lat="45.61722" lon="-1.03029">
        <ele>47</ele>
        <time>2025-04-26T13:55:55Z</time>
      </trkpt>
      <trkpt lat="45.61722" lon="-1.03029">
        <ele>47</ele>
        <time>2025-04-26T13:55:56Z</time>
      </trkpt>
      <trkpt lat="45.61722" lon="-1.03029">
        <ele>47</ele>
        <time>2025-04-26T13:55:57Z</time>
      </trkpt>
      <trkpt lat="45.61722" lon="-1.03029">
        <ele>47</ele>
        <time>2025-04-26T13:55:58Z</time>
      </trkpt>
      <trkpt lat="45.61722" lon="-1.03029">
        <ele>47</ele>
        <time>2025-04-26T13:55:59Z</time>
      </trkpt>
      <trkpt lat="45.61722" lon="-1.03029">
        <ele>47</ele>
        <time>2025-04-26T13:56:00Z</time>
      </trkpt>
      <trkpt lat="45.61722" lon="-1.03029">
        <ele>47</ele>
        <time>2025-04-26T13:56:01Z</time>
      </trkpt>
      <trkpt lat="45.61722" lon="-1.03029">
        <ele>47</ele>
        <time>2025-04-26T13:56:02Z</time>
      </trkpt>
      <trkpt lat="45.61722" lon="-1.03029">
        <ele>47</ele>
        <time>2025-04-26T13:56:03Z</time>
      </trkpt>
      <trkpt lat="45.61722" lon="-1.03029">
        <ele>47</ele>
        <time>2025-04-26T13:56:04Z</time>
      </trkpt>
      <trkpt lat="45.61722" lon="-1.03029">
        <ele>47</ele>
        <time>2025-04-26T13:56:05Z</time>
      </trkpt>
      <trkpt lat="45.61722" lon="-1.03029">
        <ele>47</ele>
        <time>2025-04-26T13:56:06Z</time>
      </trkpt>
      <trkpt lat="45.61722" lon="-1.03029">
        <ele>47</ele>
        <time>2025-04-26T13:56:07Z</time>
      </trkpt>
      <trkpt lat="45.61722" lon="-1.03029">
        <ele>47</ele>
        <time>2025-04-26T13:56:08Z</time>
      </trkpt>
      <trkpt lat="45.61722" lon="-1.03029">
        <ele>47</ele>
        <time>2025-04-26T13:56:09Z</time>
      </trkpt>
      <trkpt lat="45.61722" lon="-1.03029">
        <ele>47</ele>
        <time>2025-04-26T13:56:10Z</time>
      </trkpt>
      <trkpt lat="45.61722" lon="-1.03029">
        <ele>47</ele>
        <time>2025-04-26T13:56:11Z</time>
      </trkpt>
      <trkpt lat="45.61722" lon="-1.03029">
        <ele>47</ele>
        <time>2025-04-26T13:56:12Z</time>
      </trkpt>
      <trkpt lat="45.61722" lon="-1.03029">
        <ele>47</ele>
        <time>2025-04-26T13:56:13Z</time>
      </trkpt>
      <trkpt lat="45.61722" lon="-1.03029">
        <ele>47</ele>
        <time>2025-04-26T13:56:14Z</time>
      </trkpt>
      <trkpt lat="45.61722" lon="-1.03029">
        <ele>47</ele>
        <time>2025-04-26T13:56:15Z</time>
      </trkpt>
      <trkpt lat="45.61722" lon="-1.03029">
        <ele>47</ele>
        <time>2025-04-26T13:56:16Z</time>
      </trkpt>
      <trkpt lat="45.61722" lon="-1.03029">
        <ele>47</ele>
        <time>2025-04-26T13:56:17Z</time>
      </trkpt>
      <trkpt lat="45.61722" lon="-1.03029">
        <ele>47</ele>
        <time>2025-04-26T13:56:18Z</time>
      </trkpt>
      <trkpt lat="45.61722" lon="-1.03029">
        <ele>47</ele>
        <time>2025-04-26T13:56:19Z</time>
      </trkpt>
      <trkpt lat="45.61722" lon="-1.03029">
        <ele>47</ele>
        <time>2025-04-26T13:56:20Z</time>
      </trkpt>
      <trkpt lat="45.61722" lon="-1.03029">
        <ele>47</ele>
        <time>2025-04-26T13:56:21Z</time>
      </trkpt>
      <trkpt lat="45.61722" lon="-1.03029">
        <ele>47</ele>
        <time>2025-04-26T13:56:22Z</time>
      </trkpt>
      <trkpt lat="45.61722" lon="-1.03029">
        <ele>47</ele>
        <time>2025-04-26T13:56:23Z</time>
      </trkpt>
      <trkpt lat="45.61722" lon="-1.03029">
        <ele>47</ele>
        <time>2025-04-26T13:56:24Z</time>
      </trkpt>
      <trkpt lat="45.61722" lon="-1.03029">
        <ele>47</ele>
        <time>2025-04-26T13:56:25Z</time>
      </trkpt>
      <trkpt lat="45.61722" lon="-1.03029">
        <ele>47</ele>
        <time>2025-04-26T13:56:26Z</time>
      </trkpt>
      <trkpt lat="45.61722" lon="-1.03029">
        <ele>47</ele>
        <time>2025-04-26T13:56:27Z</time>
      </trkpt>
      <trkpt lat="45.61722" lon="-1.03029">
        <ele>47</ele>
        <time>2025-04-26T13:56:28Z</time>
      </trkpt>
      <trkpt lat="45.61722" lon="-1.03029">
        <ele>47</ele>
        <time>2025-04-26T13:56:29Z</time>
      </trkpt>
      <trkpt lat="45.61722" lon="-1.03029">
        <ele>47</ele>
        <time>2025-04-26T13:56:30Z</time>
      </trkpt>
      <trkpt lat="45.61722" lon="-1.03029">
        <ele>47</ele>
        <time>2025-04-26T13:56:31Z</time>
      </trkpt>
      <trkpt lat="45.61722" lon="-1.03029">
        <ele>47</ele>
        <time>2025-04-26T13:56:32Z</time>
      </trkpt>
      <trkpt lat="45.61722" lon="-1.03029">
        <ele>47</ele>
        <time>2025-04-26T13:56:33Z</time>
      </trkpt>
      <trkpt lat="45.61722" lon="-1.03029">
        <ele>47</ele>
        <time>2025-04-26T13:56:34Z</time>
      </trkpt>
      <trkpt lat="45.61722" lon="-1.03029">
        <ele>47</ele>
        <time>2025-04-26T13:56:35Z</time>
      </trkpt>
      <trkpt lat="45.61722" lon="-1.03029">
        <ele>47</ele>
        <time>2025-04-26T13:56:36Z</time>
      </trkpt>
      <trkpt lat="45.61722" lon="-1.03029">
        <ele>47</ele>
        <time>2025-04-26T13:56:37Z</time>
      </trkpt>
      <trkpt lat="45.61722" lon="-1.03029">
        <ele>47</ele>
        <time>2025-04-26T13:56:38Z</time>
      </trkpt>
      <trkpt lat="45.61722" lon="-1.03029">
        <ele>47</ele>
        <time>2025-04-26T13:56:39Z</time>
      </trkpt>
      <trkpt lat="45.61722" lon="-1.03029">
        <ele>47</ele>
        <time>2025-04-26T13:56:40Z</time>
      </trkpt>
      <trkpt lat="45.61722" lon="-1.03029">
        <ele>47</ele>
        <time>2025-04-26T13:56:41Z</time>
      </trkpt>
      <trkpt lat="45.61722" lon="-1.03029">
        <ele>47</ele>
        <time>2025-04-26T13:56:42Z</time>
      </trkpt>
      <trkpt lat="45.61722" lon="-1.03029">
        <ele>47</ele>
        <time>2025-04-26T13:56:43Z</time>
      </trkpt>
      <trkpt lat="45.61722" lon="-1.03029">
        <ele>47</ele>
        <time>2025-04-26T13:56:44Z</time>
      </trkpt>
      <trkpt lat="45.61722" lon="-1.03029">
        <ele>47</ele>
        <time>2025-04-26T13:56:45Z</time>
      </trkpt>
      <trkpt lat="45.61722" lon="-1.03029">
        <ele>47</ele>
        <time>2025-04-26T13:56:46Z</time>
      </trkpt>
      <trkpt lat="45.61722" lon="-1.03029">
        <ele>47</ele>
        <time>2025-04-26T13:56:47Z</time>
      </trkpt>
      <trkpt lat="45.61722" lon="-1.03029">
        <ele>47</ele>
        <time>2025-04-26T13:56:48Z</time>
      </trkpt>
      <trkpt lat="45.61722" lon="-1.03029">
        <ele>47</ele>
        <time>2025-04-26T13:56:49Z</time>
      </trkpt>
      <trkpt lat="45.61722" lon="-1.03029">
        <ele>47</ele>
        <time>2025-04-26T13:56:50Z</time>
      </trkpt>
      <trkpt lat="45.61722" lon="-1.03029">
        <ele>47</ele>
        <time>2025-04-26T13:56:51Z</time>
      </trkpt>
      <trkpt lat="45.61722" lon="-1.03029">
        <ele>47</ele>
        <time>2025-04-26T13:56:52Z</time>
      </trkpt>
      <trkpt lat="45.61722" lon="-1.03029">
        <ele>47</ele>
        <time>2025-04-26T13:56:53Z</time>
      </trkpt>
      <trkpt lat="45.61722" lon="-1.03029">
        <ele>47</ele>
        <time>2025-04-26T13:56:54Z</time>
      </trkpt>
      <trkpt lat="45.61722" lon="-1.03029">
        <ele>47</ele>
        <time>2025-04-26T13:56:55Z</time>
      </trkpt>
      <trkpt lat="45.61722" lon="-1.03029">
        <ele>47</ele>
        <time>2025-04-26T13:56:56Z</time>
      </trkpt>
      <trkpt lat="45.61722" lon="-1.03029">
        <ele>47</ele>
        <time>2025-04-26T13:56:57Z</time>
      </trkpt>
      <trkpt lat="45.61722" lon="-1.03029">
        <ele>47</ele>
        <time>2025-04-26T13:56:58Z</time>
      </trkpt>
      <trkpt lat="45.61722" lon="-1.03029">
        <ele>47</ele>
        <time>2025-04-26T13:56:59Z</time>
      </trkpt>
      <trkpt lat="45.61725" lon="-1.0303">
        <ele>41</ele>
        <time>2025-04-26T13:57:00Z</time>
      </trkpt>
      <trkpt lat="45.61726" lon="-1.0303">
        <ele>42</ele>
        <time>2025-04-26T13:57:01Z</time>
      </trkpt>
      <trkpt lat="45.61727" lon="-1.03031">
        <ele>43</ele>
        <time>2025-04-26T13:57:02Z</time>
      </trkpt>
      <trkpt lat="45.61728" lon="-1.03032">
        <ele>45</ele>
        <time>2025-04-26T13:57:03Z</time>
      </trkpt>
      <trkpt lat="45.61729" lon="-1.03033">
        <ele>47</ele>
        <time>2025-04-26T13:57:04Z</time>
      </trkpt>
      <trkpt lat="45.61729" lon="-1.03034">
        <ele>50</ele>
        <time>2025-04-26T13:57:05Z</time>
      </trkpt>
      <trkpt lat="45.6173" lon="-1.03036">
        <ele>53</ele>
        <time>2025-04-26T13:57:06Z</time>
      </trkpt>
      <trkpt lat="45.6173" lon="-1.03037">
        <ele>55</ele>
        <time>2025-04-26T13:57:07Z</time>
      </trkpt>
      <trkpt lat="45.61731" lon="-1.03038">
        <ele>57</ele>
        <time>2025-04-26T13:57:08Z</time>
      </trkpt>
      <trkpt lat="45.61732" lon="-1.03039">
        <ele>58</ele>
        <time>2025-04-26T13:57:09Z</time>
      </trkpt>
      <trkpt lat="45.61733" lon="-1.03041">
        <ele>58</ele>
        <time>2025-04-26T13:57:10Z</time>
      </trkpt>
      <trkpt lat="45.61734" lon="-1.03044">
        <ele>59</ele>
        <time>2025-04-26T13:57:11Z</time>
      </trkpt>
      <trkpt lat="45.61736" lon="-1.03047">
        <ele>59</ele>
        <time>2025-04-26T13:57:12Z</time>
      </trkpt>
      <trkpt lat="45.61737" lon="-1.0305">
        <ele>59</ele>
        <time>2025-04-26T13:57:13Z</time>
      </trkpt>
      <trkpt lat="45.61738" lon="-1.03053">
        <ele>58</ele>
        <time>2025-04-26T13:57:14Z</time>
      </trkpt>
      <trkpt lat="45.6174" lon="-1.03057">
        <ele>59</ele>
        <time>2025-04-26T13:57:15Z</time>
      </trkpt>
      <trkpt lat="45.61751" lon="-1.03082">
        <ele>60</ele>
        <time>2025-04-26T13:57:23Z</time>
      </trkpt>
      <trkpt lat="45.61753" lon="-1.03087">
        <ele>61</ele>
        <time>2025-04-26T13:57:24Z</time>
      </trkpt>
      <trkpt lat="45.61756" lon="-1.03092">
        <ele>62</ele>
        <time>2025-04-26T13:57:25Z</time>
      </trkpt>
      <trkpt lat="45.61757" lon="-1.03097">
        <ele>62</ele>
        <time>2025-04-26T13:57:26Z</time>
      </trkpt>
      <trkpt lat="45.61759" lon="-1.03101">
        <ele>63</ele>
        <time>2025-04-26T13:57:27Z</time>
      </trkpt>
      <trkpt lat="45.6176" lon="-1.03105">
        <ele>63</ele>
        <time>2025-04-26T13:57:28Z</time>
      </trkpt>
      <trkpt lat="45.61762" lon="-1.03109">
        <ele>64</ele>
        <time>2025-04-26T13:57:29Z</time>
      </trkpt>
      <trkpt lat="45.61764" lon="-1.03112">
        <ele>64</ele>
        <time>2025-04-26T13:57:30Z</time>
      </trkpt>
      <trkpt lat="45.61765" lon="-1.03116">
        <ele>64</ele>
        <time>2025-04-26T13:57:31Z</time>
      </trkpt>
      <trkpt lat="45.61765" lon="-1.0312">
        <ele>64</ele>
        <time>2025-04-26T13:57:32Z</time>
      </trkpt>
      <trkpt lat="45.61763" lon="-1.03123">
        <ele>62</ele>
        <time>2025-04-26T13:57:33Z</time>
      </trkpt>
      <trkpt lat="45.61762" lon="-1.03125">
        <ele>62</ele>
        <time>2025-04-26T13:57:34Z</time>
      </trkpt>
      <trkpt lat="45.61761" lon="-1.03128">
        <ele>61</ele>
        <time>2025-04-26T13:57:35Z</time>
      </trkpt>
      <trkpt lat="45.6176" lon="-1.03131">
        <ele>60</ele>
        <time>2025-04-26T13:57:36Z</time>
      </trkpt>
      <trkpt lat="45.61759" lon="-1.03134">
        <ele>59</ele>
        <time>2025-04-26T13:57:37Z</time>
      </trkpt>
      <trkpt lat="45.61758" lon="-1.03136">
        <ele>59</ele>
        <time>2025-04-26T13:57:38Z</time>
      </trkpt>
      <trkpt lat="45.61757" lon="-1.03139">
        <ele>59</ele>
        <time>2025-04-26T13:57:39Z</time>
      </trkpt>
      <trkpt lat="45.61756" lon="-1.03141">
        <ele>59</ele>
        <time>2025-04-26T13:57:40Z</time>
      </trkpt>
      <trkpt lat="45.61756" lon="-1.03144">
        <ele>60</ele>
        <time>2025-04-26T13:57:41Z</time>
      </trkpt>
      <trkpt lat="45.61757" lon="-1.03146">
        <ele>60</ele>
        <time>2025-04-26T13:57:42Z</time>
      </trkpt>
      <trkpt lat="45.61758" lon="-1.03148">
        <ele>61</ele>
        <time>2025-04-26T13:57:43Z</time>
      </trkpt>
      <trkpt lat="45.61758" lon="-1.03149">
        <ele>61</ele>
        <time>2025-04-26T13:57:44Z</time>
      </trkpt>
      <trkpt lat="45.61759" lon="-1.03151">
        <ele>61</ele>
        <time>2025-04-26T13:57:45Z</time>
      </trkpt>
      <trkpt lat="45.6176" lon="-1.03154">
        <ele>61</ele>
        <time>2025-04-26T13:57:46Z</time>
      </trkpt>
      <trkpt lat="45.61761" lon="-1.03156">
        <ele>61</ele>
        <time>2025-04-26T13:57:47Z</time>
      </trkpt>
      <trkpt lat="45.61763" lon="-1.03159">
        <ele>60</ele>
        <time>2025-04-26T13:57:48Z</time>
      </trkpt>
      <trkpt lat="45.61763" lon="-1.03162">
        <ele>61</ele>
        <time>2025-04-26T13:57:49Z</time>
      </trkpt>
      <trkpt lat="45.61764" lon="-1.03165">
        <ele>61</ele>
        <time>2025-04-26T13:57:50Z</time>
      </trkpt>
      <trkpt lat="45.61765" lon="-1.03168">
        <ele>60</ele>
        <time>2025-04-26T13:57:51Z</time>
      </trkpt>
      <trkpt lat="45.61766" lon="-1.03171">
        <ele>60</ele>
        <time>2025-04-26T13:57:52Z</time>
      </trkpt>
      <trkpt lat="45.61767" lon="-1.03175">
        <ele>60</ele>
        <time>2025-04-26T13:57:53Z</time>
      </trkpt>
      <trkpt lat="45.61768" lon="-1.03177">
        <ele>60</ele>
        <time>2025-04-26T13:57:54Z</time>
      </trkpt>
      <trkpt lat="45.61769" lon="-1.03181">
        <ele>60</ele>
        <time>2025-04-26T13:57:55Z</time>
      </trkpt>
      <trkpt lat="45.6177" lon="-1.03184">
        <ele>60</ele>
        <time>2025-04-26T13:57:56Z</time>
      </trkpt>
      <trkpt lat="45.61771" lon="-1.03187">
        <ele>59</ele>
        <time>2025-04-26T13:57:57Z</time>
      </trkpt>
      <trkpt lat="45.61773" lon="-1.0319">
        <ele>59</ele>
        <time>2025-04-26T13:57:58Z</time>
      </trkpt>
      <trkpt lat="45.61774" lon="-1.03192">
        <ele>59</ele>
        <time>2025-04-26T13:57:59Z</time>
      </trkpt>
      <trkpt lat="45.61777" lon="-1.03193">
        <ele>60</ele>
        <time>2025-04-26T13:58:00Z</time>
      </trkpt>
      <trkpt lat="45.61779" lon="-1.03192">
        <ele>60</ele>
        <time>2025-04-26T13:58:01Z</time>
      </trkpt>
      <trkpt lat="45.61782" lon="-1.0319">
        <ele>60</ele>
        <time>2025-04-26T13:58:02Z</time>
      </trkpt>
      <trkpt lat="45.61784" lon="-1.03189">
        <ele>59</ele>
        <time>2025-04-26T13:58:03Z</time>
      </trkpt>
      <trkpt lat="45.61785" lon="-1.03187">
        <ele>59</ele>
        <time>2025-04-26T13:58:04Z</time>
      </trkpt>
      <trkpt lat="45.61786" lon="-1.03186">
        <ele>59</ele>
        <time>2025-04-26T13:58:05Z</time>
      </trkpt>
      <trkpt lat="45.61787" lon="-1.03185">
        <ele>58</ele>
        <time>2025-04-26T13:58:06Z</time>
      </trkpt>
      <trkpt lat="45.61787" lon="-1.03184">
        <ele>58</ele>
        <time>2025-04-26T13:58:07Z</time>
      </trkpt>
      <trkpt lat="45.61789" lon="-1.03183">
        <ele>58</ele>
        <time>2025-04-26T13:58:08Z</time>
      </trkpt>
      <trkpt lat="45.6179" lon="-1.03182">
        <ele>58</ele>
        <time>2025-04-26T13:58:09Z</time>
      </trkpt>
      <trkpt lat="45.61791" lon="-1.0318">
        <ele>58</ele>
        <time>2025-04-26T13:58:10Z</time>
      </trkpt>
      <trkpt lat="45.61793" lon="-1.03178">
        <ele>57</ele>
        <time>2025-04-26T13:58:11Z</time>
      </trkpt>
      <trkpt lat="45.61795" lon="-1.03176">
        <ele>57</ele>
        <time>2025-04-26T13:58:12Z</time>
      </trkpt>
      <trkpt lat="45.61797" lon="-1.03175">
        <ele>56</ele>
        <time>2025-04-26T13:58:13Z</time>
      </trkpt>
      <trkpt lat="45.61798" lon="-1.03174">
        <ele>56</ele>
        <time>2025-04-26T13:58:14Z</time>
      </trkpt>
      <trkpt lat="45.618" lon="-1.03173">
        <ele>56</ele>
        <time>2025-04-26T13:58:15Z</time>
      </trkpt>
      <trkpt lat="45.61801" lon="-1.03172">
        <ele>56</ele>
        <time>2025-04-26T13:58:16Z</time>
      </trkpt>
      <trkpt lat="45.61802" lon="-1.03171">
        <ele>57</ele>
        <time>2025-04-26T13:58:17Z</time>
      </trkpt>
      <trkpt lat="45.61804" lon="-1.0317">
        <ele>57</ele>
        <time>2025-04-26T13:58:18Z</time>
      </trkpt>
      <trkpt lat="45.61805" lon="-1.03168">
        <ele>58</ele>
        <time>2025-04-26T13:58:19Z</time>
      </trkpt>
      <trkpt lat="45.61806" lon="-1.03167">
        <ele>58</ele>
        <time>2025-04-26T13:58:20Z</time>
      </trkpt>
      <trkpt lat="45.61807" lon="-1.03166">
        <ele>58</ele>
        <time>2025-04-26T13:58:21Z</time>
      </trkpt>
      <trkpt lat="45.61807" lon="-1.03164">
        <ele>59</ele>
        <time>2025-04-26T13:58:22Z</time>
      </trkpt>
      <trkpt lat="45.61808" lon="-1.03162">
        <ele>59</ele>
        <time>2025-04-26T13:58:23Z</time>
      </trkpt>
      <trkpt lat="45.61808" lon="-1.03159">
        <ele>60</ele>
        <time>2025-04-26T13:58:24Z</time>
      </trkpt>
      <trkpt lat="45.61807" lon="-1.03155">
        <ele>60</ele>
        <time>2025-04-26T13:58:25Z</time>
      </trkpt>
      <trkpt lat="45.61806" lon="-1.03151">
        <ele>61</ele>
        <time>2025-04-26T13:58:26Z</time>
      </trkpt>
      <trkpt lat="45.61805" lon="-1.03147">
        <ele>60</ele>
        <time>2025-04-26T13:58:27Z</time>
      </trkpt>
      <trkpt lat="45.61804" lon="-1.03142">
        <ele>60</ele>
        <time>2025-04-26T13:58:28Z</time>
      </trkpt>
      <trkpt lat="45.61805" lon="-1.03138">
        <ele>60</ele>
        <time>2025-04-26T13:58:29Z</time>
      </trkpt>
      <trkpt lat="45.61805" lon="-1.03135">
        <ele>60</ele>
        <time>2025-04-26T13:58:30Z</time>
      </trkpt>
      <trkpt lat="45.61806" lon="-1.03132">
        <ele>61</ele>
        <time>2025-04-26T13:58:31Z</time>
      </trkpt>
      <trkpt lat="45.61808" lon="-1.03128">
        <ele>59</ele>
        <time>2025-04-26T13:58:32Z</time>
      </trkpt>
      <trkpt lat="45.6181" lon="-1.03124">
        <ele>58</ele>
        <time>2025-04-26T13:58:33Z</time>
      </trkpt>
      <trkpt lat="45.61812" lon="-1.0312">
        <ele>58</ele>
        <time>2025-04-26T13:58:34Z</time>
      </trkpt>
      <trkpt lat="45.61814" lon="-1.03118">
        <ele>58</ele>
        <time>2025-04-26T13:58:35Z</time>
      </trkpt>
      <trkpt lat="45.61817" lon="-1.03115">
        <ele>58</ele>
        <time>2025-04-26T13:58:36Z</time>
      </trkpt>
      <trkpt lat="45.6182" lon="-1.03112">
        <ele>57</ele>
        <time>2025-04-26T13:58:37Z</time>
      </trkpt>
      <trkpt lat="45.61822" lon="-1.03109">
        <ele>58</ele>
        <time>2025-04-26T13:58:38Z</time>
      </trkpt>
      <trkpt lat="45.61825" lon="-1.03107">
        <ele>57</ele>
        <time>2025-04-26T13:58:39Z</time>
      </trkpt>
      <trkpt lat="45.61828" lon="-1.03106">
        <ele>57</ele>
        <time>2025-04-26T13:58:40Z</time>
      </trkpt>
      <trkpt lat="45.61831" lon="-1.03103">
        <ele>57</ele>
        <time>2025-04-26T13:58:41Z</time>
      </trkpt>
      <trkpt lat="45.61834" lon="-1.031">
        <ele>57</ele>
        <time>2025-04-26T13:58:42Z</time>
      </trkpt>
      <trkpt lat="45.61838" lon="-1.03097">
        <ele>56</ele>
        <time>2025-04-26T13:58:43Z</time>
      </trkpt>
      <trkpt lat="45.61841" lon="-1.03093">
        <ele>56</ele>
        <time>2025-04-26T13:58:44Z</time>
      </trkpt>
      <trkpt lat="45.61845" lon="-1.0309">
        <ele>55</ele>
        <time>2025-04-26T13:58:45Z</time>
      </trkpt>
      <trkpt lat="45.61849" lon="-1.03087">
        <ele>56</ele>
        <time>2025-04-26T13:58:46Z</time>
      </trkpt>
      <trkpt lat="45.61853" lon="-1.03083">
        <ele>55</ele>
        <time>2025-04-26T13:58:47Z</time>
      </trkpt>
      <trkpt lat="45.61858" lon="-1.03081">
        <ele>54</ele>
        <time>2025-04-26T13:58:48Z</time>
      </trkpt>
      <trkpt lat="45.61861" lon="-1.03078">
        <ele>53</ele>
        <time>2025-04-26T13:58:49Z</time>
      </trkpt>
      <trkpt lat="45.61864" lon="-1.03075">
        <ele>53</ele>
        <time>2025-04-26T13:58:50Z</time>
      </trkpt>
      <trkpt lat="45.61867" lon="-1.03073">
        <ele>54</ele>
        <time>2025-04-26T13:58:51Z</time>
      </trkpt>
      <trkpt lat="45.6187" lon="-1.03071">
        <ele>54</ele>
        <time>2025-04-26T13:58:52Z</time>
      </trkpt>
      <trkpt lat="45.61872" lon="-1.03069">
        <ele>55</ele>
        <time>2025-04-26T13:58:53Z</time>
      </trkpt>
      <trkpt lat="45.61875" lon="-1.03068">
        <ele>55</ele>
        <time>2025-04-26T13:58:54Z</time>
      </trkpt>
      <trkpt lat="45.61877" lon="-1.03066">
        <ele>55</ele>
        <time>2025-04-26T13:58:55Z</time>
      </trkpt>
      <trkpt lat="45.61879" lon="-1.03065">
        <ele>56</ele>
        <time>2025-04-26T13:58:56Z</time>
      </trkpt>
      <trkpt lat="45.61881" lon="-1.03063">
        <ele>56</ele>
        <time>2025-04-26T13:58:57Z</time>
      </trkpt>
      <trkpt lat="45.61883" lon="-1.03062">
        <ele>56</ele>
        <time>2025-04-26T13:58:58Z</time>
      </trkpt>
      <trkpt lat="45.61885" lon="-1.0306">
        <ele>56</ele>
        <time>2025-04-26T13:58:59Z</time>
      </trkpt>
      <trkpt lat="45.61887" lon="-1.03059">
        <ele>56</ele>
        <time>2025-04-26T13:59:00Z</time>
      </trkpt>
      <trkpt lat="45.61889" lon="-1.03058">
        <ele>56</ele>
        <time>2025-04-26T13:59:01Z</time>
      </trkpt>
      <trkpt lat="45.61891" lon="-1.03057">
        <ele>56</ele>
        <time>2025-04-26T13:59:02Z</time>
      </trkpt>
      <trkpt lat="45.61893" lon="-1.03056">
        <ele>55</ele>
        <time>2025-04-26T13:59:03Z</time>
      </trkpt>
      <trkpt lat="45.61895" lon="-1.03056">
        <ele>55</ele>
        <time>2025-04-26T13:59:04Z</time>
      </trkpt>
      <trkpt lat="45.61897" lon="-1.03055">
        <ele>55</ele>
        <time>2025-04-26T13:59:05Z</time>
      </trkpt>
      <trkpt lat="45.619" lon="-1.03055">
        <ele>56</ele>
        <time>2025-04-26T13:59:06Z</time>
      </trkpt>
      <trkpt lat="45.61902" lon="-1.03056">
        <ele>56</ele>
        <time>2025-04-26T13:59:07Z</time>
      </trkpt>
      <trkpt lat="45.61904" lon="-1.03057">
        <ele>57</ele>
        <time>2025-04-26T13:59:08Z</time>
      </trkpt>
      <trkpt lat="45.61906" lon="-1.03058">
        <ele>57</ele>
        <time>2025-04-26T13:59:09Z</time>
      </trkpt>
      <trkpt lat="45.61908" lon="-1.0306">
        <ele>58</ele>
        <time>2025-04-26T13:59:10Z</time>
      </trkpt>
      <trkpt lat="45.6191" lon="-1.03062">
        <ele>58</ele>
        <time>2025-04-26T13:59:11Z</time>
      </trkpt>
      <trkpt lat="45.61912" lon="-1.03064">
        <ele>58</ele>
        <time>2025-04-26T13:59:12Z</time>
      </trkpt>
      <trkpt lat="45.61914" lon="-1.03066">
        <ele>58</ele>
        <time>2025-04-26T13:59:13Z</time>
      </trkpt>
      <trkpt lat="45.61916" lon="-1.03068">
        <ele>58</ele>
        <time>2025-04-26T13:59:14Z</time>
      </trkpt>
      <trkpt lat="45.61918" lon="-1.0307">
        <ele>59</ele>
        <time>2025-04-26T13:59:15Z</time>
      </trkpt>
      <trkpt lat="45.61919" lon="-1.03072">
        <ele>59</ele>
        <time>2025-04-26T13:59:16Z</time>
      </trkpt>
      <trkpt lat="45.61921" lon="-1.03074">
        <ele>59</ele>
        <time>2025-04-26T13:59:17Z</time>
      </trkpt>
      <trkpt lat="45.61923" lon="-1.03076">
        <ele>59</ele>
        <time>2025-04-26T13:59:18Z</time>
      </trkpt>
      <trkpt lat="45.61924" lon="-1.03078">
        <ele>59</ele>
        <time>2025-04-26T13:59:19Z</time>
      </trkpt>
      <trkpt lat="45.61926" lon="-1.0308">
        <ele>59</ele>
        <time>2025-04-26T13:59:20Z</time>
      </trkpt>
      <trkpt lat="45.61928" lon="-1.03082">
        <ele>59</ele>
        <time>2025-04-26T13:59:21Z</time>
      </trkpt>
      <trkpt lat="45.6193" lon="-1.03084">
        <ele>59</ele>
        <time>2025-04-26T13:59:22Z</time>
      </trkpt>
      <trkpt lat="45.61931" lon="-1.03086">
        <ele>59</ele>
        <time>2025-04-26T13:59:23Z</time>
      </trkpt>
      <trkpt lat="45.61933" lon="-1.03088">
        <ele>59</ele>
        <time>2025-04-26T13:59:24Z</time>
      </trkpt>
      <trkpt lat="45.61935" lon="-1.0309">
        <ele>58</ele>
        <time>2025-04-26T13:59:25Z</time>
      </trkpt>
      <trkpt lat="45.61937" lon="-1.03092">
        <ele>58</ele>
        <time>2025-04-26T13:59:26Z</time>
      </trkpt>
      <trkpt lat="45.61938" lon="-1.03094">
        <ele>58</ele>
        <time>2025-04-26T13:59:27Z</time>
      </trkpt>
      <trkpt lat="45.6194" lon="-1.03096">
        <ele>58</ele>
        <time>2025-04-26T13:59:28Z</time>
      </trkpt>
      <trkpt lat="45.61941" lon="-1.03098">
        <ele>59</ele>
        <time>2025-04-26T13:59:29Z</time>
      </trkpt>
      <trkpt lat="45.61943" lon="-1.031">
        <ele>59</ele>
        <time>2025-04-26T13:59:30Z</time>
      </trkpt>
      <trkpt lat="45.61945" lon="-1.03102">
        <ele>59</ele>
        <time>2025-04-26T13:59:31Z</time>
      </trkpt>
      <trkpt lat="45.61946" lon="-1.03104">
        <ele>60</ele>
        <time>2025-04-26T13:59:32Z</time>
      </trkpt>
      <trkpt lat="45.61947" lon="-1.03107">
        <ele>60</ele>
        <time>2025-04-26T13:59:33Z</time>
      </trkpt>
      <trkpt lat="45.61947" lon="-1.0311">
        <ele>60</ele>
        <time>2025-04-26T13:59:34Z</time>
      </trkpt>
      <trkpt lat="45.61949" lon="-1.03112">
        <ele>61</ele>
        <time>2025-04-26T13:59:35Z</time>
      </trkpt>
      <trkpt lat="45.61951" lon="-1.03114">
        <ele>61</ele>
        <time>2025-04-26T13:59:36Z</time>
      </trkpt>
      <trkpt lat="45.61953" lon="-1.03117">
        <ele>61</ele>
        <time>2025-04-26T13:59:37Z</time>
      </trkpt>
      <trkpt lat="45.61955" lon="-1.03118">
        <ele>61</ele>
        <time>2025-04-26T13:59:38Z</time>
      </trkpt>
      <trkpt lat="45.61957" lon="-1.0312">
        <ele>61</ele>
        <time>2025-04-26T13:59:39Z</time>
      </trkpt>
      <trkpt lat="45.61958" lon="-1.03122">
        <ele>61</ele>
        <time>2025-04-26T13:59:40Z</time>
      </trkpt>
      <trkpt lat="45.61959" lon="-1.03124">
        <ele>61</ele>
        <time>2025-04-26T13:59:41Z</time>
      </trkpt>
      <trkpt lat="45.61959" lon="-1.03126">
        <ele>61</ele>
        <time>2025-04-26T13:59:42Z</time>
      </trkpt>
      <trkpt lat="45.6196" lon="-1.03128">
        <ele>62</ele>
        <time>2025-04-26T13:59:43Z</time>
      </trkpt>
      <trkpt lat="45.6196" lon="-1.0313">
        <ele>62</ele>
        <time>2025-04-26T13:59:44Z</time>
      </trkpt>
      <trkpt lat="45.61961" lon="-1.03132">
        <ele>62</ele>
        <time>2025-04-26T13:59:45Z</time>
      </trkpt>
      <trkpt lat="45.61961" lon="-1.03134">
        <ele>62</ele>
        <time>2025-04-26T13:59:46Z</time>
      </trkpt>
      <trkpt lat="45.61962" lon="-1.03136">
        <ele>62</ele>
        <time>2025-04-26T13:59:47Z</time>
      </trkpt>
      <trkpt lat="45.61963" lon="-1.03137">
        <ele>62</ele>
        <time>2025-04-26T13:59:48Z</time>
      </trkpt>
      <trkpt lat="45.61964" lon="-1.03139">
        <ele>62</ele>
        <time>2025-04-26T13:59:49Z</time>
      </trkpt>
      <trkpt lat="45.61965" lon="-1.03141">
        <ele>62</ele>
        <time>2025-04-26T13:59:50Z</time>
      </trkpt>
      <trkpt lat="45.61966" lon="-1.03143">
        <ele>62</ele>
        <time>2025-04-26T13:59:51Z</time>
      </trkpt>
      <trkpt lat="45.61967" lon="-1.03144">
        <ele>62</ele>
        <time>2025-04-26T13:59:52Z</time>
      </trkpt>
      <trkpt lat="45.61968" lon="-1.03146">
        <ele>62</ele>
        <time>2025-04-26T13:59:53Z</time>
      </trkpt>
      <trkpt lat="45.61969" lon="-1.03147">
        <ele>62</ele>
        <time>2025-04-26T13:59:54Z</time>
      </trkpt>
      <trkpt lat="45.6197" lon="-1.03148">
        <ele>62</ele>
        <time>2025-04-26T13:59:55Z</time>
      </trkpt>
      <trkpt lat="45.61971" lon="-1.03148">
        <ele>62</ele>
        <time>2025-04-26T13:59:56Z</time>
      </trkpt>
      <trkpt lat="45.61972" lon="-1.0315">
        <ele>62</ele>
        <time>2025-04-26T13:59:57Z</time>
      </trkpt>
      <trkpt lat="45.61972" lon="-1.03151">
        <ele>62</ele>
        <time>2025-04-26T13:59:58Z</time>
      </trkpt>
      <trkpt lat="45.61972" lon="-1.03151">
        <ele>62</ele>
        <time>2025-04-26T13:59:59Z</time>
      </trkpt>
      <trkpt lat="45.61972" lon="-1.03152">
        <ele>62</ele>
        <time>2025-04-26T14:00:00Z</time>
      </trkpt>
      <trkpt lat="45.61972" lon="-1.03153">
        <ele>62</ele>
        <time>2025-04-26T14:00:01Z</time>
      </trkpt>
      <trkpt lat="45.61972" lon="-1.03153">
        <ele>62</ele>
        <time>2025-04-26T14:00:02Z</time>
      </trkpt>
      <trkpt lat="45.61973" lon="-1.03153">
        <ele>62</ele>
        <time>2025-04-26T14:00:03Z</time>
      </trkpt>
      <trkpt lat="45.61973" lon="-1.03153">
        <ele>62</ele>
        <time>2025-04-26T14:00:04Z</time>
      </trkpt>
      <trkpt lat="45.61973" lon="-1.03153">
        <ele>62</ele>
        <time>2025-04-26T14:00:05Z</time>
      </trkpt>
      <trkpt lat="45.61973" lon="-1.03153">
        <ele>63</ele>
        <time>2025-04-26T14:00:06Z</time>
      </trkpt>
      <trkpt lat="45.61973" lon="-1.03153">
        <ele>63</ele>
        <time>2025-04-26T14:00:07Z</time>
      </trkpt>
      <trkpt lat="45.61973" lon="-1.03153">
        <ele>63</ele>
        <time>2025-04-26T14:00:08Z</time>
      </trkpt>
      <trkpt lat="45.61973" lon="-1.03155">
        <ele>63</ele>
        <time>2025-04-26T14:00:09Z</time>
      </trkpt>
      <trkpt lat="45.61971" lon="-1.03158">
        <ele>63</ele>
        <time>2025-04-26T14:00:10Z</time>
      </trkpt>
      <trkpt lat="45.6197" lon="-1.03162">
        <ele>63</ele>
        <time>2025-04-26T14:00:11Z</time>
      </trkpt>
      <trkpt lat="45.61969" lon="-1.03165">
        <ele>63</ele>
        <time>2025-04-26T14:00:12Z</time>
      </trkpt>
      <trkpt lat="45.61968" lon="-1.03169">
        <ele>62</ele>
        <time>2025-04-26T14:00:13Z</time>
      </trkpt>
      <trkpt lat="45.61966" lon="-1.03173">
        <ele>63</ele>
        <time>2025-04-26T14:00:14Z</time>
      </trkpt>
      <trkpt lat="45.61964" lon="-1.03176">
        <ele>63</ele>
        <time>2025-04-26T14:00:15Z</time>
      </trkpt>
      <trkpt lat="45.61962" lon="-1.03179">
        <ele>63</ele>
        <time>2025-04-26T14:00:16Z</time>
      </trkpt>
      <trkpt lat="45.6196" lon="-1.03183">
        <ele>63</ele>
        <time>2025-04-26T14:00:17Z</time>
      </trkpt>
      <trkpt lat="45.61959" lon="-1.03187">
        <ele>64</ele>
        <time>2025-04-26T14:00:18Z</time>
      </trkpt>
      <trkpt lat="45.61958" lon="-1.03191">
        <ele>64</ele>
        <time>2025-04-26T14:00:19Z</time>
      </trkpt>
      <trkpt lat="45.61957" lon="-1.03196">
        <ele>65</ele>
        <time>2025-04-26T14:00:20Z</time>
      </trkpt>
      <trkpt lat="45.61956" lon="-1.03201">
        <ele>66</ele>
        <time>2025-04-26T14:00:21Z</time>
      </trkpt>
      <trkpt lat="45.61955" lon="-1.03205">
        <ele>67</ele>
        <time>2025-04-26T14:00:22Z</time>
      </trkpt>
      <trkpt lat="45.61955" lon="-1.0321">
        <ele>68</ele>
        <time>2025-04-26T14:00:23Z</time>
      </trkpt>
      <trkpt lat="45.61953" lon="-1.03215">
        <ele>68</ele>
        <time>2025-04-26T14:00:24Z</time>
      </trkpt>
      <trkpt lat="45.61953" lon="-1.0322">
        <ele>68</ele>
        <time>2025-04-26T14:00:25Z</time>
      </trkpt>
      <trkpt lat="45.61952" lon="-1.03225">
        <ele>68</ele>
        <time>2025-04-26T14:00:26Z</time>
      </trkpt>
      <trkpt lat="45.61951" lon="-1.0323">
        <ele>68</ele>
        <time>2025-04-26T14:00:27Z</time>
      </trkpt>
      <trkpt lat="45.61951" lon="-1.03236">
        <ele>69</ele>
        <time>2025-04-26T14:00:28Z</time>
      </trkpt>
      <trkpt lat="45.61952" lon="-1.03241">
        <ele>69</ele>
        <time>2025-04-26T14:00:29Z</time>
      </trkpt>
      <trkpt lat="45.61952" lon="-1.03247">
        <ele>70</ele>
        <time>2025-04-26T14:00:30Z</time>
      </trkpt>
      <trkpt lat="45.61953" lon="-1.03253">
        <ele>70</ele>
        <time>2025-04-26T14:00:31Z</time>
      </trkpt>
      <trkpt lat="45.61953" lon="-1.03259">
        <ele>70</ele>
        <time>2025-04-26T14:00:32Z</time>
      </trkpt>
      <trkpt lat="45.61953" lon="-1.03265">
        <ele>69</ele>
        <time>2025-04-26T14:00:33Z</time>
      </trkpt>
      <trkpt lat="45.61953" lon="-1.03271">
        <ele>70</ele>
        <time>2025-04-26T14:00:34Z</time>
      </trkpt>
      <trkpt lat="45.61954" lon="-1.03278">
        <ele>70</ele>
        <time>2025-04-26T14:00:35Z</time>
      </trkpt>
      <trkpt lat="45.61954" lon="-1.03284">
        <ele>70</ele>
        <time>2025-04-26T14:00:36Z</time>
      </trkpt>
      <trkpt lat="45.61956" lon="-1.0329">
        <ele>70</ele>
        <time>2025-04-26T14:00:37Z</time>
      </trkpt>
      <trkpt lat="45.61958" lon="-1.03295">
        <ele>70</ele>
        <time>2025-04-26T14:00:38Z</time>
      </trkpt>
      <trkpt lat="45.61959" lon="-1.033">
        <ele>69</ele>
        <time>2025-04-26T14:00:39Z</time>
      </trkpt>
      <trkpt lat="45.61961" lon="-1.03304">
        <ele>67</ele>
        <time>2025-04-26T14:00:40Z</time>
      </trkpt>
      <trkpt lat="45.61962" lon="-1.03307">
        <ele>66</ele>
        <time>2025-04-26T14:00:41Z</time>
      </trkpt>
      <trkpt lat="45.61963" lon="-1.03312">
        <ele>65</ele>
        <time>2025-04-26T14:00:42Z</time>
      </trkpt>
      <trkpt lat="45.61962" lon="-1.03315">
        <ele>64</ele>
        <time>2025-04-26T14:00:43Z</time>
      </trkpt>
      <trkpt lat="45.6196" lon="-1.03319">
        <ele>63</ele>
        <time>2025-04-26T14:00:44Z</time>
      </trkpt>
      <trkpt lat="45.61959" lon="-1.03321">
        <ele>64</ele>
        <time>2025-04-26T14:00:45Z</time>
      </trkpt>
      <trkpt lat="45.61957" lon="-1.03324">
        <ele>64</ele>
        <time>2025-04-26T14:00:46Z</time>
      </trkpt>
      <trkpt lat="45.61955" lon="-1.03327">
        <ele>64</ele>
        <time>2025-04-26T14:00:47Z</time>
      </trkpt>
      <trkpt lat="45.61955" lon="-1.0333">
        <ele>64</ele>
        <time>2025-04-26T14:00:48Z</time>
      </trkpt>
      <trkpt lat="45.61956" lon="-1.03333">
        <ele>64</ele>
        <time>2025-04-26T14:00:49Z</time>
      </trkpt>
      <trkpt lat="45.61957" lon="-1.03336">
        <ele>64</ele>
        <time>2025-04-26T14:00:50Z</time>
      </trkpt>
      <trkpt lat="45.61958" lon="-1.0334">
        <ele>64</ele>
        <time>2025-04-26T14:00:51Z</time>
      </trkpt>
      <trkpt lat="45.61959" lon="-1.03343">
        <ele>64</ele>
        <time>2025-04-26T14:00:52Z</time>
      </trkpt>
      <trkpt lat="45.6196" lon="-1.03347">
        <ele>63</ele>
        <time>2025-04-26T14:00:53Z</time>
      </trkpt>
      <trkpt lat="45.61961" lon="-1.03351">
        <ele>63</ele>
        <time>2025-04-26T14:00:54Z</time>
      </trkpt>
      <trkpt lat="45.61962" lon="-1.03354">
        <ele>63</ele>
        <time>2025-04-26T14:00:55Z</time>
      </trkpt>
      <trkpt lat="45.61963" lon="-1.03358">
        <ele>64</ele>
        <time>2025-04-26T14:00:56Z</time>
      </trkpt>
      <trkpt lat="45.61964" lon="-1.03363">
        <ele>64</ele>
        <time>2025-04-26T14:00:57Z</time>
      </trkpt>
      <trkpt lat="45.61965" lon="-1.03367">
        <ele>64</ele>
        <time>2025-04-26T14:00:58Z</time>
      </trkpt>
      <trkpt lat="45.61967" lon="-1.03371">
        <ele>64</ele>
        <time>2025-04-26T14:00:59Z</time>
      </trkpt>
      <trkpt lat="45.61969" lon="-1.03374">
        <ele>65</ele>
        <time>2025-04-26T14:01:00Z</time>
      </trkpt>
      <trkpt lat="45.6197" lon="-1.03377">
        <ele>65</ele>
        <time>2025-04-26T14:01:01Z</time>
      </trkpt>
      <trkpt lat="45.61972" lon="-1.03381">
        <ele>65</ele>
        <time>2025-04-26T14:01:02Z</time>
      </trkpt>
      <trkpt lat="45.61974" lon="-1.03386">
        <ele>65</ele>
        <time>2025-04-26T14:01:03Z</time>
      </trkpt>
      <trkpt lat="45.61976" lon="-1.0339">
        <ele>65</ele>
        <time>2025-04-26T14:01:04Z</time>
      </trkpt>
      <trkpt lat="45.61977" lon="-1.03394">
        <ele>65</ele>
        <time>2025-04-26T14:01:05Z</time>
      </trkpt>
      <trkpt lat="45.61979" lon="-1.03398">
        <ele>66</ele>
        <time>2025-04-26T14:01:06Z</time>
      </trkpt>
      <trkpt lat="45.6198" lon="-1.03403">
        <ele>66</ele>
        <time>2025-04-26T14:01:07Z</time>
      </trkpt>
      <trkpt lat="45.61982" lon="-1.03407">
        <ele>66</ele>
        <time>2025-04-26T14:01:08Z</time>
      </trkpt>
      <trkpt lat="45.61983" lon="-1.0341">
        <ele>67</ele>
        <time>2025-04-26T14:01:09Z</time>
      </trkpt>
      <trkpt lat="45.61985" lon="-1.03413">
        <ele>67</ele>
        <time>2025-04-26T14:01:10Z</time>
      </trkpt>
      <trkpt lat="45.61986" lon="-1.03417">
        <ele>67</ele>
        <time>2025-04-26T14:01:11Z</time>
      </trkpt>
      <trkpt lat="45.61987" lon="-1.03421">
        <ele>67</ele>
        <time>2025-04-26T14:01:12Z</time>
      </trkpt>
      <trkpt lat="45.61988" lon="-1.03425">
        <ele>67</ele>
        <time>2025-04-26T14:01:13Z</time>
      </trkpt>
      <trkpt lat="45.6199" lon="-1.03428">
        <ele>68</ele>
        <time>2025-04-26T14:01:14Z</time>
      </trkpt>
      <trkpt lat="45.61991" lon="-1.03432">
        <ele>68</ele>
        <time>2025-04-26T14:01:15Z</time>
      </trkpt>
      <trkpt lat="45.61993" lon="-1.03436">
        <ele>70</ele>
        <time>2025-04-26T14:01:16Z</time>
      </trkpt>
      <trkpt lat="45.61994" lon="-1.0344">
        <ele>70</ele>
        <time>2025-04-26T14:01:17Z</time>
      </trkpt>
      <trkpt lat="45.61995" lon="-1.03444">
        <ele>70</ele>
        <time>2025-04-26T14:01:18Z</time>
      </trkpt>
      <trkpt lat="45.61997" lon="-1.03449">
        <ele>71</ele>
        <time>2025-04-26T14:01:19Z</time>
      </trkpt>
      <trkpt lat="45.61997" lon="-1.03453">
        <ele>71</ele>
        <time>2025-04-26T14:01:20Z</time>
      </trkpt>
      <trkpt lat="45.61998" lon="-1.03457">
        <ele>71</ele>
        <time>2025-04-26T14:01:21Z</time>
      </trkpt>
      <trkpt lat="45.61999" lon="-1.03461">
        <ele>73</ele>
        <time>2025-04-26T14:01:22Z</time>
      </trkpt>
      <trkpt lat="45.61999" lon="-1.03465">
        <ele>74</ele>
        <time>2025-04-26T14:01:23Z</time>
      </trkpt>
      <trkpt lat="45.61999" lon="-1.0347">
        <ele>75</ele>
        <time>2025-04-26T14:01:24Z</time>
      </trkpt>
      <trkpt lat="45.61999" lon="-1.03474">
        <ele>75</ele>
        <time>2025-04-26T14:01:25Z</time>
      </trkpt>
      <trkpt lat="45.61998" lon="-1.03478">
        <ele>74</ele>
        <time>2025-04-26T14:01:26Z</time>
      </trkpt>
      <trkpt lat="45.61997" lon="-1.03482">
        <ele>73</ele>
        <time>2025-04-26T14:01:27Z</time>
      </trkpt>
      <trkpt lat="45.61995" lon="-1.03486">
        <ele>73</ele>
        <time>2025-04-26T14:01:28Z</time>
      </trkpt>
      <trkpt lat="45.61993" lon="-1.0349">
        <ele>72</ele>
        <time>2025-04-26T14:01:29Z</time>
      </trkpt>
      <trkpt lat="45.61991" lon="-1.03493">
        <ele>71</ele>
        <time>2025-04-26T14:01:30Z</time>
      </trkpt>
      <trkpt lat="45.61988" lon="-1.03495">
        <ele>69</ele>
        <time>2025-04-26T14:01:31Z</time>
      </trkpt>
      <trkpt lat="45.61986" lon="-1.03499">
        <ele>68</ele>
        <time>2025-04-26T14:01:32Z</time>
      </trkpt>
      <trkpt lat="45.61985" lon="-1.03503">
        <ele>68</ele>
        <time>2025-04-26T14:01:33Z</time>
      </trkpt>
      <trkpt lat="45.61984" lon="-1.03507">
        <ele>68</ele>
        <time>2025-04-26T14:01:34Z</time>
      </trkpt>
      <trkpt lat="45.61982" lon="-1.03511">
        <ele>68</ele>
        <time>2025-04-26T14:01:35Z</time>
      </trkpt>
      <trkpt lat="45.6198" lon="-1.03515">
        <ele>68</ele>
        <time>2025-04-26T14:01:36Z</time>
      </trkpt>
      <trkpt lat="45.61978" lon="-1.03519">
        <ele>68</ele>
        <time>2025-04-26T14:01:37Z</time>
      </trkpt>
      <trkpt lat="45.61976" lon="-1.03523">
        <ele>69</ele>
        <time>2025-04-26T14:01:38Z</time>
      </trkpt>
      <trkpt lat="45.61973" lon="-1.03525">
        <ele>68</ele>
        <time>2025-04-26T14:01:39Z</time>
      </trkpt>
      <trkpt lat="45.6197" lon="-1.03528">
        <ele>68</ele>
        <time>2025-04-26T14:01:40Z</time>
      </trkpt>
      <trkpt lat="45.61966" lon="-1.0353">
        <ele>68</ele>
        <time>2025-04-26T14:01:41Z</time>
      </trkpt>
      <trkpt lat="45.61963" lon="-1.03532">
        <ele>67</ele>
        <time>2025-04-26T14:01:42Z</time>
      </trkpt>
      <trkpt lat="45.6196" lon="-1.03535">
        <ele>67</ele>
        <time>2025-04-26T14:01:43Z</time>
      </trkpt>
      <trkpt lat="45.61957" lon="-1.03537">
        <ele>67</ele>
        <time>2025-04-26T14:01:44Z</time>
      </trkpt>
      <trkpt lat="45.61954" lon="-1.03539">
        <ele>67</ele>
        <time>2025-04-26T14:01:45Z</time>
      </trkpt>
      <trkpt lat="45.61951" lon="-1.03542">
        <ele>66</ele>
        <time>2025-04-26T14:01:46Z</time>
      </trkpt>
      <trkpt lat="45.61948" lon="-1.03544">
        <ele>66</ele>
        <time>2025-04-26T14:01:47Z</time>
      </trkpt>
      <trkpt lat="45.61945" lon="-1.03546">
        <ele>66</ele>
        <time>2025-04-26T14:01:48Z</time>
      </trkpt>
      <trkpt lat="45.61942" lon="-1.03548">
        <ele>66</ele>
        <time>2025-04-26T14:01:49Z</time>
      </trkpt>
      <trkpt lat="45.6194" lon="-1.0355">
        <ele>66</ele>
        <time>2025-04-26T14:01:50Z</time>
      </trkpt>
      <trkpt lat="45.61938" lon="-1.03554">
        <ele>67</ele>
        <time>2025-04-26T14:01:51Z</time>
      </trkpt>
      <trkpt lat="45.61937" lon="-1.03557">
        <ele>67</ele>
        <time>2025-04-26T14:01:52Z</time>
      </trkpt>
      <trkpt lat="45.61935" lon="-1.0356">
        <ele>66</ele>
        <time>2025-04-26T14:01:53Z</time>
      </trkpt>
      <trkpt lat="45.61933" lon="-1.03563">
        <ele>66</ele>
        <time>2025-04-26T14:01:54Z</time>
      </trkpt>
      <trkpt lat="45.6193" lon="-1.03566">
        <ele>66</ele>
        <time>2025-04-26T14:01:55Z</time>
      </trkpt>
      <trkpt lat="45.61927" lon="-1.03569">
        <ele>66</ele>
        <time>2025-04-26T14:01:56Z</time>
      </trkpt>
      <trkpt lat="45.61924" lon="-1.03572">
        <ele>65</ele>
        <time>2025-04-26T14:01:57Z</time>
      </trkpt>
      <trkpt lat="45.6192" lon="-1.03575">
        <ele>65</ele>
        <time>2025-04-26T14:01:58Z</time>
      </trkpt>
      <trkpt lat="45.61917" lon="-1.03578">
        <ele>64</ele>
        <time>2025-04-26T14:01:59Z</time>
      </trkpt>
      <trkpt lat="45.61913" lon="-1.03581">
        <ele>64</ele>
        <time>2025-04-26T14:02:00Z</time>
      </trkpt>
      <trkpt lat="45.61909" lon="-1.03584">
        <ele>63</ele>
        <time>2025-04-26T14:02:01Z</time>
      </trkpt>
      <trkpt lat="45.61905" lon="-1.03587">
        <ele>63</ele>
        <time>2025-04-26T14:02:02Z</time>
      </trkpt>
      <trkpt lat="45.61901" lon="-1.0359">
        <ele>62</ele>
        <time>2025-04-26T14:02:03Z</time>
      </trkpt>
      <trkpt lat="45.61897" lon="-1.03593">
        <ele>61</ele>
        <time>2025-04-26T14:02:04Z</time>
      </trkpt>
      <trkpt lat="45.61894" lon="-1.03597">
        <ele>60</ele>
        <time>2025-04-26T14:02:05Z</time>
      </trkpt>
      <trkpt lat="45.6189" lon="-1.03601">
        <ele>60</ele>
        <time>2025-04-26T14:02:06Z</time>
      </trkpt>
      <trkpt lat="45.61885" lon="-1.03605">
        <ele>59</ele>
        <time>2025-04-26T14:02:07Z</time>
      </trkpt>
      <trkpt lat="45.61881" lon="-1.03609">
        <ele>59</ele>
        <time>2025-04-26T14:02:08Z</time>
      </trkpt>
      <trkpt lat="45.61876" lon="-1.03613">
        <ele>58</ele>
        <time>2025-04-26T14:02:09Z</time>
      </trkpt>
      <trkpt lat="45.61872" lon="-1.03617">
        <ele>58</ele>
        <time>2025-04-26T14:02:10Z</time>
      </trkpt>
      <trkpt lat="45.61867" lon="-1.0362">
        <ele>58</ele>
        <time>2025-04-26T14:02:11Z</time>
      </trkpt>
      <trkpt lat="45.61862" lon="-1.03624">
        <ele>58</ele>
        <time>2025-04-26T14:02:12Z</time>
      </trkpt>
      <trkpt lat="45.61858" lon="-1.03628">
        <ele>58</ele>
        <time>2025-04-26T14:02:13Z</time>
      </trkpt>
      <trkpt lat="45.61853" lon="-1.03631">
        <ele>58</ele>
        <time>2025-04-26T14:02:14Z</time>
      </trkpt>
      <trkpt lat="45.61848" lon="-1.03634">
        <ele>58</ele>
        <time>2025-04-26T14:02:15Z</time>
      </trkpt>
      <trkpt lat="45.61843" lon="-1.03639">
        <ele>57</ele>
        <time>2025-04-26T14:02:16Z</time>
      </trkpt>
      <trkpt lat="45.61838" lon="-1.03642">
        <ele>57</ele>
        <time>2025-04-26T14:02:17Z</time>
      </trkpt>
      <trkpt lat="45.61833" lon="-1.03646">
        <ele>57</ele>
        <time>2025-04-26T14:02:18Z</time>
      </trkpt>
      <trkpt lat="45.61828" lon="-1.03651">
        <ele>56</ele>
        <time>2025-04-26T14:02:19Z</time>
      </trkpt>
      <trkpt lat="45.61823" lon="-1.03655">
        <ele>56</ele>
        <time>2025-04-26T14:02:20Z</time>
      </trkpt>
      <trkpt lat="45.61818" lon="-1.03659">
        <ele>56</ele>
        <time>2025-04-26T14:02:21Z</time>
      </trkpt>
      <trkpt lat="45.61813" lon="-1.03664">
        <ele>55</ele>
        <time>2025-04-26T14:02:22Z</time>
      </trkpt>
      <trkpt lat="45.6181" lon="-1.0367">
        <ele>56</ele>
        <time>2025-04-26T14:02:23Z</time>
      </trkpt>
      <trkpt lat="45.61807" lon="-1.03676">
        <ele>55</ele>
        <time>2025-04-26T14:02:24Z</time>
      </trkpt>
      <trkpt lat="45.61805" lon="-1.03682">
        <ele>57</ele>
        <time>2025-04-26T14:02:25Z</time>
      </trkpt>
      <trkpt lat="45.61803" lon="-1.03689">
        <ele>56</ele>
        <time>2025-04-26T14:02:26Z</time>
      </trkpt>
      <trkpt lat="45.61802" lon="-1.03695">
        <ele>56</ele>
        <time>2025-04-26T14:02:27Z</time>
      </trkpt>
      <trkpt lat="45.61803" lon="-1.03702">
        <ele>59</ele>
        <time>2025-04-26T14:02:28Z</time>
      </trkpt>
      <trkpt lat="45.61803" lon="-1.03709">
        <ele>60</ele>
        <time>2025-04-26T14:02:29Z</time>
      </trkpt>
      <trkpt lat="45.61804" lon="-1.03715">
        <ele>60</ele>
        <time>2025-04-26T14:02:30Z</time>
      </trkpt>
      <trkpt lat="45.61805" lon="-1.03721">
        <ele>62</ele>
        <time>2025-04-26T14:02:31Z</time>
      </trkpt>
      <trkpt lat="45.61805" lon="-1.03726">
        <ele>63</ele>
        <time>2025-04-26T14:02:32Z</time>
      </trkpt>
      <trkpt lat="45.61806" lon="-1.03731">
        <ele>63</ele>
        <time>2025-04-26T14:02:33Z</time>
      </trkpt>
      <trkpt lat="45.61807" lon="-1.03736">
        <ele>65</ele>
        <time>2025-04-26T14:02:34Z</time>
      </trkpt>
      <trkpt lat="45.61807" lon="-1.03741">
        <ele>64</ele>
        <time>2025-04-26T14:02:35Z</time>
      </trkpt>
      <trkpt lat="45.61807" lon="-1.03745">
        <ele>64</ele>
        <time>2025-04-26T14:02:36Z</time>
      </trkpt>
      <trkpt lat="45.61808" lon="-1.0375">
        <ele>64</ele>
        <time>2025-04-26T14:02:37Z</time>
      </trkpt>
      <trkpt lat="45.61809" lon="-1.03755">
        <ele>66</ele>
        <time>2025-04-26T14:02:38Z</time>
      </trkpt>
      <trkpt lat="45.61809" lon="-1.03759">
        <ele>65</ele>
        <time>2025-04-26T14:02:39Z</time>
      </trkpt>
      <trkpt lat="45.61809" lon="-1.03763">
        <ele>65</ele>
        <time>2025-04-26T14:02:40Z</time>
      </trkpt>
      <trkpt lat="45.61809" lon="-1.03766">
        <ele>65</ele>
        <time>2025-04-26T14:02:41Z</time>
      </trkpt>
      <trkpt lat="45.61808" lon="-1.03769">
        <ele>64</ele>
        <time>2025-04-26T14:02:42Z</time>
      </trkpt>
      <trkpt lat="45.61807" lon="-1.03773">
        <ele>64</ele>
        <time>2025-04-26T14:02:43Z</time>
      </trkpt>
      <trkpt lat="45.61806" lon="-1.03776">
        <ele>64</ele>
        <time>2025-04-26T14:02:44Z</time>
      </trkpt>
      <trkpt lat="45.61805" lon="-1.0378">
        <ele>64</ele>
        <time>2025-04-26T14:02:45Z</time>
      </trkpt>
      <trkpt lat="45.61804" lon="-1.03783">
        <ele>64</ele>
        <time>2025-04-26T14:02:46Z</time>
      </trkpt>
      <trkpt lat="45.61803" lon="-1.03786">
        <ele>65</ele>
        <time>2025-04-26T14:02:47Z</time>
      </trkpt>
      <trkpt lat="45.61803" lon="-1.03789">
        <ele>65</ele>
        <time>2025-04-26T14:02:48Z</time>
      </trkpt>
      <trkpt lat="45.61802" lon="-1.03793">
        <ele>66</ele>
        <time>2025-04-26T14:02:49Z</time>
      </trkpt>
      <trkpt lat="45.61803" lon="-1.03796">
        <ele>66</ele>
        <time>2025-04-26T14:02:50Z</time>
      </trkpt>
      <trkpt lat="45.61803" lon="-1.038">
        <ele>67</ele>
        <time>2025-04-26T14:02:51Z</time>
      </trkpt>
      <trkpt lat="45.61804" lon="-1.03803">
        <ele>68</ele>
        <time>2025-04-26T14:02:52Z</time>
      </trkpt>
      <trkpt lat="45.61805" lon="-1.03807">
        <ele>69</ele>
        <time>2025-04-26T14:02:53Z</time>
      </trkpt>
      <trkpt lat="45.61806" lon="-1.03812">
        <ele>71</ele>
        <time>2025-04-26T14:02:54Z</time>
      </trkpt>
      <trkpt lat="45.61806" lon="-1.03816">
        <ele>71</ele>
        <time>2025-04-26T14:02:55Z</time>
      </trkpt>
      <trkpt lat="45.61806" lon="-1.0382">
        <ele>72</ele>
        <time>2025-04-26T14:02:56Z</time>
      </trkpt>
      <trkpt lat="45.61806" lon="-1.03825">
        <ele>70</ele>
        <time>2025-04-26T14:02:57Z</time>
      </trkpt>
      <trkpt lat="45.61806" lon="-1.03829">
        <ele>71</ele>
        <time>2025-04-26T14:02:58Z</time>
      </trkpt>
      <trkpt lat="45.61807" lon="-1.03833">
        <ele>71</ele>
        <time>2025-04-26T14:02:59Z</time>
      </trkpt>
      <trkpt lat="45.61807" lon="-1.03837">
        <ele>71</ele>
        <time>2025-04-26T14:03:00Z</time>
      </trkpt>
      <trkpt lat="45.61807" lon="-1.03842">
        <ele>69</ele>
        <time>2025-04-26T14:03:01Z</time>
      </trkpt>
      <trkpt lat="45.61807" lon="-1.03847">
        <ele>70</ele>
        <time>2025-04-26T14:03:02Z</time>
      </trkpt>
      <trkpt lat="45.61807" lon="-1.03852">
        <ele>70</ele>
        <time>2025-04-26T14:03:03Z</time>
      </trkpt>
      <trkpt lat="45.61807" lon="-1.03857">
        <ele>70</ele>
        <time>2025-04-26T14:03:04Z</time>
      </trkpt>
      <trkpt lat="45.61806" lon="-1.03862">
        <ele>70</ele>
        <time>2025-04-26T14:03:05Z</time>
      </trkpt>
      <trkpt lat="45.61806" lon="-1.03867">
        <ele>71</ele>
        <time>2025-04-26T14:03:06Z</time>
      </trkpt>
      <trkpt lat="45.61805" lon="-1.03872">
        <ele>71</ele>
        <time>2025-04-26T14:03:07Z</time>
      </trkpt>
      <trkpt lat="45.61805" lon="-1.03878">
        <ele>71</ele>
        <time>2025-04-26T14:03:08Z</time>
      </trkpt>
      <trkpt lat="45.61804" lon="-1.03883">
        <ele>71</ele>
        <time>2025-04-26T14:03:09Z</time>
      </trkpt>
      <trkpt lat="45.61804" lon="-1.03889">
        <ele>72</ele>
        <time>2025-04-26T14:03:10Z</time>
      </trkpt>
      <trkpt lat="45.61804" lon="-1.03895">
        <ele>72</ele>
        <time>2025-04-26T14:03:11Z</time>
      </trkpt>
      <trkpt lat="45.61805" lon="-1.039">
        <ele>72</ele>
        <time>2025-04-26T14:03:12Z</time>
      </trkpt>
      <trkpt lat="45.61804" lon="-1.03904">
        <ele>73</ele>
        <time>2025-04-26T14:03:13Z</time>
      </trkpt>
      <trkpt lat="45.61804" lon="-1.03909">
        <ele>72</ele>
        <time>2025-04-26T14:03:14Z</time>
      </trkpt>
      <trkpt lat="45.61805" lon="-1.03913">
        <ele>72</ele>
        <time>2025-04-26T14:03:15Z</time>
      </trkpt>
      <trkpt lat="45.61805" lon="-1.03918">
        <ele>72</ele>
        <time>2025-04-26T14:03:16Z</time>
      </trkpt>
      <trkpt lat="45.61806" lon="-1.03923">
        <ele>72</ele>
        <time>2025-04-26T14:03:17Z</time>
      </trkpt>
      <trkpt lat="45.61806" lon="-1.03929">
        <ele>70</ele>
        <time>2025-04-26T14:03:18Z</time>
      </trkpt>
      <trkpt lat="45.61805" lon="-1.03935">
        <ele>69</ele>
        <time>2025-04-26T14:03:19Z</time>
      </trkpt>
      <trkpt lat="45.61806" lon="-1.03943">
        <ele>70</ele>
        <time>2025-04-26T14:03:20Z</time>
      </trkpt>
      <trkpt lat="45.61806" lon="-1.0395">
        <ele>70</ele>
        <time>2025-04-26T14:03:21Z</time>
      </trkpt>
      <trkpt lat="45.61805" lon="-1.03957">
        <ele>69</ele>
        <time>2025-04-26T14:03:22Z</time>
      </trkpt>
      <trkpt lat="45.61804" lon="-1.03964">
        <ele>68</ele>
        <time>2025-04-26T14:03:23Z</time>
      </trkpt>
      <trkpt lat="45.61802" lon="-1.0397">
        <ele>67</ele>
        <time>2025-04-26T14:03:24Z</time>
      </trkpt>
      <trkpt lat="45.618" lon="-1.03976">
        <ele>66</ele>
        <time>2025-04-26T14:03:25Z</time>
      </trkpt>
      <trkpt lat="45.61797" lon="-1.03981">
        <ele>64</ele>
        <time>2025-04-26T14:03:26Z</time>
      </trkpt>
      <trkpt lat="45.61795" lon="-1.03984">
        <ele>65</ele>
        <time>2025-04-26T14:03:27Z</time>
      </trkpt>
      <trkpt lat="45.61792" lon="-1.03987">
        <ele>64</ele>
        <time>2025-04-26T14:03:28Z</time>
      </trkpt>
      <trkpt lat="45.61789" lon="-1.03989">
        <ele>63</ele>
        <time>2025-04-26T14:03:29Z</time>
      </trkpt>
      <trkpt lat="45.61787" lon="-1.03992">
        <ele>64</ele>
        <time>2025-04-26T14:03:30Z</time>
      </trkpt>
      <trkpt lat="45.61785" lon="-1.03995">
        <ele>64</ele>
        <time>2025-04-26T14:03:31Z</time>
      </trkpt>
      <trkpt lat="45.61784" lon="-1.03999">
        <ele>64</ele>
        <time>2025-04-26T14:03:32Z</time>
      </trkpt>
      <trkpt lat="45.61783" lon="-1.04002">
        <ele>64</ele>
        <time>2025-04-26T14:03:33Z</time>
      </trkpt>
      <trkpt lat="45.61782" lon="-1.04005">
        <ele>64</ele>
        <time>2025-04-26T14:03:34Z</time>
      </trkpt>
      <trkpt lat="45.61782" lon="-1.04009">
        <ele>64</ele>
        <time>2025-04-26T14:03:35Z</time>
      </trkpt>
      <trkpt lat="45.61782" lon="-1.04012">
        <ele>64</ele>
        <time>2025-04-26T14:03:36Z</time>
      </trkpt>
      <trkpt lat="45.61782" lon="-1.04015">
        <ele>64</ele>
        <time>2025-04-26T14:03:37Z</time>
      </trkpt>
      <trkpt lat="45.61783" lon="-1.04018">
        <ele>64</ele>
        <time>2025-04-26T14:03:38Z</time>
      </trkpt>
      <trkpt lat="45.61784" lon="-1.04021">
        <ele>64</ele>
        <time>2025-04-26T14:03:39Z</time>
      </trkpt>
      <trkpt lat="45.61785" lon="-1.04024">
        <ele>64</ele>
        <time>2025-04-26T14:03:40Z</time>
      </trkpt>
      <trkpt lat="45.61786" lon="-1.04027">
        <ele>64</ele>
        <time>2025-04-26T14:03:41Z</time>
      </trkpt>
      <trkpt lat="45.61787" lon="-1.0403">
        <ele>64</ele>
        <time>2025-04-26T14:03:42Z</time>
      </trkpt>
      <trkpt lat="45.61787" lon="-1.04033">
        <ele>64</ele>
        <time>2025-04-26T14:03:43Z</time>
      </trkpt>
      <trkpt lat="45.61788" lon="-1.04036">
        <ele>64</ele>
        <time>2025-04-26T14:03:44Z</time>
      </trkpt>
      <trkpt lat="45.61788" lon="-1.04038">
        <ele>64</ele>
        <time>2025-04-26T14:03:45Z</time>
      </trkpt>
      <trkpt lat="45.61789" lon="-1.0404">
        <ele>64</ele>
        <time>2025-04-26T14:03:46Z</time>
      </trkpt>
      <trkpt lat="45.61789" lon="-1.04043">
        <ele>65</ele>
        <time>2025-04-26T14:03:47Z</time>
      </trkpt>
      <trkpt lat="45.61788" lon="-1.04047">
        <ele>65</ele>
        <time>2025-04-26T14:03:48Z</time>
      </trkpt>
      <trkpt lat="45.61788" lon="-1.0405">
        <ele>65</ele>
        <time>2025-04-26T14:03:49Z</time>
      </trkpt>
      <trkpt lat="45.61787" lon="-1.04053">
        <ele>65</ele>
        <time>2025-04-26T14:03:50Z</time>
      </trkpt>
      <trkpt lat="45.61786" lon="-1.04056">
        <ele>65</ele>
        <time>2025-04-26T14:03:51Z</time>
      </trkpt>
      <trkpt lat="45.61785" lon="-1.04059">
        <ele>65</ele>
        <time>2025-04-26T14:03:52Z</time>
      </trkpt>
      <trkpt lat="45.61784" lon="-1.04062">
        <ele>65</ele>
        <time>2025-04-26T14:03:53Z</time>
      </trkpt>
      <trkpt lat="45.61783" lon="-1.04064">
        <ele>64</ele>
        <time>2025-04-26T14:03:54Z</time>
      </trkpt>
      <trkpt lat="45.61781" lon="-1.04067">
        <ele>63</ele>
        <time>2025-04-26T14:03:55Z</time>
      </trkpt>
      <trkpt lat="45.61779" lon="-1.04069">
        <ele>63</ele>
        <time>2025-04-26T14:03:56Z</time>
      </trkpt>
      <trkpt lat="45.61778" lon="-1.04071">
        <ele>63</ele>
        <time>2025-04-26T14:03:57Z</time>
      </trkpt>
      <trkpt lat="45.61776" lon="-1.04074">
        <ele>62</ele>
        <time>2025-04-26T14:03:58Z</time>
      </trkpt>
      <trkpt lat="45.61775" lon="-1.04077">
        <ele>62</ele>
        <time>2025-04-26T14:03:59Z</time>
      </trkpt>
      <trkpt lat="45.61774" lon="-1.04079">
        <ele>62</ele>
        <time>2025-04-26T14:04:00Z</time>
      </trkpt>
      <trkpt lat="45.61773" lon="-1.04081">
        <ele>62</ele>
        <time>2025-04-26T14:04:01Z</time>
      </trkpt>
      <trkpt lat="45.61771" lon="-1.04082">
        <ele>62</ele>
        <time>2025-04-26T14:04:02Z</time>
      </trkpt>
      <trkpt lat="45.61769" lon="-1.04083">
        <ele>62</ele>
        <time>2025-04-26T14:04:03Z</time>
      </trkpt>
      <trkpt lat="45.61768" lon="-1.04084">
        <ele>62</ele>
        <time>2025-04-26T14:04:04Z</time>
      </trkpt>
      <trkpt lat="45.61766" lon="-1.04086">
        <ele>62</ele>
        <time>2025-04-26T14:04:05Z</time>
      </trkpt>
      <trkpt lat="45.61765" lon="-1.04087">
        <ele>62</ele>
        <time>2025-04-26T14:04:06Z</time>
      </trkpt>
      <trkpt lat="45.61763" lon="-1.04088">
        <ele>62</ele>
        <time>2025-04-26T14:04:07Z</time>
      </trkpt>
      <trkpt lat="45.61762" lon="-1.0409">
        <ele>63</ele>
        <time>2025-04-26T14:04:08Z</time>
      </trkpt>
      <trkpt lat="45.61762" lon="-1.04093">
        <ele>63</ele>
        <time>2025-04-26T14:04:09Z</time>
      </trkpt>
      <trkpt lat="45.61761" lon="-1.04095">
        <ele>64</ele>
        <time>2025-04-26T14:04:10Z</time>
      </trkpt>
      <trkpt lat="45.61761" lon="-1.04097">
        <ele>64</ele>
        <time>2025-04-26T14:04:11Z</time>
      </trkpt>
      <trkpt lat="45.61762" lon="-1.04098">
        <ele>65</ele>
        <time>2025-04-26T14:04:12Z</time>
      </trkpt>
      <trkpt lat="45.61762" lon="-1.04099">
        <ele>65</ele>
        <time>2025-04-26T14:04:13Z</time>
      </trkpt>
      <trkpt lat="45.61762" lon="-1.041">
        <ele>65</ele>
        <time>2025-04-26T14:04:14Z</time>
      </trkpt>
      <trkpt lat="45.61763" lon="-1.04099">
        <ele>65</ele>
        <time>2025-04-26T14:04:15Z</time>
      </trkpt>
      <trkpt lat="45.61763" lon="-1.04099">
        <ele>66</ele>
        <time>2025-04-26T14:04:16Z</time>
      </trkpt>
      <trkpt lat="45.61763" lon="-1.04099">
        <ele>66</ele>
        <time>2025-04-26T14:04:17Z</time>
      </trkpt>
      <trkpt lat="45.61763" lon="-1.04099">
        <ele>66</ele>
        <time>2025-04-26T14:04:18Z</time>
      </trkpt>
      <trkpt lat="45.61763" lon="-1.04099">
        <ele>66</ele>
        <time>2025-04-26T14:04:19Z</time>
      </trkpt>
      <trkpt lat="45.61763" lon="-1.04099">
        <ele>66</ele>
        <time>2025-04-26T14:04:20Z</time>
      </trkpt>
      <trkpt lat="45.61763" lon="-1.04099">
        <ele>66</ele>
        <time>2025-04-26T14:04:21Z</time>
      </trkpt>
      <trkpt lat="45.61763" lon="-1.04099">
        <ele>66</ele>
        <time>2025-04-26T14:04:22Z</time>
      </trkpt>
      <trkpt lat="45.61763" lon="-1.04099">
        <ele>66</ele>
        <time>2025-04-26T14:04:23Z</time>
      </trkpt>
      <trkpt lat="45.61762" lon="-1.04101">
        <ele>65</ele>
        <time>2025-04-26T14:04:24Z</time>
      </trkpt>
      <trkpt lat="45.61761" lon="-1.04102">
        <ele>65</ele>
        <time>2025-04-26T14:04:25Z</time>
      </trkpt>
      <trkpt lat="45.61761" lon="-1.04103">
        <ele>65</ele>
        <time>2025-04-26T14:04:26Z</time>
      </trkpt>
      <trkpt lat="45.61761" lon="-1.04105">
        <ele>66</ele>
        <time>2025-04-26T14:04:27Z</time>
      </trkpt>
      <trkpt lat="45.61761" lon="-1.04107">
        <ele>66</ele>
        <time>2025-04-26T14:04:28Z</time>
      </trkpt>
      <trkpt lat="45.6176" lon="-1.0411">
        <ele>66</ele>
        <time>2025-04-26T14:04:29Z</time>
      </trkpt>
      <trkpt lat="45.6176" lon="-1.04113">
        <ele>66</ele>
        <time>2025-04-26T14:04:30Z</time>
      </trkpt>
      <trkpt lat="45.6176" lon="-1.04116">
        <ele>66</ele>
        <time>2025-04-26T14:04:31Z</time>
      </trkpt>
      <trkpt lat="45.6176" lon="-1.04118">
        <ele>66</ele>
        <time>2025-04-26T14:04:32Z</time>
      </trkpt>
      <trkpt lat="45.61761" lon="-1.04121">
        <ele>66</ele>
        <time>2025-04-26T14:04:33Z</time>
      </trkpt>
      <trkpt lat="45.61761" lon="-1.04124">
        <ele>66</ele>
        <time>2025-04-26T14:04:34Z</time>
      </trkpt>
      <trkpt lat="45.61762" lon="-1.04127">
        <ele>66</ele>
        <time>2025-04-26T14:04:35Z</time>
      </trkpt>
      <trkpt lat="45.61763" lon="-1.04131">
        <ele>66</ele>
        <time>2025-04-26T14:04:36Z</time>
      </trkpt>
      <trkpt lat="45.61764" lon="-1.04134">
        <ele>65</ele>
        <time>2025-04-26T14:04:37Z</time>
      </trkpt>
      <trkpt lat="45.61764" lon="-1.04138">
        <ele>65</ele>
        <time>2025-04-26T14:04:38Z</time>
      </trkpt>
      <trkpt lat="45.61765" lon="-1.04141">
        <ele>64</ele>
        <time>2025-04-26T14:04:39Z</time>
      </trkpt>
      <trkpt lat="45.61766" lon="-1.04144">
        <ele>64</ele>
        <time>2025-04-26T14:04:40Z</time>
      </trkpt>
      <trkpt lat="45.61767" lon="-1.04147">
        <ele>64</ele>
        <time>2025-04-26T14:04:41Z</time>
      </trkpt>
      <trkpt lat="45.61767" lon="-1.0415">
        <ele>63</ele>
        <time>2025-04-26T14:04:42Z</time>
      </trkpt>
      <trkpt lat="45.61767" lon="-1.04153">
        <ele>63</ele>
        <time>2025-04-26T14:04:43Z</time>
      </trkpt>
      <trkpt lat="45.61768" lon="-1.04156">
        <ele>63</ele>
        <time>2025-04-26T14:04:44Z</time>
      </trkpt>
      <trkpt lat="45.61768" lon="-1.04159">
        <ele>63</ele>
        <time>2025-04-26T14:04:45Z</time>
      </trkpt>
      <trkpt lat="45.61768" lon="-1.04162">
        <ele>63</ele>
        <time>2025-04-26T14:04:46Z</time>
      </trkpt>
      <trkpt lat="45.61769" lon="-1.04165">
        <ele>64</ele>
        <time>2025-04-26T14:04:47Z</time>
      </trkpt>
      <trkpt lat="45.61769" lon="-1.04167">
        <ele>64</ele>
        <time>2025-04-26T14:04:48Z</time>
      </trkpt>
      <trkpt lat="45.61769" lon="-1.04169">
        <ele>64</ele>
        <time>2025-04-26T14:04:49Z</time>
      </trkpt>
      <trkpt lat="45.61769" lon="-1.04171">
        <ele>65</ele>
        <time>2025-04-26T14:04:50Z</time>
      </trkpt>
      <trkpt lat="45.6177" lon="-1.04173">
        <ele>65</ele>
        <time>2025-04-26T14:04:51Z</time>
      </trkpt>
      <trkpt lat="45.6177" lon="-1.04173">
        <ele>65</ele>
        <time>2025-04-26T14:04:52Z</time>
      </trkpt>
      <trkpt lat="45.6177" lon="-1.04172">
        <ele>65</ele>
        <time>2025-04-26T14:04:53Z</time>
      </trkpt>
      <trkpt lat="45.6177" lon="-1.04172">
        <ele>64</ele>
        <time>2025-04-26T14:04:54Z</time>
      </trkpt>
      <trkpt lat="45.61769" lon="-1.04172">
        <ele>64</ele>
        <time>2025-04-26T14:04:55Z</time>
      </trkpt>
      <trkpt lat="45.61769" lon="-1.04172">
        <ele>64</ele>
        <time>2025-04-26T14:04:56Z</time>
      </trkpt>
      <trkpt lat="45.61769" lon="-1.04173">
        <ele>64</ele>
        <time>2025-04-26T14:04:57Z</time>
      </trkpt>
      <trkpt lat="45.61769" lon="-1.04173">
        <ele>64</ele>
        <time>2025-04-26T14:04:58Z</time>
      </trkpt>
      <trkpt lat="45.61769" lon="-1.04174">
        <ele>64</ele>
        <time>2025-04-26T14:04:59Z</time>
      </trkpt>
      <trkpt lat="45.6177" lon="-1.04175">
        <ele>64</ele>
        <time>2025-04-26T14:05:00Z</time>
      </trkpt>
      <trkpt lat="45.6177" lon="-1.04176">
        <ele>65</ele>
        <time>2025-04-26T14:05:01Z</time>
      </trkpt>
      <trkpt lat="45.6177" lon="-1.04177">
        <ele>64</ele>
        <time>2025-04-26T14:05:02Z</time>
      </trkpt>
      <trkpt lat="45.61771" lon="-1.04178">
        <ele>64</ele>
        <time>2025-04-26T14:05:03Z</time>
      </trkpt>
      <trkpt lat="45.61771" lon="-1.04179">
        <ele>64</ele>
        <time>2025-04-26T14:05:04Z</time>
      </trkpt>
      <trkpt lat="45.61771" lon="-1.0418">
        <ele>65</ele>
        <time>2025-04-26T14:05:05Z</time>
      </trkpt>
      <trkpt lat="45.61771" lon="-1.04181">
        <ele>65</ele>
        <time>2025-04-26T14:05:06Z</time>
      </trkpt>
      <trkpt lat="45.61771" lon="-1.04182">
        <ele>65</ele>
        <time>2025-04-26T14:05:07Z</time>
      </trkpt>
      <trkpt lat="45.61772" lon="-1.04183">
        <ele>65</ele>
        <time>2025-04-26T14:05:08Z</time>
      </trkpt>
      <trkpt lat="45.61772" lon="-1.04183">
        <ele>65</ele>
        <time>2025-04-26T14:05:09Z</time>
      </trkpt>
      <trkpt lat="45.61772" lon="-1.04183">
        <ele>65</ele>
        <time>2025-04-26T14:05:10Z</time>
      </trkpt>
      <trkpt lat="45.61772" lon="-1.04183">
        <ele>65</ele>
        <time>2025-04-26T14:05:11Z</time>
      </trkpt>
      <trkpt lat="45.61771" lon="-1.04183">
        <ele>65</ele>
        <time>2025-04-26T14:05:12Z</time>
      </trkpt>
      <trkpt lat="45.61772" lon="-1.04184">
        <ele>65</ele>
        <time>2025-04-26T14:05:13Z</time>
      </trkpt>
      <trkpt lat="45.61772" lon="-1.04184">
        <ele>65</ele>
        <time>2025-04-26T14:05:14Z</time>
      </trkpt>
      <trkpt lat="45.61772" lon="-1.04185">
        <ele>65</ele>
        <time>2025-04-26T14:05:15Z</time>
      </trkpt>
      <trkpt lat="45.61772" lon="-1.04186">
        <ele>65</ele>
        <time>2025-04-26T14:05:16Z</time>
      </trkpt>
      <trkpt lat="45.61773" lon="-1.04187">
        <ele>65</ele>
        <time>2025-04-26T14:05:17Z</time>
      </trkpt>
      <trkpt lat="45.61773" lon="-1.04188">
        <ele>66</ele>
        <time>2025-04-26T14:05:18Z</time>
      </trkpt>
      <trkpt lat="45.61774" lon="-1.04189">
        <ele>66</ele>
        <time>2025-04-26T14:05:19Z</time>
      </trkpt>
      <trkpt lat="45.61774" lon="-1.04191">
        <ele>66</ele>
        <time>2025-04-26T14:05:20Z</time>
      </trkpt>
      <trkpt lat="45.61775" lon="-1.04193">
        <ele>66</ele>
        <time>2025-04-26T14:05:21Z</time>
      </trkpt>
      <trkpt lat="45.61776" lon="-1.04194">
        <ele>66</ele>
        <time>2025-04-26T14:05:22Z</time>
      </trkpt>
      <trkpt lat="45.61776" lon="-1.04195">
        <ele>67</ele>
        <time>2025-04-26T14:05:23Z</time>
      </trkpt>
      <trkpt lat="45.61777" lon="-1.04196">
        <ele>67</ele>
        <time>2025-04-26T14:05:24Z</time>
      </trkpt>
      <trkpt lat="45.61778" lon="-1.04197">
        <ele>67</ele>
        <time>2025-04-26T14:05:25Z</time>
      </trkpt>
      <trkpt lat="45.61779" lon="-1.04198">
        <ele>68</ele>
        <time>2025-04-26T14:05:26Z</time>
      </trkpt>
      <trkpt lat="45.61779" lon="-1.042">
        <ele>68</ele>
        <time>2025-04-26T14:05:27Z</time>
      </trkpt>
      <trkpt lat="45.6178" lon="-1.04201">
        <ele>68</ele>
        <time>2025-04-26T14:05:28Z</time>
      </trkpt>
      <trkpt lat="45.6178" lon="-1.04202">
        <ele>68</ele>
        <time>2025-04-26T14:05:29Z</time>
      </trkpt>
      <trkpt lat="45.6178" lon="-1.04203">
        <ele>68</ele>
        <time>2025-04-26T14:05:30Z</time>
      </trkpt>
      <trkpt lat="45.61781" lon="-1.04205">
        <ele>69</ele>
        <time>2025-04-26T14:05:31Z</time>
      </trkpt>
      <trkpt lat="45.61781" lon="-1.04206">
        <ele>69</ele>
        <time>2025-04-26T14:05:32Z</time>
      </trkpt>
      <trkpt lat="45.61782" lon="-1.04207">
        <ele>69</ele>
        <time>2025-04-26T14:05:33Z</time>
      </trkpt>
      <trkpt lat="45.61783" lon="-1.04208">
        <ele>68</ele>
        <time>2025-04-26T14:05:34Z</time>
      </trkpt>
      <trkpt lat="45.61784" lon="-1.04209">
        <ele>68</ele>
        <time>2025-04-26T14:05:35Z</time>
      </trkpt>
      <trkpt lat="45.61785" lon="-1.04211">
        <ele>68</ele>
        <time>2025-04-26T14:05:36Z</time>
      </trkpt>
      <trkpt lat="45.61785" lon="-1.04213">
        <ele>68</ele>
        <time>2025-04-26T14:05:37Z</time>
      </trkpt>
      <trkpt lat="45.61786" lon="-1.04215">
        <ele>68</ele>
        <time>2025-04-26T14:05:38Z</time>
      </trkpt>
      <trkpt lat="45.61787" lon="-1.04217">
        <ele>68</ele>
        <time>2025-04-26T14:05:39Z</time>
      </trkpt>
      <trkpt lat="45.61788" lon="-1.04219">
        <ele>68</ele>
        <time>2025-04-26T14:05:40Z</time>
      </trkpt>
      <trkpt lat="45.61789" lon="-1.04221">
        <ele>68</ele>
        <time>2025-04-26T14:05:41Z</time>
      </trkpt>
      <trkpt lat="45.6179" lon="-1.04223">
        <ele>68</ele>
        <time>2025-04-26T14:05:42Z</time>
      </trkpt>
      <trkpt lat="45.61791" lon="-1.04225">
        <ele>68</ele>
        <time>2025-04-26T14:05:43Z</time>
      </trkpt>
      <trkpt lat="45.61792" lon="-1.04228">
        <ele>68</ele>
        <time>2025-04-26T14:05:44Z</time>
      </trkpt>
      <trkpt lat="45.61793" lon="-1.0423">
        <ele>68</ele>
        <time>2025-04-26T14:05:45Z</time>
      </trkpt>
      <trkpt lat="45.61793" lon="-1.04233">
        <ele>68</ele>
        <time>2025-04-26T14:05:46Z</time>
      </trkpt>
      <trkpt lat="45.61794" lon="-1.04235">
        <ele>68</ele>
        <time>2025-04-26T14:05:47Z</time>
      </trkpt>
      <trkpt lat="45.61794" lon="-1.04238">
        <ele>69</ele>
        <time>2025-04-26T14:05:48Z</time>
      </trkpt>
      <trkpt lat="45.61796" lon="-1.0424">
        <ele>69</ele>
        <time>2025-04-26T14:05:49Z</time>
      </trkpt>
      <trkpt lat="45.61798" lon="-1.04242">
        <ele>69</ele>
        <time>2025-04-26T14:05:50Z</time>
      </trkpt>
      <trkpt lat="45.61799" lon="-1.04244">
        <ele>69</ele>
        <time>2025-04-26T14:05:51Z</time>
      </trkpt>
      <trkpt lat="45.61801" lon="-1.04246">
        <ele>69</ele>
        <time>2025-04-26T14:05:52Z</time>
      </trkpt>
      <trkpt lat="45.61803" lon="-1.04248">
        <ele>68</ele>
        <time>2025-04-26T14:05:53Z</time>
      </trkpt>
      <trkpt lat="45.61805" lon="-1.04249">
        <ele>68</ele>
        <time>2025-04-26T14:05:54Z</time>
      </trkpt>
      <trkpt lat="45.61807" lon="-1.0425">
        <ele>68</ele>
        <time>2025-04-26T14:05:55Z</time>
      </trkpt>
      <trkpt lat="45.6181" lon="-1.04251">
        <ele>68</ele>
        <time>2025-04-26T14:05:56Z</time>
      </trkpt>
      <trkpt lat="45.61812" lon="-1.04252">
        <ele>67</ele>
        <time>2025-04-26T14:05:57Z</time>
      </trkpt>
      <trkpt lat="45.61814" lon="-1.04253">
        <ele>67</ele>
        <time>2025-04-26T14:05:58Z</time>
      </trkpt>
      <trkpt lat="45.61816" lon="-1.04255">
        <ele>67</ele>
        <time>2025-04-26T14:05:59Z</time>
      </trkpt>
      <trkpt lat="45.61818" lon="-1.04256">
        <ele>66</ele>
        <time>2025-04-26T14:06:00Z</time>
      </trkpt>
      <trkpt lat="45.6182" lon="-1.04257">
        <ele>66</ele>
        <time>2025-04-26T14:06:01Z</time>
      </trkpt>
      <trkpt lat="45.61823" lon="-1.04258">
        <ele>66</ele>
        <time>2025-04-26T14:06:02Z</time>
      </trkpt>
      <trkpt lat="45.61825" lon="-1.04259">
        <ele>65</ele>
        <time>2025-04-26T14:06:03Z</time>
      </trkpt>
      <trkpt lat="45.61827" lon="-1.0426">
        <ele>65</ele>
        <time>2025-04-26T14:06:04Z</time>
      </trkpt>
      <trkpt lat="45.61829" lon="-1.0426">
        <ele>65</ele>
        <time>2025-04-26T14:06:05Z</time>
      </trkpt>
      <trkpt lat="45.61831" lon="-1.04261">
        <ele>64</ele>
        <time>2025-04-26T14:06:06Z</time>
      </trkpt>
      <trkpt lat="45.61834" lon="-1.04261">
        <ele>64</ele>
        <time>2025-04-26T14:06:07Z</time>
      </trkpt>
      <trkpt lat="45.61836" lon="-1.04262">
        <ele>64</ele>
        <time>2025-04-26T14:06:08Z</time>
      </trkpt>
      <trkpt lat="45.61838" lon="-1.04262">
        <ele>63</ele>
        <time>2025-04-26T14:06:09Z</time>
      </trkpt>
      <trkpt lat="45.6184" lon="-1.04264">
        <ele>63</ele>
        <time>2025-04-26T14:06:10Z</time>
      </trkpt>
      <trkpt lat="45.61842" lon="-1.04265">
        <ele>62</ele>
        <time>2025-04-26T14:06:11Z</time>
      </trkpt>
      <trkpt lat="45.61844" lon="-1.04266">
        <ele>62</ele>
        <time>2025-04-26T14:06:12Z</time>
      </trkpt>
      <trkpt lat="45.61846" lon="-1.04267">
        <ele>62</ele>
        <time>2025-04-26T14:06:13Z</time>
      </trkpt>
      <trkpt lat="45.61848" lon="-1.04268">
        <ele>62</ele>
        <time>2025-04-26T14:06:14Z</time>
      </trkpt>
      <trkpt lat="45.61851" lon="-1.04268">
        <ele>62</ele>
        <time>2025-04-26T14:06:15Z</time>
      </trkpt>
      <trkpt lat="45.61853" lon="-1.04267">
        <ele>61</ele>
        <time>2025-04-26T14:06:16Z</time>
      </trkpt>
      <trkpt lat="45.61856" lon="-1.04267">
        <ele>61</ele>
        <time>2025-04-26T14:06:17Z</time>
      </trkpt>
      <trkpt lat="45.61859" lon="-1.04267">
        <ele>61</ele>
        <time>2025-04-26T14:06:18Z</time>
      </trkpt>
      <trkpt lat="45.61862" lon="-1.04267">
        <ele>61</ele>
        <time>2025-04-26T14:06:19Z</time>
      </trkpt>
      <trkpt lat="45.61866" lon="-1.04265">
        <ele>61</ele>
        <time>2025-04-26T14:06:20Z</time>
      </trkpt>
      <trkpt lat="45.61869" lon="-1.04263">
        <ele>61</ele>
        <time>2025-04-26T14:06:21Z</time>
      </trkpt>
      <trkpt lat="45.61871" lon="-1.04261">
        <ele>62</ele>
        <time>2025-04-26T14:06:22Z</time>
      </trkpt>
      <trkpt lat="45.61874" lon="-1.04258">
        <ele>63</ele>
        <time>2025-04-26T14:06:23Z</time>
      </trkpt>
      <trkpt lat="45.61876" lon="-1.04255">
        <ele>63</ele>
        <time>2025-04-26T14:06:24Z</time>
      </trkpt>
      <trkpt lat="45.61878" lon="-1.04251">
        <ele>64</ele>
        <time>2025-04-26T14:06:25Z</time>
      </trkpt>
      <trkpt lat="45.6188" lon="-1.04247">
        <ele>65</ele>
        <time>2025-04-26T14:06:26Z</time>
      </trkpt>
      <trkpt lat="45.61881" lon="-1.04244">
        <ele>66</ele>
        <time>2025-04-26T14:06:27Z</time>
      </trkpt>
      <trkpt lat="45.61883" lon="-1.0424">
        <ele>67</ele>
        <time>2025-04-26T14:06:28Z</time>
      </trkpt>
      <trkpt lat="45.61885" lon="-1.04236">
        <ele>67</ele>
        <time>2025-04-26T14:06:29Z</time>
      </trkpt>
      <trkpt lat="45.61887" lon="-1.04232">
        <ele>68</ele>
        <time>2025-04-26T14:06:30Z</time>
      </trkpt>
      <trkpt lat="45.61889" lon="-1.04228">
        <ele>68</ele>
        <time>2025-04-26T14:06:31Z</time>
      </trkpt>
      <trkpt lat="45.61891" lon="-1.04225">
        <ele>67</ele>
        <time>2025-04-26T14:06:32Z</time>
      </trkpt>
      <trkpt lat="45.61893" lon="-1.04221">
        <ele>67</ele>
        <time>2025-04-26T14:06:33Z</time>
      </trkpt>
      <trkpt lat="45.61896" lon="-1.04217">
        <ele>66</ele>
        <time>2025-04-26T14:06:34Z</time>
      </trkpt>
      <trkpt lat="45.61899" lon="-1.04215">
        <ele>66</ele>
        <time>2025-04-26T14:06:35Z</time>
      </trkpt>
      <trkpt lat="45.61903" lon="-1.04213">
        <ele>67</ele>
        <time>2025-04-26T14:06:36Z</time>
      </trkpt>
      <trkpt lat="45.61906" lon="-1.04213">
        <ele>68</ele>
        <time>2025-04-26T14:06:37Z</time>
      </trkpt>
      <trkpt lat="45.61909" lon="-1.04213">
        <ele>68</ele>
        <time>2025-04-26T14:06:38Z</time>
      </trkpt>
      <trkpt lat="45.61912" lon="-1.04213">
        <ele>67</ele>
        <time>2025-04-26T14:06:39Z</time>
      </trkpt>
      <trkpt lat="45.61916" lon="-1.04212">
        <ele>67</ele>
        <time>2025-04-26T14:06:40Z</time>
      </trkpt>
      <trkpt lat="45.61919" lon="-1.04211">
        <ele>67</ele>
        <time>2025-04-26T14:06:41Z</time>
      </trkpt>
      <trkpt lat="45.61922" lon="-1.0421">
        <ele>67</ele>
        <time>2025-04-26T14:06:42Z</time>
      </trkpt>
      <trkpt lat="45.61925" lon="-1.0421">
        <ele>67</ele>
        <time>2025-04-26T14:06:43Z</time>
      </trkpt>
      <trkpt lat="45.61928" lon="-1.04211">
        <ele>67</ele>
        <time>2025-04-26T14:06:44Z</time>
      </trkpt>
      <trkpt lat="45.61931" lon="-1.0421">
        <ele>66</ele>
        <time>2025-04-26T14:06:45Z</time>
      </trkpt>
      <trkpt lat="45.61934" lon="-1.0421">
        <ele>65</ele>
        <time>2025-04-26T14:06:46Z</time>
      </trkpt>
      <trkpt lat="45.61937" lon="-1.0421">
        <ele>65</ele>
        <time>2025-04-26T14:06:47Z</time>
      </trkpt>
      <trkpt lat="45.6194" lon="-1.0421">
        <ele>65</ele>
        <time>2025-04-26T14:06:48Z</time>
      </trkpt>
      <trkpt lat="45.61943" lon="-1.04209">
        <ele>64</ele>
        <time>2025-04-26T14:06:49Z</time>
      </trkpt>
      <trkpt lat="45.61946" lon="-1.04209">
        <ele>64</ele>
        <time>2025-04-26T14:06:50Z</time>
      </trkpt>
      <trkpt lat="45.61949" lon="-1.04208">
        <ele>64</ele>
        <time>2025-04-26T14:06:51Z</time>
      </trkpt>
      <trkpt lat="45.61952" lon="-1.04208">
        <ele>64</ele>
        <time>2025-04-26T14:06:52Z</time>
      </trkpt>
      <trkpt lat="45.61955" lon="-1.04209">
        <ele>64</ele>
        <time>2025-04-26T14:06:53Z</time>
      </trkpt>
      <trkpt lat="45.61958" lon="-1.04209">
        <ele>64</ele>
        <time>2025-04-26T14:06:54Z</time>
      </trkpt>
      <trkpt lat="45.61961" lon="-1.04209">
        <ele>64</ele>
        <time>2025-04-26T14:06:55Z</time>
      </trkpt>
      <trkpt lat="45.61964" lon="-1.04209">
        <ele>64</ele>
        <time>2025-04-26T14:06:56Z</time>
      </trkpt>
      <trkpt lat="45.61967" lon="-1.04209">
        <ele>64</ele>
        <time>2025-04-26T14:06:57Z</time>
      </trkpt>
      <trkpt lat="45.6197" lon="-1.04208">
        <ele>64</ele>
        <time>2025-04-26T14:06:58Z</time>
      </trkpt>
      <trkpt lat="45.61974" lon="-1.04206">
        <ele>63</ele>
        <time>2025-04-26T14:06:59Z</time>
      </trkpt>
      <trkpt lat="45.61978" lon="-1.04203">
        <ele>63</ele>
        <time>2025-04-26T14:07:00Z</time>
      </trkpt>
      <trkpt lat="45.61981" lon="-1.04203">
        <ele>63</ele>
        <time>2025-04-26T14:07:01Z</time>
      </trkpt>
      <trkpt lat="45.61984" lon="-1.04203">
        <ele>63</ele>
        <time>2025-04-26T14:07:02Z</time>
      </trkpt>
      <trkpt lat="45.61986" lon="-1.04203">
        <ele>63</ele>
        <time>2025-04-26T14:07:03Z</time>
      </trkpt>
      <trkpt lat="45.61989" lon="-1.04203">
        <ele>63</ele>
        <time>2025-04-26T14:07:04Z</time>
      </trkpt>
      <trkpt lat="45.61991" lon="-1.04204">
        <ele>63</ele>
        <time>2025-04-26T14:07:05Z</time>
      </trkpt>
      <trkpt lat="45.61993" lon="-1.04204">
        <ele>64</ele>
        <time>2025-04-26T14:07:06Z</time>
      </trkpt>
      <trkpt lat="45.61995" lon="-1.04204">
        <ele>64</ele>
        <time>2025-04-26T14:07:07Z</time>
      </trkpt>
      <trkpt lat="45.61998" lon="-1.04205">
        <ele>65</ele>
        <time>2025-04-26T14:07:08Z</time>
      </trkpt>
      <trkpt lat="45.62001" lon="-1.04204">
        <ele>65</ele>
        <time>2025-04-26T14:07:09Z</time>
      </trkpt>
      <trkpt lat="45.62003" lon="-1.04204">
        <ele>65</ele>
        <time>2025-04-26T14:07:10Z</time>
      </trkpt>
      <trkpt lat="45.62006" lon="-1.04203">
        <ele>65</ele>
        <time>2025-04-26T14:07:11Z</time>
      </trkpt>
      <trkpt lat="45.62007" lon="-1.04201">
        <ele>65</ele>
        <time>2025-04-26T14:07:12Z</time>
      </trkpt>
      <trkpt lat="45.62009" lon="-1.04199">
        <ele>65</ele>
        <time>2025-04-26T14:07:13Z</time>
      </trkpt>
      <trkpt lat="45.6201" lon="-1.04197">
        <ele>66</ele>
        <time>2025-04-26T14:07:14Z</time>
      </trkpt>
      <trkpt lat="45.62011" lon="-1.04194">
        <ele>65</ele>
        <time>2025-04-26T14:07:15Z</time>
      </trkpt>
      <trkpt lat="45.62013" lon="-1.04192">
        <ele>65</ele>
        <time>2025-04-26T14:07:16Z</time>
      </trkpt>
      <trkpt lat="45.62015" lon="-1.04192">
        <ele>65</ele>
        <time>2025-04-26T14:07:17Z</time>
      </trkpt>
      <trkpt lat="45.62016" lon="-1.04193">
        <ele>65</ele>
        <time>2025-04-26T14:07:18Z</time>
      </trkpt>
      <trkpt lat="45.62018" lon="-1.04195">
        <ele>65</ele>
        <time>2025-04-26T14:07:19Z</time>
      </trkpt>
      <trkpt lat="45.6202" lon="-1.04197">
        <ele>65</ele>
        <time>2025-04-26T14:07:20Z</time>
      </trkpt>
      <trkpt lat="45.62022" lon="-1.04199">
        <ele>65</ele>
        <time>2025-04-26T14:07:21Z</time>
      </trkpt>
      <trkpt lat="45.62024" lon="-1.04201">
        <ele>65</ele>
        <time>2025-04-26T14:07:22Z</time>
      </trkpt>
      <trkpt lat="45.62026" lon="-1.04204">
        <ele>65</ele>
        <time>2025-04-26T14:07:23Z</time>
      </trkpt>
      <trkpt lat="45.62028" lon="-1.04206">
        <ele>66</ele>
        <time>2025-04-26T14:07:24Z</time>
      </trkpt>
      <trkpt lat="45.6203" lon="-1.04208">
        <ele>65</ele>
        <time>2025-04-26T14:07:25Z</time>
      </trkpt>
      <trkpt lat="45.62032" lon="-1.0421">
        <ele>65</ele>
        <time>2025-04-26T14:07:26Z</time>
      </trkpt>
      <trkpt lat="45.62035" lon="-1.04212">
        <ele>65</ele>
        <time>2025-04-26T14:07:27Z</time>
      </trkpt>
      <trkpt lat="45.62037" lon="-1.04215">
        <ele>65</ele>
        <time>2025-04-26T14:07:28Z</time>
      </trkpt>
      <trkpt lat="45.6204" lon="-1.04218">
        <ele>65</ele>
        <time>2025-04-26T14:07:29Z</time>
      </trkpt>
      <trkpt lat="45.62042" lon="-1.04221">
        <ele>65</ele>
        <time>2025-04-26T14:07:30Z</time>
      </trkpt>
      <trkpt lat="45.62044" lon="-1.04223">
        <ele>65</ele>
        <time>2025-04-26T14:07:31Z</time>
      </trkpt>
      <trkpt lat="45.62046" lon="-1.04226">
        <ele>65</ele>
        <time>2025-04-26T14:07:32Z</time>
      </trkpt>
      <trkpt lat="45.62049" lon="-1.04228">
        <ele>65</ele>
        <time>2025-04-26T14:07:33Z</time>
      </trkpt>
      <trkpt lat="45.62051" lon="-1.0423">
        <ele>65</ele>
        <time>2025-04-26T14:07:34Z</time>
      </trkpt>
      <trkpt lat="45.62054" lon="-1.04232">
        <ele>65</ele>
        <time>2025-04-26T14:07:35Z</time>
      </trkpt>
      <trkpt lat="45.62057" lon="-1.04233">
        <ele>65</ele>
        <time>2025-04-26T14:07:36Z</time>
      </trkpt>
      <trkpt lat="45.6206" lon="-1.04235">
        <ele>65</ele>
        <time>2025-04-26T14:07:37Z</time>
      </trkpt>
      <trkpt lat="45.62062" lon="-1.04237">
        <ele>65</ele>
        <time>2025-04-26T14:07:38Z</time>
      </trkpt>
      <trkpt lat="45.62064" lon="-1.0424">
        <ele>65</ele>
        <time>2025-04-26T14:07:39Z</time>
      </trkpt>
      <trkpt lat="45.62065" lon="-1.04244">
        <ele>65</ele>
        <time>2025-04-26T14:07:40Z</time>
      </trkpt>
      <trkpt lat="45.62066" lon="-1.04248">
        <ele>65</ele>
        <time>2025-04-26T14:07:41Z</time>
      </trkpt>
      <trkpt lat="45.62066" lon="-1.04252">
        <ele>65</ele>
        <time>2025-04-26T14:07:42Z</time>
      </trkpt>
      <trkpt lat="45.62065" lon="-1.04257">
        <ele>65</ele>
        <time>2025-04-26T14:07:43Z</time>
      </trkpt>
      <trkpt lat="45.62063" lon="-1.04261">
        <ele>63</ele>
        <time>2025-04-26T14:07:44Z</time>
      </trkpt>
      <trkpt lat="45.62061" lon="-1.04264">
        <ele>63</ele>
        <time>2025-04-26T14:07:45Z</time>
      </trkpt>
      <trkpt lat="45.62058" lon="-1.04267">
        <ele>62</ele>
        <time>2025-04-26T14:07:46Z</time>
      </trkpt>
      <trkpt lat="45.62056" lon="-1.04269">
        <ele>62</ele>
        <time>2025-04-26T14:07:47Z</time>
      </trkpt>
      <trkpt lat="45.62053" lon="-1.04272">
        <ele>61</ele>
        <time>2025-04-26T14:07:48Z</time>
      </trkpt>
      <trkpt lat="45.6205" lon="-1.04275">
        <ele>61</ele>
        <time>2025-04-26T14:07:49Z</time>
      </trkpt>
      <trkpt lat="45.62048" lon="-1.04277">
        <ele>60</ele>
        <time>2025-04-26T14:07:50Z</time>
      </trkpt>
      <trkpt lat="45.62045" lon="-1.0428">
        <ele>60</ele>
        <time>2025-04-26T14:07:51Z</time>
      </trkpt>
      <trkpt lat="45.62043" lon="-1.04283">
        <ele>61</ele>
        <time>2025-04-26T14:07:52Z</time>
      </trkpt>
      <trkpt lat="45.6204" lon="-1.04286">
        <ele>60</ele>
        <time>2025-04-26T14:07:53Z</time>
      </trkpt>
      <trkpt lat="45.62037" lon="-1.04288">
        <ele>61</ele>
        <time>2025-04-26T14:07:54Z</time>
      </trkpt>
      <trkpt lat="45.62035" lon="-1.04292">
        <ele>60</ele>
        <time>2025-04-26T14:07:55Z</time>
      </trkpt>
      <trkpt lat="45.62032" lon="-1.04295">
        <ele>61</ele>
        <time>2025-04-26T14:07:56Z</time>
      </trkpt>
      <trkpt lat="45.62031" lon="-1.04299">
        <ele>61</ele>
        <time>2025-04-26T14:07:57Z</time>
      </trkpt>
      <trkpt lat="45.6203" lon="-1.04302">
        <ele>61</ele>
        <time>2025-04-26T14:07:58Z</time>
      </trkpt>
      <trkpt lat="45.62029" lon="-1.04306">
        <ele>61</ele>
        <time>2025-04-26T14:07:59Z</time>
      </trkpt>
      <trkpt lat="45.62028" lon="-1.0431">
        <ele>62</ele>
        <time>2025-04-26T14:08:00Z</time>
      </trkpt>
      <trkpt lat="45.62029" lon="-1.04313">
        <ele>62</ele>
        <time>2025-04-26T14:08:01Z</time>
      </trkpt>
      <trkpt lat="45.62031" lon="-1.04317">
        <ele>62</ele>
        <time>2025-04-26T14:08:02Z</time>
      </trkpt>
      <trkpt lat="45.62032" lon="-1.0432">
        <ele>63</ele>
        <time>2025-04-26T14:08:03Z</time>
      </trkpt>
      <trkpt lat="45.62034" lon="-1.04323">
        <ele>63</ele>
        <time>2025-04-26T14:08:04Z</time>
      </trkpt>
      <trkpt lat="45.62036" lon="-1.04327">
        <ele>63</ele>
        <time>2025-04-26T14:08:05Z</time>
      </trkpt>
      <trkpt lat="45.62038" lon="-1.0433">
        <ele>63</ele>
        <time>2025-04-26T14:08:06Z</time>
      </trkpt>
      <trkpt lat="45.6204" lon="-1.04334">
        <ele>63</ele>
        <time>2025-04-26T14:08:07Z</time>
      </trkpt>
      <trkpt lat="45.62041" lon="-1.04338">
        <ele>63</ele>
        <time>2025-04-26T14:08:08Z</time>
      </trkpt>
      <trkpt lat="45.62043" lon="-1.04341">
        <ele>63</ele>
        <time>2025-04-26T14:08:09Z</time>
      </trkpt>
      <trkpt lat="45.62045" lon="-1.04345">
        <ele>63</ele>
        <time>2025-04-26T14:08:10Z</time>
      </trkpt>
      <trkpt lat="45.62047" lon="-1.04349">
        <ele>64</ele>
        <time>2025-04-26T14:08:11Z</time>
      </trkpt>
      <trkpt lat="45.62049" lon="-1.04353">
        <ele>64</ele>
        <time>2025-04-26T14:08:12Z</time>
      </trkpt>
      <trkpt lat="45.62051" lon="-1.04357">
        <ele>64</ele>
        <time>2025-04-26T14:08:13Z</time>
      </trkpt>
      <trkpt lat="45.62053" lon="-1.04361">
        <ele>64</ele>
        <time>2025-04-26T14:08:14Z</time>
      </trkpt>
      <trkpt lat="45.62055" lon="-1.04365">
        <ele>63</ele>
        <time>2025-04-26T14:08:15Z</time>
      </trkpt>
      <trkpt lat="45.62057" lon="-1.0437">
        <ele>63</ele>
        <time>2025-04-26T14:08:16Z</time>
      </trkpt>
      <trkpt lat="45.62059" lon="-1.04374">
        <ele>63</ele>
        <time>2025-04-26T14:08:17Z</time>
      </trkpt>
      <trkpt lat="45.62062" lon="-1.04378">
        <ele>63</ele>
        <time>2025-04-26T14:08:18Z</time>
      </trkpt>
      <trkpt lat="45.62063" lon="-1.04383">
        <ele>63</ele>
        <time>2025-04-26T14:08:19Z</time>
      </trkpt>
      <trkpt lat="45.62065" lon="-1.04387">
        <ele>63</ele>
        <time>2025-04-26T14:08:20Z</time>
      </trkpt>
      <trkpt lat="45.62067" lon="-1.04392">
        <ele>63</ele>
        <time>2025-04-26T14:08:21Z</time>
      </trkpt>
      <trkpt lat="45.62069" lon="-1.04397">
        <ele>63</ele>
        <time>2025-04-26T14:08:22Z</time>
      </trkpt>
      <trkpt lat="45.62069" lon="-1.04403">
        <ele>63</ele>
        <time>2025-04-26T14:08:23Z</time>
      </trkpt>
      <trkpt lat="45.62069" lon="-1.04408">
        <ele>63</ele>
        <time>2025-04-26T14:08:24Z</time>
      </trkpt>
      <trkpt lat="45.62069" lon="-1.04414">
        <ele>63</ele>
        <time>2025-04-26T14:08:25Z</time>
      </trkpt>
      <trkpt lat="45.62068" lon="-1.04419">
        <ele>63</ele>
        <time>2025-04-26T14:08:26Z</time>
      </trkpt>
      <trkpt lat="45.62067" lon="-1.04425">
        <ele>63</ele>
        <time>2025-04-26T14:08:27Z</time>
      </trkpt>
      <trkpt lat="45.62064" lon="-1.04431">
        <ele>63</ele>
        <time>2025-04-26T14:08:28Z</time>
      </trkpt>
      <trkpt lat="45.62062" lon="-1.04436">
        <ele>62</ele>
        <time>2025-04-26T14:08:29Z</time>
      </trkpt>
      <trkpt lat="45.62059" lon="-1.0444">
        <ele>62</ele>
        <time>2025-04-26T14:08:30Z</time>
      </trkpt>
      <trkpt lat="45.62055" lon="-1.04444">
        <ele>62</ele>
        <time>2025-04-26T14:08:31Z</time>
      </trkpt>
      <trkpt lat="45.62051" lon="-1.04447">
        <ele>61</ele>
        <time>2025-04-26T14:08:32Z</time>
      </trkpt>
      <trkpt lat="45.62048" lon="-1.04451">
        <ele>61</ele>
        <time>2025-04-26T14:08:33Z</time>
      </trkpt>
      <trkpt lat="45.62045" lon="-1.04456">
        <ele>61</ele>
        <time>2025-04-26T14:08:34Z</time>
      </trkpt>
      <trkpt lat="45.62044" lon="-1.04461">
        <ele>61</ele>
        <time>2025-04-26T14:08:35Z</time>
      </trkpt>
      <trkpt lat="45.62042" lon="-1.04468">
        <ele>61</ele>
        <time>2025-04-26T14:08:36Z</time>
      </trkpt>
      <trkpt lat="45.62042" lon="-1.04474">
        <ele>61</ele>
        <time>2025-04-26T14:08:37Z</time>
      </trkpt>
      <trkpt lat="45.62042" lon="-1.0448">
        <ele>61</ele>
        <time>2025-04-26T14:08:38Z</time>
      </trkpt>
      <trkpt lat="45.62043" lon="-1.04486">
        <ele>62</ele>
        <time>2025-04-26T14:08:39Z</time>
      </trkpt>
      <trkpt lat="45.62045" lon="-1.04491">
        <ele>62</ele>
        <time>2025-04-26T14:08:40Z</time>
      </trkpt>
      <trkpt lat="45.62046" lon="-1.04497">
        <ele>62</ele>
        <time>2025-04-26T14:08:41Z</time>
      </trkpt>
      <trkpt lat="45.62048" lon="-1.04502">
        <ele>63</ele>
        <time>2025-04-26T14:08:42Z</time>
      </trkpt>
      <trkpt lat="45.62049" lon="-1.04507">
        <ele>63</ele>
        <time>2025-04-26T14:08:43Z</time>
      </trkpt>
      <trkpt lat="45.62051" lon="-1.04512">
        <ele>64</ele>
        <time>2025-04-26T14:08:44Z</time>
      </trkpt>
      <trkpt lat="45.62053" lon="-1.04517">
        <ele>64</ele>
        <time>2025-04-26T14:08:45Z</time>
      </trkpt>
      <trkpt lat="45.62054" lon="-1.04522">
        <ele>64</ele>
        <time>2025-04-26T14:08:46Z</time>
      </trkpt>
      <trkpt lat="45.62055" lon="-1.04526">
        <ele>64</ele>
        <time>2025-04-26T14:08:47Z</time>
      </trkpt>
      <trkpt lat="45.62056" lon="-1.04531">
        <ele>65</ele>
        <time>2025-04-26T14:08:48Z</time>
      </trkpt>
      <trkpt lat="45.62057" lon="-1.04535">
        <ele>65</ele>
        <time>2025-04-26T14:08:49Z</time>
      </trkpt>
      <trkpt lat="45.62059" lon="-1.04539">
        <ele>65</ele>
        <time>2025-04-26T14:08:50Z</time>
      </trkpt>
      <trkpt lat="45.6206" lon="-1.04544">
        <ele>65</ele>
        <time>2025-04-26T14:08:51Z</time>
      </trkpt>
      <trkpt lat="45.6206" lon="-1.04548">
        <ele>65</ele>
        <time>2025-04-26T14:08:52Z</time>
      </trkpt>
      <trkpt lat="45.62061" lon="-1.04553">
        <ele>65</ele>
        <time>2025-04-26T14:08:53Z</time>
      </trkpt>
      <trkpt lat="45.62062" lon="-1.04558">
        <ele>65</ele>
        <time>2025-04-26T14:08:54Z</time>
      </trkpt>
      <trkpt lat="45.62062" lon="-1.04563">
        <ele>65</ele>
        <time>2025-04-26T14:08:55Z</time>
      </trkpt>
      <trkpt lat="45.62063" lon="-1.04567">
        <ele>65</ele>
        <time>2025-04-26T14:08:56Z</time>
      </trkpt>
      <trkpt lat="45.62064" lon="-1.04572">
        <ele>65</ele>
        <time>2025-04-26T14:08:57Z</time>
      </trkpt>
      <trkpt lat="45.62065" lon="-1.04577">
        <ele>65</ele>
        <time>2025-04-26T14:08:58Z</time>
      </trkpt>
      <trkpt lat="45.62066" lon="-1.04581">
        <ele>65</ele>
        <time>2025-04-26T14:08:59Z</time>
      </trkpt>
      <trkpt lat="45.62069" lon="-1.04585">
        <ele>65</ele>
        <time>2025-04-26T14:09:00Z</time>
      </trkpt>
      <trkpt lat="45.62071" lon="-1.04589">
        <ele>64</ele>
        <time>2025-04-26T14:09:01Z</time>
      </trkpt>
      <trkpt lat="45.62075" lon="-1.04591">
        <ele>64</ele>
        <time>2025-04-26T14:09:02Z</time>
      </trkpt>
      <trkpt lat="45.62079" lon="-1.04593">
        <ele>64</ele>
        <time>2025-04-26T14:09:03Z</time>
      </trkpt>
      <trkpt lat="45.62082" lon="-1.04595">
        <ele>64</ele>
        <time>2025-04-26T14:09:04Z</time>
      </trkpt>
      <trkpt lat="45.62086" lon="-1.04596">
        <ele>64</ele>
        <time>2025-04-26T14:09:05Z</time>
      </trkpt>
      <trkpt lat="45.6209" lon="-1.04598">
        <ele>64</ele>
        <time>2025-04-26T14:09:06Z</time>
      </trkpt>
      <trkpt lat="45.62094" lon="-1.04599">
        <ele>64</ele>
        <time>2025-04-26T14:09:07Z</time>
      </trkpt>
      <trkpt lat="45.62097" lon="-1.046">
        <ele>64</ele>
        <time>2025-04-26T14:09:08Z</time>
      </trkpt>
      <trkpt lat="45.62101" lon="-1.046">
        <ele>64</ele>
        <time>2025-04-26T14:09:09Z</time>
      </trkpt>
      <trkpt lat="45.62104" lon="-1.04602">
        <ele>64</ele>
        <time>2025-04-26T14:09:10Z</time>
      </trkpt>
      <trkpt lat="45.62108" lon="-1.04603">
        <ele>64</ele>
        <time>2025-04-26T14:09:11Z</time>
      </trkpt>
      <trkpt lat="45.62111" lon="-1.04604">
        <ele>64</ele>
        <time>2025-04-26T14:09:12Z</time>
      </trkpt>
      <trkpt lat="45.62115" lon="-1.04605">
        <ele>64</ele>
        <time>2025-04-26T14:09:13Z</time>
      </trkpt>
      <trkpt lat="45.62119" lon="-1.04608">
        <ele>64</ele>
        <time>2025-04-26T14:09:14Z</time>
      </trkpt>
      <trkpt lat="45.62122" lon="-1.04611">
        <ele>63</ele>
        <time>2025-04-26T14:09:15Z</time>
      </trkpt>
      <trkpt lat="45.62125" lon="-1.04613">
        <ele>63</ele>
        <time>2025-04-26T14:09:16Z</time>
      </trkpt>
      <trkpt lat="45.62129" lon="-1.04616">
        <ele>63</ele>
        <time>2025-04-26T14:09:17Z</time>
      </trkpt>
      <trkpt lat="45.62132" lon="-1.04619">
        <ele>64</ele>
        <time>2025-04-26T14:09:18Z</time>
      </trkpt>
      <trkpt lat="45.62135" lon="-1.04621">
        <ele>63</ele>
        <time>2025-04-26T14:09:19Z</time>
      </trkpt>
      <trkpt lat="45.62139" lon="-1.04623">
        <ele>63</ele>
        <time>2025-04-26T14:09:20Z</time>
      </trkpt>
      <trkpt lat="45.62143" lon="-1.04623">
        <ele>62</ele>
        <time>2025-04-26T14:09:21Z</time>
      </trkpt>
      <trkpt lat="45.62148" lon="-1.04622">
        <ele>62</ele>
        <time>2025-04-26T14:09:22Z</time>
      </trkpt>
      <trkpt lat="45.62152" lon="-1.04621">
        <ele>62</ele>
        <time>2025-04-26T14:09:23Z</time>
      </trkpt>
      <trkpt lat="45.62156" lon="-1.04619">
        <ele>61</ele>
        <time>2025-04-26T14:09:24Z</time>
      </trkpt>
      <trkpt lat="45.62161" lon="-1.04617">
        <ele>61</ele>
        <time>2025-04-26T14:09:25Z</time>
      </trkpt>
      <trkpt lat="45.62165" lon="-1.04616">
        <ele>61</ele>
        <time>2025-04-26T14:09:26Z</time>
      </trkpt>
      <trkpt lat="45.6217" lon="-1.04616">
        <ele>61</ele>
        <time>2025-04-26T14:09:27Z</time>
      </trkpt>
      <trkpt lat="45.62176" lon="-1.04616">
        <ele>61</ele>
        <time>2025-04-26T14:09:28Z</time>
      </trkpt>
      <trkpt lat="45.62181" lon="-1.04619">
        <ele>61</ele>
        <time>2025-04-26T14:09:29Z</time>
      </trkpt>
      <trkpt lat="45.62186" lon="-1.04623">
        <ele>60</ele>
        <time>2025-04-26T14:09:30Z</time>
      </trkpt>
      <trkpt lat="45.62191" lon="-1.04629">
        <ele>60</ele>
        <time>2025-04-26T14:09:31Z</time>
      </trkpt>
      <trkpt lat="45.62194" lon="-1.04636">
        <ele>60</ele>
        <time>2025-04-26T14:09:32Z</time>
      </trkpt>
      <trkpt lat="45.62197" lon="-1.04644">
        <ele>61</ele>
        <time>2025-04-26T14:09:33Z</time>
      </trkpt>
      <trkpt lat="45.622" lon="-1.04651">
        <ele>60</ele>
        <time>2025-04-26T14:09:34Z</time>
      </trkpt>
      <trkpt lat="45.62203" lon="-1.04658">
        <ele>60</ele>
        <time>2025-04-26T14:09:35Z</time>
      </trkpt>
      <trkpt lat="45.62205" lon="-1.04665">
        <ele>60</ele>
        <time>2025-04-26T14:09:36Z</time>
      </trkpt>
      <trkpt lat="45.62207" lon="-1.04672">
        <ele>60</ele>
        <time>2025-04-26T14:09:37Z</time>
      </trkpt>
      <trkpt lat="45.62209" lon="-1.04679">
        <ele>60</ele>
        <time>2025-04-26T14:09:38Z</time>
      </trkpt>
      <trkpt lat="45.6221" lon="-1.04685">
        <ele>61</ele>
        <time>2025-04-26T14:09:39Z</time>
      </trkpt>
      <trkpt lat="45.6221" lon="-1.04691">
        <ele>62</ele>
        <time>2025-04-26T14:09:40Z</time>
      </trkpt>
      <trkpt lat="45.62211" lon="-1.04697">
        <ele>62</ele>
        <time>2025-04-26T14:09:41Z</time>
      </trkpt>
      <trkpt lat="45.6221" lon="-1.04702">
        <ele>62</ele>
        <time>2025-04-26T14:09:42Z</time>
      </trkpt>
      <trkpt lat="45.62208" lon="-1.04707">
        <ele>62</ele>
        <time>2025-04-26T14:09:43Z</time>
      </trkpt>
      <trkpt lat="45.62207" lon="-1.04711">
        <ele>63</ele>
        <time>2025-04-26T14:09:44Z</time>
      </trkpt>
      <trkpt lat="45.62204" lon="-1.04715">
        <ele>63</ele>
        <time>2025-04-26T14:09:45Z</time>
      </trkpt>
      <trkpt lat="45.62202" lon="-1.04719">
        <ele>63</ele>
        <time>2025-04-26T14:09:46Z</time>
      </trkpt>
      <trkpt lat="45.622" lon="-1.04723">
        <ele>62</ele>
        <time>2025-04-26T14:09:47Z</time>
      </trkpt>
      <trkpt lat="45.62197" lon="-1.04728">
        <ele>62</ele>
        <time>2025-04-26T14:09:48Z</time>
      </trkpt>
      <trkpt lat="45.62194" lon="-1.04733">
        <ele>61</ele>
        <time>2025-04-26T14:09:49Z</time>
      </trkpt>
      <trkpt lat="45.62192" lon="-1.04737">
        <ele>61</ele>
        <time>2025-04-26T14:09:50Z</time>
      </trkpt>
      <trkpt lat="45.62189" lon="-1.04742">
        <ele>61</ele>
        <time>2025-04-26T14:09:51Z</time>
      </trkpt>
      <trkpt lat="45.62186" lon="-1.04746">
        <ele>60</ele>
        <time>2025-04-26T14:09:52Z</time>
      </trkpt>
      <trkpt lat="45.62184" lon="-1.0475">
        <ele>60</ele>
        <time>2025-04-26T14:09:53Z</time>
      </trkpt>
      <trkpt lat="45.62181" lon="-1.04755">
        <ele>60</ele>
        <time>2025-04-26T14:09:54Z</time>
      </trkpt>
      <trkpt lat="45.62179" lon="-1.04759">
        <ele>60</ele>
        <time>2025-04-26T14:09:55Z</time>
      </trkpt>
      <trkpt lat="45.62176" lon="-1.04762">
        <ele>60</ele>
        <time>2025-04-26T14:09:56Z</time>
      </trkpt>
      <trkpt lat="45.62173" lon="-1.04766">
        <ele>59</ele>
        <time>2025-04-26T14:09:57Z</time>
      </trkpt>
      <trkpt lat="45.62171" lon="-1.04771">
        <ele>59</ele>
        <time>2025-04-26T14:09:58Z</time>
      </trkpt>
      <trkpt lat="45.62168" lon="-1.04775">
        <ele>59</ele>
        <time>2025-04-26T14:09:59Z</time>
      </trkpt>
      <trkpt lat="45.62166" lon="-1.04779">
        <ele>59</ele>
        <time>2025-04-26T14:10:00Z</time>
      </trkpt>
      <trkpt lat="45.62163" lon="-1.04783">
        <ele>59</ele>
        <time>2025-04-26T14:10:01Z</time>
      </trkpt>
      <trkpt lat="45.6216" lon="-1.04787">
        <ele>60</ele>
        <time>2025-04-26T14:10:02Z</time>
      </trkpt>
      <trkpt lat="45.62157" lon="-1.04791">
        <ele>60</ele>
        <time>2025-04-26T14:10:03Z</time>
      </trkpt>
      <trkpt lat="45.62155" lon="-1.04795">
        <ele>60</ele>
        <time>2025-04-26T14:10:04Z</time>
      </trkpt>
      <trkpt lat="45.62152" lon="-1.048">
        <ele>60</ele>
        <time>2025-04-26T14:10:05Z</time>
      </trkpt>
      <trkpt lat="45.6215" lon="-1.04804">
        <ele>60</ele>
        <time>2025-04-26T14:10:06Z</time>
      </trkpt>
      <trkpt lat="45.62147" lon="-1.04808">
        <ele>59</ele>
        <time>2025-04-26T14:10:07Z</time>
      </trkpt>
      <trkpt lat="45.62144" lon="-1.04813">
        <ele>59</ele>
        <time>2025-04-26T14:10:08Z</time>
      </trkpt>
      <trkpt lat="45.62142" lon="-1.04816">
        <ele>59</ele>
        <time>2025-04-26T14:10:09Z</time>
      </trkpt>
      <trkpt lat="45.62139" lon="-1.0482">
        <ele>59</ele>
        <time>2025-04-26T14:10:10Z</time>
      </trkpt>
      <trkpt lat="45.62136" lon="-1.04823">
        <ele>59</ele>
        <time>2025-04-26T14:10:11Z</time>
      </trkpt>
      <trkpt lat="45.62133" lon="-1.04825">
        <ele>59</ele>
        <time>2025-04-26T14:10:12Z</time>
      </trkpt>
      <trkpt lat="45.62128" lon="-1.04826">
        <ele>60</ele>
        <time>2025-04-26T14:10:13Z</time>
      </trkpt>
      <trkpt lat="45.62124" lon="-1.04827">
        <ele>60</ele>
        <time>2025-04-26T14:10:14Z</time>
      </trkpt>
      <trkpt lat="45.6212" lon="-1.04827">
        <ele>60</ele>
        <time>2025-04-26T14:10:15Z</time>
      </trkpt>
      <trkpt lat="45.62115" lon="-1.04828">
        <ele>60</ele>
        <time>2025-04-26T14:10:16Z</time>
      </trkpt>
      <trkpt lat="45.62111" lon="-1.04829">
        <ele>60</ele>
        <time>2025-04-26T14:10:17Z</time>
      </trkpt>
      <trkpt lat="45.62105" lon="-1.0483">
        <ele>60</ele>
        <time>2025-04-26T14:10:18Z</time>
      </trkpt>
      <trkpt lat="45.621" lon="-1.04831">
        <ele>60</ele>
        <time>2025-04-26T14:10:19Z</time>
      </trkpt>
      <trkpt lat="45.62095" lon="-1.04832">
        <ele>60</ele>
        <time>2025-04-26T14:10:20Z</time>
      </trkpt>
      <trkpt lat="45.6209" lon="-1.04834">
        <ele>60</ele>
        <time>2025-04-26T14:10:21Z</time>
      </trkpt>
      <trkpt lat="45.62085" lon="-1.04837">
        <ele>59</ele>
        <time>2025-04-26T14:10:22Z</time>
      </trkpt>
      <trkpt lat="45.6208" lon="-1.04839">
        <ele>59</ele>
        <time>2025-04-26T14:10:23Z</time>
      </trkpt>
      <trkpt lat="45.62076" lon="-1.04843">
        <ele>59</ele>
        <time>2025-04-26T14:10:24Z</time>
      </trkpt>
      <trkpt lat="45.62071" lon="-1.04847">
        <ele>59</ele>
        <time>2025-04-26T14:10:25Z</time>
      </trkpt>
      <trkpt lat="45.62068" lon="-1.04851">
        <ele>59</ele>
        <time>2025-04-26T14:10:26Z</time>
      </trkpt>
      <trkpt lat="45.62065" lon="-1.04857">
        <ele>59</ele>
        <time>2025-04-26T14:10:27Z</time>
      </trkpt>
      <trkpt lat="45.62063" lon="-1.04862">
        <ele>59</ele>
        <time>2025-04-26T14:10:28Z</time>
      </trkpt>
      <trkpt lat="45.62061" lon="-1.04868">
        <ele>59</ele>
        <time>2025-04-26T14:10:29Z</time>
      </trkpt>
      <trkpt lat="45.6206" lon="-1.04874">
        <ele>60</ele>
        <time>2025-04-26T14:10:30Z</time>
      </trkpt>
      <trkpt lat="45.6206" lon="-1.04879">
        <ele>60</ele>
        <time>2025-04-26T14:10:31Z</time>
      </trkpt>
      <trkpt lat="45.62061" lon="-1.04885">
        <ele>60</ele>
        <time>2025-04-26T14:10:32Z</time>
      </trkpt>
      <trkpt lat="45.62061" lon="-1.0489">
        <ele>61</ele>
        <time>2025-04-26T14:10:33Z</time>
      </trkpt>
      <trkpt lat="45.62063" lon="-1.04895">
        <ele>61</ele>
        <time>2025-04-26T14:10:34Z</time>
      </trkpt>
      <trkpt lat="45.62064" lon="-1.049">
        <ele>62</ele>
        <time>2025-04-26T14:10:35Z</time>
      </trkpt>
      <trkpt lat="45.62067" lon="-1.04904">
        <ele>63</ele>
        <time>2025-04-26T14:10:36Z</time>
      </trkpt>
      <trkpt lat="45.6207" lon="-1.04908">
        <ele>63</ele>
        <time>2025-04-26T14:10:37Z</time>
      </trkpt>
      <trkpt lat="45.62072" lon="-1.04912">
        <ele>63</ele>
        <time>2025-04-26T14:10:38Z</time>
      </trkpt>
      <trkpt lat="45.62075" lon="-1.04916">
        <ele>64</ele>
        <time>2025-04-26T14:10:39Z</time>
      </trkpt>
      <trkpt lat="45.62078" lon="-1.0492">
        <ele>64</ele>
        <time>2025-04-26T14:10:40Z</time>
      </trkpt>
      <trkpt lat="45.62081" lon="-1.04923">
        <ele>64</ele>
        <time>2025-04-26T14:10:41Z</time>
      </trkpt>
      <trkpt lat="45.62084" lon="-1.04927">
        <ele>64</ele>
        <time>2025-04-26T14:10:42Z</time>
      </trkpt>
      <trkpt lat="45.62086" lon="-1.04931">
        <ele>64</ele>
        <time>2025-04-26T14:10:43Z</time>
      </trkpt>
      <trkpt lat="45.62089" lon="-1.04934">
        <ele>64</ele>
        <time>2025-04-26T14:10:44Z</time>
      </trkpt>
      <trkpt lat="45.62091" lon="-1.04938">
        <ele>64</ele>
        <time>2025-04-26T14:10:45Z</time>
      </trkpt>
      <trkpt lat="45.62094" lon="-1.04941">
        <ele>64</ele>
        <time>2025-04-26T14:10:46Z</time>
      </trkpt>
      <trkpt lat="45.62096" lon="-1.04945">
        <ele>64</ele>
        <time>2025-04-26T14:10:47Z</time>
      </trkpt>
      <trkpt lat="45.62098" lon="-1.04949">
        <ele>64</ele>
        <time>2025-04-26T14:10:48Z</time>
      </trkpt>
      <trkpt lat="45.62101" lon="-1.04953">
        <ele>64</ele>
        <time>2025-04-26T14:10:49Z</time>
      </trkpt>
      <trkpt lat="45.62103" lon="-1.04957">
        <ele>64</ele>
        <time>2025-04-26T14:10:50Z</time>
      </trkpt>
      <trkpt lat="45.62105" lon="-1.04961">
        <ele>64</ele>
        <time>2025-04-26T14:10:51Z</time>
      </trkpt>
      <trkpt lat="45.62107" lon="-1.04965">
        <ele>64</ele>
        <time>2025-04-26T14:10:52Z</time>
      </trkpt>
      <trkpt lat="45.62109" lon="-1.04968">
        <ele>64</ele>
        <time>2025-04-26T14:10:53Z</time>
      </trkpt>
      <trkpt lat="45.62112" lon="-1.04972">
        <ele>64</ele>
        <time>2025-04-26T14:10:54Z</time>
      </trkpt>
      <trkpt lat="45.62114" lon="-1.04976">
        <ele>64</ele>
        <time>2025-04-26T14:10:55Z</time>
      </trkpt>
      <trkpt lat="45.62117" lon="-1.04979">
        <ele>64</ele>
        <time>2025-04-26T14:10:56Z</time>
      </trkpt>
      <trkpt lat="45.6212" lon="-1.04983">
        <ele>64</ele>
        <time>2025-04-26T14:10:57Z</time>
      </trkpt>
      <trkpt lat="45.62122" lon="-1.04987">
        <ele>64</ele>
        <time>2025-04-26T14:10:58Z</time>
      </trkpt>
      <trkpt lat="45.62124" lon="-1.04991">
        <ele>64</ele>
        <time>2025-04-26T14:10:59Z</time>
      </trkpt>
      <trkpt lat="45.62127" lon="-1.04995">
        <ele>64</ele>
        <time>2025-04-26T14:11:00Z</time>
      </trkpt>
      <trkpt lat="45.62129" lon="-1.04999">
        <ele>64</ele>
        <time>2025-04-26T14:11:01Z</time>
      </trkpt>
      <trkpt lat="45.62131" lon="-1.05003">
        <ele>63</ele>
        <time>2025-04-26T14:11:02Z</time>
      </trkpt>
      <trkpt lat="45.62133" lon="-1.05007">
        <ele>63</ele>
        <time>2025-04-26T14:11:03Z</time>
      </trkpt>
      <trkpt lat="45.62135" lon="-1.05011">
        <ele>63</ele>
        <time>2025-04-26T14:11:04Z</time>
      </trkpt>
      <trkpt lat="45.62137" lon="-1.05016">
        <ele>63</ele>
        <time>2025-04-26T14:11:05Z</time>
      </trkpt>
      <trkpt lat="45.6214" lon="-1.0502">
        <ele>62</ele>
        <time>2025-04-26T14:11:06Z</time>
      </trkpt>
      <trkpt lat="45.62142" lon="-1.05025">
        <ele>62</ele>
        <time>2025-04-26T14:11:07Z</time>
      </trkpt>
      <trkpt lat="45.62144" lon="-1.05029">
        <ele>62</ele>
        <time>2025-04-26T14:11:08Z</time>
      </trkpt>
      <trkpt lat="45.62146" lon="-1.05034">
        <ele>62</ele>
        <time>2025-04-26T14:11:09Z</time>
      </trkpt>
      <trkpt lat="45.62148" lon="-1.05038">
        <ele>62</ele>
        <time>2025-04-26T14:11:10Z</time>
      </trkpt>
      <trkpt lat="45.62151" lon="-1.05043">
        <ele>62</ele>
        <time>2025-04-26T14:11:11Z</time>
      </trkpt>
      <trkpt lat="45.62153" lon="-1.05047">
        <ele>62</ele>
        <time>2025-04-26T14:11:12Z</time>
      </trkpt>
      <trkpt lat="45.62155" lon="-1.05052">
        <ele>62</ele>
        <time>2025-04-26T14:11:13Z</time>
      </trkpt>
      <trkpt lat="45.62157" lon="-1.05057">
        <ele>62</ele>
        <time>2025-04-26T14:11:14Z</time>
      </trkpt>
      <trkpt lat="45.62159" lon="-1.05061">
        <ele>62</ele>
        <time>2025-04-26T14:11:15Z</time>
      </trkpt>
      <trkpt lat="45.62161" lon="-1.05066">
        <ele>62</ele>
        <time>2025-04-26T14:11:16Z</time>
      </trkpt>
      <trkpt lat="45.62164" lon="-1.0507">
        <ele>62</ele>
        <time>2025-04-26T14:11:17Z</time>
      </trkpt>
      <trkpt lat="45.62166" lon="-1.05075">
        <ele>62</ele>
        <time>2025-04-26T14:11:18Z</time>
      </trkpt>
      <trkpt lat="45.62168" lon="-1.0508">
        <ele>62</ele>
        <time>2025-04-26T14:11:19Z</time>
      </trkpt>
      <trkpt lat="45.62171" lon="-1.05085">
        <ele>62</ele>
        <time>2025-04-26T14:11:20Z</time>
      </trkpt>
      <trkpt lat="45.62173" lon="-1.0509">
        <ele>62</ele>
        <time>2025-04-26T14:11:21Z</time>
      </trkpt>
      <trkpt lat="45.62175" lon="-1.05095">
        <ele>62</ele>
        <time>2025-04-26T14:11:22Z</time>
      </trkpt>
      <trkpt lat="45.62178" lon="-1.051">
        <ele>62</ele>
        <time>2025-04-26T14:11:23Z</time>
      </trkpt>
      <trkpt lat="45.6218" lon="-1.05104">
        <ele>62</ele>
        <time>2025-04-26T14:11:24Z</time>
      </trkpt>
      <trkpt lat="45.62183" lon="-1.05109">
        <ele>62</ele>
        <time>2025-04-26T14:11:25Z</time>
      </trkpt>
      <trkpt lat="45.62185" lon="-1.05113">
        <ele>63</ele>
        <time>2025-04-26T14:11:26Z</time>
      </trkpt>
      <trkpt lat="45.62188" lon="-1.05118">
        <ele>62</ele>
        <time>2025-04-26T14:11:27Z</time>
      </trkpt>
      <trkpt lat="45.62191" lon="-1.05122">
        <ele>62</ele>
        <time>2025-04-26T14:11:28Z</time>
      </trkpt>
      <trkpt lat="45.62194" lon="-1.05127">
        <ele>62</ele>
        <time>2025-04-26T14:11:29Z</time>
      </trkpt>
      <trkpt lat="45.62196" lon="-1.05132">
        <ele>62</ele>
        <time>2025-04-26T14:11:30Z</time>
      </trkpt>
      <trkpt lat="45.62199" lon="-1.05136">
        <ele>62</ele>
        <time>2025-04-26T14:11:31Z</time>
      </trkpt>
      <trkpt lat="45.62201" lon="-1.0514">
        <ele>62</ele>
        <time>2025-04-26T14:11:32Z</time>
      </trkpt>
      <trkpt lat="45.62204" lon="-1.05144">
        <ele>62</ele>
        <time>2025-04-26T14:11:33Z</time>
      </trkpt>
      <trkpt lat="45.62206" lon="-1.05148">
        <ele>62</ele>
        <time>2025-04-26T14:11:34Z</time>
      </trkpt>
      <trkpt lat="45.62209" lon="-1.05152">
        <ele>62</ele>
        <time>2025-04-26T14:11:35Z</time>
      </trkpt>
      <trkpt lat="45.62211" lon="-1.05156">
        <ele>62</ele>
        <time>2025-04-26T14:11:36Z</time>
      </trkpt>
      <trkpt lat="45.62213" lon="-1.05159">
        <ele>62</ele>
        <time>2025-04-26T14:11:37Z</time>
      </trkpt>
      <trkpt lat="45.62215" lon="-1.05163">
        <ele>62</ele>
        <time>2025-04-26T14:11:38Z</time>
      </trkpt>
      <trkpt lat="45.62217" lon="-1.05167">
        <ele>62</ele>
        <time>2025-04-26T14:11:39Z</time>
      </trkpt>
      <trkpt lat="45.6222" lon="-1.0517">
        <ele>63</ele>
        <time>2025-04-26T14:11:40Z</time>
      </trkpt>
      <trkpt lat="45.62223" lon="-1.05173">
        <ele>63</ele>
        <time>2025-04-26T14:11:41Z</time>
      </trkpt>
      <trkpt lat="45.62225" lon="-1.05176">
        <ele>63</ele>
        <time>2025-04-26T14:11:42Z</time>
      </trkpt>
      <trkpt lat="45.62228" lon="-1.05179">
        <ele>63</ele>
        <time>2025-04-26T14:11:43Z</time>
      </trkpt>
      <trkpt lat="45.62231" lon="-1.05181">
        <ele>63</ele>
        <time>2025-04-26T14:11:44Z</time>
      </trkpt>
      <trkpt lat="45.62234" lon="-1.05183">
        <ele>63</ele>
        <time>2025-04-26T14:11:45Z</time>
      </trkpt>
      <trkpt lat="45.62237" lon="-1.05185">
        <ele>63</ele>
        <time>2025-04-26T14:11:46Z</time>
      </trkpt>
      <trkpt lat="45.6224" lon="-1.05187">
        <ele>63</ele>
        <time>2025-04-26T14:11:47Z</time>
      </trkpt>
      <trkpt lat="45.62243" lon="-1.05188">
        <ele>63</ele>
        <time>2025-04-26T14:11:48Z</time>
      </trkpt>
      <trkpt lat="45.62246" lon="-1.05189">
        <ele>63</ele>
        <time>2025-04-26T14:11:49Z</time>
      </trkpt>
      <trkpt lat="45.62249" lon="-1.05189">
        <ele>63</ele>
        <time>2025-04-26T14:11:50Z</time>
      </trkpt>
      <trkpt lat="45.62252" lon="-1.05189">
        <ele>63</ele>
        <time>2025-04-26T14:11:51Z</time>
      </trkpt>
      <trkpt lat="45.62256" lon="-1.05189">
        <ele>63</ele>
        <time>2025-04-26T14:11:52Z</time>
      </trkpt>
      <trkpt lat="45.62259" lon="-1.05189">
        <ele>62</ele>
        <time>2025-04-26T14:11:53Z</time>
      </trkpt>
      <trkpt lat="45.62262" lon="-1.05188">
        <ele>62</ele>
        <time>2025-04-26T14:11:54Z</time>
      </trkpt>
      <trkpt lat="45.62265" lon="-1.05186">
        <ele>62</ele>
        <time>2025-04-26T14:11:55Z</time>
      </trkpt>
      <trkpt lat="45.62268" lon="-1.05184">
        <ele>62</ele>
        <time>2025-04-26T14:11:56Z</time>
      </trkpt>
      <trkpt lat="45.62271" lon="-1.05182">
        <ele>62</ele>
        <time>2025-04-26T14:11:57Z</time>
      </trkpt>
      <trkpt lat="45.62274" lon="-1.0518">
        <ele>62</ele>
        <time>2025-04-26T14:11:58Z</time>
      </trkpt>
      <trkpt lat="45.62277" lon="-1.05178">
        <ele>62</ele>
        <time>2025-04-26T14:11:59Z</time>
      </trkpt>
      <trkpt lat="45.6228" lon="-1.05176">
        <ele>62</ele>
        <time>2025-04-26T14:12:00Z</time>
      </trkpt>
      <trkpt lat="45.62282" lon="-1.05173">
        <ele>63</ele>
        <time>2025-04-26T14:12:01Z</time>
      </trkpt>
      <trkpt lat="45.62285" lon="-1.0517">
        <ele>63</ele>
        <time>2025-04-26T14:12:02Z</time>
      </trkpt>
      <trkpt lat="45.62287" lon="-1.05166">
        <ele>63</ele>
        <time>2025-04-26T14:12:03Z</time>
      </trkpt>
      <trkpt lat="45.62289" lon="-1.05162">
        <ele>63</ele>
        <time>2025-04-26T14:12:04Z</time>
      </trkpt>
      <trkpt lat="45.62292" lon="-1.05158">
        <ele>63</ele>
        <time>2025-04-26T14:12:05Z</time>
      </trkpt>
      <trkpt lat="45.62294" lon="-1.05155">
        <ele>63</ele>
        <time>2025-04-26T14:12:06Z</time>
      </trkpt>
      <trkpt lat="45.62297" lon="-1.05151">
        <ele>63</ele>
        <time>2025-04-26T14:12:07Z</time>
      </trkpt>
      <trkpt lat="45.62299" lon="-1.05147">
        <ele>63</ele>
        <time>2025-04-26T14:12:08Z</time>
      </trkpt>
      <trkpt lat="45.62302" lon="-1.05144">
        <ele>62</ele>
        <time>2025-04-26T14:12:09Z</time>
      </trkpt>
      <trkpt lat="45.62305" lon="-1.05141">
        <ele>62</ele>
        <time>2025-04-26T14:12:10Z</time>
      </trkpt>
      <trkpt lat="45.62308" lon="-1.05138">
        <ele>62</ele>
        <time>2025-04-26T14:12:11Z</time>
      </trkpt>
      <trkpt lat="45.6231" lon="-1.05134">
        <ele>62</ele>
        <time>2025-04-26T14:12:12Z</time>
      </trkpt>
      <trkpt lat="45.62313" lon="-1.05131">
        <ele>61</ele>
        <time>2025-04-26T14:12:13Z</time>
      </trkpt>
      <trkpt lat="45.62316" lon="-1.05127">
        <ele>61</ele>
        <time>2025-04-26T14:12:14Z</time>
      </trkpt>
      <trkpt lat="45.62318" lon="-1.05123">
        <ele>61</ele>
        <time>2025-04-26T14:12:15Z</time>
      </trkpt>
      <trkpt lat="45.62321" lon="-1.0512">
        <ele>61</ele>
        <time>2025-04-26T14:12:16Z</time>
      </trkpt>
      <trkpt lat="45.62324" lon="-1.05117">
        <ele>61</ele>
        <time>2025-04-26T14:12:17Z</time>
      </trkpt>
      <trkpt lat="45.62327" lon="-1.05113">
        <ele>61</ele>
        <time>2025-04-26T14:12:18Z</time>
      </trkpt>
      <trkpt lat="45.62329" lon="-1.05109">
        <ele>61</ele>
        <time>2025-04-26T14:12:19Z</time>
      </trkpt>
      <trkpt lat="45.62332" lon="-1.05106">
        <ele>61</ele>
        <time>2025-04-26T14:12:20Z</time>
      </trkpt>
      <trkpt lat="45.62334" lon="-1.05103">
        <ele>61</ele>
        <time>2025-04-26T14:12:21Z</time>
      </trkpt>
      <trkpt lat="45.62337" lon="-1.051">
        <ele>61</ele>
        <time>2025-04-26T14:12:22Z</time>
      </trkpt>
      <trkpt lat="45.62339" lon="-1.05097">
        <ele>61</ele>
        <time>2025-04-26T14:12:23Z</time>
      </trkpt>
      <trkpt lat="45.62342" lon="-1.05093">
        <ele>61</ele>
        <time>2025-04-26T14:12:24Z</time>
      </trkpt>
      <trkpt lat="45.62344" lon="-1.0509">
        <ele>61</ele>
        <time>2025-04-26T14:12:25Z</time>
      </trkpt>
      <trkpt lat="45.62347" lon="-1.05088">
        <ele>61</ele>
        <time>2025-04-26T14:12:26Z</time>
      </trkpt>
      <trkpt lat="45.6235" lon="-1.05086">
        <ele>62</ele>
        <time>2025-04-26T14:12:27Z</time>
      </trkpt>
      <trkpt lat="45.62353" lon="-1.05085">
        <ele>62</ele>
        <time>2025-04-26T14:12:28Z</time>
      </trkpt>
      <trkpt lat="45.62357" lon="-1.05083">
        <ele>62</ele>
        <time>2025-04-26T14:12:29Z</time>
      </trkpt>
      <trkpt lat="45.6236" lon="-1.05082">
        <ele>62</ele>
        <time>2025-04-26T14:12:30Z</time>
      </trkpt>
      <trkpt lat="45.62363" lon="-1.0508">
        <ele>62</ele>
        <time>2025-04-26T14:12:31Z</time>
      </trkpt>
      <trkpt lat="45.62366" lon="-1.05079">
        <ele>62</ele>
        <time>2025-04-26T14:12:32Z</time>
      </trkpt>
      <trkpt lat="45.6237" lon="-1.05077">
        <ele>62</ele>
        <time>2025-04-26T14:12:33Z</time>
      </trkpt>
      <trkpt lat="45.62373" lon="-1.05076">
        <ele>62</ele>
        <time>2025-04-26T14:12:34Z</time>
      </trkpt>
      <trkpt lat="45.62376" lon="-1.05075">
        <ele>62</ele>
        <time>2025-04-26T14:12:35Z</time>
      </trkpt>
      <trkpt lat="45.62379" lon="-1.05074">
        <ele>62</ele>
        <time>2025-04-26T14:12:36Z</time>
      </trkpt>
      <trkpt lat="45.62383" lon="-1.05072">
        <ele>62</ele>
        <time>2025-04-26T14:12:37Z</time>
      </trkpt>
      <trkpt lat="45.62386" lon="-1.0507">
        <ele>62</ele>
        <time>2025-04-26T14:12:38Z</time>
      </trkpt>
      <trkpt lat="45.62389" lon="-1.05068">
        <ele>63</ele>
        <time>2025-04-26T14:12:39Z</time>
      </trkpt>
      <trkpt lat="45.62393" lon="-1.05066">
        <ele>63</ele>
        <time>2025-04-26T14:12:40Z</time>
      </trkpt>
      <trkpt lat="45.62396" lon="-1.05065">
        <ele>63</ele>
        <time>2025-04-26T14:12:41Z</time>
      </trkpt>
      <trkpt lat="45.62399" lon="-1.05063">
        <ele>63</ele>
        <time>2025-04-26T14:12:42Z</time>
      </trkpt>
      <trkpt lat="45.62402" lon="-1.05062">
        <ele>63</ele>
        <time>2025-04-26T14:12:43Z</time>
      </trkpt>
      <trkpt lat="45.62405" lon="-1.0506">
        <ele>63</ele>
        <time>2025-04-26T14:12:44Z</time>
      </trkpt>
      <trkpt lat="45.62408" lon="-1.05059">
        <ele>63</ele>
        <time>2025-04-26T14:12:45Z</time>
      </trkpt>
      <trkpt lat="45.62411" lon="-1.05057">
        <ele>63</ele>
        <time>2025-04-26T14:12:46Z</time>
      </trkpt>
      <trkpt lat="45.62414" lon="-1.05055">
        <ele>63</ele>
        <time>2025-04-26T14:12:47Z</time>
      </trkpt>
      <trkpt lat="45.62417" lon="-1.05054">
        <ele>63</ele>
        <time>2025-04-26T14:12:48Z</time>
      </trkpt>
      <trkpt lat="45.6242" lon="-1.05053">
        <ele>63</ele>
        <time>2025-04-26T14:12:49Z</time>
      </trkpt>
      <trkpt lat="45.62423" lon="-1.05052">
        <ele>63</ele>
        <time>2025-04-26T14:12:50Z</time>
      </trkpt>
      <trkpt lat="45.62426" lon="-1.0505">
        <ele>63</ele>
        <time>2025-04-26T14:12:51Z</time>
      </trkpt>
      <trkpt lat="45.62429" lon="-1.05049">
        <ele>63</ele>
        <time>2025-04-26T14:12:52Z</time>
      </trkpt>
      <trkpt lat="45.62432" lon="-1.05047">
        <ele>63</ele>
        <time>2025-04-26T14:12:53Z</time>
      </trkpt>
      <trkpt lat="45.62435" lon="-1.05046">
        <ele>64</ele>
        <time>2025-04-26T14:12:54Z</time>
      </trkpt>
      <trkpt lat="45.62438" lon="-1.05044">
        <ele>64</ele>
        <time>2025-04-26T14:12:55Z</time>
      </trkpt>
      <trkpt lat="45.62441" lon="-1.05043">
        <ele>64</ele>
        <time>2025-04-26T14:12:56Z</time>
      </trkpt>
      <trkpt lat="45.62443" lon="-1.05042">
        <ele>64</ele>
        <time>2025-04-26T14:12:57Z</time>
      </trkpt>
      <trkpt lat="45.62446" lon="-1.0504">
        <ele>64</ele>
        <time>2025-04-26T14:12:58Z</time>
      </trkpt>
      <trkpt lat="45.62449" lon="-1.05039">
        <ele>64</ele>
        <time>2025-04-26T14:12:59Z</time>
      </trkpt>
      <trkpt lat="45.62452" lon="-1.05038">
        <ele>64</ele>
        <time>2025-04-26T14:13:00Z</time>
      </trkpt>
      <trkpt lat="45.62454" lon="-1.05036">
        <ele>65</ele>
        <time>2025-04-26T14:13:01Z</time>
      </trkpt>
      <trkpt lat="45.62456" lon="-1.05034">
        <ele>65</ele>
        <time>2025-04-26T14:13:02Z</time>
      </trkpt>
      <trkpt lat="45.62458" lon="-1.05033">
        <ele>65</ele>
        <time>2025-04-26T14:13:03Z</time>
      </trkpt>
      <trkpt lat="45.62461" lon="-1.05032">
        <ele>65</ele>
        <time>2025-04-26T14:13:04Z</time>
      </trkpt>
      <trkpt lat="45.62463" lon="-1.05032">
        <ele>65</ele>
        <time>2025-04-26T14:13:05Z</time>
      </trkpt>
      <trkpt lat="45.62466" lon="-1.05032">
        <ele>66</ele>
        <time>2025-04-26T14:13:06Z</time>
      </trkpt>
      <trkpt lat="45.62468" lon="-1.05033">
        <ele>66</ele>
        <time>2025-04-26T14:13:07Z</time>
      </trkpt>
      <trkpt lat="45.62471" lon="-1.05034">
        <ele>66</ele>
        <time>2025-04-26T14:13:08Z</time>
      </trkpt>
      <trkpt lat="45.62474" lon="-1.05035">
        <ele>66</ele>
        <time>2025-04-26T14:13:09Z</time>
      </trkpt>
      <trkpt lat="45.62476" lon="-1.05036">
        <ele>66</ele>
        <time>2025-04-26T14:13:10Z</time>
      </trkpt>
      <trkpt lat="45.6248" lon="-1.05036">
        <ele>66</ele>
        <time>2025-04-26T14:13:11Z</time>
      </trkpt>
      <trkpt lat="45.62483" lon="-1.05035">
        <ele>66</ele>
        <time>2025-04-26T14:13:12Z</time>
      </trkpt>
      <trkpt lat="45.62486" lon="-1.05035">
        <ele>66</ele>
        <time>2025-04-26T14:13:13Z</time>
      </trkpt>
      <trkpt lat="45.62489" lon="-1.05034">
        <ele>66</ele>
        <time>2025-04-26T14:13:14Z</time>
      </trkpt>
      <trkpt lat="45.62491" lon="-1.05033">
        <ele>66</ele>
        <time>2025-04-26T14:13:15Z</time>
      </trkpt>
      <trkpt lat="45.62494" lon="-1.05031">
        <ele>66</ele>
        <time>2025-04-26T14:13:16Z</time>
      </trkpt>
      <trkpt lat="45.62496" lon="-1.0503">
        <ele>66</ele>
        <time>2025-04-26T14:13:17Z</time>
      </trkpt>
      <trkpt lat="45.62499" lon="-1.05028">
        <ele>66</ele>
        <time>2025-04-26T14:13:18Z</time>
      </trkpt>
      <trkpt lat="45.62501" lon="-1.05025">
        <ele>67</ele>
        <time>2025-04-26T14:13:19Z</time>
      </trkpt>
      <trkpt lat="45.62504" lon="-1.05024">
        <ele>66</ele>
        <time>2025-04-26T14:13:20Z</time>
      </trkpt>
      <trkpt lat="45.62506" lon="-1.05021">
        <ele>66</ele>
        <time>2025-04-26T14:13:21Z</time>
      </trkpt>
      <trkpt lat="45.62509" lon="-1.05019">
        <ele>66</ele>
        <time>2025-04-26T14:13:22Z</time>
      </trkpt>
      <trkpt lat="45.62512" lon="-1.05016">
        <ele>66</ele>
        <time>2025-04-26T14:13:23Z</time>
      </trkpt>
      <trkpt lat="45.62514" lon="-1.05014">
        <ele>65</ele>
        <time>2025-04-26T14:13:24Z</time>
      </trkpt>
      <trkpt lat="45.62517" lon="-1.05011">
        <ele>65</ele>
        <time>2025-04-26T14:13:25Z</time>
      </trkpt>
      <trkpt lat="45.6252" lon="-1.05008">
        <ele>65</ele>
        <time>2025-04-26T14:13:26Z</time>
      </trkpt>
      <trkpt lat="45.62522" lon="-1.05006">
        <ele>64</ele>
        <time>2025-04-26T14:13:27Z</time>
      </trkpt>
      <trkpt lat="45.62525" lon="-1.05004">
        <ele>64</ele>
        <time>2025-04-26T14:13:28Z</time>
      </trkpt>
      <trkpt lat="45.62527" lon="-1.05002">
        <ele>64</ele>
        <time>2025-04-26T14:13:29Z</time>
      </trkpt>
      <trkpt lat="45.62529" lon="-1.04999">
        <ele>63</ele>
        <time>2025-04-26T14:13:30Z</time>
      </trkpt>
      <trkpt lat="45.62532" lon="-1.04997">
        <ele>63</ele>
        <time>2025-04-26T14:13:31Z</time>
      </trkpt>
      <trkpt lat="45.62534" lon="-1.04996">
        <ele>63</ele>
        <time>2025-04-26T14:13:32Z</time>
      </trkpt>
      <trkpt lat="45.62536" lon="-1.04995">
        <ele>63</ele>
        <time>2025-04-26T14:13:33Z</time>
      </trkpt>
      <trkpt lat="45.62538" lon="-1.04994">
        <ele>64</ele>
        <time>2025-04-26T14:13:34Z</time>
      </trkpt>
      <trkpt lat="45.6254" lon="-1.04994">
        <ele>64</ele>
        <time>2025-04-26T14:13:35Z</time>
      </trkpt>
      <trkpt lat="45.62543" lon="-1.04996">
        <ele>65</ele>
        <time>2025-04-26T14:13:36Z</time>
      </trkpt>
      <trkpt lat="45.62545" lon="-1.04997">
        <ele>65</ele>
        <time>2025-04-26T14:13:37Z</time>
      </trkpt>
      <trkpt lat="45.62548" lon="-1.04998">
        <ele>65</ele>
        <time>2025-04-26T14:13:38Z</time>
      </trkpt>
      <trkpt lat="45.62551" lon="-1.04998">
        <ele>65</ele>
        <time>2025-04-26T14:13:39Z</time>
      </trkpt>
      <trkpt lat="45.62555" lon="-1.04999">
        <ele>65</ele>
        <time>2025-04-26T14:13:40Z</time>
      </trkpt>
      <trkpt lat="45.62558" lon="-1.05">
        <ele>65</ele>
        <time>2025-04-26T14:13:41Z</time>
      </trkpt>
      <trkpt lat="45.62561" lon="-1.05">
        <ele>65</ele>
        <time>2025-04-26T14:13:42Z</time>
      </trkpt>
      <trkpt lat="45.62564" lon="-1.05001">
        <ele>65</ele>
        <time>2025-04-26T14:13:43Z</time>
      </trkpt>
      <trkpt lat="45.62568" lon="-1.05002">
        <ele>65</ele>
        <time>2025-04-26T14:13:44Z</time>
      </trkpt>
      <trkpt lat="45.62571" lon="-1.05003">
        <ele>65</ele>
        <time>2025-04-26T14:13:45Z</time>
      </trkpt>
      <trkpt lat="45.62574" lon="-1.05004">
        <ele>65</ele>
        <time>2025-04-26T14:13:46Z</time>
      </trkpt>
      <trkpt lat="45.62578" lon="-1.05006">
        <ele>65</ele>
        <time>2025-04-26T14:13:47Z</time>
      </trkpt>
      <trkpt lat="45.6258" lon="-1.05009">
        <ele>65</ele>
        <time>2025-04-26T14:13:48Z</time>
      </trkpt>
      <trkpt lat="45.62583" lon="-1.05011">
        <ele>65</ele>
        <time>2025-04-26T14:13:49Z</time>
      </trkpt>
      <trkpt lat="45.62586" lon="-1.05014">
        <ele>65</ele>
        <time>2025-04-26T14:13:50Z</time>
      </trkpt>
      <trkpt lat="45.62589" lon="-1.05017">
        <ele>65</ele>
        <time>2025-04-26T14:13:51Z</time>
      </trkpt>
      <trkpt lat="45.62591" lon="-1.0502">
        <ele>65</ele>
        <time>2025-04-26T14:13:52Z</time>
      </trkpt>
      <trkpt lat="45.62594" lon="-1.05023">
        <ele>64</ele>
        <time>2025-04-26T14:13:53Z</time>
      </trkpt>
      <trkpt lat="45.62597" lon="-1.05026">
        <ele>65</ele>
        <time>2025-04-26T14:13:54Z</time>
      </trkpt>
      <trkpt lat="45.62599" lon="-1.0503">
        <ele>64</ele>
        <time>2025-04-26T14:13:55Z</time>
      </trkpt>
      <trkpt lat="45.62602" lon="-1.05033">
        <ele>64</ele>
        <time>2025-04-26T14:13:56Z</time>
      </trkpt>
      <trkpt lat="45.62605" lon="-1.05036">
        <ele>64</ele>
        <time>2025-04-26T14:13:57Z</time>
      </trkpt>
      <trkpt lat="45.62608" lon="-1.05039">
        <ele>64</ele>
        <time>2025-04-26T14:13:58Z</time>
      </trkpt>
      <trkpt lat="45.62611" lon="-1.05043">
        <ele>63</ele>
        <time>2025-04-26T14:13:59Z</time>
      </trkpt>
      <trkpt lat="45.62615" lon="-1.05046">
        <ele>63</ele>
        <time>2025-04-26T14:14:00Z</time>
      </trkpt>
      <trkpt lat="45.62618" lon="-1.0505">
        <ele>63</ele>
        <time>2025-04-26T14:14:01Z</time>
      </trkpt>
      <trkpt lat="45.62621" lon="-1.05054">
        <ele>62</ele>
        <time>2025-04-26T14:14:02Z</time>
      </trkpt>
      <trkpt lat="45.62625" lon="-1.05058">
        <ele>62</ele>
        <time>2025-04-26T14:14:03Z</time>
      </trkpt>
      <trkpt lat="45.62628" lon="-1.05063">
        <ele>62</ele>
        <time>2025-04-26T14:14:04Z</time>
      </trkpt>
      <trkpt lat="45.62631" lon="-1.05066">
        <ele>62</ele>
        <time>2025-04-26T14:14:05Z</time>
      </trkpt>
      <trkpt lat="45.62633" lon="-1.0507">
        <ele>62</ele>
        <time>2025-04-26T14:14:06Z</time>
      </trkpt>
      <trkpt lat="45.62637" lon="-1.05074">
        <ele>61</ele>
        <time>2025-04-26T14:14:07Z</time>
      </trkpt>
      <trkpt lat="45.62639" lon="-1.05077">
        <ele>61</ele>
        <time>2025-04-26T14:14:08Z</time>
      </trkpt>
      <trkpt lat="45.62642" lon="-1.05081">
        <ele>60</ele>
        <time>2025-04-26T14:14:09Z</time>
      </trkpt>
      <trkpt lat="45.62645" lon="-1.05084">
        <ele>61</ele>
        <time>2025-04-26T14:14:10Z</time>
      </trkpt>
      <trkpt lat="45.62648" lon="-1.05088">
        <ele>61</ele>
        <time>2025-04-26T14:14:11Z</time>
      </trkpt>
      <trkpt lat="45.6265" lon="-1.05091">
        <ele>60</ele>
        <time>2025-04-26T14:14:12Z</time>
      </trkpt>
      <trkpt lat="45.62653" lon="-1.05095">
        <ele>60</ele>
        <time>2025-04-26T14:14:13Z</time>
      </trkpt>
      <trkpt lat="45.62655" lon="-1.05098">
        <ele>61</ele>
        <time>2025-04-26T14:14:14Z</time>
      </trkpt>
      <trkpt lat="45.62658" lon="-1.05101">
        <ele>61</ele>
        <time>2025-04-26T14:14:15Z</time>
      </trkpt>
      <trkpt lat="45.6266" lon="-1.05103">
        <ele>61</ele>
        <time>2025-04-26T14:14:16Z</time>
      </trkpt>
      <trkpt lat="45.62663" lon="-1.05105">
        <ele>61</ele>
        <time>2025-04-26T14:14:17Z</time>
      </trkpt>
      <trkpt lat="45.62665" lon="-1.05106">
        <ele>61</ele>
        <time>2025-04-26T14:14:18Z</time>
      </trkpt>
      <trkpt lat="45.62666" lon="-1.05108">
        <ele>61</ele>
        <time>2025-04-26T14:14:19Z</time>
      </trkpt>
      <trkpt lat="45.62667" lon="-1.05109">
        <ele>61</ele>
        <time>2025-04-26T14:14:20Z</time>
      </trkpt>
      <trkpt lat="45.62668" lon="-1.0511">
        <ele>61</ele>
        <time>2025-04-26T14:14:21Z</time>
      </trkpt>
      <trkpt lat="45.62669" lon="-1.05111">
        <ele>61</ele>
        <time>2025-04-26T14:14:22Z</time>
      </trkpt>
      <trkpt lat="45.62669" lon="-1.05111">
        <ele>61</ele>
        <time>2025-04-26T14:14:23Z</time>
      </trkpt>
      <trkpt lat="45.62669" lon="-1.0511">
        <ele>61</ele>
        <time>2025-04-26T14:14:24Z</time>
      </trkpt>
      <trkpt lat="45.62669" lon="-1.0511">
        <ele>61</ele>
        <time>2025-04-26T14:14:25Z</time>
      </trkpt>
      <trkpt lat="45.62669" lon="-1.0511">
        <ele>61</ele>
        <time>2025-04-26T14:14:26Z</time>
      </trkpt>
      <trkpt lat="45.62669" lon="-1.05109">
        <ele>61</ele>
        <time>2025-04-26T14:14:27Z</time>
      </trkpt>
      <trkpt lat="45.62669" lon="-1.05109">
        <ele>61</ele>
        <time>2025-04-26T14:14:28Z</time>
      </trkpt>
      <trkpt lat="45.6267" lon="-1.05108">
        <ele>61</ele>
        <time>2025-04-26T14:14:29Z</time>
      </trkpt>
      <trkpt lat="45.62671" lon="-1.05107">
        <ele>61</ele>
        <time>2025-04-26T14:14:30Z</time>
      </trkpt>
      <trkpt lat="45.62672" lon="-1.05107">
        <ele>61</ele>
        <time>2025-04-26T14:14:31Z</time>
      </trkpt>
      <trkpt lat="45.62673" lon="-1.05106">
        <ele>61</ele>
        <time>2025-04-26T14:14:32Z</time>
      </trkpt>
      <trkpt lat="45.62674" lon="-1.05106">
        <ele>61</ele>
        <time>2025-04-26T14:14:33Z</time>
      </trkpt>
      <trkpt lat="45.62674" lon="-1.05106">
        <ele>60</ele>
        <time>2025-04-26T14:14:34Z</time>
      </trkpt>
      <trkpt lat="45.62675" lon="-1.05106">
        <ele>60</ele>
        <time>2025-04-26T14:14:35Z</time>
      </trkpt>
      <trkpt lat="45.62675" lon="-1.05105">
        <ele>60</ele>
        <time>2025-04-26T14:14:36Z</time>
      </trkpt>
      <trkpt lat="45.62675" lon="-1.05105">
        <ele>60</ele>
        <time>2025-04-26T14:14:37Z</time>
      </trkpt>
      <trkpt lat="45.62675" lon="-1.05105">
        <ele>60</ele>
        <time>2025-04-26T14:14:38Z</time>
      </trkpt>
      <trkpt lat="45.62675" lon="-1.05105">
        <ele>60</ele>
        <time>2025-04-26T14:14:39Z</time>
      </trkpt>
      <trkpt lat="45.62675" lon="-1.05105">
        <ele>60</ele>
        <time>2025-04-26T14:14:40Z</time>
      </trkpt>
      <trkpt lat="45.62675" lon="-1.05106">
        <ele>60</ele>
        <time>2025-04-26T14:14:41Z</time>
      </trkpt>
      <trkpt lat="45.62675" lon="-1.05106">
        <ele>60</ele>
        <time>2025-04-26T14:14:42Z</time>
      </trkpt>
      <trkpt lat="45.62675" lon="-1.05107">
        <ele>60</ele>
        <time>2025-04-26T14:14:43Z</time>
      </trkpt>
      <trkpt lat="45.62675" lon="-1.05107">
        <ele>60</ele>
        <time>2025-04-26T14:14:44Z</time>
      </trkpt>
      <trkpt lat="45.62675" lon="-1.05107">
        <ele>60</ele>
        <time>2025-04-26T14:14:45Z</time>
      </trkpt>
      <trkpt lat="45.62675" lon="-1.05107">
        <ele>60</ele>
        <time>2025-04-26T14:14:46Z</time>
      </trkpt>
      <trkpt lat="45.62675" lon="-1.05107">
        <ele>60</ele>
        <time>2025-04-26T14:14:47Z</time>
      </trkpt>
      <trkpt lat="45.62675" lon="-1.05107">
        <ele>60</ele>
        <time>2025-04-26T14:14:48Z</time>
      </trkpt>
      <trkpt lat="45.62675" lon="-1.05107">
        <ele>60</ele>
        <time>2025-04-26T14:14:49Z</time>
      </trkpt>
      <trkpt lat="45.62675" lon="-1.05107">
        <ele>60</ele>
        <time>2025-04-26T14:14:50Z</time>
      </trkpt>
      <trkpt lat="45.62675" lon="-1.05107">
        <ele>60</ele>
        <time>2025-04-26T14:14:51Z</time>
      </trkpt>
      <trkpt lat="45.62675" lon="-1.05107">
        <ele>60</ele>
        <time>2025-04-26T14:14:52Z</time>
      </trkpt>
      <trkpt lat="45.62675" lon="-1.05107">
        <ele>60</ele>
        <time>2025-04-26T14:14:53Z</time>
      </trkpt>
      <trkpt lat="45.62675" lon="-1.05107">
        <ele>60</ele>
        <time>2025-04-26T14:14:54Z</time>
      </trkpt>
      <trkpt lat="45.62675" lon="-1.05107">
        <ele>60</ele>
        <time>2025-04-26T14:14:55Z</time>
      </trkpt>
    </trkseg>
  </trk>
</gpx>